<?xml version="1.0" encoding="UTF-8" standalone="no" ?>
<gpx xmlns="http://www.topografix.com/GPX/1/1" xmlns:xsi="http://www.w3.org/2001/XMLSchema-instance" xsi:schemaLocation="http://www.topografix.com/GPX/1/1 http://www.topografix.com/GPX/1/1/gpx.xsd" version="1.1" creator="VisuGPX - https://www.visugpx.com">
  <metadata>
    <name>merdaret</name>
    <desc><![CDATA[col du merdaret, les marches, brignoud. Intérêt *]]></desc>
  </metadata>
  <trk>
    <name><![CDATA[2014-10-18-01]]></name>
    <trkseg>
      <trkpt lat="45.50153" lon="5.9976">
        <ele>329.3</ele>
        <time>2014-10-18T10:07:02Z</time>
      </trkpt>
      <trkpt lat="45.50148" lon="5.99761">
        <ele>329.1</ele>
        <time>2014-10-18T10:07:04Z</time>
      </trkpt>
      <trkpt lat="45.5014" lon="5.9977">
        <ele>329.1</ele>
        <time>2014-10-18T10:07:07Z</time>
      </trkpt>
      <trkpt lat="45.50129" lon="5.99777">
        <ele>328.9</ele>
        <time>2014-10-18T10:07:10Z</time>
      </trkpt>
      <trkpt lat="45.50119" lon="5.99784">
        <ele>328.7</ele>
        <time>2014-10-18T10:07:13Z</time>
      </trkpt>
      <trkpt lat="45.50108" lon="5.99791">
        <ele>328.7</ele>
        <time>2014-10-18T10:07:16Z</time>
      </trkpt>
      <trkpt lat="45.50098" lon="5.998">
        <ele>328.5</ele>
        <time>2014-10-18T10:07:19Z</time>
      </trkpt>
      <trkpt lat="45.5009" lon="5.99808">
        <ele>328.4</ele>
        <time>2014-10-18T10:07:21Z</time>
      </trkpt>
      <trkpt lat="45.50083" lon="5.99816">
        <ele>328.1</ele>
        <time>2014-10-18T10:07:23Z</time>
      </trkpt>
      <trkpt lat="45.50077" lon="5.99827">
        <ele>327.8</ele>
        <time>2014-10-18T10:07:25Z</time>
      </trkpt>
      <trkpt lat="45.5007" lon="5.99837">
        <ele>327.5</ele>
        <time>2014-10-18T10:07:27Z</time>
      </trkpt>
      <trkpt lat="45.50063" lon="5.99847">
        <ele>327</ele>
        <time>2014-10-18T10:07:29Z</time>
      </trkpt>
      <trkpt lat="45.50057" lon="5.99858">
        <ele>326.8</ele>
        <time>2014-10-18T10:07:31Z</time>
      </trkpt>
      <trkpt lat="45.50049" lon="5.99869">
        <ele>326.5</ele>
        <time>2014-10-18T10:07:33Z</time>
      </trkpt>
      <trkpt lat="45.5004" lon="5.99879">
        <ele>325.9</ele>
        <time>2014-10-18T10:07:35Z</time>
      </trkpt>
      <trkpt lat="45.50031" lon="5.99889">
        <ele>325.7</ele>
        <time>2014-10-18T10:07:37Z</time>
      </trkpt>
      <trkpt lat="45.5002" lon="5.99898">
        <ele>325.4</ele>
        <time>2014-10-18T10:07:39Z</time>
      </trkpt>
      <trkpt lat="45.50009" lon="5.99909">
        <ele>324.8</ele>
        <time>2014-10-18T10:07:41Z</time>
      </trkpt>
      <trkpt lat="45.49997" lon="5.99918">
        <ele>324</ele>
        <time>2014-10-18T10:07:43Z</time>
      </trkpt>
      <trkpt lat="45.49984" lon="5.99928">
        <ele>323.5</ele>
        <time>2014-10-18T10:07:45Z</time>
      </trkpt>
      <trkpt lat="45.49971" lon="5.9994">
        <ele>323</ele>
        <time>2014-10-18T10:07:47Z</time>
      </trkpt>
      <trkpt lat="45.49958" lon="5.99951">
        <ele>322.2</ele>
        <time>2014-10-18T10:07:49Z</time>
      </trkpt>
      <trkpt lat="45.49948" lon="5.99963">
        <ele>321.6</ele>
        <time>2014-10-18T10:07:51Z</time>
      </trkpt>
      <trkpt lat="45.49937" lon="5.99975">
        <ele>321.1</ele>
        <time>2014-10-18T10:07:53Z</time>
      </trkpt>
      <trkpt lat="45.49927" lon="5.99985">
        <ele>320.8</ele>
        <time>2014-10-18T10:07:55Z</time>
      </trkpt>
      <trkpt lat="45.49915" lon="5.99995">
        <ele>320.5</ele>
        <time>2014-10-18T10:07:57Z</time>
      </trkpt>
      <trkpt lat="45.49906" lon="6.00007">
        <ele>320</ele>
        <time>2014-10-18T10:07:59Z</time>
      </trkpt>
      <trkpt lat="45.49897" lon="6.00017">
        <ele>319.7</ele>
        <time>2014-10-18T10:08:01Z</time>
      </trkpt>
      <trkpt lat="45.49889" lon="6.00025">
        <ele>319.5</ele>
        <time>2014-10-18T10:08:03Z</time>
      </trkpt>
      <trkpt lat="45.49877" lon="6.00026">
        <ele>319</ele>
        <time>2014-10-18T10:08:06Z</time>
      </trkpt>
      <trkpt lat="45.49865" lon="6.00029">
        <ele>319</ele>
        <time>2014-10-18T10:08:10Z</time>
      </trkpt>
      <trkpt lat="45.49859" lon="6.00038">
        <ele>319.4</ele>
        <time>2014-10-18T10:08:13Z</time>
      </trkpt>
      <trkpt lat="45.49851" lon="6.00046">
        <ele>319.1</ele>
        <time>2014-10-18T10:08:16Z</time>
      </trkpt>
      <trkpt lat="45.49842" lon="6.00048">
        <ele>318</ele>
        <time>2014-10-18T10:08:19Z</time>
      </trkpt>
      <trkpt lat="45.49833" lon="6.00053">
        <ele>317</ele>
        <time>2014-10-18T10:09:20Z</time>
      </trkpt>
      <trkpt lat="45.49821" lon="6.00051">
        <ele>317.1</ele>
        <time>2014-10-18T10:10:59Z</time>
      </trkpt>
      <trkpt lat="45.49811" lon="6.00048">
        <ele>316.8</ele>
        <time>2014-10-18T10:11:02Z</time>
      </trkpt>
      <trkpt lat="45.49801" lon="6.00049">
        <ele>316.4</ele>
        <time>2014-10-18T10:11:05Z</time>
      </trkpt>
      <trkpt lat="45.49788" lon="6.00056">
        <ele>316.1</ele>
        <time>2014-10-18T10:11:08Z</time>
      </trkpt>
      <trkpt lat="45.4978" lon="6.00062">
        <ele>316</ele>
        <time>2014-10-18T10:11:10Z</time>
      </trkpt>
      <trkpt lat="45.49772" lon="6.00069">
        <ele>315.7</ele>
        <time>2014-10-18T10:11:12Z</time>
      </trkpt>
      <trkpt lat="45.49764" lon="6.00076">
        <ele>315.6</ele>
        <time>2014-10-18T10:11:14Z</time>
      </trkpt>
      <trkpt lat="45.49756" lon="6.00082">
        <ele>315.4</ele>
        <time>2014-10-18T10:11:16Z</time>
      </trkpt>
      <trkpt lat="45.49747" lon="6.0009">
        <ele>315.2</ele>
        <time>2014-10-18T10:11:18Z</time>
      </trkpt>
      <trkpt lat="45.49738" lon="6.00097">
        <ele>315.1</ele>
        <time>2014-10-18T10:11:20Z</time>
      </trkpt>
      <trkpt lat="45.49729" lon="6.00104">
        <ele>314.4</ele>
        <time>2014-10-18T10:11:22Z</time>
      </trkpt>
      <trkpt lat="45.49718" lon="6.00112">
        <ele>314</ele>
        <time>2014-10-18T10:11:24Z</time>
      </trkpt>
      <trkpt lat="45.49708" lon="6.0012">
        <ele>313.6</ele>
        <time>2014-10-18T10:11:26Z</time>
      </trkpt>
      <trkpt lat="45.49696" lon="6.00128">
        <ele>313.1</ele>
        <time>2014-10-18T10:11:28Z</time>
      </trkpt>
      <trkpt lat="45.49684" lon="6.00137">
        <ele>312.7</ele>
        <time>2014-10-18T10:11:30Z</time>
      </trkpt>
      <trkpt lat="45.49673" lon="6.00146">
        <ele>311.9</ele>
        <time>2014-10-18T10:11:32Z</time>
      </trkpt>
      <trkpt lat="45.4966" lon="6.00156">
        <ele>311.3</ele>
        <time>2014-10-18T10:11:34Z</time>
      </trkpt>
      <trkpt lat="45.49648" lon="6.00165">
        <ele>310.8</ele>
        <time>2014-10-18T10:11:36Z</time>
      </trkpt>
      <trkpt lat="45.49633" lon="6.00172">
        <ele>309.9</ele>
        <time>2014-10-18T10:11:38Z</time>
      </trkpt>
      <trkpt lat="45.49616" lon="6.00169">
        <ele>309.1</ele>
        <time>2014-10-18T10:11:40Z</time>
      </trkpt>
      <trkpt lat="45.496" lon="6.00161">
        <ele>308.2</ele>
        <time>2014-10-18T10:11:42Z</time>
      </trkpt>
      <trkpt lat="45.49583" lon="6.00151">
        <ele>307.3</ele>
        <time>2014-10-18T10:11:44Z</time>
      </trkpt>
      <trkpt lat="45.49575" lon="6.00147">
        <ele>306.8</ele>
        <time>2014-10-18T10:11:45Z</time>
      </trkpt>
      <trkpt lat="45.49558" lon="6.00139">
        <ele>305.8</ele>
        <time>2014-10-18T10:11:47Z</time>
      </trkpt>
      <trkpt lat="45.49541" lon="6.00132">
        <ele>305.2</ele>
        <time>2014-10-18T10:11:49Z</time>
      </trkpt>
      <trkpt lat="45.49524" lon="6.00125">
        <ele>304.8</ele>
        <time>2014-10-18T10:11:51Z</time>
      </trkpt>
      <trkpt lat="45.49508" lon="6.00119">
        <ele>304</ele>
        <time>2014-10-18T10:11:53Z</time>
      </trkpt>
      <trkpt lat="45.49493" lon="6.00113">
        <ele>303.6</ele>
        <time>2014-10-18T10:11:55Z</time>
      </trkpt>
      <trkpt lat="45.49478" lon="6.00107">
        <ele>302.9</ele>
        <time>2014-10-18T10:11:57Z</time>
      </trkpt>
      <trkpt lat="45.49463" lon="6.001">
        <ele>302.6</ele>
        <time>2014-10-18T10:11:59Z</time>
      </trkpt>
      <trkpt lat="45.49449" lon="6.00094">
        <ele>302.4</ele>
        <time>2014-10-18T10:12:01Z</time>
      </trkpt>
      <trkpt lat="45.49436" lon="6.00086">
        <ele>302.2</ele>
        <time>2014-10-18T10:12:03Z</time>
      </trkpt>
      <trkpt lat="45.49425" lon="6.00077">
        <ele>301.5</ele>
        <time>2014-10-18T10:12:05Z</time>
      </trkpt>
      <trkpt lat="45.49414" lon="6.00067">
        <ele>301.3</ele>
        <time>2014-10-18T10:12:07Z</time>
      </trkpt>
      <trkpt lat="45.49404" lon="6.00057">
        <ele>301.1</ele>
        <time>2014-10-18T10:12:09Z</time>
      </trkpt>
      <trkpt lat="45.49393" lon="6.00048">
        <ele>300.6</ele>
        <time>2014-10-18T10:12:11Z</time>
      </trkpt>
      <trkpt lat="45.49383" lon="6.00039">
        <ele>300.3</ele>
        <time>2014-10-18T10:12:13Z</time>
      </trkpt>
      <trkpt lat="45.49374" lon="6.00031">
        <ele>300</ele>
        <time>2014-10-18T10:12:15Z</time>
      </trkpt>
      <trkpt lat="45.49365" lon="6.00028">
        <ele>299.8</ele>
        <time>2014-10-18T10:12:17Z</time>
      </trkpt>
      <trkpt lat="45.49356" lon="6.00023">
        <ele>299.8</ele>
        <time>2014-10-18T10:12:19Z</time>
      </trkpt>
      <trkpt lat="45.49347" lon="6.00018">
        <ele>299.6</ele>
        <time>2014-10-18T10:12:21Z</time>
      </trkpt>
      <trkpt lat="45.49338" lon="6.00023">
        <ele>299.5</ele>
        <time>2014-10-18T10:12:23Z</time>
      </trkpt>
      <trkpt lat="45.49329" lon="6.00032">
        <ele>299.6</ele>
        <time>2014-10-18T10:12:25Z</time>
      </trkpt>
      <trkpt lat="45.49321" lon="6.00038">
        <ele>299.7</ele>
        <time>2014-10-18T10:12:27Z</time>
      </trkpt>
      <trkpt lat="45.49312" lon="6.00042">
        <ele>299.9</ele>
        <time>2014-10-18T10:12:29Z</time>
      </trkpt>
      <trkpt lat="45.493" lon="6.00046">
        <ele>300.3</ele>
        <time>2014-10-18T10:12:32Z</time>
      </trkpt>
      <trkpt lat="45.49289" lon="6.00053">
        <ele>300.7</ele>
        <time>2014-10-18T10:12:35Z</time>
      </trkpt>
      <trkpt lat="45.4928" lon="6.0006">
        <ele>301.3</ele>
        <time>2014-10-18T10:12:38Z</time>
      </trkpt>
      <trkpt lat="45.49271" lon="6.00067">
        <ele>301.9</ele>
        <time>2014-10-18T10:12:41Z</time>
      </trkpt>
      <trkpt lat="45.49262" lon="6.00076">
        <ele>302</ele>
        <time>2014-10-18T10:12:44Z</time>
      </trkpt>
      <trkpt lat="45.49253" lon="6.00084">
        <ele>302.3</ele>
        <time>2014-10-18T10:12:47Z</time>
      </trkpt>
      <trkpt lat="45.49242" lon="6.00091">
        <ele>302.4</ele>
        <time>2014-10-18T10:12:50Z</time>
      </trkpt>
      <trkpt lat="45.49232" lon="6.00097">
        <ele>302.4</ele>
        <time>2014-10-18T10:12:53Z</time>
      </trkpt>
      <trkpt lat="45.4922" lon="6.00103">
        <ele>302.5</ele>
        <time>2014-10-18T10:12:56Z</time>
      </trkpt>
      <trkpt lat="45.49209" lon="6.0011">
        <ele>302.9</ele>
        <time>2014-10-18T10:12:59Z</time>
      </trkpt>
      <trkpt lat="45.49196" lon="6.00115">
        <ele>303</ele>
        <time>2014-10-18T10:13:02Z</time>
      </trkpt>
      <trkpt lat="45.49184" lon="6.00121">
        <ele>303.1</ele>
        <time>2014-10-18T10:13:05Z</time>
      </trkpt>
      <trkpt lat="45.49172" lon="6.00126">
        <ele>303.1</ele>
        <time>2014-10-18T10:13:08Z</time>
      </trkpt>
      <trkpt lat="45.4916" lon="6.0013">
        <ele>303</ele>
        <time>2014-10-18T10:13:11Z</time>
      </trkpt>
      <trkpt lat="45.49148" lon="6.00132">
        <ele>303</ele>
        <time>2014-10-18T10:13:14Z</time>
      </trkpt>
      <trkpt lat="45.49134" lon="6.00135">
        <ele>302.7</ele>
        <time>2014-10-18T10:13:17Z</time>
      </trkpt>
      <trkpt lat="45.49124" lon="6.00138">
        <ele>302.2</ele>
        <time>2014-10-18T10:13:19Z</time>
      </trkpt>
      <trkpt lat="45.49113" lon="6.0014">
        <ele>301.6</ele>
        <time>2014-10-18T10:13:21Z</time>
      </trkpt>
      <trkpt lat="45.49101" lon="6.00141">
        <ele>301.1</ele>
        <time>2014-10-18T10:13:23Z</time>
      </trkpt>
      <trkpt lat="45.49088" lon="6.00141">
        <ele>300.4</ele>
        <time>2014-10-18T10:13:25Z</time>
      </trkpt>
      <trkpt lat="45.49073" lon="6.00141">
        <ele>299.5</ele>
        <time>2014-10-18T10:13:27Z</time>
      </trkpt>
      <trkpt lat="45.49058" lon="6.0014">
        <ele>298.7</ele>
        <time>2014-10-18T10:13:29Z</time>
      </trkpt>
      <trkpt lat="45.49043" lon="6.00137">
        <ele>297.6</ele>
        <time>2014-10-18T10:13:31Z</time>
      </trkpt>
      <trkpt lat="45.49027" lon="6.00136">
        <ele>296.3</ele>
        <time>2014-10-18T10:13:33Z</time>
      </trkpt>
      <trkpt lat="45.49009" lon="6.00142">
        <ele>295</ele>
        <time>2014-10-18T10:13:35Z</time>
      </trkpt>
      <trkpt lat="45.49001" lon="6.00146">
        <ele>294.3</ele>
        <time>2014-10-18T10:13:36Z</time>
      </trkpt>
      <trkpt lat="45.48992" lon="6.00152">
        <ele>293.5</ele>
        <time>2014-10-18T10:13:37Z</time>
      </trkpt>
      <trkpt lat="45.48984" lon="6.00158">
        <ele>292.9</ele>
        <time>2014-10-18T10:13:38Z</time>
      </trkpt>
      <trkpt lat="45.48976" lon="6.00165">
        <ele>292.3</ele>
        <time>2014-10-18T10:13:39Z</time>
      </trkpt>
      <trkpt lat="45.48961" lon="6.00179">
        <ele>291.2</ele>
        <time>2014-10-18T10:13:41Z</time>
      </trkpt>
      <trkpt lat="45.48948" lon="6.0019">
        <ele>290.2</ele>
        <time>2014-10-18T10:13:43Z</time>
      </trkpt>
      <trkpt lat="45.48936" lon="6.00197">
        <ele>289.4</ele>
        <time>2014-10-18T10:13:45Z</time>
      </trkpt>
      <trkpt lat="45.48923" lon="6.00204">
        <ele>288.6</ele>
        <time>2014-10-18T10:13:47Z</time>
      </trkpt>
      <trkpt lat="45.48912" lon="6.00213">
        <ele>287.9</ele>
        <time>2014-10-18T10:13:49Z</time>
      </trkpt>
      <trkpt lat="45.489" lon="6.00222">
        <ele>287.5</ele>
        <time>2014-10-18T10:13:51Z</time>
      </trkpt>
      <trkpt lat="45.4889" lon="6.00232">
        <ele>287.1</ele>
        <time>2014-10-18T10:13:53Z</time>
      </trkpt>
      <trkpt lat="45.4888" lon="6.00244">
        <ele>286.6</ele>
        <time>2014-10-18T10:13:55Z</time>
      </trkpt>
      <trkpt lat="45.48871" lon="6.00254">
        <ele>286.2</ele>
        <time>2014-10-18T10:13:57Z</time>
      </trkpt>
      <trkpt lat="45.48861" lon="6.00266">
        <ele>285.2</ele>
        <time>2014-10-18T10:13:59Z</time>
      </trkpt>
      <trkpt lat="45.48848" lon="6.00275">
        <ele>284.4</ele>
        <time>2014-10-18T10:14:01Z</time>
      </trkpt>
      <trkpt lat="45.48833" lon="6.0028">
        <ele>283.5</ele>
        <time>2014-10-18T10:14:03Z</time>
      </trkpt>
      <trkpt lat="45.48818" lon="6.00284">
        <ele>282.7</ele>
        <time>2014-10-18T10:14:05Z</time>
      </trkpt>
      <trkpt lat="45.48803" lon="6.00289">
        <ele>282</ele>
        <time>2014-10-18T10:14:07Z</time>
      </trkpt>
      <trkpt lat="45.4879" lon="6.00295">
        <ele>282.3</ele>
        <time>2014-10-18T10:14:09Z</time>
      </trkpt>
      <trkpt lat="45.48778" lon="6.00301">
        <ele>281.8</ele>
        <time>2014-10-18T10:14:11Z</time>
      </trkpt>
      <trkpt lat="45.48767" lon="6.00305">
        <ele>281.4</ele>
        <time>2014-10-18T10:14:13Z</time>
      </trkpt>
      <trkpt lat="45.48754" lon="6.00304">
        <ele>281.2</ele>
        <time>2014-10-18T10:14:15Z</time>
      </trkpt>
      <trkpt lat="45.48742" lon="6.00301">
        <ele>280.6</ele>
        <time>2014-10-18T10:14:18Z</time>
      </trkpt>
      <trkpt lat="45.48733" lon="6.00296">
        <ele>280.2</ele>
        <time>2014-10-18T10:14:20Z</time>
      </trkpt>
      <trkpt lat="45.48724" lon="6.00288">
        <ele>279.7</ele>
        <time>2014-10-18T10:14:22Z</time>
      </trkpt>
      <trkpt lat="45.48717" lon="6.00275">
        <ele>279.1</ele>
        <time>2014-10-18T10:14:24Z</time>
      </trkpt>
      <trkpt lat="45.4871" lon="6.00263">
        <ele>278.7</ele>
        <time>2014-10-18T10:14:26Z</time>
      </trkpt>
      <trkpt lat="45.48704" lon="6.00249">
        <ele>278.2</ele>
        <time>2014-10-18T10:14:28Z</time>
      </trkpt>
      <trkpt lat="45.48698" lon="6.00234">
        <ele>277.6</ele>
        <time>2014-10-18T10:14:30Z</time>
      </trkpt>
      <trkpt lat="45.48693" lon="6.00222">
        <ele>277.4</ele>
        <time>2014-10-18T10:14:32Z</time>
      </trkpt>
      <trkpt lat="45.48689" lon="6.00205">
        <ele>277.3</ele>
        <time>2014-10-18T10:14:35Z</time>
      </trkpt>
      <trkpt lat="45.48686" lon="6.00191">
        <ele>277.2</ele>
        <time>2014-10-18T10:14:39Z</time>
      </trkpt>
      <trkpt lat="45.48689" lon="6.00207">
        <ele>277.1</ele>
        <time>2014-10-18T10:14:52Z</time>
      </trkpt>
      <trkpt lat="45.48693" lon="6.00224">
        <ele>276.7</ele>
        <time>2014-10-18T10:14:56Z</time>
      </trkpt>
      <trkpt lat="45.48698" lon="6.00237">
        <ele>276.5</ele>
        <time>2014-10-18T10:14:59Z</time>
      </trkpt>
      <trkpt lat="45.48704" lon="6.00249">
        <ele>276.6</ele>
        <time>2014-10-18T10:15:02Z</time>
      </trkpt>
      <trkpt lat="45.4871" lon="6.00261">
        <ele>276.8</ele>
        <time>2014-10-18T10:15:05Z</time>
      </trkpt>
      <trkpt lat="45.48716" lon="6.00271">
        <ele>277.1</ele>
        <time>2014-10-18T10:15:08Z</time>
      </trkpt>
      <trkpt lat="45.48724" lon="6.00283">
        <ele>277.8</ele>
        <time>2014-10-18T10:15:12Z</time>
      </trkpt>
      <trkpt lat="45.4873" lon="6.00293">
        <ele>278.2</ele>
        <time>2014-10-18T10:15:16Z</time>
      </trkpt>
      <trkpt lat="45.4874" lon="6.00297">
        <ele>278.7</ele>
        <time>2014-10-18T10:15:21Z</time>
      </trkpt>
      <trkpt lat="45.48747" lon="6.00306">
        <ele>279.4</ele>
        <time>2014-10-18T10:15:26Z</time>
      </trkpt>
      <trkpt lat="45.48741" lon="6.00316">
        <ele>278.9</ele>
        <time>2014-10-18T10:15:29Z</time>
      </trkpt>
      <trkpt lat="45.48729" lon="6.00324">
        <ele>278.6</ele>
        <time>2014-10-18T10:15:32Z</time>
      </trkpt>
      <trkpt lat="45.4872" lon="6.00331">
        <ele>278.1</ele>
        <time>2014-10-18T10:15:34Z</time>
      </trkpt>
      <trkpt lat="45.48709" lon="6.00334">
        <ele>277.5</ele>
        <time>2014-10-18T10:15:36Z</time>
      </trkpt>
      <trkpt lat="45.48696" lon="6.00336">
        <ele>277</ele>
        <time>2014-10-18T10:15:38Z</time>
      </trkpt>
      <trkpt lat="45.48684" lon="6.00344">
        <ele>276.1</ele>
        <time>2014-10-18T10:15:40Z</time>
      </trkpt>
      <trkpt lat="45.48672" lon="6.00353">
        <ele>275.6</ele>
        <time>2014-10-18T10:15:42Z</time>
      </trkpt>
      <trkpt lat="45.4866" lon="6.00361">
        <ele>275</ele>
        <time>2014-10-18T10:15:44Z</time>
      </trkpt>
      <trkpt lat="45.48648" lon="6.0037">
        <ele>274.5</ele>
        <time>2014-10-18T10:15:46Z</time>
      </trkpt>
      <trkpt lat="45.48637" lon="6.00378">
        <ele>274.1</ele>
        <time>2014-10-18T10:15:48Z</time>
      </trkpt>
      <trkpt lat="45.48624" lon="6.00382">
        <ele>273.8</ele>
        <time>2014-10-18T10:15:50Z</time>
      </trkpt>
      <trkpt lat="45.48611" lon="6.00385">
        <ele>273.4</ele>
        <time>2014-10-18T10:15:52Z</time>
      </trkpt>
      <trkpt lat="45.48598" lon="6.00387">
        <ele>272.6</ele>
        <time>2014-10-18T10:15:54Z</time>
      </trkpt>
      <trkpt lat="45.48584" lon="6.00386">
        <ele>271.9</ele>
        <time>2014-10-18T10:15:56Z</time>
      </trkpt>
      <trkpt lat="45.4857" lon="6.00386">
        <ele>271.3</ele>
        <time>2014-10-18T10:15:58Z</time>
      </trkpt>
      <trkpt lat="45.48556" lon="6.00388">
        <ele>270.6</ele>
        <time>2014-10-18T10:16:00Z</time>
      </trkpt>
      <trkpt lat="45.48543" lon="6.00389">
        <ele>270.1</ele>
        <time>2014-10-18T10:16:02Z</time>
      </trkpt>
      <trkpt lat="45.48532" lon="6.00384">
        <ele>269.6</ele>
        <time>2014-10-18T10:16:04Z</time>
      </trkpt>
      <trkpt lat="45.48521" lon="6.00375">
        <ele>269.4</ele>
        <time>2014-10-18T10:16:06Z</time>
      </trkpt>
      <trkpt lat="45.48511" lon="6.00365">
        <ele>269.2</ele>
        <time>2014-10-18T10:16:08Z</time>
      </trkpt>
      <trkpt lat="45.48499" lon="6.00355">
        <ele>268.8</ele>
        <time>2014-10-18T10:16:10Z</time>
      </trkpt>
      <trkpt lat="45.48488" lon="6.00348">
        <ele>268.4</ele>
        <time>2014-10-18T10:16:12Z</time>
      </trkpt>
      <trkpt lat="45.48478" lon="6.00344">
        <ele>268.5</ele>
        <time>2014-10-18T10:16:14Z</time>
      </trkpt>
      <trkpt lat="45.48468" lon="6.00343">
        <ele>268.8</ele>
        <time>2014-10-18T10:16:16Z</time>
      </trkpt>
      <trkpt lat="45.48455" lon="6.00347">
        <ele>268.7</ele>
        <time>2014-10-18T10:16:19Z</time>
      </trkpt>
      <trkpt lat="45.48448" lon="6.00354">
        <ele>268.8</ele>
        <time>2014-10-18T10:16:21Z</time>
      </trkpt>
      <trkpt lat="45.48439" lon="6.00368">
        <ele>268.7</ele>
        <time>2014-10-18T10:16:24Z</time>
      </trkpt>
      <trkpt lat="45.48432" lon="6.00384">
        <ele>268.6</ele>
        <time>2014-10-18T10:16:27Z</time>
      </trkpt>
      <trkpt lat="45.48425" lon="6.00399">
        <ele>268.5</ele>
        <time>2014-10-18T10:16:30Z</time>
      </trkpt>
      <trkpt lat="45.48418" lon="6.00414">
        <ele>268.4</ele>
        <time>2014-10-18T10:16:33Z</time>
      </trkpt>
      <trkpt lat="45.48413" lon="6.00425">
        <ele>268.3</ele>
        <time>2014-10-18T10:16:35Z</time>
      </trkpt>
      <trkpt lat="45.48407" lon="6.00436">
        <ele>267.9</ele>
        <time>2014-10-18T10:16:37Z</time>
      </trkpt>
      <trkpt lat="45.484" lon="6.00448">
        <ele>267.6</ele>
        <time>2014-10-18T10:16:39Z</time>
      </trkpt>
      <trkpt lat="45.48391" lon="6.00461">
        <ele>267.1</ele>
        <time>2014-10-18T10:16:41Z</time>
      </trkpt>
      <trkpt lat="45.48381" lon="6.00469">
        <ele>266.6</ele>
        <time>2014-10-18T10:16:43Z</time>
      </trkpt>
      <trkpt lat="45.48371" lon="6.00476">
        <ele>266.6</ele>
        <time>2014-10-18T10:16:45Z</time>
      </trkpt>
      <trkpt lat="45.4836" lon="6.00481">
        <ele>266.2</ele>
        <time>2014-10-18T10:16:47Z</time>
      </trkpt>
      <trkpt lat="45.48349" lon="6.00485">
        <ele>265.9</ele>
        <time>2014-10-18T10:16:49Z</time>
      </trkpt>
      <trkpt lat="45.48338" lon="6.00489">
        <ele>265.6</ele>
        <time>2014-10-18T10:16:51Z</time>
      </trkpt>
      <trkpt lat="45.48328" lon="6.00495">
        <ele>265.6</ele>
        <time>2014-10-18T10:16:53Z</time>
      </trkpt>
      <trkpt lat="45.48318" lon="6.00502">
        <ele>265.5</ele>
        <time>2014-10-18T10:16:55Z</time>
      </trkpt>
      <trkpt lat="45.48309" lon="6.00511">
        <ele>265.3</ele>
        <time>2014-10-18T10:16:57Z</time>
      </trkpt>
      <trkpt lat="45.483" lon="6.0052">
        <ele>265.3</ele>
        <time>2014-10-18T10:16:59Z</time>
      </trkpt>
      <trkpt lat="45.4829" lon="6.00529">
        <ele>265.1</ele>
        <time>2014-10-18T10:17:01Z</time>
      </trkpt>
      <trkpt lat="45.48281" lon="6.00537">
        <ele>265</ele>
        <time>2014-10-18T10:17:03Z</time>
      </trkpt>
      <trkpt lat="45.48271" lon="6.00546">
        <ele>264.9</ele>
        <time>2014-10-18T10:17:05Z</time>
      </trkpt>
      <trkpt lat="45.48262" lon="6.00554">
        <ele>265</ele>
        <time>2014-10-18T10:17:07Z</time>
      </trkpt>
      <trkpt lat="45.48252" lon="6.00564">
        <ele>264.9</ele>
        <time>2014-10-18T10:17:09Z</time>
      </trkpt>
      <trkpt lat="45.48244" lon="6.00573">
        <ele>264.6</ele>
        <time>2014-10-18T10:17:11Z</time>
      </trkpt>
      <trkpt lat="45.48237" lon="6.00584">
        <ele>264.5</ele>
        <time>2014-10-18T10:17:13Z</time>
      </trkpt>
      <trkpt lat="45.48231" lon="6.00597">
        <ele>264.4</ele>
        <time>2014-10-18T10:17:15Z</time>
      </trkpt>
      <trkpt lat="45.48225" lon="6.00611">
        <ele>264.3</ele>
        <time>2014-10-18T10:17:17Z</time>
      </trkpt>
      <trkpt lat="45.4822" lon="6.00626">
        <ele>264.4</ele>
        <time>2014-10-18T10:17:19Z</time>
      </trkpt>
      <trkpt lat="45.48214" lon="6.0064">
        <ele>264.1</ele>
        <time>2014-10-18T10:17:21Z</time>
      </trkpt>
      <trkpt lat="45.48209" lon="6.00654">
        <ele>263.9</ele>
        <time>2014-10-18T10:17:23Z</time>
      </trkpt>
      <trkpt lat="45.48203" lon="6.00669">
        <ele>263.8</ele>
        <time>2014-10-18T10:17:25Z</time>
      </trkpt>
      <trkpt lat="45.48198" lon="6.00683">
        <ele>263.6</ele>
        <time>2014-10-18T10:17:27Z</time>
      </trkpt>
      <trkpt lat="45.48193" lon="6.00697">
        <ele>263.6</ele>
        <time>2014-10-18T10:17:29Z</time>
      </trkpt>
      <trkpt lat="45.48188" lon="6.00711">
        <ele>263.4</ele>
        <time>2014-10-18T10:17:31Z</time>
      </trkpt>
      <trkpt lat="45.48182" lon="6.00723">
        <ele>263.2</ele>
        <time>2014-10-18T10:17:33Z</time>
      </trkpt>
      <trkpt lat="45.48175" lon="6.00735">
        <ele>263</ele>
        <time>2014-10-18T10:17:35Z</time>
      </trkpt>
      <trkpt lat="45.48168" lon="6.00744">
        <ele>262.6</ele>
        <time>2014-10-18T10:17:37Z</time>
      </trkpt>
      <trkpt lat="45.48159" lon="6.00751">
        <ele>262.7</ele>
        <time>2014-10-18T10:17:39Z</time>
      </trkpt>
      <trkpt lat="45.4815" lon="6.00758">
        <ele>262.6</ele>
        <time>2014-10-18T10:17:41Z</time>
      </trkpt>
      <trkpt lat="45.48141" lon="6.00766">
        <ele>262.3</ele>
        <time>2014-10-18T10:17:43Z</time>
      </trkpt>
      <trkpt lat="45.48132" lon="6.00773">
        <ele>262.1</ele>
        <time>2014-10-18T10:17:45Z</time>
      </trkpt>
      <trkpt lat="45.48123" lon="6.0078">
        <ele>262.1</ele>
        <time>2014-10-18T10:17:47Z</time>
      </trkpt>
      <trkpt lat="45.48113" lon="6.00786">
        <ele>262</ele>
        <time>2014-10-18T10:17:49Z</time>
      </trkpt>
      <trkpt lat="45.48103" lon="6.00793">
        <ele>261.6</ele>
        <time>2014-10-18T10:17:51Z</time>
      </trkpt>
      <trkpt lat="45.48093" lon="6.00799">
        <ele>261.6</ele>
        <time>2014-10-18T10:17:53Z</time>
      </trkpt>
      <trkpt lat="45.48083" lon="6.00806">
        <ele>261.4</ele>
        <time>2014-10-18T10:17:55Z</time>
      </trkpt>
      <trkpt lat="45.48072" lon="6.00812">
        <ele>261.6</ele>
        <time>2014-10-18T10:17:57Z</time>
      </trkpt>
      <trkpt lat="45.48062" lon="6.00818">
        <ele>261.6</ele>
        <time>2014-10-18T10:17:59Z</time>
      </trkpt>
      <trkpt lat="45.48051" lon="6.00825">
        <ele>261.2</ele>
        <time>2014-10-18T10:18:01Z</time>
      </trkpt>
      <trkpt lat="45.4804" lon="6.00832">
        <ele>260.9</ele>
        <time>2014-10-18T10:18:03Z</time>
      </trkpt>
      <trkpt lat="45.48029" lon="6.00839">
        <ele>260.6</ele>
        <time>2014-10-18T10:18:05Z</time>
      </trkpt>
      <trkpt lat="45.48017" lon="6.00845">
        <ele>260.4</ele>
        <time>2014-10-18T10:18:07Z</time>
      </trkpt>
      <trkpt lat="45.48005" lon="6.00852">
        <ele>260.1</ele>
        <time>2014-10-18T10:18:09Z</time>
      </trkpt>
      <trkpt lat="45.47994" lon="6.00858">
        <ele>259.9</ele>
        <time>2014-10-18T10:18:11Z</time>
      </trkpt>
      <trkpt lat="45.47983" lon="6.00865">
        <ele>259.7</ele>
        <time>2014-10-18T10:18:13Z</time>
      </trkpt>
      <trkpt lat="45.47972" lon="6.00873">
        <ele>259.4</ele>
        <time>2014-10-18T10:18:15Z</time>
      </trkpt>
      <trkpt lat="45.47961" lon="6.00882">
        <ele>259.4</ele>
        <time>2014-10-18T10:18:17Z</time>
      </trkpt>
      <trkpt lat="45.47951" lon="6.00889">
        <ele>259.3</ele>
        <time>2014-10-18T10:18:19Z</time>
      </trkpt>
      <trkpt lat="45.47941" lon="6.00896">
        <ele>259.3</ele>
        <time>2014-10-18T10:18:21Z</time>
      </trkpt>
      <trkpt lat="45.47931" lon="6.00902">
        <ele>258.9</ele>
        <time>2014-10-18T10:18:23Z</time>
      </trkpt>
      <trkpt lat="45.47921" lon="6.00904">
        <ele>258.8</ele>
        <time>2014-10-18T10:18:25Z</time>
      </trkpt>
      <trkpt lat="45.47911" lon="6.00903">
        <ele>258.8</ele>
        <time>2014-10-18T10:18:27Z</time>
      </trkpt>
      <trkpt lat="45.47901" lon="6.009">
        <ele>258.6</ele>
        <time>2014-10-18T10:18:29Z</time>
      </trkpt>
      <trkpt lat="45.47891" lon="6.009">
        <ele>258.4</ele>
        <time>2014-10-18T10:18:31Z</time>
      </trkpt>
      <trkpt lat="45.47881" lon="6.00903">
        <ele>258.6</ele>
        <time>2014-10-18T10:18:33Z</time>
      </trkpt>
      <trkpt lat="45.47872" lon="6.00908">
        <ele>258.6</ele>
        <time>2014-10-18T10:18:35Z</time>
      </trkpt>
      <trkpt lat="45.47862" lon="6.00914">
        <ele>258.6</ele>
        <time>2014-10-18T10:18:37Z</time>
      </trkpt>
      <trkpt lat="45.47852" lon="6.0092">
        <ele>258.7</ele>
        <time>2014-10-18T10:18:39Z</time>
      </trkpt>
      <trkpt lat="45.47842" lon="6.00927">
        <ele>258.3</ele>
        <time>2014-10-18T10:18:41Z</time>
      </trkpt>
      <trkpt lat="45.47832" lon="6.00933">
        <ele>258</ele>
        <time>2014-10-18T10:18:43Z</time>
      </trkpt>
      <trkpt lat="45.47822" lon="6.00941">
        <ele>257.8</ele>
        <time>2014-10-18T10:18:45Z</time>
      </trkpt>
      <trkpt lat="45.47813" lon="6.00949">
        <ele>257.4</ele>
        <time>2014-10-18T10:18:47Z</time>
      </trkpt>
      <trkpt lat="45.47804" lon="6.00956">
        <ele>257.7</ele>
        <time>2014-10-18T10:18:49Z</time>
      </trkpt>
      <trkpt lat="45.47795" lon="6.00963">
        <ele>257.4</ele>
        <time>2014-10-18T10:18:51Z</time>
      </trkpt>
      <trkpt lat="45.47785" lon="6.0097">
        <ele>257.4</ele>
        <time>2014-10-18T10:18:53Z</time>
      </trkpt>
      <trkpt lat="45.47777" lon="6.00978">
        <ele>257.2</ele>
        <time>2014-10-18T10:18:55Z</time>
      </trkpt>
      <trkpt lat="45.47767" lon="6.00985">
        <ele>257.3</ele>
        <time>2014-10-18T10:18:57Z</time>
      </trkpt>
      <trkpt lat="45.47758" lon="6.00992">
        <ele>257</ele>
        <time>2014-10-18T10:18:59Z</time>
      </trkpt>
      <trkpt lat="45.47748" lon="6.00999">
        <ele>257</ele>
        <time>2014-10-18T10:19:01Z</time>
      </trkpt>
      <trkpt lat="45.47739" lon="6.01007">
        <ele>257</ele>
        <time>2014-10-18T10:19:03Z</time>
      </trkpt>
      <trkpt lat="45.47731" lon="6.01014">
        <ele>256.7</ele>
        <time>2014-10-18T10:19:05Z</time>
      </trkpt>
      <trkpt lat="45.47721" lon="6.01025">
        <ele>256.5</ele>
        <time>2014-10-18T10:19:08Z</time>
      </trkpt>
      <trkpt lat="45.47715" lon="6.01039">
        <ele>256.5</ele>
        <time>2014-10-18T10:19:11Z</time>
      </trkpt>
      <trkpt lat="45.4771" lon="6.01053">
        <ele>256.5</ele>
        <time>2014-10-18T10:19:14Z</time>
      </trkpt>
      <trkpt lat="45.47702" lon="6.01059">
        <ele>256.4</ele>
        <time>2014-10-18T10:19:17Z</time>
      </trkpt>
      <trkpt lat="45.47692" lon="6.01052">
        <ele>256.5</ele>
        <time>2014-10-18T10:19:20Z</time>
      </trkpt>
      <trkpt lat="45.4768" lon="6.01043">
        <ele>256.4</ele>
        <time>2014-10-18T10:19:23Z</time>
      </trkpt>
      <trkpt lat="45.47671" lon="6.01036">
        <ele>256.5</ele>
        <time>2014-10-18T10:19:25Z</time>
      </trkpt>
      <trkpt lat="45.47662" lon="6.01029">
        <ele>256.6</ele>
        <time>2014-10-18T10:19:27Z</time>
      </trkpt>
      <trkpt lat="45.47653" lon="6.01023">
        <ele>256.7</ele>
        <time>2014-10-18T10:19:29Z</time>
      </trkpt>
      <trkpt lat="45.47643" lon="6.01016">
        <ele>256.7</ele>
        <time>2014-10-18T10:19:31Z</time>
      </trkpt>
      <trkpt lat="45.47634" lon="6.01009">
        <ele>256.8</ele>
        <time>2014-10-18T10:19:33Z</time>
      </trkpt>
      <trkpt lat="45.47625" lon="6.01002">
        <ele>256.7</ele>
        <time>2014-10-18T10:19:35Z</time>
      </trkpt>
      <trkpt lat="45.47615" lon="6.00995">
        <ele>256.7</ele>
        <time>2014-10-18T10:19:37Z</time>
      </trkpt>
      <trkpt lat="45.47606" lon="6.00988">
        <ele>256.7</ele>
        <time>2014-10-18T10:19:39Z</time>
      </trkpt>
      <trkpt lat="45.47596" lon="6.00981">
        <ele>256.9</ele>
        <time>2014-10-18T10:19:41Z</time>
      </trkpt>
      <trkpt lat="45.47587" lon="6.00974">
        <ele>256.6</ele>
        <time>2014-10-18T10:19:43Z</time>
      </trkpt>
      <trkpt lat="45.47577" lon="6.00967">
        <ele>256.9</ele>
        <time>2014-10-18T10:19:45Z</time>
      </trkpt>
      <trkpt lat="45.47567" lon="6.0096">
        <ele>257</ele>
        <time>2014-10-18T10:19:47Z</time>
      </trkpt>
      <trkpt lat="45.47558" lon="6.00952">
        <ele>257.1</ele>
        <time>2014-10-18T10:19:49Z</time>
      </trkpt>
      <trkpt lat="45.47549" lon="6.00945">
        <ele>257</ele>
        <time>2014-10-18T10:19:51Z</time>
      </trkpt>
      <trkpt lat="45.47539" lon="6.00937">
        <ele>257</ele>
        <time>2014-10-18T10:19:53Z</time>
      </trkpt>
      <trkpt lat="45.4753" lon="6.0093">
        <ele>257.2</ele>
        <time>2014-10-18T10:19:55Z</time>
      </trkpt>
      <trkpt lat="45.47521" lon="6.00923">
        <ele>257.1</ele>
        <time>2014-10-18T10:19:57Z</time>
      </trkpt>
      <trkpt lat="45.47511" lon="6.00916">
        <ele>257.3</ele>
        <time>2014-10-18T10:19:59Z</time>
      </trkpt>
      <trkpt lat="45.47502" lon="6.00909">
        <ele>257.2</ele>
        <time>2014-10-18T10:20:01Z</time>
      </trkpt>
      <trkpt lat="45.47492" lon="6.00901">
        <ele>257.4</ele>
        <time>2014-10-18T10:20:03Z</time>
      </trkpt>
      <trkpt lat="45.47483" lon="6.00895">
        <ele>257.6</ele>
        <time>2014-10-18T10:20:05Z</time>
      </trkpt>
      <trkpt lat="45.47473" lon="6.00888">
        <ele>257.6</ele>
        <time>2014-10-18T10:20:07Z</time>
      </trkpt>
      <trkpt lat="45.47464" lon="6.00881">
        <ele>257.5</ele>
        <time>2014-10-18T10:20:09Z</time>
      </trkpt>
      <trkpt lat="45.47454" lon="6.00873">
        <ele>257.6</ele>
        <time>2014-10-18T10:20:11Z</time>
      </trkpt>
      <trkpt lat="45.47445" lon="6.00867">
        <ele>257.4</ele>
        <time>2014-10-18T10:20:13Z</time>
      </trkpt>
      <trkpt lat="45.47435" lon="6.0086">
        <ele>257.8</ele>
        <time>2014-10-18T10:20:15Z</time>
      </trkpt>
      <trkpt lat="45.47426" lon="6.00853">
        <ele>257.4</ele>
        <time>2014-10-18T10:20:17Z</time>
      </trkpt>
      <trkpt lat="45.47417" lon="6.00846">
        <ele>257.3</ele>
        <time>2014-10-18T10:20:19Z</time>
      </trkpt>
      <trkpt lat="45.47407" lon="6.00839">
        <ele>257.3</ele>
        <time>2014-10-18T10:20:21Z</time>
      </trkpt>
      <trkpt lat="45.47398" lon="6.00832">
        <ele>257.4</ele>
        <time>2014-10-18T10:20:23Z</time>
      </trkpt>
      <trkpt lat="45.47389" lon="6.00826">
        <ele>257.5</ele>
        <time>2014-10-18T10:20:25Z</time>
      </trkpt>
      <trkpt lat="45.4738" lon="6.00818">
        <ele>257.4</ele>
        <time>2014-10-18T10:20:27Z</time>
      </trkpt>
      <trkpt lat="45.47371" lon="6.00811">
        <ele>257.9</ele>
        <time>2014-10-18T10:20:29Z</time>
      </trkpt>
      <trkpt lat="45.47362" lon="6.00804">
        <ele>258.2</ele>
        <time>2014-10-18T10:20:31Z</time>
      </trkpt>
      <trkpt lat="45.47352" lon="6.00797">
        <ele>258</ele>
        <time>2014-10-18T10:20:33Z</time>
      </trkpt>
      <trkpt lat="45.47343" lon="6.0079">
        <ele>258.1</ele>
        <time>2014-10-18T10:20:35Z</time>
      </trkpt>
      <trkpt lat="45.47334" lon="6.00782">
        <ele>258.1</ele>
        <time>2014-10-18T10:20:37Z</time>
      </trkpt>
      <trkpt lat="45.47326" lon="6.00775">
        <ele>258.1</ele>
        <time>2014-10-18T10:20:39Z</time>
      </trkpt>
      <trkpt lat="45.47317" lon="6.00767">
        <ele>258.2</ele>
        <time>2014-10-18T10:20:41Z</time>
      </trkpt>
      <trkpt lat="45.47309" lon="6.00759">
        <ele>258.2</ele>
        <time>2014-10-18T10:20:43Z</time>
      </trkpt>
      <trkpt lat="45.473" lon="6.00751">
        <ele>258.3</ele>
        <time>2014-10-18T10:20:45Z</time>
      </trkpt>
      <trkpt lat="45.47292" lon="6.00742">
        <ele>258.5</ele>
        <time>2014-10-18T10:20:47Z</time>
      </trkpt>
      <trkpt lat="45.47284" lon="6.00734">
        <ele>258.6</ele>
        <time>2014-10-18T10:20:49Z</time>
      </trkpt>
      <trkpt lat="45.47275" lon="6.00724">
        <ele>258.8</ele>
        <time>2014-10-18T10:20:51Z</time>
      </trkpt>
      <trkpt lat="45.47267" lon="6.00715">
        <ele>259</ele>
        <time>2014-10-18T10:20:53Z</time>
      </trkpt>
      <trkpt lat="45.47258" lon="6.00708">
        <ele>256.5</ele>
        <time>2014-10-18T10:20:55Z</time>
      </trkpt>
      <trkpt lat="45.47251" lon="6.007">
        <ele>259.5</ele>
        <time>2014-10-18T10:20:57Z</time>
      </trkpt>
      <trkpt lat="45.47243" lon="6.00692">
        <ele>259.7</ele>
        <time>2014-10-18T10:20:59Z</time>
      </trkpt>
      <trkpt lat="45.47235" lon="6.00684">
        <ele>259.6</ele>
        <time>2014-10-18T10:21:01Z</time>
      </trkpt>
      <trkpt lat="45.47228" lon="6.00676">
        <ele>259.6</ele>
        <time>2014-10-18T10:21:03Z</time>
      </trkpt>
      <trkpt lat="45.47221" lon="6.00667">
        <ele>259.4</ele>
        <time>2014-10-18T10:21:05Z</time>
      </trkpt>
      <trkpt lat="45.47213" lon="6.00659">
        <ele>259.6</ele>
        <time>2014-10-18T10:21:07Z</time>
      </trkpt>
      <trkpt lat="45.47204" lon="6.0065">
        <ele>259.8</ele>
        <time>2014-10-18T10:21:09Z</time>
      </trkpt>
      <trkpt lat="45.47196" lon="6.00643">
        <ele>260.3</ele>
        <time>2014-10-18T10:21:11Z</time>
      </trkpt>
      <trkpt lat="45.47187" lon="6.00636">
        <ele>260.3</ele>
        <time>2014-10-18T10:21:13Z</time>
      </trkpt>
      <trkpt lat="45.47178" lon="6.00628">
        <ele>260.6</ele>
        <time>2014-10-18T10:21:15Z</time>
      </trkpt>
      <trkpt lat="45.47168" lon="6.00621">
        <ele>260.5</ele>
        <time>2014-10-18T10:21:17Z</time>
      </trkpt>
      <trkpt lat="45.47159" lon="6.00614">
        <ele>260.7</ele>
        <time>2014-10-18T10:21:19Z</time>
      </trkpt>
      <trkpt lat="45.47149" lon="6.00609">
        <ele>260.8</ele>
        <time>2014-10-18T10:21:21Z</time>
      </trkpt>
      <trkpt lat="45.47138" lon="6.00604">
        <ele>260.9</ele>
        <time>2014-10-18T10:21:23Z</time>
      </trkpt>
      <trkpt lat="45.47127" lon="6.00601">
        <ele>261</ele>
        <time>2014-10-18T10:21:25Z</time>
      </trkpt>
      <trkpt lat="45.47116" lon="6.00597">
        <ele>261.1</ele>
        <time>2014-10-18T10:21:27Z</time>
      </trkpt>
      <trkpt lat="45.47106" lon="6.00593">
        <ele>261</ele>
        <time>2014-10-18T10:21:29Z</time>
      </trkpt>
      <trkpt lat="45.47095" lon="6.00589">
        <ele>260.8</ele>
        <time>2014-10-18T10:21:31Z</time>
      </trkpt>
      <trkpt lat="45.47085" lon="6.00584">
        <ele>261.5</ele>
        <time>2014-10-18T10:21:33Z</time>
      </trkpt>
      <trkpt lat="45.47075" lon="6.00579">
        <ele>261.4</ele>
        <time>2014-10-18T10:21:35Z</time>
      </trkpt>
      <trkpt lat="45.47065" lon="6.00573">
        <ele>261.5</ele>
        <time>2014-10-18T10:21:37Z</time>
      </trkpt>
      <trkpt lat="45.47056" lon="6.00566">
        <ele>261.6</ele>
        <time>2014-10-18T10:21:39Z</time>
      </trkpt>
      <trkpt lat="45.47046" lon="6.00559">
        <ele>261.7</ele>
        <time>2014-10-18T10:21:41Z</time>
      </trkpt>
      <trkpt lat="45.47036" lon="6.00551">
        <ele>261.8</ele>
        <time>2014-10-18T10:21:43Z</time>
      </trkpt>
      <trkpt lat="45.47026" lon="6.00543">
        <ele>261.6</ele>
        <time>2014-10-18T10:21:45Z</time>
      </trkpt>
      <trkpt lat="45.47015" lon="6.00534">
        <ele>261.8</ele>
        <time>2014-10-18T10:21:47Z</time>
      </trkpt>
      <trkpt lat="45.47005" lon="6.00524">
        <ele>262</ele>
        <time>2014-10-18T10:21:49Z</time>
      </trkpt>
      <trkpt lat="45.46996" lon="6.00513">
        <ele>262</ele>
        <time>2014-10-18T10:21:51Z</time>
      </trkpt>
      <trkpt lat="45.46988" lon="6.005">
        <ele>261.9</ele>
        <time>2014-10-18T10:21:53Z</time>
      </trkpt>
      <trkpt lat="45.46981" lon="6.00487">
        <ele>262</ele>
        <time>2014-10-18T10:21:55Z</time>
      </trkpt>
      <trkpt lat="45.46975" lon="6.00472">
        <ele>262.4</ele>
        <time>2014-10-18T10:21:57Z</time>
      </trkpt>
      <trkpt lat="45.46969" lon="6.00457">
        <ele>262.4</ele>
        <time>2014-10-18T10:21:59Z</time>
      </trkpt>
      <trkpt lat="45.46963" lon="6.00442">
        <ele>262.4</ele>
        <time>2014-10-18T10:22:01Z</time>
      </trkpt>
      <trkpt lat="45.46957" lon="6.00428">
        <ele>262.4</ele>
        <time>2014-10-18T10:22:03Z</time>
      </trkpt>
      <trkpt lat="45.4695" lon="6.00413">
        <ele>262.8</ele>
        <time>2014-10-18T10:22:05Z</time>
      </trkpt>
      <trkpt lat="45.46944" lon="6.00399">
        <ele>262.7</ele>
        <time>2014-10-18T10:22:07Z</time>
      </trkpt>
      <trkpt lat="45.46937" lon="6.00385">
        <ele>262.7</ele>
        <time>2014-10-18T10:22:09Z</time>
      </trkpt>
      <trkpt lat="45.46929" lon="6.00372">
        <ele>263.1</ele>
        <time>2014-10-18T10:22:11Z</time>
      </trkpt>
      <trkpt lat="45.46921" lon="6.0036">
        <ele>263.2</ele>
        <time>2014-10-18T10:22:13Z</time>
      </trkpt>
      <trkpt lat="45.46912" lon="6.00349">
        <ele>263.3</ele>
        <time>2014-10-18T10:22:15Z</time>
      </trkpt>
      <trkpt lat="45.46903" lon="6.00338">
        <ele>263.6</ele>
        <time>2014-10-18T10:22:17Z</time>
      </trkpt>
      <trkpt lat="45.46894" lon="6.00327">
        <ele>263.8</ele>
        <time>2014-10-18T10:22:19Z</time>
      </trkpt>
      <trkpt lat="45.46885" lon="6.00316">
        <ele>263.7</ele>
        <time>2014-10-18T10:22:21Z</time>
      </trkpt>
      <trkpt lat="45.46876" lon="6.00305">
        <ele>263.6</ele>
        <time>2014-10-18T10:22:23Z</time>
      </trkpt>
      <trkpt lat="45.46867" lon="6.00293">
        <ele>263.7</ele>
        <time>2014-10-18T10:22:25Z</time>
      </trkpt>
      <trkpt lat="45.46859" lon="6.00282">
        <ele>263.9</ele>
        <time>2014-10-18T10:22:27Z</time>
      </trkpt>
      <trkpt lat="45.4685" lon="6.00272">
        <ele>264</ele>
        <time>2014-10-18T10:22:29Z</time>
      </trkpt>
      <trkpt lat="45.46842" lon="6.00261">
        <ele>264.2</ele>
        <time>2014-10-18T10:22:31Z</time>
      </trkpt>
      <trkpt lat="45.46835" lon="6.00249">
        <ele>264.4</ele>
        <time>2014-10-18T10:22:33Z</time>
      </trkpt>
      <trkpt lat="45.46828" lon="6.00238">
        <ele>264.7</ele>
        <time>2014-10-18T10:22:35Z</time>
      </trkpt>
      <trkpt lat="45.46823" lon="6.00226">
        <ele>264.7</ele>
        <time>2014-10-18T10:22:37Z</time>
      </trkpt>
      <trkpt lat="45.46818" lon="6.00214">
        <ele>264.8</ele>
        <time>2014-10-18T10:22:39Z</time>
      </trkpt>
      <trkpt lat="45.46814" lon="6.002">
        <ele>265</ele>
        <time>2014-10-18T10:22:42Z</time>
      </trkpt>
      <trkpt lat="45.46804" lon="6.002">
        <ele>264.8</ele>
        <time>2014-10-18T10:22:46Z</time>
      </trkpt>
      <trkpt lat="45.46796" lon="6.00208">
        <ele>264.9</ele>
        <time>2014-10-18T10:22:49Z</time>
      </trkpt>
      <trkpt lat="45.46788" lon="6.0022">
        <ele>264.7</ele>
        <time>2014-10-18T10:22:53Z</time>
      </trkpt>
      <trkpt lat="45.46782" lon="6.0023">
        <ele>265</ele>
        <time>2014-10-18T10:22:56Z</time>
      </trkpt>
      <trkpt lat="45.46779" lon="6.00244">
        <ele>265.3</ele>
        <time>2014-10-18T10:22:59Z</time>
      </trkpt>
      <trkpt lat="45.46777" lon="6.00258">
        <ele>264.9</ele>
        <time>2014-10-18T10:23:02Z</time>
      </trkpt>
      <trkpt lat="45.46776" lon="6.00275">
        <ele>264.5</ele>
        <time>2014-10-18T10:23:05Z</time>
      </trkpt>
      <trkpt lat="45.46774" lon="6.00293">
        <ele>264.3</ele>
        <time>2014-10-18T10:23:08Z</time>
      </trkpt>
      <trkpt lat="45.46771" lon="6.00306">
        <ele>264</ele>
        <time>2014-10-18T10:23:10Z</time>
      </trkpt>
      <trkpt lat="45.46768" lon="6.00319">
        <ele>263.9</ele>
        <time>2014-10-18T10:23:12Z</time>
      </trkpt>
      <trkpt lat="45.46764" lon="6.00331">
        <ele>264</ele>
        <time>2014-10-18T10:23:14Z</time>
      </trkpt>
      <trkpt lat="45.46759" lon="6.00343">
        <ele>263.9</ele>
        <time>2014-10-18T10:23:16Z</time>
      </trkpt>
      <trkpt lat="45.46753" lon="6.00355">
        <ele>263.9</ele>
        <time>2014-10-18T10:23:18Z</time>
      </trkpt>
      <trkpt lat="45.4675" lon="6.00368">
        <ele>248.3</ele>
        <time>2014-10-18T10:23:20Z</time>
      </trkpt>
      <trkpt lat="45.46747" lon="6.0038">
        <ele>256.3</ele>
        <time>2014-10-18T10:23:22Z</time>
      </trkpt>
      <trkpt lat="45.46744" lon="6.00393">
        <ele>259.8</ele>
        <time>2014-10-18T10:23:24Z</time>
      </trkpt>
      <trkpt lat="45.46742" lon="6.00407">
        <ele>261.7</ele>
        <time>2014-10-18T10:23:26Z</time>
      </trkpt>
      <trkpt lat="45.4674" lon="6.00422">
        <ele>262.1</ele>
        <time>2014-10-18T10:23:28Z</time>
      </trkpt>
      <trkpt lat="45.46738" lon="6.00437">
        <ele>262.5</ele>
        <time>2014-10-18T10:23:30Z</time>
      </trkpt>
      <trkpt lat="45.46736" lon="6.00452">
        <ele>262.8</ele>
        <time>2014-10-18T10:23:32Z</time>
      </trkpt>
      <trkpt lat="45.46734" lon="6.00468">
        <ele>262.5</ele>
        <time>2014-10-18T10:23:34Z</time>
      </trkpt>
      <trkpt lat="45.46732" lon="6.00484">
        <ele>262.7</ele>
        <time>2014-10-18T10:23:36Z</time>
      </trkpt>
      <trkpt lat="45.4673" lon="6.005">
        <ele>262.5</ele>
        <time>2014-10-18T10:23:38Z</time>
      </trkpt>
      <trkpt lat="45.46727" lon="6.00517">
        <ele>262.4</ele>
        <time>2014-10-18T10:23:40Z</time>
      </trkpt>
      <trkpt lat="45.46724" lon="6.00532">
        <ele>262.2</ele>
        <time>2014-10-18T10:23:42Z</time>
      </trkpt>
      <trkpt lat="45.46722" lon="6.00548">
        <ele>261.9</ele>
        <time>2014-10-18T10:23:44Z</time>
      </trkpt>
      <trkpt lat="45.4672" lon="6.00564">
        <ele>261.8</ele>
        <time>2014-10-18T10:23:46Z</time>
      </trkpt>
      <trkpt lat="45.46717" lon="6.00579">
        <ele>261.5</ele>
        <time>2014-10-18T10:23:48Z</time>
      </trkpt>
      <trkpt lat="45.46715" lon="6.00595">
        <ele>261.7</ele>
        <time>2014-10-18T10:23:50Z</time>
      </trkpt>
      <trkpt lat="45.46713" lon="6.0061">
        <ele>261.5</ele>
        <time>2014-10-18T10:23:52Z</time>
      </trkpt>
      <trkpt lat="45.4671" lon="6.00624">
        <ele>261.6</ele>
        <time>2014-10-18T10:23:54Z</time>
      </trkpt>
      <trkpt lat="45.46707" lon="6.00639">
        <ele>261.3</ele>
        <time>2014-10-18T10:23:56Z</time>
      </trkpt>
      <trkpt lat="45.46703" lon="6.00653">
        <ele>261.1</ele>
        <time>2014-10-18T10:23:58Z</time>
      </trkpt>
      <trkpt lat="45.46699" lon="6.00666">
        <ele>260.6</ele>
        <time>2014-10-18T10:24:00Z</time>
      </trkpt>
      <trkpt lat="45.46696" lon="6.0068">
        <ele>260.2</ele>
        <time>2014-10-18T10:24:02Z</time>
      </trkpt>
      <trkpt lat="45.46695" lon="6.00693">
        <ele>259.6</ele>
        <time>2014-10-18T10:24:04Z</time>
      </trkpt>
      <trkpt lat="45.46703" lon="6.00707">
        <ele>259.7</ele>
        <time>2014-10-18T10:24:07Z</time>
      </trkpt>
      <trkpt lat="45.46711" lon="6.00719">
        <ele>259.4</ele>
        <time>2014-10-18T10:24:10Z</time>
      </trkpt>
      <trkpt lat="45.46712" lon="6.00734">
        <ele>259.6</ele>
        <time>2014-10-18T10:26:02Z</time>
      </trkpt>
      <trkpt lat="45.46708" lon="6.00745">
        <ele>258.8</ele>
        <time>2014-10-18T10:26:05Z</time>
      </trkpt>
      <trkpt lat="45.46701" lon="6.00757">
        <ele>258.6</ele>
        <time>2014-10-18T10:26:09Z</time>
      </trkpt>
      <trkpt lat="45.46694" lon="6.00765">
        <ele>258.5</ele>
        <time>2014-10-18T10:26:12Z</time>
      </trkpt>
      <trkpt lat="45.46684" lon="6.00771">
        <ele>258.2</ele>
        <time>2014-10-18T10:26:16Z</time>
      </trkpt>
      <trkpt lat="45.46675" lon="6.00778">
        <ele>258.4</ele>
        <time>2014-10-18T10:26:20Z</time>
      </trkpt>
      <trkpt lat="45.4667" lon="6.00789">
        <ele>258.7</ele>
        <time>2014-10-18T10:26:25Z</time>
      </trkpt>
      <trkpt lat="45.46666" lon="6.00803">
        <ele>258.7</ele>
        <time>2014-10-18T10:26:31Z</time>
      </trkpt>
      <trkpt lat="45.46661" lon="6.00814">
        <ele>258.6</ele>
        <time>2014-10-18T10:26:35Z</time>
      </trkpt>
      <trkpt lat="45.46656" lon="6.00827">
        <ele>258.1</ele>
        <time>2014-10-18T10:26:40Z</time>
      </trkpt>
      <trkpt lat="45.46649" lon="6.00839">
        <ele>258.7</ele>
        <time>2014-10-18T10:26:52Z</time>
      </trkpt>
      <trkpt lat="45.46639" lon="6.00839">
        <ele>258.9</ele>
        <time>2014-10-18T10:27:12Z</time>
      </trkpt>
      <trkpt lat="45.46632" lon="6.0083">
        <ele>259.3</ele>
        <time>2014-10-18T10:27:25Z</time>
      </trkpt>
      <trkpt lat="45.46638" lon="6.00819">
        <ele>258.9</ele>
        <time>2014-10-18T10:27:35Z</time>
      </trkpt>
      <trkpt lat="45.46639" lon="6.00805">
        <ele>259.1</ele>
        <time>2014-10-18T10:27:45Z</time>
      </trkpt>
      <trkpt lat="45.46638" lon="6.00792">
        <ele>259.2</ele>
        <time>2014-10-18T10:28:11Z</time>
      </trkpt>
      <trkpt lat="45.46629" lon="6.00788">
        <ele>256.7</ele>
        <time>2014-10-18T10:29:11Z</time>
      </trkpt>
      <trkpt lat="45.46622" lon="6.00781">
        <ele>259.6</ele>
        <time>2014-10-18T10:30:25Z</time>
      </trkpt>
      <trkpt lat="45.46615" lon="6.0077">
        <ele>258.8</ele>
        <time>2014-10-18T10:30:32Z</time>
      </trkpt>
      <trkpt lat="45.46607" lon="6.00763">
        <ele>258.7</ele>
        <time>2014-10-18T10:30:37Z</time>
      </trkpt>
      <trkpt lat="45.46598" lon="6.00755">
        <ele>258.7</ele>
        <time>2014-10-18T10:30:43Z</time>
      </trkpt>
      <trkpt lat="45.46595" lon="6.00769">
        <ele>257.9</ele>
        <time>2014-10-18T10:30:54Z</time>
      </trkpt>
      <trkpt lat="45.46593" lon="6.00782">
        <ele>257.5</ele>
        <time>2014-10-18T10:30:58Z</time>
      </trkpt>
      <trkpt lat="45.46587" lon="6.00795">
        <ele>257.5</ele>
        <time>2014-10-18T10:31:02Z</time>
      </trkpt>
      <trkpt lat="45.46581" lon="6.00805">
        <ele>257.2</ele>
        <time>2014-10-18T10:31:05Z</time>
      </trkpt>
      <trkpt lat="45.46574" lon="6.0082">
        <ele>256.9</ele>
        <time>2014-10-18T10:31:09Z</time>
      </trkpt>
      <trkpt lat="45.46566" lon="6.00831">
        <ele>257</ele>
        <time>2014-10-18T10:31:12Z</time>
      </trkpt>
      <trkpt lat="45.46558" lon="6.00843">
        <ele>257</ele>
        <time>2014-10-18T10:31:15Z</time>
      </trkpt>
      <trkpt lat="45.46551" lon="6.00854">
        <ele>256.9</ele>
        <time>2014-10-18T10:31:18Z</time>
      </trkpt>
      <trkpt lat="45.46541" lon="6.00864">
        <ele>256.8</ele>
        <time>2014-10-18T10:31:21Z</time>
      </trkpt>
      <trkpt lat="45.46531" lon="6.00871">
        <ele>256.7</ele>
        <time>2014-10-18T10:31:24Z</time>
      </trkpt>
      <trkpt lat="45.46519" lon="6.00882">
        <ele>256.5</ele>
        <time>2014-10-18T10:31:27Z</time>
      </trkpt>
      <trkpt lat="45.4651" lon="6.00888">
        <ele>256.5</ele>
        <time>2014-10-18T10:31:29Z</time>
      </trkpt>
      <trkpt lat="45.46499" lon="6.00895">
        <ele>256.6</ele>
        <time>2014-10-18T10:31:32Z</time>
      </trkpt>
      <trkpt lat="45.46488" lon="6.00901">
        <ele>256.1</ele>
        <time>2014-10-18T10:31:35Z</time>
      </trkpt>
      <trkpt lat="45.46477" lon="6.00904">
        <ele>255.9</ele>
        <time>2014-10-18T10:31:38Z</time>
      </trkpt>
      <trkpt lat="45.46466" lon="6.00909">
        <ele>255.8</ele>
        <time>2014-10-18T10:31:41Z</time>
      </trkpt>
      <trkpt lat="45.46454" lon="6.00912">
        <ele>255.8</ele>
        <time>2014-10-18T10:31:44Z</time>
      </trkpt>
      <trkpt lat="45.46443" lon="6.00916">
        <ele>256</ele>
        <time>2014-10-18T10:31:47Z</time>
      </trkpt>
      <trkpt lat="45.46431" lon="6.0092">
        <ele>256.1</ele>
        <time>2014-10-18T10:31:50Z</time>
      </trkpt>
      <trkpt lat="45.4642" lon="6.00919">
        <ele>255.4</ele>
        <time>2014-10-18T10:32:11Z</time>
      </trkpt>
      <trkpt lat="45.46409" lon="6.00917">
        <ele>255.4</ele>
        <time>2014-10-18T10:32:14Z</time>
      </trkpt>
      <trkpt lat="45.46399" lon="6.00917">
        <ele>255.1</ele>
        <time>2014-10-18T10:32:17Z</time>
      </trkpt>
      <trkpt lat="45.46389" lon="6.00914">
        <ele>255.3</ele>
        <time>2014-10-18T10:32:20Z</time>
      </trkpt>
      <trkpt lat="45.46379" lon="6.00912">
        <ele>255</ele>
        <time>2014-10-18T10:32:24Z</time>
      </trkpt>
      <trkpt lat="45.46369" lon="6.00909">
        <ele>254.8</ele>
        <time>2014-10-18T10:32:28Z</time>
      </trkpt>
      <trkpt lat="45.4636" lon="6.00907">
        <ele>255</ele>
        <time>2014-10-18T10:32:31Z</time>
      </trkpt>
      <trkpt lat="45.4635" lon="6.00905">
        <ele>254.9</ele>
        <time>2014-10-18T10:32:35Z</time>
      </trkpt>
      <trkpt lat="45.46341" lon="6.00903">
        <ele>254.1</ele>
        <time>2014-10-18T10:32:38Z</time>
      </trkpt>
      <trkpt lat="45.4633" lon="6.00902">
        <ele>254.5</ele>
        <time>2014-10-18T10:32:41Z</time>
      </trkpt>
      <trkpt lat="45.4632" lon="6.009">
        <ele>254.8</ele>
        <time>2014-10-18T10:32:44Z</time>
      </trkpt>
      <trkpt lat="45.46311" lon="6.00898">
        <ele>254.5</ele>
        <time>2014-10-18T10:32:47Z</time>
      </trkpt>
      <trkpt lat="45.46302" lon="6.00894">
        <ele>254.2</ele>
        <time>2014-10-18T10:32:50Z</time>
      </trkpt>
      <trkpt lat="45.46292" lon="6.00889">
        <ele>254.8</ele>
        <time>2014-10-18T10:32:53Z</time>
      </trkpt>
      <trkpt lat="45.46282" lon="6.00886">
        <ele>254.9</ele>
        <time>2014-10-18T10:32:56Z</time>
      </trkpt>
      <trkpt lat="45.46272" lon="6.00884">
        <ele>254.8</ele>
        <time>2014-10-18T10:32:59Z</time>
      </trkpt>
      <trkpt lat="45.46262" lon="6.00882">
        <ele>254.5</ele>
        <time>2014-10-18T10:33:02Z</time>
      </trkpt>
      <trkpt lat="45.46252" lon="6.00884">
        <ele>255.2</ele>
        <time>2014-10-18T10:33:05Z</time>
      </trkpt>
      <trkpt lat="45.46245" lon="6.00896">
        <ele>255.4</ele>
        <time>2014-10-18T10:33:10Z</time>
      </trkpt>
      <trkpt lat="45.46236" lon="6.00906">
        <ele>255.2</ele>
        <time>2014-10-18T10:33:14Z</time>
      </trkpt>
      <trkpt lat="45.46243" lon="6.00896">
        <ele>255.5</ele>
        <time>2014-10-18T10:34:03Z</time>
      </trkpt>
      <trkpt lat="45.46253" lon="6.00888">
        <ele>255.2</ele>
        <time>2014-10-18T10:34:06Z</time>
      </trkpt>
      <trkpt lat="45.46264" lon="6.00889">
        <ele>254.9</ele>
        <time>2014-10-18T10:34:09Z</time>
      </trkpt>
      <trkpt lat="45.46274" lon="6.0089">
        <ele>254.6</ele>
        <time>2014-10-18T10:34:12Z</time>
      </trkpt>
      <trkpt lat="45.46283" lon="6.00893">
        <ele>254.7</ele>
        <time>2014-10-18T10:34:15Z</time>
      </trkpt>
      <trkpt lat="45.46293" lon="6.00897">
        <ele>255</ele>
        <time>2014-10-18T10:34:18Z</time>
      </trkpt>
      <trkpt lat="45.46304" lon="6.009">
        <ele>254.8</ele>
        <time>2014-10-18T10:34:22Z</time>
      </trkpt>
      <trkpt lat="45.46314" lon="6.00901">
        <ele>254.6</ele>
        <time>2014-10-18T10:34:26Z</time>
      </trkpt>
      <trkpt lat="45.46326" lon="6.00903">
        <ele>255</ele>
        <time>2014-10-18T10:34:30Z</time>
      </trkpt>
      <trkpt lat="45.46336" lon="6.00906">
        <ele>254.8</ele>
        <time>2014-10-18T10:34:33Z</time>
      </trkpt>
      <trkpt lat="45.46349" lon="6.00908">
        <ele>255.1</ele>
        <time>2014-10-18T10:34:36Z</time>
      </trkpt>
      <trkpt lat="45.46358" lon="6.0091">
        <ele>255.3</ele>
        <time>2014-10-18T10:34:39Z</time>
      </trkpt>
      <trkpt lat="45.46368" lon="6.00914">
        <ele>255.1</ele>
        <time>2014-10-18T10:34:42Z</time>
      </trkpt>
      <trkpt lat="45.46378" lon="6.00916">
        <ele>255.2</ele>
        <time>2014-10-18T10:34:45Z</time>
      </trkpt>
      <trkpt lat="45.46387" lon="6.00917">
        <ele>255.5</ele>
        <time>2014-10-18T10:34:48Z</time>
      </trkpt>
      <trkpt lat="45.46397" lon="6.00919">
        <ele>255.3</ele>
        <time>2014-10-18T10:34:51Z</time>
      </trkpt>
      <trkpt lat="45.46406" lon="6.0092">
        <ele>255.4</ele>
        <time>2014-10-18T10:34:54Z</time>
      </trkpt>
      <trkpt lat="45.46415" lon="6.00921">
        <ele>255.7</ele>
        <time>2014-10-18T10:34:57Z</time>
      </trkpt>
      <trkpt lat="45.46423" lon="6.00928">
        <ele>255.6</ele>
        <time>2014-10-18T10:35:01Z</time>
      </trkpt>
      <trkpt lat="45.46427" lon="6.00943">
        <ele>256.1</ele>
        <time>2014-10-18T10:35:06Z</time>
      </trkpt>
      <trkpt lat="45.46426" lon="6.00959">
        <ele>256.5</ele>
        <time>2014-10-18T10:35:10Z</time>
      </trkpt>
      <trkpt lat="45.46416" lon="6.00969">
        <ele>256.7</ele>
        <time>2014-10-18T10:35:14Z</time>
      </trkpt>
      <trkpt lat="45.46407" lon="6.00981">
        <ele>256.8</ele>
        <time>2014-10-18T10:35:18Z</time>
      </trkpt>
      <trkpt lat="45.46402" lon="6.00993">
        <ele>256.7</ele>
        <time>2014-10-18T10:35:21Z</time>
      </trkpt>
      <trkpt lat="45.46397" lon="6.01005">
        <ele>256.9</ele>
        <time>2014-10-18T10:35:24Z</time>
      </trkpt>
      <trkpt lat="45.46394" lon="6.01017">
        <ele>257.3</ele>
        <time>2014-10-18T10:35:27Z</time>
      </trkpt>
      <trkpt lat="45.46393" lon="6.01032">
        <ele>257.1</ele>
        <time>2014-10-18T10:35:30Z</time>
      </trkpt>
      <trkpt lat="45.46392" lon="6.01049">
        <ele>257.3</ele>
        <time>2014-10-18T10:35:33Z</time>
      </trkpt>
      <trkpt lat="45.46394" lon="6.01068">
        <ele>257.4</ele>
        <time>2014-10-18T10:35:36Z</time>
      </trkpt>
      <trkpt lat="45.46396" lon="6.01087">
        <ele>257.2</ele>
        <time>2014-10-18T10:35:39Z</time>
      </trkpt>
      <trkpt lat="45.46393" lon="6.011">
        <ele>256.3</ele>
        <time>2014-10-18T10:35:43Z</time>
      </trkpt>
      <trkpt lat="45.46385" lon="6.01105">
        <ele>255.9</ele>
        <time>2014-10-18T10:35:48Z</time>
      </trkpt>
      <trkpt lat="45.46375" lon="6.01105">
        <ele>255.4</ele>
        <time>2014-10-18T10:35:51Z</time>
      </trkpt>
      <trkpt lat="45.46365" lon="6.01104">
        <ele>255.4</ele>
        <time>2014-10-18T10:35:54Z</time>
      </trkpt>
      <trkpt lat="45.46354" lon="6.01104">
        <ele>255.9</ele>
        <time>2014-10-18T10:35:57Z</time>
      </trkpt>
      <trkpt lat="45.46344" lon="6.01102">
        <ele>256.1</ele>
        <time>2014-10-18T10:36:00Z</time>
      </trkpt>
      <trkpt lat="45.46334" lon="6.011">
        <ele>255.7</ele>
        <time>2014-10-18T10:36:03Z</time>
      </trkpt>
      <trkpt lat="45.46324" lon="6.011">
        <ele>255.6</ele>
        <time>2014-10-18T10:36:06Z</time>
      </trkpt>
      <trkpt lat="45.46314" lon="6.01098">
        <ele>256.1</ele>
        <time>2014-10-18T10:36:09Z</time>
      </trkpt>
      <trkpt lat="45.46302" lon="6.01096">
        <ele>256</ele>
        <time>2014-10-18T10:36:12Z</time>
      </trkpt>
      <trkpt lat="45.46291" lon="6.01093">
        <ele>255.7</ele>
        <time>2014-10-18T10:36:15Z</time>
      </trkpt>
      <trkpt lat="45.46278" lon="6.01092">
        <ele>255.5</ele>
        <time>2014-10-18T10:36:18Z</time>
      </trkpt>
      <trkpt lat="45.46266" lon="6.01089">
        <ele>255.5</ele>
        <time>2014-10-18T10:36:21Z</time>
      </trkpt>
      <trkpt lat="45.46254" lon="6.01086">
        <ele>255.7</ele>
        <time>2014-10-18T10:36:24Z</time>
      </trkpt>
      <trkpt lat="45.46243" lon="6.01083">
        <ele>255.9</ele>
        <time>2014-10-18T10:36:27Z</time>
      </trkpt>
      <trkpt lat="45.46231" lon="6.01079">
        <ele>256</ele>
        <time>2014-10-18T10:36:30Z</time>
      </trkpt>
      <trkpt lat="45.46218" lon="6.01076">
        <ele>255.8</ele>
        <time>2014-10-18T10:36:33Z</time>
      </trkpt>
      <trkpt lat="45.46206" lon="6.01072">
        <ele>255.9</ele>
        <time>2014-10-18T10:36:36Z</time>
      </trkpt>
      <trkpt lat="45.46193" lon="6.01068">
        <ele>255.5</ele>
        <time>2014-10-18T10:36:39Z</time>
      </trkpt>
      <trkpt lat="45.46184" lon="6.01064">
        <ele>255.6</ele>
        <time>2014-10-18T10:36:41Z</time>
      </trkpt>
      <trkpt lat="45.46175" lon="6.01059">
        <ele>255.2</ele>
        <time>2014-10-18T10:36:43Z</time>
      </trkpt>
      <trkpt lat="45.46164" lon="6.01051">
        <ele>255.4</ele>
        <time>2014-10-18T10:36:46Z</time>
      </trkpt>
      <trkpt lat="45.46152" lon="6.01042">
        <ele>255</ele>
        <time>2014-10-18T10:36:49Z</time>
      </trkpt>
      <trkpt lat="45.4614" lon="6.01033">
        <ele>255.1</ele>
        <time>2014-10-18T10:36:52Z</time>
      </trkpt>
      <trkpt lat="45.46132" lon="6.01026">
        <ele>254.8</ele>
        <time>2014-10-18T10:36:54Z</time>
      </trkpt>
      <trkpt lat="45.46123" lon="6.0102">
        <ele>254.5</ele>
        <time>2014-10-18T10:36:56Z</time>
      </trkpt>
      <trkpt lat="45.46115" lon="6.01014">
        <ele>254.7</ele>
        <time>2014-10-18T10:36:58Z</time>
      </trkpt>
      <trkpt lat="45.46106" lon="6.01008">
        <ele>254.8</ele>
        <time>2014-10-18T10:37:00Z</time>
      </trkpt>
      <trkpt lat="45.46098" lon="6.01002">
        <ele>254.4</ele>
        <time>2014-10-18T10:37:02Z</time>
      </trkpt>
      <trkpt lat="45.46089" lon="6.00996">
        <ele>254.7</ele>
        <time>2014-10-18T10:37:04Z</time>
      </trkpt>
      <trkpt lat="45.46081" lon="6.0099">
        <ele>254.9</ele>
        <time>2014-10-18T10:37:06Z</time>
      </trkpt>
      <trkpt lat="45.46072" lon="6.00984">
        <ele>255.5</ele>
        <time>2014-10-18T10:37:08Z</time>
      </trkpt>
      <trkpt lat="45.46063" lon="6.00978">
        <ele>255.4</ele>
        <time>2014-10-18T10:37:10Z</time>
      </trkpt>
      <trkpt lat="45.46055" lon="6.00971">
        <ele>255</ele>
        <time>2014-10-18T10:37:12Z</time>
      </trkpt>
      <trkpt lat="45.46046" lon="6.00964">
        <ele>255</ele>
        <time>2014-10-18T10:37:14Z</time>
      </trkpt>
      <trkpt lat="45.46038" lon="6.00958">
        <ele>255.2</ele>
        <time>2014-10-18T10:37:16Z</time>
      </trkpt>
      <trkpt lat="45.4603" lon="6.00951">
        <ele>254.9</ele>
        <time>2014-10-18T10:37:18Z</time>
      </trkpt>
      <trkpt lat="45.46021" lon="6.00944">
        <ele>255</ele>
        <time>2014-10-18T10:37:20Z</time>
      </trkpt>
      <trkpt lat="45.46013" lon="6.00937">
        <ele>254.8</ele>
        <time>2014-10-18T10:37:22Z</time>
      </trkpt>
      <trkpt lat="45.46004" lon="6.0093">
        <ele>254.7</ele>
        <time>2014-10-18T10:37:24Z</time>
      </trkpt>
      <trkpt lat="45.45996" lon="6.00923">
        <ele>254.4</ele>
        <time>2014-10-18T10:37:26Z</time>
      </trkpt>
      <trkpt lat="45.45987" lon="6.00916">
        <ele>254.6</ele>
        <time>2014-10-18T10:37:28Z</time>
      </trkpt>
      <trkpt lat="45.45979" lon="6.00909">
        <ele>254.5</ele>
        <time>2014-10-18T10:37:30Z</time>
      </trkpt>
      <trkpt lat="45.45971" lon="6.00903">
        <ele>254.8</ele>
        <time>2014-10-18T10:37:32Z</time>
      </trkpt>
      <trkpt lat="45.45963" lon="6.00896">
        <ele>254.4</ele>
        <time>2014-10-18T10:37:34Z</time>
      </trkpt>
      <trkpt lat="45.45954" lon="6.0089">
        <ele>254.5</ele>
        <time>2014-10-18T10:37:36Z</time>
      </trkpt>
      <trkpt lat="45.45946" lon="6.00883">
        <ele>254.6</ele>
        <time>2014-10-18T10:37:38Z</time>
      </trkpt>
      <trkpt lat="45.45938" lon="6.00877">
        <ele>254.9</ele>
        <time>2014-10-18T10:37:40Z</time>
      </trkpt>
      <trkpt lat="45.45927" lon="6.00868">
        <ele>254.9</ele>
        <time>2014-10-18T10:37:43Z</time>
      </trkpt>
      <trkpt lat="45.45915" lon="6.00859">
        <ele>254.5</ele>
        <time>2014-10-18T10:37:46Z</time>
      </trkpt>
      <trkpt lat="45.45907" lon="6.00852">
        <ele>254.5</ele>
        <time>2014-10-18T10:37:48Z</time>
      </trkpt>
      <trkpt lat="45.459" lon="6.00845">
        <ele>254.4</ele>
        <time>2014-10-18T10:37:50Z</time>
      </trkpt>
      <trkpt lat="45.45893" lon="6.00836">
        <ele>254.7</ele>
        <time>2014-10-18T10:37:52Z</time>
      </trkpt>
      <trkpt lat="45.45887" lon="6.00826">
        <ele>253.8</ele>
        <time>2014-10-18T10:37:54Z</time>
      </trkpt>
      <trkpt lat="45.45879" lon="6.00812">
        <ele>254.8</ele>
        <time>2014-10-18T10:37:57Z</time>
      </trkpt>
      <trkpt lat="45.45871" lon="6.00799">
        <ele>255.5</ele>
        <time>2014-10-18T10:38:00Z</time>
      </trkpt>
      <trkpt lat="45.45863" lon="6.00785">
        <ele>254.4</ele>
        <time>2014-10-18T10:38:03Z</time>
      </trkpt>
      <trkpt lat="45.45857" lon="6.00774">
        <ele>254.6</ele>
        <time>2014-10-18T10:38:05Z</time>
      </trkpt>
      <trkpt lat="45.45851" lon="6.00764">
        <ele>254.8</ele>
        <time>2014-10-18T10:38:07Z</time>
      </trkpt>
      <trkpt lat="45.45844" lon="6.00754">
        <ele>254.7</ele>
        <time>2014-10-18T10:38:09Z</time>
      </trkpt>
      <trkpt lat="45.45838" lon="6.00743">
        <ele>254.8</ele>
        <time>2014-10-18T10:38:11Z</time>
      </trkpt>
      <trkpt lat="45.45832" lon="6.00733">
        <ele>254.5</ele>
        <time>2014-10-18T10:38:13Z</time>
      </trkpt>
      <trkpt lat="45.45826" lon="6.00722">
        <ele>254.5</ele>
        <time>2014-10-18T10:38:15Z</time>
      </trkpt>
      <trkpt lat="45.4582" lon="6.00712">
        <ele>254.6</ele>
        <time>2014-10-18T10:38:17Z</time>
      </trkpt>
      <trkpt lat="45.45812" lon="6.00697">
        <ele>254.7</ele>
        <time>2014-10-18T10:38:20Z</time>
      </trkpt>
      <trkpt lat="45.45805" lon="6.00687">
        <ele>255.1</ele>
        <time>2014-10-18T10:38:22Z</time>
      </trkpt>
      <trkpt lat="45.45798" lon="6.00679">
        <ele>254.9</ele>
        <time>2014-10-18T10:38:24Z</time>
      </trkpt>
      <trkpt lat="45.45791" lon="6.00671">
        <ele>254.7</ele>
        <time>2014-10-18T10:38:26Z</time>
      </trkpt>
      <trkpt lat="45.45784" lon="6.00663">
        <ele>254.9</ele>
        <time>2014-10-18T10:38:28Z</time>
      </trkpt>
      <trkpt lat="45.45775" lon="6.00656">
        <ele>254.3</ele>
        <time>2014-10-18T10:38:30Z</time>
      </trkpt>
      <trkpt lat="45.45767" lon="6.00651">
        <ele>254.3</ele>
        <time>2014-10-18T10:38:32Z</time>
      </trkpt>
      <trkpt lat="45.45755" lon="6.00645">
        <ele>253.7</ele>
        <time>2014-10-18T10:38:35Z</time>
      </trkpt>
      <trkpt lat="45.45742" lon="6.00639">
        <ele>253.8</ele>
        <time>2014-10-18T10:38:38Z</time>
      </trkpt>
      <trkpt lat="45.45733" lon="6.00635">
        <ele>253.7</ele>
        <time>2014-10-18T10:38:40Z</time>
      </trkpt>
      <trkpt lat="45.45724" lon="6.00634">
        <ele>252.9</ele>
        <time>2014-10-18T10:38:42Z</time>
      </trkpt>
      <trkpt lat="45.45714" lon="6.00634">
        <ele>253.4</ele>
        <time>2014-10-18T10:38:44Z</time>
      </trkpt>
      <trkpt lat="45.45704" lon="6.00633">
        <ele>253.5</ele>
        <time>2014-10-18T10:38:46Z</time>
      </trkpt>
      <trkpt lat="45.45695" lon="6.00632">
        <ele>253.4</ele>
        <time>2014-10-18T10:38:48Z</time>
      </trkpt>
      <trkpt lat="45.45685" lon="6.00631">
        <ele>253.4</ele>
        <time>2014-10-18T10:38:50Z</time>
      </trkpt>
      <trkpt lat="45.45675" lon="6.0063">
        <ele>253.9</ele>
        <time>2014-10-18T10:38:52Z</time>
      </trkpt>
      <trkpt lat="45.45665" lon="6.00629">
        <ele>253.7</ele>
        <time>2014-10-18T10:38:54Z</time>
      </trkpt>
      <trkpt lat="45.45656" lon="6.00628">
        <ele>254</ele>
        <time>2014-10-18T10:38:56Z</time>
      </trkpt>
      <trkpt lat="45.45643" lon="6.00626">
        <ele>254.4</ele>
        <time>2014-10-18T10:38:59Z</time>
      </trkpt>
      <trkpt lat="45.4563" lon="6.00624">
        <ele>254</ele>
        <time>2014-10-18T10:39:02Z</time>
      </trkpt>
      <trkpt lat="45.45618" lon="6.00622">
        <ele>254.6</ele>
        <time>2014-10-18T10:39:05Z</time>
      </trkpt>
      <trkpt lat="45.45605" lon="6.0062">
        <ele>255.3</ele>
        <time>2014-10-18T10:39:08Z</time>
      </trkpt>
      <trkpt lat="45.45593" lon="6.00616">
        <ele>255.4</ele>
        <time>2014-10-18T10:39:11Z</time>
      </trkpt>
      <trkpt lat="45.4558" lon="6.0061">
        <ele>255.4</ele>
        <time>2014-10-18T10:39:14Z</time>
      </trkpt>
      <trkpt lat="45.45572" lon="6.00604">
        <ele>255</ele>
        <time>2014-10-18T10:39:16Z</time>
      </trkpt>
      <trkpt lat="45.45562" lon="6.00599">
        <ele>254.7</ele>
        <time>2014-10-18T10:39:18Z</time>
      </trkpt>
      <trkpt lat="45.45553" lon="6.00593">
        <ele>254.5</ele>
        <time>2014-10-18T10:39:20Z</time>
      </trkpt>
      <trkpt lat="45.45544" lon="6.00587">
        <ele>254.7</ele>
        <time>2014-10-18T10:39:22Z</time>
      </trkpt>
      <trkpt lat="45.45535" lon="6.00581">
        <ele>254.5</ele>
        <time>2014-10-18T10:39:24Z</time>
      </trkpt>
      <trkpt lat="45.45526" lon="6.00575">
        <ele>254.4</ele>
        <time>2014-10-18T10:39:26Z</time>
      </trkpt>
      <trkpt lat="45.45517" lon="6.0057">
        <ele>254.2</ele>
        <time>2014-10-18T10:39:28Z</time>
      </trkpt>
      <trkpt lat="45.45508" lon="6.00563">
        <ele>254.4</ele>
        <time>2014-10-18T10:39:30Z</time>
      </trkpt>
      <trkpt lat="45.45499" lon="6.00558">
        <ele>253.9</ele>
        <time>2014-10-18T10:39:32Z</time>
      </trkpt>
      <trkpt lat="45.4549" lon="6.00552">
        <ele>253.6</ele>
        <time>2014-10-18T10:39:34Z</time>
      </trkpt>
      <trkpt lat="45.45481" lon="6.00547">
        <ele>254</ele>
        <time>2014-10-18T10:39:36Z</time>
      </trkpt>
      <trkpt lat="45.45473" lon="6.00541">
        <ele>254.1</ele>
        <time>2014-10-18T10:39:38Z</time>
      </trkpt>
      <trkpt lat="45.45464" lon="6.00536">
        <ele>253.9</ele>
        <time>2014-10-18T10:39:40Z</time>
      </trkpt>
      <trkpt lat="45.45455" lon="6.00531">
        <ele>254.1</ele>
        <time>2014-10-18T10:39:42Z</time>
      </trkpt>
      <trkpt lat="45.45446" lon="6.00524">
        <ele>253.8</ele>
        <time>2014-10-18T10:39:44Z</time>
      </trkpt>
      <trkpt lat="45.45437" lon="6.0052">
        <ele>254.2</ele>
        <time>2014-10-18T10:39:46Z</time>
      </trkpt>
      <trkpt lat="45.45428" lon="6.00514">
        <ele>254.3</ele>
        <time>2014-10-18T10:39:48Z</time>
      </trkpt>
      <trkpt lat="45.45419" lon="6.00508">
        <ele>254</ele>
        <time>2014-10-18T10:39:50Z</time>
      </trkpt>
      <trkpt lat="45.4541" lon="6.00503">
        <ele>254.1</ele>
        <time>2014-10-18T10:39:52Z</time>
      </trkpt>
      <trkpt lat="45.45401" lon="6.00498">
        <ele>253.9</ele>
        <time>2014-10-18T10:39:54Z</time>
      </trkpt>
      <trkpt lat="45.45392" lon="6.00493">
        <ele>254.1</ele>
        <time>2014-10-18T10:39:56Z</time>
      </trkpt>
      <trkpt lat="45.45383" lon="6.00488">
        <ele>254</ele>
        <time>2014-10-18T10:39:58Z</time>
      </trkpt>
      <trkpt lat="45.45375" lon="6.00483">
        <ele>253.8</ele>
        <time>2014-10-18T10:40:00Z</time>
      </trkpt>
      <trkpt lat="45.45366" lon="6.00478">
        <ele>254.3</ele>
        <time>2014-10-18T10:40:02Z</time>
      </trkpt>
      <trkpt lat="45.45357" lon="6.00474">
        <ele>254.1</ele>
        <time>2014-10-18T10:40:04Z</time>
      </trkpt>
      <trkpt lat="45.45348" lon="6.00469">
        <ele>254.4</ele>
        <time>2014-10-18T10:40:06Z</time>
      </trkpt>
      <trkpt lat="45.4534" lon="6.00463">
        <ele>254.5</ele>
        <time>2014-10-18T10:40:08Z</time>
      </trkpt>
      <trkpt lat="45.45331" lon="6.00458">
        <ele>254.3</ele>
        <time>2014-10-18T10:40:10Z</time>
      </trkpt>
      <trkpt lat="45.45322" lon="6.00453">
        <ele>254.2</ele>
        <time>2014-10-18T10:40:12Z</time>
      </trkpt>
      <trkpt lat="45.45313" lon="6.00449">
        <ele>254.3</ele>
        <time>2014-10-18T10:40:14Z</time>
      </trkpt>
      <trkpt lat="45.45304" lon="6.00444">
        <ele>254</ele>
        <time>2014-10-18T10:40:16Z</time>
      </trkpt>
      <trkpt lat="45.45294" lon="6.0044">
        <ele>253.8</ele>
        <time>2014-10-18T10:40:18Z</time>
      </trkpt>
      <trkpt lat="45.45284" lon="6.00436">
        <ele>254.1</ele>
        <time>2014-10-18T10:40:20Z</time>
      </trkpt>
      <trkpt lat="45.45274" lon="6.00431">
        <ele>254.2</ele>
        <time>2014-10-18T10:40:22Z</time>
      </trkpt>
      <trkpt lat="45.45265" lon="6.00426">
        <ele>253.9</ele>
        <time>2014-10-18T10:40:24Z</time>
      </trkpt>
      <trkpt lat="45.45255" lon="6.00421">
        <ele>253.9</ele>
        <time>2014-10-18T10:40:26Z</time>
      </trkpt>
      <trkpt lat="45.45246" lon="6.00417">
        <ele>253.9</ele>
        <time>2014-10-18T10:40:28Z</time>
      </trkpt>
      <trkpt lat="45.45236" lon="6.00412">
        <ele>253.8</ele>
        <time>2014-10-18T10:40:30Z</time>
      </trkpt>
      <trkpt lat="45.45225" lon="6.00407">
        <ele>253.7</ele>
        <time>2014-10-18T10:40:32Z</time>
      </trkpt>
      <trkpt lat="45.45215" lon="6.00404">
        <ele>253.4</ele>
        <time>2014-10-18T10:40:34Z</time>
      </trkpt>
      <trkpt lat="45.45204" lon="6.004">
        <ele>253.2</ele>
        <time>2014-10-18T10:40:36Z</time>
      </trkpt>
      <trkpt lat="45.45194" lon="6.00397">
        <ele>253.4</ele>
        <time>2014-10-18T10:40:38Z</time>
      </trkpt>
      <trkpt lat="45.45184" lon="6.00393">
        <ele>253.8</ele>
        <time>2014-10-18T10:40:40Z</time>
      </trkpt>
      <trkpt lat="45.45174" lon="6.00388">
        <ele>253.9</ele>
        <time>2014-10-18T10:40:42Z</time>
      </trkpt>
      <trkpt lat="45.45165" lon="6.00384">
        <ele>254.2</ele>
        <time>2014-10-18T10:40:44Z</time>
      </trkpt>
      <trkpt lat="45.45155" lon="6.0038">
        <ele>254.3</ele>
        <time>2014-10-18T10:40:46Z</time>
      </trkpt>
      <trkpt lat="45.45145" lon="6.00375">
        <ele>253.9</ele>
        <time>2014-10-18T10:40:48Z</time>
      </trkpt>
      <trkpt lat="45.45135" lon="6.00371">
        <ele>253.4</ele>
        <time>2014-10-18T10:40:50Z</time>
      </trkpt>
      <trkpt lat="45.45124" lon="6.00367">
        <ele>253.4</ele>
        <time>2014-10-18T10:40:52Z</time>
      </trkpt>
      <trkpt lat="45.45114" lon="6.00363">
        <ele>253.5</ele>
        <time>2014-10-18T10:40:54Z</time>
      </trkpt>
      <trkpt lat="45.45103" lon="6.00358">
        <ele>253.6</ele>
        <time>2014-10-18T10:40:56Z</time>
      </trkpt>
      <trkpt lat="45.45093" lon="6.00353">
        <ele>253.5</ele>
        <time>2014-10-18T10:40:58Z</time>
      </trkpt>
      <trkpt lat="45.45083" lon="6.00348">
        <ele>253.8</ele>
        <time>2014-10-18T10:41:00Z</time>
      </trkpt>
      <trkpt lat="45.45073" lon="6.00345">
        <ele>253.9</ele>
        <time>2014-10-18T10:41:02Z</time>
      </trkpt>
      <trkpt lat="45.45063" lon="6.00342">
        <ele>253.8</ele>
        <time>2014-10-18T10:41:04Z</time>
      </trkpt>
      <trkpt lat="45.45053" lon="6.00338">
        <ele>253.6</ele>
        <time>2014-10-18T10:41:06Z</time>
      </trkpt>
      <trkpt lat="45.45043" lon="6.00336">
        <ele>253.5</ele>
        <time>2014-10-18T10:41:08Z</time>
      </trkpt>
      <trkpt lat="45.45033" lon="6.00335">
        <ele>253.3</ele>
        <time>2014-10-18T10:41:10Z</time>
      </trkpt>
      <trkpt lat="45.45023" lon="6.00334">
        <ele>253.4</ele>
        <time>2014-10-18T10:41:12Z</time>
      </trkpt>
      <trkpt lat="45.45014" lon="6.00332">
        <ele>253.2</ele>
        <time>2014-10-18T10:41:14Z</time>
      </trkpt>
      <trkpt lat="45.45004" lon="6.0033">
        <ele>253.5</ele>
        <time>2014-10-18T10:41:16Z</time>
      </trkpt>
      <trkpt lat="45.44994" lon="6.0033">
        <ele>253.6</ele>
        <time>2014-10-18T10:41:18Z</time>
      </trkpt>
      <trkpt lat="45.44984" lon="6.00329">
        <ele>253.6</ele>
        <time>2014-10-18T10:41:20Z</time>
      </trkpt>
      <trkpt lat="45.44974" lon="6.00328">
        <ele>253.8</ele>
        <time>2014-10-18T10:41:22Z</time>
      </trkpt>
      <trkpt lat="45.44964" lon="6.00325">
        <ele>254</ele>
        <time>2014-10-18T10:41:24Z</time>
      </trkpt>
      <trkpt lat="45.44954" lon="6.00322">
        <ele>254.1</ele>
        <time>2014-10-18T10:41:26Z</time>
      </trkpt>
      <trkpt lat="45.44945" lon="6.00321">
        <ele>253.9</ele>
        <time>2014-10-18T10:41:28Z</time>
      </trkpt>
      <trkpt lat="45.44936" lon="6.00318">
        <ele>254</ele>
        <time>2014-10-18T10:41:30Z</time>
      </trkpt>
      <trkpt lat="45.44926" lon="6.00315">
        <ele>253.9</ele>
        <time>2014-10-18T10:41:32Z</time>
      </trkpt>
      <trkpt lat="45.44917" lon="6.00314">
        <ele>253.9</ele>
        <time>2014-10-18T10:41:34Z</time>
      </trkpt>
      <trkpt lat="45.44907" lon="6.00314">
        <ele>254.5</ele>
        <time>2014-10-18T10:41:36Z</time>
      </trkpt>
      <trkpt lat="45.44897" lon="6.00312">
        <ele>254</ele>
        <time>2014-10-18T10:41:38Z</time>
      </trkpt>
      <trkpt lat="45.44887" lon="6.00309">
        <ele>254.2</ele>
        <time>2014-10-18T10:41:40Z</time>
      </trkpt>
      <trkpt lat="45.44878" lon="6.00306">
        <ele>254.3</ele>
        <time>2014-10-18T10:41:42Z</time>
      </trkpt>
      <trkpt lat="45.44868" lon="6.00302">
        <ele>254.3</ele>
        <time>2014-10-18T10:41:44Z</time>
      </trkpt>
      <trkpt lat="45.44858" lon="6.00301">
        <ele>254.4</ele>
        <time>2014-10-18T10:41:46Z</time>
      </trkpt>
      <trkpt lat="45.44847" lon="6.003">
        <ele>254.2</ele>
        <time>2014-10-18T10:41:48Z</time>
      </trkpt>
      <trkpt lat="45.44837" lon="6.003">
        <ele>253.9</ele>
        <time>2014-10-18T10:41:50Z</time>
      </trkpt>
      <trkpt lat="45.44827" lon="6.003">
        <ele>253.6</ele>
        <time>2014-10-18T10:41:52Z</time>
      </trkpt>
      <trkpt lat="45.44818" lon="6.00298">
        <ele>253.8</ele>
        <time>2014-10-18T10:41:54Z</time>
      </trkpt>
      <trkpt lat="45.44807" lon="6.00298">
        <ele>254.3</ele>
        <time>2014-10-18T10:41:56Z</time>
      </trkpt>
      <trkpt lat="45.44797" lon="6.00298">
        <ele>254.3</ele>
        <time>2014-10-18T10:41:58Z</time>
      </trkpt>
      <trkpt lat="45.44787" lon="6.00297">
        <ele>253.9</ele>
        <time>2014-10-18T10:42:00Z</time>
      </trkpt>
      <trkpt lat="45.44776" lon="6.00295">
        <ele>254.2</ele>
        <time>2014-10-18T10:42:02Z</time>
      </trkpt>
      <trkpt lat="45.44765" lon="6.00293">
        <ele>254.1</ele>
        <time>2014-10-18T10:42:04Z</time>
      </trkpt>
      <trkpt lat="45.44756" lon="6.00291">
        <ele>254.1</ele>
        <time>2014-10-18T10:42:06Z</time>
      </trkpt>
      <trkpt lat="45.44745" lon="6.00291">
        <ele>254</ele>
        <time>2014-10-18T10:42:08Z</time>
      </trkpt>
      <trkpt lat="45.44735" lon="6.00291">
        <ele>253.6</ele>
        <time>2014-10-18T10:42:10Z</time>
      </trkpt>
      <trkpt lat="45.44724" lon="6.0029">
        <ele>253.7</ele>
        <time>2014-10-18T10:42:12Z</time>
      </trkpt>
      <trkpt lat="45.44713" lon="6.00289">
        <ele>254</ele>
        <time>2014-10-18T10:42:14Z</time>
      </trkpt>
      <trkpt lat="45.44702" lon="6.00288">
        <ele>254.2</ele>
        <time>2014-10-18T10:42:16Z</time>
      </trkpt>
      <trkpt lat="45.44692" lon="6.00286">
        <ele>254.6</ele>
        <time>2014-10-18T10:42:18Z</time>
      </trkpt>
      <trkpt lat="45.4468" lon="6.00284">
        <ele>254</ele>
        <time>2014-10-18T10:42:20Z</time>
      </trkpt>
      <trkpt lat="45.44669" lon="6.00284">
        <ele>253.8</ele>
        <time>2014-10-18T10:42:22Z</time>
      </trkpt>
      <trkpt lat="45.44658" lon="6.00284">
        <ele>253.4</ele>
        <time>2014-10-18T10:42:24Z</time>
      </trkpt>
      <trkpt lat="45.44647" lon="6.00284">
        <ele>254.2</ele>
        <time>2014-10-18T10:42:26Z</time>
      </trkpt>
      <trkpt lat="45.44636" lon="6.00285">
        <ele>254.1</ele>
        <time>2014-10-18T10:42:28Z</time>
      </trkpt>
      <trkpt lat="45.44625" lon="6.00284">
        <ele>253.3</ele>
        <time>2014-10-18T10:42:30Z</time>
      </trkpt>
      <trkpt lat="45.44614" lon="6.00284">
        <ele>253.8</ele>
        <time>2014-10-18T10:42:32Z</time>
      </trkpt>
      <trkpt lat="45.44603" lon="6.00285">
        <ele>253.9</ele>
        <time>2014-10-18T10:42:34Z</time>
      </trkpt>
      <trkpt lat="45.44591" lon="6.00286">
        <ele>254.2</ele>
        <time>2014-10-18T10:42:36Z</time>
      </trkpt>
      <trkpt lat="45.44581" lon="6.00286">
        <ele>254.1</ele>
        <time>2014-10-18T10:42:38Z</time>
      </trkpt>
      <trkpt lat="45.44569" lon="6.00286">
        <ele>253.5</ele>
        <time>2014-10-18T10:42:40Z</time>
      </trkpt>
      <trkpt lat="45.44559" lon="6.00287">
        <ele>253.6</ele>
        <time>2014-10-18T10:42:42Z</time>
      </trkpt>
      <trkpt lat="45.44548" lon="6.0029">
        <ele>253.6</ele>
        <time>2014-10-18T10:42:44Z</time>
      </trkpt>
      <trkpt lat="45.44536" lon="6.00292">
        <ele>253.6</ele>
        <time>2014-10-18T10:42:46Z</time>
      </trkpt>
      <trkpt lat="45.44525" lon="6.00292">
        <ele>253.5</ele>
        <time>2014-10-18T10:42:48Z</time>
      </trkpt>
      <trkpt lat="45.44514" lon="6.00292">
        <ele>253.3</ele>
        <time>2014-10-18T10:42:50Z</time>
      </trkpt>
      <trkpt lat="45.44503" lon="6.00292">
        <ele>253.5</ele>
        <time>2014-10-18T10:42:52Z</time>
      </trkpt>
      <trkpt lat="45.44492" lon="6.00293">
        <ele>253.7</ele>
        <time>2014-10-18T10:42:54Z</time>
      </trkpt>
      <trkpt lat="45.44481" lon="6.00294">
        <ele>253.4</ele>
        <time>2014-10-18T10:42:56Z</time>
      </trkpt>
      <trkpt lat="45.44469" lon="6.00297">
        <ele>253.4</ele>
        <time>2014-10-18T10:42:58Z</time>
      </trkpt>
      <trkpt lat="45.44458" lon="6.00298">
        <ele>253.4</ele>
        <time>2014-10-18T10:43:00Z</time>
      </trkpt>
      <trkpt lat="45.44446" lon="6.00299">
        <ele>253.2</ele>
        <time>2014-10-18T10:43:02Z</time>
      </trkpt>
      <trkpt lat="45.44434" lon="6.00301">
        <ele>253.4</ele>
        <time>2014-10-18T10:43:04Z</time>
      </trkpt>
      <trkpt lat="45.44422" lon="6.00302">
        <ele>253.9</ele>
        <time>2014-10-18T10:43:06Z</time>
      </trkpt>
      <trkpt lat="45.44411" lon="6.00303">
        <ele>253.5</ele>
        <time>2014-10-18T10:43:08Z</time>
      </trkpt>
      <trkpt lat="45.44401" lon="6.00304">
        <ele>253.6</ele>
        <time>2014-10-18T10:43:10Z</time>
      </trkpt>
      <trkpt lat="45.44389" lon="6.00302">
        <ele>253.5</ele>
        <time>2014-10-18T10:43:13Z</time>
      </trkpt>
      <trkpt lat="45.44378" lon="6.00308">
        <ele>253.6</ele>
        <time>2014-10-18T10:43:17Z</time>
      </trkpt>
      <trkpt lat="45.44368" lon="6.00317">
        <ele>253.7</ele>
        <time>2014-10-18T10:43:20Z</time>
      </trkpt>
      <trkpt lat="45.44356" lon="6.00317">
        <ele>253</ele>
        <time>2014-10-18T10:43:23Z</time>
      </trkpt>
      <trkpt lat="45.44345" lon="6.00319">
        <ele>252.4</ele>
        <time>2014-10-18T10:43:26Z</time>
      </trkpt>
      <trkpt lat="45.44341" lon="6.00334">
        <ele>252.2</ele>
        <time>2014-10-18T10:43:30Z</time>
      </trkpt>
      <trkpt lat="45.4434" lon="6.00348">
        <ele>251.8</ele>
        <time>2014-10-18T10:43:34Z</time>
      </trkpt>
      <trkpt lat="45.44347" lon="6.0036">
        <ele>251.8</ele>
        <time>2014-10-18T10:43:38Z</time>
      </trkpt>
      <trkpt lat="45.44349" lon="6.00373">
        <ele>251.7</ele>
        <time>2014-10-18T10:43:44Z</time>
      </trkpt>
      <trkpt lat="45.44346" lon="6.00361">
        <ele>251.1</ele>
        <time>2014-10-18T10:44:50Z</time>
      </trkpt>
      <trkpt lat="45.44346" lon="6.00345">
        <ele>251.1</ele>
        <time>2014-10-18T10:44:56Z</time>
      </trkpt>
      <trkpt lat="45.4434" lon="6.00331">
        <ele>251.3</ele>
        <time>2014-10-18T10:45:00Z</time>
      </trkpt>
      <trkpt lat="45.44343" lon="6.00319">
        <ele>251.8</ele>
        <time>2014-10-18T10:45:04Z</time>
      </trkpt>
      <trkpt lat="45.44353" lon="6.00318">
        <ele>252.1</ele>
        <time>2014-10-18T10:45:08Z</time>
      </trkpt>
      <trkpt lat="45.44363" lon="6.00317">
        <ele>252.5</ele>
        <time>2014-10-18T10:45:13Z</time>
      </trkpt>
      <trkpt lat="45.44372" lon="6.00309">
        <ele>252.7</ele>
        <time>2014-10-18T10:45:17Z</time>
      </trkpt>
      <trkpt lat="45.44379" lon="6.00298">
        <ele>253.3</ele>
        <time>2014-10-18T10:45:22Z</time>
      </trkpt>
      <trkpt lat="45.44384" lon="6.00287">
        <ele>253.3</ele>
        <time>2014-10-18T10:45:26Z</time>
      </trkpt>
      <trkpt lat="45.44387" lon="6.00273">
        <ele>253.5</ele>
        <time>2014-10-18T10:45:30Z</time>
      </trkpt>
      <trkpt lat="45.44391" lon="6.00256">
        <ele>253.5</ele>
        <time>2014-10-18T10:45:34Z</time>
      </trkpt>
      <trkpt lat="45.44393" lon="6.00242">
        <ele>253.8</ele>
        <time>2014-10-18T10:45:37Z</time>
      </trkpt>
      <trkpt lat="45.44396" lon="6.00229">
        <ele>254.2</ele>
        <time>2014-10-18T10:45:40Z</time>
      </trkpt>
      <trkpt lat="45.44399" lon="6.00216">
        <ele>254.4</ele>
        <time>2014-10-18T10:45:43Z</time>
      </trkpt>
      <trkpt lat="45.44402" lon="6.00202">
        <ele>254.9</ele>
        <time>2014-10-18T10:45:46Z</time>
      </trkpt>
      <trkpt lat="45.444" lon="6.00186">
        <ele>255.5</ele>
        <time>2014-10-18T10:45:50Z</time>
      </trkpt>
      <trkpt lat="45.44389" lon="6.00185">
        <ele>256.5</ele>
        <time>2014-10-18T10:45:55Z</time>
      </trkpt>
      <trkpt lat="45.44379" lon="6.0019">
        <ele>256.7</ele>
        <time>2014-10-18T10:45:59Z</time>
      </trkpt>
      <trkpt lat="45.44368" lon="6.00194">
        <ele>256.6</ele>
        <time>2014-10-18T10:46:03Z</time>
      </trkpt>
      <trkpt lat="45.4436" lon="6.00205">
        <ele>256.6</ele>
        <time>2014-10-18T10:46:06Z</time>
      </trkpt>
      <trkpt lat="45.44351" lon="6.00219">
        <ele>256.8</ele>
        <time>2014-10-18T10:46:09Z</time>
      </trkpt>
      <trkpt lat="45.44345" lon="6.00231">
        <ele>256.9</ele>
        <time>2014-10-18T10:46:11Z</time>
      </trkpt>
      <trkpt lat="45.44338" lon="6.00243">
        <ele>257</ele>
        <time>2014-10-18T10:46:13Z</time>
      </trkpt>
      <trkpt lat="45.44332" lon="6.00254">
        <ele>257.2</ele>
        <time>2014-10-18T10:46:15Z</time>
      </trkpt>
      <trkpt lat="45.44327" lon="6.00265">
        <ele>257</ele>
        <time>2014-10-18T10:46:17Z</time>
      </trkpt>
      <trkpt lat="45.4432" lon="6.00275">
        <ele>257.1</ele>
        <time>2014-10-18T10:46:19Z</time>
      </trkpt>
      <trkpt lat="45.44312" lon="6.00286">
        <ele>256.9</ele>
        <time>2014-10-18T10:46:21Z</time>
      </trkpt>
      <trkpt lat="45.44303" lon="6.00295">
        <ele>257.1</ele>
        <time>2014-10-18T10:46:23Z</time>
      </trkpt>
      <trkpt lat="45.44294" lon="6.00303">
        <ele>257.1</ele>
        <time>2014-10-18T10:46:25Z</time>
      </trkpt>
      <trkpt lat="45.44285" lon="6.00311">
        <ele>257.1</ele>
        <time>2014-10-18T10:46:27Z</time>
      </trkpt>
      <trkpt lat="45.44275" lon="6.00317">
        <ele>257.1</ele>
        <time>2014-10-18T10:46:29Z</time>
      </trkpt>
      <trkpt lat="45.44264" lon="6.00322">
        <ele>257</ele>
        <time>2014-10-18T10:46:31Z</time>
      </trkpt>
      <trkpt lat="45.44253" lon="6.00326">
        <ele>256.9</ele>
        <time>2014-10-18T10:46:33Z</time>
      </trkpt>
      <trkpt lat="45.44242" lon="6.00328">
        <ele>257.1</ele>
        <time>2014-10-18T10:46:35Z</time>
      </trkpt>
      <trkpt lat="45.44231" lon="6.00331">
        <ele>257.4</ele>
        <time>2014-10-18T10:46:37Z</time>
      </trkpt>
      <trkpt lat="45.4422" lon="6.00333">
        <ele>257.1</ele>
        <time>2014-10-18T10:46:39Z</time>
      </trkpt>
      <trkpt lat="45.4421" lon="6.00335">
        <ele>257.3</ele>
        <time>2014-10-18T10:46:41Z</time>
      </trkpt>
      <trkpt lat="45.44199" lon="6.00337">
        <ele>257.8</ele>
        <time>2014-10-18T10:46:43Z</time>
      </trkpt>
      <trkpt lat="45.44189" lon="6.00338">
        <ele>258</ele>
        <time>2014-10-18T10:46:45Z</time>
      </trkpt>
      <trkpt lat="45.44179" lon="6.00338">
        <ele>258.1</ele>
        <time>2014-10-18T10:46:47Z</time>
      </trkpt>
      <trkpt lat="45.44168" lon="6.00338">
        <ele>258.4</ele>
        <time>2014-10-18T10:46:49Z</time>
      </trkpt>
      <trkpt lat="45.44158" lon="6.00337">
        <ele>258.4</ele>
        <time>2014-10-18T10:46:51Z</time>
      </trkpt>
      <trkpt lat="45.44149" lon="6.0034">
        <ele>258.6</ele>
        <time>2014-10-18T10:46:53Z</time>
      </trkpt>
      <trkpt lat="45.44138" lon="6.00342">
        <ele>259.1</ele>
        <time>2014-10-18T10:46:55Z</time>
      </trkpt>
      <trkpt lat="45.44128" lon="6.00343">
        <ele>259.4</ele>
        <time>2014-10-18T10:46:57Z</time>
      </trkpt>
      <trkpt lat="45.44118" lon="6.00343">
        <ele>259.4</ele>
        <time>2014-10-18T10:46:59Z</time>
      </trkpt>
      <trkpt lat="45.44108" lon="6.00344">
        <ele>259.6</ele>
        <time>2014-10-18T10:47:01Z</time>
      </trkpt>
      <trkpt lat="45.44098" lon="6.00344">
        <ele>260.2</ele>
        <time>2014-10-18T10:47:03Z</time>
      </trkpt>
      <trkpt lat="45.44089" lon="6.00344">
        <ele>260.3</ele>
        <time>2014-10-18T10:47:05Z</time>
      </trkpt>
      <trkpt lat="45.44079" lon="6.00345">
        <ele>260.6</ele>
        <time>2014-10-18T10:47:07Z</time>
      </trkpt>
      <trkpt lat="45.44069" lon="6.00345">
        <ele>260.8</ele>
        <time>2014-10-18T10:47:09Z</time>
      </trkpt>
      <trkpt lat="45.44059" lon="6.00344">
        <ele>261</ele>
        <time>2014-10-18T10:47:11Z</time>
      </trkpt>
      <trkpt lat="45.44049" lon="6.00343">
        <ele>261.2</ele>
        <time>2014-10-18T10:47:13Z</time>
      </trkpt>
      <trkpt lat="45.44039" lon="6.00343">
        <ele>261.2</ele>
        <time>2014-10-18T10:47:15Z</time>
      </trkpt>
      <trkpt lat="45.44029" lon="6.00342">
        <ele>261.4</ele>
        <time>2014-10-18T10:47:17Z</time>
      </trkpt>
      <trkpt lat="45.4402" lon="6.00342">
        <ele>261.5</ele>
        <time>2014-10-18T10:47:19Z</time>
      </trkpt>
      <trkpt lat="45.4401" lon="6.00341">
        <ele>261.5</ele>
        <time>2014-10-18T10:47:21Z</time>
      </trkpt>
      <trkpt lat="45.44001" lon="6.00341">
        <ele>261.8</ele>
        <time>2014-10-18T10:47:23Z</time>
      </trkpt>
      <trkpt lat="45.43991" lon="6.00342">
        <ele>261.9</ele>
        <time>2014-10-18T10:47:25Z</time>
      </trkpt>
      <trkpt lat="45.43981" lon="6.00342">
        <ele>262.1</ele>
        <time>2014-10-18T10:47:27Z</time>
      </trkpt>
      <trkpt lat="45.43971" lon="6.00342">
        <ele>262.3</ele>
        <time>2014-10-18T10:47:29Z</time>
      </trkpt>
      <trkpt lat="45.43962" lon="6.00342">
        <ele>262.4</ele>
        <time>2014-10-18T10:47:31Z</time>
      </trkpt>
      <trkpt lat="45.43952" lon="6.00342">
        <ele>262.5</ele>
        <time>2014-10-18T10:47:33Z</time>
      </trkpt>
      <trkpt lat="45.43942" lon="6.00342">
        <ele>262.3</ele>
        <time>2014-10-18T10:47:35Z</time>
      </trkpt>
      <trkpt lat="45.43933" lon="6.00342">
        <ele>262.2</ele>
        <time>2014-10-18T10:47:37Z</time>
      </trkpt>
      <trkpt lat="45.43923" lon="6.00341">
        <ele>262.1</ele>
        <time>2014-10-18T10:47:39Z</time>
      </trkpt>
      <trkpt lat="45.43913" lon="6.00341">
        <ele>262.2</ele>
        <time>2014-10-18T10:47:41Z</time>
      </trkpt>
      <trkpt lat="45.43903" lon="6.0034">
        <ele>262.1</ele>
        <time>2014-10-18T10:47:43Z</time>
      </trkpt>
      <trkpt lat="45.43893" lon="6.0034">
        <ele>262.2</ele>
        <time>2014-10-18T10:47:45Z</time>
      </trkpt>
      <trkpt lat="45.43883" lon="6.0034">
        <ele>261.9</ele>
        <time>2014-10-18T10:47:47Z</time>
      </trkpt>
      <trkpt lat="45.43873" lon="6.00339">
        <ele>261.9</ele>
        <time>2014-10-18T10:47:49Z</time>
      </trkpt>
      <trkpt lat="45.43862" lon="6.00338">
        <ele>261.8</ele>
        <time>2014-10-18T10:47:51Z</time>
      </trkpt>
      <trkpt lat="45.43851" lon="6.00337">
        <ele>261.4</ele>
        <time>2014-10-18T10:47:53Z</time>
      </trkpt>
      <trkpt lat="45.43839" lon="6.00335">
        <ele>261.2</ele>
        <time>2014-10-18T10:47:55Z</time>
      </trkpt>
      <trkpt lat="45.43827" lon="6.00334">
        <ele>260.9</ele>
        <time>2014-10-18T10:47:57Z</time>
      </trkpt>
      <trkpt lat="45.43815" lon="6.00332">
        <ele>260.7</ele>
        <time>2014-10-18T10:47:59Z</time>
      </trkpt>
      <trkpt lat="45.43802" lon="6.00329">
        <ele>260.3</ele>
        <time>2014-10-18T10:48:01Z</time>
      </trkpt>
      <trkpt lat="45.43788" lon="6.00327">
        <ele>259.8</ele>
        <time>2014-10-18T10:48:03Z</time>
      </trkpt>
      <trkpt lat="45.43775" lon="6.00324">
        <ele>259.4</ele>
        <time>2014-10-18T10:48:05Z</time>
      </trkpt>
      <trkpt lat="45.43761" lon="6.00321">
        <ele>259</ele>
        <time>2014-10-18T10:48:07Z</time>
      </trkpt>
      <trkpt lat="45.43748" lon="6.00318">
        <ele>258.5</ele>
        <time>2014-10-18T10:48:09Z</time>
      </trkpt>
      <trkpt lat="45.43734" lon="6.00314">
        <ele>258.3</ele>
        <time>2014-10-18T10:48:11Z</time>
      </trkpt>
      <trkpt lat="45.4372" lon="6.0031">
        <ele>258</ele>
        <time>2014-10-18T10:48:13Z</time>
      </trkpt>
      <trkpt lat="45.43706" lon="6.00307">
        <ele>257.6</ele>
        <time>2014-10-18T10:48:15Z</time>
      </trkpt>
      <trkpt lat="45.43692" lon="6.00302">
        <ele>256.9</ele>
        <time>2014-10-18T10:48:17Z</time>
      </trkpt>
      <trkpt lat="45.43677" lon="6.00296">
        <ele>256.2</ele>
        <time>2014-10-18T10:48:19Z</time>
      </trkpt>
      <trkpt lat="45.43663" lon="6.00292">
        <ele>255.9</ele>
        <time>2014-10-18T10:48:21Z</time>
      </trkpt>
      <trkpt lat="45.43649" lon="6.00286">
        <ele>255.4</ele>
        <time>2014-10-18T10:48:23Z</time>
      </trkpt>
      <trkpt lat="45.43637" lon="6.00282">
        <ele>255.1</ele>
        <time>2014-10-18T10:48:25Z</time>
      </trkpt>
      <trkpt lat="45.43625" lon="6.00278">
        <ele>254.6</ele>
        <time>2014-10-18T10:48:27Z</time>
      </trkpt>
      <trkpt lat="45.43614" lon="6.00272">
        <ele>254.4</ele>
        <time>2014-10-18T10:48:29Z</time>
      </trkpt>
      <trkpt lat="45.43604" lon="6.00265">
        <ele>254.3</ele>
        <time>2014-10-18T10:48:31Z</time>
      </trkpt>
      <trkpt lat="45.43594" lon="6.00259">
        <ele>254.1</ele>
        <time>2014-10-18T10:48:34Z</time>
      </trkpt>
      <trkpt lat="45.43586" lon="6.00253">
        <ele>253.9</ele>
        <time>2014-10-18T10:48:41Z</time>
      </trkpt>
      <trkpt lat="45.43577" lon="6.00249">
        <ele>253.4</ele>
        <time>2014-10-18T10:48:51Z</time>
      </trkpt>
      <trkpt lat="45.43567" lon="6.00251">
        <ele>253.7</ele>
        <time>2014-10-18T10:48:56Z</time>
      </trkpt>
      <trkpt lat="45.43561" lon="6.00262">
        <ele>253.5</ele>
        <time>2014-10-18T10:48:59Z</time>
      </trkpt>
      <trkpt lat="45.43557" lon="6.00278">
        <ele>254</ele>
        <time>2014-10-18T10:49:02Z</time>
      </trkpt>
      <trkpt lat="45.43554" lon="6.00294">
        <ele>254.1</ele>
        <time>2014-10-18T10:49:05Z</time>
      </trkpt>
      <trkpt lat="45.4355" lon="6.00312">
        <ele>254.7</ele>
        <time>2014-10-18T10:49:08Z</time>
      </trkpt>
      <trkpt lat="45.43549" lon="6.00325">
        <ele>254.9</ele>
        <time>2014-10-18T10:49:10Z</time>
      </trkpt>
      <trkpt lat="45.43547" lon="6.00343">
        <ele>255.6</ele>
        <time>2014-10-18T10:49:13Z</time>
      </trkpt>
      <trkpt lat="45.43544" lon="6.0036">
        <ele>256</ele>
        <time>2014-10-18T10:49:16Z</time>
      </trkpt>
      <trkpt lat="45.43542" lon="6.00376">
        <ele>256.5</ele>
        <time>2014-10-18T10:49:19Z</time>
      </trkpt>
      <trkpt lat="45.4354" lon="6.00394">
        <ele>256.8</ele>
        <time>2014-10-18T10:49:22Z</time>
      </trkpt>
      <trkpt lat="45.43538" lon="6.00412">
        <ele>256.8</ele>
        <time>2014-10-18T10:49:25Z</time>
      </trkpt>
      <trkpt lat="45.43536" lon="6.00424">
        <ele>256.7</ele>
        <time>2014-10-18T10:49:27Z</time>
      </trkpt>
      <trkpt lat="45.43533" lon="6.00442">
        <ele>256.3</ele>
        <time>2014-10-18T10:49:30Z</time>
      </trkpt>
      <trkpt lat="45.4353" lon="6.0046">
        <ele>256.4</ele>
        <time>2014-10-18T10:49:33Z</time>
      </trkpt>
      <trkpt lat="45.43528" lon="6.00477">
        <ele>256.3</ele>
        <time>2014-10-18T10:49:36Z</time>
      </trkpt>
      <trkpt lat="45.43526" lon="6.00494">
        <ele>256</ele>
        <time>2014-10-18T10:49:39Z</time>
      </trkpt>
      <trkpt lat="45.43518" lon="6.00507">
        <ele>256</ele>
        <time>2014-10-18T10:49:42Z</time>
      </trkpt>
      <trkpt lat="45.43507" lon="6.00508">
        <ele>255.7</ele>
        <time>2014-10-18T10:49:45Z</time>
      </trkpt>
      <trkpt lat="45.43497" lon="6.0051">
        <ele>255.2</ele>
        <time>2014-10-18T10:49:48Z</time>
      </trkpt>
      <trkpt lat="45.43486" lon="6.00505">
        <ele>254.8</ele>
        <time>2014-10-18T10:49:51Z</time>
      </trkpt>
      <trkpt lat="45.43473" lon="6.00503">
        <ele>254.6</ele>
        <time>2014-10-18T10:49:54Z</time>
      </trkpt>
      <trkpt lat="45.43459" lon="6.00501">
        <ele>254.6</ele>
        <time>2014-10-18T10:49:57Z</time>
      </trkpt>
      <trkpt lat="45.43449" lon="6.00498">
        <ele>254.2</ele>
        <time>2014-10-18T10:49:59Z</time>
      </trkpt>
      <trkpt lat="45.4344" lon="6.00496">
        <ele>254.2</ele>
        <time>2014-10-18T10:50:01Z</time>
      </trkpt>
      <trkpt lat="45.4343" lon="6.00496">
        <ele>254.3</ele>
        <time>2014-10-18T10:50:03Z</time>
      </trkpt>
      <trkpt lat="45.4342" lon="6.00497">
        <ele>254</ele>
        <time>2014-10-18T10:50:05Z</time>
      </trkpt>
      <trkpt lat="45.43409" lon="6.00496">
        <ele>253.6</ele>
        <time>2014-10-18T10:50:07Z</time>
      </trkpt>
      <trkpt lat="45.43398" lon="6.00496">
        <ele>253.8</ele>
        <time>2014-10-18T10:50:09Z</time>
      </trkpt>
      <trkpt lat="45.43386" lon="6.00496">
        <ele>253.7</ele>
        <time>2014-10-18T10:50:11Z</time>
      </trkpt>
      <trkpt lat="45.43374" lon="6.00495">
        <ele>253.4</ele>
        <time>2014-10-18T10:50:13Z</time>
      </trkpt>
      <trkpt lat="45.43361" lon="6.00495">
        <ele>253.1</ele>
        <time>2014-10-18T10:50:15Z</time>
      </trkpt>
      <trkpt lat="45.43349" lon="6.00494">
        <ele>252.9</ele>
        <time>2014-10-18T10:50:17Z</time>
      </trkpt>
      <trkpt lat="45.43336" lon="6.00494">
        <ele>252.6</ele>
        <time>2014-10-18T10:50:19Z</time>
      </trkpt>
      <trkpt lat="45.43324" lon="6.00495">
        <ele>252.6</ele>
        <time>2014-10-18T10:50:21Z</time>
      </trkpt>
      <trkpt lat="45.43311" lon="6.00495">
        <ele>252.8</ele>
        <time>2014-10-18T10:50:23Z</time>
      </trkpt>
      <trkpt lat="45.43299" lon="6.00495">
        <ele>252.7</ele>
        <time>2014-10-18T10:50:25Z</time>
      </trkpt>
      <trkpt lat="45.43286" lon="6.00495">
        <ele>252.8</ele>
        <time>2014-10-18T10:50:27Z</time>
      </trkpt>
      <trkpt lat="45.43273" lon="6.00496">
        <ele>252.8</ele>
        <time>2014-10-18T10:50:29Z</time>
      </trkpt>
      <trkpt lat="45.4326" lon="6.00497">
        <ele>252.8</ele>
        <time>2014-10-18T10:50:31Z</time>
      </trkpt>
      <trkpt lat="45.43247" lon="6.00499">
        <ele>252.7</ele>
        <time>2014-10-18T10:50:33Z</time>
      </trkpt>
      <trkpt lat="45.43234" lon="6.00501">
        <ele>252.5</ele>
        <time>2014-10-18T10:50:35Z</time>
      </trkpt>
      <trkpt lat="45.43221" lon="6.00501">
        <ele>252.5</ele>
        <time>2014-10-18T10:50:37Z</time>
      </trkpt>
      <trkpt lat="45.43209" lon="6.00498">
        <ele>252.2</ele>
        <time>2014-10-18T10:50:39Z</time>
      </trkpt>
      <trkpt lat="45.43196" lon="6.00497">
        <ele>252</ele>
        <time>2014-10-18T10:50:41Z</time>
      </trkpt>
      <trkpt lat="45.43183" lon="6.00497">
        <ele>252.1</ele>
        <time>2014-10-18T10:50:43Z</time>
      </trkpt>
      <trkpt lat="45.4317" lon="6.00497">
        <ele>251.9</ele>
        <time>2014-10-18T10:50:45Z</time>
      </trkpt>
      <trkpt lat="45.43158" lon="6.00497">
        <ele>252</ele>
        <time>2014-10-18T10:50:47Z</time>
      </trkpt>
      <trkpt lat="45.43145" lon="6.00496">
        <ele>252</ele>
        <time>2014-10-18T10:50:49Z</time>
      </trkpt>
      <trkpt lat="45.43133" lon="6.00496">
        <ele>252.3</ele>
        <time>2014-10-18T10:50:51Z</time>
      </trkpt>
      <trkpt lat="45.4312" lon="6.00493">
        <ele>252</ele>
        <time>2014-10-18T10:50:53Z</time>
      </trkpt>
      <trkpt lat="45.43108" lon="6.00492">
        <ele>251.8</ele>
        <time>2014-10-18T10:50:55Z</time>
      </trkpt>
      <trkpt lat="45.43096" lon="6.00491">
        <ele>251.9</ele>
        <time>2014-10-18T10:50:57Z</time>
      </trkpt>
      <trkpt lat="45.43083" lon="6.00492">
        <ele>252</ele>
        <time>2014-10-18T10:50:59Z</time>
      </trkpt>
      <trkpt lat="45.43071" lon="6.00491">
        <ele>251.8</ele>
        <time>2014-10-18T10:51:01Z</time>
      </trkpt>
      <trkpt lat="45.43059" lon="6.0049">
        <ele>252.1</ele>
        <time>2014-10-18T10:51:03Z</time>
      </trkpt>
      <trkpt lat="45.43048" lon="6.0049">
        <ele>252</ele>
        <time>2014-10-18T10:51:05Z</time>
      </trkpt>
      <trkpt lat="45.43036" lon="6.00488">
        <ele>252.1</ele>
        <time>2014-10-18T10:51:07Z</time>
      </trkpt>
      <trkpt lat="45.43025" lon="6.00487">
        <ele>252.2</ele>
        <time>2014-10-18T10:51:09Z</time>
      </trkpt>
      <trkpt lat="45.43013" lon="6.00486">
        <ele>252.2</ele>
        <time>2014-10-18T10:51:11Z</time>
      </trkpt>
      <trkpt lat="45.43002" lon="6.00486">
        <ele>252.2</ele>
        <time>2014-10-18T10:51:13Z</time>
      </trkpt>
      <trkpt lat="45.4299" lon="6.00486">
        <ele>252.5</ele>
        <time>2014-10-18T10:51:15Z</time>
      </trkpt>
      <trkpt lat="45.42978" lon="6.00486">
        <ele>252.1</ele>
        <time>2014-10-18T10:51:17Z</time>
      </trkpt>
      <trkpt lat="45.42966" lon="6.00485">
        <ele>251.9</ele>
        <time>2014-10-18T10:51:19Z</time>
      </trkpt>
      <trkpt lat="45.42954" lon="6.00485">
        <ele>252</ele>
        <time>2014-10-18T10:51:21Z</time>
      </trkpt>
      <trkpt lat="45.42941" lon="6.00485">
        <ele>251.6</ele>
        <time>2014-10-18T10:51:23Z</time>
      </trkpt>
      <trkpt lat="45.42929" lon="6.00485">
        <ele>251.7</ele>
        <time>2014-10-18T10:51:25Z</time>
      </trkpt>
      <trkpt lat="45.42917" lon="6.00484">
        <ele>251.7</ele>
        <time>2014-10-18T10:51:27Z</time>
      </trkpt>
      <trkpt lat="45.42905" lon="6.00484">
        <ele>251.3</ele>
        <time>2014-10-18T10:51:29Z</time>
      </trkpt>
      <trkpt lat="45.42893" lon="6.00483">
        <ele>251.5</ele>
        <time>2014-10-18T10:51:31Z</time>
      </trkpt>
      <trkpt lat="45.42881" lon="6.00483">
        <ele>251.4</ele>
        <time>2014-10-18T10:51:33Z</time>
      </trkpt>
      <trkpt lat="45.42869" lon="6.00482">
        <ele>251.6</ele>
        <time>2014-10-18T10:51:35Z</time>
      </trkpt>
      <trkpt lat="45.42857" lon="6.00482">
        <ele>251.3</ele>
        <time>2014-10-18T10:51:37Z</time>
      </trkpt>
      <trkpt lat="45.42845" lon="6.00481">
        <ele>251.2</ele>
        <time>2014-10-18T10:51:39Z</time>
      </trkpt>
      <trkpt lat="45.42833" lon="6.00481">
        <ele>251.4</ele>
        <time>2014-10-18T10:51:41Z</time>
      </trkpt>
      <trkpt lat="45.42822" lon="6.0048">
        <ele>251.6</ele>
        <time>2014-10-18T10:51:43Z</time>
      </trkpt>
      <trkpt lat="45.4281" lon="6.0048">
        <ele>251.8</ele>
        <time>2014-10-18T10:51:45Z</time>
      </trkpt>
      <trkpt lat="45.42798" lon="6.00479">
        <ele>251.9</ele>
        <time>2014-10-18T10:51:47Z</time>
      </trkpt>
      <trkpt lat="45.42786" lon="6.00479">
        <ele>251.6</ele>
        <time>2014-10-18T10:51:49Z</time>
      </trkpt>
      <trkpt lat="45.42774" lon="6.00479">
        <ele>251.6</ele>
        <time>2014-10-18T10:51:51Z</time>
      </trkpt>
      <trkpt lat="45.42762" lon="6.00479">
        <ele>251.4</ele>
        <time>2014-10-18T10:51:53Z</time>
      </trkpt>
      <trkpt lat="45.42751" lon="6.00478">
        <ele>251.7</ele>
        <time>2014-10-18T10:51:55Z</time>
      </trkpt>
      <trkpt lat="45.42739" lon="6.00476">
        <ele>252</ele>
        <time>2014-10-18T10:51:57Z</time>
      </trkpt>
      <trkpt lat="45.42726" lon="6.00476">
        <ele>251.8</ele>
        <time>2014-10-18T10:51:59Z</time>
      </trkpt>
      <trkpt lat="45.42714" lon="6.00475">
        <ele>251.9</ele>
        <time>2014-10-18T10:52:01Z</time>
      </trkpt>
      <trkpt lat="45.42702" lon="6.00474">
        <ele>251.7</ele>
        <time>2014-10-18T10:52:03Z</time>
      </trkpt>
      <trkpt lat="45.42689" lon="6.00472">
        <ele>251.8</ele>
        <time>2014-10-18T10:52:05Z</time>
      </trkpt>
      <trkpt lat="45.42677" lon="6.00471">
        <ele>251.7</ele>
        <time>2014-10-18T10:52:07Z</time>
      </trkpt>
      <trkpt lat="45.42665" lon="6.00471">
        <ele>251.6</ele>
        <time>2014-10-18T10:52:09Z</time>
      </trkpt>
      <trkpt lat="45.42653" lon="6.00472">
        <ele>251.4</ele>
        <time>2014-10-18T10:52:11Z</time>
      </trkpt>
      <trkpt lat="45.42641" lon="6.00471">
        <ele>251.3</ele>
        <time>2014-10-18T10:52:13Z</time>
      </trkpt>
      <trkpt lat="45.42629" lon="6.00471">
        <ele>251.3</ele>
        <time>2014-10-18T10:52:15Z</time>
      </trkpt>
      <trkpt lat="45.42617" lon="6.00471">
        <ele>251.3</ele>
        <time>2014-10-18T10:52:17Z</time>
      </trkpt>
      <trkpt lat="45.42604" lon="6.0047">
        <ele>251.3</ele>
        <time>2014-10-18T10:52:19Z</time>
      </trkpt>
      <trkpt lat="45.42592" lon="6.00469">
        <ele>251.4</ele>
        <time>2014-10-18T10:52:21Z</time>
      </trkpt>
      <trkpt lat="45.4258" lon="6.00469">
        <ele>251.2</ele>
        <time>2014-10-18T10:52:23Z</time>
      </trkpt>
      <trkpt lat="45.42568" lon="6.00468">
        <ele>251</ele>
        <time>2014-10-18T10:52:25Z</time>
      </trkpt>
      <trkpt lat="45.42556" lon="6.00468">
        <ele>251.1</ele>
        <time>2014-10-18T10:52:27Z</time>
      </trkpt>
      <trkpt lat="45.42543" lon="6.00467">
        <ele>251</ele>
        <time>2014-10-18T10:52:29Z</time>
      </trkpt>
      <trkpt lat="45.42531" lon="6.00466">
        <ele>251.1</ele>
        <time>2014-10-18T10:52:31Z</time>
      </trkpt>
      <trkpt lat="45.42519" lon="6.00466">
        <ele>251.3</ele>
        <time>2014-10-18T10:52:33Z</time>
      </trkpt>
      <trkpt lat="45.42507" lon="6.00466">
        <ele>251.3</ele>
        <time>2014-10-18T10:52:35Z</time>
      </trkpt>
      <trkpt lat="45.42495" lon="6.00466">
        <ele>251.1</ele>
        <time>2014-10-18T10:52:37Z</time>
      </trkpt>
      <trkpt lat="45.42483" lon="6.00466">
        <ele>251.1</ele>
        <time>2014-10-18T10:52:39Z</time>
      </trkpt>
      <trkpt lat="45.42471" lon="6.00466">
        <ele>251</ele>
        <time>2014-10-18T10:52:41Z</time>
      </trkpt>
      <trkpt lat="45.42459" lon="6.00465">
        <ele>251</ele>
        <time>2014-10-18T10:52:43Z</time>
      </trkpt>
      <trkpt lat="45.42447" lon="6.00465">
        <ele>251</ele>
        <time>2014-10-18T10:52:45Z</time>
      </trkpt>
      <trkpt lat="45.42436" lon="6.00464">
        <ele>251</ele>
        <time>2014-10-18T10:52:47Z</time>
      </trkpt>
      <trkpt lat="45.42424" lon="6.00463">
        <ele>251.2</ele>
        <time>2014-10-18T10:52:49Z</time>
      </trkpt>
      <trkpt lat="45.42412" lon="6.00462">
        <ele>251.1</ele>
        <time>2014-10-18T10:52:51Z</time>
      </trkpt>
      <trkpt lat="45.42401" lon="6.0046">
        <ele>251.5</ele>
        <time>2014-10-18T10:52:53Z</time>
      </trkpt>
      <trkpt lat="45.42389" lon="6.00459">
        <ele>251.5</ele>
        <time>2014-10-18T10:52:55Z</time>
      </trkpt>
      <trkpt lat="45.42377" lon="6.00458">
        <ele>251.4</ele>
        <time>2014-10-18T10:52:57Z</time>
      </trkpt>
      <trkpt lat="45.42364" lon="6.00457">
        <ele>251.3</ele>
        <time>2014-10-18T10:52:59Z</time>
      </trkpt>
      <trkpt lat="45.42352" lon="6.00458">
        <ele>251.5</ele>
        <time>2014-10-18T10:53:01Z</time>
      </trkpt>
      <trkpt lat="45.4234" lon="6.00459">
        <ele>251.6</ele>
        <time>2014-10-18T10:53:03Z</time>
      </trkpt>
      <trkpt lat="45.42327" lon="6.00459">
        <ele>251.4</ele>
        <time>2014-10-18T10:53:05Z</time>
      </trkpt>
      <trkpt lat="45.42315" lon="6.00459">
        <ele>251.4</ele>
        <time>2014-10-18T10:53:07Z</time>
      </trkpt>
      <trkpt lat="45.42303" lon="6.00461">
        <ele>251.6</ele>
        <time>2014-10-18T10:53:09Z</time>
      </trkpt>
      <trkpt lat="45.42291" lon="6.00462">
        <ele>251.4</ele>
        <time>2014-10-18T10:53:11Z</time>
      </trkpt>
      <trkpt lat="45.42279" lon="6.00462">
        <ele>251.5</ele>
        <time>2014-10-18T10:53:13Z</time>
      </trkpt>
      <trkpt lat="45.42266" lon="6.00461">
        <ele>251.8</ele>
        <time>2014-10-18T10:53:15Z</time>
      </trkpt>
      <trkpt lat="45.42254" lon="6.00461">
        <ele>251.9</ele>
        <time>2014-10-18T10:53:17Z</time>
      </trkpt>
      <trkpt lat="45.42242" lon="6.0046">
        <ele>251.7</ele>
        <time>2014-10-18T10:53:19Z</time>
      </trkpt>
      <trkpt lat="45.42231" lon="6.00456">
        <ele>251.7</ele>
        <time>2014-10-18T10:53:21Z</time>
      </trkpt>
      <trkpt lat="45.4222" lon="6.00449">
        <ele>251.8</ele>
        <time>2014-10-18T10:53:23Z</time>
      </trkpt>
      <trkpt lat="45.4221" lon="6.00446">
        <ele>252.1</ele>
        <time>2014-10-18T10:53:25Z</time>
      </trkpt>
      <trkpt lat="45.422" lon="6.00452">
        <ele>252</ele>
        <time>2014-10-18T10:53:27Z</time>
      </trkpt>
      <trkpt lat="45.42196" lon="6.00465">
        <ele>252.1</ele>
        <time>2014-10-18T10:53:29Z</time>
      </trkpt>
      <trkpt lat="45.42197" lon="6.0048">
        <ele>252.1</ele>
        <time>2014-10-18T10:53:31Z</time>
      </trkpt>
      <trkpt lat="45.42203" lon="6.00493">
        <ele>252</ele>
        <time>2014-10-18T10:53:33Z</time>
      </trkpt>
      <trkpt lat="45.42206" lon="6.00507">
        <ele>252.1</ele>
        <time>2014-10-18T10:53:35Z</time>
      </trkpt>
      <trkpt lat="45.42208" lon="6.00521">
        <ele>252.2</ele>
        <time>2014-10-18T10:53:37Z</time>
      </trkpt>
      <trkpt lat="45.42209" lon="6.00535">
        <ele>252.4</ele>
        <time>2014-10-18T10:53:39Z</time>
      </trkpt>
      <trkpt lat="45.42209" lon="6.00548">
        <ele>252.5</ele>
        <time>2014-10-18T10:53:41Z</time>
      </trkpt>
      <trkpt lat="45.4221" lon="6.00561">
        <ele>252.8</ele>
        <time>2014-10-18T10:53:43Z</time>
      </trkpt>
      <trkpt lat="45.4221" lon="6.00574">
        <ele>252.7</ele>
        <time>2014-10-18T10:53:45Z</time>
      </trkpt>
      <trkpt lat="45.42211" lon="6.00593">
        <ele>253.3</ele>
        <time>2014-10-18T10:53:48Z</time>
      </trkpt>
      <trkpt lat="45.42212" lon="6.00611">
        <ele>253.6</ele>
        <time>2014-10-18T10:53:51Z</time>
      </trkpt>
      <trkpt lat="45.42213" lon="6.00628">
        <ele>253.8</ele>
        <time>2014-10-18T10:53:54Z</time>
      </trkpt>
      <trkpt lat="45.42214" lon="6.00645">
        <ele>254.2</ele>
        <time>2014-10-18T10:53:57Z</time>
      </trkpt>
      <trkpt lat="45.42215" lon="6.00662">
        <ele>254.8</ele>
        <time>2014-10-18T10:54:00Z</time>
      </trkpt>
      <trkpt lat="45.42215" lon="6.00679">
        <ele>255.5</ele>
        <time>2014-10-18T10:54:03Z</time>
      </trkpt>
      <trkpt lat="45.42216" lon="6.00695">
        <ele>256</ele>
        <time>2014-10-18T10:54:06Z</time>
      </trkpt>
      <trkpt lat="45.42217" lon="6.00712">
        <ele>256.6</ele>
        <time>2014-10-18T10:54:09Z</time>
      </trkpt>
      <trkpt lat="45.42218" lon="6.0073">
        <ele>257</ele>
        <time>2014-10-18T10:54:12Z</time>
      </trkpt>
      <trkpt lat="45.42218" lon="6.00747">
        <ele>257.2</ele>
        <time>2014-10-18T10:54:15Z</time>
      </trkpt>
      <trkpt lat="45.42219" lon="6.00765">
        <ele>257.7</ele>
        <time>2014-10-18T10:54:18Z</time>
      </trkpt>
      <trkpt lat="45.4222" lon="6.00783">
        <ele>258.4</ele>
        <time>2014-10-18T10:54:21Z</time>
      </trkpt>
      <trkpt lat="45.42221" lon="6.00801">
        <ele>258.8</ele>
        <time>2014-10-18T10:54:24Z</time>
      </trkpt>
      <trkpt lat="45.42221" lon="6.0082">
        <ele>259</ele>
        <time>2014-10-18T10:54:27Z</time>
      </trkpt>
      <trkpt lat="45.42222" lon="6.00838">
        <ele>259.3</ele>
        <time>2014-10-18T10:54:30Z</time>
      </trkpt>
      <trkpt lat="45.42223" lon="6.00857">
        <ele>259.2</ele>
        <time>2014-10-18T10:54:33Z</time>
      </trkpt>
      <trkpt lat="45.42224" lon="6.00875">
        <ele>259.4</ele>
        <time>2014-10-18T10:54:36Z</time>
      </trkpt>
      <trkpt lat="45.42225" lon="6.00894">
        <ele>259.5</ele>
        <time>2014-10-18T10:54:39Z</time>
      </trkpt>
      <trkpt lat="45.42225" lon="6.00908">
        <ele>259.5</ele>
        <time>2014-10-18T10:54:41Z</time>
      </trkpt>
      <trkpt lat="45.42225" lon="6.00922">
        <ele>259.5</ele>
        <time>2014-10-18T10:54:43Z</time>
      </trkpt>
      <trkpt lat="45.42226" lon="6.00937">
        <ele>259.5</ele>
        <time>2014-10-18T10:54:45Z</time>
      </trkpt>
      <trkpt lat="45.42227" lon="6.00952">
        <ele>259.3</ele>
        <time>2014-10-18T10:54:47Z</time>
      </trkpt>
      <trkpt lat="45.42228" lon="6.00968">
        <ele>259.1</ele>
        <time>2014-10-18T10:54:49Z</time>
      </trkpt>
      <trkpt lat="45.42228" lon="6.00985">
        <ele>258.7</ele>
        <time>2014-10-18T10:54:51Z</time>
      </trkpt>
      <trkpt lat="45.42229" lon="6.01001">
        <ele>258.3</ele>
        <time>2014-10-18T10:54:53Z</time>
      </trkpt>
      <trkpt lat="45.4223" lon="6.01018">
        <ele>258.1</ele>
        <time>2014-10-18T10:54:55Z</time>
      </trkpt>
      <trkpt lat="45.4223" lon="6.01035">
        <ele>257.9</ele>
        <time>2014-10-18T10:54:57Z</time>
      </trkpt>
      <trkpt lat="45.42231" lon="6.01052">
        <ele>257.4</ele>
        <time>2014-10-18T10:54:59Z</time>
      </trkpt>
      <trkpt lat="45.42231" lon="6.01071">
        <ele>257.4</ele>
        <time>2014-10-18T10:55:01Z</time>
      </trkpt>
      <trkpt lat="45.42231" lon="6.01089">
        <ele>256.6</ele>
        <time>2014-10-18T10:55:03Z</time>
      </trkpt>
      <trkpt lat="45.4223" lon="6.01108">
        <ele>256.3</ele>
        <time>2014-10-18T10:55:05Z</time>
      </trkpt>
      <trkpt lat="45.42228" lon="6.01126">
        <ele>256.2</ele>
        <time>2014-10-18T10:55:07Z</time>
      </trkpt>
      <trkpt lat="45.42226" lon="6.01143">
        <ele>256</ele>
        <time>2014-10-18T10:55:09Z</time>
      </trkpt>
      <trkpt lat="45.42222" lon="6.01159">
        <ele>255.9</ele>
        <time>2014-10-18T10:55:11Z</time>
      </trkpt>
      <trkpt lat="45.42219" lon="6.01173">
        <ele>256.2</ele>
        <time>2014-10-18T10:55:13Z</time>
      </trkpt>
      <trkpt lat="45.42214" lon="6.01186">
        <ele>256.3</ele>
        <time>2014-10-18T10:55:15Z</time>
      </trkpt>
      <trkpt lat="45.4221" lon="6.01199">
        <ele>256.6</ele>
        <time>2014-10-18T10:55:17Z</time>
      </trkpt>
      <trkpt lat="45.42206" lon="6.0121">
        <ele>256.9</ele>
        <time>2014-10-18T10:55:19Z</time>
      </trkpt>
      <trkpt lat="45.42201" lon="6.01221">
        <ele>257.3</ele>
        <time>2014-10-18T10:55:21Z</time>
      </trkpt>
      <trkpt lat="45.42194" lon="6.01237">
        <ele>257.7</ele>
        <time>2014-10-18T10:55:24Z</time>
      </trkpt>
      <trkpt lat="45.42187" lon="6.01252">
        <ele>258.3</ele>
        <time>2014-10-18T10:55:27Z</time>
      </trkpt>
      <trkpt lat="45.42179" lon="6.01266">
        <ele>259.3</ele>
        <time>2014-10-18T10:55:30Z</time>
      </trkpt>
      <trkpt lat="45.42168" lon="6.01276">
        <ele>259.5</ele>
        <time>2014-10-18T10:55:33Z</time>
      </trkpt>
      <trkpt lat="45.42156" lon="6.01284">
        <ele>260</ele>
        <time>2014-10-18T10:55:36Z</time>
      </trkpt>
      <trkpt lat="45.42147" lon="6.01288">
        <ele>259.9</ele>
        <time>2014-10-18T10:55:38Z</time>
      </trkpt>
      <trkpt lat="45.42138" lon="6.01292">
        <ele>260</ele>
        <time>2014-10-18T10:55:40Z</time>
      </trkpt>
      <trkpt lat="45.42129" lon="6.01295">
        <ele>260.1</ele>
        <time>2014-10-18T10:55:42Z</time>
      </trkpt>
      <trkpt lat="45.4212" lon="6.01297">
        <ele>260.1</ele>
        <time>2014-10-18T10:55:44Z</time>
      </trkpt>
      <trkpt lat="45.42106" lon="6.01297">
        <ele>260.3</ele>
        <time>2014-10-18T10:55:47Z</time>
      </trkpt>
      <trkpt lat="45.42097" lon="6.01296">
        <ele>260.3</ele>
        <time>2014-10-18T10:55:49Z</time>
      </trkpt>
      <trkpt lat="45.42087" lon="6.01295">
        <ele>260.2</ele>
        <time>2014-10-18T10:55:51Z</time>
      </trkpt>
      <trkpt lat="45.42077" lon="6.01293">
        <ele>259.9</ele>
        <time>2014-10-18T10:55:53Z</time>
      </trkpt>
      <trkpt lat="45.42067" lon="6.01292">
        <ele>260</ele>
        <time>2014-10-18T10:55:55Z</time>
      </trkpt>
      <trkpt lat="45.42057" lon="6.0129">
        <ele>259.9</ele>
        <time>2014-10-18T10:55:57Z</time>
      </trkpt>
      <trkpt lat="45.42047" lon="6.01288">
        <ele>259.7</ele>
        <time>2014-10-18T10:55:59Z</time>
      </trkpt>
      <trkpt lat="45.42036" lon="6.01286">
        <ele>259.5</ele>
        <time>2014-10-18T10:56:01Z</time>
      </trkpt>
      <trkpt lat="45.42026" lon="6.01285">
        <ele>259.6</ele>
        <time>2014-10-18T10:56:03Z</time>
      </trkpt>
      <trkpt lat="45.42015" lon="6.01283">
        <ele>259.6</ele>
        <time>2014-10-18T10:56:05Z</time>
      </trkpt>
      <trkpt lat="45.42004" lon="6.01282">
        <ele>259.7</ele>
        <time>2014-10-18T10:56:07Z</time>
      </trkpt>
      <trkpt lat="45.41993" lon="6.0128">
        <ele>259.8</ele>
        <time>2014-10-18T10:56:09Z</time>
      </trkpt>
      <trkpt lat="45.41981" lon="6.01279">
        <ele>259.8</ele>
        <time>2014-10-18T10:56:11Z</time>
      </trkpt>
      <trkpt lat="45.41969" lon="6.01277">
        <ele>259.8</ele>
        <time>2014-10-18T10:56:13Z</time>
      </trkpt>
      <trkpt lat="45.41957" lon="6.01274">
        <ele>259.6</ele>
        <time>2014-10-18T10:56:15Z</time>
      </trkpt>
      <trkpt lat="45.41944" lon="6.0127">
        <ele>259.4</ele>
        <time>2014-10-18T10:56:17Z</time>
      </trkpt>
      <trkpt lat="45.41932" lon="6.01266">
        <ele>259.3</ele>
        <time>2014-10-18T10:56:19Z</time>
      </trkpt>
      <trkpt lat="45.4192" lon="6.01262">
        <ele>259.3</ele>
        <time>2014-10-18T10:56:21Z</time>
      </trkpt>
      <trkpt lat="45.41908" lon="6.01258">
        <ele>259.2</ele>
        <time>2014-10-18T10:56:23Z</time>
      </trkpt>
      <trkpt lat="45.41896" lon="6.01254">
        <ele>259.2</ele>
        <time>2014-10-18T10:56:25Z</time>
      </trkpt>
      <trkpt lat="45.41885" lon="6.01249">
        <ele>259.2</ele>
        <time>2014-10-18T10:56:27Z</time>
      </trkpt>
      <trkpt lat="45.41873" lon="6.01245">
        <ele>259.4</ele>
        <time>2014-10-18T10:56:29Z</time>
      </trkpt>
      <trkpt lat="45.41861" lon="6.0124">
        <ele>259.3</ele>
        <time>2014-10-18T10:56:31Z</time>
      </trkpt>
      <trkpt lat="45.41849" lon="6.01235">
        <ele>259.3</ele>
        <time>2014-10-18T10:56:33Z</time>
      </trkpt>
      <trkpt lat="45.41837" lon="6.0123">
        <ele>259.2</ele>
        <time>2014-10-18T10:56:35Z</time>
      </trkpt>
      <trkpt lat="45.41825" lon="6.01225">
        <ele>259</ele>
        <time>2014-10-18T10:56:37Z</time>
      </trkpt>
      <trkpt lat="45.41813" lon="6.0122">
        <ele>258.8</ele>
        <time>2014-10-18T10:56:39Z</time>
      </trkpt>
      <trkpt lat="45.41801" lon="6.01215">
        <ele>258.7</ele>
        <time>2014-10-18T10:56:41Z</time>
      </trkpt>
      <trkpt lat="45.4179" lon="6.0121">
        <ele>258.6</ele>
        <time>2014-10-18T10:56:43Z</time>
      </trkpt>
      <trkpt lat="45.41778" lon="6.01205">
        <ele>258.6</ele>
        <time>2014-10-18T10:56:45Z</time>
      </trkpt>
      <trkpt lat="45.41766" lon="6.012">
        <ele>258.7</ele>
        <time>2014-10-18T10:56:47Z</time>
      </trkpt>
      <trkpt lat="45.41755" lon="6.01195">
        <ele>258.6</ele>
        <time>2014-10-18T10:56:49Z</time>
      </trkpt>
      <trkpt lat="45.41743" lon="6.01191">
        <ele>258.6</ele>
        <time>2014-10-18T10:56:51Z</time>
      </trkpt>
      <trkpt lat="45.41731" lon="6.01186">
        <ele>258.7</ele>
        <time>2014-10-18T10:56:53Z</time>
      </trkpt>
      <trkpt lat="45.41719" lon="6.01181">
        <ele>258.7</ele>
        <time>2014-10-18T10:56:55Z</time>
      </trkpt>
      <trkpt lat="45.41707" lon="6.01176">
        <ele>258.7</ele>
        <time>2014-10-18T10:56:57Z</time>
      </trkpt>
      <trkpt lat="45.41696" lon="6.01172">
        <ele>258.7</ele>
        <time>2014-10-18T10:56:59Z</time>
      </trkpt>
      <trkpt lat="45.41685" lon="6.01167">
        <ele>258.8</ele>
        <time>2014-10-18T10:57:01Z</time>
      </trkpt>
      <trkpt lat="45.41673" lon="6.01163">
        <ele>258.9</ele>
        <time>2014-10-18T10:57:03Z</time>
      </trkpt>
      <trkpt lat="45.41662" lon="6.01158">
        <ele>259</ele>
        <time>2014-10-18T10:57:05Z</time>
      </trkpt>
      <trkpt lat="45.41652" lon="6.01154">
        <ele>259</ele>
        <time>2014-10-18T10:57:07Z</time>
      </trkpt>
      <trkpt lat="45.41641" lon="6.01149">
        <ele>259.3</ele>
        <time>2014-10-18T10:57:09Z</time>
      </trkpt>
      <trkpt lat="45.4163" lon="6.01145">
        <ele>259.4</ele>
        <time>2014-10-18T10:57:11Z</time>
      </trkpt>
      <trkpt lat="45.41619" lon="6.0114">
        <ele>259.5</ele>
        <time>2014-10-18T10:57:13Z</time>
      </trkpt>
      <trkpt lat="45.41609" lon="6.01136">
        <ele>259.9</ele>
        <time>2014-10-18T10:57:15Z</time>
      </trkpt>
      <trkpt lat="45.41598" lon="6.01133">
        <ele>260.1</ele>
        <time>2014-10-18T10:57:17Z</time>
      </trkpt>
      <trkpt lat="45.41588" lon="6.01128">
        <ele>260.3</ele>
        <time>2014-10-18T10:57:19Z</time>
      </trkpt>
      <trkpt lat="45.41577" lon="6.01124">
        <ele>260.4</ele>
        <time>2014-10-18T10:57:21Z</time>
      </trkpt>
      <trkpt lat="45.41566" lon="6.01119">
        <ele>260.4</ele>
        <time>2014-10-18T10:57:23Z</time>
      </trkpt>
      <trkpt lat="45.41556" lon="6.01114">
        <ele>260.7</ele>
        <time>2014-10-18T10:57:25Z</time>
      </trkpt>
      <trkpt lat="45.41545" lon="6.0111">
        <ele>261.2</ele>
        <time>2014-10-18T10:57:27Z</time>
      </trkpt>
      <trkpt lat="45.41535" lon="6.01106">
        <ele>261.3</ele>
        <time>2014-10-18T10:57:29Z</time>
      </trkpt>
      <trkpt lat="45.41524" lon="6.01101">
        <ele>261.3</ele>
        <time>2014-10-18T10:57:31Z</time>
      </trkpt>
      <trkpt lat="45.41513" lon="6.01098">
        <ele>261.3</ele>
        <time>2014-10-18T10:57:33Z</time>
      </trkpt>
      <trkpt lat="45.41503" lon="6.01093">
        <ele>261.2</ele>
        <time>2014-10-18T10:57:35Z</time>
      </trkpt>
      <trkpt lat="45.41492" lon="6.01089">
        <ele>261.2</ele>
        <time>2014-10-18T10:57:37Z</time>
      </trkpt>
      <trkpt lat="45.41481" lon="6.01084">
        <ele>261.3</ele>
        <time>2014-10-18T10:57:39Z</time>
      </trkpt>
      <trkpt lat="45.4147" lon="6.0108">
        <ele>261.4</ele>
        <time>2014-10-18T10:57:41Z</time>
      </trkpt>
      <trkpt lat="45.41459" lon="6.01075">
        <ele>261.4</ele>
        <time>2014-10-18T10:57:43Z</time>
      </trkpt>
      <trkpt lat="45.41448" lon="6.01071">
        <ele>261.5</ele>
        <time>2014-10-18T10:57:45Z</time>
      </trkpt>
      <trkpt lat="45.41438" lon="6.01067">
        <ele>261.6</ele>
        <time>2014-10-18T10:57:47Z</time>
      </trkpt>
      <trkpt lat="45.41427" lon="6.01063">
        <ele>261.6</ele>
        <time>2014-10-18T10:57:49Z</time>
      </trkpt>
      <trkpt lat="45.41417" lon="6.01059">
        <ele>261.5</ele>
        <time>2014-10-18T10:57:51Z</time>
      </trkpt>
      <trkpt lat="45.41406" lon="6.01055">
        <ele>261.6</ele>
        <time>2014-10-18T10:57:53Z</time>
      </trkpt>
      <trkpt lat="45.41395" lon="6.0105">
        <ele>261.6</ele>
        <time>2014-10-18T10:57:55Z</time>
      </trkpt>
      <trkpt lat="45.41384" lon="6.01046">
        <ele>261.4</ele>
        <time>2014-10-18T10:57:57Z</time>
      </trkpt>
      <trkpt lat="45.41373" lon="6.01042">
        <ele>261.3</ele>
        <time>2014-10-18T10:57:59Z</time>
      </trkpt>
      <trkpt lat="45.41361" lon="6.01037">
        <ele>261.2</ele>
        <time>2014-10-18T10:58:01Z</time>
      </trkpt>
      <trkpt lat="45.41349" lon="6.01033">
        <ele>261.2</ele>
        <time>2014-10-18T10:58:03Z</time>
      </trkpt>
      <trkpt lat="45.41337" lon="6.01028">
        <ele>261</ele>
        <time>2014-10-18T10:58:05Z</time>
      </trkpt>
      <trkpt lat="45.41325" lon="6.01023">
        <ele>260.9</ele>
        <time>2014-10-18T10:58:07Z</time>
      </trkpt>
      <trkpt lat="45.41312" lon="6.01018">
        <ele>260.8</ele>
        <time>2014-10-18T10:58:09Z</time>
      </trkpt>
      <trkpt lat="45.41301" lon="6.01013">
        <ele>260.8</ele>
        <time>2014-10-18T10:58:11Z</time>
      </trkpt>
      <trkpt lat="45.41289" lon="6.01008">
        <ele>260.7</ele>
        <time>2014-10-18T10:58:13Z</time>
      </trkpt>
      <trkpt lat="45.41277" lon="6.01004">
        <ele>260.7</ele>
        <time>2014-10-18T10:58:15Z</time>
      </trkpt>
      <trkpt lat="45.41265" lon="6.00999">
        <ele>260.6</ele>
        <time>2014-10-18T10:58:17Z</time>
      </trkpt>
      <trkpt lat="45.41253" lon="6.00994">
        <ele>260.5</ele>
        <time>2014-10-18T10:58:19Z</time>
      </trkpt>
      <trkpt lat="45.4124" lon="6.00989">
        <ele>260.3</ele>
        <time>2014-10-18T10:58:21Z</time>
      </trkpt>
      <trkpt lat="45.41227" lon="6.00984">
        <ele>260.1</ele>
        <time>2014-10-18T10:58:23Z</time>
      </trkpt>
      <trkpt lat="45.41214" lon="6.00978">
        <ele>259.7</ele>
        <time>2014-10-18T10:58:25Z</time>
      </trkpt>
      <trkpt lat="45.412" lon="6.00973">
        <ele>259.6</ele>
        <time>2014-10-18T10:58:27Z</time>
      </trkpt>
      <trkpt lat="45.41187" lon="6.00968">
        <ele>259.2</ele>
        <time>2014-10-18T10:58:29Z</time>
      </trkpt>
      <trkpt lat="45.41173" lon="6.00963">
        <ele>259</ele>
        <time>2014-10-18T10:58:31Z</time>
      </trkpt>
      <trkpt lat="45.41159" lon="6.00957">
        <ele>258.8</ele>
        <time>2014-10-18T10:58:33Z</time>
      </trkpt>
      <trkpt lat="45.41145" lon="6.00951">
        <ele>258.1</ele>
        <time>2014-10-18T10:58:35Z</time>
      </trkpt>
      <trkpt lat="45.4113" lon="6.00945">
        <ele>257.5</ele>
        <time>2014-10-18T10:58:37Z</time>
      </trkpt>
      <trkpt lat="45.41114" lon="6.00938">
        <ele>256.8</ele>
        <time>2014-10-18T10:58:39Z</time>
      </trkpt>
      <trkpt lat="45.41098" lon="6.00932">
        <ele>256.1</ele>
        <time>2014-10-18T10:58:41Z</time>
      </trkpt>
      <trkpt lat="45.41081" lon="6.00926">
        <ele>255.2</ele>
        <time>2014-10-18T10:58:43Z</time>
      </trkpt>
      <trkpt lat="45.41072" lon="6.00922">
        <ele>254.8</ele>
        <time>2014-10-18T10:58:44Z</time>
      </trkpt>
      <trkpt lat="45.41055" lon="6.00916">
        <ele>253.9</ele>
        <time>2014-10-18T10:58:46Z</time>
      </trkpt>
      <trkpt lat="45.41045" lon="6.00912">
        <ele>253.4</ele>
        <time>2014-10-18T10:58:47Z</time>
      </trkpt>
      <trkpt lat="45.41036" lon="6.00908">
        <ele>252.9</ele>
        <time>2014-10-18T10:58:48Z</time>
      </trkpt>
      <trkpt lat="45.41027" lon="6.00905">
        <ele>252.5</ele>
        <time>2014-10-18T10:58:49Z</time>
      </trkpt>
      <trkpt lat="45.41019" lon="6.00901">
        <ele>252</ele>
        <time>2014-10-18T10:58:50Z</time>
      </trkpt>
      <trkpt lat="45.41002" lon="6.00894">
        <ele>251.3</ele>
        <time>2014-10-18T10:58:52Z</time>
      </trkpt>
      <trkpt lat="45.40985" lon="6.00888">
        <ele>250.9</ele>
        <time>2014-10-18T10:58:54Z</time>
      </trkpt>
      <trkpt lat="45.40969" lon="6.00881">
        <ele>250.6</ele>
        <time>2014-10-18T10:58:56Z</time>
      </trkpt>
      <trkpt lat="45.40954" lon="6.00875">
        <ele>250.5</ele>
        <time>2014-10-18T10:58:58Z</time>
      </trkpt>
      <trkpt lat="45.40939" lon="6.00869">
        <ele>250.2</ele>
        <time>2014-10-18T10:59:00Z</time>
      </trkpt>
      <trkpt lat="45.40925" lon="6.00864">
        <ele>250.2</ele>
        <time>2014-10-18T10:59:02Z</time>
      </trkpt>
      <trkpt lat="45.40911" lon="6.00858">
        <ele>250.2</ele>
        <time>2014-10-18T10:59:04Z</time>
      </trkpt>
      <trkpt lat="45.40899" lon="6.00853">
        <ele>250.4</ele>
        <time>2014-10-18T10:59:06Z</time>
      </trkpt>
      <trkpt lat="45.40886" lon="6.00849">
        <ele>250.4</ele>
        <time>2014-10-18T10:59:08Z</time>
      </trkpt>
      <trkpt lat="45.40874" lon="6.00844">
        <ele>250.2</ele>
        <time>2014-10-18T10:59:10Z</time>
      </trkpt>
      <trkpt lat="45.40862" lon="6.00839">
        <ele>250.1</ele>
        <time>2014-10-18T10:59:12Z</time>
      </trkpt>
      <trkpt lat="45.40849" lon="6.00834">
        <ele>250.1</ele>
        <time>2014-10-18T10:59:14Z</time>
      </trkpt>
      <trkpt lat="45.40837" lon="6.0083">
        <ele>250</ele>
        <time>2014-10-18T10:59:16Z</time>
      </trkpt>
      <trkpt lat="45.40825" lon="6.00825">
        <ele>250.2</ele>
        <time>2014-10-18T10:59:18Z</time>
      </trkpt>
      <trkpt lat="45.40813" lon="6.0082">
        <ele>250</ele>
        <time>2014-10-18T10:59:20Z</time>
      </trkpt>
      <trkpt lat="45.40801" lon="6.00815">
        <ele>250.1</ele>
        <time>2014-10-18T10:59:22Z</time>
      </trkpt>
      <trkpt lat="45.40788" lon="6.0081">
        <ele>250</ele>
        <time>2014-10-18T10:59:24Z</time>
      </trkpt>
      <trkpt lat="45.40776" lon="6.00805">
        <ele>249.8</ele>
        <time>2014-10-18T10:59:26Z</time>
      </trkpt>
      <trkpt lat="45.40764" lon="6.008">
        <ele>249.8</ele>
        <time>2014-10-18T10:59:28Z</time>
      </trkpt>
      <trkpt lat="45.40752" lon="6.00795">
        <ele>249.9</ele>
        <time>2014-10-18T10:59:30Z</time>
      </trkpt>
      <trkpt lat="45.40739" lon="6.00791">
        <ele>249.9</ele>
        <time>2014-10-18T10:59:32Z</time>
      </trkpt>
      <trkpt lat="45.40727" lon="6.00786">
        <ele>250.2</ele>
        <time>2014-10-18T10:59:34Z</time>
      </trkpt>
      <trkpt lat="45.40715" lon="6.0078">
        <ele>249.9</ele>
        <time>2014-10-18T10:59:36Z</time>
      </trkpt>
      <trkpt lat="45.40702" lon="6.00775">
        <ele>249.8</ele>
        <time>2014-10-18T10:59:38Z</time>
      </trkpt>
      <trkpt lat="45.4069" lon="6.00771">
        <ele>249.9</ele>
        <time>2014-10-18T10:59:40Z</time>
      </trkpt>
      <trkpt lat="45.40678" lon="6.00766">
        <ele>249.9</ele>
        <time>2014-10-18T10:59:42Z</time>
      </trkpt>
      <trkpt lat="45.40665" lon="6.00761">
        <ele>249.8</ele>
        <time>2014-10-18T10:59:44Z</time>
      </trkpt>
      <trkpt lat="45.40653" lon="6.00756">
        <ele>249.9</ele>
        <time>2014-10-18T10:59:46Z</time>
      </trkpt>
      <trkpt lat="45.40641" lon="6.00751">
        <ele>249.9</ele>
        <time>2014-10-18T10:59:48Z</time>
      </trkpt>
      <trkpt lat="45.40628" lon="6.00746">
        <ele>249.9</ele>
        <time>2014-10-18T10:59:50Z</time>
      </trkpt>
      <trkpt lat="45.40616" lon="6.00741">
        <ele>250</ele>
        <time>2014-10-18T10:59:52Z</time>
      </trkpt>
      <trkpt lat="45.40604" lon="6.00736">
        <ele>250</ele>
        <time>2014-10-18T10:59:54Z</time>
      </trkpt>
      <trkpt lat="45.40592" lon="6.00731">
        <ele>250.1</ele>
        <time>2014-10-18T10:59:56Z</time>
      </trkpt>
      <trkpt lat="45.4058" lon="6.00727">
        <ele>250.1</ele>
        <time>2014-10-18T10:59:58Z</time>
      </trkpt>
      <trkpt lat="45.40568" lon="6.00721">
        <ele>250</ele>
        <time>2014-10-18T11:00:00Z</time>
      </trkpt>
      <trkpt lat="45.40556" lon="6.00716">
        <ele>250</ele>
        <time>2014-10-18T11:00:02Z</time>
      </trkpt>
      <trkpt lat="45.40543" lon="6.00711">
        <ele>250.1</ele>
        <time>2014-10-18T11:00:04Z</time>
      </trkpt>
      <trkpt lat="45.40531" lon="6.00706">
        <ele>249.8</ele>
        <time>2014-10-18T11:00:06Z</time>
      </trkpt>
      <trkpt lat="45.40518" lon="6.00701">
        <ele>249.9</ele>
        <time>2014-10-18T11:00:08Z</time>
      </trkpt>
      <trkpt lat="45.40505" lon="6.00696">
        <ele>250</ele>
        <time>2014-10-18T11:00:10Z</time>
      </trkpt>
      <trkpt lat="45.40492" lon="6.00691">
        <ele>249.9</ele>
        <time>2014-10-18T11:00:12Z</time>
      </trkpt>
      <trkpt lat="45.40479" lon="6.00685">
        <ele>250.1</ele>
        <time>2014-10-18T11:00:14Z</time>
      </trkpt>
      <trkpt lat="45.40466" lon="6.0068">
        <ele>249.9</ele>
        <time>2014-10-18T11:00:16Z</time>
      </trkpt>
      <trkpt lat="45.40453" lon="6.00675">
        <ele>250.1</ele>
        <time>2014-10-18T11:00:18Z</time>
      </trkpt>
      <trkpt lat="45.4044" lon="6.0067">
        <ele>249.9</ele>
        <time>2014-10-18T11:00:20Z</time>
      </trkpt>
      <trkpt lat="45.40428" lon="6.00665">
        <ele>250.1</ele>
        <time>2014-10-18T11:00:22Z</time>
      </trkpt>
      <trkpt lat="45.40415" lon="6.0066">
        <ele>250.1</ele>
        <time>2014-10-18T11:00:24Z</time>
      </trkpt>
      <trkpt lat="45.40403" lon="6.00655">
        <ele>250.1</ele>
        <time>2014-10-18T11:00:26Z</time>
      </trkpt>
      <trkpt lat="45.4039" lon="6.0065">
        <ele>250.2</ele>
        <time>2014-10-18T11:00:28Z</time>
      </trkpt>
      <trkpt lat="45.40378" lon="6.00646">
        <ele>250.3</ele>
        <time>2014-10-18T11:00:30Z</time>
      </trkpt>
      <trkpt lat="45.40365" lon="6.00641">
        <ele>250.3</ele>
        <time>2014-10-18T11:00:32Z</time>
      </trkpt>
      <trkpt lat="45.40353" lon="6.00636">
        <ele>250.4</ele>
        <time>2014-10-18T11:00:34Z</time>
      </trkpt>
      <trkpt lat="45.40341" lon="6.00632">
        <ele>250.6</ele>
        <time>2014-10-18T11:00:36Z</time>
      </trkpt>
      <trkpt lat="45.40329" lon="6.00627">
        <ele>250.6</ele>
        <time>2014-10-18T11:00:38Z</time>
      </trkpt>
      <trkpt lat="45.40318" lon="6.00623">
        <ele>250.9</ele>
        <time>2014-10-18T11:00:40Z</time>
      </trkpt>
      <trkpt lat="45.40306" lon="6.00618">
        <ele>250.8</ele>
        <time>2014-10-18T11:00:42Z</time>
      </trkpt>
      <trkpt lat="45.40294" lon="6.00613">
        <ele>251.1</ele>
        <time>2014-10-18T11:00:44Z</time>
      </trkpt>
      <trkpt lat="45.40283" lon="6.00608">
        <ele>251.2</ele>
        <time>2014-10-18T11:00:46Z</time>
      </trkpt>
      <trkpt lat="45.40271" lon="6.00604">
        <ele>251.3</ele>
        <time>2014-10-18T11:00:48Z</time>
      </trkpt>
      <trkpt lat="45.40259" lon="6.00599">
        <ele>251.6</ele>
        <time>2014-10-18T11:00:50Z</time>
      </trkpt>
      <trkpt lat="45.40247" lon="6.00594">
        <ele>251.6</ele>
        <time>2014-10-18T11:00:52Z</time>
      </trkpt>
      <trkpt lat="45.40235" lon="6.00589">
        <ele>251.7</ele>
        <time>2014-10-18T11:00:54Z</time>
      </trkpt>
      <trkpt lat="45.40222" lon="6.00584">
        <ele>251.5</ele>
        <time>2014-10-18T11:00:56Z</time>
      </trkpt>
      <trkpt lat="45.4021" lon="6.00579">
        <ele>251.4</ele>
        <time>2014-10-18T11:00:58Z</time>
      </trkpt>
      <trkpt lat="45.40197" lon="6.00574">
        <ele>251.3</ele>
        <time>2014-10-18T11:01:00Z</time>
      </trkpt>
      <trkpt lat="45.40185" lon="6.00569">
        <ele>251.3</ele>
        <time>2014-10-18T11:01:02Z</time>
      </trkpt>
      <trkpt lat="45.40172" lon="6.00563">
        <ele>251.2</ele>
        <time>2014-10-18T11:01:04Z</time>
      </trkpt>
      <trkpt lat="45.40158" lon="6.00558">
        <ele>250.8</ele>
        <time>2014-10-18T11:01:06Z</time>
      </trkpt>
      <trkpt lat="45.40145" lon="6.00553">
        <ele>250.7</ele>
        <time>2014-10-18T11:01:08Z</time>
      </trkpt>
      <trkpt lat="45.40132" lon="6.00548">
        <ele>250.7</ele>
        <time>2014-10-18T11:01:10Z</time>
      </trkpt>
      <trkpt lat="45.40118" lon="6.00543">
        <ele>250.4</ele>
        <time>2014-10-18T11:01:12Z</time>
      </trkpt>
      <trkpt lat="45.40105" lon="6.00539">
        <ele>250.2</ele>
        <time>2014-10-18T11:01:14Z</time>
      </trkpt>
      <trkpt lat="45.40091" lon="6.00534">
        <ele>250.1</ele>
        <time>2014-10-18T11:01:16Z</time>
      </trkpt>
      <trkpt lat="45.40078" lon="6.0053">
        <ele>249.9</ele>
        <time>2014-10-18T11:01:18Z</time>
      </trkpt>
      <trkpt lat="45.40065" lon="6.00526">
        <ele>249.8</ele>
        <time>2014-10-18T11:01:20Z</time>
      </trkpt>
      <trkpt lat="45.40052" lon="6.00523">
        <ele>249.7</ele>
        <time>2014-10-18T11:01:22Z</time>
      </trkpt>
      <trkpt lat="45.40039" lon="6.0052">
        <ele>249.9</ele>
        <time>2014-10-18T11:01:24Z</time>
      </trkpt>
      <trkpt lat="45.40026" lon="6.00516">
        <ele>249.6</ele>
        <time>2014-10-18T11:01:26Z</time>
      </trkpt>
      <trkpt lat="45.40013" lon="6.00512">
        <ele>249.4</ele>
        <time>2014-10-18T11:01:28Z</time>
      </trkpt>
      <trkpt lat="45.4" lon="6.00509">
        <ele>249.5</ele>
        <time>2014-10-18T11:01:30Z</time>
      </trkpt>
      <trkpt lat="45.39988" lon="6.00506">
        <ele>249.2</ele>
        <time>2014-10-18T11:01:32Z</time>
      </trkpt>
      <trkpt lat="45.39976" lon="6.00503">
        <ele>249.2</ele>
        <time>2014-10-18T11:01:34Z</time>
      </trkpt>
      <trkpt lat="45.39964" lon="6.00499">
        <ele>249.1</ele>
        <time>2014-10-18T11:01:36Z</time>
      </trkpt>
      <trkpt lat="45.39952" lon="6.00496">
        <ele>249.2</ele>
        <time>2014-10-18T11:01:38Z</time>
      </trkpt>
      <trkpt lat="45.3994" lon="6.00493">
        <ele>249.1</ele>
        <time>2014-10-18T11:01:40Z</time>
      </trkpt>
      <trkpt lat="45.39929" lon="6.0049">
        <ele>248.9</ele>
        <time>2014-10-18T11:01:42Z</time>
      </trkpt>
      <trkpt lat="45.39918" lon="6.00486">
        <ele>249</ele>
        <time>2014-10-18T11:01:44Z</time>
      </trkpt>
      <trkpt lat="45.39906" lon="6.00481">
        <ele>249</ele>
        <time>2014-10-18T11:01:46Z</time>
      </trkpt>
      <trkpt lat="45.39894" lon="6.00478">
        <ele>249.1</ele>
        <time>2014-10-18T11:01:48Z</time>
      </trkpt>
      <trkpt lat="45.39882" lon="6.00477">
        <ele>249.1</ele>
        <time>2014-10-18T11:01:50Z</time>
      </trkpt>
      <trkpt lat="45.39871" lon="6.00476">
        <ele>248.9</ele>
        <time>2014-10-18T11:01:52Z</time>
      </trkpt>
      <trkpt lat="45.39859" lon="6.00473">
        <ele>248.8</ele>
        <time>2014-10-18T11:01:54Z</time>
      </trkpt>
      <trkpt lat="45.39848" lon="6.0047">
        <ele>248.9</ele>
        <time>2014-10-18T11:01:56Z</time>
      </trkpt>
      <trkpt lat="45.39837" lon="6.00467">
        <ele>248.8</ele>
        <time>2014-10-18T11:01:58Z</time>
      </trkpt>
      <trkpt lat="45.39825" lon="6.00465">
        <ele>249</ele>
        <time>2014-10-18T11:02:00Z</time>
      </trkpt>
      <trkpt lat="45.39814" lon="6.00462">
        <ele>249</ele>
        <time>2014-10-18T11:02:02Z</time>
      </trkpt>
      <trkpt lat="45.39802" lon="6.00459">
        <ele>249</ele>
        <time>2014-10-18T11:02:04Z</time>
      </trkpt>
      <trkpt lat="45.39791" lon="6.00456">
        <ele>249</ele>
        <time>2014-10-18T11:02:06Z</time>
      </trkpt>
      <trkpt lat="45.3978" lon="6.00453">
        <ele>248.8</ele>
        <time>2014-10-18T11:02:08Z</time>
      </trkpt>
      <trkpt lat="45.39769" lon="6.0045">
        <ele>248.9</ele>
        <time>2014-10-18T11:02:10Z</time>
      </trkpt>
      <trkpt lat="45.39757" lon="6.00447">
        <ele>248.7</ele>
        <time>2014-10-18T11:02:12Z</time>
      </trkpt>
      <trkpt lat="45.39746" lon="6.00444">
        <ele>248.8</ele>
        <time>2014-10-18T11:02:14Z</time>
      </trkpt>
      <trkpt lat="45.39735" lon="6.00441">
        <ele>248.8</ele>
        <time>2014-10-18T11:02:16Z</time>
      </trkpt>
      <trkpt lat="45.39723" lon="6.00438">
        <ele>249</ele>
        <time>2014-10-18T11:02:18Z</time>
      </trkpt>
      <trkpt lat="45.39712" lon="6.00435">
        <ele>248.9</ele>
        <time>2014-10-18T11:02:20Z</time>
      </trkpt>
      <trkpt lat="45.39701" lon="6.00431">
        <ele>248.8</ele>
        <time>2014-10-18T11:02:22Z</time>
      </trkpt>
      <trkpt lat="45.3969" lon="6.00427">
        <ele>248.8</ele>
        <time>2014-10-18T11:02:24Z</time>
      </trkpt>
      <trkpt lat="45.39679" lon="6.00422">
        <ele>248.7</ele>
        <time>2014-10-18T11:02:26Z</time>
      </trkpt>
      <trkpt lat="45.39668" lon="6.00416">
        <ele>248.7</ele>
        <time>2014-10-18T11:02:28Z</time>
      </trkpt>
      <trkpt lat="45.39656" lon="6.00411">
        <ele>248.6</ele>
        <time>2014-10-18T11:02:30Z</time>
      </trkpt>
      <trkpt lat="45.39645" lon="6.00405">
        <ele>248.6</ele>
        <time>2014-10-18T11:02:32Z</time>
      </trkpt>
      <trkpt lat="45.39634" lon="6.00399">
        <ele>248.6</ele>
        <time>2014-10-18T11:02:34Z</time>
      </trkpt>
      <trkpt lat="45.39624" lon="6.00393">
        <ele>248.6</ele>
        <time>2014-10-18T11:02:36Z</time>
      </trkpt>
      <trkpt lat="45.39613" lon="6.00388">
        <ele>248.5</ele>
        <time>2014-10-18T11:02:38Z</time>
      </trkpt>
      <trkpt lat="45.39602" lon="6.00382">
        <ele>248.4</ele>
        <time>2014-10-18T11:02:40Z</time>
      </trkpt>
      <trkpt lat="45.39592" lon="6.00376">
        <ele>248.3</ele>
        <time>2014-10-18T11:02:42Z</time>
      </trkpt>
      <trkpt lat="45.39581" lon="6.0037">
        <ele>248.2</ele>
        <time>2014-10-18T11:02:44Z</time>
      </trkpt>
      <trkpt lat="45.39571" lon="6.00364">
        <ele>248.5</ele>
        <time>2014-10-18T11:02:46Z</time>
      </trkpt>
      <trkpt lat="45.3956" lon="6.00359">
        <ele>248.3</ele>
        <time>2014-10-18T11:02:48Z</time>
      </trkpt>
      <trkpt lat="45.3955" lon="6.00353">
        <ele>248.5</ele>
        <time>2014-10-18T11:02:50Z</time>
      </trkpt>
      <trkpt lat="45.3954" lon="6.00347">
        <ele>248.5</ele>
        <time>2014-10-18T11:02:52Z</time>
      </trkpt>
      <trkpt lat="45.3953" lon="6.00342">
        <ele>248.5</ele>
        <time>2014-10-18T11:02:54Z</time>
      </trkpt>
      <trkpt lat="45.39519" lon="6.00337">
        <ele>248.4</ele>
        <time>2014-10-18T11:02:56Z</time>
      </trkpt>
      <trkpt lat="45.39509" lon="6.0033">
        <ele>248.5</ele>
        <time>2014-10-18T11:02:58Z</time>
      </trkpt>
      <trkpt lat="45.395" lon="6.00322">
        <ele>248.4</ele>
        <time>2014-10-18T11:03:00Z</time>
      </trkpt>
      <trkpt lat="45.39489" lon="6.00316">
        <ele>248.4</ele>
        <time>2014-10-18T11:03:02Z</time>
      </trkpt>
      <trkpt lat="45.39479" lon="6.0031">
        <ele>248.7</ele>
        <time>2014-10-18T11:03:04Z</time>
      </trkpt>
      <trkpt lat="45.39469" lon="6.00304">
        <ele>248.5</ele>
        <time>2014-10-18T11:03:06Z</time>
      </trkpt>
      <trkpt lat="45.3946" lon="6.00297">
        <ele>248.6</ele>
        <time>2014-10-18T11:03:08Z</time>
      </trkpt>
      <trkpt lat="45.39449" lon="6.00292">
        <ele>248.4</ele>
        <time>2014-10-18T11:03:10Z</time>
      </trkpt>
      <trkpt lat="45.39439" lon="6.00285">
        <ele>248.5</ele>
        <time>2014-10-18T11:03:12Z</time>
      </trkpt>
      <trkpt lat="45.3943" lon="6.00277">
        <ele>248.7</ele>
        <time>2014-10-18T11:03:14Z</time>
      </trkpt>
      <trkpt lat="45.39421" lon="6.00271">
        <ele>248.5</ele>
        <time>2014-10-18T11:03:16Z</time>
      </trkpt>
      <trkpt lat="45.39411" lon="6.00266">
        <ele>248.6</ele>
        <time>2014-10-18T11:03:18Z</time>
      </trkpt>
      <trkpt lat="45.39401" lon="6.00263">
        <ele>248.5</ele>
        <time>2014-10-18T11:03:20Z</time>
      </trkpt>
      <trkpt lat="45.39391" lon="6.00261">
        <ele>248.6</ele>
        <time>2014-10-18T11:03:22Z</time>
      </trkpt>
      <trkpt lat="45.39381" lon="6.00259">
        <ele>248.6</ele>
        <time>2014-10-18T11:03:24Z</time>
      </trkpt>
      <trkpt lat="45.39371" lon="6.00257">
        <ele>248.6</ele>
        <time>2014-10-18T11:03:26Z</time>
      </trkpt>
      <trkpt lat="45.3936" lon="6.00252">
        <ele>248.6</ele>
        <time>2014-10-18T11:03:28Z</time>
      </trkpt>
      <trkpt lat="45.3935" lon="6.00246">
        <ele>248.3</ele>
        <time>2014-10-18T11:03:30Z</time>
      </trkpt>
      <trkpt lat="45.39339" lon="6.00241">
        <ele>248.3</ele>
        <time>2014-10-18T11:03:32Z</time>
      </trkpt>
      <trkpt lat="45.39328" lon="6.00235">
        <ele>248.2</ele>
        <time>2014-10-18T11:03:34Z</time>
      </trkpt>
      <trkpt lat="45.39318" lon="6.00229">
        <ele>248.2</ele>
        <time>2014-10-18T11:03:36Z</time>
      </trkpt>
      <trkpt lat="45.39307" lon="6.00223">
        <ele>248.2</ele>
        <time>2014-10-18T11:03:38Z</time>
      </trkpt>
      <trkpt lat="45.39296" lon="6.00217">
        <ele>248.2</ele>
        <time>2014-10-18T11:03:40Z</time>
      </trkpt>
      <trkpt lat="45.39285" lon="6.00212">
        <ele>248.2</ele>
        <time>2014-10-18T11:03:42Z</time>
      </trkpt>
      <trkpt lat="45.39275" lon="6.00206">
        <ele>248.1</ele>
        <time>2014-10-18T11:03:44Z</time>
      </trkpt>
      <trkpt lat="45.39264" lon="6.002">
        <ele>247.8</ele>
        <time>2014-10-18T11:03:46Z</time>
      </trkpt>
      <trkpt lat="45.39254" lon="6.00195">
        <ele>247.8</ele>
        <time>2014-10-18T11:03:48Z</time>
      </trkpt>
      <trkpt lat="45.39243" lon="6.00189">
        <ele>247.8</ele>
        <time>2014-10-18T11:03:50Z</time>
      </trkpt>
      <trkpt lat="45.39233" lon="6.00183">
        <ele>247.9</ele>
        <time>2014-10-18T11:03:52Z</time>
      </trkpt>
      <trkpt lat="45.39223" lon="6.00176">
        <ele>247.8</ele>
        <time>2014-10-18T11:03:54Z</time>
      </trkpt>
      <trkpt lat="45.39213" lon="6.00169">
        <ele>247.8</ele>
        <time>2014-10-18T11:03:56Z</time>
      </trkpt>
      <trkpt lat="45.39202" lon="6.00164">
        <ele>247.7</ele>
        <time>2014-10-18T11:03:58Z</time>
      </trkpt>
      <trkpt lat="45.39192" lon="6.00159">
        <ele>247.7</ele>
        <time>2014-10-18T11:04:00Z</time>
      </trkpt>
      <trkpt lat="45.39182" lon="6.00154">
        <ele>247.7</ele>
        <time>2014-10-18T11:04:02Z</time>
      </trkpt>
      <trkpt lat="45.39171" lon="6.00148">
        <ele>247.9</ele>
        <time>2014-10-18T11:04:04Z</time>
      </trkpt>
      <trkpt lat="45.39161" lon="6.00142">
        <ele>248.1</ele>
        <time>2014-10-18T11:04:06Z</time>
      </trkpt>
      <trkpt lat="45.39151" lon="6.00137">
        <ele>248</ele>
        <time>2014-10-18T11:04:08Z</time>
      </trkpt>
      <trkpt lat="45.3914" lon="6.00131">
        <ele>247.8</ele>
        <time>2014-10-18T11:04:10Z</time>
      </trkpt>
      <trkpt lat="45.3913" lon="6.00125">
        <ele>247.7</ele>
        <time>2014-10-18T11:04:12Z</time>
      </trkpt>
      <trkpt lat="45.39119" lon="6.00119">
        <ele>247.6</ele>
        <time>2014-10-18T11:04:14Z</time>
      </trkpt>
      <trkpt lat="45.39109" lon="6.00113">
        <ele>247.4</ele>
        <time>2014-10-18T11:04:16Z</time>
      </trkpt>
      <trkpt lat="45.39099" lon="6.00108">
        <ele>247.4</ele>
        <time>2014-10-18T11:04:18Z</time>
      </trkpt>
      <trkpt lat="45.39088" lon="6.00102">
        <ele>247.6</ele>
        <time>2014-10-18T11:04:20Z</time>
      </trkpt>
      <trkpt lat="45.39078" lon="6.00097">
        <ele>247.7</ele>
        <time>2014-10-18T11:04:22Z</time>
      </trkpt>
      <trkpt lat="45.39067" lon="6.00092">
        <ele>247.7</ele>
        <time>2014-10-18T11:04:24Z</time>
      </trkpt>
      <trkpt lat="45.39057" lon="6.00086">
        <ele>247.8</ele>
        <time>2014-10-18T11:04:26Z</time>
      </trkpt>
      <trkpt lat="45.39046" lon="6.00081">
        <ele>247.8</ele>
        <time>2014-10-18T11:04:28Z</time>
      </trkpt>
      <trkpt lat="45.39035" lon="6.00075">
        <ele>247.8</ele>
        <time>2014-10-18T11:04:30Z</time>
      </trkpt>
      <trkpt lat="45.39025" lon="6.00069">
        <ele>247.6</ele>
        <time>2014-10-18T11:04:32Z</time>
      </trkpt>
      <trkpt lat="45.39014" lon="6.00063">
        <ele>247.5</ele>
        <time>2014-10-18T11:04:34Z</time>
      </trkpt>
      <trkpt lat="45.39003" lon="6.00056">
        <ele>247.7</ele>
        <time>2014-10-18T11:04:36Z</time>
      </trkpt>
      <trkpt lat="45.38992" lon="6.0005">
        <ele>247.6</ele>
        <time>2014-10-18T11:04:38Z</time>
      </trkpt>
      <trkpt lat="45.38981" lon="6.00045">
        <ele>247.4</ele>
        <time>2014-10-18T11:04:40Z</time>
      </trkpt>
      <trkpt lat="45.3897" lon="6.00039">
        <ele>247.2</ele>
        <time>2014-10-18T11:04:42Z</time>
      </trkpt>
      <trkpt lat="45.3896" lon="6.00034">
        <ele>247.1</ele>
        <time>2014-10-18T11:04:44Z</time>
      </trkpt>
      <trkpt lat="45.38949" lon="6.00029">
        <ele>247.2</ele>
        <time>2014-10-18T11:04:46Z</time>
      </trkpt>
      <trkpt lat="45.38938" lon="6.00023">
        <ele>247.4</ele>
        <time>2014-10-18T11:04:48Z</time>
      </trkpt>
      <trkpt lat="45.38928" lon="6.00018">
        <ele>247.5</ele>
        <time>2014-10-18T11:04:50Z</time>
      </trkpt>
      <trkpt lat="45.38918" lon="6.00011">
        <ele>247.4</ele>
        <time>2014-10-18T11:04:52Z</time>
      </trkpt>
      <trkpt lat="45.38907" lon="6.00005">
        <ele>247.5</ele>
        <time>2014-10-18T11:04:54Z</time>
      </trkpt>
      <trkpt lat="45.38896" lon="5.99999">
        <ele>247.5</ele>
        <time>2014-10-18T11:04:56Z</time>
      </trkpt>
      <trkpt lat="45.38886" lon="5.99994">
        <ele>247.4</ele>
        <time>2014-10-18T11:04:58Z</time>
      </trkpt>
      <trkpt lat="45.38875" lon="5.99988">
        <ele>247.4</ele>
        <time>2014-10-18T11:05:00Z</time>
      </trkpt>
      <trkpt lat="45.38864" lon="5.99982">
        <ele>247.8</ele>
        <time>2014-10-18T11:05:02Z</time>
      </trkpt>
      <trkpt lat="45.38853" lon="5.99977">
        <ele>247.6</ele>
        <time>2014-10-18T11:05:04Z</time>
      </trkpt>
      <trkpt lat="45.38842" lon="5.99971">
        <ele>247.6</ele>
        <time>2014-10-18T11:05:06Z</time>
      </trkpt>
      <trkpt lat="45.38831" lon="5.99965">
        <ele>247.7</ele>
        <time>2014-10-18T11:05:08Z</time>
      </trkpt>
      <trkpt lat="45.3882" lon="5.9996">
        <ele>247.7</ele>
        <time>2014-10-18T11:05:10Z</time>
      </trkpt>
      <trkpt lat="45.3881" lon="5.99954">
        <ele>247.6</ele>
        <time>2014-10-18T11:05:12Z</time>
      </trkpt>
      <trkpt lat="45.38799" lon="5.99948">
        <ele>247.5</ele>
        <time>2014-10-18T11:05:14Z</time>
      </trkpt>
      <trkpt lat="45.38789" lon="5.99942">
        <ele>247.6</ele>
        <time>2014-10-18T11:05:16Z</time>
      </trkpt>
      <trkpt lat="45.38779" lon="5.99936">
        <ele>247.7</ele>
        <time>2014-10-18T11:05:18Z</time>
      </trkpt>
      <trkpt lat="45.38769" lon="5.9993">
        <ele>247.6</ele>
        <time>2014-10-18T11:05:20Z</time>
      </trkpt>
      <trkpt lat="45.3876" lon="5.99923">
        <ele>247.7</ele>
        <time>2014-10-18T11:05:22Z</time>
      </trkpt>
      <trkpt lat="45.38751" lon="5.99915">
        <ele>247.7</ele>
        <time>2014-10-18T11:05:24Z</time>
      </trkpt>
      <trkpt lat="45.3874" lon="5.99911">
        <ele>247.7</ele>
        <time>2014-10-18T11:05:26Z</time>
      </trkpt>
      <trkpt lat="45.38729" lon="5.9991">
        <ele>247.7</ele>
        <time>2014-10-18T11:05:28Z</time>
      </trkpt>
      <trkpt lat="45.38717" lon="5.99907">
        <ele>247.7</ele>
        <time>2014-10-18T11:05:30Z</time>
      </trkpt>
      <trkpt lat="45.38707" lon="5.999">
        <ele>247.6</ele>
        <time>2014-10-18T11:05:32Z</time>
      </trkpt>
      <trkpt lat="45.38696" lon="5.99893">
        <ele>247.5</ele>
        <time>2014-10-18T11:05:34Z</time>
      </trkpt>
      <trkpt lat="45.38685" lon="5.99887">
        <ele>247.4</ele>
        <time>2014-10-18T11:05:36Z</time>
      </trkpt>
      <trkpt lat="45.38674" lon="5.99882">
        <ele>247.5</ele>
        <time>2014-10-18T11:05:38Z</time>
      </trkpt>
      <trkpt lat="45.38663" lon="5.99875">
        <ele>247.7</ele>
        <time>2014-10-18T11:05:40Z</time>
      </trkpt>
      <trkpt lat="45.38653" lon="5.99867">
        <ele>247.8</ele>
        <time>2014-10-18T11:05:42Z</time>
      </trkpt>
      <trkpt lat="45.38642" lon="5.99862">
        <ele>247.8</ele>
        <time>2014-10-18T11:05:44Z</time>
      </trkpt>
      <trkpt lat="45.38631" lon="5.99856">
        <ele>248.1</ele>
        <time>2014-10-18T11:05:46Z</time>
      </trkpt>
      <trkpt lat="45.38621" lon="5.9985">
        <ele>248.1</ele>
        <time>2014-10-18T11:05:48Z</time>
      </trkpt>
      <trkpt lat="45.3861" lon="5.99844">
        <ele>247.9</ele>
        <time>2014-10-18T11:05:50Z</time>
      </trkpt>
      <trkpt lat="45.386" lon="5.99838">
        <ele>247.8</ele>
        <time>2014-10-18T11:05:52Z</time>
      </trkpt>
      <trkpt lat="45.38591" lon="5.99829">
        <ele>247.7</ele>
        <time>2014-10-18T11:05:54Z</time>
      </trkpt>
      <trkpt lat="45.3858" lon="5.99823">
        <ele>247.8</ele>
        <time>2014-10-18T11:05:56Z</time>
      </trkpt>
      <trkpt lat="45.3857" lon="5.99819">
        <ele>248</ele>
        <time>2014-10-18T11:05:58Z</time>
      </trkpt>
      <trkpt lat="45.38558" lon="5.99814">
        <ele>247.9</ele>
        <time>2014-10-18T11:06:00Z</time>
      </trkpt>
      <trkpt lat="45.38547" lon="5.99809">
        <ele>247.7</ele>
        <time>2014-10-18T11:06:02Z</time>
      </trkpt>
      <trkpt lat="45.38536" lon="5.99803">
        <ele>247.5</ele>
        <time>2014-10-18T11:06:04Z</time>
      </trkpt>
      <trkpt lat="45.38526" lon="5.99797">
        <ele>247.2</ele>
        <time>2014-10-18T11:06:06Z</time>
      </trkpt>
      <trkpt lat="45.38515" lon="5.99791">
        <ele>247</ele>
        <time>2014-10-18T11:06:08Z</time>
      </trkpt>
      <trkpt lat="45.38503" lon="5.99785">
        <ele>247.1</ele>
        <time>2014-10-18T11:06:10Z</time>
      </trkpt>
      <trkpt lat="45.38492" lon="5.99778">
        <ele>247.1</ele>
        <time>2014-10-18T11:06:12Z</time>
      </trkpt>
      <trkpt lat="45.3848" lon="5.99771">
        <ele>247</ele>
        <time>2014-10-18T11:06:14Z</time>
      </trkpt>
      <trkpt lat="45.38469" lon="5.99763">
        <ele>247</ele>
        <time>2014-10-18T11:06:16Z</time>
      </trkpt>
      <trkpt lat="45.38457" lon="5.99756">
        <ele>247</ele>
        <time>2014-10-18T11:06:18Z</time>
      </trkpt>
      <trkpt lat="45.38446" lon="5.9975">
        <ele>247</ele>
        <time>2014-10-18T11:06:20Z</time>
      </trkpt>
      <trkpt lat="45.38434" lon="5.99743">
        <ele>247</ele>
        <time>2014-10-18T11:06:22Z</time>
      </trkpt>
      <trkpt lat="45.38422" lon="5.99737">
        <ele>247.1</ele>
        <time>2014-10-18T11:06:24Z</time>
      </trkpt>
      <trkpt lat="45.38411" lon="5.99731">
        <ele>247</ele>
        <time>2014-10-18T11:06:26Z</time>
      </trkpt>
      <trkpt lat="45.38399" lon="5.99724">
        <ele>247</ele>
        <time>2014-10-18T11:06:28Z</time>
      </trkpt>
      <trkpt lat="45.38386" lon="5.99718">
        <ele>247.1</ele>
        <time>2014-10-18T11:06:30Z</time>
      </trkpt>
      <trkpt lat="45.38375" lon="5.99712">
        <ele>247.2</ele>
        <time>2014-10-18T11:06:32Z</time>
      </trkpt>
      <trkpt lat="45.38363" lon="5.99705">
        <ele>247.1</ele>
        <time>2014-10-18T11:06:34Z</time>
      </trkpt>
      <trkpt lat="45.38351" lon="5.99699">
        <ele>247</ele>
        <time>2014-10-18T11:06:36Z</time>
      </trkpt>
      <trkpt lat="45.38339" lon="5.99693">
        <ele>247</ele>
        <time>2014-10-18T11:06:38Z</time>
      </trkpt>
      <trkpt lat="45.38327" lon="5.99687">
        <ele>247.1</ele>
        <time>2014-10-18T11:06:40Z</time>
      </trkpt>
      <trkpt lat="45.38314" lon="5.9968">
        <ele>246.9</ele>
        <time>2014-10-18T11:06:42Z</time>
      </trkpt>
      <trkpt lat="45.38302" lon="5.99673">
        <ele>247.1</ele>
        <time>2014-10-18T11:06:44Z</time>
      </trkpt>
      <trkpt lat="45.3829" lon="5.99667">
        <ele>247</ele>
        <time>2014-10-18T11:06:46Z</time>
      </trkpt>
      <trkpt lat="45.38278" lon="5.99661">
        <ele>247</ele>
        <time>2014-10-18T11:06:48Z</time>
      </trkpt>
      <trkpt lat="45.38265" lon="5.99654">
        <ele>247</ele>
        <time>2014-10-18T11:06:50Z</time>
      </trkpt>
      <trkpt lat="45.38252" lon="5.99649">
        <ele>247.1</ele>
        <time>2014-10-18T11:06:52Z</time>
      </trkpt>
      <trkpt lat="45.3824" lon="5.99642">
        <ele>247.1</ele>
        <time>2014-10-18T11:06:54Z</time>
      </trkpt>
      <trkpt lat="45.38227" lon="5.99636">
        <ele>247.1</ele>
        <time>2014-10-18T11:06:56Z</time>
      </trkpt>
      <trkpt lat="45.38214" lon="5.9963">
        <ele>246.9</ele>
        <time>2014-10-18T11:06:58Z</time>
      </trkpt>
      <trkpt lat="45.38202" lon="5.99623">
        <ele>247.1</ele>
        <time>2014-10-18T11:07:00Z</time>
      </trkpt>
      <trkpt lat="45.3819" lon="5.99616">
        <ele>247</ele>
        <time>2014-10-18T11:07:02Z</time>
      </trkpt>
      <trkpt lat="45.38178" lon="5.9961">
        <ele>247.2</ele>
        <time>2014-10-18T11:07:04Z</time>
      </trkpt>
      <trkpt lat="45.38166" lon="5.99604">
        <ele>247.1</ele>
        <time>2014-10-18T11:07:06Z</time>
      </trkpt>
      <trkpt lat="45.38156" lon="5.99598">
        <ele>247.3</ele>
        <time>2014-10-18T11:07:08Z</time>
      </trkpt>
      <trkpt lat="45.38145" lon="5.99593">
        <ele>248.3</ele>
        <time>2014-10-18T11:07:10Z</time>
      </trkpt>
      <trkpt lat="45.38134" lon="5.99588">
        <ele>247.9</ele>
        <time>2014-10-18T11:07:12Z</time>
      </trkpt>
      <trkpt lat="45.38124" lon="5.99581">
        <ele>247.6</ele>
        <time>2014-10-18T11:07:14Z</time>
      </trkpt>
      <trkpt lat="45.38114" lon="5.99574">
        <ele>247.4</ele>
        <time>2014-10-18T11:07:16Z</time>
      </trkpt>
      <trkpt lat="45.38102" lon="5.99566">
        <ele>247.1</ele>
        <time>2014-10-18T11:07:18Z</time>
      </trkpt>
      <trkpt lat="45.3809" lon="5.99559">
        <ele>246.8</ele>
        <time>2014-10-18T11:07:20Z</time>
      </trkpt>
      <trkpt lat="45.38078" lon="5.99553">
        <ele>246.6</ele>
        <time>2014-10-18T11:07:22Z</time>
      </trkpt>
      <trkpt lat="45.38067" lon="5.99547">
        <ele>246.4</ele>
        <time>2014-10-18T11:07:24Z</time>
      </trkpt>
      <trkpt lat="45.38054" lon="5.99541">
        <ele>246.5</ele>
        <time>2014-10-18T11:07:26Z</time>
      </trkpt>
      <trkpt lat="45.38042" lon="5.99534">
        <ele>246.4</ele>
        <time>2014-10-18T11:07:28Z</time>
      </trkpt>
      <trkpt lat="45.3803" lon="5.99528">
        <ele>246.3</ele>
        <time>2014-10-18T11:07:30Z</time>
      </trkpt>
      <trkpt lat="45.38018" lon="5.99522">
        <ele>246.5</ele>
        <time>2014-10-18T11:07:32Z</time>
      </trkpt>
      <trkpt lat="45.38005" lon="5.99517">
        <ele>246.5</ele>
        <time>2014-10-18T11:07:34Z</time>
      </trkpt>
      <trkpt lat="45.37993" lon="5.99511">
        <ele>246.5</ele>
        <time>2014-10-18T11:07:36Z</time>
      </trkpt>
      <trkpt lat="45.37981" lon="5.99504">
        <ele>246.1</ele>
        <time>2014-10-18T11:07:38Z</time>
      </trkpt>
      <trkpt lat="45.37968" lon="5.99497">
        <ele>246.3</ele>
        <time>2014-10-18T11:07:40Z</time>
      </trkpt>
      <trkpt lat="45.37956" lon="5.99491">
        <ele>246.3</ele>
        <time>2014-10-18T11:07:42Z</time>
      </trkpt>
      <trkpt lat="45.37943" lon="5.99484">
        <ele>246.3</ele>
        <time>2014-10-18T11:07:44Z</time>
      </trkpt>
      <trkpt lat="45.37931" lon="5.99477">
        <ele>246.2</ele>
        <time>2014-10-18T11:07:46Z</time>
      </trkpt>
      <trkpt lat="45.37918" lon="5.9947">
        <ele>246.1</ele>
        <time>2014-10-18T11:07:48Z</time>
      </trkpt>
      <trkpt lat="45.37905" lon="5.99463">
        <ele>246.3</ele>
        <time>2014-10-18T11:07:50Z</time>
      </trkpt>
      <trkpt lat="45.37892" lon="5.99456">
        <ele>246.4</ele>
        <time>2014-10-18T11:07:52Z</time>
      </trkpt>
      <trkpt lat="45.37879" lon="5.9945">
        <ele>246.4</ele>
        <time>2014-10-18T11:07:54Z</time>
      </trkpt>
      <trkpt lat="45.37867" lon="5.99443">
        <ele>246.6</ele>
        <time>2014-10-18T11:07:56Z</time>
      </trkpt>
      <trkpt lat="45.37854" lon="5.99437">
        <ele>246.4</ele>
        <time>2014-10-18T11:07:58Z</time>
      </trkpt>
      <trkpt lat="45.37842" lon="5.9943">
        <ele>246.2</ele>
        <time>2014-10-18T11:08:00Z</time>
      </trkpt>
      <trkpt lat="45.3783" lon="5.99423">
        <ele>246.2</ele>
        <time>2014-10-18T11:08:02Z</time>
      </trkpt>
      <trkpt lat="45.37819" lon="5.99414">
        <ele>246.1</ele>
        <time>2014-10-18T11:08:04Z</time>
      </trkpt>
      <trkpt lat="45.3781" lon="5.99404">
        <ele>246.2</ele>
        <time>2014-10-18T11:08:06Z</time>
      </trkpt>
      <trkpt lat="45.37805" lon="5.9939">
        <ele>246.2</ele>
        <time>2014-10-18T11:08:08Z</time>
      </trkpt>
      <trkpt lat="45.37799" lon="5.99377">
        <ele>246.5</ele>
        <time>2014-10-18T11:08:10Z</time>
      </trkpt>
      <trkpt lat="45.37789" lon="5.99371">
        <ele>246.6</ele>
        <time>2014-10-18T11:08:12Z</time>
      </trkpt>
      <trkpt lat="45.37779" lon="5.99374">
        <ele>246.3</ele>
        <time>2014-10-18T11:08:14Z</time>
      </trkpt>
      <trkpt lat="45.37768" lon="5.99379">
        <ele>245.9</ele>
        <time>2014-10-18T11:08:16Z</time>
      </trkpt>
      <trkpt lat="45.37756" lon="5.9938">
        <ele>246</ele>
        <time>2014-10-18T11:08:18Z</time>
      </trkpt>
      <trkpt lat="45.37744" lon="5.99377">
        <ele>246</ele>
        <time>2014-10-18T11:08:20Z</time>
      </trkpt>
      <trkpt lat="45.37732" lon="5.99372">
        <ele>246.3</ele>
        <time>2014-10-18T11:08:22Z</time>
      </trkpt>
      <trkpt lat="45.3772" lon="5.99366">
        <ele>246.4</ele>
        <time>2014-10-18T11:08:24Z</time>
      </trkpt>
      <trkpt lat="45.37709" lon="5.99359">
        <ele>246.4</ele>
        <time>2014-10-18T11:08:26Z</time>
      </trkpt>
      <trkpt lat="45.37697" lon="5.99353">
        <ele>246.5</ele>
        <time>2014-10-18T11:08:28Z</time>
      </trkpt>
      <trkpt lat="45.37684" lon="5.99346">
        <ele>246.4</ele>
        <time>2014-10-18T11:08:30Z</time>
      </trkpt>
      <trkpt lat="45.37672" lon="5.99339">
        <ele>246.4</ele>
        <time>2014-10-18T11:08:32Z</time>
      </trkpt>
      <trkpt lat="45.3766" lon="5.99333">
        <ele>246.2</ele>
        <time>2014-10-18T11:08:34Z</time>
      </trkpt>
      <trkpt lat="45.37648" lon="5.99327">
        <ele>246</ele>
        <time>2014-10-18T11:08:36Z</time>
      </trkpt>
      <trkpt lat="45.37635" lon="5.9932">
        <ele>246.2</ele>
        <time>2014-10-18T11:08:38Z</time>
      </trkpt>
      <trkpt lat="45.37623" lon="5.99313">
        <ele>246.2</ele>
        <time>2014-10-18T11:08:40Z</time>
      </trkpt>
      <trkpt lat="45.37611" lon="5.99307">
        <ele>246.1</ele>
        <time>2014-10-18T11:08:42Z</time>
      </trkpt>
      <trkpt lat="45.37599" lon="5.993">
        <ele>246.2</ele>
        <time>2014-10-18T11:08:44Z</time>
      </trkpt>
      <trkpt lat="45.37587" lon="5.99293">
        <ele>246.2</ele>
        <time>2014-10-18T11:08:46Z</time>
      </trkpt>
      <trkpt lat="45.37575" lon="5.99286">
        <ele>246.2</ele>
        <time>2014-10-18T11:08:48Z</time>
      </trkpt>
      <trkpt lat="45.37563" lon="5.9928">
        <ele>246.3</ele>
        <time>2014-10-18T11:08:50Z</time>
      </trkpt>
      <trkpt lat="45.37551" lon="5.99274">
        <ele>246.3</ele>
        <time>2014-10-18T11:08:52Z</time>
      </trkpt>
      <trkpt lat="45.37538" lon="5.99268">
        <ele>246.4</ele>
        <time>2014-10-18T11:08:54Z</time>
      </trkpt>
      <trkpt lat="45.37526" lon="5.99262">
        <ele>246.2</ele>
        <time>2014-10-18T11:08:56Z</time>
      </trkpt>
      <trkpt lat="45.37514" lon="5.99255">
        <ele>246.4</ele>
        <time>2014-10-18T11:08:58Z</time>
      </trkpt>
      <trkpt lat="45.37502" lon="5.9925">
        <ele>246.5</ele>
        <time>2014-10-18T11:09:00Z</time>
      </trkpt>
      <trkpt lat="45.37491" lon="5.99244">
        <ele>246.5</ele>
        <time>2014-10-18T11:09:02Z</time>
      </trkpt>
      <trkpt lat="45.3748" lon="5.99239">
        <ele>246.6</ele>
        <time>2014-10-18T11:09:04Z</time>
      </trkpt>
      <trkpt lat="45.3747" lon="5.99233">
        <ele>246.6</ele>
        <time>2014-10-18T11:09:06Z</time>
      </trkpt>
      <trkpt lat="45.37459" lon="5.99227">
        <ele>246.8</ele>
        <time>2014-10-18T11:09:08Z</time>
      </trkpt>
      <trkpt lat="45.3745" lon="5.99221">
        <ele>247</ele>
        <time>2014-10-18T11:09:10Z</time>
      </trkpt>
      <trkpt lat="45.3744" lon="5.99214">
        <ele>247.1</ele>
        <time>2014-10-18T11:09:12Z</time>
      </trkpt>
      <trkpt lat="45.37429" lon="5.99208">
        <ele>247.5</ele>
        <time>2014-10-18T11:09:14Z</time>
      </trkpt>
      <trkpt lat="45.3742" lon="5.99202">
        <ele>247.5</ele>
        <time>2014-10-18T11:09:16Z</time>
      </trkpt>
      <trkpt lat="45.3741" lon="5.99196">
        <ele>247.6</ele>
        <time>2014-10-18T11:09:18Z</time>
      </trkpt>
      <trkpt lat="45.37401" lon="5.9919">
        <ele>247.6</ele>
        <time>2014-10-18T11:09:20Z</time>
      </trkpt>
      <trkpt lat="45.37392" lon="5.99185">
        <ele>247.7</ele>
        <time>2014-10-18T11:09:22Z</time>
      </trkpt>
      <trkpt lat="45.37383" lon="5.99181">
        <ele>248.3</ele>
        <time>2014-10-18T11:09:24Z</time>
      </trkpt>
      <trkpt lat="45.37374" lon="5.99176">
        <ele>248.4</ele>
        <time>2014-10-18T11:09:26Z</time>
      </trkpt>
      <trkpt lat="45.37366" lon="5.99171">
        <ele>248.6</ele>
        <time>2014-10-18T11:09:28Z</time>
      </trkpt>
      <trkpt lat="45.37357" lon="5.99166">
        <ele>248.8</ele>
        <time>2014-10-18T11:09:30Z</time>
      </trkpt>
      <trkpt lat="45.37349" lon="5.99161">
        <ele>248.8</ele>
        <time>2014-10-18T11:09:32Z</time>
      </trkpt>
      <trkpt lat="45.37336" lon="5.99155">
        <ele>249.3</ele>
        <time>2014-10-18T11:09:35Z</time>
      </trkpt>
      <trkpt lat="45.37324" lon="5.99148">
        <ele>249.9</ele>
        <time>2014-10-18T11:09:38Z</time>
      </trkpt>
      <trkpt lat="45.37312" lon="5.99142">
        <ele>250.2</ele>
        <time>2014-10-18T11:09:41Z</time>
      </trkpt>
      <trkpt lat="45.37301" lon="5.99136">
        <ele>250.6</ele>
        <time>2014-10-18T11:09:44Z</time>
      </trkpt>
      <trkpt lat="45.37289" lon="5.9913">
        <ele>250.9</ele>
        <time>2014-10-18T11:09:47Z</time>
      </trkpt>
      <trkpt lat="45.37278" lon="5.99124">
        <ele>251.3</ele>
        <time>2014-10-18T11:09:50Z</time>
      </trkpt>
      <trkpt lat="45.37266" lon="5.99119">
        <ele>251.4</ele>
        <time>2014-10-18T11:09:53Z</time>
      </trkpt>
      <trkpt lat="45.37255" lon="5.99113">
        <ele>251.7</ele>
        <time>2014-10-18T11:09:56Z</time>
      </trkpt>
      <trkpt lat="45.37244" lon="5.99107">
        <ele>251.9</ele>
        <time>2014-10-18T11:09:59Z</time>
      </trkpt>
      <trkpt lat="45.37233" lon="5.991">
        <ele>252.1</ele>
        <time>2014-10-18T11:10:02Z</time>
      </trkpt>
      <trkpt lat="45.37222" lon="5.99094">
        <ele>252.3</ele>
        <time>2014-10-18T11:10:05Z</time>
      </trkpt>
      <trkpt lat="45.37212" lon="5.99088">
        <ele>252.5</ele>
        <time>2014-10-18T11:10:08Z</time>
      </trkpt>
      <trkpt lat="45.37202" lon="5.99082">
        <ele>252.8</ele>
        <time>2014-10-18T11:10:11Z</time>
      </trkpt>
      <trkpt lat="45.37195" lon="5.99072">
        <ele>252.7</ele>
        <time>2014-10-18T11:10:14Z</time>
      </trkpt>
      <trkpt lat="45.37186" lon="5.99063">
        <ele>252.8</ele>
        <time>2014-10-18T11:10:17Z</time>
      </trkpt>
      <trkpt lat="45.37175" lon="5.99061">
        <ele>252.9</ele>
        <time>2014-10-18T11:10:20Z</time>
      </trkpt>
      <trkpt lat="45.37163" lon="5.99059">
        <ele>252.8</ele>
        <time>2014-10-18T11:10:23Z</time>
      </trkpt>
      <trkpt lat="45.37152" lon="5.99051">
        <ele>252.7</ele>
        <time>2014-10-18T11:10:26Z</time>
      </trkpt>
      <trkpt lat="45.37142" lon="5.99041">
        <ele>252.6</ele>
        <time>2014-10-18T11:10:29Z</time>
      </trkpt>
      <trkpt lat="45.37132" lon="5.99038">
        <ele>252.5</ele>
        <time>2014-10-18T11:10:31Z</time>
      </trkpt>
      <trkpt lat="45.37123" lon="5.99037">
        <ele>252.6</ele>
        <time>2014-10-18T11:10:33Z</time>
      </trkpt>
      <trkpt lat="45.37114" lon="5.99034">
        <ele>252.5</ele>
        <time>2014-10-18T11:10:35Z</time>
      </trkpt>
      <trkpt lat="45.37105" lon="5.99029">
        <ele>252.4</ele>
        <time>2014-10-18T11:10:37Z</time>
      </trkpt>
      <trkpt lat="45.37095" lon="5.99025">
        <ele>252.4</ele>
        <time>2014-10-18T11:10:39Z</time>
      </trkpt>
      <trkpt lat="45.37085" lon="5.99021">
        <ele>252.4</ele>
        <time>2014-10-18T11:10:41Z</time>
      </trkpt>
      <trkpt lat="45.37075" lon="5.99016">
        <ele>252.3</ele>
        <time>2014-10-18T11:10:43Z</time>
      </trkpt>
      <trkpt lat="45.37065" lon="5.99012">
        <ele>252.3</ele>
        <time>2014-10-18T11:10:45Z</time>
      </trkpt>
      <trkpt lat="45.37055" lon="5.99006">
        <ele>252.2</ele>
        <time>2014-10-18T11:10:47Z</time>
      </trkpt>
      <trkpt lat="45.37045" lon="5.99001">
        <ele>252.1</ele>
        <time>2014-10-18T11:10:49Z</time>
      </trkpt>
      <trkpt lat="45.37035" lon="5.98996">
        <ele>252.1</ele>
        <time>2014-10-18T11:10:51Z</time>
      </trkpt>
      <trkpt lat="45.37024" lon="5.98992">
        <ele>252</ele>
        <time>2014-10-18T11:10:53Z</time>
      </trkpt>
      <trkpt lat="45.37014" lon="5.98987">
        <ele>252</ele>
        <time>2014-10-18T11:10:55Z</time>
      </trkpt>
      <trkpt lat="45.37003" lon="5.98982">
        <ele>252.1</ele>
        <time>2014-10-18T11:10:57Z</time>
      </trkpt>
      <trkpt lat="45.36993" lon="5.98976">
        <ele>252.1</ele>
        <time>2014-10-18T11:10:59Z</time>
      </trkpt>
      <trkpt lat="45.36983" lon="5.98969">
        <ele>252</ele>
        <time>2014-10-18T11:11:01Z</time>
      </trkpt>
      <trkpt lat="45.36974" lon="5.9896">
        <ele>251.8</ele>
        <time>2014-10-18T11:11:03Z</time>
      </trkpt>
      <trkpt lat="45.36966" lon="5.98951">
        <ele>251.8</ele>
        <time>2014-10-18T11:11:05Z</time>
      </trkpt>
      <trkpt lat="45.36956" lon="5.98946">
        <ele>252</ele>
        <time>2014-10-18T11:11:07Z</time>
      </trkpt>
      <trkpt lat="45.36945" lon="5.98945">
        <ele>251.6</ele>
        <time>2014-10-18T11:11:09Z</time>
      </trkpt>
      <trkpt lat="45.36934" lon="5.98945">
        <ele>251.5</ele>
        <time>2014-10-18T11:11:11Z</time>
      </trkpt>
      <trkpt lat="45.36922" lon="5.98944">
        <ele>251.2</ele>
        <time>2014-10-18T11:11:13Z</time>
      </trkpt>
      <trkpt lat="45.36911" lon="5.9894">
        <ele>251.2</ele>
        <time>2014-10-18T11:11:15Z</time>
      </trkpt>
      <trkpt lat="45.36899" lon="5.98936">
        <ele>251.2</ele>
        <time>2014-10-18T11:11:17Z</time>
      </trkpt>
      <trkpt lat="45.36887" lon="5.98931">
        <ele>250.9</ele>
        <time>2014-10-18T11:11:19Z</time>
      </trkpt>
      <trkpt lat="45.36874" lon="5.98926">
        <ele>250.8</ele>
        <time>2014-10-18T11:11:21Z</time>
      </trkpt>
      <trkpt lat="45.36861" lon="5.9892">
        <ele>250.3</ele>
        <time>2014-10-18T11:11:23Z</time>
      </trkpt>
      <trkpt lat="45.36847" lon="5.98913">
        <ele>250</ele>
        <time>2014-10-18T11:11:25Z</time>
      </trkpt>
      <trkpt lat="45.36833" lon="5.98908">
        <ele>249.6</ele>
        <time>2014-10-18T11:11:27Z</time>
      </trkpt>
      <trkpt lat="45.3682" lon="5.98901">
        <ele>249.2</ele>
        <time>2014-10-18T11:11:29Z</time>
      </trkpt>
      <trkpt lat="45.36806" lon="5.98894">
        <ele>248.7</ele>
        <time>2014-10-18T11:11:31Z</time>
      </trkpt>
      <trkpt lat="45.36791" lon="5.98888">
        <ele>248.4</ele>
        <time>2014-10-18T11:11:33Z</time>
      </trkpt>
      <trkpt lat="45.36777" lon="5.98881">
        <ele>248.2</ele>
        <time>2014-10-18T11:11:35Z</time>
      </trkpt>
      <trkpt lat="45.36763" lon="5.98876">
        <ele>247.9</ele>
        <time>2014-10-18T11:11:37Z</time>
      </trkpt>
      <trkpt lat="45.36749" lon="5.9887">
        <ele>247.6</ele>
        <time>2014-10-18T11:11:39Z</time>
      </trkpt>
      <trkpt lat="45.36735" lon="5.98863">
        <ele>247.2</ele>
        <time>2014-10-18T11:11:41Z</time>
      </trkpt>
      <trkpt lat="45.36722" lon="5.98857">
        <ele>247.1</ele>
        <time>2014-10-18T11:11:43Z</time>
      </trkpt>
      <trkpt lat="45.36709" lon="5.98851">
        <ele>246.9</ele>
        <time>2014-10-18T11:11:45Z</time>
      </trkpt>
      <trkpt lat="45.36696" lon="5.98845">
        <ele>246.5</ele>
        <time>2014-10-18T11:11:47Z</time>
      </trkpt>
      <trkpt lat="45.36684" lon="5.98839">
        <ele>246.3</ele>
        <time>2014-10-18T11:11:49Z</time>
      </trkpt>
      <trkpt lat="45.36671" lon="5.98834">
        <ele>246</ele>
        <time>2014-10-18T11:11:51Z</time>
      </trkpt>
      <trkpt lat="45.36658" lon="5.98833">
        <ele>245.8</ele>
        <time>2014-10-18T11:11:53Z</time>
      </trkpt>
      <trkpt lat="45.36645" lon="5.98829">
        <ele>245.7</ele>
        <time>2014-10-18T11:11:55Z</time>
      </trkpt>
      <trkpt lat="45.36633" lon="5.98824">
        <ele>245.6</ele>
        <time>2014-10-18T11:11:57Z</time>
      </trkpt>
      <trkpt lat="45.36621" lon="5.98817">
        <ele>245.5</ele>
        <time>2014-10-18T11:11:59Z</time>
      </trkpt>
      <trkpt lat="45.36608" lon="5.98811">
        <ele>245.3</ele>
        <time>2014-10-18T11:12:01Z</time>
      </trkpt>
      <trkpt lat="45.36595" lon="5.98805">
        <ele>245.3</ele>
        <time>2014-10-18T11:12:03Z</time>
      </trkpt>
      <trkpt lat="45.36583" lon="5.98799">
        <ele>245.2</ele>
        <time>2014-10-18T11:12:05Z</time>
      </trkpt>
      <trkpt lat="45.36571" lon="5.98794">
        <ele>245.3</ele>
        <time>2014-10-18T11:12:07Z</time>
      </trkpt>
      <trkpt lat="45.36558" lon="5.98788">
        <ele>244.8</ele>
        <time>2014-10-18T11:12:09Z</time>
      </trkpt>
      <trkpt lat="45.36546" lon="5.98783">
        <ele>244.7</ele>
        <time>2014-10-18T11:12:11Z</time>
      </trkpt>
      <trkpt lat="45.36533" lon="5.98777">
        <ele>244.6</ele>
        <time>2014-10-18T11:12:13Z</time>
      </trkpt>
      <trkpt lat="45.36521" lon="5.98772">
        <ele>244.6</ele>
        <time>2014-10-18T11:12:15Z</time>
      </trkpt>
      <trkpt lat="45.36509" lon="5.98767">
        <ele>244.5</ele>
        <time>2014-10-18T11:12:17Z</time>
      </trkpt>
      <trkpt lat="45.36497" lon="5.98762">
        <ele>244.6</ele>
        <time>2014-10-18T11:12:19Z</time>
      </trkpt>
      <trkpt lat="45.36485" lon="5.98756">
        <ele>244.5</ele>
        <time>2014-10-18T11:12:21Z</time>
      </trkpt>
      <trkpt lat="45.36472" lon="5.98751">
        <ele>244.4</ele>
        <time>2014-10-18T11:12:23Z</time>
      </trkpt>
      <trkpt lat="45.3646" lon="5.98745">
        <ele>244.4</ele>
        <time>2014-10-18T11:12:25Z</time>
      </trkpt>
      <trkpt lat="45.36448" lon="5.9874">
        <ele>244.4</ele>
        <time>2014-10-18T11:12:27Z</time>
      </trkpt>
      <trkpt lat="45.36436" lon="5.98734">
        <ele>244.5</ele>
        <time>2014-10-18T11:12:29Z</time>
      </trkpt>
      <trkpt lat="45.36424" lon="5.98729">
        <ele>244.3</ele>
        <time>2014-10-18T11:12:31Z</time>
      </trkpt>
      <trkpt lat="45.36412" lon="5.98724">
        <ele>244.4</ele>
        <time>2014-10-18T11:12:33Z</time>
      </trkpt>
      <trkpt lat="45.364" lon="5.98719">
        <ele>244.3</ele>
        <time>2014-10-18T11:12:35Z</time>
      </trkpt>
      <trkpt lat="45.36388" lon="5.98714">
        <ele>244.3</ele>
        <time>2014-10-18T11:12:37Z</time>
      </trkpt>
      <trkpt lat="45.36376" lon="5.98709">
        <ele>244.3</ele>
        <time>2014-10-18T11:12:39Z</time>
      </trkpt>
      <trkpt lat="45.36364" lon="5.98704">
        <ele>243.8</ele>
        <time>2014-10-18T11:12:41Z</time>
      </trkpt>
      <trkpt lat="45.36352" lon="5.98698">
        <ele>244.1</ele>
        <time>2014-10-18T11:12:43Z</time>
      </trkpt>
      <trkpt lat="45.3634" lon="5.98693">
        <ele>244.2</ele>
        <time>2014-10-18T11:12:45Z</time>
      </trkpt>
      <trkpt lat="45.36327" lon="5.98687">
        <ele>243.9</ele>
        <time>2014-10-18T11:12:47Z</time>
      </trkpt>
      <trkpt lat="45.36315" lon="5.98682">
        <ele>244.1</ele>
        <time>2014-10-18T11:12:49Z</time>
      </trkpt>
      <trkpt lat="45.36303" lon="5.98677">
        <ele>244.1</ele>
        <time>2014-10-18T11:12:51Z</time>
      </trkpt>
      <trkpt lat="45.3629" lon="5.98672">
        <ele>244.1</ele>
        <time>2014-10-18T11:12:53Z</time>
      </trkpt>
      <trkpt lat="45.36278" lon="5.98666">
        <ele>244</ele>
        <time>2014-10-18T11:12:55Z</time>
      </trkpt>
      <trkpt lat="45.36266" lon="5.98661">
        <ele>244.1</ele>
        <time>2014-10-18T11:12:57Z</time>
      </trkpt>
      <trkpt lat="45.36253" lon="5.98655">
        <ele>244.2</ele>
        <time>2014-10-18T11:12:59Z</time>
      </trkpt>
      <trkpt lat="45.36241" lon="5.9865">
        <ele>244.2</ele>
        <time>2014-10-18T11:13:01Z</time>
      </trkpt>
      <trkpt lat="45.36229" lon="5.98645">
        <ele>244.1</ele>
        <time>2014-10-18T11:13:03Z</time>
      </trkpt>
      <trkpt lat="45.36216" lon="5.98639">
        <ele>243.9</ele>
        <time>2014-10-18T11:13:05Z</time>
      </trkpt>
      <trkpt lat="45.36204" lon="5.98634">
        <ele>243.8</ele>
        <time>2014-10-18T11:13:07Z</time>
      </trkpt>
      <trkpt lat="45.36191" lon="5.98628">
        <ele>243.8</ele>
        <time>2014-10-18T11:13:09Z</time>
      </trkpt>
      <trkpt lat="45.36179" lon="5.98623">
        <ele>243.6</ele>
        <time>2014-10-18T11:13:11Z</time>
      </trkpt>
      <trkpt lat="45.36167" lon="5.98618">
        <ele>243.8</ele>
        <time>2014-10-18T11:13:13Z</time>
      </trkpt>
      <trkpt lat="45.36154" lon="5.98612">
        <ele>243.8</ele>
        <time>2014-10-18T11:13:15Z</time>
      </trkpt>
      <trkpt lat="45.36142" lon="5.98607">
        <ele>243.9</ele>
        <time>2014-10-18T11:13:17Z</time>
      </trkpt>
      <trkpt lat="45.3613" lon="5.98602">
        <ele>244</ele>
        <time>2014-10-18T11:13:19Z</time>
      </trkpt>
      <trkpt lat="45.36118" lon="5.98597">
        <ele>243.8</ele>
        <time>2014-10-18T11:13:21Z</time>
      </trkpt>
      <trkpt lat="45.36106" lon="5.98591">
        <ele>243.7</ele>
        <time>2014-10-18T11:13:23Z</time>
      </trkpt>
      <trkpt lat="45.36094" lon="5.98586">
        <ele>243.8</ele>
        <time>2014-10-18T11:13:25Z</time>
      </trkpt>
      <trkpt lat="45.36082" lon="5.98581">
        <ele>243.8</ele>
        <time>2014-10-18T11:13:27Z</time>
      </trkpt>
      <trkpt lat="45.3607" lon="5.98576">
        <ele>243.8</ele>
        <time>2014-10-18T11:13:29Z</time>
      </trkpt>
      <trkpt lat="45.36058" lon="5.9857">
        <ele>243.6</ele>
        <time>2014-10-18T11:13:31Z</time>
      </trkpt>
      <trkpt lat="45.36046" lon="5.98565">
        <ele>243.5</ele>
        <time>2014-10-18T11:13:33Z</time>
      </trkpt>
      <trkpt lat="45.36034" lon="5.9856">
        <ele>243.5</ele>
        <time>2014-10-18T11:13:35Z</time>
      </trkpt>
      <trkpt lat="45.36022" lon="5.98555">
        <ele>243.5</ele>
        <time>2014-10-18T11:13:37Z</time>
      </trkpt>
      <trkpt lat="45.3601" lon="5.98549">
        <ele>243.5</ele>
        <time>2014-10-18T11:13:39Z</time>
      </trkpt>
      <trkpt lat="45.35998" lon="5.98544">
        <ele>243.4</ele>
        <time>2014-10-18T11:13:41Z</time>
      </trkpt>
      <trkpt lat="45.35986" lon="5.98539">
        <ele>243.3</ele>
        <time>2014-10-18T11:13:43Z</time>
      </trkpt>
      <trkpt lat="45.35973" lon="5.98533">
        <ele>243.3</ele>
        <time>2014-10-18T11:13:45Z</time>
      </trkpt>
      <trkpt lat="45.35961" lon="5.98528">
        <ele>243.4</ele>
        <time>2014-10-18T11:13:47Z</time>
      </trkpt>
      <trkpt lat="45.35949" lon="5.98523">
        <ele>243.4</ele>
        <time>2014-10-18T11:13:49Z</time>
      </trkpt>
      <trkpt lat="45.35937" lon="5.98518">
        <ele>243.4</ele>
        <time>2014-10-18T11:13:51Z</time>
      </trkpt>
      <trkpt lat="45.35924" lon="5.98512">
        <ele>243.2</ele>
        <time>2014-10-18T11:13:53Z</time>
      </trkpt>
      <trkpt lat="45.35912" lon="5.98507">
        <ele>243.2</ele>
        <time>2014-10-18T11:13:55Z</time>
      </trkpt>
      <trkpt lat="45.359" lon="5.98502">
        <ele>243.3</ele>
        <time>2014-10-18T11:13:57Z</time>
      </trkpt>
      <trkpt lat="45.35887" lon="5.98497">
        <ele>243.3</ele>
        <time>2014-10-18T11:13:59Z</time>
      </trkpt>
      <trkpt lat="45.35875" lon="5.98491">
        <ele>243.2</ele>
        <time>2014-10-18T11:14:01Z</time>
      </trkpt>
      <trkpt lat="45.35862" lon="5.98486">
        <ele>243.2</ele>
        <time>2014-10-18T11:14:03Z</time>
      </trkpt>
      <trkpt lat="45.3585" lon="5.9848">
        <ele>243.1</ele>
        <time>2014-10-18T11:14:05Z</time>
      </trkpt>
      <trkpt lat="45.35837" lon="5.98475">
        <ele>242.9</ele>
        <time>2014-10-18T11:14:07Z</time>
      </trkpt>
      <trkpt lat="45.35825" lon="5.9847">
        <ele>242.8</ele>
        <time>2014-10-18T11:14:09Z</time>
      </trkpt>
      <trkpt lat="45.35812" lon="5.98464">
        <ele>243</ele>
        <time>2014-10-18T11:14:11Z</time>
      </trkpt>
      <trkpt lat="45.358" lon="5.98459">
        <ele>243.1</ele>
        <time>2014-10-18T11:14:13Z</time>
      </trkpt>
      <trkpt lat="45.35787" lon="5.98453">
        <ele>243</ele>
        <time>2014-10-18T11:14:15Z</time>
      </trkpt>
      <trkpt lat="45.35775" lon="5.98448">
        <ele>243.2</ele>
        <time>2014-10-18T11:14:17Z</time>
      </trkpt>
      <trkpt lat="45.35763" lon="5.98443">
        <ele>243.4</ele>
        <time>2014-10-18T11:14:19Z</time>
      </trkpt>
      <trkpt lat="45.35751" lon="5.98437">
        <ele>243.4</ele>
        <time>2014-10-18T11:14:21Z</time>
      </trkpt>
      <trkpt lat="45.35739" lon="5.98432">
        <ele>243.4</ele>
        <time>2014-10-18T11:14:23Z</time>
      </trkpt>
      <trkpt lat="45.35727" lon="5.98427">
        <ele>243.2</ele>
        <time>2014-10-18T11:14:25Z</time>
      </trkpt>
      <trkpt lat="45.35715" lon="5.98422">
        <ele>243.1</ele>
        <time>2014-10-18T11:14:27Z</time>
      </trkpt>
      <trkpt lat="45.35703" lon="5.98417">
        <ele>243</ele>
        <time>2014-10-18T11:14:29Z</time>
      </trkpt>
      <trkpt lat="45.3569" lon="5.98412">
        <ele>243.2</ele>
        <time>2014-10-18T11:14:31Z</time>
      </trkpt>
      <trkpt lat="45.35678" lon="5.98406">
        <ele>243.1</ele>
        <time>2014-10-18T11:14:33Z</time>
      </trkpt>
      <trkpt lat="45.35666" lon="5.98401">
        <ele>243.1</ele>
        <time>2014-10-18T11:14:35Z</time>
      </trkpt>
      <trkpt lat="45.35654" lon="5.98396">
        <ele>243</ele>
        <time>2014-10-18T11:14:37Z</time>
      </trkpt>
      <trkpt lat="45.35642" lon="5.9839">
        <ele>243.1</ele>
        <time>2014-10-18T11:14:39Z</time>
      </trkpt>
      <trkpt lat="45.3563" lon="5.98385">
        <ele>243.1</ele>
        <time>2014-10-18T11:14:41Z</time>
      </trkpt>
      <trkpt lat="45.35617" lon="5.98379">
        <ele>243</ele>
        <time>2014-10-18T11:14:43Z</time>
      </trkpt>
      <trkpt lat="45.35605" lon="5.98374">
        <ele>243.1</ele>
        <time>2014-10-18T11:14:45Z</time>
      </trkpt>
      <trkpt lat="45.35593" lon="5.98369">
        <ele>243</ele>
        <time>2014-10-18T11:14:47Z</time>
      </trkpt>
      <trkpt lat="45.35581" lon="5.98363">
        <ele>242.8</ele>
        <time>2014-10-18T11:14:49Z</time>
      </trkpt>
      <trkpt lat="45.35569" lon="5.98358">
        <ele>242.9</ele>
        <time>2014-10-18T11:14:51Z</time>
      </trkpt>
      <trkpt lat="45.35557" lon="5.98353">
        <ele>242.9</ele>
        <time>2014-10-18T11:14:53Z</time>
      </trkpt>
      <trkpt lat="45.35544" lon="5.98348">
        <ele>243</ele>
        <time>2014-10-18T11:14:55Z</time>
      </trkpt>
      <trkpt lat="45.35532" lon="5.98342">
        <ele>242.8</ele>
        <time>2014-10-18T11:14:57Z</time>
      </trkpt>
      <trkpt lat="45.3552" lon="5.98337">
        <ele>243</ele>
        <time>2014-10-18T11:14:59Z</time>
      </trkpt>
      <trkpt lat="45.35508" lon="5.98332">
        <ele>242.9</ele>
        <time>2014-10-18T11:15:01Z</time>
      </trkpt>
      <trkpt lat="45.35496" lon="5.98327">
        <ele>242.8</ele>
        <time>2014-10-18T11:15:03Z</time>
      </trkpt>
      <trkpt lat="45.35483" lon="5.98321">
        <ele>242.9</ele>
        <time>2014-10-18T11:15:05Z</time>
      </trkpt>
      <trkpt lat="45.35471" lon="5.98317">
        <ele>242.9</ele>
        <time>2014-10-18T11:15:07Z</time>
      </trkpt>
      <trkpt lat="45.35459" lon="5.98311">
        <ele>242.8</ele>
        <time>2014-10-18T11:15:09Z</time>
      </trkpt>
      <trkpt lat="45.35447" lon="5.98306">
        <ele>242.9</ele>
        <time>2014-10-18T11:15:11Z</time>
      </trkpt>
      <trkpt lat="45.35435" lon="5.98301">
        <ele>242.9</ele>
        <time>2014-10-18T11:15:13Z</time>
      </trkpt>
      <trkpt lat="45.35423" lon="5.98296">
        <ele>243</ele>
        <time>2014-10-18T11:15:15Z</time>
      </trkpt>
      <trkpt lat="45.35412" lon="5.9829">
        <ele>243</ele>
        <time>2014-10-18T11:15:17Z</time>
      </trkpt>
      <trkpt lat="45.354" lon="5.98285">
        <ele>242.9</ele>
        <time>2014-10-18T11:15:19Z</time>
      </trkpt>
      <trkpt lat="45.35388" lon="5.9828">
        <ele>243</ele>
        <time>2014-10-18T11:15:21Z</time>
      </trkpt>
      <trkpt lat="45.35377" lon="5.98275">
        <ele>243</ele>
        <time>2014-10-18T11:15:23Z</time>
      </trkpt>
      <trkpt lat="45.35366" lon="5.98271">
        <ele>242.8</ele>
        <time>2014-10-18T11:15:25Z</time>
      </trkpt>
      <trkpt lat="45.35355" lon="5.98266">
        <ele>242.7</ele>
        <time>2014-10-18T11:15:27Z</time>
      </trkpt>
      <trkpt lat="45.35344" lon="5.98262">
        <ele>242.8</ele>
        <time>2014-10-18T11:15:29Z</time>
      </trkpt>
      <trkpt lat="45.35333" lon="5.98257">
        <ele>242.8</ele>
        <time>2014-10-18T11:15:31Z</time>
      </trkpt>
      <trkpt lat="45.35323" lon="5.98252">
        <ele>242.8</ele>
        <time>2014-10-18T11:15:33Z</time>
      </trkpt>
      <trkpt lat="45.35312" lon="5.98248">
        <ele>242.7</ele>
        <time>2014-10-18T11:15:35Z</time>
      </trkpt>
      <trkpt lat="45.35302" lon="5.98243">
        <ele>242.7</ele>
        <time>2014-10-18T11:15:37Z</time>
      </trkpt>
      <trkpt lat="45.35292" lon="5.98238">
        <ele>242.7</ele>
        <time>2014-10-18T11:15:39Z</time>
      </trkpt>
      <trkpt lat="45.35281" lon="5.98234">
        <ele>242.7</ele>
        <time>2014-10-18T11:15:41Z</time>
      </trkpt>
      <trkpt lat="45.35271" lon="5.98229">
        <ele>242.6</ele>
        <time>2014-10-18T11:15:43Z</time>
      </trkpt>
      <trkpt lat="45.3526" lon="5.98224">
        <ele>242.6</ele>
        <time>2014-10-18T11:15:45Z</time>
      </trkpt>
      <trkpt lat="45.3525" lon="5.9822">
        <ele>242.9</ele>
        <time>2014-10-18T11:15:47Z</time>
      </trkpt>
      <trkpt lat="45.3524" lon="5.98215">
        <ele>242.9</ele>
        <time>2014-10-18T11:15:49Z</time>
      </trkpt>
      <trkpt lat="45.35229" lon="5.9821">
        <ele>242.9</ele>
        <time>2014-10-18T11:15:51Z</time>
      </trkpt>
      <trkpt lat="45.35219" lon="5.98206">
        <ele>243.1</ele>
        <time>2014-10-18T11:15:53Z</time>
      </trkpt>
      <trkpt lat="45.35209" lon="5.98202">
        <ele>243</ele>
        <time>2014-10-18T11:15:55Z</time>
      </trkpt>
      <trkpt lat="45.35199" lon="5.98197">
        <ele>243</ele>
        <time>2014-10-18T11:15:57Z</time>
      </trkpt>
      <trkpt lat="45.35189" lon="5.98192">
        <ele>242.9</ele>
        <time>2014-10-18T11:15:59Z</time>
      </trkpt>
      <trkpt lat="45.35178" lon="5.98188">
        <ele>242.9</ele>
        <time>2014-10-18T11:16:01Z</time>
      </trkpt>
      <trkpt lat="45.35168" lon="5.98183">
        <ele>242.8</ele>
        <time>2014-10-18T11:16:03Z</time>
      </trkpt>
      <trkpt lat="45.35158" lon="5.98179">
        <ele>242.9</ele>
        <time>2014-10-18T11:16:05Z</time>
      </trkpt>
      <trkpt lat="45.35148" lon="5.98175">
        <ele>242.8</ele>
        <time>2014-10-18T11:16:07Z</time>
      </trkpt>
      <trkpt lat="45.35137" lon="5.9817">
        <ele>242.9</ele>
        <time>2014-10-18T11:16:09Z</time>
      </trkpt>
      <trkpt lat="45.35127" lon="5.98165">
        <ele>242.6</ele>
        <time>2014-10-18T11:16:11Z</time>
      </trkpt>
      <trkpt lat="45.35117" lon="5.98161">
        <ele>242.9</ele>
        <time>2014-10-18T11:16:13Z</time>
      </trkpt>
      <trkpt lat="45.35106" lon="5.98157">
        <ele>242.9</ele>
        <time>2014-10-18T11:16:15Z</time>
      </trkpt>
      <trkpt lat="45.35096" lon="5.98152">
        <ele>242.8</ele>
        <time>2014-10-18T11:16:17Z</time>
      </trkpt>
      <trkpt lat="45.35086" lon="5.98148">
        <ele>242.8</ele>
        <time>2014-10-18T11:16:19Z</time>
      </trkpt>
      <trkpt lat="45.35076" lon="5.98144">
        <ele>242.9</ele>
        <time>2014-10-18T11:16:21Z</time>
      </trkpt>
      <trkpt lat="45.35066" lon="5.98139">
        <ele>243</ele>
        <time>2014-10-18T11:16:23Z</time>
      </trkpt>
      <trkpt lat="45.35057" lon="5.98135">
        <ele>243.1</ele>
        <time>2014-10-18T11:16:25Z</time>
      </trkpt>
      <trkpt lat="45.35048" lon="5.98131">
        <ele>243.1</ele>
        <time>2014-10-18T11:16:27Z</time>
      </trkpt>
      <trkpt lat="45.35036" lon="5.98126">
        <ele>243.5</ele>
        <time>2014-10-18T11:16:30Z</time>
      </trkpt>
      <trkpt lat="45.35025" lon="5.98121">
        <ele>244</ele>
        <time>2014-10-18T11:16:33Z</time>
      </trkpt>
      <trkpt lat="45.35015" lon="5.98117">
        <ele>244.6</ele>
        <time>2014-10-18T11:16:36Z</time>
      </trkpt>
      <trkpt lat="45.35005" lon="5.98112">
        <ele>245.3</ele>
        <time>2014-10-18T11:16:40Z</time>
      </trkpt>
      <trkpt lat="45.34995" lon="5.98108">
        <ele>245.8</ele>
        <time>2014-10-18T11:16:44Z</time>
      </trkpt>
      <trkpt lat="45.34986" lon="5.98104">
        <ele>246.6</ele>
        <time>2014-10-18T11:16:48Z</time>
      </trkpt>
      <trkpt lat="45.34976" lon="5.981">
        <ele>247.3</ele>
        <time>2014-10-18T11:16:52Z</time>
      </trkpt>
      <trkpt lat="45.34966" lon="5.98095">
        <ele>248.2</ele>
        <time>2014-10-18T11:16:56Z</time>
      </trkpt>
      <trkpt lat="45.34956" lon="5.9809">
        <ele>249</ele>
        <time>2014-10-18T11:17:00Z</time>
      </trkpt>
      <trkpt lat="45.34945" lon="5.98086">
        <ele>249.7</ele>
        <time>2014-10-18T11:17:04Z</time>
      </trkpt>
      <trkpt lat="45.34935" lon="5.98081">
        <ele>250.6</ele>
        <time>2014-10-18T11:17:08Z</time>
      </trkpt>
      <trkpt lat="45.34925" lon="5.98077">
        <ele>251.4</ele>
        <time>2014-10-18T11:17:12Z</time>
      </trkpt>
      <trkpt lat="45.34915" lon="5.98072">
        <ele>252.2</ele>
        <time>2014-10-18T11:17:16Z</time>
      </trkpt>
      <trkpt lat="45.34904" lon="5.98067">
        <ele>252.9</ele>
        <time>2014-10-18T11:17:20Z</time>
      </trkpt>
      <trkpt lat="45.34894" lon="5.98063">
        <ele>253.5</ele>
        <time>2014-10-18T11:17:24Z</time>
      </trkpt>
      <trkpt lat="45.34884" lon="5.98059">
        <ele>254.4</ele>
        <time>2014-10-18T11:17:28Z</time>
      </trkpt>
      <trkpt lat="45.34873" lon="5.98054">
        <ele>255.3</ele>
        <time>2014-10-18T11:17:32Z</time>
      </trkpt>
      <trkpt lat="45.34863" lon="5.9805">
        <ele>256</ele>
        <time>2014-10-18T11:17:36Z</time>
      </trkpt>
      <trkpt lat="45.34852" lon="5.98045">
        <ele>256.8</ele>
        <time>2014-10-18T11:17:40Z</time>
      </trkpt>
      <trkpt lat="45.34842" lon="5.9804">
        <ele>257.1</ele>
        <time>2014-10-18T11:17:44Z</time>
      </trkpt>
      <trkpt lat="45.34832" lon="5.98036">
        <ele>258.1</ele>
        <time>2014-10-18T11:17:48Z</time>
      </trkpt>
      <trkpt lat="45.34822" lon="5.98031">
        <ele>259</ele>
        <time>2014-10-18T11:17:52Z</time>
      </trkpt>
      <trkpt lat="45.34812" lon="5.98027">
        <ele>259.6</ele>
        <time>2014-10-18T11:17:56Z</time>
      </trkpt>
      <trkpt lat="45.34801" lon="5.98022">
        <ele>260.4</ele>
        <time>2014-10-18T11:18:00Z</time>
      </trkpt>
      <trkpt lat="45.34791" lon="5.98018">
        <ele>260.9</ele>
        <time>2014-10-18T11:18:04Z</time>
      </trkpt>
      <trkpt lat="45.34781" lon="5.98014">
        <ele>261.5</ele>
        <time>2014-10-18T11:18:08Z</time>
      </trkpt>
      <trkpt lat="45.3477" lon="5.9801">
        <ele>262.2</ele>
        <time>2014-10-18T11:18:12Z</time>
      </trkpt>
      <trkpt lat="45.3476" lon="5.98005">
        <ele>262.9</ele>
        <time>2014-10-18T11:18:16Z</time>
      </trkpt>
      <trkpt lat="45.3475" lon="5.98001">
        <ele>263.6</ele>
        <time>2014-10-18T11:18:20Z</time>
      </trkpt>
      <trkpt lat="45.3474" lon="5.97996">
        <ele>264.2</ele>
        <time>2014-10-18T11:18:24Z</time>
      </trkpt>
      <trkpt lat="45.34729" lon="5.97992">
        <ele>264.5</ele>
        <time>2014-10-18T11:18:28Z</time>
      </trkpt>
      <trkpt lat="45.34718" lon="5.97987">
        <ele>265</ele>
        <time>2014-10-18T11:18:32Z</time>
      </trkpt>
      <trkpt lat="45.34708" lon="5.97983">
        <ele>265.5</ele>
        <time>2014-10-18T11:18:36Z</time>
      </trkpt>
      <trkpt lat="45.34698" lon="5.97979">
        <ele>266</ele>
        <time>2014-10-18T11:18:40Z</time>
      </trkpt>
      <trkpt lat="45.34687" lon="5.97975">
        <ele>266.5</ele>
        <time>2014-10-18T11:18:44Z</time>
      </trkpt>
      <trkpt lat="45.34679" lon="5.9797">
        <ele>266.7</ele>
        <time>2014-10-18T11:18:47Z</time>
      </trkpt>
      <trkpt lat="45.3467" lon="5.97966">
        <ele>267.1</ele>
        <time>2014-10-18T11:18:50Z</time>
      </trkpt>
      <trkpt lat="45.3466" lon="5.97961">
        <ele>267.6</ele>
        <time>2014-10-18T11:18:53Z</time>
      </trkpt>
      <trkpt lat="45.3465" lon="5.97956">
        <ele>267.9</ele>
        <time>2014-10-18T11:18:56Z</time>
      </trkpt>
      <trkpt lat="45.34641" lon="5.97951">
        <ele>268</ele>
        <time>2014-10-18T11:18:59Z</time>
      </trkpt>
      <trkpt lat="45.34632" lon="5.97946">
        <ele>268.3</ele>
        <time>2014-10-18T11:19:02Z</time>
      </trkpt>
      <trkpt lat="45.34621" lon="5.97942">
        <ele>268.6</ele>
        <time>2014-10-18T11:19:05Z</time>
      </trkpt>
      <trkpt lat="45.34611" lon="5.9794">
        <ele>269</ele>
        <time>2014-10-18T11:19:08Z</time>
      </trkpt>
      <trkpt lat="45.346" lon="5.97935">
        <ele>268.9</ele>
        <time>2014-10-18T11:19:11Z</time>
      </trkpt>
      <trkpt lat="45.34589" lon="5.97931">
        <ele>268.9</ele>
        <time>2014-10-18T11:19:14Z</time>
      </trkpt>
      <trkpt lat="45.34578" lon="5.97926">
        <ele>268.8</ele>
        <time>2014-10-18T11:19:17Z</time>
      </trkpt>
      <trkpt lat="45.34567" lon="5.97921">
        <ele>269.1</ele>
        <time>2014-10-18T11:19:20Z</time>
      </trkpt>
      <trkpt lat="45.34555" lon="5.97916">
        <ele>269</ele>
        <time>2014-10-18T11:19:23Z</time>
      </trkpt>
      <trkpt lat="45.34544" lon="5.9791">
        <ele>269</ele>
        <time>2014-10-18T11:19:26Z</time>
      </trkpt>
      <trkpt lat="45.34531" lon="5.97905">
        <ele>269</ele>
        <time>2014-10-18T11:19:29Z</time>
      </trkpt>
      <trkpt lat="45.34519" lon="5.97899">
        <ele>269.1</ele>
        <time>2014-10-18T11:19:32Z</time>
      </trkpt>
      <trkpt lat="45.34506" lon="5.97894">
        <ele>269</ele>
        <time>2014-10-18T11:19:35Z</time>
      </trkpt>
      <trkpt lat="45.34495" lon="5.97888">
        <ele>268.8</ele>
        <time>2014-10-18T11:19:38Z</time>
      </trkpt>
      <trkpt lat="45.34484" lon="5.97883">
        <ele>268.9</ele>
        <time>2014-10-18T11:19:41Z</time>
      </trkpt>
      <trkpt lat="45.34473" lon="5.97879">
        <ele>268.9</ele>
        <time>2014-10-18T11:19:44Z</time>
      </trkpt>
      <trkpt lat="45.34463" lon="5.97878">
        <ele>268.8</ele>
        <time>2014-10-18T11:19:47Z</time>
      </trkpt>
      <trkpt lat="45.34454" lon="5.97875">
        <ele>268.7</ele>
        <time>2014-10-18T11:19:50Z</time>
      </trkpt>
      <trkpt lat="45.34445" lon="5.97871">
        <ele>268.8</ele>
        <time>2014-10-18T11:19:54Z</time>
      </trkpt>
      <trkpt lat="45.34436" lon="5.97867">
        <ele>268.7</ele>
        <time>2014-10-18T11:19:59Z</time>
      </trkpt>
      <trkpt lat="45.34425" lon="5.97868">
        <ele>268.5</ele>
        <time>2014-10-18T11:20:04Z</time>
      </trkpt>
      <trkpt lat="45.3442" lon="5.97881">
        <ele>268.9</ele>
        <time>2014-10-18T11:20:09Z</time>
      </trkpt>
      <trkpt lat="45.34425" lon="5.97892">
        <ele>270.2</ele>
        <time>2014-10-18T11:21:04Z</time>
      </trkpt>
      <trkpt lat="45.34434" lon="5.979">
        <ele>270.6</ele>
        <time>2014-10-18T11:21:09Z</time>
      </trkpt>
      <trkpt lat="45.34441" lon="5.97908">
        <ele>271</ele>
        <time>2014-10-18T11:21:13Z</time>
      </trkpt>
      <trkpt lat="45.3445" lon="5.97918">
        <ele>271.6</ele>
        <time>2014-10-18T11:21:17Z</time>
      </trkpt>
      <trkpt lat="45.34456" lon="5.97928">
        <ele>271.8</ele>
        <time>2014-10-18T11:21:21Z</time>
      </trkpt>
      <trkpt lat="45.34463" lon="5.97939">
        <ele>272.6</ele>
        <time>2014-10-18T11:21:25Z</time>
      </trkpt>
      <trkpt lat="45.3447" lon="5.97948">
        <ele>273.2</ele>
        <time>2014-10-18T11:21:29Z</time>
      </trkpt>
      <trkpt lat="45.34477" lon="5.97959">
        <ele>273.8</ele>
        <time>2014-10-18T11:21:33Z</time>
      </trkpt>
      <trkpt lat="45.34484" lon="5.97969">
        <ele>274.3</ele>
        <time>2014-10-18T11:21:37Z</time>
      </trkpt>
      <trkpt lat="45.34491" lon="5.97979">
        <ele>274.9</ele>
        <time>2014-10-18T11:21:41Z</time>
      </trkpt>
      <trkpt lat="45.34499" lon="5.97988">
        <ele>275.2</ele>
        <time>2014-10-18T11:21:45Z</time>
      </trkpt>
      <trkpt lat="45.34506" lon="5.97999">
        <ele>275.9</ele>
        <time>2014-10-18T11:21:49Z</time>
      </trkpt>
      <trkpt lat="45.34513" lon="5.98009">
        <ele>276.4</ele>
        <time>2014-10-18T11:21:53Z</time>
      </trkpt>
      <trkpt lat="45.3452" lon="5.98018">
        <ele>277</ele>
        <time>2014-10-18T11:21:57Z</time>
      </trkpt>
      <trkpt lat="45.34527" lon="5.98029">
        <ele>277.7</ele>
        <time>2014-10-18T11:22:01Z</time>
      </trkpt>
      <trkpt lat="45.34533" lon="5.98039">
        <ele>278</ele>
        <time>2014-10-18T11:22:05Z</time>
      </trkpt>
      <trkpt lat="45.3454" lon="5.9805">
        <ele>278.5</ele>
        <time>2014-10-18T11:22:09Z</time>
      </trkpt>
      <trkpt lat="45.34547" lon="5.9806">
        <ele>279.3</ele>
        <time>2014-10-18T11:22:13Z</time>
      </trkpt>
      <trkpt lat="45.34554" lon="5.98071">
        <ele>279.8</ele>
        <time>2014-10-18T11:22:17Z</time>
      </trkpt>
      <trkpt lat="45.34561" lon="5.98081">
        <ele>280.2</ele>
        <time>2014-10-18T11:22:21Z</time>
      </trkpt>
      <trkpt lat="45.34568" lon="5.98092">
        <ele>280.9</ele>
        <time>2014-10-18T11:22:25Z</time>
      </trkpt>
      <trkpt lat="45.34574" lon="5.98103">
        <ele>281.5</ele>
        <time>2014-10-18T11:22:29Z</time>
      </trkpt>
      <trkpt lat="45.3458" lon="5.98115">
        <ele>282.1</ele>
        <time>2014-10-18T11:22:33Z</time>
      </trkpt>
      <trkpt lat="45.34586" lon="5.98127">
        <ele>282.3</ele>
        <time>2014-10-18T11:22:37Z</time>
      </trkpt>
      <trkpt lat="45.3459" lon="5.98141">
        <ele>282.5</ele>
        <time>2014-10-18T11:22:41Z</time>
      </trkpt>
      <trkpt lat="45.34593" lon="5.98156">
        <ele>283.3</ele>
        <time>2014-10-18T11:22:45Z</time>
      </trkpt>
      <trkpt lat="45.34596" lon="5.98172">
        <ele>283.6</ele>
        <time>2014-10-18T11:22:49Z</time>
      </trkpt>
      <trkpt lat="45.34599" lon="5.98188">
        <ele>284.3</ele>
        <time>2014-10-18T11:22:53Z</time>
      </trkpt>
      <trkpt lat="45.34601" lon="5.98201">
        <ele>284.4</ele>
        <time>2014-10-18T11:22:56Z</time>
      </trkpt>
      <trkpt lat="45.34602" lon="5.98218">
        <ele>285</ele>
        <time>2014-10-18T11:23:00Z</time>
      </trkpt>
      <trkpt lat="45.34604" lon="5.98234">
        <ele>285.6</ele>
        <time>2014-10-18T11:23:04Z</time>
      </trkpt>
      <trkpt lat="45.34606" lon="5.98251">
        <ele>286.1</ele>
        <time>2014-10-18T11:23:08Z</time>
      </trkpt>
      <trkpt lat="45.34607" lon="5.98263">
        <ele>286.2</ele>
        <time>2014-10-18T11:23:11Z</time>
      </trkpt>
      <trkpt lat="45.34609" lon="5.98276">
        <ele>286.6</ele>
        <time>2014-10-18T11:23:14Z</time>
      </trkpt>
      <trkpt lat="45.3461" lon="5.98289">
        <ele>286.9</ele>
        <time>2014-10-18T11:23:17Z</time>
      </trkpt>
      <trkpt lat="45.34612" lon="5.98302">
        <ele>287.3</ele>
        <time>2014-10-18T11:23:20Z</time>
      </trkpt>
      <trkpt lat="45.34614" lon="5.98315">
        <ele>287.6</ele>
        <time>2014-10-18T11:23:23Z</time>
      </trkpt>
      <trkpt lat="45.34615" lon="5.98328">
        <ele>288</ele>
        <time>2014-10-18T11:23:26Z</time>
      </trkpt>
      <trkpt lat="45.34617" lon="5.98341">
        <ele>288.6</ele>
        <time>2014-10-18T11:23:29Z</time>
      </trkpt>
      <trkpt lat="45.34618" lon="5.98357">
        <ele>289.1</ele>
        <time>2014-10-18T11:23:33Z</time>
      </trkpt>
      <trkpt lat="45.34622" lon="5.98373">
        <ele>289.5</ele>
        <time>2014-10-18T11:23:37Z</time>
      </trkpt>
      <trkpt lat="45.34626" lon="5.98389">
        <ele>290.1</ele>
        <time>2014-10-18T11:23:41Z</time>
      </trkpt>
      <trkpt lat="45.3463" lon="5.98401">
        <ele>290.5</ele>
        <time>2014-10-18T11:23:44Z</time>
      </trkpt>
      <trkpt lat="45.34635" lon="5.98416">
        <ele>291.1</ele>
        <time>2014-10-18T11:23:48Z</time>
      </trkpt>
      <trkpt lat="45.34639" lon="5.98428">
        <ele>291.6</ele>
        <time>2014-10-18T11:23:51Z</time>
      </trkpt>
      <trkpt lat="45.34645" lon="5.98438">
        <ele>292.1</ele>
        <time>2014-10-18T11:23:54Z</time>
      </trkpt>
      <trkpt lat="45.3465" lon="5.98448">
        <ele>292.8</ele>
        <time>2014-10-18T11:23:57Z</time>
      </trkpt>
      <trkpt lat="45.34658" lon="5.98461">
        <ele>293.6</ele>
        <time>2014-10-18T11:24:01Z</time>
      </trkpt>
      <trkpt lat="45.34666" lon="5.98471">
        <ele>294</ele>
        <time>2014-10-18T11:24:05Z</time>
      </trkpt>
      <trkpt lat="45.34674" lon="5.9848">
        <ele>294.6</ele>
        <time>2014-10-18T11:24:08Z</time>
      </trkpt>
      <trkpt lat="45.34682" lon="5.98487">
        <ele>295.2</ele>
        <time>2014-10-18T11:24:11Z</time>
      </trkpt>
      <trkpt lat="45.3469" lon="5.98494">
        <ele>295.5</ele>
        <time>2014-10-18T11:24:14Z</time>
      </trkpt>
      <trkpt lat="45.347" lon="5.98502">
        <ele>296.1</ele>
        <time>2014-10-18T11:24:18Z</time>
      </trkpt>
      <trkpt lat="45.3471" lon="5.9851">
        <ele>297</ele>
        <time>2014-10-18T11:24:22Z</time>
      </trkpt>
      <trkpt lat="45.34718" lon="5.98517">
        <ele>297.3</ele>
        <time>2014-10-18T11:24:25Z</time>
      </trkpt>
      <trkpt lat="45.34728" lon="5.98524">
        <ele>297.9</ele>
        <time>2014-10-18T11:24:29Z</time>
      </trkpt>
      <trkpt lat="45.34737" lon="5.98531">
        <ele>298.4</ele>
        <time>2014-10-18T11:24:32Z</time>
      </trkpt>
      <trkpt lat="45.34745" lon="5.98537">
        <ele>298.8</ele>
        <time>2014-10-18T11:24:35Z</time>
      </trkpt>
      <trkpt lat="45.34753" lon="5.98544">
        <ele>299.3</ele>
        <time>2014-10-18T11:24:38Z</time>
      </trkpt>
      <trkpt lat="45.34761" lon="5.9855">
        <ele>299.7</ele>
        <time>2014-10-18T11:24:41Z</time>
      </trkpt>
      <trkpt lat="45.3477" lon="5.98557">
        <ele>300</ele>
        <time>2014-10-18T11:24:44Z</time>
      </trkpt>
      <trkpt lat="45.34778" lon="5.98563">
        <ele>300.6</ele>
        <time>2014-10-18T11:24:47Z</time>
      </trkpt>
      <trkpt lat="45.34786" lon="5.9857">
        <ele>301.2</ele>
        <time>2014-10-18T11:24:50Z</time>
      </trkpt>
      <trkpt lat="45.34797" lon="5.98577">
        <ele>301.9</ele>
        <time>2014-10-18T11:24:54Z</time>
      </trkpt>
      <trkpt lat="45.34805" lon="5.98583">
        <ele>302.6</ele>
        <time>2014-10-18T11:24:57Z</time>
      </trkpt>
      <trkpt lat="45.34813" lon="5.98589">
        <ele>303.1</ele>
        <time>2014-10-18T11:25:00Z</time>
      </trkpt>
      <trkpt lat="45.34823" lon="5.98597">
        <ele>304</ele>
        <time>2014-10-18T11:25:04Z</time>
      </trkpt>
      <trkpt lat="45.34831" lon="5.98603">
        <ele>304.6</ele>
        <time>2014-10-18T11:25:07Z</time>
      </trkpt>
      <trkpt lat="45.3484" lon="5.98609">
        <ele>305</ele>
        <time>2014-10-18T11:25:10Z</time>
      </trkpt>
      <trkpt lat="45.34849" lon="5.98614">
        <ele>305.5</ele>
        <time>2014-10-18T11:25:13Z</time>
      </trkpt>
      <trkpt lat="45.34857" lon="5.98621">
        <ele>305.9</ele>
        <time>2014-10-18T11:25:16Z</time>
      </trkpt>
      <trkpt lat="45.34868" lon="5.98628">
        <ele>306.5</ele>
        <time>2014-10-18T11:25:20Z</time>
      </trkpt>
      <trkpt lat="45.34878" lon="5.98636">
        <ele>307.3</ele>
        <time>2014-10-18T11:25:24Z</time>
      </trkpt>
      <trkpt lat="45.34888" lon="5.98644">
        <ele>307.4</ele>
        <time>2014-10-18T11:25:28Z</time>
      </trkpt>
      <trkpt lat="45.34898" lon="5.98653">
        <ele>308.4</ele>
        <time>2014-10-18T11:25:32Z</time>
      </trkpt>
      <trkpt lat="45.34906" lon="5.98659">
        <ele>308.9</ele>
        <time>2014-10-18T11:25:35Z</time>
      </trkpt>
      <trkpt lat="45.34915" lon="5.98668">
        <ele>310</ele>
        <time>2014-10-18T11:25:39Z</time>
      </trkpt>
      <trkpt lat="45.34925" lon="5.98676">
        <ele>310.5</ele>
        <time>2014-10-18T11:25:43Z</time>
      </trkpt>
      <trkpt lat="45.34935" lon="5.98684">
        <ele>311</ele>
        <time>2014-10-18T11:25:47Z</time>
      </trkpt>
      <trkpt lat="45.34944" lon="5.98691">
        <ele>311.6</ele>
        <time>2014-10-18T11:25:51Z</time>
      </trkpt>
      <trkpt lat="45.34954" lon="5.98699">
        <ele>312.2</ele>
        <time>2014-10-18T11:25:55Z</time>
      </trkpt>
      <trkpt lat="45.34963" lon="5.98707">
        <ele>312.8</ele>
        <time>2014-10-18T11:25:59Z</time>
      </trkpt>
      <trkpt lat="45.34972" lon="5.98714">
        <ele>313.6</ele>
        <time>2014-10-18T11:26:03Z</time>
      </trkpt>
      <trkpt lat="45.34981" lon="5.98721">
        <ele>314</ele>
        <time>2014-10-18T11:26:07Z</time>
      </trkpt>
      <trkpt lat="45.34991" lon="5.98731">
        <ele>314.8</ele>
        <time>2014-10-18T11:26:11Z</time>
      </trkpt>
      <trkpt lat="45.34999" lon="5.9874">
        <ele>315.5</ele>
        <time>2014-10-18T11:26:15Z</time>
      </trkpt>
      <trkpt lat="45.35009" lon="5.9875">
        <ele>316</ele>
        <time>2014-10-18T11:26:19Z</time>
      </trkpt>
      <trkpt lat="45.35018" lon="5.9876">
        <ele>316.6</ele>
        <time>2014-10-18T11:26:23Z</time>
      </trkpt>
      <trkpt lat="45.35026" lon="5.98769">
        <ele>317.3</ele>
        <time>2014-10-18T11:26:27Z</time>
      </trkpt>
      <trkpt lat="45.35033" lon="5.98779">
        <ele>318</ele>
        <time>2014-10-18T11:26:31Z</time>
      </trkpt>
      <trkpt lat="45.35041" lon="5.98789">
        <ele>318.7</ele>
        <time>2014-10-18T11:26:35Z</time>
      </trkpt>
      <trkpt lat="45.35049" lon="5.98801">
        <ele>319.6</ele>
        <time>2014-10-18T11:26:40Z</time>
      </trkpt>
      <trkpt lat="45.35055" lon="5.98809">
        <ele>320</ele>
        <time>2014-10-18T11:26:43Z</time>
      </trkpt>
      <trkpt lat="45.35064" lon="5.98819">
        <ele>320.6</ele>
        <time>2014-10-18T11:26:47Z</time>
      </trkpt>
      <trkpt lat="45.35073" lon="5.98829">
        <ele>321.3</ele>
        <time>2014-10-18T11:26:51Z</time>
      </trkpt>
      <trkpt lat="45.35082" lon="5.98839">
        <ele>322.3</ele>
        <time>2014-10-18T11:26:55Z</time>
      </trkpt>
      <trkpt lat="45.35089" lon="5.98848">
        <ele>322.8</ele>
        <time>2014-10-18T11:26:59Z</time>
      </trkpt>
      <trkpt lat="45.35096" lon="5.98857">
        <ele>323.5</ele>
        <time>2014-10-18T11:27:03Z</time>
      </trkpt>
      <trkpt lat="45.35105" lon="5.98866">
        <ele>324.3</ele>
        <time>2014-10-18T11:27:07Z</time>
      </trkpt>
      <trkpt lat="45.35112" lon="5.98874">
        <ele>324.8</ele>
        <time>2014-10-18T11:27:11Z</time>
      </trkpt>
      <trkpt lat="45.35122" lon="5.98884">
        <ele>325.6</ele>
        <time>2014-10-18T11:27:15Z</time>
      </trkpt>
      <trkpt lat="45.35131" lon="5.98892">
        <ele>326.1</ele>
        <time>2014-10-18T11:27:19Z</time>
      </trkpt>
      <trkpt lat="45.35139" lon="5.989">
        <ele>326.8</ele>
        <time>2014-10-18T11:27:23Z</time>
      </trkpt>
      <trkpt lat="45.35148" lon="5.98908">
        <ele>327.7</ele>
        <time>2014-10-18T11:27:27Z</time>
      </trkpt>
      <trkpt lat="45.35156" lon="5.98916">
        <ele>328.7</ele>
        <time>2014-10-18T11:27:31Z</time>
      </trkpt>
      <trkpt lat="45.35165" lon="5.98925">
        <ele>329.4</ele>
        <time>2014-10-18T11:27:35Z</time>
      </trkpt>
      <trkpt lat="45.35173" lon="5.98933">
        <ele>329.9</ele>
        <time>2014-10-18T11:27:39Z</time>
      </trkpt>
      <trkpt lat="45.35183" lon="5.98942">
        <ele>330.5</ele>
        <time>2014-10-18T11:27:44Z</time>
      </trkpt>
      <trkpt lat="45.3519" lon="5.98951">
        <ele>331.4</ele>
        <time>2014-10-18T11:27:47Z</time>
      </trkpt>
      <trkpt lat="45.352" lon="5.98962">
        <ele>332.1</ele>
        <time>2014-10-18T11:27:51Z</time>
      </trkpt>
      <trkpt lat="45.35208" lon="5.98968">
        <ele>332.7</ele>
        <time>2014-10-18T11:27:54Z</time>
      </trkpt>
      <trkpt lat="45.35217" lon="5.98977">
        <ele>333.5</ele>
        <time>2014-10-18T11:27:58Z</time>
      </trkpt>
      <trkpt lat="45.35224" lon="5.98984">
        <ele>334</ele>
        <time>2014-10-18T11:28:01Z</time>
      </trkpt>
      <trkpt lat="45.35234" lon="5.98993">
        <ele>334.6</ele>
        <time>2014-10-18T11:28:05Z</time>
      </trkpt>
      <trkpt lat="45.35242" lon="5.99003">
        <ele>335.8</ele>
        <time>2014-10-18T11:28:10Z</time>
      </trkpt>
      <trkpt lat="45.35251" lon="5.99013">
        <ele>336.3</ele>
        <time>2014-10-18T11:28:14Z</time>
      </trkpt>
      <trkpt lat="45.3526" lon="5.99022">
        <ele>337.2</ele>
        <time>2014-10-18T11:28:18Z</time>
      </trkpt>
      <trkpt lat="45.35269" lon="5.99029">
        <ele>337.6</ele>
        <time>2014-10-18T11:28:21Z</time>
      </trkpt>
      <trkpt lat="45.35278" lon="5.99038">
        <ele>338.5</ele>
        <time>2014-10-18T11:28:25Z</time>
      </trkpt>
      <trkpt lat="45.35285" lon="5.99046">
        <ele>338.9</ele>
        <time>2014-10-18T11:28:29Z</time>
      </trkpt>
      <trkpt lat="45.35294" lon="5.99056">
        <ele>339.9</ele>
        <time>2014-10-18T11:28:33Z</time>
      </trkpt>
      <trkpt lat="45.35302" lon="5.99069">
        <ele>340.4</ele>
        <time>2014-10-18T11:28:37Z</time>
      </trkpt>
      <trkpt lat="45.3531" lon="5.9908">
        <ele>341.7</ele>
        <time>2014-10-18T11:28:41Z</time>
      </trkpt>
      <trkpt lat="45.35317" lon="5.9909">
        <ele>342.2</ele>
        <time>2014-10-18T11:28:44Z</time>
      </trkpt>
      <trkpt lat="45.35324" lon="5.99103">
        <ele>342.7</ele>
        <time>2014-10-18T11:28:48Z</time>
      </trkpt>
      <trkpt lat="45.35329" lon="5.99115">
        <ele>343.4</ele>
        <time>2014-10-18T11:28:52Z</time>
      </trkpt>
      <trkpt lat="45.35336" lon="5.99124">
        <ele>343.9</ele>
        <time>2014-10-18T11:28:56Z</time>
      </trkpt>
      <trkpt lat="45.35347" lon="5.9913">
        <ele>344.4</ele>
        <time>2014-10-18T11:29:00Z</time>
      </trkpt>
      <trkpt lat="45.35358" lon="5.99135">
        <ele>345</ele>
        <time>2014-10-18T11:29:04Z</time>
      </trkpt>
      <trkpt lat="45.35368" lon="5.9914">
        <ele>346.1</ele>
        <time>2014-10-18T11:29:08Z</time>
      </trkpt>
      <trkpt lat="45.35378" lon="5.99144">
        <ele>347.1</ele>
        <time>2014-10-18T11:29:13Z</time>
      </trkpt>
      <trkpt lat="45.35387" lon="5.99149">
        <ele>348</ele>
        <time>2014-10-18T11:29:17Z</time>
      </trkpt>
      <trkpt lat="45.35394" lon="5.99157">
        <ele>348.6</ele>
        <time>2014-10-18T11:29:20Z</time>
      </trkpt>
      <trkpt lat="45.35402" lon="5.99163">
        <ele>349.8</ele>
        <time>2014-10-18T11:29:24Z</time>
      </trkpt>
      <trkpt lat="45.35411" lon="5.99169">
        <ele>349.9</ele>
        <time>2014-10-18T11:29:28Z</time>
      </trkpt>
      <trkpt lat="45.35421" lon="5.99172">
        <ele>350.9</ele>
        <time>2014-10-18T11:29:32Z</time>
      </trkpt>
      <trkpt lat="45.3543" lon="5.9918">
        <ele>351.8</ele>
        <time>2014-10-18T11:29:37Z</time>
      </trkpt>
      <trkpt lat="45.35439" lon="5.99187">
        <ele>352.8</ele>
        <time>2014-10-18T11:29:42Z</time>
      </trkpt>
      <trkpt lat="45.35449" lon="5.99191">
        <ele>353.6</ele>
        <time>2014-10-18T11:29:46Z</time>
      </trkpt>
      <trkpt lat="45.35457" lon="5.99199">
        <ele>354.7</ele>
        <time>2014-10-18T11:29:51Z</time>
      </trkpt>
      <trkpt lat="45.35468" lon="5.99202">
        <ele>355.4</ele>
        <time>2014-10-18T11:29:55Z</time>
      </trkpt>
      <trkpt lat="45.35479" lon="5.99209">
        <ele>356.4</ele>
        <time>2014-10-18T11:30:00Z</time>
      </trkpt>
      <trkpt lat="45.35488" lon="5.99212">
        <ele>357.3</ele>
        <time>2014-10-18T11:30:04Z</time>
      </trkpt>
      <trkpt lat="45.35496" lon="5.99217">
        <ele>358.2</ele>
        <time>2014-10-18T11:30:08Z</time>
      </trkpt>
      <trkpt lat="45.35506" lon="5.9922">
        <ele>359</ele>
        <time>2014-10-18T11:30:12Z</time>
      </trkpt>
      <trkpt lat="45.35515" lon="5.99224">
        <ele>360</ele>
        <time>2014-10-18T11:30:16Z</time>
      </trkpt>
      <trkpt lat="45.35524" lon="5.99226">
        <ele>360.6</ele>
        <time>2014-10-18T11:30:20Z</time>
      </trkpt>
      <trkpt lat="45.35534" lon="5.99228">
        <ele>361.4</ele>
        <time>2014-10-18T11:30:24Z</time>
      </trkpt>
      <trkpt lat="45.35543" lon="5.9923">
        <ele>362</ele>
        <time>2014-10-18T11:30:28Z</time>
      </trkpt>
      <trkpt lat="45.35553" lon="5.99231">
        <ele>362.9</ele>
        <time>2014-10-18T11:30:32Z</time>
      </trkpt>
      <trkpt lat="45.35562" lon="5.99232">
        <ele>364.1</ele>
        <time>2014-10-18T11:30:36Z</time>
      </trkpt>
      <trkpt lat="45.35572" lon="5.99234">
        <ele>364.8</ele>
        <time>2014-10-18T11:30:40Z</time>
      </trkpt>
      <trkpt lat="45.35581" lon="5.99235">
        <ele>365.6</ele>
        <time>2014-10-18T11:30:44Z</time>
      </trkpt>
      <trkpt lat="45.35591" lon="5.99236">
        <ele>366.6</ele>
        <time>2014-10-18T11:30:48Z</time>
      </trkpt>
      <trkpt lat="45.35601" lon="5.99236">
        <ele>367.2</ele>
        <time>2014-10-18T11:30:52Z</time>
      </trkpt>
      <trkpt lat="45.3561" lon="5.99238">
        <ele>367.9</ele>
        <time>2014-10-18T11:30:56Z</time>
      </trkpt>
      <trkpt lat="45.35619" lon="5.99242">
        <ele>368.7</ele>
        <time>2014-10-18T11:31:00Z</time>
      </trkpt>
      <trkpt lat="45.35628" lon="5.99247">
        <ele>369.7</ele>
        <time>2014-10-18T11:31:04Z</time>
      </trkpt>
      <trkpt lat="45.35637" lon="5.99253">
        <ele>370.3</ele>
        <time>2014-10-18T11:31:08Z</time>
      </trkpt>
      <trkpt lat="45.35645" lon="5.99259">
        <ele>371</ele>
        <time>2014-10-18T11:31:12Z</time>
      </trkpt>
      <trkpt lat="45.35653" lon="5.99265">
        <ele>371.7</ele>
        <time>2014-10-18T11:31:16Z</time>
      </trkpt>
      <trkpt lat="45.35662" lon="5.99272">
        <ele>372.4</ele>
        <time>2014-10-18T11:31:20Z</time>
      </trkpt>
      <trkpt lat="45.35671" lon="5.99277">
        <ele>373.1</ele>
        <time>2014-10-18T11:31:24Z</time>
      </trkpt>
      <trkpt lat="45.35679" lon="5.99283">
        <ele>374</ele>
        <time>2014-10-18T11:31:28Z</time>
      </trkpt>
      <trkpt lat="45.35688" lon="5.99288">
        <ele>374.8</ele>
        <time>2014-10-18T11:31:32Z</time>
      </trkpt>
      <trkpt lat="45.35696" lon="5.99293">
        <ele>375.4</ele>
        <time>2014-10-18T11:31:36Z</time>
      </trkpt>
      <trkpt lat="45.35705" lon="5.99297">
        <ele>375.8</ele>
        <time>2014-10-18T11:31:40Z</time>
      </trkpt>
      <trkpt lat="45.35714" lon="5.99303">
        <ele>376.6</ele>
        <time>2014-10-18T11:31:44Z</time>
      </trkpt>
      <trkpt lat="45.35722" lon="5.99309">
        <ele>377.3</ele>
        <time>2014-10-18T11:31:48Z</time>
      </trkpt>
      <trkpt lat="45.3573" lon="5.99315">
        <ele>378</ele>
        <time>2014-10-18T11:31:52Z</time>
      </trkpt>
      <trkpt lat="45.35739" lon="5.99322">
        <ele>378.7</ele>
        <time>2014-10-18T11:31:56Z</time>
      </trkpt>
      <trkpt lat="45.35746" lon="5.99329">
        <ele>379.4</ele>
        <time>2014-10-18T11:32:00Z</time>
      </trkpt>
      <trkpt lat="45.35754" lon="5.99336">
        <ele>380.2</ele>
        <time>2014-10-18T11:32:04Z</time>
      </trkpt>
      <trkpt lat="45.35763" lon="5.99343">
        <ele>381</ele>
        <time>2014-10-18T11:32:08Z</time>
      </trkpt>
      <trkpt lat="45.3577" lon="5.99351">
        <ele>381.7</ele>
        <time>2014-10-18T11:32:12Z</time>
      </trkpt>
      <trkpt lat="45.35778" lon="5.99358">
        <ele>382.3</ele>
        <time>2014-10-18T11:32:16Z</time>
      </trkpt>
      <trkpt lat="45.35787" lon="5.99368">
        <ele>383.4</ele>
        <time>2014-10-18T11:32:21Z</time>
      </trkpt>
      <trkpt lat="45.35793" lon="5.99379">
        <ele>384.5</ele>
        <time>2014-10-18T11:32:26Z</time>
      </trkpt>
      <trkpt lat="45.35798" lon="5.99394">
        <ele>385.4</ele>
        <time>2014-10-18T11:32:31Z</time>
      </trkpt>
      <trkpt lat="45.35799" lon="5.99406">
        <ele>386.5</ele>
        <time>2014-10-18T11:32:35Z</time>
      </trkpt>
      <trkpt lat="45.35798" lon="5.99422">
        <ele>387.4</ele>
        <time>2014-10-18T11:32:40Z</time>
      </trkpt>
      <trkpt lat="45.35794" lon="5.99437">
        <ele>388.5</ele>
        <time>2014-10-18T11:32:45Z</time>
      </trkpt>
      <trkpt lat="45.35789" lon="5.99448">
        <ele>389.5</ele>
        <time>2014-10-18T11:32:49Z</time>
      </trkpt>
      <trkpt lat="45.35783" lon="5.99459">
        <ele>390.7</ele>
        <time>2014-10-18T11:32:53Z</time>
      </trkpt>
      <trkpt lat="45.35778" lon="5.9947">
        <ele>391.7</ele>
        <time>2014-10-18T11:32:57Z</time>
      </trkpt>
      <trkpt lat="45.35771" lon="5.99481">
        <ele>392.8</ele>
        <time>2014-10-18T11:33:02Z</time>
      </trkpt>
      <trkpt lat="45.35765" lon="5.99492">
        <ele>393.9</ele>
        <time>2014-10-18T11:33:06Z</time>
      </trkpt>
      <trkpt lat="45.35761" lon="5.99503">
        <ele>394.5</ele>
        <time>2014-10-18T11:33:10Z</time>
      </trkpt>
      <trkpt lat="45.35756" lon="5.99516">
        <ele>395</ele>
        <time>2014-10-18T11:33:14Z</time>
      </trkpt>
      <trkpt lat="45.35753" lon="5.99529">
        <ele>395.6</ele>
        <time>2014-10-18T11:33:18Z</time>
      </trkpt>
      <trkpt lat="45.35751" lon="5.99544">
        <ele>396.4</ele>
        <time>2014-10-18T11:33:22Z</time>
      </trkpt>
      <trkpt lat="45.3575" lon="5.99558">
        <ele>397</ele>
        <time>2014-10-18T11:33:26Z</time>
      </trkpt>
      <trkpt lat="45.35752" lon="5.99571">
        <ele>397.9</ele>
        <time>2014-10-18T11:33:30Z</time>
      </trkpt>
      <trkpt lat="45.35758" lon="5.99585">
        <ele>398.8</ele>
        <time>2014-10-18T11:33:34Z</time>
      </trkpt>
      <trkpt lat="45.35765" lon="5.99595">
        <ele>399.4</ele>
        <time>2014-10-18T11:33:38Z</time>
      </trkpt>
      <trkpt lat="45.35773" lon="5.99606">
        <ele>399.8</ele>
        <time>2014-10-18T11:33:42Z</time>
      </trkpt>
      <trkpt lat="45.3578" lon="5.99616">
        <ele>400.4</ele>
        <time>2014-10-18T11:33:46Z</time>
      </trkpt>
      <trkpt lat="45.35788" lon="5.99626">
        <ele>401.4</ele>
        <time>2014-10-18T11:33:50Z</time>
      </trkpt>
      <trkpt lat="45.35794" lon="5.99635">
        <ele>402.3</ele>
        <time>2014-10-18T11:33:54Z</time>
      </trkpt>
      <trkpt lat="45.35799" lon="5.99647">
        <ele>403.1</ele>
        <time>2014-10-18T11:33:59Z</time>
      </trkpt>
      <trkpt lat="45.35806" lon="5.99658">
        <ele>404.5</ele>
        <time>2014-10-18T11:34:04Z</time>
      </trkpt>
      <trkpt lat="45.35812" lon="5.99668">
        <ele>405.2</ele>
        <time>2014-10-18T11:34:08Z</time>
      </trkpt>
      <trkpt lat="45.3582" lon="5.99677">
        <ele>406.4</ele>
        <time>2014-10-18T11:34:13Z</time>
      </trkpt>
      <trkpt lat="45.35828" lon="5.99687">
        <ele>407.5</ele>
        <time>2014-10-18T11:34:18Z</time>
      </trkpt>
      <trkpt lat="45.35836" lon="5.99697">
        <ele>408.2</ele>
        <time>2014-10-18T11:34:23Z</time>
      </trkpt>
      <trkpt lat="45.35841" lon="5.99708">
        <ele>408.9</ele>
        <time>2014-10-18T11:34:27Z</time>
      </trkpt>
      <trkpt lat="45.35846" lon="5.99719">
        <ele>409.4</ele>
        <time>2014-10-18T11:34:31Z</time>
      </trkpt>
      <trkpt lat="45.35852" lon="5.99729">
        <ele>410.2</ele>
        <time>2014-10-18T11:34:35Z</time>
      </trkpt>
      <trkpt lat="45.35858" lon="5.99738">
        <ele>411</ele>
        <time>2014-10-18T11:34:39Z</time>
      </trkpt>
      <trkpt lat="45.35863" lon="5.99749">
        <ele>411.9</ele>
        <time>2014-10-18T11:34:43Z</time>
      </trkpt>
      <trkpt lat="45.35869" lon="5.9976">
        <ele>412.8</ele>
        <time>2014-10-18T11:34:47Z</time>
      </trkpt>
      <trkpt lat="45.35875" lon="5.99773">
        <ele>413.8</ele>
        <time>2014-10-18T11:34:52Z</time>
      </trkpt>
      <trkpt lat="45.3588" lon="5.99784">
        <ele>414.7</ele>
        <time>2014-10-18T11:34:56Z</time>
      </trkpt>
      <trkpt lat="45.35886" lon="5.99797">
        <ele>415.6</ele>
        <time>2014-10-18T11:35:01Z</time>
      </trkpt>
      <trkpt lat="45.35891" lon="5.99807">
        <ele>416.2</ele>
        <time>2014-10-18T11:35:05Z</time>
      </trkpt>
      <trkpt lat="45.35895" lon="5.99819">
        <ele>416.7</ele>
        <time>2014-10-18T11:35:09Z</time>
      </trkpt>
      <trkpt lat="45.35899" lon="5.99831">
        <ele>417.4</ele>
        <time>2014-10-18T11:35:13Z</time>
      </trkpt>
      <trkpt lat="45.35906" lon="5.99841">
        <ele>418</ele>
        <time>2014-10-18T11:35:17Z</time>
      </trkpt>
      <trkpt lat="45.35914" lon="5.99851">
        <ele>418.8</ele>
        <time>2014-10-18T11:35:22Z</time>
      </trkpt>
      <trkpt lat="45.35921" lon="5.99861">
        <ele>419.5</ele>
        <time>2014-10-18T11:35:26Z</time>
      </trkpt>
      <trkpt lat="45.35925" lon="5.99872">
        <ele>420.2</ele>
        <time>2014-10-18T11:35:30Z</time>
      </trkpt>
      <trkpt lat="45.35928" lon="5.99885">
        <ele>421.1</ele>
        <time>2014-10-18T11:35:34Z</time>
      </trkpt>
      <trkpt lat="45.35931" lon="5.99897">
        <ele>421.8</ele>
        <time>2014-10-18T11:35:38Z</time>
      </trkpt>
      <trkpt lat="45.35934" lon="5.99909">
        <ele>422.3</ele>
        <time>2014-10-18T11:35:42Z</time>
      </trkpt>
      <trkpt lat="45.35937" lon="5.99921">
        <ele>422.9</ele>
        <time>2014-10-18T11:35:46Z</time>
      </trkpt>
      <trkpt lat="45.35941" lon="5.99934">
        <ele>423.4</ele>
        <time>2014-10-18T11:35:50Z</time>
      </trkpt>
      <trkpt lat="45.35945" lon="5.99947">
        <ele>423.9</ele>
        <time>2014-10-18T11:35:54Z</time>
      </trkpt>
      <trkpt lat="45.35949" lon="5.99961">
        <ele>424.9</ele>
        <time>2014-10-18T11:35:58Z</time>
      </trkpt>
      <trkpt lat="45.35954" lon="5.99975">
        <ele>425.8</ele>
        <time>2014-10-18T11:36:02Z</time>
      </trkpt>
      <trkpt lat="45.35957" lon="5.99989">
        <ele>426.7</ele>
        <time>2014-10-18T11:36:06Z</time>
      </trkpt>
      <trkpt lat="45.35961" lon="6.00003">
        <ele>427.3</ele>
        <time>2014-10-18T11:36:10Z</time>
      </trkpt>
      <trkpt lat="45.35966" lon="6.00017">
        <ele>427.5</ele>
        <time>2014-10-18T11:36:14Z</time>
      </trkpt>
      <trkpt lat="45.3597" lon="6.0003">
        <ele>428.5</ele>
        <time>2014-10-18T11:36:18Z</time>
      </trkpt>
      <trkpt lat="45.35974" lon="6.00044">
        <ele>428.9</ele>
        <time>2014-10-18T11:36:22Z</time>
      </trkpt>
      <trkpt lat="45.35979" lon="6.00058">
        <ele>429.4</ele>
        <time>2014-10-18T11:36:26Z</time>
      </trkpt>
      <trkpt lat="45.35983" lon="6.00072">
        <ele>430</ele>
        <time>2014-10-18T11:36:30Z</time>
      </trkpt>
      <trkpt lat="45.35989" lon="6.00085">
        <ele>430.9</ele>
        <time>2014-10-18T11:36:34Z</time>
      </trkpt>
      <trkpt lat="45.35996" lon="6.00097">
        <ele>431.5</ele>
        <time>2014-10-18T11:36:38Z</time>
      </trkpt>
      <trkpt lat="45.36003" lon="6.00109">
        <ele>432.1</ele>
        <time>2014-10-18T11:36:42Z</time>
      </trkpt>
      <trkpt lat="45.36011" lon="6.0012">
        <ele>432.8</ele>
        <time>2014-10-18T11:36:46Z</time>
      </trkpt>
      <trkpt lat="45.36019" lon="6.0013">
        <ele>433.6</ele>
        <time>2014-10-18T11:36:50Z</time>
      </trkpt>
      <trkpt lat="45.36029" lon="6.00137">
        <ele>434.3</ele>
        <time>2014-10-18T11:36:54Z</time>
      </trkpt>
      <trkpt lat="45.36039" lon="6.00143">
        <ele>434.7</ele>
        <time>2014-10-18T11:36:58Z</time>
      </trkpt>
      <trkpt lat="45.36049" lon="6.0015">
        <ele>435.3</ele>
        <time>2014-10-18T11:37:02Z</time>
      </trkpt>
      <trkpt lat="45.36058" lon="6.00155">
        <ele>435.3</ele>
        <time>2014-10-18T11:37:05Z</time>
      </trkpt>
      <trkpt lat="45.36067" lon="6.0016">
        <ele>435.6</ele>
        <time>2014-10-18T11:37:08Z</time>
      </trkpt>
      <trkpt lat="45.36077" lon="6.00166">
        <ele>435.8</ele>
        <time>2014-10-18T11:37:11Z</time>
      </trkpt>
      <trkpt lat="45.36087" lon="6.00172">
        <ele>435.8</ele>
        <time>2014-10-18T11:37:14Z</time>
      </trkpt>
      <trkpt lat="45.36097" lon="6.00176">
        <ele>435.8</ele>
        <time>2014-10-18T11:37:17Z</time>
      </trkpt>
      <trkpt lat="45.36109" lon="6.0018">
        <ele>435.7</ele>
        <time>2014-10-18T11:37:20Z</time>
      </trkpt>
      <trkpt lat="45.36121" lon="6.00185">
        <ele>435.8</ele>
        <time>2014-10-18T11:37:23Z</time>
      </trkpt>
      <trkpt lat="45.36134" lon="6.00191">
        <ele>435.7</ele>
        <time>2014-10-18T11:37:26Z</time>
      </trkpt>
      <trkpt lat="45.36146" lon="6.00198">
        <ele>436</ele>
        <time>2014-10-18T11:37:29Z</time>
      </trkpt>
      <trkpt lat="45.36155" lon="6.00201">
        <ele>436</ele>
        <time>2014-10-18T11:37:31Z</time>
      </trkpt>
      <trkpt lat="45.36164" lon="6.00204">
        <ele>435.9</ele>
        <time>2014-10-18T11:37:33Z</time>
      </trkpt>
      <trkpt lat="45.36177" lon="6.00209">
        <ele>435.9</ele>
        <time>2014-10-18T11:37:36Z</time>
      </trkpt>
      <trkpt lat="45.36186" lon="6.00213">
        <ele>435.9</ele>
        <time>2014-10-18T11:37:38Z</time>
      </trkpt>
      <trkpt lat="45.36194" lon="6.00218">
        <ele>436.2</ele>
        <time>2014-10-18T11:37:40Z</time>
      </trkpt>
      <trkpt lat="45.36203" lon="6.00223">
        <ele>436.5</ele>
        <time>2014-10-18T11:37:42Z</time>
      </trkpt>
      <trkpt lat="45.36211" lon="6.00228">
        <ele>436.6</ele>
        <time>2014-10-18T11:37:44Z</time>
      </trkpt>
      <trkpt lat="45.36219" lon="6.00233">
        <ele>436.6</ele>
        <time>2014-10-18T11:37:46Z</time>
      </trkpt>
      <trkpt lat="45.36231" lon="6.00241">
        <ele>436.9</ele>
        <time>2014-10-18T11:37:49Z</time>
      </trkpt>
      <trkpt lat="45.36243" lon="6.00248">
        <ele>437.2</ele>
        <time>2014-10-18T11:37:52Z</time>
      </trkpt>
      <trkpt lat="45.36255" lon="6.00255">
        <ele>437.4</ele>
        <time>2014-10-18T11:37:55Z</time>
      </trkpt>
      <trkpt lat="45.36266" lon="6.00262">
        <ele>437.8</ele>
        <time>2014-10-18T11:37:58Z</time>
      </trkpt>
      <trkpt lat="45.36278" lon="6.00269">
        <ele>438.3</ele>
        <time>2014-10-18T11:38:01Z</time>
      </trkpt>
      <trkpt lat="45.36289" lon="6.00276">
        <ele>439</ele>
        <time>2014-10-18T11:38:04Z</time>
      </trkpt>
      <trkpt lat="45.363" lon="6.00282">
        <ele>439.6</ele>
        <time>2014-10-18T11:38:07Z</time>
      </trkpt>
      <trkpt lat="45.36312" lon="6.00287">
        <ele>439.8</ele>
        <time>2014-10-18T11:38:10Z</time>
      </trkpt>
      <trkpt lat="45.36324" lon="6.00292">
        <ele>440</ele>
        <time>2014-10-18T11:38:13Z</time>
      </trkpt>
      <trkpt lat="45.36335" lon="6.00297">
        <ele>440.7</ele>
        <time>2014-10-18T11:38:16Z</time>
      </trkpt>
      <trkpt lat="45.36346" lon="6.00302">
        <ele>441.4</ele>
        <time>2014-10-18T11:38:19Z</time>
      </trkpt>
      <trkpt lat="45.36358" lon="6.00306">
        <ele>441.6</ele>
        <time>2014-10-18T11:38:22Z</time>
      </trkpt>
      <trkpt lat="45.36369" lon="6.00311">
        <ele>442.3</ele>
        <time>2014-10-18T11:38:25Z</time>
      </trkpt>
      <trkpt lat="45.3638" lon="6.00316">
        <ele>442.8</ele>
        <time>2014-10-18T11:38:28Z</time>
      </trkpt>
      <trkpt lat="45.36391" lon="6.00321">
        <ele>443.1</ele>
        <time>2014-10-18T11:38:31Z</time>
      </trkpt>
      <trkpt lat="45.36402" lon="6.00327">
        <ele>443.5</ele>
        <time>2014-10-18T11:38:34Z</time>
      </trkpt>
      <trkpt lat="45.36412" lon="6.00333">
        <ele>443.6</ele>
        <time>2014-10-18T11:38:37Z</time>
      </trkpt>
      <trkpt lat="45.36423" lon="6.00341">
        <ele>443.7</ele>
        <time>2014-10-18T11:38:40Z</time>
      </trkpt>
      <trkpt lat="45.36434" lon="6.0035">
        <ele>443.8</ele>
        <time>2014-10-18T11:38:43Z</time>
      </trkpt>
      <trkpt lat="45.36442" lon="6.00358">
        <ele>443.9</ele>
        <time>2014-10-18T11:38:45Z</time>
      </trkpt>
      <trkpt lat="45.36449" lon="6.00367">
        <ele>443.7</ele>
        <time>2014-10-18T11:38:47Z</time>
      </trkpt>
      <trkpt lat="45.36456" lon="6.00376">
        <ele>443.6</ele>
        <time>2014-10-18T11:38:49Z</time>
      </trkpt>
      <trkpt lat="45.36463" lon="6.00387">
        <ele>443.4</ele>
        <time>2014-10-18T11:38:51Z</time>
      </trkpt>
      <trkpt lat="45.36469" lon="6.00399">
        <ele>443.3</ele>
        <time>2014-10-18T11:38:53Z</time>
      </trkpt>
      <trkpt lat="45.36475" lon="6.00412">
        <ele>443.3</ele>
        <time>2014-10-18T11:38:55Z</time>
      </trkpt>
      <trkpt lat="45.36481" lon="6.00426">
        <ele>443.1</ele>
        <time>2014-10-18T11:38:57Z</time>
      </trkpt>
      <trkpt lat="45.36487" lon="6.00439">
        <ele>442.8</ele>
        <time>2014-10-18T11:38:59Z</time>
      </trkpt>
      <trkpt lat="45.36493" lon="6.00453">
        <ele>442.9</ele>
        <time>2014-10-18T11:39:01Z</time>
      </trkpt>
      <trkpt lat="45.36499" lon="6.00467">
        <ele>442.8</ele>
        <time>2014-10-18T11:39:03Z</time>
      </trkpt>
      <trkpt lat="45.36505" lon="6.0048">
        <ele>442.6</ele>
        <time>2014-10-18T11:39:05Z</time>
      </trkpt>
      <trkpt lat="45.36512" lon="6.00494">
        <ele>442.5</ele>
        <time>2014-10-18T11:39:07Z</time>
      </trkpt>
      <trkpt lat="45.36517" lon="6.00509">
        <ele>442.4</ele>
        <time>2014-10-18T11:39:09Z</time>
      </trkpt>
      <trkpt lat="45.36521" lon="6.00525">
        <ele>442.3</ele>
        <time>2014-10-18T11:39:11Z</time>
      </trkpt>
      <trkpt lat="45.36523" lon="6.00541">
        <ele>442.2</ele>
        <time>2014-10-18T11:39:13Z</time>
      </trkpt>
      <trkpt lat="45.36526" lon="6.00556">
        <ele>442.4</ele>
        <time>2014-10-18T11:39:15Z</time>
      </trkpt>
      <trkpt lat="45.36527" lon="6.00572">
        <ele>442.5</ele>
        <time>2014-10-18T11:39:17Z</time>
      </trkpt>
      <trkpt lat="45.36528" lon="6.00587">
        <ele>442.9</ele>
        <time>2014-10-18T11:39:19Z</time>
      </trkpt>
      <trkpt lat="45.36529" lon="6.00601">
        <ele>443.2</ele>
        <time>2014-10-18T11:39:21Z</time>
      </trkpt>
      <trkpt lat="45.36529" lon="6.00616">
        <ele>443.3</ele>
        <time>2014-10-18T11:39:23Z</time>
      </trkpt>
      <trkpt lat="45.36528" lon="6.0063">
        <ele>443.4</ele>
        <time>2014-10-18T11:39:25Z</time>
      </trkpt>
      <trkpt lat="45.36527" lon="6.00644">
        <ele>443.4</ele>
        <time>2014-10-18T11:39:27Z</time>
      </trkpt>
      <trkpt lat="45.36528" lon="6.00659">
        <ele>443.5</ele>
        <time>2014-10-18T11:39:29Z</time>
      </trkpt>
      <trkpt lat="45.36529" lon="6.00674">
        <ele>443.6</ele>
        <time>2014-10-18T11:39:31Z</time>
      </trkpt>
      <trkpt lat="45.36532" lon="6.00689">
        <ele>443.5</ele>
        <time>2014-10-18T11:39:33Z</time>
      </trkpt>
      <trkpt lat="45.36535" lon="6.00704">
        <ele>443.4</ele>
        <time>2014-10-18T11:39:35Z</time>
      </trkpt>
      <trkpt lat="45.36538" lon="6.00719">
        <ele>443.5</ele>
        <time>2014-10-18T11:39:37Z</time>
      </trkpt>
      <trkpt lat="45.36542" lon="6.00734">
        <ele>443.6</ele>
        <time>2014-10-18T11:39:39Z</time>
      </trkpt>
      <trkpt lat="45.36547" lon="6.00749">
        <ele>443.6</ele>
        <time>2014-10-18T11:39:41Z</time>
      </trkpt>
      <trkpt lat="45.36551" lon="6.00763">
        <ele>443.5</ele>
        <time>2014-10-18T11:39:43Z</time>
      </trkpt>
      <trkpt lat="45.36555" lon="6.00777">
        <ele>443.7</ele>
        <time>2014-10-18T11:39:45Z</time>
      </trkpt>
      <trkpt lat="45.36558" lon="6.0079">
        <ele>443.7</ele>
        <time>2014-10-18T11:39:47Z</time>
      </trkpt>
      <trkpt lat="45.36562" lon="6.00803">
        <ele>443.6</ele>
        <time>2014-10-18T11:39:49Z</time>
      </trkpt>
      <trkpt lat="45.36565" lon="6.00815">
        <ele>443.7</ele>
        <time>2014-10-18T11:39:51Z</time>
      </trkpt>
      <trkpt lat="45.36567" lon="6.00828">
        <ele>443.9</ele>
        <time>2014-10-18T11:39:53Z</time>
      </trkpt>
      <trkpt lat="45.36571" lon="6.00846">
        <ele>444.1</ele>
        <time>2014-10-18T11:39:56Z</time>
      </trkpt>
      <trkpt lat="45.36574" lon="6.00863">
        <ele>444.6</ele>
        <time>2014-10-18T11:39:59Z</time>
      </trkpt>
      <trkpt lat="45.36576" lon="6.00881">
        <ele>445</ele>
        <time>2014-10-18T11:40:02Z</time>
      </trkpt>
      <trkpt lat="45.36578" lon="6.00899">
        <ele>445.1</ele>
        <time>2014-10-18T11:40:05Z</time>
      </trkpt>
      <trkpt lat="45.3658" lon="6.00916">
        <ele>445.4</ele>
        <time>2014-10-18T11:40:08Z</time>
      </trkpt>
      <trkpt lat="45.36581" lon="6.00934">
        <ele>445.8</ele>
        <time>2014-10-18T11:40:11Z</time>
      </trkpt>
      <trkpt lat="45.36583" lon="6.00951">
        <ele>446</ele>
        <time>2014-10-18T11:40:14Z</time>
      </trkpt>
      <trkpt lat="45.36585" lon="6.00968">
        <ele>446.3</ele>
        <time>2014-10-18T11:40:17Z</time>
      </trkpt>
      <trkpt lat="45.36587" lon="6.00986">
        <ele>446.4</ele>
        <time>2014-10-18T11:40:20Z</time>
      </trkpt>
      <trkpt lat="45.36589" lon="6.01003">
        <ele>446.7</ele>
        <time>2014-10-18T11:40:23Z</time>
      </trkpt>
      <trkpt lat="45.36591" lon="6.01021">
        <ele>447</ele>
        <time>2014-10-18T11:40:26Z</time>
      </trkpt>
      <trkpt lat="45.36592" lon="6.01038">
        <ele>447.5</ele>
        <time>2014-10-18T11:40:29Z</time>
      </trkpt>
      <trkpt lat="45.36593" lon="6.01056">
        <ele>447.9</ele>
        <time>2014-10-18T11:40:32Z</time>
      </trkpt>
      <trkpt lat="45.36592" lon="6.01074">
        <ele>448.3</ele>
        <time>2014-10-18T11:40:35Z</time>
      </trkpt>
      <trkpt lat="45.3659" lon="6.01091">
        <ele>448.9</ele>
        <time>2014-10-18T11:40:38Z</time>
      </trkpt>
      <trkpt lat="45.36588" lon="6.01107">
        <ele>448.9</ele>
        <time>2014-10-18T11:40:41Z</time>
      </trkpt>
      <trkpt lat="45.36587" lon="6.01123">
        <ele>449.1</ele>
        <time>2014-10-18T11:40:44Z</time>
      </trkpt>
      <trkpt lat="45.36585" lon="6.01137">
        <ele>449.3</ele>
        <time>2014-10-18T11:40:47Z</time>
      </trkpt>
      <trkpt lat="45.36584" lon="6.01151">
        <ele>449.2</ele>
        <time>2014-10-18T11:40:50Z</time>
      </trkpt>
      <trkpt lat="45.36584" lon="6.01167">
        <ele>448.7</ele>
        <time>2014-10-18T11:40:53Z</time>
      </trkpt>
      <trkpt lat="45.36583" lon="6.01185">
        <ele>448.6</ele>
        <time>2014-10-18T11:40:56Z</time>
      </trkpt>
      <trkpt lat="45.36584" lon="6.01204">
        <ele>447.8</ele>
        <time>2014-10-18T11:40:59Z</time>
      </trkpt>
      <trkpt lat="45.36587" lon="6.01219">
        <ele>447.7</ele>
        <time>2014-10-18T11:41:01Z</time>
      </trkpt>
      <trkpt lat="45.36591" lon="6.01232">
        <ele>447.4</ele>
        <time>2014-10-18T11:41:03Z</time>
      </trkpt>
      <trkpt lat="45.36596" lon="6.01246">
        <ele>446.9</ele>
        <time>2014-10-18T11:41:05Z</time>
      </trkpt>
      <trkpt lat="45.36603" lon="6.01259">
        <ele>446.7</ele>
        <time>2014-10-18T11:41:07Z</time>
      </trkpt>
      <trkpt lat="45.36612" lon="6.01272">
        <ele>446.4</ele>
        <time>2014-10-18T11:41:09Z</time>
      </trkpt>
      <trkpt lat="45.3662" lon="6.01285">
        <ele>446.2</ele>
        <time>2014-10-18T11:41:11Z</time>
      </trkpt>
      <trkpt lat="45.3663" lon="6.01299">
        <ele>445.4</ele>
        <time>2014-10-18T11:41:13Z</time>
      </trkpt>
      <trkpt lat="45.36639" lon="6.01314">
        <ele>445.1</ele>
        <time>2014-10-18T11:41:15Z</time>
      </trkpt>
      <trkpt lat="45.36649" lon="6.01329">
        <ele>444.7</ele>
        <time>2014-10-18T11:41:17Z</time>
      </trkpt>
      <trkpt lat="45.36659" lon="6.01345">
        <ele>443.9</ele>
        <time>2014-10-18T11:41:19Z</time>
      </trkpt>
      <trkpt lat="45.3667" lon="6.0136">
        <ele>443.5</ele>
        <time>2014-10-18T11:41:21Z</time>
      </trkpt>
      <trkpt lat="45.3668" lon="6.01375">
        <ele>443.3</ele>
        <time>2014-10-18T11:41:23Z</time>
      </trkpt>
      <trkpt lat="45.3669" lon="6.0139">
        <ele>443.1</ele>
        <time>2014-10-18T11:41:25Z</time>
      </trkpt>
      <trkpt lat="45.367" lon="6.01405">
        <ele>442.5</ele>
        <time>2014-10-18T11:41:27Z</time>
      </trkpt>
      <trkpt lat="45.3671" lon="6.01421">
        <ele>442</ele>
        <time>2014-10-18T11:41:29Z</time>
      </trkpt>
      <trkpt lat="45.36718" lon="6.0144">
        <ele>441.2</ele>
        <time>2014-10-18T11:41:31Z</time>
      </trkpt>
      <trkpt lat="45.36724" lon="6.01461">
        <ele>440.8</ele>
        <time>2014-10-18T11:41:33Z</time>
      </trkpt>
      <trkpt lat="45.36727" lon="6.01483">
        <ele>440.1</ele>
        <time>2014-10-18T11:41:35Z</time>
      </trkpt>
      <trkpt lat="45.36728" lon="6.01506">
        <ele>439.5</ele>
        <time>2014-10-18T11:41:37Z</time>
      </trkpt>
      <trkpt lat="45.3673" lon="6.01528">
        <ele>438.7</ele>
        <time>2014-10-18T11:41:39Z</time>
      </trkpt>
      <trkpt lat="45.3673" lon="6.01551">
        <ele>438.1</ele>
        <time>2014-10-18T11:41:41Z</time>
      </trkpt>
      <trkpt lat="45.36731" lon="6.01575">
        <ele>437.3</ele>
        <time>2014-10-18T11:41:43Z</time>
      </trkpt>
      <trkpt lat="45.36731" lon="6.01599">
        <ele>436.7</ele>
        <time>2014-10-18T11:41:45Z</time>
      </trkpt>
      <trkpt lat="45.36732" lon="6.01622">
        <ele>435.9</ele>
        <time>2014-10-18T11:41:47Z</time>
      </trkpt>
      <trkpt lat="45.36733" lon="6.01645">
        <ele>435.6</ele>
        <time>2014-10-18T11:41:49Z</time>
      </trkpt>
      <trkpt lat="45.36733" lon="6.01667">
        <ele>434.9</ele>
        <time>2014-10-18T11:41:51Z</time>
      </trkpt>
      <trkpt lat="45.36735" lon="6.0169">
        <ele>434.3</ele>
        <time>2014-10-18T11:41:53Z</time>
      </trkpt>
      <trkpt lat="45.36736" lon="6.01712">
        <ele>433.9</ele>
        <time>2014-10-18T11:41:55Z</time>
      </trkpt>
      <trkpt lat="45.36737" lon="6.01734">
        <ele>433.5</ele>
        <time>2014-10-18T11:41:57Z</time>
      </trkpt>
      <trkpt lat="45.36738" lon="6.01755">
        <ele>433</ele>
        <time>2014-10-18T11:41:59Z</time>
      </trkpt>
      <trkpt lat="45.36738" lon="6.01776">
        <ele>432.5</ele>
        <time>2014-10-18T11:42:01Z</time>
      </trkpt>
      <trkpt lat="45.36738" lon="6.01795">
        <ele>432.1</ele>
        <time>2014-10-18T11:42:03Z</time>
      </trkpt>
      <trkpt lat="45.36739" lon="6.01814">
        <ele>431.7</ele>
        <time>2014-10-18T11:42:05Z</time>
      </trkpt>
      <trkpt lat="45.36739" lon="6.01833">
        <ele>431.7</ele>
        <time>2014-10-18T11:42:07Z</time>
      </trkpt>
      <trkpt lat="45.36739" lon="6.0185">
        <ele>431.5</ele>
        <time>2014-10-18T11:42:09Z</time>
      </trkpt>
      <trkpt lat="45.3674" lon="6.01866">
        <ele>431.3</ele>
        <time>2014-10-18T11:42:11Z</time>
      </trkpt>
      <trkpt lat="45.3674" lon="6.01881">
        <ele>431.4</ele>
        <time>2014-10-18T11:42:13Z</time>
      </trkpt>
      <trkpt lat="45.36739" lon="6.01895">
        <ele>431.3</ele>
        <time>2014-10-18T11:42:15Z</time>
      </trkpt>
      <trkpt lat="45.36737" lon="6.01912">
        <ele>431.4</ele>
        <time>2014-10-18T11:42:18Z</time>
      </trkpt>
      <trkpt lat="45.36734" lon="6.01928">
        <ele>431.6</ele>
        <time>2014-10-18T11:42:21Z</time>
      </trkpt>
      <trkpt lat="45.36731" lon="6.01943">
        <ele>431.9</ele>
        <time>2014-10-18T11:42:24Z</time>
      </trkpt>
      <trkpt lat="45.36729" lon="6.01957">
        <ele>432.4</ele>
        <time>2014-10-18T11:42:27Z</time>
      </trkpt>
      <trkpt lat="45.36725" lon="6.0197">
        <ele>432.8</ele>
        <time>2014-10-18T11:42:30Z</time>
      </trkpt>
      <trkpt lat="45.36721" lon="6.01985">
        <ele>433.6</ele>
        <time>2014-10-18T11:42:34Z</time>
      </trkpt>
      <trkpt lat="45.36719" lon="6.02">
        <ele>434.1</ele>
        <time>2014-10-18T11:42:38Z</time>
      </trkpt>
      <trkpt lat="45.36715" lon="6.02015">
        <ele>434.5</ele>
        <time>2014-10-18T11:42:42Z</time>
      </trkpt>
      <trkpt lat="45.36711" lon="6.02029">
        <ele>435.2</ele>
        <time>2014-10-18T11:42:46Z</time>
      </trkpt>
      <trkpt lat="45.36705" lon="6.02042">
        <ele>436</ele>
        <time>2014-10-18T11:42:50Z</time>
      </trkpt>
      <trkpt lat="45.36699" lon="6.02055">
        <ele>436.4</ele>
        <time>2014-10-18T11:42:54Z</time>
      </trkpt>
      <trkpt lat="45.36696" lon="6.02069">
        <ele>437.1</ele>
        <time>2014-10-18T11:42:58Z</time>
      </trkpt>
      <trkpt lat="45.36693" lon="6.02084">
        <ele>437.5</ele>
        <time>2014-10-18T11:43:02Z</time>
      </trkpt>
      <trkpt lat="45.3669" lon="6.02096">
        <ele>438</ele>
        <time>2014-10-18T11:43:06Z</time>
      </trkpt>
      <trkpt lat="45.36689" lon="6.02111">
        <ele>438.7</ele>
        <time>2014-10-18T11:43:10Z</time>
      </trkpt>
      <trkpt lat="45.36691" lon="6.02127">
        <ele>439.3</ele>
        <time>2014-10-18T11:43:14Z</time>
      </trkpt>
      <trkpt lat="45.36695" lon="6.02141">
        <ele>439.8</ele>
        <time>2014-10-18T11:43:17Z</time>
      </trkpt>
      <trkpt lat="45.36697" lon="6.02157">
        <ele>440.3</ele>
        <time>2014-10-18T11:43:21Z</time>
      </trkpt>
      <trkpt lat="45.36698" lon="6.02174">
        <ele>441.2</ele>
        <time>2014-10-18T11:43:25Z</time>
      </trkpt>
      <trkpt lat="45.36698" lon="6.02191">
        <ele>441.9</ele>
        <time>2014-10-18T11:43:29Z</time>
      </trkpt>
      <trkpt lat="45.36698" lon="6.02207">
        <ele>442.4</ele>
        <time>2014-10-18T11:43:33Z</time>
      </trkpt>
      <trkpt lat="45.36697" lon="6.02223">
        <ele>442.9</ele>
        <time>2014-10-18T11:43:37Z</time>
      </trkpt>
      <trkpt lat="45.36695" lon="6.02238">
        <ele>443.4</ele>
        <time>2014-10-18T11:43:41Z</time>
      </trkpt>
      <trkpt lat="45.36691" lon="6.02253">
        <ele>444.2</ele>
        <time>2014-10-18T11:43:45Z</time>
      </trkpt>
      <trkpt lat="45.36688" lon="6.02268">
        <ele>444.7</ele>
        <time>2014-10-18T11:43:49Z</time>
      </trkpt>
      <trkpt lat="45.36682" lon="6.02281">
        <ele>445.3</ele>
        <time>2014-10-18T11:43:53Z</time>
      </trkpt>
      <trkpt lat="45.36675" lon="6.02293">
        <ele>446</ele>
        <time>2014-10-18T11:43:57Z</time>
      </trkpt>
      <trkpt lat="45.36667" lon="6.02306">
        <ele>446.4</ele>
        <time>2014-10-18T11:44:01Z</time>
      </trkpt>
      <trkpt lat="45.36661" lon="6.02318">
        <ele>447.2</ele>
        <time>2014-10-18T11:44:05Z</time>
      </trkpt>
      <trkpt lat="45.36653" lon="6.0233">
        <ele>448</ele>
        <time>2014-10-18T11:44:09Z</time>
      </trkpt>
      <trkpt lat="45.36647" lon="6.02343">
        <ele>448.7</ele>
        <time>2014-10-18T11:44:13Z</time>
      </trkpt>
      <trkpt lat="45.36643" lon="6.02355">
        <ele>449.4</ele>
        <time>2014-10-18T11:44:17Z</time>
      </trkpt>
      <trkpt lat="45.36641" lon="6.02369">
        <ele>450.4</ele>
        <time>2014-10-18T11:44:21Z</time>
      </trkpt>
      <trkpt lat="45.36638" lon="6.02382">
        <ele>451.1</ele>
        <time>2014-10-18T11:44:25Z</time>
      </trkpt>
      <trkpt lat="45.36635" lon="6.02395">
        <ele>451.5</ele>
        <time>2014-10-18T11:44:29Z</time>
      </trkpt>
      <trkpt lat="45.36635" lon="6.0241">
        <ele>452.1</ele>
        <time>2014-10-18T11:44:33Z</time>
      </trkpt>
      <trkpt lat="45.36637" lon="6.02425">
        <ele>452.5</ele>
        <time>2014-10-18T11:44:37Z</time>
      </trkpt>
      <trkpt lat="45.3664" lon="6.0244">
        <ele>453.2</ele>
        <time>2014-10-18T11:44:41Z</time>
      </trkpt>
      <trkpt lat="45.36644" lon="6.02455">
        <ele>453.8</ele>
        <time>2014-10-18T11:44:45Z</time>
      </trkpt>
      <trkpt lat="45.36647" lon="6.02468">
        <ele>454.1</ele>
        <time>2014-10-18T11:44:49Z</time>
      </trkpt>
      <trkpt lat="45.36651" lon="6.02483">
        <ele>454.6</ele>
        <time>2014-10-18T11:44:53Z</time>
      </trkpt>
      <trkpt lat="45.36653" lon="6.02498">
        <ele>455.5</ele>
        <time>2014-10-18T11:44:57Z</time>
      </trkpt>
      <trkpt lat="45.36655" lon="6.02513">
        <ele>456.2</ele>
        <time>2014-10-18T11:45:01Z</time>
      </trkpt>
      <trkpt lat="45.36657" lon="6.02527">
        <ele>456.7</ele>
        <time>2014-10-18T11:45:05Z</time>
      </trkpt>
      <trkpt lat="45.36657" lon="6.02542">
        <ele>457.4</ele>
        <time>2014-10-18T11:45:09Z</time>
      </trkpt>
      <trkpt lat="45.36657" lon="6.02558">
        <ele>458</ele>
        <time>2014-10-18T11:45:13Z</time>
      </trkpt>
      <trkpt lat="45.36658" lon="6.02573">
        <ele>458.5</ele>
        <time>2014-10-18T11:45:17Z</time>
      </trkpt>
      <trkpt lat="45.36658" lon="6.02588">
        <ele>459</ele>
        <time>2014-10-18T11:45:21Z</time>
      </trkpt>
      <trkpt lat="45.36658" lon="6.02603">
        <ele>460.1</ele>
        <time>2014-10-18T11:45:25Z</time>
      </trkpt>
      <trkpt lat="45.36658" lon="6.02618">
        <ele>460.9</ele>
        <time>2014-10-18T11:45:29Z</time>
      </trkpt>
      <trkpt lat="45.36659" lon="6.02633">
        <ele>461.7</ele>
        <time>2014-10-18T11:45:33Z</time>
      </trkpt>
      <trkpt lat="45.36662" lon="6.02648">
        <ele>462.3</ele>
        <time>2014-10-18T11:45:37Z</time>
      </trkpt>
      <trkpt lat="45.36664" lon="6.02663">
        <ele>462.9</ele>
        <time>2014-10-18T11:45:41Z</time>
      </trkpt>
      <trkpt lat="45.36668" lon="6.02678">
        <ele>463.3</ele>
        <time>2014-10-18T11:45:45Z</time>
      </trkpt>
      <trkpt lat="45.36672" lon="6.02692">
        <ele>463.9</ele>
        <time>2014-10-18T11:45:49Z</time>
      </trkpt>
      <trkpt lat="45.36676" lon="6.02705">
        <ele>464.6</ele>
        <time>2014-10-18T11:45:53Z</time>
      </trkpt>
      <trkpt lat="45.36679" lon="6.0272">
        <ele>465.1</ele>
        <time>2014-10-18T11:45:57Z</time>
      </trkpt>
      <trkpt lat="45.36681" lon="6.02735">
        <ele>465.7</ele>
        <time>2014-10-18T11:46:01Z</time>
      </trkpt>
      <trkpt lat="45.36682" lon="6.0275">
        <ele>466.3</ele>
        <time>2014-10-18T11:46:05Z</time>
      </trkpt>
      <trkpt lat="45.36682" lon="6.02765">
        <ele>467</ele>
        <time>2014-10-18T11:46:09Z</time>
      </trkpt>
      <trkpt lat="45.36682" lon="6.02781">
        <ele>467.5</ele>
        <time>2014-10-18T11:46:13Z</time>
      </trkpt>
      <trkpt lat="45.36681" lon="6.02796">
        <ele>468.3</ele>
        <time>2014-10-18T11:46:17Z</time>
      </trkpt>
      <trkpt lat="45.36681" lon="6.02812">
        <ele>468.9</ele>
        <time>2014-10-18T11:46:21Z</time>
      </trkpt>
      <trkpt lat="45.36679" lon="6.02825">
        <ele>469.3</ele>
        <time>2014-10-18T11:46:24Z</time>
      </trkpt>
      <trkpt lat="45.36679" lon="6.02839">
        <ele>469.9</ele>
        <time>2014-10-18T11:46:27Z</time>
      </trkpt>
      <trkpt lat="45.36678" lon="6.02853">
        <ele>470.6</ele>
        <time>2014-10-18T11:46:30Z</time>
      </trkpt>
      <trkpt lat="45.36677" lon="6.02866">
        <ele>471</ele>
        <time>2014-10-18T11:46:33Z</time>
      </trkpt>
      <trkpt lat="45.36675" lon="6.0288">
        <ele>471.6</ele>
        <time>2014-10-18T11:46:36Z</time>
      </trkpt>
      <trkpt lat="45.36674" lon="6.02893">
        <ele>472.2</ele>
        <time>2014-10-18T11:46:39Z</time>
      </trkpt>
      <trkpt lat="45.36673" lon="6.02907">
        <ele>472.8</ele>
        <time>2014-10-18T11:46:42Z</time>
      </trkpt>
      <trkpt lat="45.36672" lon="6.0292">
        <ele>473.4</ele>
        <time>2014-10-18T11:46:45Z</time>
      </trkpt>
      <trkpt lat="45.36671" lon="6.02934">
        <ele>474</ele>
        <time>2014-10-18T11:46:48Z</time>
      </trkpt>
      <trkpt lat="45.3667" lon="6.02947">
        <ele>474.4</ele>
        <time>2014-10-18T11:46:51Z</time>
      </trkpt>
      <trkpt lat="45.3667" lon="6.0296">
        <ele>474.6</ele>
        <time>2014-10-18T11:46:54Z</time>
      </trkpt>
      <trkpt lat="45.36669" lon="6.02973">
        <ele>475.2</ele>
        <time>2014-10-18T11:46:57Z</time>
      </trkpt>
      <trkpt lat="45.36668" lon="6.02986">
        <ele>475.4</ele>
        <time>2014-10-18T11:47:00Z</time>
      </trkpt>
      <trkpt lat="45.36667" lon="6.02999">
        <ele>475.9</ele>
        <time>2014-10-18T11:47:03Z</time>
      </trkpt>
      <trkpt lat="45.36666" lon="6.03013">
        <ele>476.4</ele>
        <time>2014-10-18T11:47:06Z</time>
      </trkpt>
      <trkpt lat="45.36665" lon="6.03027">
        <ele>476.9</ele>
        <time>2014-10-18T11:47:09Z</time>
      </trkpt>
      <trkpt lat="45.36665" lon="6.03041">
        <ele>477.2</ele>
        <time>2014-10-18T11:47:12Z</time>
      </trkpt>
      <trkpt lat="45.36664" lon="6.03056">
        <ele>477.4</ele>
        <time>2014-10-18T11:47:15Z</time>
      </trkpt>
      <trkpt lat="45.36664" lon="6.03071">
        <ele>477.8</ele>
        <time>2014-10-18T11:47:18Z</time>
      </trkpt>
      <trkpt lat="45.36663" lon="6.03087">
        <ele>477.9</ele>
        <time>2014-10-18T11:47:21Z</time>
      </trkpt>
      <trkpt lat="45.36662" lon="6.03104">
        <ele>478</ele>
        <time>2014-10-18T11:47:24Z</time>
      </trkpt>
      <trkpt lat="45.36663" lon="6.0312">
        <ele>478.4</ele>
        <time>2014-10-18T11:47:27Z</time>
      </trkpt>
      <trkpt lat="45.36663" lon="6.03137">
        <ele>478.4</ele>
        <time>2014-10-18T11:47:30Z</time>
      </trkpt>
      <trkpt lat="45.36664" lon="6.03154">
        <ele>478.4</ele>
        <time>2014-10-18T11:47:33Z</time>
      </trkpt>
      <trkpt lat="45.36665" lon="6.03171">
        <ele>478.3</ele>
        <time>2014-10-18T11:47:36Z</time>
      </trkpt>
      <trkpt lat="45.36666" lon="6.03188">
        <ele>478.3</ele>
        <time>2014-10-18T11:47:39Z</time>
      </trkpt>
      <trkpt lat="45.36668" lon="6.03205">
        <ele>478.6</ele>
        <time>2014-10-18T11:47:42Z</time>
      </trkpt>
      <trkpt lat="45.36669" lon="6.03223">
        <ele>478.8</ele>
        <time>2014-10-18T11:47:45Z</time>
      </trkpt>
      <trkpt lat="45.3667" lon="6.0324">
        <ele>478.9</ele>
        <time>2014-10-18T11:47:48Z</time>
      </trkpt>
      <trkpt lat="45.36672" lon="6.03258">
        <ele>479</ele>
        <time>2014-10-18T11:47:51Z</time>
      </trkpt>
      <trkpt lat="45.36673" lon="6.03276">
        <ele>479</ele>
        <time>2014-10-18T11:47:54Z</time>
      </trkpt>
      <trkpt lat="45.36673" lon="6.03293">
        <ele>479.3</ele>
        <time>2014-10-18T11:47:57Z</time>
      </trkpt>
      <trkpt lat="45.36671" lon="6.03308">
        <ele>479.4</ele>
        <time>2014-10-18T11:48:00Z</time>
      </trkpt>
      <trkpt lat="45.36666" lon="6.03322">
        <ele>478.7</ele>
        <time>2014-10-18T11:48:03Z</time>
      </trkpt>
      <trkpt lat="45.3666" lon="6.03331">
        <ele>477.9</ele>
        <time>2014-10-18T11:48:06Z</time>
      </trkpt>
      <trkpt lat="45.36662" lon="6.03345">
        <ele>476.5</ele>
        <time>2014-10-18T11:48:17Z</time>
      </trkpt>
      <trkpt lat="45.36667" lon="6.03356">
        <ele>477.5</ele>
        <time>2014-10-18T11:48:23Z</time>
      </trkpt>
      <trkpt lat="45.36674" lon="6.03367">
        <ele>478.4</ele>
        <time>2014-10-18T11:48:27Z</time>
      </trkpt>
      <trkpt lat="45.3668" lon="6.03379">
        <ele>479.6</ele>
        <time>2014-10-18T11:48:32Z</time>
      </trkpt>
      <trkpt lat="45.36684" lon="6.03392">
        <ele>480.3</ele>
        <time>2014-10-18T11:48:36Z</time>
      </trkpt>
      <trkpt lat="45.36685" lon="6.03406">
        <ele>480.7</ele>
        <time>2014-10-18T11:48:40Z</time>
      </trkpt>
      <trkpt lat="45.36686" lon="6.03423">
        <ele>481.1</ele>
        <time>2014-10-18T11:48:44Z</time>
      </trkpt>
      <trkpt lat="45.36686" lon="6.03437">
        <ele>481.4</ele>
        <time>2014-10-18T11:48:47Z</time>
      </trkpt>
      <trkpt lat="45.36688" lon="6.03451">
        <ele>481.5</ele>
        <time>2014-10-18T11:48:50Z</time>
      </trkpt>
      <trkpt lat="45.36691" lon="6.03465">
        <ele>481.8</ele>
        <time>2014-10-18T11:48:53Z</time>
      </trkpt>
      <trkpt lat="45.36694" lon="6.0348">
        <ele>481.9</ele>
        <time>2014-10-18T11:48:56Z</time>
      </trkpt>
      <trkpt lat="45.36697" lon="6.03495">
        <ele>482.2</ele>
        <time>2014-10-18T11:48:59Z</time>
      </trkpt>
      <trkpt lat="45.36701" lon="6.03511">
        <ele>482.3</ele>
        <time>2014-10-18T11:49:02Z</time>
      </trkpt>
      <trkpt lat="45.36704" lon="6.03527">
        <ele>482.5</ele>
        <time>2014-10-18T11:49:05Z</time>
      </trkpt>
      <trkpt lat="45.36708" lon="6.03544">
        <ele>482.7</ele>
        <time>2014-10-18T11:49:08Z</time>
      </trkpt>
      <trkpt lat="45.36711" lon="6.0356">
        <ele>483</ele>
        <time>2014-10-18T11:49:11Z</time>
      </trkpt>
      <trkpt lat="45.36715" lon="6.03577">
        <ele>483.2</ele>
        <time>2014-10-18T11:49:14Z</time>
      </trkpt>
      <trkpt lat="45.36718" lon="6.03593">
        <ele>483.5</ele>
        <time>2014-10-18T11:49:17Z</time>
      </trkpt>
      <trkpt lat="45.36721" lon="6.0361">
        <ele>483.7</ele>
        <time>2014-10-18T11:49:20Z</time>
      </trkpt>
      <trkpt lat="45.36724" lon="6.03627">
        <ele>484</ele>
        <time>2014-10-18T11:49:23Z</time>
      </trkpt>
      <trkpt lat="45.36728" lon="6.03643">
        <ele>484.2</ele>
        <time>2014-10-18T11:49:26Z</time>
      </trkpt>
      <trkpt lat="45.36731" lon="6.03659">
        <ele>484.7</ele>
        <time>2014-10-18T11:49:29Z</time>
      </trkpt>
      <trkpt lat="45.36733" lon="6.03675">
        <ele>484.9</ele>
        <time>2014-10-18T11:49:32Z</time>
      </trkpt>
      <trkpt lat="45.36735" lon="6.03691">
        <ele>485.2</ele>
        <time>2014-10-18T11:49:35Z</time>
      </trkpt>
      <trkpt lat="45.36737" lon="6.03708">
        <ele>485.4</ele>
        <time>2014-10-18T11:49:38Z</time>
      </trkpt>
      <trkpt lat="45.36738" lon="6.03724">
        <ele>485.6</ele>
        <time>2014-10-18T11:49:41Z</time>
      </trkpt>
      <trkpt lat="45.3674" lon="6.03741">
        <ele>485.9</ele>
        <time>2014-10-18T11:49:44Z</time>
      </trkpt>
      <trkpt lat="45.36741" lon="6.03758">
        <ele>486.1</ele>
        <time>2014-10-18T11:49:47Z</time>
      </trkpt>
      <trkpt lat="45.36742" lon="6.03775">
        <ele>486</ele>
        <time>2014-10-18T11:49:50Z</time>
      </trkpt>
      <trkpt lat="45.36743" lon="6.03792">
        <ele>486.2</ele>
        <time>2014-10-18T11:49:53Z</time>
      </trkpt>
      <trkpt lat="45.36744" lon="6.03809">
        <ele>486.2</ele>
        <time>2014-10-18T11:49:56Z</time>
      </trkpt>
      <trkpt lat="45.36745" lon="6.03825">
        <ele>486.7</ele>
        <time>2014-10-18T11:49:59Z</time>
      </trkpt>
      <trkpt lat="45.36746" lon="6.03842">
        <ele>487</ele>
        <time>2014-10-18T11:50:02Z</time>
      </trkpt>
      <trkpt lat="45.36746" lon="6.03858">
        <ele>487</ele>
        <time>2014-10-18T11:50:05Z</time>
      </trkpt>
      <trkpt lat="45.36747" lon="6.03874">
        <ele>487.2</ele>
        <time>2014-10-18T11:50:08Z</time>
      </trkpt>
      <trkpt lat="45.36748" lon="6.03889">
        <ele>487.4</ele>
        <time>2014-10-18T11:50:11Z</time>
      </trkpt>
      <trkpt lat="45.36749" lon="6.03904">
        <ele>487.8</ele>
        <time>2014-10-18T11:50:14Z</time>
      </trkpt>
      <trkpt lat="45.3675" lon="6.03919">
        <ele>488.1</ele>
        <time>2014-10-18T11:50:17Z</time>
      </trkpt>
      <trkpt lat="45.36751" lon="6.03934">
        <ele>488.1</ele>
        <time>2014-10-18T11:50:20Z</time>
      </trkpt>
      <trkpt lat="45.36752" lon="6.03949">
        <ele>488.5</ele>
        <time>2014-10-18T11:50:23Z</time>
      </trkpt>
      <trkpt lat="45.36753" lon="6.03964">
        <ele>488.8</ele>
        <time>2014-10-18T11:50:26Z</time>
      </trkpt>
      <trkpt lat="45.36755" lon="6.0398">
        <ele>489.2</ele>
        <time>2014-10-18T11:50:29Z</time>
      </trkpt>
      <trkpt lat="45.36756" lon="6.03995">
        <ele>489.3</ele>
        <time>2014-10-18T11:50:32Z</time>
      </trkpt>
      <trkpt lat="45.36757" lon="6.0401">
        <ele>489.6</ele>
        <time>2014-10-18T11:50:35Z</time>
      </trkpt>
      <trkpt lat="45.36758" lon="6.04025">
        <ele>490</ele>
        <time>2014-10-18T11:50:38Z</time>
      </trkpt>
      <trkpt lat="45.36759" lon="6.0404">
        <ele>490.1</ele>
        <time>2014-10-18T11:50:41Z</time>
      </trkpt>
      <trkpt lat="45.3676" lon="6.04055">
        <ele>490.6</ele>
        <time>2014-10-18T11:50:44Z</time>
      </trkpt>
      <trkpt lat="45.36762" lon="6.0407">
        <ele>491.2</ele>
        <time>2014-10-18T11:50:47Z</time>
      </trkpt>
      <trkpt lat="45.36763" lon="6.04084">
        <ele>491.5</ele>
        <time>2014-10-18T11:50:50Z</time>
      </trkpt>
      <trkpt lat="45.36764" lon="6.04099">
        <ele>492.2</ele>
        <time>2014-10-18T11:50:53Z</time>
      </trkpt>
      <trkpt lat="45.36765" lon="6.04114">
        <ele>492.5</ele>
        <time>2014-10-18T11:50:56Z</time>
      </trkpt>
      <trkpt lat="45.36766" lon="6.04129">
        <ele>493.1</ele>
        <time>2014-10-18T11:50:59Z</time>
      </trkpt>
      <trkpt lat="45.36766" lon="6.04144">
        <ele>493.4</ele>
        <time>2014-10-18T11:51:02Z</time>
      </trkpt>
      <trkpt lat="45.36766" lon="6.04158">
        <ele>493.7</ele>
        <time>2014-10-18T11:51:05Z</time>
      </trkpt>
      <trkpt lat="45.36767" lon="6.04173">
        <ele>494.4</ele>
        <time>2014-10-18T11:51:08Z</time>
      </trkpt>
      <trkpt lat="45.36768" lon="6.04188">
        <ele>494.9</ele>
        <time>2014-10-18T11:51:11Z</time>
      </trkpt>
      <trkpt lat="45.36768" lon="6.04202">
        <ele>495.3</ele>
        <time>2014-10-18T11:51:14Z</time>
      </trkpt>
      <trkpt lat="45.36769" lon="6.04217">
        <ele>495.8</ele>
        <time>2014-10-18T11:51:17Z</time>
      </trkpt>
      <trkpt lat="45.3677" lon="6.04232">
        <ele>496.3</ele>
        <time>2014-10-18T11:51:20Z</time>
      </trkpt>
      <trkpt lat="45.36771" lon="6.04246">
        <ele>496.7</ele>
        <time>2014-10-18T11:51:23Z</time>
      </trkpt>
      <trkpt lat="45.36772" lon="6.04261">
        <ele>497.3</ele>
        <time>2014-10-18T11:51:26Z</time>
      </trkpt>
      <trkpt lat="45.36773" lon="6.04276">
        <ele>497.9</ele>
        <time>2014-10-18T11:51:29Z</time>
      </trkpt>
      <trkpt lat="45.36774" lon="6.0429">
        <ele>498.4</ele>
        <time>2014-10-18T11:51:32Z</time>
      </trkpt>
      <trkpt lat="45.36775" lon="6.04305">
        <ele>499.3</ele>
        <time>2014-10-18T11:51:35Z</time>
      </trkpt>
      <trkpt lat="45.36776" lon="6.0432">
        <ele>500</ele>
        <time>2014-10-18T11:51:38Z</time>
      </trkpt>
      <trkpt lat="45.36777" lon="6.04335">
        <ele>500.4</ele>
        <time>2014-10-18T11:51:41Z</time>
      </trkpt>
      <trkpt lat="45.36778" lon="6.04349">
        <ele>501</ele>
        <time>2014-10-18T11:51:44Z</time>
      </trkpt>
      <trkpt lat="45.36779" lon="6.04363">
        <ele>501.3</ele>
        <time>2014-10-18T11:51:47Z</time>
      </trkpt>
      <trkpt lat="45.3678" lon="6.04377">
        <ele>502.2</ele>
        <time>2014-10-18T11:51:50Z</time>
      </trkpt>
      <trkpt lat="45.36782" lon="6.04392">
        <ele>502.8</ele>
        <time>2014-10-18T11:51:53Z</time>
      </trkpt>
      <trkpt lat="45.36785" lon="6.04407">
        <ele>503.1</ele>
        <time>2014-10-18T11:51:56Z</time>
      </trkpt>
      <trkpt lat="45.36787" lon="6.04421">
        <ele>503.5</ele>
        <time>2014-10-18T11:51:59Z</time>
      </trkpt>
      <trkpt lat="45.3679" lon="6.04436">
        <ele>503.9</ele>
        <time>2014-10-18T11:52:02Z</time>
      </trkpt>
      <trkpt lat="45.36794" lon="6.0445">
        <ele>504.4</ele>
        <time>2014-10-18T11:52:05Z</time>
      </trkpt>
      <trkpt lat="45.36798" lon="6.04464">
        <ele>505.1</ele>
        <time>2014-10-18T11:52:08Z</time>
      </trkpt>
      <trkpt lat="45.36802" lon="6.04479">
        <ele>505.6</ele>
        <time>2014-10-18T11:52:11Z</time>
      </trkpt>
      <trkpt lat="45.36806" lon="6.04493">
        <ele>506.3</ele>
        <time>2014-10-18T11:52:14Z</time>
      </trkpt>
      <trkpt lat="45.3681" lon="6.04508">
        <ele>506.7</ele>
        <time>2014-10-18T11:52:17Z</time>
      </trkpt>
      <trkpt lat="45.36815" lon="6.04521">
        <ele>507.3</ele>
        <time>2014-10-18T11:52:20Z</time>
      </trkpt>
      <trkpt lat="45.3682" lon="6.04535">
        <ele>508.1</ele>
        <time>2014-10-18T11:52:23Z</time>
      </trkpt>
      <trkpt lat="45.36825" lon="6.04548">
        <ele>508.6</ele>
        <time>2014-10-18T11:52:26Z</time>
      </trkpt>
      <trkpt lat="45.3683" lon="6.04561">
        <ele>509.5</ele>
        <time>2014-10-18T11:52:29Z</time>
      </trkpt>
      <trkpt lat="45.36835" lon="6.04574">
        <ele>509.8</ele>
        <time>2014-10-18T11:52:32Z</time>
      </trkpt>
      <trkpt lat="45.36841" lon="6.04587">
        <ele>510.5</ele>
        <time>2014-10-18T11:52:35Z</time>
      </trkpt>
      <trkpt lat="45.36847" lon="6.04599">
        <ele>511.2</ele>
        <time>2014-10-18T11:52:38Z</time>
      </trkpt>
      <trkpt lat="45.36853" lon="6.04611">
        <ele>511.9</ele>
        <time>2014-10-18T11:52:41Z</time>
      </trkpt>
      <trkpt lat="45.36858" lon="6.04623">
        <ele>512.5</ele>
        <time>2014-10-18T11:52:44Z</time>
      </trkpt>
      <trkpt lat="45.36865" lon="6.04635">
        <ele>513.1</ele>
        <time>2014-10-18T11:52:47Z</time>
      </trkpt>
      <trkpt lat="45.36872" lon="6.04647">
        <ele>513.5</ele>
        <time>2014-10-18T11:52:50Z</time>
      </trkpt>
      <trkpt lat="45.36878" lon="6.04658">
        <ele>514.3</ele>
        <time>2014-10-18T11:52:53Z</time>
      </trkpt>
      <trkpt lat="45.36885" lon="6.0467">
        <ele>515</ele>
        <time>2014-10-18T11:52:56Z</time>
      </trkpt>
      <trkpt lat="45.36892" lon="6.04681">
        <ele>515.6</ele>
        <time>2014-10-18T11:52:59Z</time>
      </trkpt>
      <trkpt lat="45.369" lon="6.04691">
        <ele>516.3</ele>
        <time>2014-10-18T11:53:02Z</time>
      </trkpt>
      <trkpt lat="45.36907" lon="6.04701">
        <ele>516.7</ele>
        <time>2014-10-18T11:53:05Z</time>
      </trkpt>
      <trkpt lat="45.36914" lon="6.04711">
        <ele>517.4</ele>
        <time>2014-10-18T11:53:08Z</time>
      </trkpt>
      <trkpt lat="45.36923" lon="6.0472">
        <ele>518.2</ele>
        <time>2014-10-18T11:53:11Z</time>
      </trkpt>
      <trkpt lat="45.36931" lon="6.0473">
        <ele>518.6</ele>
        <time>2014-10-18T11:53:14Z</time>
      </trkpt>
      <trkpt lat="45.36939" lon="6.04739">
        <ele>519.2</ele>
        <time>2014-10-18T11:53:17Z</time>
      </trkpt>
      <trkpt lat="45.36947" lon="6.04749">
        <ele>519.5</ele>
        <time>2014-10-18T11:53:20Z</time>
      </trkpt>
      <trkpt lat="45.36956" lon="6.04758">
        <ele>519.8</ele>
        <time>2014-10-18T11:53:23Z</time>
      </trkpt>
      <trkpt lat="45.36964" lon="6.04768">
        <ele>520.3</ele>
        <time>2014-10-18T11:53:26Z</time>
      </trkpt>
      <trkpt lat="45.36972" lon="6.04777">
        <ele>521</ele>
        <time>2014-10-18T11:53:29Z</time>
      </trkpt>
      <trkpt lat="45.36981" lon="6.04787">
        <ele>521.4</ele>
        <time>2014-10-18T11:53:32Z</time>
      </trkpt>
      <trkpt lat="45.36989" lon="6.04796">
        <ele>521.8</ele>
        <time>2014-10-18T11:53:35Z</time>
      </trkpt>
      <trkpt lat="45.36997" lon="6.04806">
        <ele>522.2</ele>
        <time>2014-10-18T11:53:38Z</time>
      </trkpt>
      <trkpt lat="45.37005" lon="6.04816">
        <ele>522.6</ele>
        <time>2014-10-18T11:53:41Z</time>
      </trkpt>
      <trkpt lat="45.37013" lon="6.04826">
        <ele>523</ele>
        <time>2014-10-18T11:53:44Z</time>
      </trkpt>
      <trkpt lat="45.37021" lon="6.04837">
        <ele>523.2</ele>
        <time>2014-10-18T11:53:47Z</time>
      </trkpt>
      <trkpt lat="45.37028" lon="6.04848">
        <ele>523.4</ele>
        <time>2014-10-18T11:53:50Z</time>
      </trkpt>
      <trkpt lat="45.37036" lon="6.04859">
        <ele>523.9</ele>
        <time>2014-10-18T11:53:53Z</time>
      </trkpt>
      <trkpt lat="45.37042" lon="6.04871">
        <ele>524.2</ele>
        <time>2014-10-18T11:53:56Z</time>
      </trkpt>
      <trkpt lat="45.37048" lon="6.04883">
        <ele>524.2</ele>
        <time>2014-10-18T11:53:59Z</time>
      </trkpt>
      <trkpt lat="45.37054" lon="6.04895">
        <ele>524.5</ele>
        <time>2014-10-18T11:54:02Z</time>
      </trkpt>
      <trkpt lat="45.37059" lon="6.04907">
        <ele>524.7</ele>
        <time>2014-10-18T11:54:05Z</time>
      </trkpt>
      <trkpt lat="45.37064" lon="6.04919">
        <ele>525.2</ele>
        <time>2014-10-18T11:54:08Z</time>
      </trkpt>
      <trkpt lat="45.37068" lon="6.04932">
        <ele>525.4</ele>
        <time>2014-10-18T11:54:11Z</time>
      </trkpt>
      <trkpt lat="45.37073" lon="6.04944">
        <ele>525.5</ele>
        <time>2014-10-18T11:54:14Z</time>
      </trkpt>
      <trkpt lat="45.37078" lon="6.04956">
        <ele>525.7</ele>
        <time>2014-10-18T11:54:17Z</time>
      </trkpt>
      <trkpt lat="45.37082" lon="6.04968">
        <ele>525.9</ele>
        <time>2014-10-18T11:54:20Z</time>
      </trkpt>
      <trkpt lat="45.37081" lon="6.04981">
        <ele>526.4</ele>
        <time>2014-10-18T11:54:24Z</time>
      </trkpt>
      <trkpt lat="45.37076" lon="6.04994">
        <ele>527.1</ele>
        <time>2014-10-18T11:54:29Z</time>
      </trkpt>
      <trkpt lat="45.37071" lon="6.05005">
        <ele>528</ele>
        <time>2014-10-18T11:54:33Z</time>
      </trkpt>
      <trkpt lat="45.37065" lon="6.05015">
        <ele>528.6</ele>
        <time>2014-10-18T11:54:37Z</time>
      </trkpt>
      <trkpt lat="45.37058" lon="6.05023">
        <ele>529.3</ele>
        <time>2014-10-18T11:54:41Z</time>
      </trkpt>
      <trkpt lat="45.37051" lon="6.05033">
        <ele>530.4</ele>
        <time>2014-10-18T11:54:46Z</time>
      </trkpt>
      <trkpt lat="45.37046" lon="6.05046">
        <ele>531.3</ele>
        <time>2014-10-18T11:54:51Z</time>
      </trkpt>
      <trkpt lat="45.37039" lon="6.05056">
        <ele>532.6</ele>
        <time>2014-10-18T11:54:56Z</time>
      </trkpt>
      <trkpt lat="45.3703" lon="6.05064">
        <ele>533.7</ele>
        <time>2014-10-18T11:55:01Z</time>
      </trkpt>
      <trkpt lat="45.37022" lon="6.05072">
        <ele>534.8</ele>
        <time>2014-10-18T11:55:06Z</time>
      </trkpt>
      <trkpt lat="45.37014" lon="6.05079">
        <ele>535.8</ele>
        <time>2014-10-18T11:55:11Z</time>
      </trkpt>
      <trkpt lat="45.37006" lon="6.05087">
        <ele>537.1</ele>
        <time>2014-10-18T11:55:16Z</time>
      </trkpt>
      <trkpt lat="45.36997" lon="6.05094">
        <ele>538.4</ele>
        <time>2014-10-18T11:55:21Z</time>
      </trkpt>
      <trkpt lat="45.36989" lon="6.05102">
        <ele>539.6</ele>
        <time>2014-10-18T11:55:26Z</time>
      </trkpt>
      <trkpt lat="45.3698" lon="6.05107">
        <ele>540.5</ele>
        <time>2014-10-18T11:55:31Z</time>
      </trkpt>
      <trkpt lat="45.36972" lon="6.05117">
        <ele>541.4</ele>
        <time>2014-10-18T11:55:36Z</time>
      </trkpt>
      <trkpt lat="45.36964" lon="6.05126">
        <ele>542.9</ele>
        <time>2014-10-18T11:55:41Z</time>
      </trkpt>
      <trkpt lat="45.36957" lon="6.05135">
        <ele>544.1</ele>
        <time>2014-10-18T11:55:46Z</time>
      </trkpt>
      <trkpt lat="45.36948" lon="6.05143">
        <ele>545.3</ele>
        <time>2014-10-18T11:55:51Z</time>
      </trkpt>
      <trkpt lat="45.3694" lon="6.05152">
        <ele>546.3</ele>
        <time>2014-10-18T11:55:56Z</time>
      </trkpt>
      <trkpt lat="45.36933" lon="6.05161">
        <ele>547.1</ele>
        <time>2014-10-18T11:56:01Z</time>
      </trkpt>
      <trkpt lat="45.36926" lon="6.0517">
        <ele>548</ele>
        <time>2014-10-18T11:56:06Z</time>
      </trkpt>
      <trkpt lat="45.36917" lon="6.05179">
        <ele>549.1</ele>
        <time>2014-10-18T11:56:11Z</time>
      </trkpt>
      <trkpt lat="45.36909" lon="6.05188">
        <ele>550.1</ele>
        <time>2014-10-18T11:56:16Z</time>
      </trkpt>
      <trkpt lat="45.36901" lon="6.05197">
        <ele>550.9</ele>
        <time>2014-10-18T11:56:21Z</time>
      </trkpt>
      <trkpt lat="45.36892" lon="6.05205">
        <ele>552</ele>
        <time>2014-10-18T11:56:26Z</time>
      </trkpt>
      <trkpt lat="45.36885" lon="6.05213">
        <ele>552.8</ele>
        <time>2014-10-18T11:56:31Z</time>
      </trkpt>
      <trkpt lat="45.36875" lon="6.05215">
        <ele>553.7</ele>
        <time>2014-10-18T11:56:36Z</time>
      </trkpt>
      <trkpt lat="45.36865" lon="6.05212">
        <ele>554.6</ele>
        <time>2014-10-18T11:56:41Z</time>
      </trkpt>
      <trkpt lat="45.36856" lon="6.05203">
        <ele>555.7</ele>
        <time>2014-10-18T11:56:46Z</time>
      </trkpt>
      <trkpt lat="45.36849" lon="6.05195">
        <ele>555.9</ele>
        <time>2014-10-18T11:56:51Z</time>
      </trkpt>
      <trkpt lat="45.36842" lon="6.05184">
        <ele>556.6</ele>
        <time>2014-10-18T11:56:56Z</time>
      </trkpt>
      <trkpt lat="45.36835" lon="6.05174">
        <ele>557.2</ele>
        <time>2014-10-18T11:57:00Z</time>
      </trkpt>
      <trkpt lat="45.36828" lon="6.05165">
        <ele>557.8</ele>
        <time>2014-10-18T11:57:04Z</time>
      </trkpt>
      <trkpt lat="45.36821" lon="6.05153">
        <ele>558.4</ele>
        <time>2014-10-18T11:57:09Z</time>
      </trkpt>
      <trkpt lat="45.36814" lon="6.05143">
        <ele>558.9</ele>
        <time>2014-10-18T11:57:13Z</time>
      </trkpt>
      <trkpt lat="45.36808" lon="6.05131">
        <ele>559.6</ele>
        <time>2014-10-18T11:57:17Z</time>
      </trkpt>
      <trkpt lat="45.368" lon="6.0512">
        <ele>560.4</ele>
        <time>2014-10-18T11:57:21Z</time>
      </trkpt>
      <trkpt lat="45.36793" lon="6.05109">
        <ele>560.9</ele>
        <time>2014-10-18T11:57:25Z</time>
      </trkpt>
      <trkpt lat="45.36786" lon="6.05099">
        <ele>561.4</ele>
        <time>2014-10-18T11:57:29Z</time>
      </trkpt>
      <trkpt lat="45.36779" lon="6.05091">
        <ele>562.2</ele>
        <time>2014-10-18T11:57:33Z</time>
      </trkpt>
      <trkpt lat="45.36771" lon="6.05084">
        <ele>563.3</ele>
        <time>2014-10-18T11:57:37Z</time>
      </trkpt>
      <trkpt lat="45.36763" lon="6.05077">
        <ele>564.1</ele>
        <time>2014-10-18T11:57:41Z</time>
      </trkpt>
      <trkpt lat="45.36754" lon="6.05069">
        <ele>565.1</ele>
        <time>2014-10-18T11:57:46Z</time>
      </trkpt>
      <trkpt lat="45.36746" lon="6.05062">
        <ele>566</ele>
        <time>2014-10-18T11:57:50Z</time>
      </trkpt>
      <trkpt lat="45.36736" lon="6.05056">
        <ele>566.5</ele>
        <time>2014-10-18T11:57:54Z</time>
      </trkpt>
      <trkpt lat="45.36725" lon="6.05052">
        <ele>567.3</ele>
        <time>2014-10-18T11:57:58Z</time>
      </trkpt>
      <trkpt lat="45.36715" lon="6.0505">
        <ele>567.8</ele>
        <time>2014-10-18T11:58:02Z</time>
      </trkpt>
      <trkpt lat="45.36706" lon="6.05052">
        <ele>568.2</ele>
        <time>2014-10-18T11:58:06Z</time>
      </trkpt>
      <trkpt lat="45.36697" lon="6.05057">
        <ele>568.8</ele>
        <time>2014-10-18T11:58:10Z</time>
      </trkpt>
      <trkpt lat="45.36687" lon="6.0506">
        <ele>569.1</ele>
        <time>2014-10-18T11:58:14Z</time>
      </trkpt>
      <trkpt lat="45.36678" lon="6.05064">
        <ele>569.7</ele>
        <time>2014-10-18T11:58:18Z</time>
      </trkpt>
      <trkpt lat="45.36669" lon="6.05069">
        <ele>570.4</ele>
        <time>2014-10-18T11:58:22Z</time>
      </trkpt>
      <trkpt lat="45.36659" lon="6.05073">
        <ele>570.8</ele>
        <time>2014-10-18T11:58:26Z</time>
      </trkpt>
      <trkpt lat="45.3665" lon="6.05075">
        <ele>571.4</ele>
        <time>2014-10-18T11:58:30Z</time>
      </trkpt>
      <trkpt lat="45.3664" lon="6.05074">
        <ele>572.2</ele>
        <time>2014-10-18T11:58:34Z</time>
      </trkpt>
      <trkpt lat="45.36632" lon="6.05063">
        <ele>572.3</ele>
        <time>2014-10-18T11:58:40Z</time>
      </trkpt>
      <trkpt lat="45.36627" lon="6.05053">
        <ele>573.7</ele>
        <time>2014-10-18T11:58:44Z</time>
      </trkpt>
      <trkpt lat="45.36622" lon="6.05039">
        <ele>574.9</ele>
        <time>2014-10-18T11:58:50Z</time>
      </trkpt>
      <trkpt lat="45.36616" lon="6.05029">
        <ele>575.6</ele>
        <time>2014-10-18T11:58:53Z</time>
      </trkpt>
      <trkpt lat="45.36609" lon="6.05016">
        <ele>576.5</ele>
        <time>2014-10-18T11:58:57Z</time>
      </trkpt>
      <trkpt lat="45.36602" lon="6.05002">
        <ele>577.3</ele>
        <time>2014-10-18T11:59:01Z</time>
      </trkpt>
      <trkpt lat="45.36594" lon="6.04991">
        <ele>578</ele>
        <time>2014-10-18T11:59:04Z</time>
      </trkpt>
      <trkpt lat="45.36589" lon="6.04981">
        <ele>578.5</ele>
        <time>2014-10-18T11:59:07Z</time>
      </trkpt>
      <trkpt lat="45.36585" lon="6.04969">
        <ele>579.2</ele>
        <time>2014-10-18T11:59:10Z</time>
      </trkpt>
      <trkpt lat="45.36581" lon="6.04954">
        <ele>579.9</ele>
        <time>2014-10-18T11:59:14Z</time>
      </trkpt>
      <trkpt lat="45.36578" lon="6.04939">
        <ele>580.9</ele>
        <time>2014-10-18T11:59:18Z</time>
      </trkpt>
      <trkpt lat="45.36576" lon="6.04926">
        <ele>581.3</ele>
        <time>2014-10-18T11:59:22Z</time>
      </trkpt>
      <trkpt lat="45.36572" lon="6.04912">
        <ele>582.2</ele>
        <time>2014-10-18T11:59:27Z</time>
      </trkpt>
      <trkpt lat="45.36566" lon="6.04899">
        <ele>583.2</ele>
        <time>2014-10-18T11:59:32Z</time>
      </trkpt>
      <trkpt lat="45.36561" lon="6.04885">
        <ele>583.8</ele>
        <time>2014-10-18T11:59:37Z</time>
      </trkpt>
      <trkpt lat="45.36557" lon="6.04873">
        <ele>584.5</ele>
        <time>2014-10-18T11:59:41Z</time>
      </trkpt>
      <trkpt lat="45.36552" lon="6.04861">
        <ele>585.6</ele>
        <time>2014-10-18T11:59:45Z</time>
      </trkpt>
      <trkpt lat="45.36545" lon="6.04851">
        <ele>586</ele>
        <time>2014-10-18T11:59:48Z</time>
      </trkpt>
      <trkpt lat="45.36536" lon="6.04847">
        <ele>586.4</ele>
        <time>2014-10-18T11:59:51Z</time>
      </trkpt>
      <trkpt lat="45.36526" lon="6.04844">
        <ele>587.1</ele>
        <time>2014-10-18T11:59:55Z</time>
      </trkpt>
      <trkpt lat="45.36515" lon="6.04841">
        <ele>588.1</ele>
        <time>2014-10-18T12:00:00Z</time>
      </trkpt>
      <trkpt lat="45.36504" lon="6.04836">
        <ele>588.9</ele>
        <time>2014-10-18T12:00:05Z</time>
      </trkpt>
      <trkpt lat="45.36495" lon="6.04832">
        <ele>589.3</ele>
        <time>2014-10-18T12:00:08Z</time>
      </trkpt>
      <trkpt lat="45.36486" lon="6.04825">
        <ele>589.9</ele>
        <time>2014-10-18T12:00:11Z</time>
      </trkpt>
      <trkpt lat="45.36477" lon="6.04815">
        <ele>590.8</ele>
        <time>2014-10-18T12:00:15Z</time>
      </trkpt>
      <trkpt lat="45.3647" lon="6.04804">
        <ele>591.5</ele>
        <time>2014-10-18T12:00:19Z</time>
      </trkpt>
      <trkpt lat="45.36462" lon="6.04796">
        <ele>592.2</ele>
        <time>2014-10-18T12:00:23Z</time>
      </trkpt>
      <trkpt lat="45.36452" lon="6.04795">
        <ele>593</ele>
        <time>2014-10-18T12:00:27Z</time>
      </trkpt>
      <trkpt lat="45.36442" lon="6.04795">
        <ele>594</ele>
        <time>2014-10-18T12:00:31Z</time>
      </trkpt>
      <trkpt lat="45.36433" lon="6.04791">
        <ele>594.7</ele>
        <time>2014-10-18T12:00:35Z</time>
      </trkpt>
      <trkpt lat="45.36425" lon="6.04783">
        <ele>595.2</ele>
        <time>2014-10-18T12:00:39Z</time>
      </trkpt>
      <trkpt lat="45.36419" lon="6.04773">
        <ele>596</ele>
        <time>2014-10-18T12:00:43Z</time>
      </trkpt>
      <trkpt lat="45.36412" lon="6.04763">
        <ele>596.7</ele>
        <time>2014-10-18T12:00:47Z</time>
      </trkpt>
      <trkpt lat="45.36405" lon="6.04751">
        <ele>597.5</ele>
        <time>2014-10-18T12:00:52Z</time>
      </trkpt>
      <trkpt lat="45.36399" lon="6.04739">
        <ele>598.4</ele>
        <time>2014-10-18T12:00:56Z</time>
      </trkpt>
      <trkpt lat="45.36395" lon="6.04725">
        <ele>599</ele>
        <time>2014-10-18T12:01:01Z</time>
      </trkpt>
      <trkpt lat="45.36391" lon="6.04713">
        <ele>599.7</ele>
        <time>2014-10-18T12:01:05Z</time>
      </trkpt>
      <trkpt lat="45.36385" lon="6.04701">
        <ele>600.7</ele>
        <time>2014-10-18T12:01:10Z</time>
      </trkpt>
      <trkpt lat="45.36374" lon="6.04695">
        <ele>601</ele>
        <time>2014-10-18T12:01:14Z</time>
      </trkpt>
      <trkpt lat="45.36364" lon="6.04691">
        <ele>601.5</ele>
        <time>2014-10-18T12:01:18Z</time>
      </trkpt>
      <trkpt lat="45.36354" lon="6.04682">
        <ele>602.1</ele>
        <time>2014-10-18T12:01:23Z</time>
      </trkpt>
      <trkpt lat="45.36345" lon="6.04673">
        <ele>603.2</ele>
        <time>2014-10-18T12:01:28Z</time>
      </trkpt>
      <trkpt lat="45.36338" lon="6.04662">
        <ele>604.1</ele>
        <time>2014-10-18T12:01:33Z</time>
      </trkpt>
      <trkpt lat="45.36333" lon="6.04649">
        <ele>605.2</ele>
        <time>2014-10-18T12:01:38Z</time>
      </trkpt>
      <trkpt lat="45.3633" lon="6.04635">
        <ele>606</ele>
        <time>2014-10-18T12:01:42Z</time>
      </trkpt>
      <trkpt lat="45.36325" lon="6.04623">
        <ele>606.4</ele>
        <time>2014-10-18T12:01:46Z</time>
      </trkpt>
      <trkpt lat="45.36318" lon="6.04614">
        <ele>607.1</ele>
        <time>2014-10-18T12:01:50Z</time>
      </trkpt>
      <trkpt lat="45.36307" lon="6.04608">
        <ele>607.2</ele>
        <time>2014-10-18T12:01:52Z</time>
      </trkpt>
      <trkpt lat="45.36298" lon="6.04603">
        <ele>607.4</ele>
        <time>2014-10-18T12:01:55Z</time>
      </trkpt>
      <trkpt lat="45.3629" lon="6.04595">
        <ele>607.9</ele>
        <time>2014-10-18T12:01:59Z</time>
      </trkpt>
      <trkpt lat="45.36281" lon="6.04595">
        <ele>608.6</ele>
        <time>2014-10-18T12:02:03Z</time>
      </trkpt>
      <trkpt lat="45.3627" lon="6.046">
        <ele>609.2</ele>
        <time>2014-10-18T12:02:08Z</time>
      </trkpt>
      <trkpt lat="45.3626" lon="6.04605">
        <ele>609.8</ele>
        <time>2014-10-18T12:02:13Z</time>
      </trkpt>
      <trkpt lat="45.36251" lon="6.04602">
        <ele>610.9</ele>
        <time>2014-10-18T12:02:17Z</time>
      </trkpt>
      <trkpt lat="45.36245" lon="6.04591">
        <ele>612</ele>
        <time>2014-10-18T12:02:22Z</time>
      </trkpt>
      <trkpt lat="45.36242" lon="6.04578">
        <ele>612.9</ele>
        <time>2014-10-18T12:02:26Z</time>
      </trkpt>
      <trkpt lat="45.36238" lon="6.04563">
        <ele>613.8</ele>
        <time>2014-10-18T12:02:31Z</time>
      </trkpt>
      <trkpt lat="45.36232" lon="6.0455">
        <ele>614.4</ele>
        <time>2014-10-18T12:02:36Z</time>
      </trkpt>
      <trkpt lat="45.36225" lon="6.04542">
        <ele>615</ele>
        <time>2014-10-18T12:02:40Z</time>
      </trkpt>
      <trkpt lat="45.36218" lon="6.04533">
        <ele>615.2</ele>
        <time>2014-10-18T12:02:44Z</time>
      </trkpt>
      <trkpt lat="45.36211" lon="6.04521">
        <ele>616</ele>
        <time>2014-10-18T12:02:49Z</time>
      </trkpt>
      <trkpt lat="45.36206" lon="6.04507">
        <ele>616.2</ele>
        <time>2014-10-18T12:02:53Z</time>
      </trkpt>
      <trkpt lat="45.36205" lon="6.04491">
        <ele>617.1</ele>
        <time>2014-10-18T12:02:57Z</time>
      </trkpt>
      <trkpt lat="45.36205" lon="6.04478">
        <ele>617.7</ele>
        <time>2014-10-18T12:03:01Z</time>
      </trkpt>
      <trkpt lat="45.36205" lon="6.04465">
        <ele>618.4</ele>
        <time>2014-10-18T12:03:05Z</time>
      </trkpt>
      <trkpt lat="45.36202" lon="6.04452">
        <ele>619.3</ele>
        <time>2014-10-18T12:03:09Z</time>
      </trkpt>
      <trkpt lat="45.36197" lon="6.04441">
        <ele>619.7</ele>
        <time>2014-10-18T12:03:13Z</time>
      </trkpt>
      <trkpt lat="45.3619" lon="6.0443">
        <ele>620</ele>
        <time>2014-10-18T12:03:17Z</time>
      </trkpt>
      <trkpt lat="45.36183" lon="6.04418">
        <ele>620.3</ele>
        <time>2014-10-18T12:03:21Z</time>
      </trkpt>
      <trkpt lat="45.36175" lon="6.04406">
        <ele>620.8</ele>
        <time>2014-10-18T12:03:25Z</time>
      </trkpt>
      <trkpt lat="45.3617" lon="6.04392">
        <ele>621.5</ele>
        <time>2014-10-18T12:03:29Z</time>
      </trkpt>
      <trkpt lat="45.36164" lon="6.04382">
        <ele>621.7</ele>
        <time>2014-10-18T12:03:32Z</time>
      </trkpt>
      <trkpt lat="45.36158" lon="6.04372">
        <ele>622</ele>
        <time>2014-10-18T12:03:35Z</time>
      </trkpt>
      <trkpt lat="45.36148" lon="6.04364">
        <ele>622.5</ele>
        <time>2014-10-18T12:03:39Z</time>
      </trkpt>
      <trkpt lat="45.36138" lon="6.04357">
        <ele>623.1</ele>
        <time>2014-10-18T12:03:43Z</time>
      </trkpt>
      <trkpt lat="45.36128" lon="6.04353">
        <ele>623.5</ele>
        <time>2014-10-18T12:03:47Z</time>
      </trkpt>
      <trkpt lat="45.36118" lon="6.04357">
        <ele>623.8</ele>
        <time>2014-10-18T12:03:51Z</time>
      </trkpt>
      <trkpt lat="45.36111" lon="6.04368">
        <ele>624.7</ele>
        <time>2014-10-18T12:03:55Z</time>
      </trkpt>
      <trkpt lat="45.36107" lon="6.04383">
        <ele>625.3</ele>
        <time>2014-10-18T12:03:59Z</time>
      </trkpt>
      <trkpt lat="45.36107" lon="6.04398">
        <ele>625.9</ele>
        <time>2014-10-18T12:04:03Z</time>
      </trkpt>
      <trkpt lat="45.36105" lon="6.04412">
        <ele>626.6</ele>
        <time>2014-10-18T12:04:07Z</time>
      </trkpt>
      <trkpt lat="45.36103" lon="6.04427">
        <ele>627.6</ele>
        <time>2014-10-18T12:04:11Z</time>
      </trkpt>
      <trkpt lat="45.361" lon="6.04443">
        <ele>628.3</ele>
        <time>2014-10-18T12:04:15Z</time>
      </trkpt>
      <trkpt lat="45.36097" lon="6.04457">
        <ele>628.8</ele>
        <time>2014-10-18T12:04:19Z</time>
      </trkpt>
      <trkpt lat="45.36094" lon="6.04471">
        <ele>629.4</ele>
        <time>2014-10-18T12:04:23Z</time>
      </trkpt>
      <trkpt lat="45.36091" lon="6.04485">
        <ele>629.9</ele>
        <time>2014-10-18T12:04:27Z</time>
      </trkpt>
      <trkpt lat="45.36086" lon="6.04496">
        <ele>630.7</ele>
        <time>2014-10-18T12:04:30Z</time>
      </trkpt>
      <trkpt lat="45.36078" lon="6.0451">
        <ele>631.6</ele>
        <time>2014-10-18T12:04:34Z</time>
      </trkpt>
      <trkpt lat="45.36072" lon="6.04522">
        <ele>632.6</ele>
        <time>2014-10-18T12:04:38Z</time>
      </trkpt>
      <trkpt lat="45.36064" lon="6.04533">
        <ele>633.1</ele>
        <time>2014-10-18T12:04:42Z</time>
      </trkpt>
      <trkpt lat="45.36058" lon="6.04543">
        <ele>634</ele>
        <time>2014-10-18T12:04:46Z</time>
      </trkpt>
      <trkpt lat="45.3605" lon="6.04552">
        <ele>634.8</ele>
        <time>2014-10-18T12:04:50Z</time>
      </trkpt>
      <trkpt lat="45.36043" lon="6.04563">
        <ele>635.6</ele>
        <time>2014-10-18T12:04:54Z</time>
      </trkpt>
      <trkpt lat="45.36037" lon="6.04575">
        <ele>635.9</ele>
        <time>2014-10-18T12:04:58Z</time>
      </trkpt>
      <trkpt lat="45.36028" lon="6.04579">
        <ele>636.5</ele>
        <time>2014-10-18T12:05:03Z</time>
      </trkpt>
      <trkpt lat="45.36019" lon="6.04573">
        <ele>637.1</ele>
        <time>2014-10-18T12:05:09Z</time>
      </trkpt>
      <trkpt lat="45.36012" lon="6.04562">
        <ele>638.1</ele>
        <time>2014-10-18T12:05:14Z</time>
      </trkpt>
      <trkpt lat="45.36005" lon="6.04549">
        <ele>638.9</ele>
        <time>2014-10-18T12:05:18Z</time>
      </trkpt>
      <trkpt lat="45.36001" lon="6.04537">
        <ele>639.5</ele>
        <time>2014-10-18T12:05:22Z</time>
      </trkpt>
      <trkpt lat="45.35999" lon="6.04524">
        <ele>640</ele>
        <time>2014-10-18T12:05:26Z</time>
      </trkpt>
      <trkpt lat="45.35998" lon="6.04508">
        <ele>640.8</ele>
        <time>2014-10-18T12:05:30Z</time>
      </trkpt>
      <trkpt lat="45.35994" lon="6.04495">
        <ele>641.2</ele>
        <time>2014-10-18T12:05:34Z</time>
      </trkpt>
      <trkpt lat="45.35988" lon="6.04483">
        <ele>642.1</ele>
        <time>2014-10-18T12:05:38Z</time>
      </trkpt>
      <trkpt lat="45.35981" lon="6.04473">
        <ele>642.5</ele>
        <time>2014-10-18T12:05:42Z</time>
      </trkpt>
      <trkpt lat="45.35973" lon="6.04462">
        <ele>643.2</ele>
        <time>2014-10-18T12:05:47Z</time>
      </trkpt>
      <trkpt lat="45.35965" lon="6.04452">
        <ele>643.7</ele>
        <time>2014-10-18T12:05:52Z</time>
      </trkpt>
      <trkpt lat="45.35956" lon="6.04441">
        <ele>644.6</ele>
        <time>2014-10-18T12:05:57Z</time>
      </trkpt>
      <trkpt lat="45.35949" lon="6.04434">
        <ele>645.3</ele>
        <time>2014-10-18T12:06:00Z</time>
      </trkpt>
      <trkpt lat="45.35939" lon="6.04425">
        <ele>646</ele>
        <time>2014-10-18T12:06:04Z</time>
      </trkpt>
      <trkpt lat="45.35931" lon="6.04415">
        <ele>646.7</ele>
        <time>2014-10-18T12:06:08Z</time>
      </trkpt>
      <trkpt lat="45.35923" lon="6.04408">
        <ele>647.6</ele>
        <time>2014-10-18T12:06:12Z</time>
      </trkpt>
      <trkpt lat="45.35917" lon="6.04397">
        <ele>648.5</ele>
        <time>2014-10-18T12:06:17Z</time>
      </trkpt>
      <trkpt lat="45.3591" lon="6.04388">
        <ele>649.5</ele>
        <time>2014-10-18T12:06:22Z</time>
      </trkpt>
      <trkpt lat="45.35904" lon="6.04378">
        <ele>650.5</ele>
        <time>2014-10-18T12:06:27Z</time>
      </trkpt>
      <trkpt lat="45.35899" lon="6.04366">
        <ele>651.3</ele>
        <time>2014-10-18T12:06:31Z</time>
      </trkpt>
      <trkpt lat="45.35893" lon="6.04356">
        <ele>652.3</ele>
        <time>2014-10-18T12:06:35Z</time>
      </trkpt>
      <trkpt lat="45.35887" lon="6.04344">
        <ele>653.3</ele>
        <time>2014-10-18T12:06:40Z</time>
      </trkpt>
      <trkpt lat="45.35879" lon="6.04336">
        <ele>654.4</ele>
        <time>2014-10-18T12:06:45Z</time>
      </trkpt>
      <trkpt lat="45.35871" lon="6.04328">
        <ele>655.2</ele>
        <time>2014-10-18T12:06:50Z</time>
      </trkpt>
      <trkpt lat="45.35863" lon="6.04318">
        <ele>656.5</ele>
        <time>2014-10-18T12:06:55Z</time>
      </trkpt>
      <trkpt lat="45.35857" lon="6.04306">
        <ele>657.6</ele>
        <time>2014-10-18T12:07:00Z</time>
      </trkpt>
      <trkpt lat="45.35853" lon="6.04292">
        <ele>658.5</ele>
        <time>2014-10-18T12:07:05Z</time>
      </trkpt>
      <trkpt lat="45.35847" lon="6.04281">
        <ele>659.4</ele>
        <time>2014-10-18T12:07:09Z</time>
      </trkpt>
      <trkpt lat="45.35842" lon="6.0427">
        <ele>660.2</ele>
        <time>2014-10-18T12:07:14Z</time>
      </trkpt>
      <trkpt lat="45.35835" lon="6.04258">
        <ele>661.2</ele>
        <time>2014-10-18T12:07:19Z</time>
      </trkpt>
      <trkpt lat="45.35826" lon="6.04248">
        <ele>662.2</ele>
        <time>2014-10-18T12:07:24Z</time>
      </trkpt>
      <trkpt lat="45.35818" lon="6.04239">
        <ele>663</ele>
        <time>2014-10-18T12:07:28Z</time>
      </trkpt>
      <trkpt lat="45.35808" lon="6.04231">
        <ele>663.9</ele>
        <time>2014-10-18T12:07:33Z</time>
      </trkpt>
      <trkpt lat="45.35799" lon="6.04225">
        <ele>664.6</ele>
        <time>2014-10-18T12:07:37Z</time>
      </trkpt>
      <trkpt lat="45.3579" lon="6.04218">
        <ele>665.8</ele>
        <time>2014-10-18T12:07:42Z</time>
      </trkpt>
      <trkpt lat="45.35782" lon="6.04209">
        <ele>666.7</ele>
        <time>2014-10-18T12:07:47Z</time>
      </trkpt>
      <trkpt lat="45.35772" lon="6.04202">
        <ele>667.7</ele>
        <time>2014-10-18T12:07:52Z</time>
      </trkpt>
      <trkpt lat="45.35761" lon="6.04198">
        <ele>668.5</ele>
        <time>2014-10-18T12:07:57Z</time>
      </trkpt>
      <trkpt lat="45.35751" lon="6.04198">
        <ele>669.4</ele>
        <time>2014-10-18T12:08:02Z</time>
      </trkpt>
      <trkpt lat="45.35741" lon="6.04198">
        <ele>670.3</ele>
        <time>2014-10-18T12:08:07Z</time>
      </trkpt>
      <trkpt lat="45.35732" lon="6.04197">
        <ele>670.9</ele>
        <time>2014-10-18T12:08:11Z</time>
      </trkpt>
      <trkpt lat="45.35722" lon="6.04194">
        <ele>672</ele>
        <time>2014-10-18T12:08:16Z</time>
      </trkpt>
      <trkpt lat="45.35712" lon="6.04191">
        <ele>673.2</ele>
        <time>2014-10-18T12:08:21Z</time>
      </trkpt>
      <trkpt lat="45.35702" lon="6.04188">
        <ele>674.1</ele>
        <time>2014-10-18T12:08:26Z</time>
      </trkpt>
      <trkpt lat="45.35692" lon="6.04185">
        <ele>674.9</ele>
        <time>2014-10-18T12:08:31Z</time>
      </trkpt>
      <trkpt lat="45.35683" lon="6.04182">
        <ele>676.1</ele>
        <time>2014-10-18T12:08:37Z</time>
      </trkpt>
      <trkpt lat="45.35672" lon="6.04183">
        <ele>678.2</ele>
        <time>2014-10-18T12:08:45Z</time>
      </trkpt>
      <trkpt lat="45.35662" lon="6.04185">
        <ele>679.2</ele>
        <time>2014-10-18T12:08:50Z</time>
      </trkpt>
      <trkpt lat="45.35652" lon="6.04187">
        <ele>680.2</ele>
        <time>2014-10-18T12:08:55Z</time>
      </trkpt>
      <trkpt lat="45.35643" lon="6.04189">
        <ele>680.9</ele>
        <time>2014-10-18T12:08:59Z</time>
      </trkpt>
      <trkpt lat="45.35634" lon="6.04192">
        <ele>681.8</ele>
        <time>2014-10-18T12:09:04Z</time>
      </trkpt>
      <trkpt lat="45.35625" lon="6.04192">
        <ele>682.9</ele>
        <time>2014-10-18T12:09:08Z</time>
      </trkpt>
      <trkpt lat="45.35615" lon="6.04191">
        <ele>683.5</ele>
        <time>2014-10-18T12:09:12Z</time>
      </trkpt>
      <trkpt lat="45.35606" lon="6.04189">
        <ele>684.6</ele>
        <time>2014-10-18T12:09:17Z</time>
      </trkpt>
      <trkpt lat="45.35597" lon="6.04183">
        <ele>686</ele>
        <time>2014-10-18T12:09:23Z</time>
      </trkpt>
      <trkpt lat="45.35588" lon="6.04177">
        <ele>687</ele>
        <time>2014-10-18T12:09:28Z</time>
      </trkpt>
      <trkpt lat="45.35581" lon="6.04167">
        <ele>688.6</ele>
        <time>2014-10-18T12:09:35Z</time>
      </trkpt>
      <trkpt lat="45.35573" lon="6.04156">
        <ele>688.9</ele>
        <time>2014-10-18T12:09:39Z</time>
      </trkpt>
      <trkpt lat="45.35564" lon="6.04147">
        <ele>689.7</ele>
        <time>2014-10-18T12:09:43Z</time>
      </trkpt>
      <trkpt lat="45.35556" lon="6.0414">
        <ele>690.4</ele>
        <time>2014-10-18T12:09:46Z</time>
      </trkpt>
      <trkpt lat="45.35547" lon="6.04133">
        <ele>691.2</ele>
        <time>2014-10-18T12:09:50Z</time>
      </trkpt>
      <trkpt lat="45.35538" lon="6.04127">
        <ele>692.3</ele>
        <time>2014-10-18T12:09:54Z</time>
      </trkpt>
      <trkpt lat="45.3553" lon="6.04121">
        <ele>693.1</ele>
        <time>2014-10-18T12:09:58Z</time>
      </trkpt>
      <trkpt lat="45.35522" lon="6.04116">
        <ele>693.9</ele>
        <time>2014-10-18T12:10:02Z</time>
      </trkpt>
      <trkpt lat="45.35513" lon="6.0411">
        <ele>694.7</ele>
        <time>2014-10-18T12:10:06Z</time>
      </trkpt>
      <trkpt lat="45.35503" lon="6.04105">
        <ele>695.6</ele>
        <time>2014-10-18T12:10:11Z</time>
      </trkpt>
      <trkpt lat="45.35492" lon="6.04105">
        <ele>696.5</ele>
        <time>2014-10-18T12:10:16Z</time>
      </trkpt>
      <trkpt lat="45.35483" lon="6.04103">
        <ele>697.4</ele>
        <time>2014-10-18T12:10:21Z</time>
      </trkpt>
      <trkpt lat="45.35473" lon="6.04105">
        <ele>698.4</ele>
        <time>2014-10-18T12:10:26Z</time>
      </trkpt>
      <trkpt lat="45.35462" lon="6.04105">
        <ele>699.1</ele>
        <time>2014-10-18T12:10:31Z</time>
      </trkpt>
      <trkpt lat="45.35452" lon="6.04106">
        <ele>700</ele>
        <time>2014-10-18T12:10:36Z</time>
      </trkpt>
      <trkpt lat="45.35443" lon="6.04107">
        <ele>701.1</ele>
        <time>2014-10-18T12:10:41Z</time>
      </trkpt>
      <trkpt lat="45.35433" lon="6.04107">
        <ele>702.3</ele>
        <time>2014-10-18T12:10:46Z</time>
      </trkpt>
      <trkpt lat="45.35423" lon="6.04107">
        <ele>703.2</ele>
        <time>2014-10-18T12:10:51Z</time>
      </trkpt>
      <trkpt lat="45.35414" lon="6.04106">
        <ele>704.3</ele>
        <time>2014-10-18T12:10:56Z</time>
      </trkpt>
      <trkpt lat="45.35404" lon="6.04105">
        <ele>705.1</ele>
        <time>2014-10-18T12:11:01Z</time>
      </trkpt>
      <trkpt lat="45.35395" lon="6.04104">
        <ele>706.3</ele>
        <time>2014-10-18T12:11:06Z</time>
      </trkpt>
      <trkpt lat="45.35385" lon="6.04101">
        <ele>707.8</ele>
        <time>2014-10-18T12:11:12Z</time>
      </trkpt>
      <trkpt lat="45.35376" lon="6.04098">
        <ele>708.6</ele>
        <time>2014-10-18T12:11:17Z</time>
      </trkpt>
      <trkpt lat="45.35365" lon="6.04096">
        <ele>709.8</ele>
        <time>2014-10-18T12:11:22Z</time>
      </trkpt>
      <trkpt lat="45.35356" lon="6.04096">
        <ele>710.6</ele>
        <time>2014-10-18T12:11:27Z</time>
      </trkpt>
      <trkpt lat="45.35347" lon="6.04098">
        <ele>711.7</ele>
        <time>2014-10-18T12:11:32Z</time>
      </trkpt>
      <trkpt lat="45.35337" lon="6.04102">
        <ele>713</ele>
        <time>2014-10-18T12:11:37Z</time>
      </trkpt>
      <trkpt lat="45.35326" lon="6.04105">
        <ele>713.9</ele>
        <time>2014-10-18T12:11:41Z</time>
      </trkpt>
      <trkpt lat="45.35317" lon="6.04107">
        <ele>714.7</ele>
        <time>2014-10-18T12:11:45Z</time>
      </trkpt>
      <trkpt lat="45.35308" lon="6.04107">
        <ele>715.4</ele>
        <time>2014-10-18T12:11:49Z</time>
      </trkpt>
      <trkpt lat="45.35299" lon="6.04106">
        <ele>715.9</ele>
        <time>2014-10-18T12:11:53Z</time>
      </trkpt>
      <trkpt lat="45.35288" lon="6.04107">
        <ele>717</ele>
        <time>2014-10-18T12:11:58Z</time>
      </trkpt>
      <trkpt lat="45.35277" lon="6.0411">
        <ele>718</ele>
        <time>2014-10-18T12:12:03Z</time>
      </trkpt>
      <trkpt lat="45.35267" lon="6.04111">
        <ele>718.7</ele>
        <time>2014-10-18T12:12:08Z</time>
      </trkpt>
      <trkpt lat="45.35256" lon="6.04113">
        <ele>719.6</ele>
        <time>2014-10-18T12:12:13Z</time>
      </trkpt>
      <trkpt lat="45.35245" lon="6.04116">
        <ele>720.9</ele>
        <time>2014-10-18T12:12:18Z</time>
      </trkpt>
      <trkpt lat="45.35235" lon="6.04117">
        <ele>722</ele>
        <time>2014-10-18T12:12:23Z</time>
      </trkpt>
      <trkpt lat="45.35224" lon="6.04121">
        <ele>722.7</ele>
        <time>2014-10-18T12:12:28Z</time>
      </trkpt>
      <trkpt lat="45.35214" lon="6.04124">
        <ele>724.1</ele>
        <time>2014-10-18T12:12:33Z</time>
      </trkpt>
      <trkpt lat="45.35205" lon="6.04128">
        <ele>724.8</ele>
        <time>2014-10-18T12:12:37Z</time>
      </trkpt>
      <trkpt lat="45.35195" lon="6.0413">
        <ele>725.7</ele>
        <time>2014-10-18T12:12:42Z</time>
      </trkpt>
      <trkpt lat="45.35184" lon="6.04134">
        <ele>727.1</ele>
        <time>2014-10-18T12:12:47Z</time>
      </trkpt>
      <trkpt lat="45.35175" lon="6.04136">
        <ele>727.7</ele>
        <time>2014-10-18T12:12:52Z</time>
      </trkpt>
      <trkpt lat="45.35164" lon="6.04137">
        <ele>728.7</ele>
        <time>2014-10-18T12:12:57Z</time>
      </trkpt>
      <trkpt lat="45.35153" lon="6.04135">
        <ele>729.2</ele>
        <time>2014-10-18T12:13:02Z</time>
      </trkpt>
      <trkpt lat="45.35143" lon="6.04134">
        <ele>730.1</ele>
        <time>2014-10-18T12:13:07Z</time>
      </trkpt>
      <trkpt lat="45.35133" lon="6.0414">
        <ele>731</ele>
        <time>2014-10-18T12:13:12Z</time>
      </trkpt>
      <trkpt lat="45.35126" lon="6.0415">
        <ele>731.3</ele>
        <time>2014-10-18T12:13:16Z</time>
      </trkpt>
      <trkpt lat="45.3512" lon="6.0416">
        <ele>731.6</ele>
        <time>2014-10-18T12:13:20Z</time>
      </trkpt>
      <trkpt lat="45.35114" lon="6.04169">
        <ele>732.1</ele>
        <time>2014-10-18T12:13:24Z</time>
      </trkpt>
      <trkpt lat="45.35106" lon="6.04179">
        <ele>732.8</ele>
        <time>2014-10-18T12:13:28Z</time>
      </trkpt>
      <trkpt lat="45.351" lon="6.0419">
        <ele>733.4</ele>
        <time>2014-10-18T12:13:32Z</time>
      </trkpt>
      <trkpt lat="45.35096" lon="6.04203">
        <ele>734</ele>
        <time>2014-10-18T12:13:36Z</time>
      </trkpt>
      <trkpt lat="45.35094" lon="6.04216">
        <ele>734.7</ele>
        <time>2014-10-18T12:13:40Z</time>
      </trkpt>
      <trkpt lat="45.35092" lon="6.0423">
        <ele>735.1</ele>
        <time>2014-10-18T12:13:44Z</time>
      </trkpt>
      <trkpt lat="45.3509" lon="6.04244">
        <ele>735.7</ele>
        <time>2014-10-18T12:13:48Z</time>
      </trkpt>
      <trkpt lat="45.35089" lon="6.04259">
        <ele>736.5</ele>
        <time>2014-10-18T12:13:52Z</time>
      </trkpt>
      <trkpt lat="45.35087" lon="6.04274">
        <ele>736.9</ele>
        <time>2014-10-18T12:13:56Z</time>
      </trkpt>
      <trkpt lat="45.35085" lon="6.04289">
        <ele>737.5</ele>
        <time>2014-10-18T12:14:00Z</time>
      </trkpt>
      <trkpt lat="45.35079" lon="6.04301">
        <ele>738</ele>
        <time>2014-10-18T12:14:04Z</time>
      </trkpt>
      <trkpt lat="45.3507" lon="6.04312">
        <ele>738.4</ele>
        <time>2014-10-18T12:14:08Z</time>
      </trkpt>
      <trkpt lat="45.35062" lon="6.04321">
        <ele>739</ele>
        <time>2014-10-18T12:14:12Z</time>
      </trkpt>
      <trkpt lat="45.35053" lon="6.0433">
        <ele>739.4</ele>
        <time>2014-10-18T12:14:16Z</time>
      </trkpt>
      <trkpt lat="45.35046" lon="6.04338">
        <ele>740.2</ele>
        <time>2014-10-18T12:14:20Z</time>
      </trkpt>
      <trkpt lat="45.35039" lon="6.0435">
        <ele>740.9</ele>
        <time>2014-10-18T12:14:25Z</time>
      </trkpt>
      <trkpt lat="45.35031" lon="6.04362">
        <ele>741.9</ele>
        <time>2014-10-18T12:14:30Z</time>
      </trkpt>
      <trkpt lat="45.35025" lon="6.04375">
        <ele>742.3</ele>
        <time>2014-10-18T12:14:34Z</time>
      </trkpt>
      <trkpt lat="45.35018" lon="6.04383">
        <ele>742.6</ele>
        <time>2014-10-18T12:14:37Z</time>
      </trkpt>
      <trkpt lat="45.35009" lon="6.04391">
        <ele>743.1</ele>
        <time>2014-10-18T12:14:41Z</time>
      </trkpt>
      <trkpt lat="45.34997" lon="6.04396">
        <ele>743.9</ele>
        <time>2014-10-18T12:14:46Z</time>
      </trkpt>
      <trkpt lat="45.34988" lon="6.04401">
        <ele>744.3</ele>
        <time>2014-10-18T12:14:49Z</time>
      </trkpt>
      <trkpt lat="45.34978" lon="6.04404">
        <ele>745.3</ele>
        <time>2014-10-18T12:14:55Z</time>
      </trkpt>
      <trkpt lat="45.34968" lon="6.04402">
        <ele>745.5</ele>
        <time>2014-10-18T12:14:59Z</time>
      </trkpt>
      <trkpt lat="45.3496" lon="6.04395">
        <ele>745.6</ele>
        <time>2014-10-18T12:15:02Z</time>
      </trkpt>
      <trkpt lat="45.34956" lon="6.0438">
        <ele>746.3</ele>
        <time>2014-10-18T12:15:06Z</time>
      </trkpt>
      <trkpt lat="45.34959" lon="6.04365">
        <ele>747.4</ele>
        <time>2014-10-18T12:15:11Z</time>
      </trkpt>
      <trkpt lat="45.34966" lon="6.04354">
        <ele>748.1</ele>
        <time>2014-10-18T12:15:15Z</time>
      </trkpt>
      <trkpt lat="45.34975" lon="6.04346">
        <ele>748.7</ele>
        <time>2014-10-18T12:15:19Z</time>
      </trkpt>
      <trkpt lat="45.34981" lon="6.04332">
        <ele>749</ele>
        <time>2014-10-18T12:15:23Z</time>
      </trkpt>
      <trkpt lat="45.34981" lon="6.04318">
        <ele>749.1</ele>
        <time>2014-10-18T12:15:26Z</time>
      </trkpt>
      <trkpt lat="45.34977" lon="6.04303">
        <ele>749.4</ele>
        <time>2014-10-18T12:15:30Z</time>
      </trkpt>
      <trkpt lat="45.34971" lon="6.04289">
        <ele>750</ele>
        <time>2014-10-18T12:15:34Z</time>
      </trkpt>
      <trkpt lat="45.34964" lon="6.0428">
        <ele>750.6</ele>
        <time>2014-10-18T12:15:37Z</time>
      </trkpt>
      <trkpt lat="45.34956" lon="6.04271">
        <ele>750.8</ele>
        <time>2014-10-18T12:15:40Z</time>
      </trkpt>
      <trkpt lat="45.34949" lon="6.04261">
        <ele>751.6</ele>
        <time>2014-10-18T12:15:44Z</time>
      </trkpt>
      <trkpt lat="45.34944" lon="6.04251">
        <ele>752.5</ele>
        <time>2014-10-18T12:15:48Z</time>
      </trkpt>
      <trkpt lat="45.34939" lon="6.04238">
        <ele>753.4</ele>
        <time>2014-10-18T12:15:54Z</time>
      </trkpt>
      <trkpt lat="45.34936" lon="6.04226">
        <ele>754.3</ele>
        <time>2014-10-18T12:15:59Z</time>
      </trkpt>
      <trkpt lat="45.34935" lon="6.04213">
        <ele>755.1</ele>
        <time>2014-10-18T12:16:04Z</time>
      </trkpt>
      <trkpt lat="45.34934" lon="6.04197">
        <ele>755.8</ele>
        <time>2014-10-18T12:16:10Z</time>
      </trkpt>
      <trkpt lat="45.34932" lon="6.04184">
        <ele>756.5</ele>
        <time>2014-10-18T12:16:15Z</time>
      </trkpt>
      <trkpt lat="45.34929" lon="6.04172">
        <ele>757.3</ele>
        <time>2014-10-18T12:16:20Z</time>
      </trkpt>
      <trkpt lat="45.34923" lon="6.04162">
        <ele>757.9</ele>
        <time>2014-10-18T12:16:24Z</time>
      </trkpt>
      <trkpt lat="45.34915" lon="6.04153">
        <ele>758.4</ele>
        <time>2014-10-18T12:16:29Z</time>
      </trkpt>
      <trkpt lat="45.34906" lon="6.04143">
        <ele>759</ele>
        <time>2014-10-18T12:16:34Z</time>
      </trkpt>
      <trkpt lat="45.34899" lon="6.04134">
        <ele>759.6</ele>
        <time>2014-10-18T12:16:39Z</time>
      </trkpt>
      <trkpt lat="45.34892" lon="6.04124">
        <ele>760.2</ele>
        <time>2014-10-18T12:16:44Z</time>
      </trkpt>
      <trkpt lat="45.34886" lon="6.04113">
        <ele>760.8</ele>
        <time>2014-10-18T12:16:49Z</time>
      </trkpt>
      <trkpt lat="45.34881" lon="6.04102">
        <ele>761.7</ele>
        <time>2014-10-18T12:16:54Z</time>
      </trkpt>
      <trkpt lat="45.34873" lon="6.04092">
        <ele>762.4</ele>
        <time>2014-10-18T12:16:59Z</time>
      </trkpt>
      <trkpt lat="45.34866" lon="6.04084">
        <ele>762.9</ele>
        <time>2014-10-18T12:17:03Z</time>
      </trkpt>
      <trkpt lat="45.34858" lon="6.04073">
        <ele>763.5</ele>
        <time>2014-10-18T12:17:08Z</time>
      </trkpt>
      <trkpt lat="45.3485" lon="6.04068">
        <ele>763.9</ele>
        <time>2014-10-18T12:17:13Z</time>
      </trkpt>
      <trkpt lat="45.34839" lon="6.04067">
        <ele>764.7</ele>
        <time>2014-10-18T12:17:18Z</time>
      </trkpt>
      <trkpt lat="45.34829" lon="6.04063">
        <ele>765.4</ele>
        <time>2014-10-18T12:17:23Z</time>
      </trkpt>
      <trkpt lat="45.3482" lon="6.04059">
        <ele>766.2</ele>
        <time>2014-10-18T12:17:28Z</time>
      </trkpt>
      <trkpt lat="45.3481" lon="6.04054">
        <ele>767.2</ele>
        <time>2014-10-18T12:17:33Z</time>
      </trkpt>
      <trkpt lat="45.34801" lon="6.04051">
        <ele>767.6</ele>
        <time>2014-10-18T12:17:37Z</time>
      </trkpt>
      <trkpt lat="45.34791" lon="6.04047">
        <ele>768.4</ele>
        <time>2014-10-18T12:17:41Z</time>
      </trkpt>
      <trkpt lat="45.34782" lon="6.04044">
        <ele>769</ele>
        <time>2014-10-18T12:17:45Z</time>
      </trkpt>
      <trkpt lat="45.34772" lon="6.0404">
        <ele>770</ele>
        <time>2014-10-18T12:17:49Z</time>
      </trkpt>
      <trkpt lat="45.34763" lon="6.04036">
        <ele>770.6</ele>
        <time>2014-10-18T12:17:53Z</time>
      </trkpt>
      <trkpt lat="45.34753" lon="6.0403">
        <ele>771.3</ele>
        <time>2014-10-18T12:17:57Z</time>
      </trkpt>
      <trkpt lat="45.34744" lon="6.04023">
        <ele>772.1</ele>
        <time>2014-10-18T12:18:02Z</time>
      </trkpt>
      <trkpt lat="45.34735" lon="6.04017">
        <ele>773.1</ele>
        <time>2014-10-18T12:18:07Z</time>
      </trkpt>
      <trkpt lat="45.34726" lon="6.04013">
        <ele>773.6</ele>
        <time>2014-10-18T12:18:12Z</time>
      </trkpt>
      <trkpt lat="45.34716" lon="6.04009">
        <ele>774.4</ele>
        <time>2014-10-18T12:18:17Z</time>
      </trkpt>
      <trkpt lat="45.34707" lon="6.04006">
        <ele>775.3</ele>
        <time>2014-10-18T12:18:22Z</time>
      </trkpt>
      <trkpt lat="45.34697" lon="6.04003">
        <ele>776.1</ele>
        <time>2014-10-18T12:18:27Z</time>
      </trkpt>
      <trkpt lat="45.34688" lon="6.03997">
        <ele>777.2</ele>
        <time>2014-10-18T12:18:32Z</time>
      </trkpt>
      <trkpt lat="45.3468" lon="6.03989">
        <ele>778</ele>
        <time>2014-10-18T12:18:37Z</time>
      </trkpt>
      <trkpt lat="45.34672" lon="6.03981">
        <ele>779</ele>
        <time>2014-10-18T12:18:42Z</time>
      </trkpt>
      <trkpt lat="45.34665" lon="6.03972">
        <ele>780.1</ele>
        <time>2014-10-18T12:18:47Z</time>
      </trkpt>
      <trkpt lat="45.34657" lon="6.03962">
        <ele>780.8</ele>
        <time>2014-10-18T12:18:52Z</time>
      </trkpt>
      <trkpt lat="45.34649" lon="6.03951">
        <ele>781.9</ele>
        <time>2014-10-18T12:18:57Z</time>
      </trkpt>
      <trkpt lat="45.34642" lon="6.03941">
        <ele>782.4</ele>
        <time>2014-10-18T12:19:02Z</time>
      </trkpt>
      <trkpt lat="45.34635" lon="6.03929">
        <ele>783.4</ele>
        <time>2014-10-18T12:19:07Z</time>
      </trkpt>
      <trkpt lat="45.3463" lon="6.03916">
        <ele>784.4</ele>
        <time>2014-10-18T12:19:12Z</time>
      </trkpt>
      <trkpt lat="45.34627" lon="6.03903">
        <ele>785.3</ele>
        <time>2014-10-18T12:19:17Z</time>
      </trkpt>
      <trkpt lat="45.34623" lon="6.03889">
        <ele>786.2</ele>
        <time>2014-10-18T12:19:22Z</time>
      </trkpt>
      <trkpt lat="45.34617" lon="6.03879">
        <ele>787</ele>
        <time>2014-10-18T12:19:26Z</time>
      </trkpt>
      <trkpt lat="45.3461" lon="6.03869">
        <ele>787.5</ele>
        <time>2014-10-18T12:19:30Z</time>
      </trkpt>
      <trkpt lat="45.34603" lon="6.03859">
        <ele>788.5</ele>
        <time>2014-10-18T12:19:35Z</time>
      </trkpt>
      <trkpt lat="45.34595" lon="6.03851">
        <ele>789.2</ele>
        <time>2014-10-18T12:19:40Z</time>
      </trkpt>
      <trkpt lat="45.34587" lon="6.03842">
        <ele>789.7</ele>
        <time>2014-10-18T12:19:45Z</time>
      </trkpt>
      <trkpt lat="45.34578" lon="6.03835">
        <ele>791.1</ele>
        <time>2014-10-18T12:19:50Z</time>
      </trkpt>
      <trkpt lat="45.34569" lon="6.03829">
        <ele>792.2</ele>
        <time>2014-10-18T12:19:55Z</time>
      </trkpt>
      <trkpt lat="45.34559" lon="6.03823">
        <ele>793</ele>
        <time>2014-10-18T12:20:00Z</time>
      </trkpt>
      <trkpt lat="45.34549" lon="6.03821">
        <ele>793.7</ele>
        <time>2014-10-18T12:20:05Z</time>
      </trkpt>
      <trkpt lat="45.34538" lon="6.0382">
        <ele>794.5</ele>
        <time>2014-10-18T12:20:10Z</time>
      </trkpt>
      <trkpt lat="45.34528" lon="6.0382">
        <ele>795.4</ele>
        <time>2014-10-18T12:20:15Z</time>
      </trkpt>
      <trkpt lat="45.34517" lon="6.03817">
        <ele>796.5</ele>
        <time>2014-10-18T12:20:20Z</time>
      </trkpt>
      <trkpt lat="45.34507" lon="6.03816">
        <ele>797.5</ele>
        <time>2014-10-18T12:20:25Z</time>
      </trkpt>
      <trkpt lat="45.34496" lon="6.03815">
        <ele>798.4</ele>
        <time>2014-10-18T12:20:30Z</time>
      </trkpt>
      <trkpt lat="45.34485" lon="6.03813">
        <ele>799.3</ele>
        <time>2014-10-18T12:20:35Z</time>
      </trkpt>
      <trkpt lat="45.34474" lon="6.03813">
        <ele>800.2</ele>
        <time>2014-10-18T12:20:40Z</time>
      </trkpt>
      <trkpt lat="45.34463" lon="6.03815">
        <ele>801.2</ele>
        <time>2014-10-18T12:20:45Z</time>
      </trkpt>
      <trkpt lat="45.34453" lon="6.03817">
        <ele>802.3</ele>
        <time>2014-10-18T12:20:50Z</time>
      </trkpt>
      <trkpt lat="45.34442" lon="6.03819">
        <ele>803.1</ele>
        <time>2014-10-18T12:20:55Z</time>
      </trkpt>
      <trkpt lat="45.34432" lon="6.03817">
        <ele>804</ele>
        <time>2014-10-18T12:21:00Z</time>
      </trkpt>
      <trkpt lat="45.34423" lon="6.0381">
        <ele>804.7</ele>
        <time>2014-10-18T12:21:05Z</time>
      </trkpt>
      <trkpt lat="45.34415" lon="6.03803">
        <ele>805.6</ele>
        <time>2014-10-18T12:21:09Z</time>
      </trkpt>
      <trkpt lat="45.34407" lon="6.03795">
        <ele>806.2</ele>
        <time>2014-10-18T12:21:13Z</time>
      </trkpt>
      <trkpt lat="45.344" lon="6.03786">
        <ele>806.8</ele>
        <time>2014-10-18T12:21:17Z</time>
      </trkpt>
      <trkpt lat="45.34392" lon="6.03777">
        <ele>807.4</ele>
        <time>2014-10-18T12:21:21Z</time>
      </trkpt>
      <trkpt lat="45.34384" lon="6.03769">
        <ele>808</ele>
        <time>2014-10-18T12:21:25Z</time>
      </trkpt>
      <trkpt lat="45.34376" lon="6.03761">
        <ele>808.3</ele>
        <time>2014-10-18T12:21:29Z</time>
      </trkpt>
      <trkpt lat="45.34368" lon="6.03753">
        <ele>808.9</ele>
        <time>2014-10-18T12:21:33Z</time>
      </trkpt>
      <trkpt lat="45.34359" lon="6.03746">
        <ele>809.7</ele>
        <time>2014-10-18T12:21:37Z</time>
      </trkpt>
      <trkpt lat="45.34351" lon="6.03739">
        <ele>810.1</ele>
        <time>2014-10-18T12:21:41Z</time>
      </trkpt>
      <trkpt lat="45.34341" lon="6.03734">
        <ele>810.8</ele>
        <time>2014-10-18T12:21:45Z</time>
      </trkpt>
      <trkpt lat="45.34332" lon="6.03729">
        <ele>811.5</ele>
        <time>2014-10-18T12:21:49Z</time>
      </trkpt>
      <trkpt lat="45.34323" lon="6.03724">
        <ele>812</ele>
        <time>2014-10-18T12:21:53Z</time>
      </trkpt>
      <trkpt lat="45.34313" lon="6.03719">
        <ele>812.6</ele>
        <time>2014-10-18T12:21:57Z</time>
      </trkpt>
      <trkpt lat="45.34304" lon="6.03715">
        <ele>813.1</ele>
        <time>2014-10-18T12:22:01Z</time>
      </trkpt>
      <trkpt lat="45.34294" lon="6.03711">
        <ele>813.6</ele>
        <time>2014-10-18T12:22:05Z</time>
      </trkpt>
      <trkpt lat="45.34285" lon="6.03706">
        <ele>814.2</ele>
        <time>2014-10-18T12:22:09Z</time>
      </trkpt>
      <trkpt lat="45.34276" lon="6.03702">
        <ele>815</ele>
        <time>2014-10-18T12:22:13Z</time>
      </trkpt>
      <trkpt lat="45.34266" lon="6.037">
        <ele>815.5</ele>
        <time>2014-10-18T12:22:17Z</time>
      </trkpt>
      <trkpt lat="45.34256" lon="6.03697">
        <ele>816.1</ele>
        <time>2014-10-18T12:22:21Z</time>
      </trkpt>
      <trkpt lat="45.34246" lon="6.03695">
        <ele>816.9</ele>
        <time>2014-10-18T12:22:25Z</time>
      </trkpt>
      <trkpt lat="45.34236" lon="6.03691">
        <ele>817.3</ele>
        <time>2014-10-18T12:22:29Z</time>
      </trkpt>
      <trkpt lat="45.34228" lon="6.03686">
        <ele>818.1</ele>
        <time>2014-10-18T12:22:33Z</time>
      </trkpt>
      <trkpt lat="45.34219" lon="6.03679">
        <ele>818.9</ele>
        <time>2014-10-18T12:22:37Z</time>
      </trkpt>
      <trkpt lat="45.34211" lon="6.03671">
        <ele>819.2</ele>
        <time>2014-10-18T12:22:41Z</time>
      </trkpt>
      <trkpt lat="45.34203" lon="6.0366">
        <ele>820</ele>
        <time>2014-10-18T12:22:46Z</time>
      </trkpt>
      <trkpt lat="45.34195" lon="6.03648">
        <ele>820.8</ele>
        <time>2014-10-18T12:22:51Z</time>
      </trkpt>
      <trkpt lat="45.34188" lon="6.03636">
        <ele>821.6</ele>
        <time>2014-10-18T12:22:56Z</time>
      </trkpt>
      <trkpt lat="45.34181" lon="6.03627">
        <ele>821.9</ele>
        <time>2014-10-18T12:25:24Z</time>
      </trkpt>
      <trkpt lat="45.34172" lon="6.0362">
        <ele>822.4</ele>
        <time>2014-10-18T12:25:31Z</time>
      </trkpt>
      <trkpt lat="45.34161" lon="6.03617">
        <ele>823.3</ele>
        <time>2014-10-18T12:25:36Z</time>
      </trkpt>
      <trkpt lat="45.34152" lon="6.03621">
        <ele>823.7</ele>
        <time>2014-10-18T12:25:40Z</time>
      </trkpt>
      <trkpt lat="45.34143" lon="6.03627">
        <ele>824.1</ele>
        <time>2014-10-18T12:25:44Z</time>
      </trkpt>
      <trkpt lat="45.34133" lon="6.03631">
        <ele>824.3</ele>
        <time>2014-10-18T12:25:48Z</time>
      </trkpt>
      <trkpt lat="45.34123" lon="6.03627">
        <ele>824.6</ele>
        <time>2014-10-18T12:25:52Z</time>
      </trkpt>
      <trkpt lat="45.34115" lon="6.03617">
        <ele>825.4</ele>
        <time>2014-10-18T12:25:56Z</time>
      </trkpt>
      <trkpt lat="45.3411" lon="6.03602">
        <ele>826.3</ele>
        <time>2014-10-18T12:26:00Z</time>
      </trkpt>
      <trkpt lat="45.34108" lon="6.03589">
        <ele>826.7</ele>
        <time>2014-10-18T12:26:04Z</time>
      </trkpt>
      <trkpt lat="45.34102" lon="6.03579">
        <ele>826.9</ele>
        <time>2014-10-18T12:26:07Z</time>
      </trkpt>
      <trkpt lat="45.34093" lon="6.03573">
        <ele>827.2</ele>
        <time>2014-10-18T12:26:10Z</time>
      </trkpt>
      <trkpt lat="45.34083" lon="6.03568">
        <ele>827.4</ele>
        <time>2014-10-18T12:26:13Z</time>
      </trkpt>
      <trkpt lat="45.34074" lon="6.03563">
        <ele>827.3</ele>
        <time>2014-10-18T12:26:16Z</time>
      </trkpt>
      <trkpt lat="45.34065" lon="6.0356">
        <ele>827.8</ele>
        <time>2014-10-18T12:26:19Z</time>
      </trkpt>
      <trkpt lat="45.34054" lon="6.03555">
        <ele>828.3</ele>
        <time>2014-10-18T12:26:23Z</time>
      </trkpt>
      <trkpt lat="45.34043" lon="6.03553">
        <ele>828.8</ele>
        <time>2014-10-18T12:26:27Z</time>
      </trkpt>
      <trkpt lat="45.34032" lon="6.0355">
        <ele>829.5</ele>
        <time>2014-10-18T12:26:31Z</time>
      </trkpt>
      <trkpt lat="45.34022" lon="6.03546">
        <ele>830.2</ele>
        <time>2014-10-18T12:26:35Z</time>
      </trkpt>
      <trkpt lat="45.34014" lon="6.03539">
        <ele>830.3</ele>
        <time>2014-10-18T12:26:39Z</time>
      </trkpt>
      <trkpt lat="45.34007" lon="6.03528">
        <ele>830.6</ele>
        <time>2014-10-18T12:26:43Z</time>
      </trkpt>
      <trkpt lat="45.34004" lon="6.03514">
        <ele>831.1</ele>
        <time>2014-10-18T12:26:46Z</time>
      </trkpt>
      <trkpt lat="45.34006" lon="6.03499">
        <ele>831.1</ele>
        <time>2014-10-18T12:26:49Z</time>
      </trkpt>
      <trkpt lat="45.34015" lon="6.03489">
        <ele>831.7</ele>
        <time>2014-10-18T12:26:52Z</time>
      </trkpt>
      <trkpt lat="45.34024" lon="6.03483">
        <ele>832.2</ele>
        <time>2014-10-18T12:26:55Z</time>
      </trkpt>
      <trkpt lat="45.34033" lon="6.03477">
        <ele>832</ele>
        <time>2014-10-18T12:26:58Z</time>
      </trkpt>
      <trkpt lat="45.34044" lon="6.0347">
        <ele>832.3</ele>
        <time>2014-10-18T12:27:01Z</time>
      </trkpt>
      <trkpt lat="45.34055" lon="6.03464">
        <ele>832.1</ele>
        <time>2014-10-18T12:27:04Z</time>
      </trkpt>
      <trkpt lat="45.34066" lon="6.03457">
        <ele>832.5</ele>
        <time>2014-10-18T12:27:07Z</time>
      </trkpt>
      <trkpt lat="45.34078" lon="6.0345">
        <ele>832.4</ele>
        <time>2014-10-18T12:27:10Z</time>
      </trkpt>
      <trkpt lat="45.34087" lon="6.03442">
        <ele>832.8</ele>
        <time>2014-10-18T12:27:13Z</time>
      </trkpt>
      <trkpt lat="45.34094" lon="6.03428">
        <ele>832.9</ele>
        <time>2014-10-18T12:27:16Z</time>
      </trkpt>
      <trkpt lat="45.34096" lon="6.03411">
        <ele>833</ele>
        <time>2014-10-18T12:27:19Z</time>
      </trkpt>
      <trkpt lat="45.34094" lon="6.03394">
        <ele>833.2</ele>
        <time>2014-10-18T12:27:22Z</time>
      </trkpt>
      <trkpt lat="45.34091" lon="6.03378">
        <ele>833.6</ele>
        <time>2014-10-18T12:27:25Z</time>
      </trkpt>
      <trkpt lat="45.34088" lon="6.03359">
        <ele>833.3</ele>
        <time>2014-10-18T12:27:28Z</time>
      </trkpt>
      <trkpt lat="45.34091" lon="6.03341">
        <ele>833.4</ele>
        <time>2014-10-18T12:27:31Z</time>
      </trkpt>
      <trkpt lat="45.34097" lon="6.03325">
        <ele>833.4</ele>
        <time>2014-10-18T12:27:34Z</time>
      </trkpt>
      <trkpt lat="45.34105" lon="6.0331">
        <ele>833.7</ele>
        <time>2014-10-18T12:27:37Z</time>
      </trkpt>
      <trkpt lat="45.34113" lon="6.03299">
        <ele>833.9</ele>
        <time>2014-10-18T12:27:40Z</time>
      </trkpt>
      <trkpt lat="45.34123" lon="6.03291">
        <ele>834.2</ele>
        <time>2014-10-18T12:27:43Z</time>
      </trkpt>
      <trkpt lat="45.34131" lon="6.03282">
        <ele>834.5</ele>
        <time>2014-10-18T12:27:46Z</time>
      </trkpt>
      <trkpt lat="45.34137" lon="6.03271">
        <ele>834.6</ele>
        <time>2014-10-18T12:27:49Z</time>
      </trkpt>
      <trkpt lat="45.34142" lon="6.03259">
        <ele>834.9</ele>
        <time>2014-10-18T12:27:52Z</time>
      </trkpt>
      <trkpt lat="45.34146" lon="6.03247">
        <ele>835.2</ele>
        <time>2014-10-18T12:27:55Z</time>
      </trkpt>
      <trkpt lat="45.34149" lon="6.03233">
        <ele>835.5</ele>
        <time>2014-10-18T12:27:59Z</time>
      </trkpt>
      <trkpt lat="45.34153" lon="6.03221">
        <ele>836.2</ele>
        <time>2014-10-18T12:28:03Z</time>
      </trkpt>
      <trkpt lat="45.34161" lon="6.03211">
        <ele>837.2</ele>
        <time>2014-10-18T12:28:08Z</time>
      </trkpt>
      <trkpt lat="45.34171" lon="6.03202">
        <ele>838.3</ele>
        <time>2014-10-18T12:28:13Z</time>
      </trkpt>
      <trkpt lat="45.34179" lon="6.03192">
        <ele>839</ele>
        <time>2014-10-18T12:28:18Z</time>
      </trkpt>
      <trkpt lat="45.34188" lon="6.03183">
        <ele>840.1</ele>
        <time>2014-10-18T12:28:23Z</time>
      </trkpt>
      <trkpt lat="45.34196" lon="6.03175">
        <ele>840.7</ele>
        <time>2014-10-18T12:28:28Z</time>
      </trkpt>
      <trkpt lat="45.34203" lon="6.03167">
        <ele>842</ele>
        <time>2014-10-18T12:28:33Z</time>
      </trkpt>
      <trkpt lat="45.34212" lon="6.03159">
        <ele>843.2</ele>
        <time>2014-10-18T12:28:38Z</time>
      </trkpt>
      <trkpt lat="45.3422" lon="6.03152">
        <ele>844.2</ele>
        <time>2014-10-18T12:28:43Z</time>
      </trkpt>
      <trkpt lat="45.34229" lon="6.03146">
        <ele>845.1</ele>
        <time>2014-10-18T12:28:48Z</time>
      </trkpt>
      <trkpt lat="45.34238" lon="6.03141">
        <ele>846.2</ele>
        <time>2014-10-18T12:28:53Z</time>
      </trkpt>
      <trkpt lat="45.34248" lon="6.03135">
        <ele>847.1</ele>
        <time>2014-10-18T12:28:58Z</time>
      </trkpt>
      <trkpt lat="45.34257" lon="6.03128">
        <ele>848</ele>
        <time>2014-10-18T12:29:03Z</time>
      </trkpt>
      <trkpt lat="45.34266" lon="6.0312">
        <ele>848.6</ele>
        <time>2014-10-18T12:29:08Z</time>
      </trkpt>
      <trkpt lat="45.34275" lon="6.03112">
        <ele>849.2</ele>
        <time>2014-10-18T12:29:13Z</time>
      </trkpt>
      <trkpt lat="45.34283" lon="6.03104">
        <ele>850.4</ele>
        <time>2014-10-18T12:29:18Z</time>
      </trkpt>
      <trkpt lat="45.34291" lon="6.03095">
        <ele>851.1</ele>
        <time>2014-10-18T12:29:23Z</time>
      </trkpt>
      <trkpt lat="45.34299" lon="6.03085">
        <ele>851.9</ele>
        <time>2014-10-18T12:29:28Z</time>
      </trkpt>
      <trkpt lat="45.34304" lon="6.03074">
        <ele>852.9</ele>
        <time>2014-10-18T12:29:33Z</time>
      </trkpt>
      <trkpt lat="45.34309" lon="6.03061">
        <ele>853.5</ele>
        <time>2014-10-18T12:29:38Z</time>
      </trkpt>
      <trkpt lat="45.34314" lon="6.03048">
        <ele>854.4</ele>
        <time>2014-10-18T12:29:43Z</time>
      </trkpt>
      <trkpt lat="45.3432" lon="6.03035">
        <ele>855.5</ele>
        <time>2014-10-18T12:29:48Z</time>
      </trkpt>
      <trkpt lat="45.34325" lon="6.03022">
        <ele>856.4</ele>
        <time>2014-10-18T12:29:53Z</time>
      </trkpt>
      <trkpt lat="45.34329" lon="6.03007">
        <ele>856.8</ele>
        <time>2014-10-18T12:29:58Z</time>
      </trkpt>
      <trkpt lat="45.34331" lon="6.02994">
        <ele>857.5</ele>
        <time>2014-10-18T12:30:02Z</time>
      </trkpt>
      <trkpt lat="45.34334" lon="6.0298">
        <ele>858.3</ele>
        <time>2014-10-18T12:30:06Z</time>
      </trkpt>
      <trkpt lat="45.34334" lon="6.02967">
        <ele>859.1</ele>
        <time>2014-10-18T12:30:10Z</time>
      </trkpt>
      <trkpt lat="45.34336" lon="6.02954">
        <ele>859.7</ele>
        <time>2014-10-18T12:30:14Z</time>
      </trkpt>
      <trkpt lat="45.34337" lon="6.02939">
        <ele>861.1</ele>
        <time>2014-10-18T12:30:19Z</time>
      </trkpt>
      <trkpt lat="45.34338" lon="6.02924">
        <ele>862.1</ele>
        <time>2014-10-18T12:30:24Z</time>
      </trkpt>
      <trkpt lat="45.34339" lon="6.02909">
        <ele>863.7</ele>
        <time>2014-10-18T12:30:29Z</time>
      </trkpt>
      <trkpt lat="45.34343" lon="6.02895">
        <ele>864.6</ele>
        <time>2014-10-18T12:30:33Z</time>
      </trkpt>
      <trkpt lat="45.34349" lon="6.02883">
        <ele>865.5</ele>
        <time>2014-10-18T12:30:37Z</time>
      </trkpt>
      <trkpt lat="45.34355" lon="6.02872">
        <ele>866.3</ele>
        <time>2014-10-18T12:30:41Z</time>
      </trkpt>
      <trkpt lat="45.34362" lon="6.02861">
        <ele>867</ele>
        <time>2014-10-18T12:30:45Z</time>
      </trkpt>
      <trkpt lat="45.34369" lon="6.02851">
        <ele>867.7</ele>
        <time>2014-10-18T12:30:49Z</time>
      </trkpt>
      <trkpt lat="45.34376" lon="6.02842">
        <ele>868.5</ele>
        <time>2014-10-18T12:30:53Z</time>
      </trkpt>
      <trkpt lat="45.34383" lon="6.02833">
        <ele>869.5</ele>
        <time>2014-10-18T12:30:57Z</time>
      </trkpt>
      <trkpt lat="45.34391" lon="6.02825">
        <ele>870.2</ele>
        <time>2014-10-18T12:31:01Z</time>
      </trkpt>
      <trkpt lat="45.34399" lon="6.02816">
        <ele>870.7</ele>
        <time>2014-10-18T12:31:05Z</time>
      </trkpt>
      <trkpt lat="45.34408" lon="6.02808">
        <ele>871.8</ele>
        <time>2014-10-18T12:31:09Z</time>
      </trkpt>
      <trkpt lat="45.34415" lon="6.02799">
        <ele>872.7</ele>
        <time>2014-10-18T12:31:13Z</time>
      </trkpt>
      <trkpt lat="45.34423" lon="6.02791">
        <ele>873.2</ele>
        <time>2014-10-18T12:31:17Z</time>
      </trkpt>
      <trkpt lat="45.34431" lon="6.02781">
        <ele>873.8</ele>
        <time>2014-10-18T12:31:21Z</time>
      </trkpt>
      <trkpt lat="45.34439" lon="6.02771">
        <ele>874.2</ele>
        <time>2014-10-18T12:31:25Z</time>
      </trkpt>
      <trkpt lat="45.34448" lon="6.02761">
        <ele>874.9</ele>
        <time>2014-10-18T12:31:29Z</time>
      </trkpt>
      <trkpt lat="45.34456" lon="6.02753">
        <ele>875.3</ele>
        <time>2014-10-18T12:31:33Z</time>
      </trkpt>
      <trkpt lat="45.34465" lon="6.02745">
        <ele>876</ele>
        <time>2014-10-18T12:31:37Z</time>
      </trkpt>
      <trkpt lat="45.34472" lon="6.02736">
        <ele>876.7</ele>
        <time>2014-10-18T12:31:41Z</time>
      </trkpt>
      <trkpt lat="45.3448" lon="6.02728">
        <ele>877.4</ele>
        <time>2014-10-18T12:31:45Z</time>
      </trkpt>
      <trkpt lat="45.34489" lon="6.0272">
        <ele>878.6</ele>
        <time>2014-10-18T12:31:49Z</time>
      </trkpt>
      <trkpt lat="45.34495" lon="6.02711">
        <ele>879.4</ele>
        <time>2014-10-18T12:31:53Z</time>
      </trkpt>
      <trkpt lat="45.34503" lon="6.02703">
        <ele>880.1</ele>
        <time>2014-10-18T12:31:59Z</time>
      </trkpt>
      <trkpt lat="45.3451" lon="6.02692">
        <ele>881</ele>
        <time>2014-10-18T12:32:23Z</time>
      </trkpt>
      <trkpt lat="45.34518" lon="6.02683">
        <ele>881.6</ele>
        <time>2014-10-18T12:32:28Z</time>
      </trkpt>
      <trkpt lat="45.34527" lon="6.02675">
        <ele>882.2</ele>
        <time>2014-10-18T12:32:32Z</time>
      </trkpt>
      <trkpt lat="45.34536" lon="6.02668">
        <ele>882.6</ele>
        <time>2014-10-18T12:32:36Z</time>
      </trkpt>
      <trkpt lat="45.34545" lon="6.0266">
        <ele>883.1</ele>
        <time>2014-10-18T12:32:40Z</time>
      </trkpt>
      <trkpt lat="45.34554" lon="6.02652">
        <ele>883.4</ele>
        <time>2014-10-18T12:32:44Z</time>
      </trkpt>
      <trkpt lat="45.34565" lon="6.02647">
        <ele>884.1</ele>
        <time>2014-10-18T12:32:49Z</time>
      </trkpt>
      <trkpt lat="45.34573" lon="6.02645">
        <ele>884.6</ele>
        <time>2014-10-18T12:32:53Z</time>
      </trkpt>
      <trkpt lat="45.34584" lon="6.02642">
        <ele>885.5</ele>
        <time>2014-10-18T12:32:57Z</time>
      </trkpt>
      <trkpt lat="45.34594" lon="6.0264">
        <ele>886.1</ele>
        <time>2014-10-18T12:33:01Z</time>
      </trkpt>
      <trkpt lat="45.34604" lon="6.0264">
        <ele>886.7</ele>
        <time>2014-10-18T12:33:05Z</time>
      </trkpt>
      <trkpt lat="45.34613" lon="6.0264">
        <ele>887.2</ele>
        <time>2014-10-18T12:33:08Z</time>
      </trkpt>
      <trkpt lat="45.34625" lon="6.0264">
        <ele>887.6</ele>
        <time>2014-10-18T12:33:12Z</time>
      </trkpt>
      <trkpt lat="45.34635" lon="6.02644">
        <ele>888</ele>
        <time>2014-10-18T12:33:16Z</time>
      </trkpt>
      <trkpt lat="45.34644" lon="6.0265">
        <ele>888.2</ele>
        <time>2014-10-18T12:33:20Z</time>
      </trkpt>
      <trkpt lat="45.34653" lon="6.02653">
        <ele>888.7</ele>
        <time>2014-10-18T12:33:24Z</time>
      </trkpt>
      <trkpt lat="45.34663" lon="6.0265">
        <ele>889.6</ele>
        <time>2014-10-18T12:33:28Z</time>
      </trkpt>
      <trkpt lat="45.34667" lon="6.02637">
        <ele>890.2</ele>
        <time>2014-10-18T12:33:32Z</time>
      </trkpt>
      <trkpt lat="45.34664" lon="6.02623">
        <ele>890.6</ele>
        <time>2014-10-18T12:33:36Z</time>
      </trkpt>
      <trkpt lat="45.34654" lon="6.02614">
        <ele>891.1</ele>
        <time>2014-10-18T12:33:40Z</time>
      </trkpt>
      <trkpt lat="45.34643" lon="6.02613">
        <ele>891.4</ele>
        <time>2014-10-18T12:33:44Z</time>
      </trkpt>
      <trkpt lat="45.34632" lon="6.02615">
        <ele>891.8</ele>
        <time>2014-10-18T12:33:48Z</time>
      </trkpt>
      <trkpt lat="45.3462" lon="6.02616">
        <ele>892.3</ele>
        <time>2014-10-18T12:33:52Z</time>
      </trkpt>
      <trkpt lat="45.34608" lon="6.02614">
        <ele>892.5</ele>
        <time>2014-10-18T12:33:56Z</time>
      </trkpt>
      <trkpt lat="45.34597" lon="6.02613">
        <ele>893.1</ele>
        <time>2014-10-18T12:34:00Z</time>
      </trkpt>
      <trkpt lat="45.34586" lon="6.02612">
        <ele>893.7</ele>
        <time>2014-10-18T12:34:04Z</time>
      </trkpt>
      <trkpt lat="45.34574" lon="6.02611">
        <ele>894.5</ele>
        <time>2014-10-18T12:34:08Z</time>
      </trkpt>
      <trkpt lat="45.34563" lon="6.02609">
        <ele>895.4</ele>
        <time>2014-10-18T12:34:12Z</time>
      </trkpt>
      <trkpt lat="45.34553" lon="6.02609">
        <ele>896.3</ele>
        <time>2014-10-18T12:34:16Z</time>
      </trkpt>
      <trkpt lat="45.34543" lon="6.02606">
        <ele>897.6</ele>
        <time>2014-10-18T12:34:20Z</time>
      </trkpt>
      <trkpt lat="45.34534" lon="6.02603">
        <ele>897.7</ele>
        <time>2014-10-18T12:34:23Z</time>
      </trkpt>
      <trkpt lat="45.34524" lon="6.026">
        <ele>898.6</ele>
        <time>2014-10-18T12:34:27Z</time>
      </trkpt>
      <trkpt lat="45.34515" lon="6.02597">
        <ele>900.2</ele>
        <time>2014-10-18T12:34:31Z</time>
      </trkpt>
      <trkpt lat="45.34504" lon="6.02594">
        <ele>900.9</ele>
        <time>2014-10-18T12:34:35Z</time>
      </trkpt>
      <trkpt lat="45.34494" lon="6.02591">
        <ele>900.9</ele>
        <time>2014-10-18T12:34:39Z</time>
      </trkpt>
      <trkpt lat="45.34483" lon="6.02589">
        <ele>901</ele>
        <time>2014-10-18T12:34:43Z</time>
      </trkpt>
      <trkpt lat="45.34472" lon="6.02588">
        <ele>901.6</ele>
        <time>2014-10-18T12:34:47Z</time>
      </trkpt>
      <trkpt lat="45.34461" lon="6.02588">
        <ele>902.4</ele>
        <time>2014-10-18T12:34:51Z</time>
      </trkpt>
      <trkpt lat="45.34451" lon="6.02589">
        <ele>901.3</ele>
        <time>2014-10-18T12:34:55Z</time>
      </trkpt>
      <trkpt lat="45.34441" lon="6.02592">
        <ele>902.7</ele>
        <time>2014-10-18T12:34:59Z</time>
      </trkpt>
      <trkpt lat="45.34431" lon="6.02594">
        <ele>904</ele>
        <time>2014-10-18T12:35:03Z</time>
      </trkpt>
      <trkpt lat="45.34421" lon="6.02598">
        <ele>904.5</ele>
        <time>2014-10-18T12:35:07Z</time>
      </trkpt>
      <trkpt lat="45.34411" lon="6.026">
        <ele>904.9</ele>
        <time>2014-10-18T12:35:11Z</time>
      </trkpt>
      <trkpt lat="45.34402" lon="6.02604">
        <ele>905.5</ele>
        <time>2014-10-18T12:35:15Z</time>
      </trkpt>
      <trkpt lat="45.34392" lon="6.02607">
        <ele>906.5</ele>
        <time>2014-10-18T12:35:19Z</time>
      </trkpt>
      <trkpt lat="45.34381" lon="6.02607">
        <ele>906.8</ele>
        <time>2014-10-18T12:35:23Z</time>
      </trkpt>
      <trkpt lat="45.3437" lon="6.02604">
        <ele>907.6</ele>
        <time>2014-10-18T12:35:27Z</time>
      </trkpt>
      <trkpt lat="45.34359" lon="6.02601">
        <ele>905.5</ele>
        <time>2014-10-18T12:35:31Z</time>
      </trkpt>
      <trkpt lat="45.34349" lon="6.02597">
        <ele>908.2</ele>
        <time>2014-10-18T12:35:35Z</time>
      </trkpt>
      <trkpt lat="45.34339" lon="6.02592">
        <ele>907</ele>
        <time>2014-10-18T12:35:39Z</time>
      </trkpt>
      <trkpt lat="45.3433" lon="6.02589">
        <ele>909.9</ele>
        <time>2014-10-18T12:35:43Z</time>
      </trkpt>
      <trkpt lat="45.34319" lon="6.02586">
        <ele>910.7</ele>
        <time>2014-10-18T12:35:47Z</time>
      </trkpt>
      <trkpt lat="45.34308" lon="6.02582">
        <ele>910.8</ele>
        <time>2014-10-18T12:35:52Z</time>
      </trkpt>
      <trkpt lat="45.34298" lon="6.02581">
        <ele>910.8</ele>
        <time>2014-10-18T12:35:56Z</time>
      </trkpt>
      <trkpt lat="45.34289" lon="6.0258">
        <ele>910.3</ele>
        <time>2014-10-18T12:36:00Z</time>
      </trkpt>
      <trkpt lat="45.34278" lon="6.02584">
        <ele>910.6</ele>
        <time>2014-10-18T12:36:05Z</time>
      </trkpt>
      <trkpt lat="45.34269" lon="6.02591">
        <ele>911.6</ele>
        <time>2014-10-18T12:36:09Z</time>
      </trkpt>
      <trkpt lat="45.34259" lon="6.02598">
        <ele>914.1</ele>
        <time>2014-10-18T12:36:14Z</time>
      </trkpt>
      <trkpt lat="45.34249" lon="6.02606">
        <ele>914.4</ele>
        <time>2014-10-18T12:36:19Z</time>
      </trkpt>
      <trkpt lat="45.3424" lon="6.02612">
        <ele>913.4</ele>
        <time>2014-10-18T12:36:23Z</time>
      </trkpt>
      <trkpt lat="45.34232" lon="6.02617">
        <ele>914.9</ele>
        <time>2014-10-18T12:36:27Z</time>
      </trkpt>
      <trkpt lat="45.34222" lon="6.02622">
        <ele>916</ele>
        <time>2014-10-18T12:36:31Z</time>
      </trkpt>
      <trkpt lat="45.34212" lon="6.02624">
        <ele>917.2</ele>
        <time>2014-10-18T12:36:35Z</time>
      </trkpt>
      <trkpt lat="45.34202" lon="6.02625">
        <ele>917.7</ele>
        <time>2014-10-18T12:36:39Z</time>
      </trkpt>
      <trkpt lat="45.34191" lon="6.02625">
        <ele>918</ele>
        <time>2014-10-18T12:36:43Z</time>
      </trkpt>
      <trkpt lat="45.34181" lon="6.02622">
        <ele>919.5</ele>
        <time>2014-10-18T12:36:47Z</time>
      </trkpt>
      <trkpt lat="45.34171" lon="6.02619">
        <ele>920.5</ele>
        <time>2014-10-18T12:36:51Z</time>
      </trkpt>
      <trkpt lat="45.34161" lon="6.02616">
        <ele>921.8</ele>
        <time>2014-10-18T12:36:55Z</time>
      </trkpt>
      <trkpt lat="45.34152" lon="6.02613">
        <ele>916.8</ele>
        <time>2014-10-18T12:36:59Z</time>
      </trkpt>
      <trkpt lat="45.34142" lon="6.0261">
        <ele>920.5</ele>
        <time>2014-10-18T12:37:03Z</time>
      </trkpt>
      <trkpt lat="45.34132" lon="6.02607">
        <ele>922.1</ele>
        <time>2014-10-18T12:37:07Z</time>
      </trkpt>
      <trkpt lat="45.34122" lon="6.0261">
        <ele>917.8</ele>
        <time>2014-10-18T12:37:11Z</time>
      </trkpt>
      <trkpt lat="45.34113" lon="6.02613">
        <ele>922.4</ele>
        <time>2014-10-18T12:37:15Z</time>
      </trkpt>
      <trkpt lat="45.34104" lon="6.02618">
        <ele>923.9</ele>
        <time>2014-10-18T12:37:19Z</time>
      </trkpt>
      <trkpt lat="45.34094" lon="6.02623">
        <ele>925.1</ele>
        <time>2014-10-18T12:37:23Z</time>
      </trkpt>
      <trkpt lat="45.34085" lon="6.02628">
        <ele>925.8</ele>
        <time>2014-10-18T12:37:27Z</time>
      </trkpt>
      <trkpt lat="45.34077" lon="6.02635">
        <ele>927.1</ele>
        <time>2014-10-18T12:37:31Z</time>
      </trkpt>
      <trkpt lat="45.34069" lon="6.02643">
        <ele>927.7</ele>
        <time>2014-10-18T12:37:35Z</time>
      </trkpt>
      <trkpt lat="45.34061" lon="6.02651">
        <ele>928.5</ele>
        <time>2014-10-18T12:37:39Z</time>
      </trkpt>
      <trkpt lat="45.34053" lon="6.02662">
        <ele>929.5</ele>
        <time>2014-10-18T12:37:43Z</time>
      </trkpt>
      <trkpt lat="45.34046" lon="6.02673">
        <ele>930.3</ele>
        <time>2014-10-18T12:37:47Z</time>
      </trkpt>
      <trkpt lat="45.34039" lon="6.02683">
        <ele>931.2</ele>
        <time>2014-10-18T12:37:51Z</time>
      </trkpt>
      <trkpt lat="45.34032" lon="6.02693">
        <ele>932</ele>
        <time>2014-10-18T12:37:55Z</time>
      </trkpt>
      <trkpt lat="45.34023" lon="6.02701">
        <ele>933.1</ele>
        <time>2014-10-18T12:37:59Z</time>
      </trkpt>
      <trkpt lat="45.34015" lon="6.02709">
        <ele>933.7</ele>
        <time>2014-10-18T12:38:03Z</time>
      </trkpt>
      <trkpt lat="45.34005" lon="6.02711">
        <ele>934.5</ele>
        <time>2014-10-18T12:38:07Z</time>
      </trkpt>
      <trkpt lat="45.33996" lon="6.02711">
        <ele>935.2</ele>
        <time>2014-10-18T12:38:11Z</time>
      </trkpt>
      <trkpt lat="45.33985" lon="6.02711">
        <ele>936.3</ele>
        <time>2014-10-18T12:38:15Z</time>
      </trkpt>
      <trkpt lat="45.33975" lon="6.0271">
        <ele>936.8</ele>
        <time>2014-10-18T12:38:19Z</time>
      </trkpt>
      <trkpt lat="45.33966" lon="6.02712">
        <ele>937.6</ele>
        <time>2014-10-18T12:38:23Z</time>
      </trkpt>
      <trkpt lat="45.33956" lon="6.02715">
        <ele>938.2</ele>
        <time>2014-10-18T12:38:27Z</time>
      </trkpt>
      <trkpt lat="45.33947" lon="6.02719">
        <ele>938.9</ele>
        <time>2014-10-18T12:38:31Z</time>
      </trkpt>
      <trkpt lat="45.33938" lon="6.02725">
        <ele>939.9</ele>
        <time>2014-10-18T12:38:35Z</time>
      </trkpt>
      <trkpt lat="45.33929" lon="6.0273">
        <ele>940.7</ele>
        <time>2014-10-18T12:38:39Z</time>
      </trkpt>
      <trkpt lat="45.3392" lon="6.02733">
        <ele>941.4</ele>
        <time>2014-10-18T12:38:43Z</time>
      </trkpt>
      <trkpt lat="45.33909" lon="6.02736">
        <ele>942.2</ele>
        <time>2014-10-18T12:38:48Z</time>
      </trkpt>
      <trkpt lat="45.33898" lon="6.02739">
        <ele>943.4</ele>
        <time>2014-10-18T12:38:53Z</time>
      </trkpt>
      <trkpt lat="45.33889" lon="6.0274">
        <ele>944.3</ele>
        <time>2014-10-18T12:38:57Z</time>
      </trkpt>
      <trkpt lat="45.3388" lon="6.02743">
        <ele>944.7</ele>
        <time>2014-10-18T12:39:01Z</time>
      </trkpt>
      <trkpt lat="45.33871" lon="6.02745">
        <ele>945.5</ele>
        <time>2014-10-18T12:39:05Z</time>
      </trkpt>
      <trkpt lat="45.33861" lon="6.02747">
        <ele>946.3</ele>
        <time>2014-10-18T12:39:09Z</time>
      </trkpt>
      <trkpt lat="45.33851" lon="6.02749">
        <ele>947.2</ele>
        <time>2014-10-18T12:39:14Z</time>
      </trkpt>
      <trkpt lat="45.3384" lon="6.02752">
        <ele>947.9</ele>
        <time>2014-10-18T12:39:19Z</time>
      </trkpt>
      <trkpt lat="45.3383" lon="6.02753">
        <ele>948.5</ele>
        <time>2014-10-18T12:39:23Z</time>
      </trkpt>
      <trkpt lat="45.33821" lon="6.02756">
        <ele>949.5</ele>
        <time>2014-10-18T12:39:27Z</time>
      </trkpt>
      <trkpt lat="45.33812" lon="6.02755">
        <ele>950.5</ele>
        <time>2014-10-18T12:39:31Z</time>
      </trkpt>
      <trkpt lat="45.33803" lon="6.02755">
        <ele>951.1</ele>
        <time>2014-10-18T12:39:35Z</time>
      </trkpt>
      <trkpt lat="45.33794" lon="6.02751">
        <ele>951.9</ele>
        <time>2014-10-18T12:39:39Z</time>
      </trkpt>
      <trkpt lat="45.33784" lon="6.02747">
        <ele>952.5</ele>
        <time>2014-10-18T12:39:43Z</time>
      </trkpt>
      <trkpt lat="45.33775" lon="6.02742">
        <ele>953.3</ele>
        <time>2014-10-18T12:39:47Z</time>
      </trkpt>
      <trkpt lat="45.33766" lon="6.02738">
        <ele>954.1</ele>
        <time>2014-10-18T12:39:51Z</time>
      </trkpt>
      <trkpt lat="45.33757" lon="6.02734">
        <ele>955</ele>
        <time>2014-10-18T12:39:55Z</time>
      </trkpt>
      <trkpt lat="45.33748" lon="6.02731">
        <ele>955.7</ele>
        <time>2014-10-18T12:39:59Z</time>
      </trkpt>
      <trkpt lat="45.33738" lon="6.02729">
        <ele>956.5</ele>
        <time>2014-10-18T12:40:03Z</time>
      </trkpt>
      <trkpt lat="45.33729" lon="6.02728">
        <ele>957</ele>
        <time>2014-10-18T12:40:07Z</time>
      </trkpt>
      <trkpt lat="45.3372" lon="6.02727">
        <ele>957.7</ele>
        <time>2014-10-18T12:40:11Z</time>
      </trkpt>
      <trkpt lat="45.33711" lon="6.02726">
        <ele>958.3</ele>
        <time>2014-10-18T12:40:15Z</time>
      </trkpt>
      <trkpt lat="45.33702" lon="6.02725">
        <ele>959.1</ele>
        <time>2014-10-18T12:40:19Z</time>
      </trkpt>
      <trkpt lat="45.33693" lon="6.02724">
        <ele>959.8</ele>
        <time>2014-10-18T12:40:23Z</time>
      </trkpt>
      <trkpt lat="45.33683" lon="6.02723">
        <ele>960.7</ele>
        <time>2014-10-18T12:40:27Z</time>
      </trkpt>
      <trkpt lat="45.33674" lon="6.02722">
        <ele>961.6</ele>
        <time>2014-10-18T12:40:31Z</time>
      </trkpt>
      <trkpt lat="45.33664" lon="6.02721">
        <ele>962.3</ele>
        <time>2014-10-18T12:40:35Z</time>
      </trkpt>
      <trkpt lat="45.33655" lon="6.0272">
        <ele>962.9</ele>
        <time>2014-10-18T12:40:39Z</time>
      </trkpt>
      <trkpt lat="45.33646" lon="6.02719">
        <ele>963.7</ele>
        <time>2014-10-18T12:40:43Z</time>
      </trkpt>
      <trkpt lat="45.33636" lon="6.02718">
        <ele>964.5</ele>
        <time>2014-10-18T12:40:47Z</time>
      </trkpt>
      <trkpt lat="45.33627" lon="6.02718">
        <ele>965.1</ele>
        <time>2014-10-18T12:40:51Z</time>
      </trkpt>
      <trkpt lat="45.33618" lon="6.02717">
        <ele>965.8</ele>
        <time>2014-10-18T12:40:55Z</time>
      </trkpt>
      <trkpt lat="45.33608" lon="6.02717">
        <ele>966.5</ele>
        <time>2014-10-18T12:40:59Z</time>
      </trkpt>
      <trkpt lat="45.33599" lon="6.02716">
        <ele>967.1</ele>
        <time>2014-10-18T12:41:03Z</time>
      </trkpt>
      <trkpt lat="45.33589" lon="6.02715">
        <ele>967.9</ele>
        <time>2014-10-18T12:41:07Z</time>
      </trkpt>
      <trkpt lat="45.3358" lon="6.02714">
        <ele>968.8</ele>
        <time>2014-10-18T12:41:11Z</time>
      </trkpt>
      <trkpt lat="45.3357" lon="6.02713">
        <ele>969.5</ele>
        <time>2014-10-18T12:41:15Z</time>
      </trkpt>
      <trkpt lat="45.33561" lon="6.02712">
        <ele>970.2</ele>
        <time>2014-10-18T12:41:19Z</time>
      </trkpt>
      <trkpt lat="45.33551" lon="6.02712">
        <ele>971.4</ele>
        <time>2014-10-18T12:41:24Z</time>
      </trkpt>
      <trkpt lat="45.33541" lon="6.02713">
        <ele>972.1</ele>
        <time>2014-10-18T12:41:29Z</time>
      </trkpt>
      <trkpt lat="45.3353" lon="6.02714">
        <ele>973</ele>
        <time>2014-10-18T12:41:34Z</time>
      </trkpt>
      <trkpt lat="45.3352" lon="6.02715">
        <ele>973.8</ele>
        <time>2014-10-18T12:41:39Z</time>
      </trkpt>
      <trkpt lat="45.33509" lon="6.02715">
        <ele>975.1</ele>
        <time>2014-10-18T12:41:44Z</time>
      </trkpt>
      <trkpt lat="45.33498" lon="6.02715">
        <ele>975.8</ele>
        <time>2014-10-18T12:41:49Z</time>
      </trkpt>
      <trkpt lat="45.33487" lon="6.02715">
        <ele>976.8</ele>
        <time>2014-10-18T12:41:54Z</time>
      </trkpt>
      <trkpt lat="45.33476" lon="6.02716">
        <ele>977.7</ele>
        <time>2014-10-18T12:41:59Z</time>
      </trkpt>
      <trkpt lat="45.33467" lon="6.02716">
        <ele>978.5</ele>
        <time>2014-10-18T12:42:03Z</time>
      </trkpt>
      <trkpt lat="45.33457" lon="6.02718">
        <ele>979.1</ele>
        <time>2014-10-18T12:42:08Z</time>
      </trkpt>
      <trkpt lat="45.33447" lon="6.02722">
        <ele>979.6</ele>
        <time>2014-10-18T12:42:13Z</time>
      </trkpt>
      <trkpt lat="45.33439" lon="6.02728">
        <ele>980.5</ele>
        <time>2014-10-18T12:42:18Z</time>
      </trkpt>
      <trkpt lat="45.33429" lon="6.02735">
        <ele>981.5</ele>
        <time>2014-10-18T12:42:23Z</time>
      </trkpt>
      <trkpt lat="45.3342" lon="6.02743">
        <ele>982.5</ele>
        <time>2014-10-18T12:42:28Z</time>
      </trkpt>
      <trkpt lat="45.33411" lon="6.0275">
        <ele>983.3</ele>
        <time>2014-10-18T12:42:33Z</time>
      </trkpt>
      <trkpt lat="45.33402" lon="6.02757">
        <ele>984.2</ele>
        <time>2014-10-18T12:42:38Z</time>
      </trkpt>
      <trkpt lat="45.33392" lon="6.02766">
        <ele>984.9</ele>
        <time>2014-10-18T12:42:43Z</time>
      </trkpt>
      <trkpt lat="45.33384" lon="6.02774">
        <ele>985.6</ele>
        <time>2014-10-18T12:42:47Z</time>
      </trkpt>
      <trkpt lat="45.33377" lon="6.02783">
        <ele>986.2</ele>
        <time>2014-10-18T12:42:51Z</time>
      </trkpt>
      <trkpt lat="45.33371" lon="6.02793">
        <ele>986.6</ele>
        <time>2014-10-18T12:42:55Z</time>
      </trkpt>
      <trkpt lat="45.33367" lon="6.02807">
        <ele>987.7</ele>
        <time>2014-10-18T12:43:00Z</time>
      </trkpt>
      <trkpt lat="45.33366" lon="6.02822">
        <ele>988</ele>
        <time>2014-10-18T12:43:05Z</time>
      </trkpt>
      <trkpt lat="45.33365" lon="6.02838">
        <ele>988.8</ele>
        <time>2014-10-18T12:43:10Z</time>
      </trkpt>
      <trkpt lat="45.33365" lon="6.02851">
        <ele>989.5</ele>
        <time>2014-10-18T12:43:14Z</time>
      </trkpt>
      <trkpt lat="45.33365" lon="6.02866">
        <ele>989.9</ele>
        <time>2014-10-18T12:43:19Z</time>
      </trkpt>
      <trkpt lat="45.33366" lon="6.02881">
        <ele>991</ele>
        <time>2014-10-18T12:43:24Z</time>
      </trkpt>
      <trkpt lat="45.33369" lon="6.02897">
        <ele>992.2</ele>
        <time>2014-10-18T12:43:29Z</time>
      </trkpt>
      <trkpt lat="45.33373" lon="6.02912">
        <ele>992.9</ele>
        <time>2014-10-18T12:43:34Z</time>
      </trkpt>
      <trkpt lat="45.33378" lon="6.02926">
        <ele>993.8</ele>
        <time>2014-10-18T12:43:39Z</time>
      </trkpt>
      <trkpt lat="45.3338" lon="6.02941">
        <ele>994.7</ele>
        <time>2014-10-18T12:43:44Z</time>
      </trkpt>
      <trkpt lat="45.33382" lon="6.02953">
        <ele>995.6</ele>
        <time>2014-10-18T12:43:48Z</time>
      </trkpt>
      <trkpt lat="45.33386" lon="6.02966">
        <ele>996.3</ele>
        <time>2014-10-18T12:43:53Z</time>
      </trkpt>
      <trkpt lat="45.33388" lon="6.0298">
        <ele>997</ele>
        <time>2014-10-18T12:43:57Z</time>
      </trkpt>
      <trkpt lat="45.33392" lon="6.02995">
        <ele>997.2</ele>
        <time>2014-10-18T12:44:02Z</time>
      </trkpt>
      <trkpt lat="45.33392" lon="6.03008">
        <ele>997.5</ele>
        <time>2014-10-18T12:44:06Z</time>
      </trkpt>
      <trkpt lat="45.33386" lon="6.03018">
        <ele>997.8</ele>
        <time>2014-10-18T12:44:10Z</time>
      </trkpt>
      <trkpt lat="45.33376" lon="6.03017">
        <ele>998.9</ele>
        <time>2014-10-18T12:44:15Z</time>
      </trkpt>
      <trkpt lat="45.33369" lon="6.03008">
        <ele>999.4</ele>
        <time>2014-10-18T12:44:18Z</time>
      </trkpt>
      <trkpt lat="45.33368" lon="6.02995">
        <ele>999.7</ele>
        <time>2014-10-18T12:44:22Z</time>
      </trkpt>
      <trkpt lat="45.33366" lon="6.0298">
        <ele>1000.5</ele>
        <time>2014-10-18T12:44:27Z</time>
      </trkpt>
      <trkpt lat="45.33362" lon="6.02968">
        <ele>1000.9</ele>
        <time>2014-10-18T12:44:31Z</time>
      </trkpt>
      <trkpt lat="45.33358" lon="6.02956">
        <ele>1001.8</ele>
        <time>2014-10-18T12:44:36Z</time>
      </trkpt>
      <trkpt lat="45.33351" lon="6.02945">
        <ele>1002.3</ele>
        <time>2014-10-18T12:44:41Z</time>
      </trkpt>
      <trkpt lat="45.33343" lon="6.02937">
        <ele>1003</ele>
        <time>2014-10-18T12:44:46Z</time>
      </trkpt>
      <trkpt lat="45.33337" lon="6.02926">
        <ele>1003.8</ele>
        <time>2014-10-18T12:44:51Z</time>
      </trkpt>
      <trkpt lat="45.33328" lon="6.02916">
        <ele>1004.7</ele>
        <time>2014-10-18T12:44:56Z</time>
      </trkpt>
      <trkpt lat="45.33322" lon="6.02905">
        <ele>1005.2</ele>
        <time>2014-10-18T12:45:00Z</time>
      </trkpt>
      <trkpt lat="45.33316" lon="6.02896">
        <ele>1005.8</ele>
        <time>2014-10-18T12:45:04Z</time>
      </trkpt>
      <trkpt lat="45.33309" lon="6.02885">
        <ele>1006.8</ele>
        <time>2014-10-18T12:45:09Z</time>
      </trkpt>
      <trkpt lat="45.33302" lon="6.02875">
        <ele>1007.8</ele>
        <time>2014-10-18T12:45:14Z</time>
      </trkpt>
      <trkpt lat="45.33295" lon="6.02865">
        <ele>1008.8</ele>
        <time>2014-10-18T12:45:19Z</time>
      </trkpt>
      <trkpt lat="45.33288" lon="6.02857">
        <ele>1009.3</ele>
        <time>2014-10-18T12:45:23Z</time>
      </trkpt>
      <trkpt lat="45.33279" lon="6.02848">
        <ele>1010</ele>
        <time>2014-10-18T12:45:28Z</time>
      </trkpt>
      <trkpt lat="45.33271" lon="6.02839">
        <ele>1010.6</ele>
        <time>2014-10-18T12:45:32Z</time>
      </trkpt>
      <trkpt lat="45.33262" lon="6.02831">
        <ele>1011.4</ele>
        <time>2014-10-18T12:45:37Z</time>
      </trkpt>
      <trkpt lat="45.33253" lon="6.02823">
        <ele>1012.5</ele>
        <time>2014-10-18T12:45:43Z</time>
      </trkpt>
      <trkpt lat="45.33244" lon="6.02814">
        <ele>1013.3</ele>
        <time>2014-10-18T12:45:48Z</time>
      </trkpt>
      <trkpt lat="45.33236" lon="6.02806">
        <ele>1013.6</ele>
        <time>2014-10-18T12:45:53Z</time>
      </trkpt>
      <trkpt lat="45.33228" lon="6.02796">
        <ele>1014.8</ele>
        <time>2014-10-18T12:45:58Z</time>
      </trkpt>
      <trkpt lat="45.33221" lon="6.02788">
        <ele>1015.2</ele>
        <time>2014-10-18T12:46:02Z</time>
      </trkpt>
      <trkpt lat="45.33213" lon="6.0278">
        <ele>1015.8</ele>
        <time>2014-10-18T12:46:06Z</time>
      </trkpt>
      <trkpt lat="45.33205" lon="6.02772">
        <ele>1016.4</ele>
        <time>2014-10-18T12:46:11Z</time>
      </trkpt>
      <trkpt lat="45.33197" lon="6.02762">
        <ele>1017.3</ele>
        <time>2014-10-18T12:46:16Z</time>
      </trkpt>
      <trkpt lat="45.3319" lon="6.02752">
        <ele>1018.2</ele>
        <time>2014-10-18T12:46:21Z</time>
      </trkpt>
      <trkpt lat="45.33181" lon="6.02743">
        <ele>1018.7</ele>
        <time>2014-10-18T12:46:26Z</time>
      </trkpt>
      <trkpt lat="45.33173" lon="6.02735">
        <ele>1019.5</ele>
        <time>2014-10-18T12:46:31Z</time>
      </trkpt>
      <trkpt lat="45.33164" lon="6.02726">
        <ele>1020.2</ele>
        <time>2014-10-18T12:46:36Z</time>
      </trkpt>
      <trkpt lat="45.33156" lon="6.02715">
        <ele>1020.9</ele>
        <time>2014-10-18T12:46:41Z</time>
      </trkpt>
      <trkpt lat="45.33147" lon="6.02706">
        <ele>1021.7</ele>
        <time>2014-10-18T12:46:46Z</time>
      </trkpt>
      <trkpt lat="45.3314" lon="6.02698">
        <ele>1022</ele>
        <time>2014-10-18T12:46:50Z</time>
      </trkpt>
      <trkpt lat="45.33134" lon="6.02688">
        <ele>1022</ele>
        <time>2014-10-18T12:46:54Z</time>
      </trkpt>
      <trkpt lat="45.33126" lon="6.02695">
        <ele>1021.9</ele>
        <time>2014-10-18T12:47:01Z</time>
      </trkpt>
      <trkpt lat="45.33123" lon="6.02708">
        <ele>1022.4</ele>
        <time>2014-10-18T12:47:06Z</time>
      </trkpt>
      <trkpt lat="45.33124" lon="6.02722">
        <ele>1022.6</ele>
        <time>2014-10-18T12:47:11Z</time>
      </trkpt>
      <trkpt lat="45.33126" lon="6.02736">
        <ele>1023.5</ele>
        <time>2014-10-18T12:47:16Z</time>
      </trkpt>
      <trkpt lat="45.33128" lon="6.02749">
        <ele>1024.4</ele>
        <time>2014-10-18T12:47:21Z</time>
      </trkpt>
      <trkpt lat="45.33133" lon="6.0276">
        <ele>1025.4</ele>
        <time>2014-10-18T12:47:26Z</time>
      </trkpt>
      <trkpt lat="45.33141" lon="6.0277">
        <ele>1026.5</ele>
        <time>2014-10-18T12:47:32Z</time>
      </trkpt>
      <trkpt lat="45.33148" lon="6.02779">
        <ele>1026.9</ele>
        <time>2014-10-18T12:47:37Z</time>
      </trkpt>
      <trkpt lat="45.33156" lon="6.02788">
        <ele>1027.9</ele>
        <time>2014-10-18T12:47:42Z</time>
      </trkpt>
      <trkpt lat="45.33165" lon="6.02797">
        <ele>1028.6</ele>
        <time>2014-10-18T12:47:47Z</time>
      </trkpt>
      <trkpt lat="45.33172" lon="6.02805">
        <ele>1029.6</ele>
        <time>2014-10-18T12:47:51Z</time>
      </trkpt>
      <trkpt lat="45.33179" lon="6.02815">
        <ele>1030.2</ele>
        <time>2014-10-18T12:47:55Z</time>
      </trkpt>
      <trkpt lat="45.33185" lon="6.02826">
        <ele>1030.9</ele>
        <time>2014-10-18T12:48:00Z</time>
      </trkpt>
      <trkpt lat="45.33193" lon="6.02837">
        <ele>1032.2</ele>
        <time>2014-10-18T12:48:06Z</time>
      </trkpt>
      <trkpt lat="45.33199" lon="6.02847">
        <ele>1032.9</ele>
        <time>2014-10-18T12:48:11Z</time>
      </trkpt>
      <trkpt lat="45.33206" lon="6.02856">
        <ele>1033.9</ele>
        <time>2014-10-18T12:48:15Z</time>
      </trkpt>
      <trkpt lat="45.33214" lon="6.02868">
        <ele>1035</ele>
        <time>2014-10-18T12:48:20Z</time>
      </trkpt>
      <trkpt lat="45.3322" lon="6.0288">
        <ele>1035.8</ele>
        <time>2014-10-18T12:48:25Z</time>
      </trkpt>
      <trkpt lat="45.33225" lon="6.02892">
        <ele>1036.6</ele>
        <time>2014-10-18T12:48:29Z</time>
      </trkpt>
      <trkpt lat="45.33229" lon="6.02905">
        <ele>1037.6</ele>
        <time>2014-10-18T12:48:33Z</time>
      </trkpt>
      <trkpt lat="45.33232" lon="6.0292">
        <ele>1038.4</ele>
        <time>2014-10-18T12:48:38Z</time>
      </trkpt>
      <trkpt lat="45.33234" lon="6.02933">
        <ele>1039.4</ele>
        <time>2014-10-18T12:48:42Z</time>
      </trkpt>
      <trkpt lat="45.33237" lon="6.02946">
        <ele>1040</ele>
        <time>2014-10-18T12:48:46Z</time>
      </trkpt>
      <trkpt lat="45.33241" lon="6.0296">
        <ele>1040.8</ele>
        <time>2014-10-18T12:48:51Z</time>
      </trkpt>
      <trkpt lat="45.33243" lon="6.02974">
        <ele>1041.5</ele>
        <time>2014-10-18T12:48:55Z</time>
      </trkpt>
      <trkpt lat="45.33245" lon="6.02988">
        <ele>1042.1</ele>
        <time>2014-10-18T12:48:59Z</time>
      </trkpt>
      <trkpt lat="45.33248" lon="6.03001">
        <ele>1042.8</ele>
        <time>2014-10-18T12:49:03Z</time>
      </trkpt>
      <trkpt lat="45.33251" lon="6.03013">
        <ele>1043.1</ele>
        <time>2014-10-18T12:49:07Z</time>
      </trkpt>
      <trkpt lat="45.33255" lon="6.03025">
        <ele>1043.9</ele>
        <time>2014-10-18T12:49:11Z</time>
      </trkpt>
      <trkpt lat="45.3326" lon="6.03037">
        <ele>1044.3</ele>
        <time>2014-10-18T12:49:15Z</time>
      </trkpt>
      <trkpt lat="45.33264" lon="6.03048">
        <ele>1045</ele>
        <time>2014-10-18T12:49:19Z</time>
      </trkpt>
      <trkpt lat="45.33267" lon="6.03062">
        <ele>1045.7</ele>
        <time>2014-10-18T12:49:23Z</time>
      </trkpt>
      <trkpt lat="45.33269" lon="6.03076">
        <ele>1046.5</ele>
        <time>2014-10-18T12:49:27Z</time>
      </trkpt>
      <trkpt lat="45.33271" lon="6.03091">
        <ele>1047.5</ele>
        <time>2014-10-18T12:49:32Z</time>
      </trkpt>
      <trkpt lat="45.3327" lon="6.03106">
        <ele>1048.3</ele>
        <time>2014-10-18T12:49:37Z</time>
      </trkpt>
      <trkpt lat="45.33269" lon="6.0312">
        <ele>1049.3</ele>
        <time>2014-10-18T12:49:42Z</time>
      </trkpt>
      <trkpt lat="45.33266" lon="6.03134">
        <ele>1049.8</ele>
        <time>2014-10-18T12:49:47Z</time>
      </trkpt>
      <trkpt lat="45.33261" lon="6.03148">
        <ele>1050.5</ele>
        <time>2014-10-18T12:49:52Z</time>
      </trkpt>
      <trkpt lat="45.33257" lon="6.03159">
        <ele>1051.4</ele>
        <time>2014-10-18T12:49:56Z</time>
      </trkpt>
      <trkpt lat="45.33252" lon="6.03172">
        <ele>1051.9</ele>
        <time>2014-10-18T12:50:01Z</time>
      </trkpt>
      <trkpt lat="45.33248" lon="6.03186">
        <ele>1052.8</ele>
        <time>2014-10-18T12:50:06Z</time>
      </trkpt>
      <trkpt lat="45.33248" lon="6.032">
        <ele>1053.7</ele>
        <time>2014-10-18T12:50:11Z</time>
      </trkpt>
      <trkpt lat="45.33251" lon="6.03214">
        <ele>1054.4</ele>
        <time>2014-10-18T12:50:16Z</time>
      </trkpt>
      <trkpt lat="45.33254" lon="6.03228">
        <ele>1055.3</ele>
        <time>2014-10-18T12:50:21Z</time>
      </trkpt>
      <trkpt lat="45.33257" lon="6.03241">
        <ele>1056.5</ele>
        <time>2014-10-18T12:50:26Z</time>
      </trkpt>
      <trkpt lat="45.3326" lon="6.03255">
        <ele>1057.4</ele>
        <time>2014-10-18T12:50:31Z</time>
      </trkpt>
      <trkpt lat="45.33261" lon="6.03269">
        <ele>1058.1</ele>
        <time>2014-10-18T12:50:36Z</time>
      </trkpt>
      <trkpt lat="45.3326" lon="6.03283">
        <ele>1059</ele>
        <time>2014-10-18T12:50:41Z</time>
      </trkpt>
      <trkpt lat="45.33256" lon="6.03295">
        <ele>1059.7</ele>
        <time>2014-10-18T12:50:46Z</time>
      </trkpt>
      <trkpt lat="45.33249" lon="6.03304">
        <ele>1060.4</ele>
        <time>2014-10-18T12:50:51Z</time>
      </trkpt>
      <trkpt lat="45.33239" lon="6.03307">
        <ele>1061.4</ele>
        <time>2014-10-18T12:50:56Z</time>
      </trkpt>
      <trkpt lat="45.33229" lon="6.03307">
        <ele>1062.3</ele>
        <time>2014-10-18T12:51:02Z</time>
      </trkpt>
      <trkpt lat="45.33219" lon="6.03305">
        <ele>1063.5</ele>
        <time>2014-10-18T12:51:08Z</time>
      </trkpt>
      <trkpt lat="45.33208" lon="6.03304">
        <ele>1064.7</ele>
        <time>2014-10-18T12:51:14Z</time>
      </trkpt>
      <trkpt lat="45.33198" lon="6.03302">
        <ele>1065.7</ele>
        <time>2014-10-18T12:51:20Z</time>
      </trkpt>
      <trkpt lat="45.33188" lon="6.03302">
        <ele>1066.9</ele>
        <time>2014-10-18T12:51:26Z</time>
      </trkpt>
      <trkpt lat="45.33179" lon="6.03299">
        <ele>1067.5</ele>
        <time>2014-10-18T12:51:31Z</time>
      </trkpt>
      <trkpt lat="45.3317" lon="6.03298">
        <ele>1068</ele>
        <time>2014-10-18T12:51:36Z</time>
      </trkpt>
      <trkpt lat="45.3316" lon="6.03298">
        <ele>1068.7</ele>
        <time>2014-10-18T12:51:41Z</time>
      </trkpt>
      <trkpt lat="45.3315" lon="6.03302">
        <ele>1070.1</ele>
        <time>2014-10-18T12:51:46Z</time>
      </trkpt>
      <trkpt lat="45.33142" lon="6.03309">
        <ele>1070.8</ele>
        <time>2014-10-18T12:51:51Z</time>
      </trkpt>
      <trkpt lat="45.33132" lon="6.03316">
        <ele>1072.2</ele>
        <time>2014-10-18T12:51:57Z</time>
      </trkpt>
      <trkpt lat="45.33124" lon="6.03323">
        <ele>1073.1</ele>
        <time>2014-10-18T12:52:02Z</time>
      </trkpt>
      <trkpt lat="45.33116" lon="6.0333">
        <ele>1073.8</ele>
        <time>2014-10-18T12:52:07Z</time>
      </trkpt>
      <trkpt lat="45.33109" lon="6.03338">
        <ele>1074.3</ele>
        <time>2014-10-18T12:52:12Z</time>
      </trkpt>
      <trkpt lat="45.33103" lon="6.03349">
        <ele>1075.1</ele>
        <time>2014-10-18T12:52:18Z</time>
      </trkpt>
      <trkpt lat="45.33098" lon="6.03362">
        <ele>1075.9</ele>
        <time>2014-10-18T12:52:24Z</time>
      </trkpt>
      <trkpt lat="45.33092" lon="6.03374">
        <ele>1077.3</ele>
        <time>2014-10-18T12:52:30Z</time>
      </trkpt>
      <trkpt lat="45.33085" lon="6.03386">
        <ele>1078.2</ele>
        <time>2014-10-18T12:52:36Z</time>
      </trkpt>
      <trkpt lat="45.33079" lon="6.03397">
        <ele>1078.8</ele>
        <time>2014-10-18T12:52:42Z</time>
      </trkpt>
      <trkpt lat="45.33072" lon="6.03407">
        <ele>1079.9</ele>
        <time>2014-10-18T12:52:48Z</time>
      </trkpt>
      <trkpt lat="45.33063" lon="6.03414">
        <ele>1080.5</ele>
        <time>2014-10-18T12:52:54Z</time>
      </trkpt>
      <trkpt lat="45.33054" lon="6.03419">
        <ele>1081.4</ele>
        <time>2014-10-18T12:53:00Z</time>
      </trkpt>
      <trkpt lat="45.33047" lon="6.03427">
        <ele>1082.2</ele>
        <time>2014-10-18T12:53:05Z</time>
      </trkpt>
      <trkpt lat="45.33045" lon="6.0344">
        <ele>1082.8</ele>
        <time>2014-10-18T12:53:11Z</time>
      </trkpt>
      <trkpt lat="45.33042" lon="6.03454">
        <ele>1083.4</ele>
        <time>2014-10-18T12:53:17Z</time>
      </trkpt>
      <trkpt lat="45.3304" lon="6.03468">
        <ele>1084</ele>
        <time>2014-10-18T12:53:22Z</time>
      </trkpt>
      <trkpt lat="45.33039" lon="6.03481">
        <ele>1084.8</ele>
        <time>2014-10-18T12:53:26Z</time>
      </trkpt>
      <trkpt lat="45.33038" lon="6.03494">
        <ele>1085.7</ele>
        <time>2014-10-18T12:53:30Z</time>
      </trkpt>
      <trkpt lat="45.33039" lon="6.03507">
        <ele>1086.4</ele>
        <time>2014-10-18T12:53:34Z</time>
      </trkpt>
      <trkpt lat="45.33038" lon="6.0352">
        <ele>1086.7</ele>
        <time>2014-10-18T12:53:38Z</time>
      </trkpt>
      <trkpt lat="45.3304" lon="6.03534">
        <ele>1087.9</ele>
        <time>2014-10-18T12:53:42Z</time>
      </trkpt>
      <trkpt lat="45.33044" lon="6.03547">
        <ele>1088.4</ele>
        <time>2014-10-18T12:53:46Z</time>
      </trkpt>
      <trkpt lat="45.33048" lon="6.03559">
        <ele>1088.8</ele>
        <time>2014-10-18T12:53:50Z</time>
      </trkpt>
      <trkpt lat="45.33052" lon="6.03573">
        <ele>1089.4</ele>
        <time>2014-10-18T12:53:54Z</time>
      </trkpt>
      <trkpt lat="45.3305" lon="6.03588">
        <ele>1089.7</ele>
        <time>2014-10-18T12:53:58Z</time>
      </trkpt>
      <trkpt lat="45.33047" lon="6.03603">
        <ele>1090.1</ele>
        <time>2014-10-18T12:54:02Z</time>
      </trkpt>
      <trkpt lat="45.33044" lon="6.03616">
        <ele>1090.5</ele>
        <time>2014-10-18T12:54:06Z</time>
      </trkpt>
      <trkpt lat="45.33044" lon="6.03632">
        <ele>1090.6</ele>
        <time>2014-10-18T12:54:10Z</time>
      </trkpt>
      <trkpt lat="45.33046" lon="6.03647">
        <ele>1090.5</ele>
        <time>2014-10-18T12:54:13Z</time>
      </trkpt>
      <trkpt lat="45.33047" lon="6.03661">
        <ele>1090.8</ele>
        <time>2014-10-18T12:54:16Z</time>
      </trkpt>
      <trkpt lat="45.3305" lon="6.03674">
        <ele>1091</ele>
        <time>2014-10-18T12:54:19Z</time>
      </trkpt>
      <trkpt lat="45.33053" lon="6.03687">
        <ele>1091.2</ele>
        <time>2014-10-18T12:54:22Z</time>
      </trkpt>
      <trkpt lat="45.33057" lon="6.03699">
        <ele>1091.4</ele>
        <time>2014-10-18T12:54:25Z</time>
      </trkpt>
      <trkpt lat="45.3306" lon="6.03711">
        <ele>1091.8</ele>
        <time>2014-10-18T12:54:28Z</time>
      </trkpt>
      <trkpt lat="45.33062" lon="6.03723">
        <ele>1092.2</ele>
        <time>2014-10-18T12:54:31Z</time>
      </trkpt>
      <trkpt lat="45.33064" lon="6.03738">
        <ele>1092.1</ele>
        <time>2014-10-18T12:54:34Z</time>
      </trkpt>
      <trkpt lat="45.33067" lon="6.03751">
        <ele>1092.1</ele>
        <time>2014-10-18T12:54:37Z</time>
      </trkpt>
      <trkpt lat="45.3307" lon="6.03767">
        <ele>1092.4</ele>
        <time>2014-10-18T12:54:41Z</time>
      </trkpt>
      <trkpt lat="45.33075" lon="6.03778">
        <ele>1092.4</ele>
        <time>2014-10-18T12:54:44Z</time>
      </trkpt>
      <trkpt lat="45.33079" lon="6.0379">
        <ele>1092.3</ele>
        <time>2014-10-18T12:54:47Z</time>
      </trkpt>
      <trkpt lat="45.33083" lon="6.03803">
        <ele>1092.5</ele>
        <time>2014-10-18T12:54:50Z</time>
      </trkpt>
      <trkpt lat="45.33087" lon="6.03816">
        <ele>1092.8</ele>
        <time>2014-10-18T12:54:53Z</time>
      </trkpt>
      <trkpt lat="45.33092" lon="6.03828">
        <ele>1093.1</ele>
        <time>2014-10-18T12:54:56Z</time>
      </trkpt>
      <trkpt lat="45.33099" lon="6.03839">
        <ele>1093.6</ele>
        <time>2014-10-18T12:54:59Z</time>
      </trkpt>
      <trkpt lat="45.33105" lon="6.0385">
        <ele>1093.8</ele>
        <time>2014-10-18T12:55:02Z</time>
      </trkpt>
      <trkpt lat="45.33108" lon="6.03862">
        <ele>1094</ele>
        <time>2014-10-18T12:55:05Z</time>
      </trkpt>
      <trkpt lat="45.33113" lon="6.03874">
        <ele>1094.4</ele>
        <time>2014-10-18T12:55:08Z</time>
      </trkpt>
      <trkpt lat="45.33117" lon="6.03886">
        <ele>1094.5</ele>
        <time>2014-10-18T12:55:11Z</time>
      </trkpt>
      <trkpt lat="45.33121" lon="6.03899">
        <ele>1094.7</ele>
        <time>2014-10-18T12:55:14Z</time>
      </trkpt>
      <trkpt lat="45.33125" lon="6.03912">
        <ele>1094.8</ele>
        <time>2014-10-18T12:55:17Z</time>
      </trkpt>
      <trkpt lat="45.3313" lon="6.03924">
        <ele>1095.2</ele>
        <time>2014-10-18T12:55:20Z</time>
      </trkpt>
      <trkpt lat="45.33134" lon="6.03936">
        <ele>1095.4</ele>
        <time>2014-10-18T12:55:23Z</time>
      </trkpt>
      <trkpt lat="45.33139" lon="6.03948">
        <ele>1096.2</ele>
        <time>2014-10-18T12:55:26Z</time>
      </trkpt>
      <trkpt lat="45.33144" lon="6.0396">
        <ele>1096.6</ele>
        <time>2014-10-18T12:55:29Z</time>
      </trkpt>
      <trkpt lat="45.33151" lon="6.03974">
        <ele>1096.8</ele>
        <time>2014-10-18T12:55:33Z</time>
      </trkpt>
      <trkpt lat="45.33153" lon="6.03988">
        <ele>1097.4</ele>
        <time>2014-10-18T12:55:37Z</time>
      </trkpt>
      <trkpt lat="45.33157" lon="6.04003">
        <ele>1097.6</ele>
        <time>2014-10-18T12:55:41Z</time>
      </trkpt>
      <trkpt lat="45.33157" lon="6.04019">
        <ele>1098.4</ele>
        <time>2014-10-18T12:55:45Z</time>
      </trkpt>
      <trkpt lat="45.33157" lon="6.04034">
        <ele>1098.7</ele>
        <time>2014-10-18T12:55:49Z</time>
      </trkpt>
      <trkpt lat="45.33155" lon="6.04048">
        <ele>1099.2</ele>
        <time>2014-10-18T12:55:53Z</time>
      </trkpt>
      <trkpt lat="45.3315" lon="6.04062">
        <ele>1099.4</ele>
        <time>2014-10-18T12:55:57Z</time>
      </trkpt>
      <trkpt lat="45.33143" lon="6.04071">
        <ele>1099.3</ele>
        <time>2014-10-18T12:56:00Z</time>
      </trkpt>
      <trkpt lat="45.33134" lon="6.04077">
        <ele>1099.3</ele>
        <time>2014-10-18T12:56:03Z</time>
      </trkpt>
      <trkpt lat="45.33123" lon="6.04081">
        <ele>1099</ele>
        <time>2014-10-18T12:56:06Z</time>
      </trkpt>
      <trkpt lat="45.33112" lon="6.04086">
        <ele>1098.6</ele>
        <time>2014-10-18T12:56:09Z</time>
      </trkpt>
      <trkpt lat="45.33103" lon="6.041">
        <ele>1098.1</ele>
        <time>2014-10-18T12:56:12Z</time>
      </trkpt>
      <trkpt lat="45.33102" lon="6.04113">
        <ele>1097.5</ele>
        <time>2014-10-18T12:56:14Z</time>
      </trkpt>
      <trkpt lat="45.33106" lon="6.04129">
        <ele>1097.5</ele>
        <time>2014-10-18T12:56:17Z</time>
      </trkpt>
      <trkpt lat="45.33113" lon="6.04138">
        <ele>1097.6</ele>
        <time>2014-10-18T12:56:20Z</time>
      </trkpt>
      <trkpt lat="45.33122" lon="6.04144">
        <ele>1098.1</ele>
        <time>2014-10-18T12:56:24Z</time>
      </trkpt>
      <trkpt lat="45.33132" lon="6.0415">
        <ele>1099.1</ele>
        <time>2014-10-18T12:56:30Z</time>
      </trkpt>
      <trkpt lat="45.33141" lon="6.04154">
        <ele>1099.6</ele>
        <time>2014-10-18T12:56:35Z</time>
      </trkpt>
      <trkpt lat="45.3315" lon="6.0416">
        <ele>1100.4</ele>
        <time>2014-10-18T12:56:40Z</time>
      </trkpt>
      <trkpt lat="45.33158" lon="6.04164">
        <ele>1101</ele>
        <time>2014-10-18T12:56:44Z</time>
      </trkpt>
      <trkpt lat="45.33167" lon="6.0417">
        <ele>1101.9</ele>
        <time>2014-10-18T12:56:49Z</time>
      </trkpt>
      <trkpt lat="45.33176" lon="6.0417">
        <ele>1102.5</ele>
        <time>2014-10-18T12:57:34Z</time>
      </trkpt>
      <trkpt lat="45.33185" lon="6.0417">
        <ele>1103.1</ele>
        <time>2014-10-18T12:57:41Z</time>
      </trkpt>
      <trkpt lat="45.33195" lon="6.04171">
        <ele>1104</ele>
        <time>2014-10-18T12:57:46Z</time>
      </trkpt>
      <trkpt lat="45.33204" lon="6.0417">
        <ele>1104.7</ele>
        <time>2014-10-18T12:57:52Z</time>
      </trkpt>
      <trkpt lat="45.33214" lon="6.04169">
        <ele>1105.8</ele>
        <time>2014-10-18T12:57:59Z</time>
      </trkpt>
      <trkpt lat="45.33224" lon="6.04168">
        <ele>1106.9</ele>
        <time>2014-10-18T12:58:07Z</time>
      </trkpt>
      <trkpt lat="45.33233" lon="6.0417">
        <ele>1107.6</ele>
        <time>2014-10-18T12:58:13Z</time>
      </trkpt>
      <trkpt lat="45.33243" lon="6.04173">
        <ele>1108.6</ele>
        <time>2014-10-18T12:58:19Z</time>
      </trkpt>
      <trkpt lat="45.33251" lon="6.04178">
        <ele>1109.6</ele>
        <time>2014-10-18T12:58:25Z</time>
      </trkpt>
      <trkpt lat="45.3326" lon="6.04184">
        <ele>1111.2</ele>
        <time>2014-10-18T12:58:32Z</time>
      </trkpt>
      <trkpt lat="45.33267" lon="6.04192">
        <ele>1111.9</ele>
        <time>2014-10-18T12:58:38Z</time>
      </trkpt>
      <trkpt lat="45.33274" lon="6.04202">
        <ele>1113</ele>
        <time>2014-10-18T12:58:44Z</time>
      </trkpt>
      <trkpt lat="45.33279" lon="6.04213">
        <ele>1114.5</ele>
        <time>2014-10-18T12:58:50Z</time>
      </trkpt>
      <trkpt lat="45.33285" lon="6.04223">
        <ele>1115.5</ele>
        <time>2014-10-18T12:58:56Z</time>
      </trkpt>
      <trkpt lat="45.33293" lon="6.0423">
        <ele>1116.5</ele>
        <time>2014-10-18T12:59:03Z</time>
      </trkpt>
      <trkpt lat="45.33303" lon="6.04228">
        <ele>1117.6</ele>
        <time>2014-10-18T12:59:10Z</time>
      </trkpt>
      <trkpt lat="45.33314" lon="6.04227">
        <ele>1119.2</ele>
        <time>2014-10-18T12:59:17Z</time>
      </trkpt>
      <trkpt lat="45.33323" lon="6.04229">
        <ele>1119.9</ele>
        <time>2014-10-18T12:59:22Z</time>
      </trkpt>
      <trkpt lat="45.33332" lon="6.04235">
        <ele>1121.1</ele>
        <time>2014-10-18T12:59:29Z</time>
      </trkpt>
      <trkpt lat="45.33339" lon="6.04246">
        <ele>1122.1</ele>
        <time>2014-10-18T12:59:35Z</time>
      </trkpt>
      <trkpt lat="45.33347" lon="6.04256">
        <ele>1122.7</ele>
        <time>2014-10-18T12:59:40Z</time>
      </trkpt>
      <trkpt lat="45.33354" lon="6.04266">
        <ele>1123.8</ele>
        <time>2014-10-18T12:59:46Z</time>
      </trkpt>
      <trkpt lat="45.33361" lon="6.04275">
        <ele>1124.7</ele>
        <time>2014-10-18T12:59:52Z</time>
      </trkpt>
      <trkpt lat="45.33369" lon="6.04281">
        <ele>1125.4</ele>
        <time>2014-10-18T12:59:59Z</time>
      </trkpt>
      <trkpt lat="45.33378" lon="6.04287">
        <ele>1126.4</ele>
        <time>2014-10-18T13:00:05Z</time>
      </trkpt>
      <trkpt lat="45.33388" lon="6.04293">
        <ele>1127.4</ele>
        <time>2014-10-18T13:00:11Z</time>
      </trkpt>
      <trkpt lat="45.33397" lon="6.04296">
        <ele>1128.3</ele>
        <time>2014-10-18T13:00:17Z</time>
      </trkpt>
      <trkpt lat="45.33406" lon="6.04301">
        <ele>1129.7</ele>
        <time>2014-10-18T13:00:23Z</time>
      </trkpt>
      <trkpt lat="45.33415" lon="6.04306">
        <ele>1130.8</ele>
        <time>2014-10-18T13:00:31Z</time>
      </trkpt>
      <trkpt lat="45.33423" lon="6.04313">
        <ele>1131.9</ele>
        <time>2014-10-18T13:00:36Z</time>
      </trkpt>
      <trkpt lat="45.33432" lon="6.04321">
        <ele>1132.7</ele>
        <time>2014-10-18T13:00:41Z</time>
      </trkpt>
      <trkpt lat="45.33438" lon="6.04332">
        <ele>1133.6</ele>
        <time>2014-10-18T13:00:47Z</time>
      </trkpt>
      <trkpt lat="45.33445" lon="6.04344">
        <ele>1134.4</ele>
        <time>2014-10-18T13:00:53Z</time>
      </trkpt>
      <trkpt lat="45.33452" lon="6.04352">
        <ele>1135.1</ele>
        <time>2014-10-18T13:00:59Z</time>
      </trkpt>
      <trkpt lat="45.33459" lon="6.04363">
        <ele>1136.5</ele>
        <time>2014-10-18T13:01:06Z</time>
      </trkpt>
      <trkpt lat="45.33464" lon="6.04374">
        <ele>1137.1</ele>
        <time>2014-10-18T13:01:12Z</time>
      </trkpt>
      <trkpt lat="45.3347" lon="6.04385">
        <ele>1137.9</ele>
        <time>2014-10-18T13:01:18Z</time>
      </trkpt>
      <trkpt lat="45.33474" lon="6.04398">
        <ele>1138.9</ele>
        <time>2014-10-18T13:01:24Z</time>
      </trkpt>
      <trkpt lat="45.33476" lon="6.04412">
        <ele>1139.9</ele>
        <time>2014-10-18T13:01:30Z</time>
      </trkpt>
      <trkpt lat="45.33478" lon="6.04425">
        <ele>1140.4</ele>
        <time>2014-10-18T13:01:36Z</time>
      </trkpt>
      <trkpt lat="45.3348" lon="6.04439">
        <ele>1141.7</ele>
        <time>2014-10-18T13:01:42Z</time>
      </trkpt>
      <trkpt lat="45.33483" lon="6.04452">
        <ele>1143</ele>
        <time>2014-10-18T13:01:48Z</time>
      </trkpt>
      <trkpt lat="45.33489" lon="6.04464">
        <ele>1144.1</ele>
        <time>2014-10-18T13:01:54Z</time>
      </trkpt>
      <trkpt lat="45.33495" lon="6.04476">
        <ele>1144.9</ele>
        <time>2014-10-18T13:02:00Z</time>
      </trkpt>
      <trkpt lat="45.33501" lon="6.04485">
        <ele>1145.6</ele>
        <time>2014-10-18T13:02:05Z</time>
      </trkpt>
      <trkpt lat="45.33508" lon="6.04495">
        <ele>1146.5</ele>
        <time>2014-10-18T13:02:10Z</time>
      </trkpt>
      <trkpt lat="45.33515" lon="6.04504">
        <ele>1147.2</ele>
        <time>2014-10-18T13:02:16Z</time>
      </trkpt>
      <trkpt lat="45.33523" lon="6.04513">
        <ele>1148.4</ele>
        <time>2014-10-18T13:02:23Z</time>
      </trkpt>
      <trkpt lat="45.33531" lon="6.04521">
        <ele>1150</ele>
        <time>2014-10-18T13:02:30Z</time>
      </trkpt>
      <trkpt lat="45.33539" lon="6.04526">
        <ele>1151</ele>
        <time>2014-10-18T13:02:36Z</time>
      </trkpt>
      <trkpt lat="45.33548" lon="6.0453">
        <ele>1151.7</ele>
        <time>2014-10-18T13:02:42Z</time>
      </trkpt>
      <trkpt lat="45.33558" lon="6.04535">
        <ele>1152.8</ele>
        <time>2014-10-18T13:02:48Z</time>
      </trkpt>
      <trkpt lat="45.33567" lon="6.04541">
        <ele>1153.9</ele>
        <time>2014-10-18T13:02:55Z</time>
      </trkpt>
      <trkpt lat="45.33576" lon="6.04548">
        <ele>1155</ele>
        <time>2014-10-18T13:03:00Z</time>
      </trkpt>
      <trkpt lat="45.33584" lon="6.04555">
        <ele>1155.6</ele>
        <time>2014-10-18T13:03:04Z</time>
      </trkpt>
      <trkpt lat="45.33592" lon="6.04564">
        <ele>1156.8</ele>
        <time>2014-10-18T13:03:09Z</time>
      </trkpt>
      <trkpt lat="45.336" lon="6.04574">
        <ele>1157.4</ele>
        <time>2014-10-18T13:03:14Z</time>
      </trkpt>
      <trkpt lat="45.33607" lon="6.04584">
        <ele>1158.4</ele>
        <time>2014-10-18T13:03:19Z</time>
      </trkpt>
      <trkpt lat="45.33613" lon="6.04596">
        <ele>1159.3</ele>
        <time>2014-10-18T13:03:25Z</time>
      </trkpt>
      <trkpt lat="45.33618" lon="6.04609">
        <ele>1159.9</ele>
        <time>2014-10-18T13:03:31Z</time>
      </trkpt>
      <trkpt lat="45.33622" lon="6.04623">
        <ele>1160.9</ele>
        <time>2014-10-18T13:03:37Z</time>
      </trkpt>
      <trkpt lat="45.33625" lon="6.04637">
        <ele>1161.9</ele>
        <time>2014-10-18T13:03:43Z</time>
      </trkpt>
      <trkpt lat="45.33628" lon="6.04649">
        <ele>1162.9</ele>
        <time>2014-10-18T13:03:49Z</time>
      </trkpt>
      <trkpt lat="45.33634" lon="6.0466">
        <ele>1164</ele>
        <time>2014-10-18T13:03:55Z</time>
      </trkpt>
      <trkpt lat="45.33642" lon="6.04668">
        <ele>1165.3</ele>
        <time>2014-10-18T13:04:02Z</time>
      </trkpt>
      <trkpt lat="45.3365" lon="6.04673">
        <ele>1166.4</ele>
        <time>2014-10-18T13:04:08Z</time>
      </trkpt>
      <trkpt lat="45.3366" lon="6.04681">
        <ele>1167.1</ele>
        <time>2014-10-18T13:04:14Z</time>
      </trkpt>
      <trkpt lat="45.33669" lon="6.04687">
        <ele>1168.1</ele>
        <time>2014-10-18T13:04:19Z</time>
      </trkpt>
      <trkpt lat="45.33677" lon="6.04693">
        <ele>1168.9</ele>
        <time>2014-10-18T13:04:23Z</time>
      </trkpt>
      <trkpt lat="45.33686" lon="6.04699">
        <ele>1170.3</ele>
        <time>2014-10-18T13:04:28Z</time>
      </trkpt>
      <trkpt lat="45.33694" lon="6.04709">
        <ele>1171.3</ele>
        <time>2014-10-18T13:04:34Z</time>
      </trkpt>
      <trkpt lat="45.33702" lon="6.04718">
        <ele>1172.4</ele>
        <time>2014-10-18T13:04:42Z</time>
      </trkpt>
      <trkpt lat="45.3371" lon="6.04726">
        <ele>1172.9</ele>
        <time>2014-10-18T13:04:47Z</time>
      </trkpt>
      <trkpt lat="45.3372" lon="6.04732">
        <ele>1173.6</ele>
        <time>2014-10-18T13:04:52Z</time>
      </trkpt>
      <trkpt lat="45.33729" lon="6.04737">
        <ele>1174.4</ele>
        <time>2014-10-18T13:04:57Z</time>
      </trkpt>
      <trkpt lat="45.33739" lon="6.04739">
        <ele>1175.4</ele>
        <time>2014-10-18T13:05:02Z</time>
      </trkpt>
      <trkpt lat="45.33748" lon="6.04743">
        <ele>1176.2</ele>
        <time>2014-10-18T13:05:07Z</time>
      </trkpt>
      <trkpt lat="45.33758" lon="6.04747">
        <ele>1176.7</ele>
        <time>2014-10-18T13:05:12Z</time>
      </trkpt>
      <trkpt lat="45.33767" lon="6.0475">
        <ele>1177.6</ele>
        <time>2014-10-18T13:05:17Z</time>
      </trkpt>
      <trkpt lat="45.33776" lon="6.04752">
        <ele>1178.5</ele>
        <time>2014-10-18T13:05:23Z</time>
      </trkpt>
      <trkpt lat="45.33787" lon="6.04754">
        <ele>1179.5</ele>
        <time>2014-10-18T13:05:29Z</time>
      </trkpt>
      <trkpt lat="45.33796" lon="6.04755">
        <ele>1180.4</ele>
        <time>2014-10-18T13:05:35Z</time>
      </trkpt>
      <trkpt lat="45.33806" lon="6.04757">
        <ele>1181.5</ele>
        <time>2014-10-18T13:05:41Z</time>
      </trkpt>
      <trkpt lat="45.33816" lon="6.04757">
        <ele>1182.7</ele>
        <time>2014-10-18T13:05:47Z</time>
      </trkpt>
      <trkpt lat="45.33825" lon="6.04757">
        <ele>1183.8</ele>
        <time>2014-10-18T13:05:54Z</time>
      </trkpt>
      <trkpt lat="45.33835" lon="6.04762">
        <ele>1184.8</ele>
        <time>2014-10-18T13:06:00Z</time>
      </trkpt>
      <trkpt lat="45.33844" lon="6.04766">
        <ele>1185.6</ele>
        <time>2014-10-18T13:06:06Z</time>
      </trkpt>
      <trkpt lat="45.33854" lon="6.04772">
        <ele>1186.7</ele>
        <time>2014-10-18T13:06:12Z</time>
      </trkpt>
      <trkpt lat="45.33863" lon="6.04777">
        <ele>1187.5</ele>
        <time>2014-10-18T13:06:18Z</time>
      </trkpt>
      <trkpt lat="45.33872" lon="6.04784">
        <ele>1188.8</ele>
        <time>2014-10-18T13:06:25Z</time>
      </trkpt>
      <trkpt lat="45.3388" lon="6.04791">
        <ele>1189.7</ele>
        <time>2014-10-18T13:06:31Z</time>
      </trkpt>
      <trkpt lat="45.33888" lon="6.04799">
        <ele>1190.8</ele>
        <time>2014-10-18T13:06:38Z</time>
      </trkpt>
      <trkpt lat="45.33897" lon="6.04808">
        <ele>1191.5</ele>
        <time>2014-10-18T13:06:45Z</time>
      </trkpt>
      <trkpt lat="45.33906" lon="6.04817">
        <ele>1192.3</ele>
        <time>2014-10-18T13:06:51Z</time>
      </trkpt>
      <trkpt lat="45.33914" lon="6.04825">
        <ele>1193.3</ele>
        <time>2014-10-18T13:06:57Z</time>
      </trkpt>
      <trkpt lat="45.33921" lon="6.04835">
        <ele>1194.2</ele>
        <time>2014-10-18T13:07:04Z</time>
      </trkpt>
      <trkpt lat="45.33928" lon="6.04846">
        <ele>1195.2</ele>
        <time>2014-10-18T13:07:10Z</time>
      </trkpt>
      <trkpt lat="45.33936" lon="6.04855">
        <ele>1196</ele>
        <time>2014-10-18T13:07:16Z</time>
      </trkpt>
      <trkpt lat="45.33941" lon="6.04866">
        <ele>1196.8</ele>
        <time>2014-10-18T13:07:22Z</time>
      </trkpt>
      <trkpt lat="45.33946" lon="6.04878">
        <ele>1197.5</ele>
        <time>2014-10-18T13:07:28Z</time>
      </trkpt>
      <trkpt lat="45.3395" lon="6.0489">
        <ele>1198.7</ele>
        <time>2014-10-18T13:07:34Z</time>
      </trkpt>
      <trkpt lat="45.33955" lon="6.04901">
        <ele>1199.7</ele>
        <time>2014-10-18T13:07:40Z</time>
      </trkpt>
      <trkpt lat="45.33961" lon="6.04912">
        <ele>1200.8</ele>
        <time>2014-10-18T13:07:47Z</time>
      </trkpt>
      <trkpt lat="45.33967" lon="6.04922">
        <ele>1201.8</ele>
        <time>2014-10-18T13:07:52Z</time>
      </trkpt>
      <trkpt lat="45.33973" lon="6.04933">
        <ele>1202.8</ele>
        <time>2014-10-18T13:07:57Z</time>
      </trkpt>
      <trkpt lat="45.33978" lon="6.04945">
        <ele>1203.7</ele>
        <time>2014-10-18T13:08:03Z</time>
      </trkpt>
      <trkpt lat="45.33983" lon="6.04957">
        <ele>1204.7</ele>
        <time>2014-10-18T13:08:10Z</time>
      </trkpt>
      <trkpt lat="45.33989" lon="6.04968">
        <ele>1205.5</ele>
        <time>2014-10-18T13:08:15Z</time>
      </trkpt>
      <trkpt lat="45.33994" lon="6.04979">
        <ele>1206.3</ele>
        <time>2014-10-18T13:08:20Z</time>
      </trkpt>
      <trkpt lat="45.33998" lon="6.04992">
        <ele>1207.1</ele>
        <time>2014-10-18T13:08:26Z</time>
      </trkpt>
      <trkpt lat="45.34006" lon="6.05003">
        <ele>1208.2</ele>
        <time>2014-10-18T13:08:31Z</time>
      </trkpt>
      <trkpt lat="45.34012" lon="6.05016">
        <ele>1209.1</ele>
        <time>2014-10-18T13:08:36Z</time>
      </trkpt>
      <trkpt lat="45.34018" lon="6.05029">
        <ele>1209.8</ele>
        <time>2014-10-18T13:08:41Z</time>
      </trkpt>
      <trkpt lat="45.34023" lon="6.05042">
        <ele>1210.7</ele>
        <time>2014-10-18T13:08:46Z</time>
      </trkpt>
      <trkpt lat="45.34028" lon="6.05053">
        <ele>1211.4</ele>
        <time>2014-10-18T13:08:50Z</time>
      </trkpt>
      <trkpt lat="45.3403" lon="6.05067">
        <ele>1212.2</ele>
        <time>2014-10-18T13:08:55Z</time>
      </trkpt>
      <trkpt lat="45.34034" lon="6.05082">
        <ele>1213.3</ele>
        <time>2014-10-18T13:09:00Z</time>
      </trkpt>
      <trkpt lat="45.34036" lon="6.05097">
        <ele>1213.9</ele>
        <time>2014-10-18T13:09:05Z</time>
      </trkpt>
      <trkpt lat="45.34038" lon="6.05113">
        <ele>1215.1</ele>
        <time>2014-10-18T13:09:10Z</time>
      </trkpt>
      <trkpt lat="45.3404" lon="6.05126">
        <ele>1216</ele>
        <time>2014-10-18T13:09:14Z</time>
      </trkpt>
      <trkpt lat="45.34043" lon="6.0514">
        <ele>1216.8</ele>
        <time>2014-10-18T13:09:19Z</time>
      </trkpt>
      <trkpt lat="45.34045" lon="6.05155">
        <ele>1217.6</ele>
        <time>2014-10-18T13:09:24Z</time>
      </trkpt>
      <trkpt lat="45.34044" lon="6.05169">
        <ele>1218.7</ele>
        <time>2014-10-18T13:09:29Z</time>
      </trkpt>
      <trkpt lat="45.34037" lon="6.05178">
        <ele>1219.2</ele>
        <time>2014-10-18T13:09:34Z</time>
      </trkpt>
      <trkpt lat="45.34029" lon="6.05171">
        <ele>1220.4</ele>
        <time>2014-10-18T13:09:39Z</time>
      </trkpt>
      <trkpt lat="45.34026" lon="6.05157">
        <ele>1221.8</ele>
        <time>2014-10-18T13:09:45Z</time>
      </trkpt>
      <trkpt lat="45.34024" lon="6.05143">
        <ele>1222.6</ele>
        <time>2014-10-18T13:09:51Z</time>
      </trkpt>
      <trkpt lat="45.34019" lon="6.05129">
        <ele>1223.7</ele>
        <time>2014-10-18T13:09:58Z</time>
      </trkpt>
      <trkpt lat="45.34017" lon="6.05117">
        <ele>1224.3</ele>
        <time>2014-10-18T13:10:03Z</time>
      </trkpt>
      <trkpt lat="45.34013" lon="6.05104">
        <ele>1224.8</ele>
        <time>2014-10-18T13:10:09Z</time>
      </trkpt>
      <trkpt lat="45.34008" lon="6.05091">
        <ele>1225.6</ele>
        <time>2014-10-18T13:10:15Z</time>
      </trkpt>
      <trkpt lat="45.34003" lon="6.05081">
        <ele>1225.9</ele>
        <time>2014-10-18T13:10:21Z</time>
      </trkpt>
      <trkpt lat="45.33998" lon="6.05069">
        <ele>1226.6</ele>
        <time>2014-10-18T13:10:27Z</time>
      </trkpt>
      <trkpt lat="45.33992" lon="6.05059">
        <ele>1227.1</ele>
        <time>2014-10-18T13:10:32Z</time>
      </trkpt>
      <trkpt lat="45.33986" lon="6.05047">
        <ele>1227.9</ele>
        <time>2014-10-18T13:10:37Z</time>
      </trkpt>
      <trkpt lat="45.33979" lon="6.05038">
        <ele>1228.6</ele>
        <time>2014-10-18T13:10:42Z</time>
      </trkpt>
      <trkpt lat="45.33972" lon="6.05028">
        <ele>1229.8</ele>
        <time>2014-10-18T13:12:31Z</time>
      </trkpt>
      <trkpt lat="45.33966" lon="6.05017">
        <ele>1229.9</ele>
        <time>2014-10-18T13:12:38Z</time>
      </trkpt>
      <trkpt lat="45.33959" lon="6.05008">
        <ele>1231</ele>
        <time>2014-10-18T13:12:44Z</time>
      </trkpt>
      <trkpt lat="45.33952" lon="6.04999">
        <ele>1231.7</ele>
        <time>2014-10-18T13:12:50Z</time>
      </trkpt>
      <trkpt lat="45.33943" lon="6.0499">
        <ele>1232.8</ele>
        <time>2014-10-18T13:12:57Z</time>
      </trkpt>
      <trkpt lat="45.33936" lon="6.04982">
        <ele>1233.8</ele>
        <time>2014-10-18T13:13:03Z</time>
      </trkpt>
      <trkpt lat="45.33928" lon="6.04975">
        <ele>1234.4</ele>
        <time>2014-10-18T13:13:09Z</time>
      </trkpt>
      <trkpt lat="45.3392" lon="6.04966">
        <ele>1235.5</ele>
        <time>2014-10-18T13:13:15Z</time>
      </trkpt>
      <trkpt lat="45.3391" lon="6.0496">
        <ele>1236.4</ele>
        <time>2014-10-18T13:13:20Z</time>
      </trkpt>
      <trkpt lat="45.33902" lon="6.04953">
        <ele>1237.4</ele>
        <time>2014-10-18T13:13:25Z</time>
      </trkpt>
      <trkpt lat="45.33894" lon="6.04944">
        <ele>1238.2</ele>
        <time>2014-10-18T13:13:30Z</time>
      </trkpt>
      <trkpt lat="45.33886" lon="6.04936">
        <ele>1239.1</ele>
        <time>2014-10-18T13:13:35Z</time>
      </trkpt>
      <trkpt lat="45.33877" lon="6.04929">
        <ele>1239.9</ele>
        <time>2014-10-18T13:13:40Z</time>
      </trkpt>
      <trkpt lat="45.33867" lon="6.04923">
        <ele>1241.2</ele>
        <time>2014-10-18T13:13:45Z</time>
      </trkpt>
      <trkpt lat="45.33857" lon="6.04919">
        <ele>1242.3</ele>
        <time>2014-10-18T13:13:50Z</time>
      </trkpt>
      <trkpt lat="45.33846" lon="6.04917">
        <ele>1243.3</ele>
        <time>2014-10-18T13:13:55Z</time>
      </trkpt>
      <trkpt lat="45.33836" lon="6.04914">
        <ele>1244</ele>
        <time>2014-10-18T13:14:00Z</time>
      </trkpt>
      <trkpt lat="45.33827" lon="6.04912">
        <ele>1244.9</ele>
        <time>2014-10-18T13:14:04Z</time>
      </trkpt>
      <trkpt lat="45.33816" lon="6.04912">
        <ele>1245.8</ele>
        <time>2014-10-18T13:14:09Z</time>
      </trkpt>
      <trkpt lat="45.33805" lon="6.04913">
        <ele>1246.6</ele>
        <time>2014-10-18T13:14:14Z</time>
      </trkpt>
      <trkpt lat="45.33795" lon="6.04916">
        <ele>1247.3</ele>
        <time>2014-10-18T13:14:19Z</time>
      </trkpt>
      <trkpt lat="45.33785" lon="6.04923">
        <ele>1248.4</ele>
        <time>2014-10-18T13:14:24Z</time>
      </trkpt>
      <trkpt lat="45.33776" lon="6.04931">
        <ele>1249.1</ele>
        <time>2014-10-18T13:14:29Z</time>
      </trkpt>
      <trkpt lat="45.33767" lon="6.04939">
        <ele>1250.1</ele>
        <time>2014-10-18T13:14:34Z</time>
      </trkpt>
      <trkpt lat="45.33759" lon="6.04948">
        <ele>1251</ele>
        <time>2014-10-18T13:14:39Z</time>
      </trkpt>
      <trkpt lat="45.33751" lon="6.04956">
        <ele>1251.8</ele>
        <time>2014-10-18T13:14:44Z</time>
      </trkpt>
      <trkpt lat="45.33742" lon="6.04965">
        <ele>1252.5</ele>
        <time>2014-10-18T13:14:49Z</time>
      </trkpt>
      <trkpt lat="45.33733" lon="6.04973">
        <ele>1253.4</ele>
        <time>2014-10-18T13:14:54Z</time>
      </trkpt>
      <trkpt lat="45.33724" lon="6.04982">
        <ele>1254.1</ele>
        <time>2014-10-18T13:14:59Z</time>
      </trkpt>
      <trkpt lat="45.33715" lon="6.04991">
        <ele>1255</ele>
        <time>2014-10-18T13:15:04Z</time>
      </trkpt>
      <trkpt lat="45.33707" lon="6.05">
        <ele>1255.6</ele>
        <time>2014-10-18T13:15:09Z</time>
      </trkpt>
      <trkpt lat="45.33698" lon="6.05008">
        <ele>1256.6</ele>
        <time>2014-10-18T13:15:14Z</time>
      </trkpt>
      <trkpt lat="45.33689" lon="6.05017">
        <ele>1257.3</ele>
        <time>2014-10-18T13:15:19Z</time>
      </trkpt>
      <trkpt lat="45.33678" lon="6.05022">
        <ele>1257.9</ele>
        <time>2014-10-18T13:15:24Z</time>
      </trkpt>
      <trkpt lat="45.33668" lon="6.05026">
        <ele>1259</ele>
        <time>2014-10-18T13:15:29Z</time>
      </trkpt>
      <trkpt lat="45.33659" lon="6.05024">
        <ele>1260</ele>
        <time>2014-10-18T13:15:33Z</time>
      </trkpt>
      <trkpt lat="45.3365" lon="6.05021">
        <ele>1260.6</ele>
        <time>2014-10-18T13:15:37Z</time>
      </trkpt>
      <trkpt lat="45.33641" lon="6.05019">
        <ele>1261.3</ele>
        <time>2014-10-18T13:15:41Z</time>
      </trkpt>
      <trkpt lat="45.3363" lon="6.05016">
        <ele>1262.5</ele>
        <time>2014-10-18T13:15:46Z</time>
      </trkpt>
      <trkpt lat="45.3362" lon="6.05016">
        <ele>1263</ele>
        <time>2014-10-18T13:15:50Z</time>
      </trkpt>
      <trkpt lat="45.33611" lon="6.05018">
        <ele>1263.8</ele>
        <time>2014-10-18T13:15:54Z</time>
      </trkpt>
      <trkpt lat="45.33601" lon="6.0502">
        <ele>1264.7</ele>
        <time>2014-10-18T13:15:59Z</time>
      </trkpt>
      <trkpt lat="45.33592" lon="6.05021">
        <ele>1265.5</ele>
        <time>2014-10-18T13:16:03Z</time>
      </trkpt>
      <trkpt lat="45.33581" lon="6.05022">
        <ele>1266.2</ele>
        <time>2014-10-18T13:16:08Z</time>
      </trkpt>
      <trkpt lat="45.33572" lon="6.05022">
        <ele>1266.5</ele>
        <time>2014-10-18T13:16:12Z</time>
      </trkpt>
      <trkpt lat="45.33561" lon="6.05021">
        <ele>1267.5</ele>
        <time>2014-10-18T13:16:17Z</time>
      </trkpt>
      <trkpt lat="45.33552" lon="6.05016">
        <ele>1268.4</ele>
        <time>2014-10-18T13:16:22Z</time>
      </trkpt>
      <trkpt lat="45.33542" lon="6.05011">
        <ele>1269</ele>
        <time>2014-10-18T13:16:27Z</time>
      </trkpt>
      <trkpt lat="45.33532" lon="6.05005">
        <ele>1270</ele>
        <time>2014-10-18T13:16:32Z</time>
      </trkpt>
      <trkpt lat="45.33523" lon="6.05">
        <ele>1270.9</ele>
        <time>2014-10-18T13:16:37Z</time>
      </trkpt>
      <trkpt lat="45.33514" lon="6.04997">
        <ele>1271.6</ele>
        <time>2014-10-18T13:16:42Z</time>
      </trkpt>
      <trkpt lat="45.33505" lon="6.04996">
        <ele>1273</ele>
        <time>2014-10-18T13:16:48Z</time>
      </trkpt>
      <trkpt lat="45.33494" lon="6.04996">
        <ele>1274.2</ele>
        <time>2014-10-18T13:16:54Z</time>
      </trkpt>
      <trkpt lat="45.33484" lon="6.04997">
        <ele>1275.4</ele>
        <time>2014-10-18T13:17:00Z</time>
      </trkpt>
      <trkpt lat="45.33473" lon="6.04998">
        <ele>1276.3</ele>
        <time>2014-10-18T13:17:06Z</time>
      </trkpt>
      <trkpt lat="45.33464" lon="6.04997">
        <ele>1277.4</ele>
        <time>2014-10-18T13:17:11Z</time>
      </trkpt>
      <trkpt lat="45.33455" lon="6.04994">
        <ele>1278.2</ele>
        <time>2014-10-18T13:17:17Z</time>
      </trkpt>
      <trkpt lat="45.33445" lon="6.04987">
        <ele>1279.4</ele>
        <time>2014-10-18T13:17:24Z</time>
      </trkpt>
      <trkpt lat="45.33436" lon="6.04979">
        <ele>1280.4</ele>
        <time>2014-10-18T13:17:30Z</time>
      </trkpt>
      <trkpt lat="45.33427" lon="6.04972">
        <ele>1281.1</ele>
        <time>2014-10-18T13:17:35Z</time>
      </trkpt>
      <trkpt lat="45.33417" lon="6.04965">
        <ele>1281.9</ele>
        <time>2014-10-18T13:17:40Z</time>
      </trkpt>
      <trkpt lat="45.33408" lon="6.04958">
        <ele>1282.5</ele>
        <time>2014-10-18T13:17:45Z</time>
      </trkpt>
      <trkpt lat="45.33398" lon="6.0495">
        <ele>1283.5</ele>
        <time>2014-10-18T13:17:50Z</time>
      </trkpt>
      <trkpt lat="45.33389" lon="6.0494">
        <ele>1284.5</ele>
        <time>2014-10-18T13:17:55Z</time>
      </trkpt>
      <trkpt lat="45.33381" lon="6.0493">
        <ele>1285.2</ele>
        <time>2014-10-18T13:18:00Z</time>
      </trkpt>
      <trkpt lat="45.33372" lon="6.0492">
        <ele>1286.1</ele>
        <time>2014-10-18T13:18:05Z</time>
      </trkpt>
      <trkpt lat="45.33363" lon="6.04911">
        <ele>1287.1</ele>
        <time>2014-10-18T13:18:10Z</time>
      </trkpt>
      <trkpt lat="45.33356" lon="6.04903">
        <ele>1288.1</ele>
        <time>2014-10-18T13:18:14Z</time>
      </trkpt>
      <trkpt lat="45.33347" lon="6.04893">
        <ele>1289.3</ele>
        <time>2014-10-18T13:18:19Z</time>
      </trkpt>
      <trkpt lat="45.33337" lon="6.04885">
        <ele>1290.1</ele>
        <time>2014-10-18T13:18:24Z</time>
      </trkpt>
      <trkpt lat="45.33328" lon="6.04878">
        <ele>1291.1</ele>
        <time>2014-10-18T13:18:29Z</time>
      </trkpt>
      <trkpt lat="45.3332" lon="6.04872">
        <ele>1291.6</ele>
        <time>2014-10-18T13:18:33Z</time>
      </trkpt>
      <trkpt lat="45.33309" lon="6.04867">
        <ele>1292.4</ele>
        <time>2014-10-18T13:18:38Z</time>
      </trkpt>
      <trkpt lat="45.33298" lon="6.04862">
        <ele>1293.5</ele>
        <time>2014-10-18T13:18:43Z</time>
      </trkpt>
      <trkpt lat="45.33289" lon="6.04859">
        <ele>1294.8</ele>
        <time>2014-10-18T13:18:47Z</time>
      </trkpt>
      <trkpt lat="45.33279" lon="6.04858">
        <ele>1295.1</ele>
        <time>2014-10-18T13:18:51Z</time>
      </trkpt>
      <trkpt lat="45.33269" lon="6.04853">
        <ele>1295.8</ele>
        <time>2014-10-18T13:18:56Z</time>
      </trkpt>
      <trkpt lat="45.33259" lon="6.0485">
        <ele>1296.6</ele>
        <time>2014-10-18T13:19:01Z</time>
      </trkpt>
      <trkpt lat="45.33248" lon="6.04847">
        <ele>1297.6</ele>
        <time>2014-10-18T13:19:06Z</time>
      </trkpt>
      <trkpt lat="45.33237" lon="6.04844">
        <ele>1298.6</ele>
        <time>2014-10-18T13:19:11Z</time>
      </trkpt>
      <trkpt lat="45.33226" lon="6.04842">
        <ele>1299.5</ele>
        <time>2014-10-18T13:19:16Z</time>
      </trkpt>
      <trkpt lat="45.33215" lon="6.04844">
        <ele>1300.1</ele>
        <time>2014-10-18T13:19:21Z</time>
      </trkpt>
      <trkpt lat="45.33205" lon="6.04848">
        <ele>1300.7</ele>
        <time>2014-10-18T13:19:26Z</time>
      </trkpt>
      <trkpt lat="45.33196" lon="6.04855">
        <ele>1301.4</ele>
        <time>2014-10-18T13:19:31Z</time>
      </trkpt>
      <trkpt lat="45.33187" lon="6.04865">
        <ele>1302.6</ele>
        <time>2014-10-18T13:19:36Z</time>
      </trkpt>
      <trkpt lat="45.33178" lon="6.04875">
        <ele>1303.5</ele>
        <time>2014-10-18T13:19:41Z</time>
      </trkpt>
      <trkpt lat="45.3317" lon="6.04885">
        <ele>1304.5</ele>
        <time>2014-10-18T13:19:46Z</time>
      </trkpt>
      <trkpt lat="45.33161" lon="6.04893">
        <ele>1305.5</ele>
        <time>2014-10-18T13:19:51Z</time>
      </trkpt>
      <trkpt lat="45.33151" lon="6.049">
        <ele>1306.6</ele>
        <time>2014-10-18T13:19:56Z</time>
      </trkpt>
      <trkpt lat="45.33143" lon="6.04903">
        <ele>1307.3</ele>
        <time>2014-10-18T13:20:00Z</time>
      </trkpt>
      <trkpt lat="45.33132" lon="6.04906">
        <ele>1308.8</ele>
        <time>2014-10-18T13:20:05Z</time>
      </trkpt>
      <trkpt lat="45.33123" lon="6.04906">
        <ele>1309.6</ele>
        <time>2014-10-18T13:20:10Z</time>
      </trkpt>
      <trkpt lat="45.33113" lon="6.04904">
        <ele>1310.4</ele>
        <time>2014-10-18T13:20:15Z</time>
      </trkpt>
      <trkpt lat="45.33104" lon="6.04902">
        <ele>1311.6</ele>
        <time>2014-10-18T13:20:20Z</time>
      </trkpt>
      <trkpt lat="45.33096" lon="6.04897">
        <ele>1312.4</ele>
        <time>2014-10-18T13:20:25Z</time>
      </trkpt>
      <trkpt lat="45.33087" lon="6.04892">
        <ele>1313.2</ele>
        <time>2014-10-18T13:20:30Z</time>
      </trkpt>
      <trkpt lat="45.33078" lon="6.04885">
        <ele>1314.4</ele>
        <time>2014-10-18T13:20:35Z</time>
      </trkpt>
      <trkpt lat="45.3307" lon="6.04877">
        <ele>1315.6</ele>
        <time>2014-10-18T13:20:41Z</time>
      </trkpt>
      <trkpt lat="45.3306" lon="6.04873">
        <ele>1317.1</ele>
        <time>2014-10-18T13:20:48Z</time>
      </trkpt>
      <trkpt lat="45.33051" lon="6.04877">
        <ele>1317.9</ele>
        <time>2014-10-18T13:20:54Z</time>
      </trkpt>
      <trkpt lat="45.33048" lon="6.0489">
        <ele>1337.3</ele>
        <time>2014-10-18T13:42:44Z</time>
      </trkpt>
      <trkpt lat="45.33057" lon="6.04899">
        <ele>1338.4</ele>
        <time>2014-10-18T13:42:50Z</time>
      </trkpt>
      <trkpt lat="45.33066" lon="6.04907">
        <ele>1339.3</ele>
        <time>2014-10-18T13:42:55Z</time>
      </trkpt>
      <trkpt lat="45.33074" lon="6.04915">
        <ele>1340.3</ele>
        <time>2014-10-18T13:43:00Z</time>
      </trkpt>
      <trkpt lat="45.33082" lon="6.04925">
        <ele>1341.3</ele>
        <time>2014-10-18T13:43:05Z</time>
      </trkpt>
      <trkpt lat="45.33088" lon="6.04935">
        <ele>1342</ele>
        <time>2014-10-18T13:43:09Z</time>
      </trkpt>
      <trkpt lat="45.33095" lon="6.04947">
        <ele>1343.1</ele>
        <time>2014-10-18T13:43:14Z</time>
      </trkpt>
      <trkpt lat="45.33104" lon="6.04955">
        <ele>1343.6</ele>
        <time>2014-10-18T13:43:18Z</time>
      </trkpt>
      <trkpt lat="45.33113" lon="6.04959">
        <ele>1344.4</ele>
        <time>2014-10-18T13:43:22Z</time>
      </trkpt>
      <trkpt lat="45.33123" lon="6.04962">
        <ele>1345.2</ele>
        <time>2014-10-18T13:43:26Z</time>
      </trkpt>
      <trkpt lat="45.33132" lon="6.04963">
        <ele>1346.2</ele>
        <time>2014-10-18T13:43:30Z</time>
      </trkpt>
      <trkpt lat="45.33142" lon="6.04963">
        <ele>1346.5</ele>
        <time>2014-10-18T13:43:34Z</time>
      </trkpt>
      <trkpt lat="45.33153" lon="6.04964">
        <ele>1347.6</ele>
        <time>2014-10-18T13:43:38Z</time>
      </trkpt>
      <trkpt lat="45.33163" lon="6.04964">
        <ele>1348.2</ele>
        <time>2014-10-18T13:43:42Z</time>
      </trkpt>
      <trkpt lat="45.33174" lon="6.04962">
        <ele>1349</ele>
        <time>2014-10-18T13:43:46Z</time>
      </trkpt>
      <trkpt lat="45.33183" lon="6.04959">
        <ele>1349.8</ele>
        <time>2014-10-18T13:43:50Z</time>
      </trkpt>
      <trkpt lat="45.33193" lon="6.0496">
        <ele>1350.4</ele>
        <time>2014-10-18T13:43:54Z</time>
      </trkpt>
      <trkpt lat="45.33203" lon="6.04965">
        <ele>1350.9</ele>
        <time>2014-10-18T13:43:58Z</time>
      </trkpt>
      <trkpt lat="45.33209" lon="6.04976">
        <ele>1351.7</ele>
        <time>2014-10-18T13:44:02Z</time>
      </trkpt>
      <trkpt lat="45.33207" lon="6.04991">
        <ele>1352.8</ele>
        <time>2014-10-18T13:44:07Z</time>
      </trkpt>
      <trkpt lat="45.33198" lon="6.04998">
        <ele>1354.1</ele>
        <time>2014-10-18T13:44:12Z</time>
      </trkpt>
      <trkpt lat="45.33189" lon="6.04997">
        <ele>1354.8</ele>
        <time>2014-10-18T13:44:16Z</time>
      </trkpt>
      <trkpt lat="45.3318" lon="6.04998">
        <ele>1355.5</ele>
        <time>2014-10-18T13:44:20Z</time>
      </trkpt>
      <trkpt lat="45.3317" lon="6.04998">
        <ele>1356.4</ele>
        <time>2014-10-18T13:44:24Z</time>
      </trkpt>
      <trkpt lat="45.33159" lon="6.04999">
        <ele>1357.2</ele>
        <time>2014-10-18T13:44:29Z</time>
      </trkpt>
      <trkpt lat="45.33148" lon="6.05001">
        <ele>1358.2</ele>
        <time>2014-10-18T13:44:34Z</time>
      </trkpt>
      <trkpt lat="45.33139" lon="6.05003">
        <ele>1359.3</ele>
        <time>2014-10-18T13:44:38Z</time>
      </trkpt>
      <trkpt lat="45.3313" lon="6.05006">
        <ele>1360</ele>
        <time>2014-10-18T13:44:42Z</time>
      </trkpt>
      <trkpt lat="45.33119" lon="6.0501">
        <ele>1360.8</ele>
        <time>2014-10-18T13:44:47Z</time>
      </trkpt>
      <trkpt lat="45.33108" lon="6.05012">
        <ele>1362</ele>
        <time>2014-10-18T13:44:52Z</time>
      </trkpt>
      <trkpt lat="45.33099" lon="6.05013">
        <ele>1363</ele>
        <time>2014-10-18T13:44:56Z</time>
      </trkpt>
      <trkpt lat="45.33089" lon="6.05012">
        <ele>1363.9</ele>
        <time>2014-10-18T13:45:01Z</time>
      </trkpt>
      <trkpt lat="45.3308" lon="6.05008">
        <ele>1364.8</ele>
        <time>2014-10-18T13:45:05Z</time>
      </trkpt>
      <trkpt lat="45.33069" lon="6.05004">
        <ele>1366.1</ele>
        <time>2014-10-18T13:45:10Z</time>
      </trkpt>
      <trkpt lat="45.33059" lon="6.05">
        <ele>1366.8</ele>
        <time>2014-10-18T13:45:15Z</time>
      </trkpt>
      <trkpt lat="45.33049" lon="6.04995">
        <ele>1368</ele>
        <time>2014-10-18T13:45:20Z</time>
      </trkpt>
      <trkpt lat="45.33039" lon="6.04989">
        <ele>1368.8</ele>
        <time>2014-10-18T13:45:24Z</time>
      </trkpt>
      <trkpt lat="45.33029" lon="6.04982">
        <ele>1370</ele>
        <time>2014-10-18T13:45:28Z</time>
      </trkpt>
      <trkpt lat="45.33021" lon="6.04975">
        <ele>1370.9</ele>
        <time>2014-10-18T13:45:32Z</time>
      </trkpt>
      <trkpt lat="45.33012" lon="6.04968">
        <ele>1371.9</ele>
        <time>2014-10-18T13:45:36Z</time>
      </trkpt>
      <trkpt lat="45.33003" lon="6.04959">
        <ele>1372.5</ele>
        <time>2014-10-18T13:45:40Z</time>
      </trkpt>
      <trkpt lat="45.32994" lon="6.04949">
        <ele>1373</ele>
        <time>2014-10-18T13:45:44Z</time>
      </trkpt>
      <trkpt lat="45.32987" lon="6.04941">
        <ele>1373.2</ele>
        <time>2014-10-18T13:45:48Z</time>
      </trkpt>
      <trkpt lat="45.32979" lon="6.0493">
        <ele>1374.4</ele>
        <time>2014-10-18T13:45:52Z</time>
      </trkpt>
      <trkpt lat="45.3297" lon="6.04921">
        <ele>1374.8</ele>
        <time>2014-10-18T13:45:56Z</time>
      </trkpt>
      <trkpt lat="45.32962" lon="6.04911">
        <ele>1375.4</ele>
        <time>2014-10-18T13:46:00Z</time>
      </trkpt>
      <trkpt lat="45.32953" lon="6.04901">
        <ele>1376</ele>
        <time>2014-10-18T13:46:04Z</time>
      </trkpt>
      <trkpt lat="45.32944" lon="6.0489">
        <ele>1376.7</ele>
        <time>2014-10-18T13:46:08Z</time>
      </trkpt>
      <trkpt lat="45.32937" lon="6.04877">
        <ele>1377.4</ele>
        <time>2014-10-18T13:46:12Z</time>
      </trkpt>
      <trkpt lat="45.32932" lon="6.04867">
        <ele>1378</ele>
        <time>2014-10-18T13:46:15Z</time>
      </trkpt>
      <trkpt lat="45.32927" lon="6.04852">
        <ele>1378.4</ele>
        <time>2014-10-18T13:46:19Z</time>
      </trkpt>
      <trkpt lat="45.32923" lon="6.04838">
        <ele>1379.2</ele>
        <time>2014-10-18T13:46:23Z</time>
      </trkpt>
      <trkpt lat="45.32919" lon="6.04824">
        <ele>1380.2</ele>
        <time>2014-10-18T13:46:27Z</time>
      </trkpt>
      <trkpt lat="45.32916" lon="6.04809">
        <ele>1381.1</ele>
        <time>2014-10-18T13:46:31Z</time>
      </trkpt>
      <trkpt lat="45.32912" lon="6.04797">
        <ele>1382.1</ele>
        <time>2014-10-18T13:46:35Z</time>
      </trkpt>
      <trkpt lat="45.32906" lon="6.04785">
        <ele>1382.9</ele>
        <time>2014-10-18T13:46:39Z</time>
      </trkpt>
      <trkpt lat="45.329" lon="6.04774">
        <ele>1383.5</ele>
        <time>2014-10-18T13:46:43Z</time>
      </trkpt>
      <trkpt lat="45.32893" lon="6.04765">
        <ele>1384.3</ele>
        <time>2014-10-18T13:46:47Z</time>
      </trkpt>
      <trkpt lat="45.32886" lon="6.04757">
        <ele>1385.2</ele>
        <time>2014-10-18T13:46:51Z</time>
      </trkpt>
      <trkpt lat="45.32878" lon="6.0475">
        <ele>1386.1</ele>
        <time>2014-10-18T13:46:55Z</time>
      </trkpt>
      <trkpt lat="45.3287" lon="6.04743">
        <ele>1386.8</ele>
        <time>2014-10-18T13:46:59Z</time>
      </trkpt>
      <trkpt lat="45.32861" lon="6.04737">
        <ele>1387.4</ele>
        <time>2014-10-18T13:47:03Z</time>
      </trkpt>
      <trkpt lat="45.32853" lon="6.0473">
        <ele>1388.5</ele>
        <time>2014-10-18T13:47:07Z</time>
      </trkpt>
      <trkpt lat="45.32844" lon="6.04724">
        <ele>1389</ele>
        <time>2014-10-18T13:47:11Z</time>
      </trkpt>
      <trkpt lat="45.32835" lon="6.04717">
        <ele>1389.6</ele>
        <time>2014-10-18T13:47:15Z</time>
      </trkpt>
      <trkpt lat="45.32826" lon="6.04711">
        <ele>1390.8</ele>
        <time>2014-10-18T13:47:19Z</time>
      </trkpt>
      <trkpt lat="45.32817" lon="6.04705">
        <ele>1391.6</ele>
        <time>2014-10-18T13:47:23Z</time>
      </trkpt>
      <trkpt lat="45.32808" lon="6.04699">
        <ele>1392.6</ele>
        <time>2014-10-18T13:47:27Z</time>
      </trkpt>
      <trkpt lat="45.328" lon="6.04695">
        <ele>1393.2</ele>
        <time>2014-10-18T13:47:31Z</time>
      </trkpt>
      <trkpt lat="45.32791" lon="6.0469">
        <ele>1393.9</ele>
        <time>2014-10-18T13:47:35Z</time>
      </trkpt>
      <trkpt lat="45.32782" lon="6.04685">
        <ele>1394.9</ele>
        <time>2014-10-18T13:47:39Z</time>
      </trkpt>
      <trkpt lat="45.32773" lon="6.04681">
        <ele>1395.7</ele>
        <time>2014-10-18T13:47:43Z</time>
      </trkpt>
      <trkpt lat="45.32764" lon="6.04676">
        <ele>1396.4</ele>
        <time>2014-10-18T13:47:47Z</time>
      </trkpt>
      <trkpt lat="45.32755" lon="6.04672">
        <ele>1397.1</ele>
        <time>2014-10-18T13:47:51Z</time>
      </trkpt>
      <trkpt lat="45.32746" lon="6.04668">
        <ele>1397.7</ele>
        <time>2014-10-18T13:47:55Z</time>
      </trkpt>
      <trkpt lat="45.32735" lon="6.04665">
        <ele>1398.6</ele>
        <time>2014-10-18T13:48:00Z</time>
      </trkpt>
      <trkpt lat="45.32726" lon="6.04663">
        <ele>1399.4</ele>
        <time>2014-10-18T13:48:04Z</time>
      </trkpt>
      <trkpt lat="45.32716" lon="6.04664">
        <ele>1400.4</ele>
        <time>2014-10-18T13:48:08Z</time>
      </trkpt>
      <trkpt lat="45.32705" lon="6.04666">
        <ele>1401.8</ele>
        <time>2014-10-18T13:48:13Z</time>
      </trkpt>
      <trkpt lat="45.32696" lon="6.04668">
        <ele>1402.3</ele>
        <time>2014-10-18T13:48:17Z</time>
      </trkpt>
      <trkpt lat="45.32685" lon="6.04672">
        <ele>1403.2</ele>
        <time>2014-10-18T13:48:21Z</time>
      </trkpt>
      <trkpt lat="45.32675" lon="6.04676">
        <ele>1404.3</ele>
        <time>2014-10-18T13:48:25Z</time>
      </trkpt>
      <trkpt lat="45.32665" lon="6.04678">
        <ele>1405.1</ele>
        <time>2014-10-18T13:48:29Z</time>
      </trkpt>
      <trkpt lat="45.32655" lon="6.0468">
        <ele>1405.9</ele>
        <time>2014-10-18T13:48:33Z</time>
      </trkpt>
      <trkpt lat="45.32645" lon="6.04682">
        <ele>1406.4</ele>
        <time>2014-10-18T13:48:37Z</time>
      </trkpt>
      <trkpt lat="45.32636" lon="6.04684">
        <ele>1407.2</ele>
        <time>2014-10-18T13:48:41Z</time>
      </trkpt>
      <trkpt lat="45.32626" lon="6.04686">
        <ele>1407.9</ele>
        <time>2014-10-18T13:48:45Z</time>
      </trkpt>
      <trkpt lat="45.32617" lon="6.04688">
        <ele>1408.8</ele>
        <time>2014-10-18T13:48:49Z</time>
      </trkpt>
      <trkpt lat="45.32607" lon="6.04689">
        <ele>1409.4</ele>
        <time>2014-10-18T13:48:53Z</time>
      </trkpt>
      <trkpt lat="45.32598" lon="6.04692">
        <ele>1410.1</ele>
        <time>2014-10-18T13:48:57Z</time>
      </trkpt>
      <trkpt lat="45.32589" lon="6.04694">
        <ele>1411.1</ele>
        <time>2014-10-18T13:49:01Z</time>
      </trkpt>
      <trkpt lat="45.32579" lon="6.04697">
        <ele>1411.9</ele>
        <time>2014-10-18T13:49:05Z</time>
      </trkpt>
      <trkpt lat="45.3257" lon="6.04701">
        <ele>1412.5</ele>
        <time>2014-10-18T13:49:09Z</time>
      </trkpt>
      <trkpt lat="45.3256" lon="6.04704">
        <ele>1413.1</ele>
        <time>2014-10-18T13:49:13Z</time>
      </trkpt>
      <trkpt lat="45.3255" lon="6.0471">
        <ele>1414.2</ele>
        <time>2014-10-18T13:49:18Z</time>
      </trkpt>
      <trkpt lat="45.32543" lon="6.04722">
        <ele>1414.8</ele>
        <time>2014-10-18T13:49:23Z</time>
      </trkpt>
      <trkpt lat="45.32536" lon="6.04731">
        <ele>1416.7</ele>
        <time>2014-10-18T13:50:46Z</time>
      </trkpt>
      <trkpt lat="45.32532" lon="6.04743">
        <ele>1416.1</ele>
        <time>2014-10-18T13:51:39Z</time>
      </trkpt>
      <trkpt lat="45.32522" lon="6.0475">
        <ele>1416.7</ele>
        <time>2014-10-18T13:51:44Z</time>
      </trkpt>
      <trkpt lat="45.32512" lon="6.04752">
        <ele>1417.3</ele>
        <time>2014-10-18T13:51:48Z</time>
      </trkpt>
      <trkpt lat="45.32502" lon="6.04752">
        <ele>1418</ele>
        <time>2014-10-18T13:51:52Z</time>
      </trkpt>
      <trkpt lat="45.32492" lon="6.04752">
        <ele>1419.3</ele>
        <time>2014-10-18T13:51:57Z</time>
      </trkpt>
      <trkpt lat="45.32483" lon="6.04748">
        <ele>1420.1</ele>
        <time>2014-10-18T13:52:02Z</time>
      </trkpt>
      <trkpt lat="45.32474" lon="6.04743">
        <ele>1420.9</ele>
        <time>2014-10-18T13:52:07Z</time>
      </trkpt>
      <trkpt lat="45.32465" lon="6.04738">
        <ele>1420.7</ele>
        <time>2014-10-18T13:52:12Z</time>
      </trkpt>
      <trkpt lat="45.32457" lon="6.04728">
        <ele>1420.6</ele>
        <time>2014-10-18T13:52:17Z</time>
      </trkpt>
      <trkpt lat="45.32453" lon="6.04714">
        <ele>1420.3</ele>
        <time>2014-10-18T13:52:21Z</time>
      </trkpt>
      <trkpt lat="45.32451" lon="6.04701">
        <ele>1419.3</ele>
        <time>2014-10-18T13:52:44Z</time>
      </trkpt>
      <trkpt lat="45.32452" lon="6.04686">
        <ele>1419.5</ele>
        <time>2014-10-18T13:52:49Z</time>
      </trkpt>
      <trkpt lat="45.32452" lon="6.04672">
        <ele>1419.6</ele>
        <time>2014-10-18T13:52:53Z</time>
      </trkpt>
      <trkpt lat="45.32447" lon="6.04657">
        <ele>1419.6</ele>
        <time>2014-10-18T13:52:57Z</time>
      </trkpt>
      <trkpt lat="45.32442" lon="6.04644">
        <ele>1419.6</ele>
        <time>2014-10-18T13:53:01Z</time>
      </trkpt>
      <trkpt lat="45.32436" lon="6.04634">
        <ele>1419.6</ele>
        <time>2014-10-18T13:53:04Z</time>
      </trkpt>
      <trkpt lat="45.3243" lon="6.04624">
        <ele>1419.6</ele>
        <time>2014-10-18T13:53:07Z</time>
      </trkpt>
      <trkpt lat="45.32424" lon="6.04613">
        <ele>1419.9</ele>
        <time>2014-10-18T13:53:10Z</time>
      </trkpt>
      <trkpt lat="45.32419" lon="6.04603">
        <ele>1419.8</ele>
        <time>2014-10-18T13:53:13Z</time>
      </trkpt>
      <trkpt lat="45.32413" lon="6.0459">
        <ele>1419.8</ele>
        <time>2014-10-18T13:53:16Z</time>
      </trkpt>
      <trkpt lat="45.32412" lon="6.04576">
        <ele>1419.8</ele>
        <time>2014-10-18T13:53:19Z</time>
      </trkpt>
      <trkpt lat="45.32411" lon="6.04562">
        <ele>1419.9</ele>
        <time>2014-10-18T13:53:22Z</time>
      </trkpt>
      <trkpt lat="45.3241" lon="6.04549">
        <ele>1420.4</ele>
        <time>2014-10-18T13:53:25Z</time>
      </trkpt>
      <trkpt lat="45.32409" lon="6.04535">
        <ele>1420.6</ele>
        <time>2014-10-18T13:53:28Z</time>
      </trkpt>
      <trkpt lat="45.32408" lon="6.04522">
        <ele>1421</ele>
        <time>2014-10-18T13:53:31Z</time>
      </trkpt>
      <trkpt lat="45.32407" lon="6.04505">
        <ele>1421.4</ele>
        <time>2014-10-18T13:53:35Z</time>
      </trkpt>
      <trkpt lat="45.32406" lon="6.04492">
        <ele>1421.7</ele>
        <time>2014-10-18T13:53:38Z</time>
      </trkpt>
      <trkpt lat="45.32405" lon="6.04478">
        <ele>1422.2</ele>
        <time>2014-10-18T13:53:41Z</time>
      </trkpt>
      <trkpt lat="45.32403" lon="6.04461">
        <ele>1422.4</ele>
        <time>2014-10-18T13:53:45Z</time>
      </trkpt>
      <trkpt lat="45.324" lon="6.04447">
        <ele>1422.9</ele>
        <time>2014-10-18T13:53:48Z</time>
      </trkpt>
      <trkpt lat="45.32395" lon="6.04434">
        <ele>1423</ele>
        <time>2014-10-18T13:53:51Z</time>
      </trkpt>
      <trkpt lat="45.32389" lon="6.04423">
        <ele>1423.1</ele>
        <time>2014-10-18T13:53:54Z</time>
      </trkpt>
      <trkpt lat="45.32381" lon="6.04415">
        <ele>1423.3</ele>
        <time>2014-10-18T13:53:57Z</time>
      </trkpt>
      <trkpt lat="45.32376" lon="6.04403">
        <ele>1423.2</ele>
        <time>2014-10-18T13:54:02Z</time>
      </trkpt>
      <trkpt lat="45.32369" lon="6.04392">
        <ele>1423.3</ele>
        <time>2014-10-18T13:54:08Z</time>
      </trkpt>
      <trkpt lat="45.32359" lon="6.04387">
        <ele>1424.2</ele>
        <time>2014-10-18T13:54:16Z</time>
      </trkpt>
      <trkpt lat="45.32353" lon="6.04378">
        <ele>1424.9</ele>
        <time>2014-10-18T13:54:21Z</time>
      </trkpt>
      <trkpt lat="45.32348" lon="6.04366">
        <ele>1426.1</ele>
        <time>2014-10-18T13:54:28Z</time>
      </trkpt>
      <trkpt lat="45.32357" lon="6.04376">
        <ele>1425.7</ele>
        <time>2014-10-18T13:54:37Z</time>
      </trkpt>
      <trkpt lat="45.32365" lon="6.04387">
        <ele>1424.7</ele>
        <time>2014-10-18T13:54:41Z</time>
      </trkpt>
      <trkpt lat="45.3237" lon="6.04376">
        <ele>1423.8</ele>
        <time>2014-10-18T13:54:47Z</time>
      </trkpt>
      <trkpt lat="45.32364" lon="6.04365">
        <ele>1423.6</ele>
        <time>2014-10-18T13:54:51Z</time>
      </trkpt>
      <trkpt lat="45.32358" lon="6.04351">
        <ele>1423.8</ele>
        <time>2014-10-18T13:54:55Z</time>
      </trkpt>
      <trkpt lat="45.32353" lon="6.04337">
        <ele>1424</ele>
        <time>2014-10-18T13:54:59Z</time>
      </trkpt>
      <trkpt lat="45.32347" lon="6.04322">
        <ele>1423.9</ele>
        <time>2014-10-18T13:55:03Z</time>
      </trkpt>
      <trkpt lat="45.32343" lon="6.0431">
        <ele>1424.2</ele>
        <time>2014-10-18T13:55:06Z</time>
      </trkpt>
      <trkpt lat="45.32338" lon="6.04299">
        <ele>1424.1</ele>
        <time>2014-10-18T13:55:09Z</time>
      </trkpt>
      <trkpt lat="45.32329" lon="6.04292">
        <ele>1424.1</ele>
        <time>2014-10-18T13:55:12Z</time>
      </trkpt>
      <trkpt lat="45.3232" lon="6.04283">
        <ele>1423.7</ele>
        <time>2014-10-18T13:55:15Z</time>
      </trkpt>
      <trkpt lat="45.32311" lon="6.04274">
        <ele>1423.5</ele>
        <time>2014-10-18T13:55:18Z</time>
      </trkpt>
      <trkpt lat="45.32303" lon="6.04265">
        <ele>1423.9</ele>
        <time>2014-10-18T13:55:21Z</time>
      </trkpt>
      <trkpt lat="45.32292" lon="6.04258">
        <ele>1424</ele>
        <time>2014-10-18T13:55:24Z</time>
      </trkpt>
      <trkpt lat="45.32283" lon="6.04252">
        <ele>1423.5</ele>
        <time>2014-10-18T13:55:27Z</time>
      </trkpt>
      <trkpt lat="45.32273" lon="6.04248">
        <ele>1423.5</ele>
        <time>2014-10-18T13:55:30Z</time>
      </trkpt>
      <trkpt lat="45.32262" lon="6.04244">
        <ele>1423.4</ele>
        <time>2014-10-18T13:55:33Z</time>
      </trkpt>
      <trkpt lat="45.32252" lon="6.04242">
        <ele>1423.5</ele>
        <time>2014-10-18T13:55:36Z</time>
      </trkpt>
      <trkpt lat="45.3224" lon="6.04245">
        <ele>1423.8</ele>
        <time>2014-10-18T13:55:39Z</time>
      </trkpt>
      <trkpt lat="45.32229" lon="6.04249">
        <ele>1423.5</ele>
        <time>2014-10-18T13:55:42Z</time>
      </trkpt>
      <trkpt lat="45.32217" lon="6.04248">
        <ele>1423.6</ele>
        <time>2014-10-18T13:55:45Z</time>
      </trkpt>
      <trkpt lat="45.32206" lon="6.04245">
        <ele>1423.8</ele>
        <time>2014-10-18T13:55:48Z</time>
      </trkpt>
      <trkpt lat="45.32196" lon="6.04242">
        <ele>1424</ele>
        <time>2014-10-18T13:55:51Z</time>
      </trkpt>
      <trkpt lat="45.32183" lon="6.04244">
        <ele>1424.2</ele>
        <time>2014-10-18T13:55:54Z</time>
      </trkpt>
      <trkpt lat="45.3217" lon="6.04245">
        <ele>1424.1</ele>
        <time>2014-10-18T13:55:57Z</time>
      </trkpt>
      <trkpt lat="45.32157" lon="6.04244">
        <ele>1423.9</ele>
        <time>2014-10-18T13:56:00Z</time>
      </trkpt>
      <trkpt lat="45.32147" lon="6.04241">
        <ele>1423.9</ele>
        <time>2014-10-18T13:56:02Z</time>
      </trkpt>
      <trkpt lat="45.32138" lon="6.04237">
        <ele>1423.6</ele>
        <time>2014-10-18T13:56:04Z</time>
      </trkpt>
      <trkpt lat="45.32129" lon="6.04232">
        <ele>1423.3</ele>
        <time>2014-10-18T13:56:06Z</time>
      </trkpt>
      <trkpt lat="45.3212" lon="6.04223">
        <ele>1423</ele>
        <time>2014-10-18T13:56:08Z</time>
      </trkpt>
      <trkpt lat="45.32112" lon="6.04213">
        <ele>1422.5</ele>
        <time>2014-10-18T13:56:10Z</time>
      </trkpt>
      <trkpt lat="45.32103" lon="6.04203">
        <ele>1422.1</ele>
        <time>2014-10-18T13:56:12Z</time>
      </trkpt>
      <trkpt lat="45.32093" lon="6.04196">
        <ele>1421.7</ele>
        <time>2014-10-18T13:56:14Z</time>
      </trkpt>
      <trkpt lat="45.32082" lon="6.04193">
        <ele>1421.3</ele>
        <time>2014-10-18T13:56:16Z</time>
      </trkpt>
      <trkpt lat="45.32071" lon="6.0419">
        <ele>1421</ele>
        <time>2014-10-18T13:56:18Z</time>
      </trkpt>
      <trkpt lat="45.32062" lon="6.04187">
        <ele>1420.9</ele>
        <time>2014-10-18T13:56:20Z</time>
      </trkpt>
      <trkpt lat="45.32052" lon="6.04188">
        <ele>1420.6</ele>
        <time>2014-10-18T13:56:22Z</time>
      </trkpt>
      <trkpt lat="45.32043" lon="6.04192">
        <ele>1420.5</ele>
        <time>2014-10-18T13:56:24Z</time>
      </trkpt>
      <trkpt lat="45.32034" lon="6.04198">
        <ele>1420</ele>
        <time>2014-10-18T13:56:26Z</time>
      </trkpt>
      <trkpt lat="45.32026" lon="6.04205">
        <ele>1419.7</ele>
        <time>2014-10-18T13:56:28Z</time>
      </trkpt>
      <trkpt lat="45.32018" lon="6.04213">
        <ele>1419</ele>
        <time>2014-10-18T13:56:30Z</time>
      </trkpt>
      <trkpt lat="45.3201" lon="6.0422">
        <ele>1419.3</ele>
        <time>2014-10-18T13:56:32Z</time>
      </trkpt>
      <trkpt lat="45.32001" lon="6.04226">
        <ele>1419.1</ele>
        <time>2014-10-18T13:56:34Z</time>
      </trkpt>
      <trkpt lat="45.31991" lon="6.04231">
        <ele>1419.1</ele>
        <time>2014-10-18T13:56:36Z</time>
      </trkpt>
      <trkpt lat="45.31981" lon="6.04232">
        <ele>1418.6</ele>
        <time>2014-10-18T13:56:38Z</time>
      </trkpt>
      <trkpt lat="45.31971" lon="6.04233">
        <ele>1419</ele>
        <time>2014-10-18T13:56:40Z</time>
      </trkpt>
      <trkpt lat="45.31962" lon="6.04231">
        <ele>1418.7</ele>
        <time>2014-10-18T13:56:42Z</time>
      </trkpt>
      <trkpt lat="45.31952" lon="6.0423">
        <ele>1418.9</ele>
        <time>2014-10-18T13:56:44Z</time>
      </trkpt>
      <trkpt lat="45.31942" lon="6.04229">
        <ele>1418.7</ele>
        <time>2014-10-18T13:56:46Z</time>
      </trkpt>
      <trkpt lat="45.31932" lon="6.04227">
        <ele>1418.4</ele>
        <time>2014-10-18T13:56:48Z</time>
      </trkpt>
      <trkpt lat="45.31922" lon="6.04225">
        <ele>1418.1</ele>
        <time>2014-10-18T13:56:50Z</time>
      </trkpt>
      <trkpt lat="45.31912" lon="6.04226">
        <ele>1418.1</ele>
        <time>2014-10-18T13:56:52Z</time>
      </trkpt>
      <trkpt lat="45.31903" lon="6.04231">
        <ele>1417.9</ele>
        <time>2014-10-18T13:56:54Z</time>
      </trkpt>
      <trkpt lat="45.31895" lon="6.04237">
        <ele>1417.9</ele>
        <time>2014-10-18T13:56:56Z</time>
      </trkpt>
      <trkpt lat="45.31887" lon="6.04245">
        <ele>1417.7</ele>
        <time>2014-10-18T13:56:58Z</time>
      </trkpt>
      <trkpt lat="45.31879" lon="6.04249">
        <ele>1418</ele>
        <time>2014-10-18T13:57:00Z</time>
      </trkpt>
      <trkpt lat="45.31869" lon="6.04251">
        <ele>1417.9</ele>
        <time>2014-10-18T13:57:02Z</time>
      </trkpt>
      <trkpt lat="45.3186" lon="6.04248">
        <ele>1417.7</ele>
        <time>2014-10-18T13:57:04Z</time>
      </trkpt>
      <trkpt lat="45.31851" lon="6.04245">
        <ele>1417.6</ele>
        <time>2014-10-18T13:57:06Z</time>
      </trkpt>
      <trkpt lat="45.31842" lon="6.04238">
        <ele>1417.1</ele>
        <time>2014-10-18T13:57:08Z</time>
      </trkpt>
      <trkpt lat="45.31834" lon="6.04229">
        <ele>1416.8</ele>
        <time>2014-10-18T13:57:10Z</time>
      </trkpt>
      <trkpt lat="45.31827" lon="6.04216">
        <ele>1416</ele>
        <time>2014-10-18T13:57:12Z</time>
      </trkpt>
      <trkpt lat="45.3182" lon="6.04202">
        <ele>1415.2</ele>
        <time>2014-10-18T13:57:14Z</time>
      </trkpt>
      <trkpt lat="45.31817" lon="6.04186">
        <ele>1413.9</ele>
        <time>2014-10-18T13:57:16Z</time>
      </trkpt>
      <trkpt lat="45.31816" lon="6.04169">
        <ele>1413.5</ele>
        <time>2014-10-18T13:57:18Z</time>
      </trkpt>
      <trkpt lat="45.31814" lon="6.04151">
        <ele>1411.8</ele>
        <time>2014-10-18T13:57:20Z</time>
      </trkpt>
      <trkpt lat="45.31808" lon="6.04132">
        <ele>1411.6</ele>
        <time>2014-10-18T13:57:22Z</time>
      </trkpt>
      <trkpt lat="45.31799" lon="6.04114">
        <ele>1411.4</ele>
        <time>2014-10-18T13:57:24Z</time>
      </trkpt>
      <trkpt lat="45.31788" lon="6.04098">
        <ele>1410.4</ele>
        <time>2014-10-18T13:57:26Z</time>
      </trkpt>
      <trkpt lat="45.31777" lon="6.04082">
        <ele>1409.7</ele>
        <time>2014-10-18T13:57:28Z</time>
      </trkpt>
      <trkpt lat="45.31764" lon="6.04072">
        <ele>1408.8</ele>
        <time>2014-10-18T13:57:30Z</time>
      </trkpt>
      <trkpt lat="45.31749" lon="6.04066">
        <ele>1408.2</ele>
        <time>2014-10-18T13:57:32Z</time>
      </trkpt>
      <trkpt lat="45.31734" lon="6.04064">
        <ele>1407.5</ele>
        <time>2014-10-18T13:57:34Z</time>
      </trkpt>
      <trkpt lat="45.3172" lon="6.04066">
        <ele>1407.2</ele>
        <time>2014-10-18T13:57:36Z</time>
      </trkpt>
      <trkpt lat="45.31706" lon="6.04072">
        <ele>1406</ele>
        <time>2014-10-18T13:57:38Z</time>
      </trkpt>
      <trkpt lat="45.31691" lon="6.04074">
        <ele>1405</ele>
        <time>2014-10-18T13:57:40Z</time>
      </trkpt>
      <trkpt lat="45.31676" lon="6.04074">
        <ele>1404.4</ele>
        <time>2014-10-18T13:57:42Z</time>
      </trkpt>
      <trkpt lat="45.31661" lon="6.04072">
        <ele>1403</ele>
        <time>2014-10-18T13:57:44Z</time>
      </trkpt>
      <trkpt lat="45.31647" lon="6.04066">
        <ele>1402.4</ele>
        <time>2014-10-18T13:57:46Z</time>
      </trkpt>
      <trkpt lat="45.31634" lon="6.04056">
        <ele>1401.8</ele>
        <time>2014-10-18T13:57:48Z</time>
      </trkpt>
      <trkpt lat="45.31623" lon="6.04044">
        <ele>1401.1</ele>
        <time>2014-10-18T13:57:50Z</time>
      </trkpt>
      <trkpt lat="45.31615" lon="6.04028">
        <ele>1400.5</ele>
        <time>2014-10-18T13:57:52Z</time>
      </trkpt>
      <trkpt lat="45.3161" lon="6.0401">
        <ele>1399.8</ele>
        <time>2014-10-18T13:57:54Z</time>
      </trkpt>
      <trkpt lat="45.31607" lon="6.03993">
        <ele>1399</ele>
        <time>2014-10-18T13:57:56Z</time>
      </trkpt>
      <trkpt lat="45.31598" lon="6.03978">
        <ele>1398.2</ele>
        <time>2014-10-18T13:57:58Z</time>
      </trkpt>
      <trkpt lat="45.31587" lon="6.03965">
        <ele>1397.4</ele>
        <time>2014-10-18T13:58:00Z</time>
      </trkpt>
      <trkpt lat="45.31573" lon="6.03955">
        <ele>1396.1</ele>
        <time>2014-10-18T13:58:02Z</time>
      </trkpt>
      <trkpt lat="45.31559" lon="6.03947">
        <ele>1396.3</ele>
        <time>2014-10-18T13:58:04Z</time>
      </trkpt>
      <trkpt lat="45.31545" lon="6.03937">
        <ele>1394.9</ele>
        <time>2014-10-18T13:58:06Z</time>
      </trkpt>
      <trkpt lat="45.3153" lon="6.03927">
        <ele>1394</ele>
        <time>2014-10-18T13:58:08Z</time>
      </trkpt>
      <trkpt lat="45.31516" lon="6.03919">
        <ele>1392.9</ele>
        <time>2014-10-18T13:58:10Z</time>
      </trkpt>
      <trkpt lat="45.31501" lon="6.03909">
        <ele>1392.2</ele>
        <time>2014-10-18T13:58:12Z</time>
      </trkpt>
      <trkpt lat="45.31488" lon="6.03905">
        <ele>1391.6</ele>
        <time>2014-10-18T13:58:14Z</time>
      </trkpt>
      <trkpt lat="45.31475" lon="6.03903">
        <ele>1391.1</ele>
        <time>2014-10-18T13:58:16Z</time>
      </trkpt>
      <trkpt lat="45.31463" lon="6.03908">
        <ele>1390</ele>
        <time>2014-10-18T13:58:18Z</time>
      </trkpt>
      <trkpt lat="45.31452" lon="6.03917">
        <ele>1390</ele>
        <time>2014-10-18T13:58:20Z</time>
      </trkpt>
      <trkpt lat="45.31442" lon="6.03925">
        <ele>1389.7</ele>
        <time>2014-10-18T13:58:22Z</time>
      </trkpt>
      <trkpt lat="45.31433" lon="6.03932">
        <ele>1388.4</ele>
        <time>2014-10-18T13:58:24Z</time>
      </trkpt>
      <trkpt lat="45.31425" lon="6.03939">
        <ele>1388.1</ele>
        <time>2014-10-18T13:58:26Z</time>
      </trkpt>
      <trkpt lat="45.31417" lon="6.03947">
        <ele>1387.8</ele>
        <time>2014-10-18T13:58:28Z</time>
      </trkpt>
      <trkpt lat="45.31406" lon="6.03953">
        <ele>1387.5</ele>
        <time>2014-10-18T13:58:31Z</time>
      </trkpt>
      <trkpt lat="45.31395" lon="6.03959">
        <ele>1386.3</ele>
        <time>2014-10-18T13:58:35Z</time>
      </trkpt>
      <trkpt lat="45.31385" lon="6.03963">
        <ele>1386</ele>
        <time>2014-10-18T13:58:38Z</time>
      </trkpt>
      <trkpt lat="45.31374" lon="6.03967">
        <ele>1385.7</ele>
        <time>2014-10-18T13:58:41Z</time>
      </trkpt>
      <trkpt lat="45.31362" lon="6.03972">
        <ele>1385.4</ele>
        <time>2014-10-18T13:58:44Z</time>
      </trkpt>
      <trkpt lat="45.31353" lon="6.03974">
        <ele>1384.7</ele>
        <time>2014-10-18T13:58:46Z</time>
      </trkpt>
      <trkpt lat="45.31344" lon="6.03972">
        <ele>1384.4</ele>
        <time>2014-10-18T13:58:48Z</time>
      </trkpt>
      <trkpt lat="45.31335" lon="6.03964">
        <ele>1383.7</ele>
        <time>2014-10-18T13:58:50Z</time>
      </trkpt>
      <trkpt lat="45.31328" lon="6.03952">
        <ele>1382.9</ele>
        <time>2014-10-18T13:58:52Z</time>
      </trkpt>
      <trkpt lat="45.3132" lon="6.03938">
        <ele>1381.8</ele>
        <time>2014-10-18T13:58:54Z</time>
      </trkpt>
      <trkpt lat="45.31312" lon="6.03922">
        <ele>1381</ele>
        <time>2014-10-18T13:58:56Z</time>
      </trkpt>
      <trkpt lat="45.31303" lon="6.03907">
        <ele>1380.2</ele>
        <time>2014-10-18T13:58:58Z</time>
      </trkpt>
      <trkpt lat="45.31292" lon="6.03893">
        <ele>1379.8</ele>
        <time>2014-10-18T13:59:00Z</time>
      </trkpt>
      <trkpt lat="45.3128" lon="6.03881">
        <ele>1379.1</ele>
        <time>2014-10-18T13:59:02Z</time>
      </trkpt>
      <trkpt lat="45.31267" lon="6.03872">
        <ele>1378.4</ele>
        <time>2014-10-18T13:59:04Z</time>
      </trkpt>
      <trkpt lat="45.31254" lon="6.03863">
        <ele>1377.7</ele>
        <time>2014-10-18T13:59:06Z</time>
      </trkpt>
      <trkpt lat="45.31241" lon="6.03855">
        <ele>1376.7</ele>
        <time>2014-10-18T13:59:08Z</time>
      </trkpt>
      <trkpt lat="45.31228" lon="6.03846">
        <ele>1375.7</ele>
        <time>2014-10-18T13:59:10Z</time>
      </trkpt>
      <trkpt lat="45.31216" lon="6.03834">
        <ele>1375.2</ele>
        <time>2014-10-18T13:59:12Z</time>
      </trkpt>
      <trkpt lat="45.31204" lon="6.03821">
        <ele>1374.5</ele>
        <time>2014-10-18T13:59:14Z</time>
      </trkpt>
      <trkpt lat="45.31194" lon="6.03808">
        <ele>1374.2</ele>
        <time>2014-10-18T13:59:16Z</time>
      </trkpt>
      <trkpt lat="45.31185" lon="6.03795">
        <ele>1373.6</ele>
        <time>2014-10-18T13:59:18Z</time>
      </trkpt>
      <trkpt lat="45.31177" lon="6.03779">
        <ele>1373.2</ele>
        <time>2014-10-18T13:59:20Z</time>
      </trkpt>
      <trkpt lat="45.3117" lon="6.03763">
        <ele>1372.7</ele>
        <time>2014-10-18T13:59:22Z</time>
      </trkpt>
      <trkpt lat="45.31162" lon="6.03749">
        <ele>1372.1</ele>
        <time>2014-10-18T13:59:24Z</time>
      </trkpt>
      <trkpt lat="45.31152" lon="6.03737">
        <ele>1371.6</ele>
        <time>2014-10-18T13:59:26Z</time>
      </trkpt>
      <trkpt lat="45.31142" lon="6.03728">
        <ele>1371.2</ele>
        <time>2014-10-18T13:59:28Z</time>
      </trkpt>
      <trkpt lat="45.31131" lon="6.03721">
        <ele>1370.6</ele>
        <time>2014-10-18T13:59:30Z</time>
      </trkpt>
      <trkpt lat="45.31118" lon="6.03716">
        <ele>1370.2</ele>
        <time>2014-10-18T13:59:32Z</time>
      </trkpt>
      <trkpt lat="45.31106" lon="6.03712">
        <ele>1369.6</ele>
        <time>2014-10-18T13:59:34Z</time>
      </trkpt>
      <trkpt lat="45.31093" lon="6.03708">
        <ele>1369.1</ele>
        <time>2014-10-18T13:59:36Z</time>
      </trkpt>
      <trkpt lat="45.31081" lon="6.03704">
        <ele>1368.4</ele>
        <time>2014-10-18T13:59:38Z</time>
      </trkpt>
      <trkpt lat="45.31069" lon="6.03699">
        <ele>1368.5</ele>
        <time>2014-10-18T13:59:40Z</time>
      </trkpt>
      <trkpt lat="45.31057" lon="6.0369">
        <ele>1367.9</ele>
        <time>2014-10-18T13:59:42Z</time>
      </trkpt>
      <trkpt lat="45.31048" lon="6.03678">
        <ele>1367.9</ele>
        <time>2014-10-18T13:59:44Z</time>
      </trkpt>
      <trkpt lat="45.31043" lon="6.03664">
        <ele>1367</ele>
        <time>2014-10-18T13:59:46Z</time>
      </trkpt>
      <trkpt lat="45.31041" lon="6.03648">
        <ele>1366.3</ele>
        <time>2014-10-18T13:59:48Z</time>
      </trkpt>
      <trkpt lat="45.31039" lon="6.03632">
        <ele>1365.9</ele>
        <time>2014-10-18T13:59:50Z</time>
      </trkpt>
      <trkpt lat="45.31035" lon="6.03614">
        <ele>1365.6</ele>
        <time>2014-10-18T13:59:52Z</time>
      </trkpt>
      <trkpt lat="45.31032" lon="6.03597">
        <ele>1364.9</ele>
        <time>2014-10-18T13:59:54Z</time>
      </trkpt>
      <trkpt lat="45.3103" lon="6.03579">
        <ele>1364.4</ele>
        <time>2014-10-18T13:59:56Z</time>
      </trkpt>
      <trkpt lat="45.31027" lon="6.0356">
        <ele>1362.9</ele>
        <time>2014-10-18T13:59:58Z</time>
      </trkpt>
      <trkpt lat="45.31022" lon="6.03543">
        <ele>1362.8</ele>
        <time>2014-10-18T14:00:00Z</time>
      </trkpt>
      <trkpt lat="45.31019" lon="6.03523">
        <ele>1362.4</ele>
        <time>2014-10-18T14:00:02Z</time>
      </trkpt>
      <trkpt lat="45.31018" lon="6.03505">
        <ele>1362.3</ele>
        <time>2014-10-18T14:00:04Z</time>
      </trkpt>
      <trkpt lat="45.31017" lon="6.03487">
        <ele>1361.7</ele>
        <time>2014-10-18T14:00:06Z</time>
      </trkpt>
      <trkpt lat="45.31013" lon="6.03468">
        <ele>1360.9</ele>
        <time>2014-10-18T14:00:08Z</time>
      </trkpt>
      <trkpt lat="45.31005" lon="6.03452">
        <ele>1361.1</ele>
        <time>2014-10-18T14:00:10Z</time>
      </trkpt>
      <trkpt lat="45.30995" lon="6.03438">
        <ele>1360.1</ele>
        <time>2014-10-18T14:00:12Z</time>
      </trkpt>
      <trkpt lat="45.30985" lon="6.03425">
        <ele>1359.2</ele>
        <time>2014-10-18T14:00:14Z</time>
      </trkpt>
      <trkpt lat="45.30975" lon="6.03411">
        <ele>1358.1</ele>
        <time>2014-10-18T14:00:16Z</time>
      </trkpt>
      <trkpt lat="45.30965" lon="6.03399">
        <ele>1357.8</ele>
        <time>2014-10-18T14:00:18Z</time>
      </trkpt>
      <trkpt lat="45.30955" lon="6.03386">
        <ele>1357.4</ele>
        <time>2014-10-18T14:00:20Z</time>
      </trkpt>
      <trkpt lat="45.30946" lon="6.03373">
        <ele>1356.5</ele>
        <time>2014-10-18T14:00:22Z</time>
      </trkpt>
      <trkpt lat="45.30936" lon="6.03361">
        <ele>1356</ele>
        <time>2014-10-18T14:00:24Z</time>
      </trkpt>
      <trkpt lat="45.30928" lon="6.03346">
        <ele>1355.6</ele>
        <time>2014-10-18T14:00:26Z</time>
      </trkpt>
      <trkpt lat="45.30925" lon="6.0333">
        <ele>1354.7</ele>
        <time>2014-10-18T14:00:28Z</time>
      </trkpt>
      <trkpt lat="45.30922" lon="6.03311">
        <ele>1354.9</ele>
        <time>2014-10-18T14:00:30Z</time>
      </trkpt>
      <trkpt lat="45.3092" lon="6.0329">
        <ele>1353.9</ele>
        <time>2014-10-18T14:00:32Z</time>
      </trkpt>
      <trkpt lat="45.30917" lon="6.0327">
        <ele>1352.3</ele>
        <time>2014-10-18T14:00:34Z</time>
      </trkpt>
      <trkpt lat="45.30913" lon="6.0325">
        <ele>1351</ele>
        <time>2014-10-18T14:00:36Z</time>
      </trkpt>
      <trkpt lat="45.30912" lon="6.0323">
        <ele>1350.4</ele>
        <time>2014-10-18T14:00:38Z</time>
      </trkpt>
      <trkpt lat="45.30911" lon="6.03209">
        <ele>1350.3</ele>
        <time>2014-10-18T14:00:40Z</time>
      </trkpt>
      <trkpt lat="45.30907" lon="6.03187">
        <ele>1348.8</ele>
        <time>2014-10-18T14:00:42Z</time>
      </trkpt>
      <trkpt lat="45.30901" lon="6.03168">
        <ele>1347.6</ele>
        <time>2014-10-18T14:00:44Z</time>
      </trkpt>
      <trkpt lat="45.30892" lon="6.03153">
        <ele>1346.7</ele>
        <time>2014-10-18T14:00:46Z</time>
      </trkpt>
      <trkpt lat="45.30883" lon="6.03137">
        <ele>1346.8</ele>
        <time>2014-10-18T14:00:48Z</time>
      </trkpt>
      <trkpt lat="45.30877" lon="6.0312">
        <ele>1346.5</ele>
        <time>2014-10-18T14:00:50Z</time>
      </trkpt>
      <trkpt lat="45.30869" lon="6.03104">
        <ele>1344.5</ele>
        <time>2014-10-18T14:00:52Z</time>
      </trkpt>
      <trkpt lat="45.30859" lon="6.0309">
        <ele>1343.6</ele>
        <time>2014-10-18T14:00:54Z</time>
      </trkpt>
      <trkpt lat="45.30848" lon="6.03078">
        <ele>1343.7</ele>
        <time>2014-10-18T14:00:56Z</time>
      </trkpt>
      <trkpt lat="45.30837" lon="6.03067">
        <ele>1342.5</ele>
        <time>2014-10-18T14:00:58Z</time>
      </trkpt>
      <trkpt lat="45.30826" lon="6.03057">
        <ele>1341.4</ele>
        <time>2014-10-18T14:01:00Z</time>
      </trkpt>
      <trkpt lat="45.30814" lon="6.0305">
        <ele>1341</ele>
        <time>2014-10-18T14:01:02Z</time>
      </trkpt>
      <trkpt lat="45.30801" lon="6.03045">
        <ele>1340.4</ele>
        <time>2014-10-18T14:01:04Z</time>
      </trkpt>
      <trkpt lat="45.30788" lon="6.0304">
        <ele>1340.2</ele>
        <time>2014-10-18T14:01:06Z</time>
      </trkpt>
      <trkpt lat="45.30775" lon="6.03035">
        <ele>1339.1</ele>
        <time>2014-10-18T14:01:08Z</time>
      </trkpt>
      <trkpt lat="45.30761" lon="6.03033">
        <ele>1338.7</ele>
        <time>2014-10-18T14:01:10Z</time>
      </trkpt>
      <trkpt lat="45.30748" lon="6.0303">
        <ele>1338.3</ele>
        <time>2014-10-18T14:01:12Z</time>
      </trkpt>
      <trkpt lat="45.30734" lon="6.03027">
        <ele>1337.8</ele>
        <time>2014-10-18T14:01:14Z</time>
      </trkpt>
      <trkpt lat="45.30721" lon="6.03026">
        <ele>1337.4</ele>
        <time>2014-10-18T14:01:16Z</time>
      </trkpt>
      <trkpt lat="45.3071" lon="6.03025">
        <ele>1337.3</ele>
        <time>2014-10-18T14:01:18Z</time>
      </trkpt>
      <trkpt lat="45.307" lon="6.03022">
        <ele>1337.7</ele>
        <time>2014-10-18T14:01:21Z</time>
      </trkpt>
      <trkpt lat="45.30693" lon="6.03012">
        <ele>1338.3</ele>
        <time>2014-10-18T14:01:25Z</time>
      </trkpt>
      <trkpt lat="45.30687" lon="6.03001">
        <ele>1339.1</ele>
        <time>2014-10-18T14:01:29Z</time>
      </trkpt>
      <trkpt lat="45.30681" lon="6.02991">
        <ele>1339.8</ele>
        <time>2014-10-18T14:01:33Z</time>
      </trkpt>
      <trkpt lat="45.30671" lon="6.02983">
        <ele>1340.1</ele>
        <time>2014-10-18T14:01:38Z</time>
      </trkpt>
      <trkpt lat="45.30662" lon="6.02978">
        <ele>1341.1</ele>
        <time>2014-10-18T14:01:42Z</time>
      </trkpt>
      <trkpt lat="45.30653" lon="6.02977">
        <ele>1341.5</ele>
        <time>2014-10-18T14:01:46Z</time>
      </trkpt>
      <trkpt lat="45.30644" lon="6.02975">
        <ele>1342</ele>
        <time>2014-10-18T14:01:50Z</time>
      </trkpt>
      <trkpt lat="45.30634" lon="6.02974">
        <ele>1342.7</ele>
        <time>2014-10-18T14:01:54Z</time>
      </trkpt>
      <trkpt lat="45.30625" lon="6.02972">
        <ele>1343.6</ele>
        <time>2014-10-18T14:01:58Z</time>
      </trkpt>
      <trkpt lat="45.30615" lon="6.02971">
        <ele>1343.9</ele>
        <time>2014-10-18T14:02:02Z</time>
      </trkpt>
      <trkpt lat="45.30605" lon="6.0297">
        <ele>1344.8</ele>
        <time>2014-10-18T14:02:07Z</time>
      </trkpt>
      <trkpt lat="45.30595" lon="6.0297">
        <ele>1345.9</ele>
        <time>2014-10-18T14:02:13Z</time>
      </trkpt>
      <trkpt lat="45.30585" lon="6.02969">
        <ele>1346.9</ele>
        <time>2014-10-18T14:02:18Z</time>
      </trkpt>
      <trkpt lat="45.30575" lon="6.02966">
        <ele>1347.7</ele>
        <time>2014-10-18T14:02:24Z</time>
      </trkpt>
      <trkpt lat="45.30565" lon="6.02963">
        <ele>1348.2</ele>
        <time>2014-10-18T14:02:29Z</time>
      </trkpt>
      <trkpt lat="45.30555" lon="6.02957">
        <ele>1348.8</ele>
        <time>2014-10-18T14:02:34Z</time>
      </trkpt>
      <trkpt lat="45.30545" lon="6.02952">
        <ele>1349.9</ele>
        <time>2014-10-18T14:02:38Z</time>
      </trkpt>
      <trkpt lat="45.30536" lon="6.02945">
        <ele>1350.8</ele>
        <time>2014-10-18T14:02:43Z</time>
      </trkpt>
      <trkpt lat="45.30526" lon="6.02938">
        <ele>1351.7</ele>
        <time>2014-10-18T14:02:48Z</time>
      </trkpt>
      <trkpt lat="45.30516" lon="6.02935">
        <ele>1349.1</ele>
        <time>2014-10-18T14:02:53Z</time>
      </trkpt>
      <trkpt lat="45.30507" lon="6.0293">
        <ele>1352.1</ele>
        <time>2014-10-18T14:02:58Z</time>
      </trkpt>
      <trkpt lat="45.30497" lon="6.02928">
        <ele>1353.1</ele>
        <time>2014-10-18T14:03:03Z</time>
      </trkpt>
      <trkpt lat="45.30488" lon="6.02929">
        <ele>1354.4</ele>
        <time>2014-10-18T14:03:08Z</time>
      </trkpt>
      <trkpt lat="45.30478" lon="6.02926">
        <ele>1354.8</ele>
        <time>2014-10-18T14:03:13Z</time>
      </trkpt>
      <trkpt lat="45.30468" lon="6.02924">
        <ele>1356</ele>
        <time>2014-10-18T14:03:18Z</time>
      </trkpt>
      <trkpt lat="45.30458" lon="6.02924">
        <ele>1355.9</ele>
        <time>2014-10-18T14:03:23Z</time>
      </trkpt>
      <trkpt lat="45.30447" lon="6.02924">
        <ele>1356.9</ele>
        <time>2014-10-18T14:03:28Z</time>
      </trkpt>
      <trkpt lat="45.30438" lon="6.02928">
        <ele>1357.8</ele>
        <time>2014-10-18T14:03:33Z</time>
      </trkpt>
      <trkpt lat="45.30429" lon="6.02936">
        <ele>1358.6</ele>
        <time>2014-10-18T14:03:39Z</time>
      </trkpt>
      <trkpt lat="45.3042" lon="6.02945">
        <ele>1359.4</ele>
        <time>2014-10-18T14:03:44Z</time>
      </trkpt>
      <trkpt lat="45.30412" lon="6.02953">
        <ele>1360.1</ele>
        <time>2014-10-18T14:03:48Z</time>
      </trkpt>
      <trkpt lat="45.30405" lon="6.02963">
        <ele>1360.5</ele>
        <time>2014-10-18T14:03:52Z</time>
      </trkpt>
      <trkpt lat="45.30399" lon="6.02972">
        <ele>1360.9</ele>
        <time>2014-10-18T14:03:56Z</time>
      </trkpt>
      <trkpt lat="45.30391" lon="6.02982">
        <ele>1362.1</ele>
        <time>2014-10-18T14:04:01Z</time>
      </trkpt>
      <trkpt lat="45.30383" lon="6.02993">
        <ele>1362.6</ele>
        <time>2014-10-18T14:04:06Z</time>
      </trkpt>
      <trkpt lat="45.30376" lon="6.03004">
        <ele>1363.5</ele>
        <time>2014-10-18T14:04:11Z</time>
      </trkpt>
      <trkpt lat="45.30368" lon="6.03014">
        <ele>1364.4</ele>
        <time>2014-10-18T14:04:16Z</time>
      </trkpt>
      <trkpt lat="45.30359" lon="6.0302">
        <ele>1365.3</ele>
        <time>2014-10-18T14:04:21Z</time>
      </trkpt>
      <trkpt lat="45.3035" lon="6.03027">
        <ele>1366.4</ele>
        <time>2014-10-18T14:04:26Z</time>
      </trkpt>
      <trkpt lat="45.3034" lon="6.03029">
        <ele>1367.2</ele>
        <time>2014-10-18T14:04:31Z</time>
      </trkpt>
      <trkpt lat="45.30329" lon="6.03032">
        <ele>1367.8</ele>
        <time>2014-10-18T14:04:36Z</time>
      </trkpt>
      <trkpt lat="45.30319" lon="6.03028">
        <ele>1368.6</ele>
        <time>2014-10-18T14:04:40Z</time>
      </trkpt>
      <trkpt lat="45.3031" lon="6.03029">
        <ele>1368.8</ele>
        <time>2014-10-18T14:04:44Z</time>
      </trkpt>
      <trkpt lat="45.30299" lon="6.03031">
        <ele>1370.1</ele>
        <time>2014-10-18T14:04:49Z</time>
      </trkpt>
      <trkpt lat="45.3029" lon="6.03035">
        <ele>1370.5</ele>
        <time>2014-10-18T14:04:53Z</time>
      </trkpt>
      <trkpt lat="45.3028" lon="6.03041">
        <ele>1371.8</ele>
        <time>2014-10-18T14:04:58Z</time>
      </trkpt>
      <trkpt lat="45.30272" lon="6.03051">
        <ele>1372.7</ele>
        <time>2014-10-18T14:05:03Z</time>
      </trkpt>
      <trkpt lat="45.30265" lon="6.03062">
        <ele>1373.3</ele>
        <time>2014-10-18T14:05:08Z</time>
      </trkpt>
      <trkpt lat="45.30261" lon="6.03073">
        <ele>1373.4</ele>
        <time>2014-10-18T14:05:12Z</time>
      </trkpt>
      <trkpt lat="45.30255" lon="6.03086">
        <ele>1374.5</ele>
        <time>2014-10-18T14:05:17Z</time>
      </trkpt>
      <trkpt lat="45.30248" lon="6.03097">
        <ele>1375.1</ele>
        <time>2014-10-18T14:05:22Z</time>
      </trkpt>
      <trkpt lat="45.3024" lon="6.03104">
        <ele>1375.6</ele>
        <time>2014-10-18T14:05:26Z</time>
      </trkpt>
      <trkpt lat="45.30231" lon="6.03107">
        <ele>1376.5</ele>
        <time>2014-10-18T14:05:30Z</time>
      </trkpt>
      <trkpt lat="45.3022" lon="6.03107">
        <ele>1377.4</ele>
        <time>2014-10-18T14:05:35Z</time>
      </trkpt>
      <trkpt lat="45.30211" lon="6.03107">
        <ele>1378</ele>
        <time>2014-10-18T14:05:39Z</time>
      </trkpt>
      <trkpt lat="45.30201" lon="6.03105">
        <ele>1378.9</ele>
        <time>2014-10-18T14:05:43Z</time>
      </trkpt>
      <trkpt lat="45.30191" lon="6.03102">
        <ele>1379.8</ele>
        <time>2014-10-18T14:05:48Z</time>
      </trkpt>
      <trkpt lat="45.30181" lon="6.03093">
        <ele>1380.4</ele>
        <time>2014-10-18T14:05:53Z</time>
      </trkpt>
      <trkpt lat="45.30173" lon="6.03084">
        <ele>1381.1</ele>
        <time>2014-10-18T14:05:57Z</time>
      </trkpt>
      <trkpt lat="45.30165" lon="6.03074">
        <ele>1382</ele>
        <time>2014-10-18T14:06:01Z</time>
      </trkpt>
      <trkpt lat="45.30158" lon="6.03065">
        <ele>1382.4</ele>
        <time>2014-10-18T14:06:05Z</time>
      </trkpt>
      <trkpt lat="45.30152" lon="6.03056">
        <ele>1382.5</ele>
        <time>2014-10-18T14:06:09Z</time>
      </trkpt>
      <trkpt lat="45.30145" lon="6.03044">
        <ele>1383.1</ele>
        <time>2014-10-18T14:06:13Z</time>
      </trkpt>
      <trkpt lat="45.30138" lon="6.03035">
        <ele>1383.3</ele>
        <time>2014-10-18T14:06:18Z</time>
      </trkpt>
      <trkpt lat="45.30131" lon="6.03025">
        <ele>1385</ele>
        <time>2014-10-18T14:06:22Z</time>
      </trkpt>
      <trkpt lat="45.30124" lon="6.03013">
        <ele>1385.3</ele>
        <time>2014-10-18T14:06:26Z</time>
      </trkpt>
      <trkpt lat="45.30118" lon="6.03002">
        <ele>1386.1</ele>
        <time>2014-10-18T14:06:30Z</time>
      </trkpt>
      <trkpt lat="45.30113" lon="6.02991">
        <ele>1386.9</ele>
        <time>2014-10-18T14:06:34Z</time>
      </trkpt>
      <trkpt lat="45.30109" lon="6.02978">
        <ele>1387.4</ele>
        <time>2014-10-18T14:06:38Z</time>
      </trkpt>
      <trkpt lat="45.30105" lon="6.02966">
        <ele>1387.8</ele>
        <time>2014-10-18T14:06:42Z</time>
      </trkpt>
      <trkpt lat="45.301" lon="6.02952">
        <ele>1388.5</ele>
        <time>2014-10-18T14:06:47Z</time>
      </trkpt>
      <trkpt lat="45.30096" lon="6.0294">
        <ele>1389.3</ele>
        <time>2014-10-18T14:06:51Z</time>
      </trkpt>
      <trkpt lat="45.30091" lon="6.02928">
        <ele>1390</ele>
        <time>2014-10-18T14:06:56Z</time>
      </trkpt>
      <trkpt lat="45.30085" lon="6.02917">
        <ele>1391.1</ele>
        <time>2014-10-18T14:07:00Z</time>
      </trkpt>
      <trkpt lat="45.30077" lon="6.0291">
        <ele>1391.3</ele>
        <time>2014-10-18T14:07:04Z</time>
      </trkpt>
      <trkpt lat="45.30068" lon="6.02905">
        <ele>1391.9</ele>
        <time>2014-10-18T14:07:08Z</time>
      </trkpt>
      <trkpt lat="45.30058" lon="6.02902">
        <ele>1392.3</ele>
        <time>2014-10-18T14:07:12Z</time>
      </trkpt>
      <trkpt lat="45.30047" lon="6.02902">
        <ele>1393.1</ele>
        <time>2014-10-18T14:07:16Z</time>
      </trkpt>
      <trkpt lat="45.30037" lon="6.02902">
        <ele>1393.5</ele>
        <time>2014-10-18T14:07:20Z</time>
      </trkpt>
      <trkpt lat="45.30028" lon="6.029">
        <ele>1394.2</ele>
        <time>2014-10-18T14:07:24Z</time>
      </trkpt>
      <trkpt lat="45.30019" lon="6.02898">
        <ele>1394.9</ele>
        <time>2014-10-18T14:07:28Z</time>
      </trkpt>
      <trkpt lat="45.30009" lon="6.02892">
        <ele>1395.4</ele>
        <time>2014-10-18T14:07:32Z</time>
      </trkpt>
      <trkpt lat="45.30001" lon="6.02888">
        <ele>1395.9</ele>
        <time>2014-10-18T14:07:36Z</time>
      </trkpt>
      <trkpt lat="45.29992" lon="6.02884">
        <ele>1396.6</ele>
        <time>2014-10-18T14:07:40Z</time>
      </trkpt>
      <trkpt lat="45.29983" lon="6.02879">
        <ele>1397</ele>
        <time>2014-10-18T14:07:44Z</time>
      </trkpt>
      <trkpt lat="45.29973" lon="6.02875">
        <ele>1398.3</ele>
        <time>2014-10-18T14:07:49Z</time>
      </trkpt>
      <trkpt lat="45.29962" lon="6.0287">
        <ele>1398.6</ele>
        <time>2014-10-18T14:07:54Z</time>
      </trkpt>
      <trkpt lat="45.29954" lon="6.02865">
        <ele>1399.5</ele>
        <time>2014-10-18T14:07:58Z</time>
      </trkpt>
      <trkpt lat="45.29945" lon="6.02858">
        <ele>1399.5</ele>
        <time>2014-10-18T14:08:02Z</time>
      </trkpt>
      <trkpt lat="45.29936" lon="6.02849">
        <ele>1400.4</ele>
        <time>2014-10-18T14:08:06Z</time>
      </trkpt>
      <trkpt lat="45.29927" lon="6.0284">
        <ele>1400.8</ele>
        <time>2014-10-18T14:08:10Z</time>
      </trkpt>
      <trkpt lat="45.29918" lon="6.02835">
        <ele>1401.8</ele>
        <time>2014-10-18T14:08:14Z</time>
      </trkpt>
      <trkpt lat="45.29911" lon="6.02824">
        <ele>1402.5</ele>
        <time>2014-10-18T14:08:18Z</time>
      </trkpt>
      <trkpt lat="45.29902" lon="6.02822">
        <ele>1403.1</ele>
        <time>2014-10-18T14:08:22Z</time>
      </trkpt>
      <trkpt lat="45.29892" lon="6.02817">
        <ele>1403.8</ele>
        <time>2014-10-18T14:08:28Z</time>
      </trkpt>
      <trkpt lat="45.29882" lon="6.02815">
        <ele>1404.5</ele>
        <time>2014-10-18T14:08:32Z</time>
      </trkpt>
      <trkpt lat="45.29873" lon="6.02812">
        <ele>1405.5</ele>
        <time>2014-10-18T14:08:36Z</time>
      </trkpt>
      <trkpt lat="45.29862" lon="6.02806">
        <ele>1405.9</ele>
        <time>2014-10-18T14:08:41Z</time>
      </trkpt>
      <trkpt lat="45.29853" lon="6.02803">
        <ele>1407.1</ele>
        <time>2014-10-18T14:08:45Z</time>
      </trkpt>
      <trkpt lat="45.29844" lon="6.028">
        <ele>1407.5</ele>
        <time>2014-10-18T14:08:48Z</time>
      </trkpt>
      <trkpt lat="45.29835" lon="6.02796">
        <ele>1408.2</ele>
        <time>2014-10-18T14:08:52Z</time>
      </trkpt>
      <trkpt lat="45.29826" lon="6.02792">
        <ele>1408.6</ele>
        <time>2014-10-18T14:08:57Z</time>
      </trkpt>
      <trkpt lat="45.29816" lon="6.02787">
        <ele>1409.3</ele>
        <time>2014-10-18T14:09:02Z</time>
      </trkpt>
      <trkpt lat="45.29808" lon="6.02782">
        <ele>1410.3</ele>
        <time>2014-10-18T14:09:06Z</time>
      </trkpt>
      <trkpt lat="45.29797" lon="6.02778">
        <ele>1410.6</ele>
        <time>2014-10-18T14:09:11Z</time>
      </trkpt>
      <trkpt lat="45.29787" lon="6.02771">
        <ele>1412.1</ele>
        <time>2014-10-18T14:09:16Z</time>
      </trkpt>
      <trkpt lat="45.29778" lon="6.02766">
        <ele>1413.7</ele>
        <time>2014-10-18T14:09:20Z</time>
      </trkpt>
      <trkpt lat="45.29769" lon="6.02764">
        <ele>1414</ele>
        <time>2014-10-18T14:09:24Z</time>
      </trkpt>
      <trkpt lat="45.29761" lon="6.02757">
        <ele>1414.5</ele>
        <time>2014-10-18T14:09:28Z</time>
      </trkpt>
      <trkpt lat="45.29751" lon="6.02753">
        <ele>1415</ele>
        <time>2014-10-18T14:09:33Z</time>
      </trkpt>
      <trkpt lat="45.29742" lon="6.02749">
        <ele>1415.5</ele>
        <time>2014-10-18T14:09:37Z</time>
      </trkpt>
      <trkpt lat="45.29732" lon="6.02744">
        <ele>1416.9</ele>
        <time>2014-10-18T14:09:42Z</time>
      </trkpt>
      <trkpt lat="45.29723" lon="6.02741">
        <ele>1417.4</ele>
        <time>2014-10-18T14:09:46Z</time>
      </trkpt>
      <trkpt lat="45.29713" lon="6.02737">
        <ele>1418.3</ele>
        <time>2014-10-18T14:09:51Z</time>
      </trkpt>
      <trkpt lat="45.29703" lon="6.02733">
        <ele>1419.2</ele>
        <time>2014-10-18T14:09:55Z</time>
      </trkpt>
      <trkpt lat="45.29693" lon="6.02731">
        <ele>1419.7</ele>
        <time>2014-10-18T14:09:59Z</time>
      </trkpt>
      <trkpt lat="45.29684" lon="6.02729">
        <ele>1420.2</ele>
        <time>2014-10-18T14:10:03Z</time>
      </trkpt>
      <trkpt lat="45.29675" lon="6.02728">
        <ele>1421.3</ele>
        <time>2014-10-18T14:10:07Z</time>
      </trkpt>
      <trkpt lat="45.29666" lon="6.02725">
        <ele>1421.7</ele>
        <time>2014-10-18T14:10:11Z</time>
      </trkpt>
      <trkpt lat="45.29656" lon="6.02722">
        <ele>1422.9</ele>
        <time>2014-10-18T14:10:16Z</time>
      </trkpt>
      <trkpt lat="45.29645" lon="6.0272">
        <ele>1423.9</ele>
        <time>2014-10-18T14:10:21Z</time>
      </trkpt>
      <trkpt lat="45.29635" lon="6.02715">
        <ele>1424.4</ele>
        <time>2014-10-18T14:10:26Z</time>
      </trkpt>
      <trkpt lat="45.29625" lon="6.02711">
        <ele>1425</ele>
        <time>2014-10-18T14:10:31Z</time>
      </trkpt>
      <trkpt lat="45.29615" lon="6.02705">
        <ele>1425.7</ele>
        <time>2014-10-18T14:10:36Z</time>
      </trkpt>
      <trkpt lat="45.29607" lon="6.02698">
        <ele>1426.8</ele>
        <time>2014-10-18T14:10:40Z</time>
      </trkpt>
      <trkpt lat="45.29599" lon="6.0269">
        <ele>1427.6</ele>
        <time>2014-10-18T14:10:44Z</time>
      </trkpt>
      <trkpt lat="45.2959" lon="6.0268">
        <ele>1428.5</ele>
        <time>2014-10-18T14:10:49Z</time>
      </trkpt>
      <trkpt lat="45.29582" lon="6.0267">
        <ele>1429.3</ele>
        <time>2014-10-18T14:10:54Z</time>
      </trkpt>
      <trkpt lat="45.29575" lon="6.0266">
        <ele>1430</ele>
        <time>2014-10-18T14:10:58Z</time>
      </trkpt>
      <trkpt lat="45.29569" lon="6.02649">
        <ele>1431.1</ele>
        <time>2014-10-18T14:11:02Z</time>
      </trkpt>
      <trkpt lat="45.29563" lon="6.02638">
        <ele>1431.9</ele>
        <time>2014-10-18T14:11:07Z</time>
      </trkpt>
      <trkpt lat="45.29556" lon="6.02627">
        <ele>1432.9</ele>
        <time>2014-10-18T14:11:12Z</time>
      </trkpt>
      <trkpt lat="45.29548" lon="6.02615">
        <ele>1433.8</ele>
        <time>2014-10-18T14:11:17Z</time>
      </trkpt>
      <trkpt lat="45.29541" lon="6.02603">
        <ele>1434.6</ele>
        <time>2014-10-18T14:11:22Z</time>
      </trkpt>
      <trkpt lat="45.29535" lon="6.02593">
        <ele>1435.5</ele>
        <time>2014-10-18T14:11:26Z</time>
      </trkpt>
      <trkpt lat="45.29526" lon="6.02584">
        <ele>1436.3</ele>
        <time>2014-10-18T14:11:31Z</time>
      </trkpt>
      <trkpt lat="45.29517" lon="6.02578">
        <ele>1436.7</ele>
        <time>2014-10-18T14:11:36Z</time>
      </trkpt>
      <trkpt lat="45.29508" lon="6.02577">
        <ele>1438</ele>
        <time>2014-10-18T14:11:40Z</time>
      </trkpt>
      <trkpt lat="45.29499" lon="6.02581">
        <ele>1438.4</ele>
        <time>2014-10-18T14:11:44Z</time>
      </trkpt>
      <trkpt lat="45.29489" lon="6.02589">
        <ele>1438.9</ele>
        <time>2014-10-18T14:11:49Z</time>
      </trkpt>
      <trkpt lat="45.29481" lon="6.02599">
        <ele>1439.9</ele>
        <time>2014-10-18T14:11:54Z</time>
      </trkpt>
      <trkpt lat="45.29474" lon="6.02609">
        <ele>1441</ele>
        <time>2014-10-18T14:11:59Z</time>
      </trkpt>
      <trkpt lat="45.29465" lon="6.02618">
        <ele>1441.9</ele>
        <time>2014-10-18T14:12:04Z</time>
      </trkpt>
      <trkpt lat="45.29457" lon="6.02623">
        <ele>1442.8</ele>
        <time>2014-10-18T14:12:08Z</time>
      </trkpt>
      <trkpt lat="45.29446" lon="6.02629">
        <ele>1443.1</ele>
        <time>2014-10-18T14:12:13Z</time>
      </trkpt>
      <trkpt lat="45.29436" lon="6.02634">
        <ele>1444.4</ele>
        <time>2014-10-18T14:12:18Z</time>
      </trkpt>
      <trkpt lat="45.29427" lon="6.02639">
        <ele>1445</ele>
        <time>2014-10-18T14:12:22Z</time>
      </trkpt>
      <trkpt lat="45.29421" lon="6.02649">
        <ele>1445.9</ele>
        <time>2014-10-18T14:12:26Z</time>
      </trkpt>
      <trkpt lat="45.29424" lon="6.02663">
        <ele>1446.6</ele>
        <time>2014-10-18T14:12:31Z</time>
      </trkpt>
      <trkpt lat="45.29434" lon="6.02668">
        <ele>1447.3</ele>
        <time>2014-10-18T14:12:36Z</time>
      </trkpt>
      <trkpt lat="45.29445" lon="6.02666">
        <ele>1448</ele>
        <time>2014-10-18T14:12:41Z</time>
      </trkpt>
      <trkpt lat="45.29454" lon="6.02665">
        <ele>1448.4</ele>
        <time>2014-10-18T14:12:45Z</time>
      </trkpt>
      <trkpt lat="45.29464" lon="6.02664">
        <ele>1449.4</ele>
        <time>2014-10-18T14:12:50Z</time>
      </trkpt>
      <trkpt lat="45.29474" lon="6.02667">
        <ele>1450.1</ele>
        <time>2014-10-18T14:12:56Z</time>
      </trkpt>
      <trkpt lat="45.29484" lon="6.0267">
        <ele>1451.1</ele>
        <time>2014-10-18T14:13:03Z</time>
      </trkpt>
      <trkpt lat="45.29493" lon="6.02672">
        <ele>1452.1</ele>
        <time>2014-10-18T14:13:09Z</time>
      </trkpt>
      <trkpt lat="45.29503" lon="6.02676">
        <ele>1453</ele>
        <time>2014-10-18T14:13:15Z</time>
      </trkpt>
      <trkpt lat="45.29511" lon="6.02684">
        <ele>1454.1</ele>
        <time>2014-10-18T14:13:20Z</time>
      </trkpt>
      <trkpt lat="45.29521" lon="6.02689">
        <ele>1455.1</ele>
        <time>2014-10-18T14:13:26Z</time>
      </trkpt>
      <trkpt lat="45.29531" lon="6.0269">
        <ele>1456.7</ele>
        <time>2014-10-18T14:13:33Z</time>
      </trkpt>
      <trkpt lat="45.29537" lon="6.02702">
        <ele>1456.9</ele>
        <time>2014-10-18T14:13:39Z</time>
      </trkpt>
      <trkpt lat="45.29538" lon="6.02715">
        <ele>1457.8</ele>
        <time>2014-10-18T14:13:44Z</time>
      </trkpt>
      <trkpt lat="45.29532" lon="6.02726">
        <ele>1458.7</ele>
        <time>2014-10-18T14:13:50Z</time>
      </trkpt>
      <trkpt lat="45.29522" lon="6.02728">
        <ele>1459.5</ele>
        <time>2014-10-18T14:13:55Z</time>
      </trkpt>
      <trkpt lat="45.29513" lon="6.02722">
        <ele>1460.2</ele>
        <time>2014-10-18T14:14:00Z</time>
      </trkpt>
      <trkpt lat="45.29503" lon="6.02716">
        <ele>1461.2</ele>
        <time>2014-10-18T14:14:06Z</time>
      </trkpt>
      <trkpt lat="45.29494" lon="6.02712">
        <ele>1461.9</ele>
        <time>2014-10-18T14:14:11Z</time>
      </trkpt>
      <trkpt lat="45.29484" lon="6.02711">
        <ele>1462</ele>
        <time>2014-10-18T14:14:16Z</time>
      </trkpt>
      <trkpt lat="45.29474" lon="6.02713">
        <ele>1462.9</ele>
        <time>2014-10-18T14:14:21Z</time>
      </trkpt>
      <trkpt lat="45.29465" lon="6.02714">
        <ele>1463.7</ele>
        <time>2014-10-18T14:14:26Z</time>
      </trkpt>
      <trkpt lat="45.29455" lon="6.02717">
        <ele>1464.7</ele>
        <time>2014-10-18T14:14:31Z</time>
      </trkpt>
      <trkpt lat="45.29446" lon="6.02721">
        <ele>1465.1</ele>
        <time>2014-10-18T14:14:36Z</time>
      </trkpt>
      <trkpt lat="45.29437" lon="6.02723">
        <ele>1466.2</ele>
        <time>2014-10-18T14:14:41Z</time>
      </trkpt>
      <trkpt lat="45.29431" lon="6.02734">
        <ele>1466.8</ele>
        <time>2014-10-18T14:14:47Z</time>
      </trkpt>
      <trkpt lat="45.29435" lon="6.02748">
        <ele>1467.5</ele>
        <time>2014-10-18T14:14:57Z</time>
      </trkpt>
      <trkpt lat="45.29446" lon="6.02752">
        <ele>1468.1</ele>
        <time>2014-10-18T14:15:03Z</time>
      </trkpt>
      <trkpt lat="45.29455" lon="6.02751">
        <ele>1469.1</ele>
        <time>2014-10-18T14:15:08Z</time>
      </trkpt>
      <trkpt lat="45.29465" lon="6.02751">
        <ele>1469.7</ele>
        <time>2014-10-18T14:15:13Z</time>
      </trkpt>
      <trkpt lat="45.29475" lon="6.02752">
        <ele>1470.7</ele>
        <time>2014-10-18T14:15:18Z</time>
      </trkpt>
      <trkpt lat="45.29484" lon="6.02756">
        <ele>1471.6</ele>
        <time>2014-10-18T14:15:23Z</time>
      </trkpt>
      <trkpt lat="45.29494" lon="6.02761">
        <ele>1472.3</ele>
        <time>2014-10-18T14:15:28Z</time>
      </trkpt>
      <trkpt lat="45.29504" lon="6.02766">
        <ele>1473</ele>
        <time>2014-10-18T14:15:33Z</time>
      </trkpt>
      <trkpt lat="45.29512" lon="6.02773">
        <ele>1473.8</ele>
        <time>2014-10-18T14:15:39Z</time>
      </trkpt>
      <trkpt lat="45.2952" lon="6.0278">
        <ele>1474.8</ele>
        <time>2014-10-18T14:15:44Z</time>
      </trkpt>
      <trkpt lat="45.29528" lon="6.02789">
        <ele>1475.1</ele>
        <time>2014-10-18T14:15:49Z</time>
      </trkpt>
      <trkpt lat="45.29537" lon="6.02796">
        <ele>1475.9</ele>
        <time>2014-10-18T14:15:54Z</time>
      </trkpt>
      <trkpt lat="45.29546" lon="6.02803">
        <ele>1477</ele>
        <time>2014-10-18T14:16:00Z</time>
      </trkpt>
      <trkpt lat="45.29555" lon="6.02808">
        <ele>1477.6</ele>
        <time>2014-10-18T14:16:05Z</time>
      </trkpt>
      <trkpt lat="45.29563" lon="6.02814">
        <ele>1478.8</ele>
        <time>2014-10-18T14:16:10Z</time>
      </trkpt>
      <trkpt lat="45.2957" lon="6.02823">
        <ele>1479.9</ele>
        <time>2014-10-18T14:16:15Z</time>
      </trkpt>
      <trkpt lat="45.29577" lon="6.02834">
        <ele>1480.8</ele>
        <time>2014-10-18T14:16:20Z</time>
      </trkpt>
      <trkpt lat="45.29583" lon="6.02844">
        <ele>1481.1</ele>
        <time>2014-10-18T14:16:25Z</time>
      </trkpt>
      <trkpt lat="45.2959" lon="6.02855">
        <ele>1481.7</ele>
        <time>2014-10-18T14:16:31Z</time>
      </trkpt>
      <trkpt lat="45.29585" lon="6.02866">
        <ele>1482.8</ele>
        <time>2014-10-18T14:16:40Z</time>
      </trkpt>
      <trkpt lat="45.29576" lon="6.0287">
        <ele>1484.9</ele>
        <time>2014-10-18T14:16:47Z</time>
      </trkpt>
      <trkpt lat="45.29566" lon="6.02869">
        <ele>1485.9</ele>
        <time>2014-10-18T14:16:53Z</time>
      </trkpt>
      <trkpt lat="45.29557" lon="6.02868">
        <ele>1486.9</ele>
        <time>2014-10-18T14:16:59Z</time>
      </trkpt>
      <trkpt lat="45.29547" lon="6.02866">
        <ele>1487.4</ele>
        <time>2014-10-18T14:17:05Z</time>
      </trkpt>
      <trkpt lat="45.29537" lon="6.02868">
        <ele>1488.2</ele>
        <time>2014-10-18T14:17:12Z</time>
      </trkpt>
      <trkpt lat="45.29528" lon="6.0287">
        <ele>1489.2</ele>
        <time>2014-10-18T14:17:19Z</time>
      </trkpt>
      <trkpt lat="45.29519" lon="6.02875">
        <ele>1490.5</ele>
        <time>2014-10-18T14:17:27Z</time>
      </trkpt>
      <trkpt lat="45.2951" lon="6.02875">
        <ele>1491.8</ele>
        <time>2014-10-18T14:17:36Z</time>
      </trkpt>
      <trkpt lat="45.29501" lon="6.02873">
        <ele>1492.7</ele>
        <time>2014-10-18T14:17:44Z</time>
      </trkpt>
      <trkpt lat="45.29492" lon="6.02871">
        <ele>1493.8</ele>
        <time>2014-10-18T14:17:51Z</time>
      </trkpt>
      <trkpt lat="45.29482" lon="6.02872">
        <ele>1495.2</ele>
        <time>2014-10-18T14:18:00Z</time>
      </trkpt>
      <trkpt lat="45.29472" lon="6.02875">
        <ele>1497</ele>
        <time>2014-10-18T14:18:08Z</time>
      </trkpt>
      <trkpt lat="45.29462" lon="6.02874">
        <ele>1499.2</ele>
        <time>2014-10-18T14:18:16Z</time>
      </trkpt>
      <trkpt lat="45.29453" lon="6.02875">
        <ele>1502.2</ele>
        <time>2014-10-18T14:18:31Z</time>
      </trkpt>
      <trkpt lat="45.29444" lon="6.02875">
        <ele>1503.7</ele>
        <time>2014-10-18T14:19:00Z</time>
      </trkpt>
      <trkpt lat="45.29434" lon="6.02879">
        <ele>1505.9</ele>
        <time>2014-10-18T14:19:11Z</time>
      </trkpt>
      <trkpt lat="45.29425" lon="6.02883">
        <ele>1507.8</ele>
        <time>2014-10-18T14:19:21Z</time>
      </trkpt>
      <trkpt lat="45.29416" lon="6.02886">
        <ele>1509.9</ele>
        <time>2014-10-18T14:19:33Z</time>
      </trkpt>
      <trkpt lat="45.29406" lon="6.02891">
        <ele>1511.4</ele>
        <time>2014-10-18T14:19:45Z</time>
      </trkpt>
      <trkpt lat="45.29397" lon="6.02894">
        <ele>1512.6</ele>
        <time>2014-10-18T14:19:53Z</time>
      </trkpt>
      <trkpt lat="45.29388" lon="6.02899">
        <ele>1514.8</ele>
        <time>2014-10-18T14:20:04Z</time>
      </trkpt>
      <trkpt lat="45.29381" lon="6.02907">
        <ele>1516.7</ele>
        <time>2014-10-18T14:20:15Z</time>
      </trkpt>
      <trkpt lat="45.29372" lon="6.02914">
        <ele>1518.6</ele>
        <time>2014-10-18T14:20:36Z</time>
      </trkpt>
      <trkpt lat="45.29364" lon="6.02921">
        <ele>1519.7</ele>
        <time>2014-10-18T14:20:45Z</time>
      </trkpt>
      <trkpt lat="45.29356" lon="6.02926">
        <ele>1520.7</ele>
        <time>2014-10-18T14:20:53Z</time>
      </trkpt>
      <trkpt lat="45.2935" lon="6.02936">
        <ele>1521.7</ele>
        <time>2014-10-18T14:20:59Z</time>
      </trkpt>
      <trkpt lat="45.29342" lon="6.02945">
        <ele>1523.6</ele>
        <time>2014-10-18T14:21:07Z</time>
      </trkpt>
      <trkpt lat="45.29333" lon="6.02951">
        <ele>1524.8</ele>
        <time>2014-10-18T14:21:16Z</time>
      </trkpt>
      <trkpt lat="45.29325" lon="6.02958">
        <ele>1526.8</ele>
        <time>2014-10-18T14:21:25Z</time>
      </trkpt>
      <trkpt lat="45.29316" lon="6.02962">
        <ele>1528.5</ele>
        <time>2014-10-18T14:21:34Z</time>
      </trkpt>
      <trkpt lat="45.29307" lon="6.02965">
        <ele>1530.3</ele>
        <time>2014-10-18T14:21:42Z</time>
      </trkpt>
      <trkpt lat="45.29298" lon="6.02968">
        <ele>1531.4</ele>
        <time>2014-10-18T14:21:49Z</time>
      </trkpt>
      <trkpt lat="45.2929" lon="6.02974">
        <ele>1532.1</ele>
        <time>2014-10-18T14:21:58Z</time>
      </trkpt>
      <trkpt lat="45.2928" lon="6.02977">
        <ele>1532.6</ele>
        <time>2014-10-18T14:22:06Z</time>
      </trkpt>
      <trkpt lat="45.29271" lon="6.02982">
        <ele>1533.7</ele>
        <time>2014-10-18T14:22:14Z</time>
      </trkpt>
      <trkpt lat="45.29263" lon="6.0299">
        <ele>1535.2</ele>
        <time>2014-10-18T14:22:27Z</time>
      </trkpt>
      <trkpt lat="45.29254" lon="6.02995">
        <ele>1535.6</ele>
        <time>2014-10-18T14:22:36Z</time>
      </trkpt>
      <trkpt lat="45.29245" lon="6.02999">
        <ele>1535.9</ele>
        <time>2014-10-18T14:22:42Z</time>
      </trkpt>
      <trkpt lat="45.29236" lon="6.03005">
        <ele>1536</ele>
        <time>2014-10-18T14:22:49Z</time>
      </trkpt>
      <trkpt lat="45.29231" lon="6.03015">
        <ele>1537.9</ele>
        <time>2014-10-18T14:23:03Z</time>
      </trkpt>
      <trkpt lat="45.29225" lon="6.03026">
        <ele>1539.8</ele>
        <time>2014-10-18T14:23:17Z</time>
      </trkpt>
      <trkpt lat="45.2922" lon="6.03037">
        <ele>1541.6</ele>
        <time>2014-10-18T14:23:29Z</time>
      </trkpt>
      <trkpt lat="45.29219" lon="6.0305">
        <ele>1543.5</ele>
        <time>2014-10-18T14:23:47Z</time>
      </trkpt>
      <trkpt lat="45.29219" lon="6.03064">
        <ele>1545.9</ele>
        <time>2014-10-18T14:24:13Z</time>
      </trkpt>
      <trkpt lat="45.29217" lon="6.03076">
        <ele>1548.2</ele>
        <time>2014-10-18T14:24:24Z</time>
      </trkpt>
      <trkpt lat="45.29215" lon="6.03089">
        <ele>1550.4</ele>
        <time>2014-10-18T14:24:36Z</time>
      </trkpt>
      <trkpt lat="45.29214" lon="6.03103">
        <ele>1552.4</ele>
        <time>2014-10-18T14:24:46Z</time>
      </trkpt>
      <trkpt lat="45.2921" lon="6.03115">
        <ele>1553.8</ele>
        <time>2014-10-18T14:24:56Z</time>
      </trkpt>
      <trkpt lat="45.29207" lon="6.03129">
        <ele>1555.4</ele>
        <time>2014-10-18T14:25:05Z</time>
      </trkpt>
      <trkpt lat="45.29204" lon="6.03141">
        <ele>1556.2</ele>
        <time>2014-10-18T14:25:15Z</time>
      </trkpt>
      <trkpt lat="45.29201" lon="6.03155">
        <ele>1557.5</ele>
        <time>2014-10-18T14:25:24Z</time>
      </trkpt>
      <trkpt lat="45.29203" lon="6.03167">
        <ele>1559.7</ele>
        <time>2014-10-18T14:25:47Z</time>
      </trkpt>
      <trkpt lat="45.29203" lon="6.0318">
        <ele>1562.8</ele>
        <time>2014-10-18T14:26:06Z</time>
      </trkpt>
      <trkpt lat="45.29204" lon="6.03193">
        <ele>1567.3</ele>
        <time>2014-10-18T14:26:38Z</time>
      </trkpt>
      <trkpt lat="45.29201" lon="6.03206">
        <ele>1569.8</ele>
        <time>2014-10-18T14:26:58Z</time>
      </trkpt>
      <trkpt lat="45.29203" lon="6.0322">
        <ele>1572.3</ele>
        <time>2014-10-18T14:27:09Z</time>
      </trkpt>
      <trkpt lat="45.29202" lon="6.03233">
        <ele>1574</ele>
        <time>2014-10-18T14:27:18Z</time>
      </trkpt>
      <trkpt lat="45.29201" lon="6.03246">
        <ele>1577.7</ele>
        <time>2014-10-18T14:27:43Z</time>
      </trkpt>
      <trkpt lat="45.29205" lon="6.03258">
        <ele>1581.4</ele>
        <time>2014-10-18T14:28:27Z</time>
      </trkpt>
      <trkpt lat="45.29211" lon="6.03268">
        <ele>1582.6</ele>
        <time>2014-10-18T14:28:53Z</time>
      </trkpt>
      <trkpt lat="45.29209" lon="6.03281">
        <ele>1584.3</ele>
        <time>2014-10-18T14:29:15Z</time>
      </trkpt>
      <trkpt lat="45.29205" lon="6.03293">
        <ele>1587.4</ele>
        <time>2014-10-18T14:29:29Z</time>
      </trkpt>
      <trkpt lat="45.29207" lon="6.03307">
        <ele>1588.2</ele>
        <time>2014-10-18T14:29:35Z</time>
      </trkpt>
      <trkpt lat="45.29209" lon="6.0332">
        <ele>1589.1</ele>
        <time>2014-10-18T14:29:40Z</time>
      </trkpt>
      <trkpt lat="45.29213" lon="6.03334">
        <ele>1592.5</ele>
        <time>2014-10-18T14:29:57Z</time>
      </trkpt>
      <trkpt lat="45.29211" lon="6.03347">
        <ele>1595.8</ele>
        <time>2014-10-18T14:30:21Z</time>
      </trkpt>
      <trkpt lat="45.29211" lon="6.0336">
        <ele>1598.5</ele>
        <time>2014-10-18T14:30:37Z</time>
      </trkpt>
      <trkpt lat="45.29212" lon="6.03374">
        <ele>1602.6</ele>
        <time>2014-10-18T14:31:09Z</time>
      </trkpt>
      <trkpt lat="45.29205" lon="6.03384">
        <ele>1605.9</ele>
        <time>2014-10-18T14:31:26Z</time>
      </trkpt>
      <trkpt lat="45.29198" lon="6.03391">
        <ele>1607.5</ele>
        <time>2014-10-18T14:31:35Z</time>
      </trkpt>
      <trkpt lat="45.29191" lon="6.03399">
        <ele>1609.2</ele>
        <time>2014-10-18T14:31:43Z</time>
      </trkpt>
      <trkpt lat="45.29181" lon="6.034">
        <ele>1610.9</ele>
        <time>2014-10-18T14:31:52Z</time>
      </trkpt>
      <trkpt lat="45.29172" lon="6.034">
        <ele>1612</ele>
        <time>2014-10-18T14:32:00Z</time>
      </trkpt>
      <trkpt lat="45.29163" lon="6.03395">
        <ele>1614.3</ele>
        <time>2014-10-18T14:32:13Z</time>
      </trkpt>
      <trkpt lat="45.29154" lon="6.03389">
        <ele>1615.2</ele>
        <time>2014-10-18T14:32:24Z</time>
      </trkpt>
      <trkpt lat="45.29144" lon="6.0339">
        <ele>1616.5</ele>
        <time>2014-10-18T14:32:32Z</time>
      </trkpt>
      <trkpt lat="45.29135" lon="6.03392">
        <ele>1618.4</ele>
        <time>2014-10-18T14:32:45Z</time>
      </trkpt>
      <trkpt lat="45.29126" lon="6.03392">
        <ele>1620.7</ele>
        <time>2014-10-18T14:32:55Z</time>
      </trkpt>
      <trkpt lat="45.29117" lon="6.03396">
        <ele>1621.3</ele>
        <time>2014-10-18T14:33:08Z</time>
      </trkpt>
      <trkpt lat="45.29106" lon="6.03394">
        <ele>1621</ele>
        <time>2014-10-18T14:33:13Z</time>
      </trkpt>
      <trkpt lat="45.29095" lon="6.03392">
        <ele>1620.2</ele>
        <time>2014-10-18T14:33:17Z</time>
      </trkpt>
      <trkpt lat="45.29086" lon="6.0339">
        <ele>1620.4</ele>
        <time>2014-10-18T14:33:22Z</time>
      </trkpt>
      <trkpt lat="45.29076" lon="6.03388">
        <ele>1621.9</ele>
        <time>2014-10-18T14:33:28Z</time>
      </trkpt>
      <trkpt lat="45.29067" lon="6.03388">
        <ele>1625.6</ele>
        <time>2014-10-18T14:33:46Z</time>
      </trkpt>
      <trkpt lat="45.2906" lon="6.0338">
        <ele>1629.7</ele>
        <time>2014-10-18T14:34:28Z</time>
      </trkpt>
      <trkpt lat="45.29049" lon="6.03381">
        <ele>1631.4</ele>
        <time>2014-10-18T14:34:39Z</time>
      </trkpt>
      <trkpt lat="45.2904" lon="6.03384">
        <ele>1633.5</ele>
        <time>2014-10-18T14:34:50Z</time>
      </trkpt>
      <trkpt lat="45.29031" lon="6.03389">
        <ele>1634.8</ele>
        <time>2014-10-18T14:35:03Z</time>
      </trkpt>
      <trkpt lat="45.29021" lon="6.03388">
        <ele>1634.1</ele>
        <time>2014-10-18T14:35:09Z</time>
      </trkpt>
      <trkpt lat="45.29012" lon="6.03393">
        <ele>1634.9</ele>
        <time>2014-10-18T14:35:20Z</time>
      </trkpt>
      <trkpt lat="45.29004" lon="6.03397">
        <ele>1636.5</ele>
        <time>2014-10-18T14:35:31Z</time>
      </trkpt>
      <trkpt lat="45.28995" lon="6.03403">
        <ele>1637.6</ele>
        <time>2014-10-18T14:35:42Z</time>
      </trkpt>
      <trkpt lat="45.28987" lon="6.03409">
        <ele>1638.2</ele>
        <time>2014-10-18T14:35:51Z</time>
      </trkpt>
      <trkpt lat="45.28979" lon="6.03416">
        <ele>1639.4</ele>
        <time>2014-10-18T14:35:59Z</time>
      </trkpt>
      <trkpt lat="45.28973" lon="6.03427">
        <ele>1638.8</ele>
        <time>2014-10-18T14:36:06Z</time>
      </trkpt>
      <trkpt lat="45.28965" lon="6.03437">
        <ele>1639.1</ele>
        <time>2014-10-18T14:36:12Z</time>
      </trkpt>
      <trkpt lat="45.28959" lon="6.03446">
        <ele>1640.2</ele>
        <time>2014-10-18T14:36:19Z</time>
      </trkpt>
      <trkpt lat="45.28951" lon="6.03452">
        <ele>1640.1</ele>
        <time>2014-10-18T14:36:28Z</time>
      </trkpt>
      <trkpt lat="45.28943" lon="6.03463">
        <ele>1639.4</ele>
        <time>2014-10-18T14:36:36Z</time>
      </trkpt>
      <trkpt lat="45.28936" lon="6.03472">
        <ele>1640.1</ele>
        <time>2014-10-18T14:36:41Z</time>
      </trkpt>
      <trkpt lat="45.28931" lon="6.03485">
        <ele>1640.4</ele>
        <time>2014-10-18T14:36:46Z</time>
      </trkpt>
      <trkpt lat="45.28924" lon="6.03496">
        <ele>1641.4</ele>
        <time>2014-10-18T14:36:54Z</time>
      </trkpt>
      <trkpt lat="45.28918" lon="6.03506">
        <ele>1644</ele>
        <time>2014-10-18T14:37:08Z</time>
      </trkpt>
      <trkpt lat="45.2891" lon="6.03514">
        <ele>1644.3</ele>
        <time>2014-10-18T14:37:16Z</time>
      </trkpt>
      <trkpt lat="45.28906" lon="6.03527">
        <ele>1644.6</ele>
        <time>2014-10-18T14:37:24Z</time>
      </trkpt>
      <trkpt lat="45.28903" lon="6.03539">
        <ele>1645.7</ele>
        <time>2014-10-18T14:37:32Z</time>
      </trkpt>
      <trkpt lat="45.28894" lon="6.03542">
        <ele>1647.4</ele>
        <time>2014-10-18T14:37:44Z</time>
      </trkpt>
      <trkpt lat="45.28886" lon="6.03549">
        <ele>1651.2</ele>
        <time>2014-10-18T14:38:18Z</time>
      </trkpt>
      <trkpt lat="45.28881" lon="6.03561">
        <ele>1653.9</ele>
        <time>2014-10-18T14:38:33Z</time>
      </trkpt>
      <trkpt lat="45.28872" lon="6.03565">
        <ele>1656.2</ele>
        <time>2014-10-18T14:38:47Z</time>
      </trkpt>
      <trkpt lat="45.28866" lon="6.03574">
        <ele>1660.3</ele>
        <time>2014-10-18T14:39:11Z</time>
      </trkpt>
      <trkpt lat="45.28857" lon="6.03577">
        <ele>1663.6</ele>
        <time>2014-10-18T14:40:19Z</time>
      </trkpt>
      <trkpt lat="45.28848" lon="6.03585">
        <ele>1667.9</ele>
        <time>2014-10-18T14:40:55Z</time>
      </trkpt>
      <trkpt lat="45.2884" lon="6.03593">
        <ele>1671.6</ele>
        <time>2014-10-18T14:41:15Z</time>
      </trkpt>
      <trkpt lat="45.2883" lon="6.03593">
        <ele>1673.1</ele>
        <time>2014-10-18T14:41:39Z</time>
      </trkpt>
      <trkpt lat="45.28822" lon="6.03598">
        <ele>1672.5</ele>
        <time>2014-10-18T14:41:46Z</time>
      </trkpt>
      <trkpt lat="45.28814" lon="6.03604">
        <ele>1674.5</ele>
        <time>2014-10-18T14:41:57Z</time>
      </trkpt>
      <trkpt lat="45.28805" lon="6.03609">
        <ele>1674.7</ele>
        <time>2014-10-18T14:42:06Z</time>
      </trkpt>
      <trkpt lat="45.28798" lon="6.03617">
        <ele>1674.9</ele>
        <time>2014-10-18T14:42:13Z</time>
      </trkpt>
      <trkpt lat="45.2879" lon="6.03626">
        <ele>1676</ele>
        <time>2014-10-18T14:42:23Z</time>
      </trkpt>
      <trkpt lat="45.28787" lon="6.03639">
        <ele>1675.6</ele>
        <time>2014-10-18T14:42:30Z</time>
      </trkpt>
      <trkpt lat="45.28777" lon="6.03643">
        <ele>1676.9</ele>
        <time>2014-10-18T14:42:57Z</time>
      </trkpt>
      <trkpt lat="45.28768" lon="6.03638">
        <ele>1677.4</ele>
        <time>2014-10-18T14:43:06Z</time>
      </trkpt>
      <trkpt lat="45.28759" lon="6.03638">
        <ele>1678.9</ele>
        <time>2014-10-18T14:43:22Z</time>
      </trkpt>
      <trkpt lat="45.2875" lon="6.03644">
        <ele>1682.3</ele>
        <time>2014-10-18T14:43:44Z</time>
      </trkpt>
      <trkpt lat="45.28741" lon="6.03652">
        <ele>1686.2</ele>
        <time>2014-10-18T14:44:27Z</time>
      </trkpt>
      <trkpt lat="45.28732" lon="6.03654">
        <ele>1687.1</ele>
        <time>2014-10-18T14:44:35Z</time>
      </trkpt>
      <trkpt lat="45.28724" lon="6.0366">
        <ele>1690.1</ele>
        <time>2014-10-18T14:44:58Z</time>
      </trkpt>
      <trkpt lat="45.28714" lon="6.0366">
        <ele>1692.8</ele>
        <time>2014-10-18T14:45:13Z</time>
      </trkpt>
      <trkpt lat="45.28705" lon="6.03657">
        <ele>1694.3</ele>
        <time>2014-10-18T14:45:24Z</time>
      </trkpt>
      <trkpt lat="45.28696" lon="6.03656">
        <ele>1694.8</ele>
        <time>2014-10-18T14:45:32Z</time>
      </trkpt>
      <trkpt lat="45.28687" lon="6.03656">
        <ele>1695</ele>
        <time>2014-10-18T14:45:39Z</time>
      </trkpt>
      <trkpt lat="45.28678" lon="6.03657">
        <ele>1695.3</ele>
        <time>2014-10-18T14:45:46Z</time>
      </trkpt>
      <trkpt lat="45.28668" lon="6.03658">
        <ele>1697</ele>
        <time>2014-10-18T14:45:59Z</time>
      </trkpt>
      <trkpt lat="45.28658" lon="6.0366">
        <ele>1697.9</ele>
        <time>2014-10-18T14:46:10Z</time>
      </trkpt>
      <trkpt lat="45.28648" lon="6.03662">
        <ele>1698.5</ele>
        <time>2014-10-18T14:46:17Z</time>
      </trkpt>
      <trkpt lat="45.28639" lon="6.03662">
        <ele>1698.9</ele>
        <time>2014-10-18T14:46:25Z</time>
      </trkpt>
      <trkpt lat="45.28629" lon="6.03663">
        <ele>1700.2</ele>
        <time>2014-10-18T14:46:33Z</time>
      </trkpt>
      <trkpt lat="45.2862" lon="6.03664">
        <ele>1700.7</ele>
        <time>2014-10-18T14:46:40Z</time>
      </trkpt>
      <trkpt lat="45.28611" lon="6.03666">
        <ele>1701.4</ele>
        <time>2014-10-18T14:46:47Z</time>
      </trkpt>
      <trkpt lat="45.28601" lon="6.03669">
        <ele>1703</ele>
        <time>2014-10-18T14:46:56Z</time>
      </trkpt>
      <trkpt lat="45.28592" lon="6.03673">
        <ele>1704.8</ele>
        <time>2014-10-18T14:48:45Z</time>
      </trkpt>
      <trkpt lat="45.28583" lon="6.03677">
        <ele>1706.5</ele>
        <time>2014-10-18T14:49:10Z</time>
      </trkpt>
      <trkpt lat="45.28574" lon="6.0368">
        <ele>1708.2</ele>
        <time>2014-10-18T14:49:17Z</time>
      </trkpt>
      <trkpt lat="45.28565" lon="6.03685">
        <ele>1710</ele>
        <time>2014-10-18T14:49:26Z</time>
      </trkpt>
      <trkpt lat="45.28556" lon="6.03687">
        <ele>1711.5</ele>
        <time>2014-10-18T14:49:33Z</time>
      </trkpt>
      <trkpt lat="45.28547" lon="6.03689">
        <ele>1712.9</ele>
        <time>2014-10-18T14:49:41Z</time>
      </trkpt>
      <trkpt lat="45.28537" lon="6.03692">
        <ele>1713.7</ele>
        <time>2014-10-18T14:49:49Z</time>
      </trkpt>
      <trkpt lat="45.28528" lon="6.03697">
        <ele>1715</ele>
        <time>2014-10-18T14:49:57Z</time>
      </trkpt>
      <trkpt lat="45.2852" lon="6.03701">
        <ele>1715.8</ele>
        <time>2014-10-18T14:50:04Z</time>
      </trkpt>
      <trkpt lat="45.2851" lon="6.03705">
        <ele>1716.7</ele>
        <time>2014-10-18T14:50:12Z</time>
      </trkpt>
      <trkpt lat="45.28501" lon="6.03709">
        <ele>1718.2</ele>
        <time>2014-10-18T14:50:19Z</time>
      </trkpt>
      <trkpt lat="45.28492" lon="6.03712">
        <ele>1719</ele>
        <time>2014-10-18T14:50:26Z</time>
      </trkpt>
      <trkpt lat="45.28483" lon="6.03718">
        <ele>1720.1</ele>
        <time>2014-10-18T14:50:35Z</time>
      </trkpt>
      <trkpt lat="45.28474" lon="6.03722">
        <ele>1720.6</ele>
        <time>2014-10-18T14:50:42Z</time>
      </trkpt>
      <trkpt lat="45.28465" lon="6.03726">
        <ele>1721.7</ele>
        <time>2014-10-18T14:50:50Z</time>
      </trkpt>
      <trkpt lat="45.28455" lon="6.03728">
        <ele>1722.4</ele>
        <time>2014-10-18T14:50:58Z</time>
      </trkpt>
      <trkpt lat="45.28446" lon="6.03732">
        <ele>1722.7</ele>
        <time>2014-10-18T14:51:06Z</time>
      </trkpt>
      <trkpt lat="45.28437" lon="6.03737">
        <ele>1724</ele>
        <time>2014-10-18T14:51:14Z</time>
      </trkpt>
      <trkpt lat="45.28427" lon="6.03738">
        <ele>1725.5</ele>
        <time>2014-10-18T14:51:25Z</time>
      </trkpt>
      <trkpt lat="45.28417" lon="6.03738">
        <ele>1726.8</ele>
        <time>2014-10-18T14:51:33Z</time>
      </trkpt>
      <trkpt lat="45.28408" lon="6.03737">
        <ele>1728.2</ele>
        <time>2014-10-18T14:51:41Z</time>
      </trkpt>
      <trkpt lat="45.28398" lon="6.03737">
        <ele>1730</ele>
        <time>2014-10-18T14:51:50Z</time>
      </trkpt>
      <trkpt lat="45.28389" lon="6.03738">
        <ele>1731.5</ele>
        <time>2014-10-18T14:51:59Z</time>
      </trkpt>
      <trkpt lat="45.2838" lon="6.03742">
        <ele>1733.1</ele>
        <time>2014-10-18T14:52:09Z</time>
      </trkpt>
      <trkpt lat="45.28373" lon="6.0375">
        <ele>1736.8</ele>
        <time>2014-10-18T14:52:26Z</time>
      </trkpt>
      <trkpt lat="45.28366" lon="6.0376">
        <ele>1738.3</ele>
        <time>2014-10-18T14:52:37Z</time>
      </trkpt>
      <trkpt lat="45.28363" lon="6.03773">
        <ele>1739.2</ele>
        <time>2014-10-18T14:52:46Z</time>
      </trkpt>
      <trkpt lat="45.28363" lon="6.03786">
        <ele>1739.7</ele>
        <time>2014-10-18T14:52:54Z</time>
      </trkpt>
      <trkpt lat="45.28364" lon="6.03799">
        <ele>1741.4</ele>
        <time>2014-10-18T14:53:03Z</time>
      </trkpt>
      <trkpt lat="45.28363" lon="6.03813">
        <ele>1742.6</ele>
        <time>2014-10-18T14:53:11Z</time>
      </trkpt>
      <trkpt lat="45.28362" lon="6.03827">
        <ele>1744.7</ele>
        <time>2014-10-18T14:53:22Z</time>
      </trkpt>
      <trkpt lat="45.28358" lon="6.03839">
        <ele>1745.9</ele>
        <time>2014-10-18T14:53:31Z</time>
      </trkpt>
      <trkpt lat="45.28353" lon="6.0385">
        <ele>1746.7</ele>
        <time>2014-10-18T14:53:38Z</time>
      </trkpt>
      <trkpt lat="45.28348" lon="6.0386">
        <ele>1747.5</ele>
        <time>2014-10-18T14:53:46Z</time>
      </trkpt>
      <trkpt lat="45.28342" lon="6.0387">
        <ele>1748.6</ele>
        <time>2014-10-18T14:53:55Z</time>
      </trkpt>
      <trkpt lat="45.28335" lon="6.03878">
        <ele>1750</ele>
        <time>2014-10-18T14:54:04Z</time>
      </trkpt>
      <trkpt lat="45.28328" lon="6.03888">
        <ele>1751.9</ele>
        <time>2014-10-18T14:54:16Z</time>
      </trkpt>
      <trkpt lat="45.28323" lon="6.03898">
        <ele>1753.8</ele>
        <time>2014-10-18T14:54:27Z</time>
      </trkpt>
      <trkpt lat="45.28316" lon="6.03907">
        <ele>1754.3</ele>
        <time>2014-10-18T14:54:35Z</time>
      </trkpt>
      <trkpt lat="45.28312" lon="6.03919">
        <ele>1755.9</ele>
        <time>2014-10-18T14:54:45Z</time>
      </trkpt>
      <trkpt lat="45.28307" lon="6.03931">
        <ele>1757</ele>
        <time>2014-10-18T14:54:54Z</time>
      </trkpt>
      <trkpt lat="45.28301" lon="6.03941">
        <ele>1759</ele>
        <time>2014-10-18T14:55:03Z</time>
      </trkpt>
      <trkpt lat="45.28294" lon="6.03948">
        <ele>1760.4</ele>
        <time>2014-10-18T14:55:12Z</time>
      </trkpt>
      <trkpt lat="45.28284" lon="6.0395">
        <ele>1762.4</ele>
        <time>2014-10-18T14:55:22Z</time>
      </trkpt>
      <trkpt lat="45.28275" lon="6.03948">
        <ele>1764.6</ele>
        <time>2014-10-18T14:55:32Z</time>
      </trkpt>
      <trkpt lat="45.28265" lon="6.0395">
        <ele>1767.7</ele>
        <time>2014-10-18T14:55:47Z</time>
      </trkpt>
      <trkpt lat="45.28257" lon="6.03955">
        <ele>1769.3</ele>
        <time>2014-10-18T14:55:58Z</time>
      </trkpt>
      <trkpt lat="45.28248" lon="6.03959">
        <ele>1771.3</ele>
        <time>2014-10-18T14:56:08Z</time>
      </trkpt>
      <trkpt lat="45.28239" lon="6.03963">
        <ele>1773.1</ele>
        <time>2014-10-18T14:56:21Z</time>
      </trkpt>
      <trkpt lat="45.28234" lon="6.03975">
        <ele>1775.2</ele>
        <time>2014-10-18T14:56:35Z</time>
      </trkpt>
      <trkpt lat="45.28233" lon="6.03988">
        <ele>1777.3</ele>
        <time>2014-10-18T14:56:45Z</time>
      </trkpt>
      <trkpt lat="45.28229" lon="6.04">
        <ele>1778.5</ele>
        <time>2014-10-18T14:56:54Z</time>
      </trkpt>
      <trkpt lat="45.2822" lon="6.03997">
        <ele>1780.3</ele>
        <time>2014-10-18T14:57:07Z</time>
      </trkpt>
      <trkpt lat="45.2821" lon="6.03993">
        <ele>1779.6</ele>
        <time>2014-10-18T14:57:15Z</time>
      </trkpt>
      <trkpt lat="45.28201" lon="6.03992">
        <ele>1780.5</ele>
        <time>2014-10-18T14:57:21Z</time>
      </trkpt>
      <trkpt lat="45.28192" lon="6.03994">
        <ele>1781.5</ele>
        <time>2014-10-18T14:57:28Z</time>
      </trkpt>
      <trkpt lat="45.28183" lon="6.03998">
        <ele>1782.5</ele>
        <time>2014-10-18T14:57:35Z</time>
      </trkpt>
      <trkpt lat="45.28176" lon="6.04008">
        <ele>1783.4</ele>
        <time>2014-10-18T14:57:42Z</time>
      </trkpt>
      <trkpt lat="45.28171" lon="6.04019">
        <ele>1783.7</ele>
        <time>2014-10-18T14:57:49Z</time>
      </trkpt>
      <trkpt lat="45.2817" lon="6.04032">
        <ele>1784</ele>
        <time>2014-10-18T14:57:56Z</time>
      </trkpt>
      <trkpt lat="45.28163" lon="6.04041">
        <ele>1784.2</ele>
        <time>2014-10-18T14:58:03Z</time>
      </trkpt>
      <trkpt lat="45.28153" lon="6.04044">
        <ele>1784.6</ele>
        <time>2014-10-18T14:58:09Z</time>
      </trkpt>
      <trkpt lat="45.28143" lon="6.0404">
        <ele>1785</ele>
        <time>2014-10-18T14:58:15Z</time>
      </trkpt>
      <trkpt lat="45.28136" lon="6.04031">
        <ele>1785.1</ele>
        <time>2014-10-18T14:58:19Z</time>
      </trkpt>
      <trkpt lat="45.28128" lon="6.04021">
        <ele>1785.5</ele>
        <time>2014-10-18T14:58:24Z</time>
      </trkpt>
      <trkpt lat="45.2812" lon="6.04012">
        <ele>1785.6</ele>
        <time>2014-10-18T14:58:29Z</time>
      </trkpt>
      <trkpt lat="45.28112" lon="6.04005">
        <ele>1785.9</ele>
        <time>2014-10-18T14:58:34Z</time>
      </trkpt>
      <trkpt lat="45.28103" lon="6.03999">
        <ele>1786.5</ele>
        <time>2014-10-18T14:58:39Z</time>
      </trkpt>
      <trkpt lat="45.28094" lon="6.03993">
        <ele>1787.1</ele>
        <time>2014-10-18T14:58:44Z</time>
      </trkpt>
      <trkpt lat="45.28085" lon="6.03988">
        <ele>1787.8</ele>
        <time>2014-10-18T14:58:49Z</time>
      </trkpt>
      <trkpt lat="45.28075" lon="6.03983">
        <ele>1788.7</ele>
        <time>2014-10-18T14:58:55Z</time>
      </trkpt>
      <trkpt lat="45.28065" lon="6.03978">
        <ele>1789.7</ele>
        <time>2014-10-18T14:59:01Z</time>
      </trkpt>
      <trkpt lat="45.28054" lon="6.03975">
        <ele>1790.9</ele>
        <time>2014-10-18T14:59:07Z</time>
      </trkpt>
      <trkpt lat="45.28044" lon="6.03975">
        <ele>1792.6</ele>
        <time>2014-10-18T14:59:14Z</time>
      </trkpt>
      <trkpt lat="45.28034" lon="6.03977">
        <ele>1793.3</ele>
        <time>2014-10-18T14:59:21Z</time>
      </trkpt>
      <trkpt lat="45.28026" lon="6.03982">
        <ele>1793.7</ele>
        <time>2014-10-18T14:59:27Z</time>
      </trkpt>
      <trkpt lat="45.28016" lon="6.03983">
        <ele>1798.2</ele>
        <time>2014-10-18T15:05:52Z</time>
      </trkpt>
      <trkpt lat="45.2801" lon="6.0397">
        <ele>1797.3</ele>
        <time>2014-10-18T15:06:04Z</time>
      </trkpt>
      <trkpt lat="45.28004" lon="6.0396">
        <ele>1795.4</ele>
        <time>2014-10-18T15:06:12Z</time>
      </trkpt>
      <trkpt lat="45.27998" lon="6.03948">
        <ele>1794.6</ele>
        <time>2014-10-18T15:06:30Z</time>
      </trkpt>
      <trkpt lat="45.27994" lon="6.03934">
        <ele>1794.2</ele>
        <time>2014-10-18T15:06:37Z</time>
      </trkpt>
      <trkpt lat="45.2799" lon="6.03922">
        <ele>1793.8</ele>
        <time>2014-10-18T15:06:42Z</time>
      </trkpt>
      <trkpt lat="45.27986" lon="6.0391">
        <ele>1794</ele>
        <time>2014-10-18T15:06:46Z</time>
      </trkpt>
      <trkpt lat="45.27983" lon="6.03896">
        <ele>1793.9</ele>
        <time>2014-10-18T15:06:50Z</time>
      </trkpt>
      <trkpt lat="45.27985" lon="6.03882">
        <ele>1793.8</ele>
        <time>2014-10-18T15:06:54Z</time>
      </trkpt>
      <trkpt lat="45.27986" lon="6.03869">
        <ele>1794.9</ele>
        <time>2014-10-18T15:06:58Z</time>
      </trkpt>
      <trkpt lat="45.27989" lon="6.03857">
        <ele>1795.2</ele>
        <time>2014-10-18T15:07:03Z</time>
      </trkpt>
      <trkpt lat="45.27987" lon="6.03844">
        <ele>1795.4</ele>
        <time>2014-10-18T15:07:08Z</time>
      </trkpt>
      <trkpt lat="45.27982" lon="6.03833">
        <ele>1795.7</ele>
        <time>2014-10-18T15:07:13Z</time>
      </trkpt>
      <trkpt lat="45.27982" lon="6.03818">
        <ele>1795.4</ele>
        <time>2014-10-18T15:07:20Z</time>
      </trkpt>
      <trkpt lat="45.27978" lon="6.03805">
        <ele>1794.1</ele>
        <time>2014-10-18T15:07:26Z</time>
      </trkpt>
      <trkpt lat="45.27979" lon="6.03787">
        <ele>1792.1</ele>
        <time>2014-10-18T15:07:30Z</time>
      </trkpt>
      <trkpt lat="45.27973" lon="6.03774">
        <ele>1789.2</ele>
        <time>2014-10-18T15:07:34Z</time>
      </trkpt>
      <trkpt lat="45.27965" lon="6.03767">
        <ele>1786.8</ele>
        <time>2014-10-18T15:07:38Z</time>
      </trkpt>
      <trkpt lat="45.27963" lon="6.03754">
        <ele>1782.3</ele>
        <time>2014-10-18T15:07:56Z</time>
      </trkpt>
      <trkpt lat="45.27967" lon="6.0374">
        <ele>1783.4</ele>
        <time>2014-10-18T15:08:03Z</time>
      </trkpt>
      <trkpt lat="45.27963" lon="6.03727">
        <ele>1784.2</ele>
        <time>2014-10-18T15:08:12Z</time>
      </trkpt>
      <trkpt lat="45.27957" lon="6.03715">
        <ele>1783.6</ele>
        <time>2014-10-18T15:08:17Z</time>
      </trkpt>
      <trkpt lat="45.2795" lon="6.03707">
        <ele>1783.4</ele>
        <time>2014-10-18T15:08:21Z</time>
      </trkpt>
      <trkpt lat="45.27943" lon="6.03698">
        <ele>1783.2</ele>
        <time>2014-10-18T15:08:26Z</time>
      </trkpt>
      <trkpt lat="45.27936" lon="6.0369">
        <ele>1783.1</ele>
        <time>2014-10-18T15:08:31Z</time>
      </trkpt>
      <trkpt lat="45.27928" lon="6.03683">
        <ele>1783</ele>
        <time>2014-10-18T15:08:40Z</time>
      </trkpt>
      <trkpt lat="45.27919" lon="6.03678">
        <ele>1783.5</ele>
        <time>2014-10-18T15:08:46Z</time>
      </trkpt>
      <trkpt lat="45.27909" lon="6.03674">
        <ele>1782.3</ele>
        <time>2014-10-18T15:08:59Z</time>
      </trkpt>
      <trkpt lat="45.27899" lon="6.03676">
        <ele>1781.4</ele>
        <time>2014-10-18T15:09:03Z</time>
      </trkpt>
      <trkpt lat="45.2789" lon="6.03679">
        <ele>1780.4</ele>
        <time>2014-10-18T15:09:10Z</time>
      </trkpt>
      <trkpt lat="45.27881" lon="6.03678">
        <ele>1780</ele>
        <time>2014-10-18T15:09:18Z</time>
      </trkpt>
      <trkpt lat="45.27871" lon="6.03675">
        <ele>1779.8</ele>
        <time>2014-10-18T15:09:32Z</time>
      </trkpt>
      <trkpt lat="45.27872" lon="6.03662">
        <ele>1782.3</ele>
        <time>2014-10-18T15:09:45Z</time>
      </trkpt>
      <trkpt lat="45.27872" lon="6.03646">
        <ele>1782.7</ele>
        <time>2014-10-18T15:09:57Z</time>
      </trkpt>
      <trkpt lat="45.27874" lon="6.03633">
        <ele>1782.5</ele>
        <time>2014-10-18T15:10:01Z</time>
      </trkpt>
      <trkpt lat="45.27878" lon="6.0362">
        <ele>1782.6</ele>
        <time>2014-10-18T15:10:06Z</time>
      </trkpt>
      <trkpt lat="45.27882" lon="6.03606">
        <ele>1783.7</ele>
        <time>2014-10-18T15:10:11Z</time>
      </trkpt>
      <trkpt lat="45.2788" lon="6.03593">
        <ele>1785.7</ele>
        <time>2014-10-18T15:10:19Z</time>
      </trkpt>
      <trkpt lat="45.27878" lon="6.0358">
        <ele>1786.9</ele>
        <time>2014-10-18T15:10:30Z</time>
      </trkpt>
      <trkpt lat="45.27877" lon="6.03566">
        <ele>1788.1</ele>
        <time>2014-10-18T15:10:48Z</time>
      </trkpt>
      <trkpt lat="45.27878" lon="6.03552">
        <ele>1788.2</ele>
        <time>2014-10-18T15:10:56Z</time>
      </trkpt>
      <trkpt lat="45.27879" lon="6.03538">
        <ele>1787.5</ele>
        <time>2014-10-18T15:11:03Z</time>
      </trkpt>
      <trkpt lat="45.27877" lon="6.03524">
        <ele>1785.7</ele>
        <time>2014-10-18T15:11:09Z</time>
      </trkpt>
      <trkpt lat="45.27872" lon="6.03512">
        <ele>1783.1</ele>
        <time>2014-10-18T15:11:22Z</time>
      </trkpt>
      <trkpt lat="45.27872" lon="6.03498">
        <ele>1784.1</ele>
        <time>2014-10-18T15:11:33Z</time>
      </trkpt>
      <trkpt lat="45.2787" lon="6.03485">
        <ele>1783.2</ele>
        <time>2014-10-18T15:11:47Z</time>
      </trkpt>
      <trkpt lat="45.27877" lon="6.03476">
        <ele>1785.5</ele>
        <time>2014-10-18T15:12:06Z</time>
      </trkpt>
      <trkpt lat="45.27874" lon="6.03463">
        <ele>1788.3</ele>
        <time>2014-10-18T15:12:20Z</time>
      </trkpt>
      <trkpt lat="45.27871" lon="6.0345">
        <ele>1789.7</ele>
        <time>2014-10-18T15:12:31Z</time>
      </trkpt>
      <trkpt lat="45.27863" lon="6.03444">
        <ele>1790.5</ele>
        <time>2014-10-18T15:12:40Z</time>
      </trkpt>
      <trkpt lat="45.27855" lon="6.03437">
        <ele>1791.2</ele>
        <time>2014-10-18T15:12:49Z</time>
      </trkpt>
      <trkpt lat="45.27847" lon="6.0343">
        <ele>1792.4</ele>
        <time>2014-10-18T15:12:58Z</time>
      </trkpt>
      <trkpt lat="45.27838" lon="6.03422">
        <ele>1793.5</ele>
        <time>2014-10-18T15:13:08Z</time>
      </trkpt>
      <trkpt lat="45.27831" lon="6.03413">
        <ele>1794.4</ele>
        <time>2014-10-18T15:13:17Z</time>
      </trkpt>
      <trkpt lat="45.27826" lon="6.03402">
        <ele>1795</ele>
        <time>2014-10-18T15:13:25Z</time>
      </trkpt>
      <trkpt lat="45.27818" lon="6.03394">
        <ele>1795.7</ele>
        <time>2014-10-18T15:13:35Z</time>
      </trkpt>
      <trkpt lat="45.27808" lon="6.03392">
        <ele>1795.9</ele>
        <time>2014-10-18T15:13:45Z</time>
      </trkpt>
      <trkpt lat="45.27798" lon="6.03391">
        <ele>1795.5</ele>
        <time>2014-10-18T15:13:54Z</time>
      </trkpt>
      <trkpt lat="45.27789" lon="6.03389">
        <ele>1794.8</ele>
        <time>2014-10-18T15:14:01Z</time>
      </trkpt>
      <trkpt lat="45.2778" lon="6.03389">
        <ele>1793.7</ele>
        <time>2014-10-18T15:14:08Z</time>
      </trkpt>
      <trkpt lat="45.27769" lon="6.03388">
        <ele>1793.9</ele>
        <time>2014-10-18T15:14:16Z</time>
      </trkpt>
      <trkpt lat="45.2776" lon="6.03385">
        <ele>1793.9</ele>
        <time>2014-10-18T15:14:23Z</time>
      </trkpt>
      <trkpt lat="45.2775" lon="6.03382">
        <ele>1794.3</ele>
        <time>2014-10-18T15:14:31Z</time>
      </trkpt>
      <trkpt lat="45.27741" lon="6.0338">
        <ele>1795.1</ele>
        <time>2014-10-18T15:14:39Z</time>
      </trkpt>
      <trkpt lat="45.27731" lon="6.0338">
        <ele>1795</ele>
        <time>2014-10-18T15:14:46Z</time>
      </trkpt>
      <trkpt lat="45.27721" lon="6.0338">
        <ele>1796</ele>
        <time>2014-10-18T15:14:53Z</time>
      </trkpt>
      <trkpt lat="45.27711" lon="6.03384">
        <ele>1796.6</ele>
        <time>2014-10-18T15:15:03Z</time>
      </trkpt>
      <trkpt lat="45.27702" lon="6.0339">
        <ele>1796.8</ele>
        <time>2014-10-18T15:15:11Z</time>
      </trkpt>
      <trkpt lat="45.27693" lon="6.03394">
        <ele>1797.1</ele>
        <time>2014-10-18T15:15:19Z</time>
      </trkpt>
      <trkpt lat="45.27684" lon="6.03395">
        <ele>1797.2</ele>
        <time>2014-10-18T15:15:33Z</time>
      </trkpt>
      <trkpt lat="45.27675" lon="6.03392">
        <ele>1797.5</ele>
        <time>2014-10-18T15:15:46Z</time>
      </trkpt>
      <trkpt lat="45.27667" lon="6.03386">
        <ele>1798</ele>
        <time>2014-10-18T15:16:05Z</time>
      </trkpt>
      <trkpt lat="45.2766" lon="6.03377">
        <ele>1799.3</ele>
        <time>2014-10-18T15:16:19Z</time>
      </trkpt>
      <trkpt lat="45.27652" lon="6.0337">
        <ele>1800.5</ele>
        <time>2014-10-18T15:16:31Z</time>
      </trkpt>
      <trkpt lat="45.27644" lon="6.03362">
        <ele>1800.5</ele>
        <time>2014-10-18T15:16:40Z</time>
      </trkpt>
      <trkpt lat="45.27637" lon="6.03356">
        <ele>1800.4</ele>
        <time>2014-10-18T15:17:13Z</time>
      </trkpt>
      <trkpt lat="45.27627" lon="6.03357">
        <ele>1800.7</ele>
        <time>2014-10-18T15:17:23Z</time>
      </trkpt>
      <trkpt lat="45.27618" lon="6.03358">
        <ele>1802</ele>
        <time>2014-10-18T15:17:34Z</time>
      </trkpt>
      <trkpt lat="45.27609" lon="6.03357">
        <ele>1802.9</ele>
        <time>2014-10-18T15:17:43Z</time>
      </trkpt>
      <trkpt lat="45.276" lon="6.03356">
        <ele>1803.9</ele>
        <time>2014-10-18T15:17:51Z</time>
      </trkpt>
      <trkpt lat="45.27591" lon="6.03362">
        <ele>1804</ele>
        <time>2014-10-18T15:18:02Z</time>
      </trkpt>
      <trkpt lat="45.27583" lon="6.03369">
        <ele>1804.4</ele>
        <time>2014-10-18T15:18:16Z</time>
      </trkpt>
      <trkpt lat="45.27575" lon="6.03373">
        <ele>1804.9</ele>
        <time>2014-10-18T15:18:26Z</time>
      </trkpt>
      <trkpt lat="45.27569" lon="6.03363">
        <ele>1805.5</ele>
        <time>2014-10-18T15:19:25Z</time>
      </trkpt>
      <trkpt lat="45.27559" lon="6.0336">
        <ele>1807</ele>
        <time>2014-10-18T15:19:35Z</time>
      </trkpt>
      <trkpt lat="45.2755" lon="6.03354">
        <ele>1806.8</ele>
        <time>2014-10-18T15:19:43Z</time>
      </trkpt>
      <trkpt lat="45.27543" lon="6.03345">
        <ele>1806.6</ele>
        <time>2014-10-18T15:19:49Z</time>
      </trkpt>
      <trkpt lat="45.27538" lon="6.03335">
        <ele>1807.6</ele>
        <time>2014-10-18T15:19:56Z</time>
      </trkpt>
      <trkpt lat="45.2753" lon="6.03326">
        <ele>1808.7</ele>
        <time>2014-10-18T15:20:05Z</time>
      </trkpt>
      <trkpt lat="45.27521" lon="6.03321">
        <ele>1809.6</ele>
        <time>2014-10-18T15:20:14Z</time>
      </trkpt>
      <trkpt lat="45.27513" lon="6.03316">
        <ele>1811.4</ele>
        <time>2014-10-18T15:20:23Z</time>
      </trkpt>
      <trkpt lat="45.27505" lon="6.0331">
        <ele>1811.9</ele>
        <time>2014-10-18T15:20:31Z</time>
      </trkpt>
      <trkpt lat="45.27496" lon="6.03301">
        <ele>1812.9</ele>
        <time>2014-10-18T15:20:39Z</time>
      </trkpt>
      <trkpt lat="45.27488" lon="6.03297">
        <ele>1813.8</ele>
        <time>2014-10-18T15:20:47Z</time>
      </trkpt>
      <trkpt lat="45.27479" lon="6.03292">
        <ele>1814.8</ele>
        <time>2014-10-18T15:20:55Z</time>
      </trkpt>
      <trkpt lat="45.2747" lon="6.03284">
        <ele>1815</ele>
        <time>2014-10-18T15:21:04Z</time>
      </trkpt>
      <trkpt lat="45.27462" lon="6.03277">
        <ele>1815.2</ele>
        <time>2014-10-18T15:21:11Z</time>
      </trkpt>
      <trkpt lat="45.27455" lon="6.03269">
        <ele>1815</ele>
        <time>2014-10-18T15:21:19Z</time>
      </trkpt>
      <trkpt lat="45.27448" lon="6.0326">
        <ele>1814.8</ele>
        <time>2014-10-18T15:21:26Z</time>
      </trkpt>
      <trkpt lat="45.2744" lon="6.0325">
        <ele>1813.6</ele>
        <time>2014-10-18T15:21:30Z</time>
      </trkpt>
      <trkpt lat="45.27432" lon="6.03242">
        <ele>1813.4</ele>
        <time>2014-10-18T15:21:35Z</time>
      </trkpt>
      <trkpt lat="45.27424" lon="6.03234">
        <ele>1813.1</ele>
        <time>2014-10-18T15:21:46Z</time>
      </trkpt>
      <trkpt lat="45.27414" lon="6.03229">
        <ele>1812.7</ele>
        <time>2014-10-18T15:21:54Z</time>
      </trkpt>
      <trkpt lat="45.27407" lon="6.03219">
        <ele>1812.5</ele>
        <time>2014-10-18T15:22:01Z</time>
      </trkpt>
      <trkpt lat="45.27398" lon="6.03213">
        <ele>1812</ele>
        <time>2014-10-18T15:22:08Z</time>
      </trkpt>
      <trkpt lat="45.27389" lon="6.03206">
        <ele>1811.9</ele>
        <time>2014-10-18T15:22:15Z</time>
      </trkpt>
      <trkpt lat="45.27381" lon="6.032">
        <ele>1811.6</ele>
        <time>2014-10-18T15:22:22Z</time>
      </trkpt>
      <trkpt lat="45.27374" lon="6.0319">
        <ele>1811.7</ele>
        <time>2014-10-18T15:22:30Z</time>
      </trkpt>
      <trkpt lat="45.27368" lon="6.03181">
        <ele>1812.5</ele>
        <time>2014-10-18T15:22:46Z</time>
      </trkpt>
      <trkpt lat="45.2736" lon="6.03174">
        <ele>1811.9</ele>
        <time>2014-10-18T15:22:56Z</time>
      </trkpt>
      <trkpt lat="45.27353" lon="6.03164">
        <ele>1811.4</ele>
        <time>2014-10-18T15:23:08Z</time>
      </trkpt>
      <trkpt lat="45.27347" lon="6.03155">
        <ele>1812.1</ele>
        <time>2014-10-18T15:23:26Z</time>
      </trkpt>
      <trkpt lat="45.27342" lon="6.03143">
        <ele>1813.2</ele>
        <time>2014-10-18T15:23:37Z</time>
      </trkpt>
      <trkpt lat="45.27335" lon="6.03135">
        <ele>1814.5</ele>
        <time>2014-10-18T15:23:48Z</time>
      </trkpt>
      <trkpt lat="45.27329" lon="6.03125">
        <ele>1814.8</ele>
        <time>2014-10-18T15:23:56Z</time>
      </trkpt>
      <trkpt lat="45.27321" lon="6.03118">
        <ele>1815.1</ele>
        <time>2014-10-18T15:24:14Z</time>
      </trkpt>
      <trkpt lat="45.27314" lon="6.03108">
        <ele>1815.6</ele>
        <time>2014-10-18T15:24:22Z</time>
      </trkpt>
      <trkpt lat="45.27306" lon="6.03101">
        <ele>1816</ele>
        <time>2014-10-18T15:24:31Z</time>
      </trkpt>
      <trkpt lat="45.27299" lon="6.03091">
        <ele>1815.4</ele>
        <time>2014-10-18T15:24:41Z</time>
      </trkpt>
      <trkpt lat="45.27292" lon="6.03082">
        <ele>1815.9</ele>
        <time>2014-10-18T15:24:55Z</time>
      </trkpt>
      <trkpt lat="45.27285" lon="6.03073">
        <ele>1816.2</ele>
        <time>2014-10-18T15:25:03Z</time>
      </trkpt>
      <trkpt lat="45.2728" lon="6.03062">
        <ele>1816.6</ele>
        <time>2014-10-18T15:25:12Z</time>
      </trkpt>
      <trkpt lat="45.27275" lon="6.0305">
        <ele>1817.5</ele>
        <time>2014-10-18T15:25:21Z</time>
      </trkpt>
      <trkpt lat="45.2727" lon="6.03039">
        <ele>1819.4</ele>
        <time>2014-10-18T15:25:33Z</time>
      </trkpt>
      <trkpt lat="45.27269" lon="6.03027">
        <ele>1820.3</ele>
        <time>2014-10-18T15:26:12Z</time>
      </trkpt>
      <trkpt lat="45.27272" lon="6.03015">
        <ele>1819.6</ele>
        <time>2014-10-18T15:26:22Z</time>
      </trkpt>
      <trkpt lat="45.2727" lon="6.03028">
        <ele>1820.8</ele>
        <time>2014-10-18T15:27:30Z</time>
      </trkpt>
      <trkpt lat="45.27263" lon="6.03037">
        <ele>1821.5</ele>
        <time>2014-10-18T15:27:41Z</time>
      </trkpt>
      <trkpt lat="45.27258" lon="6.03049">
        <ele>1822.4</ele>
        <time>2014-10-18T15:28:47Z</time>
      </trkpt>
      <trkpt lat="45.27254" lon="6.03061">
        <ele>1823.3</ele>
        <time>2014-10-18T15:28:54Z</time>
      </trkpt>
      <trkpt lat="45.27251" lon="6.03045">
        <ele>1822.3</ele>
        <time>2014-10-18T15:29:02Z</time>
      </trkpt>
      <trkpt lat="45.27246" lon="6.03032">
        <ele>1820.7</ele>
        <time>2014-10-18T15:29:05Z</time>
      </trkpt>
      <trkpt lat="45.2724" lon="6.0302">
        <ele>1819.2</ele>
        <time>2014-10-18T15:29:08Z</time>
      </trkpt>
      <trkpt lat="45.27235" lon="6.03009">
        <ele>1817.8</ele>
        <time>2014-10-18T15:29:12Z</time>
      </trkpt>
      <trkpt lat="45.27229" lon="6.02999">
        <ele>1815.7</ele>
        <time>2014-10-18T15:29:16Z</time>
      </trkpt>
      <trkpt lat="45.27222" lon="6.02986">
        <ele>1813.7</ele>
        <time>2014-10-18T15:29:20Z</time>
      </trkpt>
      <trkpt lat="45.27214" lon="6.02972">
        <ele>1811.1</ele>
        <time>2014-10-18T15:29:23Z</time>
      </trkpt>
      <trkpt lat="45.27208" lon="6.02962">
        <ele>1808.3</ele>
        <time>2014-10-18T15:29:26Z</time>
      </trkpt>
      <trkpt lat="45.27201" lon="6.02951">
        <ele>1803.8</ele>
        <time>2014-10-18T15:29:32Z</time>
      </trkpt>
      <trkpt lat="45.27192" lon="6.02944">
        <ele>1801.8</ele>
        <time>2014-10-18T15:29:37Z</time>
      </trkpt>
      <trkpt lat="45.27184" lon="6.02941">
        <ele>1799.8</ele>
        <time>2014-10-18T15:29:40Z</time>
      </trkpt>
      <trkpt lat="45.27173" lon="6.02941">
        <ele>1799.1</ele>
        <time>2014-10-18T15:29:43Z</time>
      </trkpt>
      <trkpt lat="45.27163" lon="6.02942">
        <ele>1797.5</ele>
        <time>2014-10-18T15:29:46Z</time>
      </trkpt>
      <trkpt lat="45.27152" lon="6.02945">
        <ele>1795.8</ele>
        <time>2014-10-18T15:29:55Z</time>
      </trkpt>
      <trkpt lat="45.27145" lon="6.02952">
        <ele>1794.8</ele>
        <time>2014-10-18T15:29:58Z</time>
      </trkpt>
      <trkpt lat="45.27136" lon="6.02958">
        <ele>1793.8</ele>
        <time>2014-10-18T15:30:02Z</time>
      </trkpt>
      <trkpt lat="45.27126" lon="6.0296">
        <ele>1792.2</ele>
        <time>2014-10-18T15:30:24Z</time>
      </trkpt>
      <trkpt lat="45.27116" lon="6.02961">
        <ele>1792.2</ele>
        <time>2014-10-18T15:30:32Z</time>
      </trkpt>
      <trkpt lat="45.27107" lon="6.02961">
        <ele>1792.3</ele>
        <time>2014-10-18T15:30:45Z</time>
      </trkpt>
      <trkpt lat="45.27097" lon="6.02959">
        <ele>1792.7</ele>
        <time>2014-10-18T15:30:56Z</time>
      </trkpt>
      <trkpt lat="45.27089" lon="6.02954">
        <ele>1793.4</ele>
        <time>2014-10-18T15:31:03Z</time>
      </trkpt>
      <trkpt lat="45.2708" lon="6.0295">
        <ele>1794.5</ele>
        <time>2014-10-18T15:31:11Z</time>
      </trkpt>
      <trkpt lat="45.27071" lon="6.02947">
        <ele>1794.8</ele>
        <time>2014-10-18T15:31:20Z</time>
      </trkpt>
      <trkpt lat="45.27063" lon="6.02938">
        <ele>1794.2</ele>
        <time>2014-10-18T15:31:25Z</time>
      </trkpt>
      <trkpt lat="45.27054" lon="6.02927">
        <ele>1793.4</ele>
        <time>2014-10-18T15:31:29Z</time>
      </trkpt>
      <trkpt lat="45.27046" lon="6.02917">
        <ele>1793</ele>
        <time>2014-10-18T15:31:32Z</time>
      </trkpt>
      <trkpt lat="45.27036" lon="6.02907">
        <ele>1792.3</ele>
        <time>2014-10-18T15:31:35Z</time>
      </trkpt>
      <trkpt lat="45.27027" lon="6.02901">
        <ele>1792</ele>
        <time>2014-10-18T15:31:38Z</time>
      </trkpt>
      <trkpt lat="45.27017" lon="6.02899">
        <ele>1791.6</ele>
        <time>2014-10-18T15:31:41Z</time>
      </trkpt>
      <trkpt lat="45.27007" lon="6.02896">
        <ele>1791</ele>
        <time>2014-10-18T15:31:45Z</time>
      </trkpt>
      <trkpt lat="45.26997" lon="6.02897">
        <ele>1789.6</ele>
        <time>2014-10-18T15:31:50Z</time>
      </trkpt>
      <trkpt lat="45.26988" lon="6.02898">
        <ele>1789.2</ele>
        <time>2014-10-18T15:31:55Z</time>
      </trkpt>
      <trkpt lat="45.26976" lon="6.02895">
        <ele>1788.4</ele>
        <time>2014-10-18T15:31:58Z</time>
      </trkpt>
      <trkpt lat="45.26966" lon="6.02894">
        <ele>1786.8</ele>
        <time>2014-10-18T15:32:00Z</time>
      </trkpt>
      <trkpt lat="45.26955" lon="6.02895">
        <ele>1786.3</ele>
        <time>2014-10-18T15:32:02Z</time>
      </trkpt>
      <trkpt lat="45.26944" lon="6.02896">
        <ele>1785</ele>
        <time>2014-10-18T15:32:04Z</time>
      </trkpt>
      <trkpt lat="45.26932" lon="6.02898">
        <ele>1783.4</ele>
        <time>2014-10-18T15:32:07Z</time>
      </trkpt>
      <trkpt lat="45.26922" lon="6.02901">
        <ele>1781.8</ele>
        <time>2014-10-18T15:32:12Z</time>
      </trkpt>
      <trkpt lat="45.26912" lon="6.02908">
        <ele>1781.4</ele>
        <time>2014-10-18T15:32:17Z</time>
      </trkpt>
      <trkpt lat="45.26902" lon="6.02914">
        <ele>1781</ele>
        <time>2014-10-18T15:32:22Z</time>
      </trkpt>
      <trkpt lat="45.26893" lon="6.02922">
        <ele>1781.2</ele>
        <time>2014-10-18T15:32:27Z</time>
      </trkpt>
      <trkpt lat="45.26885" lon="6.02931">
        <ele>1782.6</ele>
        <time>2014-10-18T15:32:32Z</time>
      </trkpt>
      <trkpt lat="45.26876" lon="6.02933">
        <ele>1784</ele>
        <time>2014-10-18T15:32:38Z</time>
      </trkpt>
      <trkpt lat="45.26865" lon="6.02934">
        <ele>1785.9</ele>
        <time>2014-10-18T15:32:45Z</time>
      </trkpt>
      <trkpt lat="45.26856" lon="6.02935">
        <ele>1788</ele>
        <time>2014-10-18T15:32:59Z</time>
      </trkpt>
      <trkpt lat="45.26847" lon="6.02936">
        <ele>1788.9</ele>
        <time>2014-10-18T15:33:13Z</time>
      </trkpt>
      <trkpt lat="45.26838" lon="6.02935">
        <ele>1790</ele>
        <time>2014-10-18T15:33:27Z</time>
      </trkpt>
      <trkpt lat="45.26828" lon="6.02934">
        <ele>1790.9</ele>
        <time>2014-10-18T15:33:36Z</time>
      </trkpt>
      <trkpt lat="45.26818" lon="6.02933">
        <ele>1792.3</ele>
        <time>2014-10-18T15:33:45Z</time>
      </trkpt>
      <trkpt lat="45.26808" lon="6.02933">
        <ele>1793.3</ele>
        <time>2014-10-18T15:33:53Z</time>
      </trkpt>
      <trkpt lat="45.26798" lon="6.02925">
        <ele>1792.9</ele>
        <time>2014-10-18T15:34:01Z</time>
      </trkpt>
      <trkpt lat="45.26792" lon="6.02915">
        <ele>1792</ele>
        <time>2014-10-18T15:34:04Z</time>
      </trkpt>
      <trkpt lat="45.26785" lon="6.02904">
        <ele>1790.4</ele>
        <time>2014-10-18T15:34:07Z</time>
      </trkpt>
      <trkpt lat="45.2678" lon="6.02894">
        <ele>1787.5</ele>
        <time>2014-10-18T15:34:13Z</time>
      </trkpt>
      <trkpt lat="45.26774" lon="6.02882">
        <ele>1785.8</ele>
        <time>2014-10-18T15:34:26Z</time>
      </trkpt>
      <trkpt lat="45.26769" lon="6.0287">
        <ele>1785</ele>
        <time>2014-10-18T15:34:30Z</time>
      </trkpt>
      <trkpt lat="45.26764" lon="6.02858">
        <ele>1784.6</ele>
        <time>2014-10-18T15:34:33Z</time>
      </trkpt>
      <trkpt lat="45.26758" lon="6.02848">
        <ele>1782.2</ele>
        <time>2014-10-18T15:34:37Z</time>
      </trkpt>
      <trkpt lat="45.2675" lon="6.02839">
        <ele>1781.1</ele>
        <time>2014-10-18T15:34:57Z</time>
      </trkpt>
      <trkpt lat="45.26744" lon="6.0283">
        <ele>1781.4</ele>
        <time>2014-10-18T15:35:03Z</time>
      </trkpt>
      <trkpt lat="45.26737" lon="6.02822">
        <ele>1782.4</ele>
        <time>2014-10-18T15:35:10Z</time>
      </trkpt>
      <trkpt lat="45.26729" lon="6.02813">
        <ele>1783</ele>
        <time>2014-10-18T15:35:19Z</time>
      </trkpt>
      <trkpt lat="45.26722" lon="6.02803">
        <ele>1782.7</ele>
        <time>2014-10-18T15:35:25Z</time>
      </trkpt>
      <trkpt lat="45.26716" lon="6.02793">
        <ele>1782.8</ele>
        <time>2014-10-18T15:35:29Z</time>
      </trkpt>
      <trkpt lat="45.26711" lon="6.02782">
        <ele>1782.9</ele>
        <time>2014-10-18T15:35:32Z</time>
      </trkpt>
      <trkpt lat="45.26706" lon="6.0277">
        <ele>1782.7</ele>
        <time>2014-10-18T15:35:35Z</time>
      </trkpt>
      <trkpt lat="45.26701" lon="6.02758">
        <ele>1782.8</ele>
        <time>2014-10-18T15:35:38Z</time>
      </trkpt>
      <trkpt lat="45.26696" lon="6.02743">
        <ele>1783.1</ele>
        <time>2014-10-18T15:35:42Z</time>
      </trkpt>
      <trkpt lat="45.2669" lon="6.0273">
        <ele>1783</ele>
        <time>2014-10-18T15:35:46Z</time>
      </trkpt>
      <trkpt lat="45.26686" lon="6.02717">
        <ele>1783.7</ele>
        <time>2014-10-18T15:35:50Z</time>
      </trkpt>
      <trkpt lat="45.26681" lon="6.02704">
        <ele>1783.7</ele>
        <time>2014-10-18T15:35:54Z</time>
      </trkpt>
      <trkpt lat="45.26676" lon="6.02689">
        <ele>1783</ele>
        <time>2014-10-18T15:35:58Z</time>
      </trkpt>
      <trkpt lat="45.26675" lon="6.02675">
        <ele>1782.5</ele>
        <time>2014-10-18T15:36:01Z</time>
      </trkpt>
      <trkpt lat="45.26673" lon="6.02662">
        <ele>1782</ele>
        <time>2014-10-18T15:36:06Z</time>
      </trkpt>
      <trkpt lat="45.26669" lon="6.02649">
        <ele>1782.5</ele>
        <time>2014-10-18T15:36:26Z</time>
      </trkpt>
      <trkpt lat="45.26665" lon="6.02636">
        <ele>1781.9</ele>
        <time>2014-10-18T15:36:31Z</time>
      </trkpt>
      <trkpt lat="45.26657" lon="6.02626">
        <ele>1781.2</ele>
        <time>2014-10-18T15:37:25Z</time>
      </trkpt>
      <trkpt lat="45.26646" lon="6.02622">
        <ele>1780.1</ele>
        <time>2014-10-18T15:37:28Z</time>
      </trkpt>
      <trkpt lat="45.26632" lon="6.0262">
        <ele>1778.5</ele>
        <time>2014-10-18T15:37:31Z</time>
      </trkpt>
      <trkpt lat="45.26622" lon="6.02623">
        <ele>1777.5</ele>
        <time>2014-10-18T15:37:33Z</time>
      </trkpt>
      <trkpt lat="45.2661" lon="6.02627">
        <ele>1776.1</ele>
        <time>2014-10-18T15:37:35Z</time>
      </trkpt>
      <trkpt lat="45.26599" lon="6.02636">
        <ele>1775.3</ele>
        <time>2014-10-18T15:37:37Z</time>
      </trkpt>
      <trkpt lat="45.26588" lon="6.02647">
        <ele>1774.5</ele>
        <time>2014-10-18T15:37:39Z</time>
      </trkpt>
      <trkpt lat="45.26577" lon="6.02657">
        <ele>1773.6</ele>
        <time>2014-10-18T15:37:41Z</time>
      </trkpt>
      <trkpt lat="45.26565" lon="6.02667">
        <ele>1772.1</ele>
        <time>2014-10-18T15:37:43Z</time>
      </trkpt>
      <trkpt lat="45.26554" lon="6.02675">
        <ele>1769.8</ele>
        <time>2014-10-18T15:37:45Z</time>
      </trkpt>
      <trkpt lat="45.26541" lon="6.02683">
        <ele>1768.6</ele>
        <time>2014-10-18T15:37:47Z</time>
      </trkpt>
      <trkpt lat="45.26528" lon="6.02694">
        <ele>1766.9</ele>
        <time>2014-10-18T15:37:49Z</time>
      </trkpt>
      <trkpt lat="45.26514" lon="6.02706">
        <ele>1765.1</ele>
        <time>2014-10-18T15:37:51Z</time>
      </trkpt>
      <trkpt lat="45.26502" lon="6.02717">
        <ele>1763</ele>
        <time>2014-10-18T15:37:53Z</time>
      </trkpt>
      <trkpt lat="45.26489" lon="6.02725">
        <ele>1761.7</ele>
        <time>2014-10-18T15:37:55Z</time>
      </trkpt>
      <trkpt lat="45.26478" lon="6.02728">
        <ele>1760.4</ele>
        <time>2014-10-18T15:37:57Z</time>
      </trkpt>
      <trkpt lat="45.26467" lon="6.02729">
        <ele>1759.5</ele>
        <time>2014-10-18T15:37:59Z</time>
      </trkpt>
      <trkpt lat="45.26456" lon="6.0273">
        <ele>1758.5</ele>
        <time>2014-10-18T15:38:01Z</time>
      </trkpt>
      <trkpt lat="45.26444" lon="6.0273">
        <ele>1758.1</ele>
        <time>2014-10-18T15:38:03Z</time>
      </trkpt>
      <trkpt lat="45.26432" lon="6.02729">
        <ele>1757.5</ele>
        <time>2014-10-18T15:38:05Z</time>
      </trkpt>
      <trkpt lat="45.26419" lon="6.02726">
        <ele>1756.8</ele>
        <time>2014-10-18T15:38:07Z</time>
      </trkpt>
      <trkpt lat="45.26408" lon="6.02721">
        <ele>1756</ele>
        <time>2014-10-18T15:38:09Z</time>
      </trkpt>
      <trkpt lat="45.26398" lon="6.02713">
        <ele>1754.9</ele>
        <time>2014-10-18T15:38:11Z</time>
      </trkpt>
      <trkpt lat="45.26389" lon="6.02705">
        <ele>1754</ele>
        <time>2014-10-18T15:38:13Z</time>
      </trkpt>
      <trkpt lat="45.2638" lon="6.02692">
        <ele>1753.5</ele>
        <time>2014-10-18T15:38:15Z</time>
      </trkpt>
      <trkpt lat="45.26374" lon="6.02675">
        <ele>1752.3</ele>
        <time>2014-10-18T15:38:17Z</time>
      </trkpt>
      <trkpt lat="45.2637" lon="6.02654">
        <ele>1751.1</ele>
        <time>2014-10-18T15:38:19Z</time>
      </trkpt>
      <trkpt lat="45.26364" lon="6.02634">
        <ele>1750.4</ele>
        <time>2014-10-18T15:38:21Z</time>
      </trkpt>
      <trkpt lat="45.26356" lon="6.02619">
        <ele>1749.2</ele>
        <time>2014-10-18T15:38:23Z</time>
      </trkpt>
      <trkpt lat="45.26347" lon="6.02603">
        <ele>1748.6</ele>
        <time>2014-10-18T15:38:25Z</time>
      </trkpt>
      <trkpt lat="45.26337" lon="6.02588">
        <ele>1747.4</ele>
        <time>2014-10-18T15:38:27Z</time>
      </trkpt>
      <trkpt lat="45.26327" lon="6.02578">
        <ele>1746.8</ele>
        <time>2014-10-18T15:38:29Z</time>
      </trkpt>
      <trkpt lat="45.26318" lon="6.02573">
        <ele>1745.7</ele>
        <time>2014-10-18T15:38:31Z</time>
      </trkpt>
      <trkpt lat="45.26306" lon="6.02568">
        <ele>1745</ele>
        <time>2014-10-18T15:38:34Z</time>
      </trkpt>
      <trkpt lat="45.26299" lon="6.0256">
        <ele>1744.4</ele>
        <time>2014-10-18T15:38:36Z</time>
      </trkpt>
      <trkpt lat="45.2629" lon="6.02547">
        <ele>1743.2</ele>
        <time>2014-10-18T15:38:39Z</time>
      </trkpt>
      <trkpt lat="45.26283" lon="6.02537">
        <ele>1741.8</ele>
        <time>2014-10-18T15:38:42Z</time>
      </trkpt>
      <trkpt lat="45.26273" lon="6.02526">
        <ele>1740</ele>
        <time>2014-10-18T15:38:54Z</time>
      </trkpt>
      <trkpt lat="45.26264" lon="6.02514">
        <ele>1738.5</ele>
        <time>2014-10-18T15:38:57Z</time>
      </trkpt>
      <trkpt lat="45.26255" lon="6.02503">
        <ele>1738.2</ele>
        <time>2014-10-18T15:38:59Z</time>
      </trkpt>
      <trkpt lat="45.26248" lon="6.02489">
        <ele>1737.1</ele>
        <time>2014-10-18T15:39:01Z</time>
      </trkpt>
      <trkpt lat="45.26241" lon="6.02476">
        <ele>1735.8</ele>
        <time>2014-10-18T15:39:03Z</time>
      </trkpt>
      <trkpt lat="45.26235" lon="6.0246">
        <ele>1734.6</ele>
        <time>2014-10-18T15:39:05Z</time>
      </trkpt>
      <trkpt lat="45.2623" lon="6.02444">
        <ele>1733</ele>
        <time>2014-10-18T15:39:07Z</time>
      </trkpt>
      <trkpt lat="45.26225" lon="6.02429">
        <ele>1731.3</ele>
        <time>2014-10-18T15:39:09Z</time>
      </trkpt>
      <trkpt lat="45.2622" lon="6.02415">
        <ele>1730</ele>
        <time>2014-10-18T15:39:11Z</time>
      </trkpt>
      <trkpt lat="45.26215" lon="6.02401">
        <ele>1728.5</ele>
        <time>2014-10-18T15:39:13Z</time>
      </trkpt>
      <trkpt lat="45.26211" lon="6.02386">
        <ele>1727.2</ele>
        <time>2014-10-18T15:39:15Z</time>
      </trkpt>
      <trkpt lat="45.26208" lon="6.02369">
        <ele>1726</ele>
        <time>2014-10-18T15:39:17Z</time>
      </trkpt>
      <trkpt lat="45.26206" lon="6.02352">
        <ele>1725.4</ele>
        <time>2014-10-18T15:39:19Z</time>
      </trkpt>
      <trkpt lat="45.26202" lon="6.02333">
        <ele>1723.6</ele>
        <time>2014-10-18T15:39:21Z</time>
      </trkpt>
      <trkpt lat="45.26196" lon="6.02313">
        <ele>1722.1</ele>
        <time>2014-10-18T15:39:23Z</time>
      </trkpt>
      <trkpt lat="45.2619" lon="6.02293">
        <ele>1720.2</ele>
        <time>2014-10-18T15:39:25Z</time>
      </trkpt>
      <trkpt lat="45.26182" lon="6.02273">
        <ele>1718.7</ele>
        <time>2014-10-18T15:39:27Z</time>
      </trkpt>
      <trkpt lat="45.26174" lon="6.02253">
        <ele>1716.7</ele>
        <time>2014-10-18T15:39:29Z</time>
      </trkpt>
      <trkpt lat="45.26168" lon="6.02236">
        <ele>1715.3</ele>
        <time>2014-10-18T15:39:31Z</time>
      </trkpt>
      <trkpt lat="45.26162" lon="6.02217">
        <ele>1713.6</ele>
        <time>2014-10-18T15:39:33Z</time>
      </trkpt>
      <trkpt lat="45.26157" lon="6.02196">
        <ele>1711.7</ele>
        <time>2014-10-18T15:39:35Z</time>
      </trkpt>
      <trkpt lat="45.26154" lon="6.02178">
        <ele>1710.7</ele>
        <time>2014-10-18T15:39:37Z</time>
      </trkpt>
      <trkpt lat="45.2615" lon="6.02162">
        <ele>1709.5</ele>
        <time>2014-10-18T15:39:39Z</time>
      </trkpt>
      <trkpt lat="45.26148" lon="6.02142">
        <ele>1708.1</ele>
        <time>2014-10-18T15:39:41Z</time>
      </trkpt>
      <trkpt lat="45.26146" lon="6.0212">
        <ele>1706.6</ele>
        <time>2014-10-18T15:39:43Z</time>
      </trkpt>
      <trkpt lat="45.26144" lon="6.02097">
        <ele>1705.3</ele>
        <time>2014-10-18T15:39:45Z</time>
      </trkpt>
      <trkpt lat="45.26138" lon="6.02077">
        <ele>1704.1</ele>
        <time>2014-10-18T15:39:47Z</time>
      </trkpt>
      <trkpt lat="45.26129" lon="6.02058">
        <ele>1702.2</ele>
        <time>2014-10-18T15:39:49Z</time>
      </trkpt>
      <trkpt lat="45.26119" lon="6.02041">
        <ele>1700.9</ele>
        <time>2014-10-18T15:39:51Z</time>
      </trkpt>
      <trkpt lat="45.26109" lon="6.02026">
        <ele>1699.6</ele>
        <time>2014-10-18T15:39:53Z</time>
      </trkpt>
      <trkpt lat="45.26101" lon="6.02014">
        <ele>1699.2</ele>
        <time>2014-10-18T15:39:55Z</time>
      </trkpt>
      <trkpt lat="45.26093" lon="6.02">
        <ele>1697.4</ele>
        <time>2014-10-18T15:39:57Z</time>
      </trkpt>
      <trkpt lat="45.26083" lon="6.01988">
        <ele>1696.1</ele>
        <time>2014-10-18T15:39:59Z</time>
      </trkpt>
      <trkpt lat="45.26073" lon="6.0198">
        <ele>1694.5</ele>
        <time>2014-10-18T15:40:01Z</time>
      </trkpt>
      <trkpt lat="45.26064" lon="6.01971">
        <ele>1693</ele>
        <time>2014-10-18T15:40:03Z</time>
      </trkpt>
      <trkpt lat="45.26058" lon="6.01961">
        <ele>1691.6</ele>
        <time>2014-10-18T15:40:05Z</time>
      </trkpt>
      <trkpt lat="45.26054" lon="6.01944">
        <ele>1689.1</ele>
        <time>2014-10-18T15:40:08Z</time>
      </trkpt>
      <trkpt lat="45.26051" lon="6.01929">
        <ele>1687.3</ele>
        <time>2014-10-18T15:40:11Z</time>
      </trkpt>
      <trkpt lat="45.26049" lon="6.01909">
        <ele>1685.8</ele>
        <time>2014-10-18T15:40:14Z</time>
      </trkpt>
      <trkpt lat="45.26047" lon="6.01893">
        <ele>1684.6</ele>
        <time>2014-10-18T15:40:16Z</time>
      </trkpt>
      <trkpt lat="45.26043" lon="6.01876">
        <ele>1683.9</ele>
        <time>2014-10-18T15:40:18Z</time>
      </trkpt>
      <trkpt lat="45.26035" lon="6.01859">
        <ele>1682.7</ele>
        <time>2014-10-18T15:40:20Z</time>
      </trkpt>
      <trkpt lat="45.26026" lon="6.01845">
        <ele>1681.8</ele>
        <time>2014-10-18T15:40:22Z</time>
      </trkpt>
      <trkpt lat="45.26019" lon="6.01831">
        <ele>1679.8</ele>
        <time>2014-10-18T15:40:24Z</time>
      </trkpt>
      <trkpt lat="45.26013" lon="6.01812">
        <ele>1678.9</ele>
        <time>2014-10-18T15:40:26Z</time>
      </trkpt>
      <trkpt lat="45.26011" lon="6.01793">
        <ele>1678.3</ele>
        <time>2014-10-18T15:40:28Z</time>
      </trkpt>
      <trkpt lat="45.26008" lon="6.01773">
        <ele>1677.6</ele>
        <time>2014-10-18T15:40:30Z</time>
      </trkpt>
      <trkpt lat="45.26005" lon="6.01753">
        <ele>1676.9</ele>
        <time>2014-10-18T15:40:32Z</time>
      </trkpt>
      <trkpt lat="45.26002" lon="6.01736">
        <ele>1676.1</ele>
        <time>2014-10-18T15:40:34Z</time>
      </trkpt>
      <trkpt lat="45.25998" lon="6.01718">
        <ele>1674.9</ele>
        <time>2014-10-18T15:40:36Z</time>
      </trkpt>
      <trkpt lat="45.25991" lon="6.01701">
        <ele>1675.3</ele>
        <time>2014-10-18T15:40:38Z</time>
      </trkpt>
      <trkpt lat="45.25981" lon="6.01685">
        <ele>1674.3</ele>
        <time>2014-10-18T15:40:40Z</time>
      </trkpt>
      <trkpt lat="45.25969" lon="6.01672">
        <ele>1672.5</ele>
        <time>2014-10-18T15:40:42Z</time>
      </trkpt>
      <trkpt lat="45.25955" lon="6.0166">
        <ele>1672.3</ele>
        <time>2014-10-18T15:40:44Z</time>
      </trkpt>
      <trkpt lat="45.2594" lon="6.01651">
        <ele>1670.4</ele>
        <time>2014-10-18T15:40:46Z</time>
      </trkpt>
      <trkpt lat="45.25925" lon="6.01644">
        <ele>1668.6</ele>
        <time>2014-10-18T15:40:48Z</time>
      </trkpt>
      <trkpt lat="45.25913" lon="6.0164">
        <ele>1666.9</ele>
        <time>2014-10-18T15:40:50Z</time>
      </trkpt>
      <trkpt lat="45.25904" lon="6.01638">
        <ele>1666.1</ele>
        <time>2014-10-18T15:40:52Z</time>
      </trkpt>
      <trkpt lat="45.25895" lon="6.01634">
        <ele>1664.2</ele>
        <time>2014-10-18T15:40:54Z</time>
      </trkpt>
      <trkpt lat="45.25885" lon="6.0163">
        <ele>1662.8</ele>
        <time>2014-10-18T15:40:56Z</time>
      </trkpt>
      <trkpt lat="45.25874" lon="6.01623">
        <ele>1661.8</ele>
        <time>2014-10-18T15:40:58Z</time>
      </trkpt>
      <trkpt lat="45.25861" lon="6.01616">
        <ele>1660.4</ele>
        <time>2014-10-18T15:41:00Z</time>
      </trkpt>
      <trkpt lat="45.2585" lon="6.01608">
        <ele>1659.5</ele>
        <time>2014-10-18T15:41:02Z</time>
      </trkpt>
      <trkpt lat="45.25839" lon="6.016">
        <ele>1657.8</ele>
        <time>2014-10-18T15:41:05Z</time>
      </trkpt>
      <trkpt lat="45.25829" lon="6.01596">
        <ele>1655.9</ele>
        <time>2014-10-18T15:41:22Z</time>
      </trkpt>
      <trkpt lat="45.25817" lon="6.01591">
        <ele>1654.6</ele>
        <time>2014-10-18T15:41:26Z</time>
      </trkpt>
      <trkpt lat="45.25805" lon="6.01586">
        <ele>1654.2</ele>
        <time>2014-10-18T15:41:29Z</time>
      </trkpt>
      <trkpt lat="45.25796" lon="6.01581">
        <ele>1654</ele>
        <time>2014-10-18T15:41:31Z</time>
      </trkpt>
      <trkpt lat="45.25786" lon="6.0158">
        <ele>1653.7</ele>
        <time>2014-10-18T15:41:33Z</time>
      </trkpt>
      <trkpt lat="45.25776" lon="6.01581">
        <ele>1653.2</ele>
        <time>2014-10-18T15:41:35Z</time>
      </trkpt>
      <trkpt lat="45.25766" lon="6.01583">
        <ele>1652.7</ele>
        <time>2014-10-18T15:41:37Z</time>
      </trkpt>
      <trkpt lat="45.25756" lon="6.01588">
        <ele>1652.6</ele>
        <time>2014-10-18T15:41:39Z</time>
      </trkpt>
      <trkpt lat="45.25748" lon="6.01596">
        <ele>1652.4</ele>
        <time>2014-10-18T15:41:41Z</time>
      </trkpt>
      <trkpt lat="45.2574" lon="6.01604">
        <ele>1652.1</ele>
        <time>2014-10-18T15:41:43Z</time>
      </trkpt>
      <trkpt lat="45.25731" lon="6.01611">
        <ele>1651.8</ele>
        <time>2014-10-18T15:41:45Z</time>
      </trkpt>
      <trkpt lat="45.25721" lon="6.01615">
        <ele>1651.3</ele>
        <time>2014-10-18T15:41:47Z</time>
      </trkpt>
      <trkpt lat="45.25709" lon="6.01618">
        <ele>1651</ele>
        <time>2014-10-18T15:41:49Z</time>
      </trkpt>
      <trkpt lat="45.25698" lon="6.01619">
        <ele>1650.6</ele>
        <time>2014-10-18T15:41:51Z</time>
      </trkpt>
      <trkpt lat="45.25686" lon="6.01623">
        <ele>1650</ele>
        <time>2014-10-18T15:41:53Z</time>
      </trkpt>
      <trkpt lat="45.25676" lon="6.0163">
        <ele>1649.4</ele>
        <time>2014-10-18T15:41:55Z</time>
      </trkpt>
      <trkpt lat="45.25668" lon="6.01638">
        <ele>1648.8</ele>
        <time>2014-10-18T15:41:57Z</time>
      </trkpt>
      <trkpt lat="45.25657" lon="6.01647">
        <ele>1648.2</ele>
        <time>2014-10-18T15:41:59Z</time>
      </trkpt>
      <trkpt lat="45.25646" lon="6.01657">
        <ele>1647.5</ele>
        <time>2014-10-18T15:42:01Z</time>
      </trkpt>
      <trkpt lat="45.25632" lon="6.01668">
        <ele>1645.9</ele>
        <time>2014-10-18T15:42:03Z</time>
      </trkpt>
      <trkpt lat="45.25619" lon="6.01677">
        <ele>1644.8</ele>
        <time>2014-10-18T15:42:05Z</time>
      </trkpt>
      <trkpt lat="45.25608" lon="6.01685">
        <ele>1644.4</ele>
        <time>2014-10-18T15:42:07Z</time>
      </trkpt>
      <trkpt lat="45.25599" lon="6.01692">
        <ele>1643.7</ele>
        <time>2014-10-18T15:42:09Z</time>
      </trkpt>
      <trkpt lat="45.2559" lon="6.01699">
        <ele>1642.6</ele>
        <time>2014-10-18T15:42:11Z</time>
      </trkpt>
      <trkpt lat="45.2558" lon="6.01707">
        <ele>1640.9</ele>
        <time>2014-10-18T15:42:14Z</time>
      </trkpt>
      <trkpt lat="45.2557" lon="6.01715">
        <ele>1639.7</ele>
        <time>2014-10-18T15:42:17Z</time>
      </trkpt>
      <trkpt lat="45.25561" lon="6.01724">
        <ele>1639.1</ele>
        <time>2014-10-18T15:42:19Z</time>
      </trkpt>
      <trkpt lat="45.25554" lon="6.01732">
        <ele>1638.6</ele>
        <time>2014-10-18T15:42:21Z</time>
      </trkpt>
      <trkpt lat="45.25545" lon="6.01739">
        <ele>1638.9</ele>
        <time>2014-10-18T15:42:26Z</time>
      </trkpt>
      <trkpt lat="45.25538" lon="6.0175">
        <ele>1639.2</ele>
        <time>2014-10-18T15:42:31Z</time>
      </trkpt>
      <trkpt lat="45.25531" lon="6.0176">
        <ele>1639.4</ele>
        <time>2014-10-18T15:42:36Z</time>
      </trkpt>
      <trkpt lat="45.25524" lon="6.01769">
        <ele>1639</ele>
        <time>2014-10-18T15:42:39Z</time>
      </trkpt>
      <trkpt lat="45.25516" lon="6.01782">
        <ele>1639</ele>
        <time>2014-10-18T15:42:42Z</time>
      </trkpt>
      <trkpt lat="45.25507" lon="6.01797">
        <ele>1638.4</ele>
        <time>2014-10-18T15:42:45Z</time>
      </trkpt>
      <trkpt lat="45.25498" lon="6.01806">
        <ele>1637.7</ele>
        <time>2014-10-18T15:42:47Z</time>
      </trkpt>
      <trkpt lat="45.25486" lon="6.01811">
        <ele>1637</ele>
        <time>2014-10-18T15:42:49Z</time>
      </trkpt>
      <trkpt lat="45.25472" lon="6.01809">
        <ele>1636.2</ele>
        <time>2014-10-18T15:42:51Z</time>
      </trkpt>
      <trkpt lat="45.25458" lon="6.01803">
        <ele>1635</ele>
        <time>2014-10-18T15:42:53Z</time>
      </trkpt>
      <trkpt lat="45.25445" lon="6.01795">
        <ele>1633.7</ele>
        <time>2014-10-18T15:42:55Z</time>
      </trkpt>
      <trkpt lat="45.25434" lon="6.01786">
        <ele>1632.5</ele>
        <time>2014-10-18T15:42:57Z</time>
      </trkpt>
      <trkpt lat="45.25425" lon="6.01774">
        <ele>1630.1</ele>
        <time>2014-10-18T15:42:59Z</time>
      </trkpt>
      <trkpt lat="45.25413" lon="6.0176">
        <ele>1628.6</ele>
        <time>2014-10-18T15:43:01Z</time>
      </trkpt>
      <trkpt lat="45.254" lon="6.01748">
        <ele>1627</ele>
        <time>2014-10-18T15:43:03Z</time>
      </trkpt>
      <trkpt lat="45.25388" lon="6.01737">
        <ele>1625.2</ele>
        <time>2014-10-18T15:43:05Z</time>
      </trkpt>
      <trkpt lat="45.25376" lon="6.01722">
        <ele>1623.3</ele>
        <time>2014-10-18T15:43:07Z</time>
      </trkpt>
      <trkpt lat="45.25367" lon="6.01701">
        <ele>1621</ele>
        <time>2014-10-18T15:43:09Z</time>
      </trkpt>
      <trkpt lat="45.25362" lon="6.01689">
        <ele>1620</ele>
        <time>2014-10-18T15:43:10Z</time>
      </trkpt>
      <trkpt lat="45.25357" lon="6.01677">
        <ele>1619.3</ele>
        <time>2014-10-18T15:43:11Z</time>
      </trkpt>
      <trkpt lat="45.25353" lon="6.01666">
        <ele>1618.7</ele>
        <time>2014-10-18T15:43:12Z</time>
      </trkpt>
      <trkpt lat="45.25344" lon="6.01645">
        <ele>1617.7</ele>
        <time>2014-10-18T15:43:14Z</time>
      </trkpt>
      <trkpt lat="45.25335" lon="6.01625">
        <ele>1617.1</ele>
        <time>2014-10-18T15:43:16Z</time>
      </trkpt>
      <trkpt lat="45.25327" lon="6.01604">
        <ele>1616</ele>
        <time>2014-10-18T15:43:18Z</time>
      </trkpt>
      <trkpt lat="45.25323" lon="6.01582">
        <ele>1614.6</ele>
        <time>2014-10-18T15:43:20Z</time>
      </trkpt>
      <trkpt lat="45.25322" lon="6.01566">
        <ele>1613.5</ele>
        <time>2014-10-18T15:43:22Z</time>
      </trkpt>
      <trkpt lat="45.25319" lon="6.01552">
        <ele>1612.2</ele>
        <time>2014-10-18T15:43:25Z</time>
      </trkpt>
      <trkpt lat="45.25312" lon="6.01537">
        <ele>1610.7</ele>
        <time>2014-10-18T15:43:28Z</time>
      </trkpt>
      <trkpt lat="45.25305" lon="6.01527">
        <ele>1610.2</ele>
        <time>2014-10-18T15:43:30Z</time>
      </trkpt>
      <trkpt lat="45.25299" lon="6.01514">
        <ele>1609.7</ele>
        <time>2014-10-18T15:43:32Z</time>
      </trkpt>
      <trkpt lat="45.25298" lon="6.01499">
        <ele>1608.4</ele>
        <time>2014-10-18T15:43:35Z</time>
      </trkpt>
      <trkpt lat="45.25307" lon="6.01499">
        <ele>1605.6</ele>
        <time>2014-10-18T15:43:50Z</time>
      </trkpt>
      <trkpt lat="45.25313" lon="6.0151">
        <ele>1605.2</ele>
        <time>2014-10-18T15:43:53Z</time>
      </trkpt>
      <trkpt lat="45.2532" lon="6.0152">
        <ele>1604.1</ele>
        <time>2014-10-18T15:43:55Z</time>
      </trkpt>
      <trkpt lat="45.25331" lon="6.01533">
        <ele>1602.6</ele>
        <time>2014-10-18T15:43:57Z</time>
      </trkpt>
      <trkpt lat="45.25345" lon="6.01548">
        <ele>1600.8</ele>
        <time>2014-10-18T15:43:59Z</time>
      </trkpt>
      <trkpt lat="45.25353" lon="6.01556">
        <ele>1599.7</ele>
        <time>2014-10-18T15:44:00Z</time>
      </trkpt>
      <trkpt lat="45.25366" lon="6.01564">
        <ele>1597.7</ele>
        <time>2014-10-18T15:44:02Z</time>
      </trkpt>
      <trkpt lat="45.25378" lon="6.01564">
        <ele>1596.3</ele>
        <time>2014-10-18T15:44:04Z</time>
      </trkpt>
      <trkpt lat="45.2539" lon="6.01564">
        <ele>1594.8</ele>
        <time>2014-10-18T15:44:06Z</time>
      </trkpt>
      <trkpt lat="45.25404" lon="6.01561">
        <ele>1594.2</ele>
        <time>2014-10-18T15:44:08Z</time>
      </trkpt>
      <trkpt lat="45.25417" lon="6.01558">
        <ele>1593.4</ele>
        <time>2014-10-18T15:44:10Z</time>
      </trkpt>
      <trkpt lat="45.25431" lon="6.01555">
        <ele>1592.2</ele>
        <time>2014-10-18T15:44:12Z</time>
      </trkpt>
      <trkpt lat="45.2544" lon="6.0155">
        <ele>1591.4</ele>
        <time>2014-10-18T15:44:14Z</time>
      </trkpt>
      <trkpt lat="45.25442" lon="6.01533">
        <ele>1590</ele>
        <time>2014-10-18T15:44:17Z</time>
      </trkpt>
      <trkpt lat="45.25438" lon="6.01521">
        <ele>1589.5</ele>
        <time>2014-10-18T15:44:19Z</time>
      </trkpt>
      <trkpt lat="45.2543" lon="6.01511">
        <ele>1588.4</ele>
        <time>2014-10-18T15:44:21Z</time>
      </trkpt>
      <trkpt lat="45.25419" lon="6.01502">
        <ele>1586.3</ele>
        <time>2014-10-18T15:44:23Z</time>
      </trkpt>
      <trkpt lat="45.25408" lon="6.01492">
        <ele>1584.2</ele>
        <time>2014-10-18T15:44:25Z</time>
      </trkpt>
      <trkpt lat="45.254" lon="6.01481">
        <ele>1581.3</ele>
        <time>2014-10-18T15:44:27Z</time>
      </trkpt>
      <trkpt lat="45.25392" lon="6.01471">
        <ele>1579.4</ele>
        <time>2014-10-18T15:44:29Z</time>
      </trkpt>
      <trkpt lat="45.25383" lon="6.01461">
        <ele>1577</ele>
        <time>2014-10-18T15:44:31Z</time>
      </trkpt>
      <trkpt lat="45.25374" lon="6.01451">
        <ele>1574.9</ele>
        <time>2014-10-18T15:44:34Z</time>
      </trkpt>
      <trkpt lat="45.25366" lon="6.01435">
        <ele>1572.9</ele>
        <time>2014-10-18T15:44:37Z</time>
      </trkpt>
      <trkpt lat="45.25361" lon="6.01419">
        <ele>1570.9</ele>
        <time>2014-10-18T15:44:39Z</time>
      </trkpt>
      <trkpt lat="45.25355" lon="6.01402">
        <ele>1569.6</ele>
        <time>2014-10-18T15:44:41Z</time>
      </trkpt>
      <trkpt lat="45.25348" lon="6.01383">
        <ele>1569.3</ele>
        <time>2014-10-18T15:44:43Z</time>
      </trkpt>
      <trkpt lat="45.25337" lon="6.01365">
        <ele>1567.7</ele>
        <time>2014-10-18T15:44:45Z</time>
      </trkpt>
      <trkpt lat="45.25325" lon="6.0135">
        <ele>1566.2</ele>
        <time>2014-10-18T15:44:47Z</time>
      </trkpt>
      <trkpt lat="45.25311" lon="6.01336">
        <ele>1563.6</ele>
        <time>2014-10-18T15:44:49Z</time>
      </trkpt>
      <trkpt lat="45.25304" lon="6.01328">
        <ele>1563.1</ele>
        <time>2014-10-18T15:44:50Z</time>
      </trkpt>
      <trkpt lat="45.2529" lon="6.01314">
        <ele>1561.3</ele>
        <time>2014-10-18T15:44:52Z</time>
      </trkpt>
      <trkpt lat="45.25276" lon="6.01299">
        <ele>1559.3</ele>
        <time>2014-10-18T15:44:54Z</time>
      </trkpt>
      <trkpt lat="45.25269" lon="6.01291">
        <ele>1558.3</ele>
        <time>2014-10-18T15:44:55Z</time>
      </trkpt>
      <trkpt lat="45.25254" lon="6.01276">
        <ele>1556.7</ele>
        <time>2014-10-18T15:44:57Z</time>
      </trkpt>
      <trkpt lat="45.25246" lon="6.01268">
        <ele>1555.5</ele>
        <time>2014-10-18T15:44:58Z</time>
      </trkpt>
      <trkpt lat="45.25239" lon="6.0126">
        <ele>1554.8</ele>
        <time>2014-10-18T15:44:59Z</time>
      </trkpt>
      <trkpt lat="45.25231" lon="6.01252">
        <ele>1553.8</ele>
        <time>2014-10-18T15:45:00Z</time>
      </trkpt>
      <trkpt lat="45.25218" lon="6.01235">
        <ele>1551.5</ele>
        <time>2014-10-18T15:45:02Z</time>
      </trkpt>
      <trkpt lat="45.25208" lon="6.01216">
        <ele>1549</ele>
        <time>2014-10-18T15:45:04Z</time>
      </trkpt>
      <trkpt lat="45.25201" lon="6.01196">
        <ele>1546.5</ele>
        <time>2014-10-18T15:45:06Z</time>
      </trkpt>
      <trkpt lat="45.25195" lon="6.01176">
        <ele>1545.2</ele>
        <time>2014-10-18T15:45:08Z</time>
      </trkpt>
      <trkpt lat="45.25186" lon="6.01156">
        <ele>1544.1</ele>
        <time>2014-10-18T15:45:10Z</time>
      </trkpt>
      <trkpt lat="45.25176" lon="6.01136">
        <ele>1542.2</ele>
        <time>2014-10-18T15:45:12Z</time>
      </trkpt>
      <trkpt lat="45.25171" lon="6.01124">
        <ele>1541.1</ele>
        <time>2014-10-18T15:45:13Z</time>
      </trkpt>
      <trkpt lat="45.25167" lon="6.01113">
        <ele>1539.8</ele>
        <time>2014-10-18T15:45:14Z</time>
      </trkpt>
      <trkpt lat="45.2516" lon="6.0109">
        <ele>1537.3</ele>
        <time>2014-10-18T15:45:16Z</time>
      </trkpt>
      <trkpt lat="45.25157" lon="6.01065">
        <ele>1535.1</ele>
        <time>2014-10-18T15:45:18Z</time>
      </trkpt>
      <trkpt lat="45.25157" lon="6.01052">
        <ele>1533.9</ele>
        <time>2014-10-18T15:45:19Z</time>
      </trkpt>
      <trkpt lat="45.25156" lon="6.01039">
        <ele>1532.4</ele>
        <time>2014-10-18T15:45:20Z</time>
      </trkpt>
      <trkpt lat="45.25154" lon="6.01015">
        <ele>1529.4</ele>
        <time>2014-10-18T15:45:22Z</time>
      </trkpt>
      <trkpt lat="45.25151" lon="6.00996">
        <ele>1526.8</ele>
        <time>2014-10-18T15:45:24Z</time>
      </trkpt>
      <trkpt lat="45.25149" lon="6.00976">
        <ele>1525.1</ele>
        <time>2014-10-18T15:45:26Z</time>
      </trkpt>
      <trkpt lat="45.25146" lon="6.0096">
        <ele>1522.9</ele>
        <time>2014-10-18T15:45:28Z</time>
      </trkpt>
      <trkpt lat="45.25146" lon="6.00945">
        <ele>1521.6</ele>
        <time>2014-10-18T15:45:30Z</time>
      </trkpt>
      <trkpt lat="45.25148" lon="6.00929">
        <ele>1519.4</ele>
        <time>2014-10-18T15:45:32Z</time>
      </trkpt>
      <trkpt lat="45.25152" lon="6.00912">
        <ele>1516.9</ele>
        <time>2014-10-18T15:45:34Z</time>
      </trkpt>
      <trkpt lat="45.25159" lon="6.00896">
        <ele>1515.8</ele>
        <time>2014-10-18T15:45:36Z</time>
      </trkpt>
      <trkpt lat="45.25167" lon="6.00881">
        <ele>1512.8</ele>
        <time>2014-10-18T15:45:38Z</time>
      </trkpt>
      <trkpt lat="45.25177" lon="6.00866">
        <ele>1510.6</ele>
        <time>2014-10-18T15:45:40Z</time>
      </trkpt>
      <trkpt lat="45.25188" lon="6.00851">
        <ele>1507.5</ele>
        <time>2014-10-18T15:45:42Z</time>
      </trkpt>
      <trkpt lat="45.25199" lon="6.00835">
        <ele>1505</ele>
        <time>2014-10-18T15:45:44Z</time>
      </trkpt>
      <trkpt lat="45.25209" lon="6.00818">
        <ele>1502.5</ele>
        <time>2014-10-18T15:45:46Z</time>
      </trkpt>
      <trkpt lat="45.25219" lon="6.008">
        <ele>1498.9</ele>
        <time>2014-10-18T15:45:48Z</time>
      </trkpt>
      <trkpt lat="45.25224" lon="6.00789">
        <ele>1497.3</ele>
        <time>2014-10-18T15:45:49Z</time>
      </trkpt>
      <trkpt lat="45.25228" lon="6.00777">
        <ele>1496.4</ele>
        <time>2014-10-18T15:45:50Z</time>
      </trkpt>
      <trkpt lat="45.25233" lon="6.00764">
        <ele>1495.6</ele>
        <time>2014-10-18T15:45:51Z</time>
      </trkpt>
      <trkpt lat="45.25237" lon="6.00751">
        <ele>1494.9</ele>
        <time>2014-10-18T15:45:52Z</time>
      </trkpt>
      <trkpt lat="45.25243" lon="6.00741">
        <ele>1493.6</ele>
        <time>2014-10-18T15:45:53Z</time>
      </trkpt>
      <trkpt lat="45.25255" lon="6.00722">
        <ele>1492.3</ele>
        <time>2014-10-18T15:45:55Z</time>
      </trkpt>
      <trkpt lat="45.25267" lon="6.00707">
        <ele>1491.9</ele>
        <time>2014-10-18T15:45:57Z</time>
      </trkpt>
      <trkpt lat="45.2528" lon="6.00693">
        <ele>1491.1</ele>
        <time>2014-10-18T15:45:59Z</time>
      </trkpt>
      <trkpt lat="45.25293" lon="6.00678">
        <ele>1489.6</ele>
        <time>2014-10-18T15:46:01Z</time>
      </trkpt>
      <trkpt lat="45.25306" lon="6.00666">
        <ele>1488</ele>
        <time>2014-10-18T15:46:03Z</time>
      </trkpt>
      <trkpt lat="45.25319" lon="6.00653">
        <ele>1486.2</ele>
        <time>2014-10-18T15:46:05Z</time>
      </trkpt>
      <trkpt lat="45.25332" lon="6.0064">
        <ele>1485.1</ele>
        <time>2014-10-18T15:46:07Z</time>
      </trkpt>
      <trkpt lat="45.25346" lon="6.00626">
        <ele>1483.9</ele>
        <time>2014-10-18T15:46:09Z</time>
      </trkpt>
      <trkpt lat="45.2536" lon="6.00611">
        <ele>1482.1</ele>
        <time>2014-10-18T15:46:11Z</time>
      </trkpt>
      <trkpt lat="45.25373" lon="6.00598">
        <ele>1480.2</ele>
        <time>2014-10-18T15:46:13Z</time>
      </trkpt>
      <trkpt lat="45.25384" lon="6.00587">
        <ele>1480</ele>
        <time>2014-10-18T15:46:15Z</time>
      </trkpt>
      <trkpt lat="45.25393" lon="6.00577">
        <ele>1479.2</ele>
        <time>2014-10-18T15:46:17Z</time>
      </trkpt>
      <trkpt lat="45.25402" lon="6.00567">
        <ele>1476.5</ele>
        <time>2014-10-18T15:46:31Z</time>
      </trkpt>
      <trkpt lat="45.25409" lon="6.00558">
        <ele>1476</ele>
        <time>2014-10-18T15:46:33Z</time>
      </trkpt>
      <trkpt lat="45.25417" lon="6.00546">
        <ele>1474.9</ele>
        <time>2014-10-18T15:46:35Z</time>
      </trkpt>
      <trkpt lat="45.25427" lon="6.00531">
        <ele>1473.1</ele>
        <time>2014-10-18T15:46:37Z</time>
      </trkpt>
      <trkpt lat="45.25439" lon="6.00515">
        <ele>1471.6</ele>
        <time>2014-10-18T15:46:39Z</time>
      </trkpt>
      <trkpt lat="45.25451" lon="6.00496">
        <ele>1470.1</ele>
        <time>2014-10-18T15:46:41Z</time>
      </trkpt>
      <trkpt lat="45.25461" lon="6.00478">
        <ele>1467.5</ele>
        <time>2014-10-18T15:46:43Z</time>
      </trkpt>
      <trkpt lat="45.25471" lon="6.00462">
        <ele>1465.4</ele>
        <time>2014-10-18T15:46:45Z</time>
      </trkpt>
      <trkpt lat="45.25478" lon="6.00442">
        <ele>1463.6</ele>
        <time>2014-10-18T15:46:47Z</time>
      </trkpt>
      <trkpt lat="45.25483" lon="6.00423">
        <ele>1461.2</ele>
        <time>2014-10-18T15:46:49Z</time>
      </trkpt>
      <trkpt lat="45.25489" lon="6.00405">
        <ele>1459.5</ele>
        <time>2014-10-18T15:46:51Z</time>
      </trkpt>
      <trkpt lat="45.25496" lon="6.00386">
        <ele>1456.9</ele>
        <time>2014-10-18T15:46:53Z</time>
      </trkpt>
      <trkpt lat="45.255" lon="6.00365">
        <ele>1455.1</ele>
        <time>2014-10-18T15:46:55Z</time>
      </trkpt>
      <trkpt lat="45.25504" lon="6.00344">
        <ele>1453.4</ele>
        <time>2014-10-18T15:46:57Z</time>
      </trkpt>
      <trkpt lat="45.25508" lon="6.00321">
        <ele>1451.8</ele>
        <time>2014-10-18T15:46:59Z</time>
      </trkpt>
      <trkpt lat="45.25514" lon="6.003">
        <ele>1449.1</ele>
        <time>2014-10-18T15:47:01Z</time>
      </trkpt>
      <trkpt lat="45.25521" lon="6.0028">
        <ele>1447.2</ele>
        <time>2014-10-18T15:47:03Z</time>
      </trkpt>
      <trkpt lat="45.25527" lon="6.0026">
        <ele>1445.5</ele>
        <time>2014-10-18T15:47:05Z</time>
      </trkpt>
      <trkpt lat="45.25533" lon="6.00242">
        <ele>1442.8</ele>
        <time>2014-10-18T15:47:07Z</time>
      </trkpt>
      <trkpt lat="45.25539" lon="6.00227">
        <ele>1441</ele>
        <time>2014-10-18T15:47:09Z</time>
      </trkpt>
      <trkpt lat="45.25546" lon="6.00212">
        <ele>1438.3</ele>
        <time>2014-10-18T15:47:11Z</time>
      </trkpt>
      <trkpt lat="45.25552" lon="6.00198">
        <ele>1436.2</ele>
        <time>2014-10-18T15:47:13Z</time>
      </trkpt>
      <trkpt lat="45.25556" lon="6.00184">
        <ele>1434.3</ele>
        <time>2014-10-18T15:47:15Z</time>
      </trkpt>
      <trkpt lat="45.2556" lon="6.00168">
        <ele>1432</ele>
        <time>2014-10-18T15:47:17Z</time>
      </trkpt>
      <trkpt lat="45.25563" lon="6.00151">
        <ele>1430.4</ele>
        <time>2014-10-18T15:47:19Z</time>
      </trkpt>
      <trkpt lat="45.25567" lon="6.00136">
        <ele>1428.5</ele>
        <time>2014-10-18T15:47:21Z</time>
      </trkpt>
      <trkpt lat="45.2557" lon="6.00122">
        <ele>1427.2</ele>
        <time>2014-10-18T15:47:23Z</time>
      </trkpt>
      <trkpt lat="45.25574" lon="6.00106">
        <ele>1425.5</ele>
        <time>2014-10-18T15:47:25Z</time>
      </trkpt>
      <trkpt lat="45.25578" lon="6.0009">
        <ele>1423.7</ele>
        <time>2014-10-18T15:47:27Z</time>
      </trkpt>
      <trkpt lat="45.25582" lon="6.00074">
        <ele>1421</ele>
        <time>2014-10-18T15:47:29Z</time>
      </trkpt>
      <trkpt lat="45.25585" lon="6.00059">
        <ele>1418</ele>
        <time>2014-10-18T15:47:31Z</time>
      </trkpt>
      <trkpt lat="45.25586" lon="6.00045">
        <ele>1416.1</ele>
        <time>2014-10-18T15:47:33Z</time>
      </trkpt>
      <trkpt lat="45.25587" lon="6.0003">
        <ele>1414.6</ele>
        <time>2014-10-18T15:47:35Z</time>
      </trkpt>
      <trkpt lat="45.25589" lon="6.00013">
        <ele>1412.5</ele>
        <time>2014-10-18T15:47:37Z</time>
      </trkpt>
      <trkpt lat="45.2559" lon="5.99996">
        <ele>1409.9</ele>
        <time>2014-10-18T15:47:39Z</time>
      </trkpt>
      <trkpt lat="45.2559" lon="5.99979">
        <ele>1407.8</ele>
        <time>2014-10-18T15:47:41Z</time>
      </trkpt>
      <trkpt lat="45.25589" lon="5.99959">
        <ele>1405.9</ele>
        <time>2014-10-18T15:47:43Z</time>
      </trkpt>
      <trkpt lat="45.25589" lon="5.99936">
        <ele>1402.5</ele>
        <time>2014-10-18T15:47:45Z</time>
      </trkpt>
      <trkpt lat="45.2559" lon="5.99916">
        <ele>1399.3</ele>
        <time>2014-10-18T15:47:47Z</time>
      </trkpt>
      <trkpt lat="45.25591" lon="5.99901">
        <ele>1396</ele>
        <time>2014-10-18T15:47:49Z</time>
      </trkpt>
      <trkpt lat="45.25594" lon="5.99887">
        <ele>1393</ele>
        <time>2014-10-18T15:47:51Z</time>
      </trkpt>
      <trkpt lat="45.25595" lon="5.99873">
        <ele>1390.1</ele>
        <time>2014-10-18T15:47:53Z</time>
      </trkpt>
      <trkpt lat="45.25599" lon="5.99857">
        <ele>1387.2</ele>
        <time>2014-10-18T15:47:56Z</time>
      </trkpt>
      <trkpt lat="45.25603" lon="5.99842">
        <ele>1384.6</ele>
        <time>2014-10-18T15:47:59Z</time>
      </trkpt>
      <trkpt lat="45.25611" lon="5.99829">
        <ele>1382.1</ele>
        <time>2014-10-18T15:48:02Z</time>
      </trkpt>
      <trkpt lat="45.2562" lon="5.99813">
        <ele>1379.3</ele>
        <time>2014-10-18T15:48:05Z</time>
      </trkpt>
      <trkpt lat="45.25625" lon="5.99795">
        <ele>1377.6</ele>
        <time>2014-10-18T15:48:07Z</time>
      </trkpt>
      <trkpt lat="45.25629" lon="5.99772">
        <ele>1375.2</ele>
        <time>2014-10-18T15:48:09Z</time>
      </trkpt>
      <trkpt lat="45.25629" lon="5.99752">
        <ele>1373.3</ele>
        <time>2014-10-18T15:48:11Z</time>
      </trkpt>
      <trkpt lat="45.25628" lon="5.99732">
        <ele>1371.2</ele>
        <time>2014-10-18T15:48:13Z</time>
      </trkpt>
      <trkpt lat="45.25629" lon="5.99712">
        <ele>1369.7</ele>
        <time>2014-10-18T15:48:15Z</time>
      </trkpt>
      <trkpt lat="45.25631" lon="5.99693">
        <ele>1366.9</ele>
        <time>2014-10-18T15:48:17Z</time>
      </trkpt>
      <trkpt lat="45.25635" lon="5.99677">
        <ele>1365.5</ele>
        <time>2014-10-18T15:48:19Z</time>
      </trkpt>
      <trkpt lat="45.25637" lon="5.99664">
        <ele>1364</ele>
        <time>2014-10-18T15:48:21Z</time>
      </trkpt>
      <trkpt lat="45.25636" lon="5.9965">
        <ele>1362.3</ele>
        <time>2014-10-18T15:48:24Z</time>
      </trkpt>
      <trkpt lat="45.25636" lon="5.99635">
        <ele>1361</ele>
        <time>2014-10-18T15:48:27Z</time>
      </trkpt>
      <trkpt lat="45.25636" lon="5.99621">
        <ele>1360.2</ele>
        <time>2014-10-18T15:48:29Z</time>
      </trkpt>
      <trkpt lat="45.25636" lon="5.99606">
        <ele>1359</ele>
        <time>2014-10-18T15:48:31Z</time>
      </trkpt>
      <trkpt lat="45.25638" lon="5.99591">
        <ele>1357.6</ele>
        <time>2014-10-18T15:48:33Z</time>
      </trkpt>
      <trkpt lat="45.25639" lon="5.99577">
        <ele>1356.8</ele>
        <time>2014-10-18T15:48:35Z</time>
      </trkpt>
      <trkpt lat="45.2564" lon="5.99564">
        <ele>1356</ele>
        <time>2014-10-18T15:48:38Z</time>
      </trkpt>
      <trkpt lat="45.25637" lon="5.99549">
        <ele>1355</ele>
        <time>2014-10-18T15:49:32Z</time>
      </trkpt>
      <trkpt lat="45.25634" lon="5.99536">
        <ele>1355</ele>
        <time>2014-10-18T15:49:35Z</time>
      </trkpt>
      <trkpt lat="45.2563" lon="5.99522">
        <ele>1354.8</ele>
        <time>2014-10-18T15:49:38Z</time>
      </trkpt>
      <trkpt lat="45.25627" lon="5.99508">
        <ele>1354.9</ele>
        <time>2014-10-18T15:49:41Z</time>
      </trkpt>
      <trkpt lat="45.25624" lon="5.99491">
        <ele>1355.4</ele>
        <time>2014-10-18T15:49:44Z</time>
      </trkpt>
      <trkpt lat="45.2562" lon="5.99473">
        <ele>1355.5</ele>
        <time>2014-10-18T15:49:47Z</time>
      </trkpt>
      <trkpt lat="45.25618" lon="5.99454">
        <ele>1355.9</ele>
        <time>2014-10-18T15:49:50Z</time>
      </trkpt>
      <trkpt lat="45.25616" lon="5.99435">
        <ele>1355.9</ele>
        <time>2014-10-18T15:49:53Z</time>
      </trkpt>
      <trkpt lat="45.25615" lon="5.99416">
        <ele>1356.2</ele>
        <time>2014-10-18T15:49:56Z</time>
      </trkpt>
      <trkpt lat="45.25614" lon="5.99398">
        <ele>1356.6</ele>
        <time>2014-10-18T15:49:59Z</time>
      </trkpt>
      <trkpt lat="45.25613" lon="5.9938">
        <ele>1356.8</ele>
        <time>2014-10-18T15:50:02Z</time>
      </trkpt>
      <trkpt lat="45.25614" lon="5.99363">
        <ele>1356.8</ele>
        <time>2014-10-18T15:50:05Z</time>
      </trkpt>
      <trkpt lat="45.25615" lon="5.9935">
        <ele>1357.6</ele>
        <time>2014-10-18T15:50:08Z</time>
      </trkpt>
      <trkpt lat="45.25612" lon="5.99336">
        <ele>1358.2</ele>
        <time>2014-10-18T15:50:13Z</time>
      </trkpt>
      <trkpt lat="45.25606" lon="5.99325">
        <ele>1358</ele>
        <time>2014-10-18T15:50:16Z</time>
      </trkpt>
      <trkpt lat="45.25598" lon="5.99311">
        <ele>1357.5</ele>
        <time>2014-10-18T15:50:19Z</time>
      </trkpt>
      <trkpt lat="45.2559" lon="5.99297">
        <ele>1357.2</ele>
        <time>2014-10-18T15:50:22Z</time>
      </trkpt>
      <trkpt lat="45.25582" lon="5.99286">
        <ele>1357.3</ele>
        <time>2014-10-18T15:50:25Z</time>
      </trkpt>
      <trkpt lat="45.25576" lon="5.99273">
        <ele>1356.9</ele>
        <time>2014-10-18T15:50:28Z</time>
      </trkpt>
      <trkpt lat="45.2557" lon="5.99256">
        <ele>1356.5</ele>
        <time>2014-10-18T15:50:31Z</time>
      </trkpt>
      <trkpt lat="45.25561" lon="5.99243">
        <ele>1355.1</ele>
        <time>2014-10-18T15:50:34Z</time>
      </trkpt>
      <trkpt lat="45.2555" lon="5.99233">
        <ele>1353.4</ele>
        <time>2014-10-18T15:50:37Z</time>
      </trkpt>
      <trkpt lat="45.25543" lon="5.99224">
        <ele>1351.7</ele>
        <time>2014-10-18T15:50:40Z</time>
      </trkpt>
      <trkpt lat="45.25535" lon="5.99215">
        <ele>1350.8</ele>
        <time>2014-10-18T15:50:43Z</time>
      </trkpt>
      <trkpt lat="45.25524" lon="5.99211">
        <ele>1350.5</ele>
        <time>2014-10-18T15:50:47Z</time>
      </trkpt>
      <trkpt lat="45.25514" lon="5.9921">
        <ele>1351.3</ele>
        <time>2014-10-18T15:50:51Z</time>
      </trkpt>
      <trkpt lat="45.25504" lon="5.99209">
        <ele>1351.9</ele>
        <time>2014-10-18T15:50:55Z</time>
      </trkpt>
      <trkpt lat="45.25492" lon="5.9921">
        <ele>1352.5</ele>
        <time>2014-10-18T15:50:59Z</time>
      </trkpt>
      <trkpt lat="45.2548" lon="5.99212">
        <ele>1353.2</ele>
        <time>2014-10-18T15:51:03Z</time>
      </trkpt>
      <trkpt lat="45.25469" lon="5.99212">
        <ele>1353.5</ele>
        <time>2014-10-18T15:51:07Z</time>
      </trkpt>
      <trkpt lat="45.25459" lon="5.99213">
        <ele>1354</ele>
        <time>2014-10-18T15:51:10Z</time>
      </trkpt>
      <trkpt lat="45.25448" lon="5.99214">
        <ele>1354.7</ele>
        <time>2014-10-18T15:51:13Z</time>
      </trkpt>
      <trkpt lat="45.25438" lon="5.99215">
        <ele>1355.5</ele>
        <time>2014-10-18T15:51:16Z</time>
      </trkpt>
      <trkpt lat="45.25428" lon="5.99215">
        <ele>1356</ele>
        <time>2014-10-18T15:51:19Z</time>
      </trkpt>
      <trkpt lat="45.25418" lon="5.99214">
        <ele>1356.6</ele>
        <time>2014-10-18T15:51:22Z</time>
      </trkpt>
      <trkpt lat="45.25408" lon="5.99212">
        <ele>1357.3</ele>
        <time>2014-10-18T15:51:25Z</time>
      </trkpt>
      <trkpt lat="45.25398" lon="5.99212">
        <ele>1357.9</ele>
        <time>2014-10-18T15:51:28Z</time>
      </trkpt>
      <trkpt lat="45.25388" lon="5.9921">
        <ele>1358.6</ele>
        <time>2014-10-18T15:51:31Z</time>
      </trkpt>
      <trkpt lat="45.25378" lon="5.99208">
        <ele>1359.2</ele>
        <time>2014-10-18T15:51:34Z</time>
      </trkpt>
      <trkpt lat="45.25368" lon="5.99204">
        <ele>1359.8</ele>
        <time>2014-10-18T15:51:37Z</time>
      </trkpt>
      <trkpt lat="45.25359" lon="5.99202">
        <ele>1360.5</ele>
        <time>2014-10-18T15:51:40Z</time>
      </trkpt>
      <trkpt lat="45.2535" lon="5.99199">
        <ele>1361.1</ele>
        <time>2014-10-18T15:51:43Z</time>
      </trkpt>
      <trkpt lat="45.2534" lon="5.99198">
        <ele>1361.9</ele>
        <time>2014-10-18T15:51:46Z</time>
      </trkpt>
      <trkpt lat="45.25331" lon="5.99194">
        <ele>1362</ele>
        <time>2014-10-18T15:51:49Z</time>
      </trkpt>
      <trkpt lat="45.25319" lon="5.99192">
        <ele>1362.4</ele>
        <time>2014-10-18T15:51:53Z</time>
      </trkpt>
      <trkpt lat="45.2531" lon="5.99191">
        <ele>1363</ele>
        <time>2014-10-18T15:51:56Z</time>
      </trkpt>
      <trkpt lat="45.25299" lon="5.9919">
        <ele>1363.4</ele>
        <time>2014-10-18T15:52:00Z</time>
      </trkpt>
      <trkpt lat="45.2529" lon="5.99187">
        <ele>1363.4</ele>
        <time>2014-10-18T15:52:03Z</time>
      </trkpt>
      <trkpt lat="45.2528" lon="5.99183">
        <ele>1363.7</ele>
        <time>2014-10-18T15:52:06Z</time>
      </trkpt>
      <trkpt lat="45.2527" lon="5.99182">
        <ele>1363.6</ele>
        <time>2014-10-18T15:52:09Z</time>
      </trkpt>
      <trkpt lat="45.25259" lon="5.99181">
        <ele>1363.6</ele>
        <time>2014-10-18T15:52:12Z</time>
      </trkpt>
      <trkpt lat="45.25247" lon="5.9918">
        <ele>1363.5</ele>
        <time>2014-10-18T15:52:15Z</time>
      </trkpt>
      <trkpt lat="45.25235" lon="5.9918">
        <ele>1363.5</ele>
        <time>2014-10-18T15:52:18Z</time>
      </trkpt>
      <trkpt lat="45.25222" lon="5.99181">
        <ele>1363.7</ele>
        <time>2014-10-18T15:52:21Z</time>
      </trkpt>
      <trkpt lat="45.25209" lon="5.99183">
        <ele>1364</ele>
        <time>2014-10-18T15:52:24Z</time>
      </trkpt>
      <trkpt lat="45.25197" lon="5.99188">
        <ele>1364.3</ele>
        <time>2014-10-18T15:52:27Z</time>
      </trkpt>
      <trkpt lat="45.25186" lon="5.99196">
        <ele>1364.6</ele>
        <time>2014-10-18T15:52:30Z</time>
      </trkpt>
      <trkpt lat="45.25176" lon="5.99205">
        <ele>1364.9</ele>
        <time>2014-10-18T15:52:33Z</time>
      </trkpt>
      <trkpt lat="45.25166" lon="5.99214">
        <ele>1365.4</ele>
        <time>2014-10-18T15:52:36Z</time>
      </trkpt>
      <trkpt lat="45.25155" lon="5.99224">
        <ele>1365.6</ele>
        <time>2014-10-18T15:52:39Z</time>
      </trkpt>
      <trkpt lat="45.25144" lon="5.99233">
        <ele>1365.7</ele>
        <time>2014-10-18T15:52:42Z</time>
      </trkpt>
      <trkpt lat="45.25134" lon="5.99242">
        <ele>1366.3</ele>
        <time>2014-10-18T15:52:45Z</time>
      </trkpt>
      <trkpt lat="45.25123" lon="5.99251">
        <ele>1366.5</ele>
        <time>2014-10-18T15:52:48Z</time>
      </trkpt>
      <trkpt lat="45.25113" lon="5.9926">
        <ele>1367.1</ele>
        <time>2014-10-18T15:52:51Z</time>
      </trkpt>
      <trkpt lat="45.25103" lon="5.99269">
        <ele>1367.6</ele>
        <time>2014-10-18T15:52:54Z</time>
      </trkpt>
      <trkpt lat="45.25093" lon="5.99278">
        <ele>1368.1</ele>
        <time>2014-10-18T15:52:57Z</time>
      </trkpt>
      <trkpt lat="45.25083" lon="5.99286">
        <ele>1368.7</ele>
        <time>2014-10-18T15:53:00Z</time>
      </trkpt>
      <trkpt lat="45.25074" lon="5.99295">
        <ele>1368.8</ele>
        <time>2014-10-18T15:53:03Z</time>
      </trkpt>
      <trkpt lat="45.25066" lon="5.99304">
        <ele>1369.2</ele>
        <time>2014-10-18T15:53:06Z</time>
      </trkpt>
      <trkpt lat="45.25057" lon="5.99311">
        <ele>1369.8</ele>
        <time>2014-10-18T15:53:09Z</time>
      </trkpt>
      <trkpt lat="45.25049" lon="5.99318">
        <ele>1370.2</ele>
        <time>2014-10-18T15:53:12Z</time>
      </trkpt>
      <trkpt lat="45.2504" lon="5.99323">
        <ele>1370.7</ele>
        <time>2014-10-18T15:53:15Z</time>
      </trkpt>
      <trkpt lat="45.25031" lon="5.99326">
        <ele>1371.2</ele>
        <time>2014-10-18T15:53:18Z</time>
      </trkpt>
      <trkpt lat="45.25022" lon="5.99328">
        <ele>1371.6</ele>
        <time>2014-10-18T15:53:21Z</time>
      </trkpt>
      <trkpt lat="45.25013" lon="5.99328">
        <ele>1371.9</ele>
        <time>2014-10-18T15:53:24Z</time>
      </trkpt>
      <trkpt lat="45.25002" lon="5.99328">
        <ele>1371.8</ele>
        <time>2014-10-18T15:53:27Z</time>
      </trkpt>
      <trkpt lat="45.24992" lon="5.9933">
        <ele>1371.6</ele>
        <time>2014-10-18T15:53:30Z</time>
      </trkpt>
      <trkpt lat="45.24981" lon="5.99332">
        <ele>1372</ele>
        <time>2014-10-18T15:53:33Z</time>
      </trkpt>
      <trkpt lat="45.24971" lon="5.99335">
        <ele>1372.1</ele>
        <time>2014-10-18T15:53:36Z</time>
      </trkpt>
      <trkpt lat="45.24962" lon="5.99339">
        <ele>1372.5</ele>
        <time>2014-10-18T15:53:39Z</time>
      </trkpt>
      <trkpt lat="45.24953" lon="5.99343">
        <ele>1372.7</ele>
        <time>2014-10-18T15:53:42Z</time>
      </trkpt>
      <trkpt lat="45.24943" lon="5.9935">
        <ele>1373.7</ele>
        <time>2014-10-18T15:53:46Z</time>
      </trkpt>
      <trkpt lat="45.24933" lon="5.99357">
        <ele>1374</ele>
        <time>2014-10-18T15:53:50Z</time>
      </trkpt>
      <trkpt lat="45.24924" lon="5.99366">
        <ele>1374.6</ele>
        <time>2014-10-18T15:53:54Z</time>
      </trkpt>
      <trkpt lat="45.24915" lon="5.99373">
        <ele>1375.4</ele>
        <time>2014-10-18T15:53:59Z</time>
      </trkpt>
      <trkpt lat="45.24908" lon="5.99382">
        <ele>1375.5</ele>
        <time>2014-10-18T15:54:05Z</time>
      </trkpt>
      <trkpt lat="45.24898" lon="5.9938">
        <ele>1375.1</ele>
        <time>2014-10-18T15:54:15Z</time>
      </trkpt>
      <trkpt lat="45.24888" lon="5.99387">
        <ele>1375</ele>
        <time>2014-10-18T15:54:19Z</time>
      </trkpt>
      <trkpt lat="45.24879" lon="5.9939">
        <ele>1374.6</ele>
        <time>2014-10-18T15:54:23Z</time>
      </trkpt>
      <trkpt lat="45.24869" lon="5.9939">
        <ele>1374.4</ele>
        <time>2014-10-18T15:54:26Z</time>
      </trkpt>
      <trkpt lat="45.2486" lon="5.99388">
        <ele>1374.2</ele>
        <time>2014-10-18T15:54:29Z</time>
      </trkpt>
      <trkpt lat="45.24851" lon="5.99391">
        <ele>1374.5</ele>
        <time>2014-10-18T15:54:32Z</time>
      </trkpt>
      <trkpt lat="45.24842" lon="5.99391">
        <ele>1373.9</ele>
        <time>2014-10-18T15:54:35Z</time>
      </trkpt>
      <trkpt lat="45.24831" lon="5.99389">
        <ele>1373.7</ele>
        <time>2014-10-18T15:54:39Z</time>
      </trkpt>
      <trkpt lat="45.24821" lon="5.99389">
        <ele>1373.2</ele>
        <time>2014-10-18T15:54:42Z</time>
      </trkpt>
      <trkpt lat="45.24809" lon="5.99388">
        <ele>1373.2</ele>
        <time>2014-10-18T15:54:45Z</time>
      </trkpt>
      <trkpt lat="45.24796" lon="5.99389">
        <ele>1372.5</ele>
        <time>2014-10-18T15:54:48Z</time>
      </trkpt>
      <trkpt lat="45.24786" lon="5.99389">
        <ele>1372.2</ele>
        <time>2014-10-18T15:54:50Z</time>
      </trkpt>
      <trkpt lat="45.24776" lon="5.99389">
        <ele>1371.4</ele>
        <time>2014-10-18T15:54:52Z</time>
      </trkpt>
      <trkpt lat="45.24766" lon="5.99389">
        <ele>1371.3</ele>
        <time>2014-10-18T15:54:54Z</time>
      </trkpt>
      <trkpt lat="45.24755" lon="5.99389">
        <ele>1371</ele>
        <time>2014-10-18T15:54:56Z</time>
      </trkpt>
      <trkpt lat="45.24745" lon="5.99391">
        <ele>1370.1</ele>
        <time>2014-10-18T15:54:58Z</time>
      </trkpt>
      <trkpt lat="45.24735" lon="5.99394">
        <ele>1369.7</ele>
        <time>2014-10-18T15:55:00Z</time>
      </trkpt>
      <trkpt lat="45.24725" lon="5.99398">
        <ele>1369.6</ele>
        <time>2014-10-18T15:55:02Z</time>
      </trkpt>
      <trkpt lat="45.24716" lon="5.99403">
        <ele>1369.4</ele>
        <time>2014-10-18T15:55:04Z</time>
      </trkpt>
      <trkpt lat="45.24706" lon="5.99408">
        <ele>1369.2</ele>
        <time>2014-10-18T15:55:06Z</time>
      </trkpt>
      <trkpt lat="45.24696" lon="5.99413">
        <ele>1369</ele>
        <time>2014-10-18T15:55:08Z</time>
      </trkpt>
      <trkpt lat="45.24687" lon="5.99418">
        <ele>1368.4</ele>
        <time>2014-10-18T15:55:10Z</time>
      </trkpt>
      <trkpt lat="45.24678" lon="5.99422">
        <ele>1367.9</ele>
        <time>2014-10-18T15:55:12Z</time>
      </trkpt>
      <trkpt lat="45.24668" lon="5.99426">
        <ele>1367.9</ele>
        <time>2014-10-18T15:55:14Z</time>
      </trkpt>
      <trkpt lat="45.24658" lon="5.99431">
        <ele>1367.3</ele>
        <time>2014-10-18T15:55:16Z</time>
      </trkpt>
      <trkpt lat="45.24648" lon="5.99437">
        <ele>1366.8</ele>
        <time>2014-10-18T15:55:18Z</time>
      </trkpt>
      <trkpt lat="45.24637" lon="5.99443">
        <ele>1366.4</ele>
        <time>2014-10-18T15:55:20Z</time>
      </trkpt>
      <trkpt lat="45.24627" lon="5.99449">
        <ele>1365.8</ele>
        <time>2014-10-18T15:55:22Z</time>
      </trkpt>
      <trkpt lat="45.24615" lon="5.99454">
        <ele>1365</ele>
        <time>2014-10-18T15:55:24Z</time>
      </trkpt>
      <trkpt lat="45.24603" lon="5.99456">
        <ele>1364.6</ele>
        <time>2014-10-18T15:55:26Z</time>
      </trkpt>
      <trkpt lat="45.24592" lon="5.99455">
        <ele>1363.9</ele>
        <time>2014-10-18T15:55:28Z</time>
      </trkpt>
      <trkpt lat="45.24581" lon="5.99453">
        <ele>1363.5</ele>
        <time>2014-10-18T15:55:30Z</time>
      </trkpt>
      <trkpt lat="45.24571" lon="5.99451">
        <ele>1363.5</ele>
        <time>2014-10-18T15:55:32Z</time>
      </trkpt>
      <trkpt lat="45.2456" lon="5.99449">
        <ele>1363</ele>
        <time>2014-10-18T15:55:34Z</time>
      </trkpt>
      <trkpt lat="45.24551" lon="5.99445">
        <ele>1362.6</ele>
        <time>2014-10-18T15:55:36Z</time>
      </trkpt>
      <trkpt lat="45.24539" lon="5.99441">
        <ele>1362.3</ele>
        <time>2014-10-18T15:55:39Z</time>
      </trkpt>
      <trkpt lat="45.24528" lon="5.99435">
        <ele>1362.3</ele>
        <time>2014-10-18T15:55:42Z</time>
      </trkpt>
      <trkpt lat="45.2452" lon="5.99425">
        <ele>1361.5</ele>
        <time>2014-10-18T15:55:46Z</time>
      </trkpt>
      <trkpt lat="45.24516" lon="5.99412">
        <ele>1360.8</ele>
        <time>2014-10-18T15:55:51Z</time>
      </trkpt>
      <trkpt lat="45.24517" lon="5.99397">
        <ele>1360.5</ele>
        <time>2014-10-18T15:55:55Z</time>
      </trkpt>
      <trkpt lat="45.2452" lon="5.99383">
        <ele>1360</ele>
        <time>2014-10-18T15:55:58Z</time>
      </trkpt>
      <trkpt lat="45.24524" lon="5.99366">
        <ele>1358.3</ele>
        <time>2014-10-18T15:56:01Z</time>
      </trkpt>
      <trkpt lat="45.24525" lon="5.99353">
        <ele>1358.6</ele>
        <time>2014-10-18T15:56:03Z</time>
      </trkpt>
      <trkpt lat="45.24528" lon="5.99341">
        <ele>1358.6</ele>
        <time>2014-10-18T15:56:05Z</time>
      </trkpt>
      <trkpt lat="45.24531" lon="5.99328">
        <ele>1358</ele>
        <time>2014-10-18T15:56:07Z</time>
      </trkpt>
      <trkpt lat="45.24535" lon="5.99316">
        <ele>1358</ele>
        <time>2014-10-18T15:56:09Z</time>
      </trkpt>
      <trkpt lat="45.2454" lon="5.99304">
        <ele>1357.7</ele>
        <time>2014-10-18T15:56:12Z</time>
      </trkpt>
      <trkpt lat="45.24544" lon="5.9929">
        <ele>1356.7</ele>
        <time>2014-10-18T15:56:38Z</time>
      </trkpt>
      <trkpt lat="45.24548" lon="5.99277">
        <ele>1356.5</ele>
        <time>2014-10-18T15:56:41Z</time>
      </trkpt>
      <trkpt lat="45.24553" lon="5.99262">
        <ele>1356.4</ele>
        <time>2014-10-18T15:56:44Z</time>
      </trkpt>
      <trkpt lat="45.24558" lon="5.99246">
        <ele>1355.8</ele>
        <time>2014-10-18T15:56:47Z</time>
      </trkpt>
      <trkpt lat="45.24562" lon="5.99234">
        <ele>1355.2</ele>
        <time>2014-10-18T15:56:49Z</time>
      </trkpt>
      <trkpt lat="45.24567" lon="5.99222">
        <ele>1356.2</ele>
        <time>2014-10-18T15:56:51Z</time>
      </trkpt>
      <trkpt lat="45.24572" lon="5.9921">
        <ele>1355.7</ele>
        <time>2014-10-18T15:56:53Z</time>
      </trkpt>
      <trkpt lat="45.24577" lon="5.99196">
        <ele>1354.9</ele>
        <time>2014-10-18T15:56:55Z</time>
      </trkpt>
      <trkpt lat="45.24583" lon="5.99183">
        <ele>1354.5</ele>
        <time>2014-10-18T15:56:57Z</time>
      </trkpt>
      <trkpt lat="45.24588" lon="5.99169">
        <ele>1353.8</ele>
        <time>2014-10-18T15:56:59Z</time>
      </trkpt>
      <trkpt lat="45.24594" lon="5.99155">
        <ele>1353.1</ele>
        <time>2014-10-18T15:57:01Z</time>
      </trkpt>
      <trkpt lat="45.246" lon="5.99139">
        <ele>1352.4</ele>
        <time>2014-10-18T15:57:03Z</time>
      </trkpt>
      <trkpt lat="45.24604" lon="5.99123">
        <ele>1352.1</ele>
        <time>2014-10-18T15:57:05Z</time>
      </trkpt>
      <trkpt lat="45.24611" lon="5.99107">
        <ele>1351.5</ele>
        <time>2014-10-18T15:57:07Z</time>
      </trkpt>
      <trkpt lat="45.24618" lon="5.9909">
        <ele>1351.1</ele>
        <time>2014-10-18T15:57:09Z</time>
      </trkpt>
      <trkpt lat="45.24622" lon="5.99072">
        <ele>1350.4</ele>
        <time>2014-10-18T15:57:11Z</time>
      </trkpt>
      <trkpt lat="45.24628" lon="5.99055">
        <ele>1349.6</ele>
        <time>2014-10-18T15:57:13Z</time>
      </trkpt>
      <trkpt lat="45.24633" lon="5.99037">
        <ele>1349</ele>
        <time>2014-10-18T15:57:15Z</time>
      </trkpt>
      <trkpt lat="45.24639" lon="5.99018">
        <ele>1348.4</ele>
        <time>2014-10-18T15:57:17Z</time>
      </trkpt>
      <trkpt lat="45.24645" lon="5.99">
        <ele>1347.9</ele>
        <time>2014-10-18T15:57:19Z</time>
      </trkpt>
      <trkpt lat="45.2465" lon="5.98982">
        <ele>1347.7</ele>
        <time>2014-10-18T15:57:21Z</time>
      </trkpt>
      <trkpt lat="45.24655" lon="5.98963">
        <ele>1347.6</ele>
        <time>2014-10-18T15:57:23Z</time>
      </trkpt>
      <trkpt lat="45.24657" lon="5.98944">
        <ele>1347</ele>
        <time>2014-10-18T15:57:25Z</time>
      </trkpt>
      <trkpt lat="45.2466" lon="5.98924">
        <ele>1345.8</ele>
        <time>2014-10-18T15:57:27Z</time>
      </trkpt>
      <trkpt lat="45.24663" lon="5.98905">
        <ele>1345.3</ele>
        <time>2014-10-18T15:57:29Z</time>
      </trkpt>
      <trkpt lat="45.24666" lon="5.98886">
        <ele>1344.9</ele>
        <time>2014-10-18T15:57:31Z</time>
      </trkpt>
      <trkpt lat="45.2467" lon="5.98868">
        <ele>1344.4</ele>
        <time>2014-10-18T15:57:33Z</time>
      </trkpt>
      <trkpt lat="45.24674" lon="5.9885">
        <ele>1344.1</ele>
        <time>2014-10-18T15:57:35Z</time>
      </trkpt>
      <trkpt lat="45.24679" lon="5.98833">
        <ele>1343.2</ele>
        <time>2014-10-18T15:57:37Z</time>
      </trkpt>
      <trkpt lat="45.24683" lon="5.98815">
        <ele>1342.8</ele>
        <time>2014-10-18T15:57:39Z</time>
      </trkpt>
      <trkpt lat="45.24684" lon="5.98797">
        <ele>1342.3</ele>
        <time>2014-10-18T15:57:41Z</time>
      </trkpt>
      <trkpt lat="45.24685" lon="5.9878">
        <ele>1342</ele>
        <time>2014-10-18T15:57:43Z</time>
      </trkpt>
      <trkpt lat="45.24681" lon="5.98763">
        <ele>1341.8</ele>
        <time>2014-10-18T15:57:45Z</time>
      </trkpt>
      <trkpt lat="45.24676" lon="5.98749">
        <ele>1341.7</ele>
        <time>2014-10-18T15:57:47Z</time>
      </trkpt>
      <trkpt lat="45.24667" lon="5.98738">
        <ele>1341</ele>
        <time>2014-10-18T15:57:50Z</time>
      </trkpt>
      <trkpt lat="45.2466" lon="5.98728">
        <ele>1318.1</ele>
        <time>2014-10-18T15:57:53Z</time>
      </trkpt>
      <trkpt lat="45.24653" lon="5.98719">
        <ele>1335.4</ele>
        <time>2014-10-18T15:57:58Z</time>
      </trkpt>
      <trkpt lat="45.24648" lon="5.98705">
        <ele>1338</ele>
        <time>2014-10-18T15:58:03Z</time>
      </trkpt>
      <trkpt lat="45.24645" lon="5.9869">
        <ele>1338.8</ele>
        <time>2014-10-18T15:58:07Z</time>
      </trkpt>
      <trkpt lat="45.2464" lon="5.98676">
        <ele>1339.1</ele>
        <time>2014-10-18T15:58:10Z</time>
      </trkpt>
      <trkpt lat="45.24635" lon="5.98662">
        <ele>1339</ele>
        <time>2014-10-18T15:58:13Z</time>
      </trkpt>
      <trkpt lat="45.24628" lon="5.9865">
        <ele>1338.8</ele>
        <time>2014-10-18T15:58:16Z</time>
      </trkpt>
      <trkpt lat="45.24621" lon="5.98641">
        <ele>1338.5</ele>
        <time>2014-10-18T15:58:18Z</time>
      </trkpt>
      <trkpt lat="45.24613" lon="5.9863">
        <ele>1338.2</ele>
        <time>2014-10-18T15:58:21Z</time>
      </trkpt>
      <trkpt lat="45.24603" lon="5.98621">
        <ele>1337.8</ele>
        <time>2014-10-18T15:58:24Z</time>
      </trkpt>
      <trkpt lat="45.24594" lon="5.98615">
        <ele>1338.6</ele>
        <time>2014-10-18T15:58:26Z</time>
      </trkpt>
      <trkpt lat="45.24584" lon="5.98611">
        <ele>1337.1</ele>
        <time>2014-10-18T15:58:28Z</time>
      </trkpt>
      <trkpt lat="45.24574" lon="5.98606">
        <ele>1336.8</ele>
        <time>2014-10-18T15:58:30Z</time>
      </trkpt>
      <trkpt lat="45.24562" lon="5.98601">
        <ele>1336.3</ele>
        <time>2014-10-18T15:58:32Z</time>
      </trkpt>
      <trkpt lat="45.2455" lon="5.98598">
        <ele>1335.7</ele>
        <time>2014-10-18T15:58:34Z</time>
      </trkpt>
      <trkpt lat="45.24537" lon="5.98599">
        <ele>1335.2</ele>
        <time>2014-10-18T15:58:36Z</time>
      </trkpt>
      <trkpt lat="45.24525" lon="5.98605">
        <ele>1334.2</ele>
        <time>2014-10-18T15:58:38Z</time>
      </trkpt>
      <trkpt lat="45.24512" lon="5.98615">
        <ele>1333.1</ele>
        <time>2014-10-18T15:58:40Z</time>
      </trkpt>
      <trkpt lat="45.245" lon="5.98622">
        <ele>1332.5</ele>
        <time>2014-10-18T15:58:42Z</time>
      </trkpt>
      <trkpt lat="45.24487" lon="5.98628">
        <ele>1331.9</ele>
        <time>2014-10-18T15:58:44Z</time>
      </trkpt>
      <trkpt lat="45.24474" lon="5.98633">
        <ele>1331.4</ele>
        <time>2014-10-18T15:58:46Z</time>
      </trkpt>
      <trkpt lat="45.24461" lon="5.98638">
        <ele>1330.5</ele>
        <time>2014-10-18T15:58:48Z</time>
      </trkpt>
      <trkpt lat="45.24449" lon="5.98643">
        <ele>1330.3</ele>
        <time>2014-10-18T15:58:50Z</time>
      </trkpt>
      <trkpt lat="45.24436" lon="5.98648">
        <ele>1329.9</ele>
        <time>2014-10-18T15:58:52Z</time>
      </trkpt>
      <trkpt lat="45.24423" lon="5.98653">
        <ele>1329.5</ele>
        <time>2014-10-18T15:58:54Z</time>
      </trkpt>
      <trkpt lat="45.24411" lon="5.98658">
        <ele>1328.5</ele>
        <time>2014-10-18T15:58:56Z</time>
      </trkpt>
      <trkpt lat="45.24399" lon="5.98662">
        <ele>1327.7</ele>
        <time>2014-10-18T15:58:58Z</time>
      </trkpt>
      <trkpt lat="45.24387" lon="5.98666">
        <ele>1328.1</ele>
        <time>2014-10-18T15:59:00Z</time>
      </trkpt>
      <trkpt lat="45.24376" lon="5.9867">
        <ele>1327.6</ele>
        <time>2014-10-18T15:59:02Z</time>
      </trkpt>
      <trkpt lat="45.24363" lon="5.98672">
        <ele>1327.2</ele>
        <time>2014-10-18T15:59:04Z</time>
      </trkpt>
      <trkpt lat="45.2435" lon="5.98673">
        <ele>1326.2</ele>
        <time>2014-10-18T15:59:06Z</time>
      </trkpt>
      <trkpt lat="45.24337" lon="5.98673">
        <ele>1325.9</ele>
        <time>2014-10-18T15:59:08Z</time>
      </trkpt>
      <trkpt lat="45.24325" lon="5.98677">
        <ele>1324.7</ele>
        <time>2014-10-18T15:59:10Z</time>
      </trkpt>
      <trkpt lat="45.24313" lon="5.98686">
        <ele>1324.2</ele>
        <time>2014-10-18T15:59:12Z</time>
      </trkpt>
      <trkpt lat="45.24302" lon="5.98699">
        <ele>1323.1</ele>
        <time>2014-10-18T15:59:14Z</time>
      </trkpt>
      <trkpt lat="45.24292" lon="5.98712">
        <ele>1322.5</ele>
        <time>2014-10-18T15:59:16Z</time>
      </trkpt>
      <trkpt lat="45.2428" lon="5.98723">
        <ele>1321.8</ele>
        <time>2014-10-18T15:59:18Z</time>
      </trkpt>
      <trkpt lat="45.24267" lon="5.98732">
        <ele>1320.5</ele>
        <time>2014-10-18T15:59:20Z</time>
      </trkpt>
      <trkpt lat="45.24254" lon="5.9874">
        <ele>1319.4</ele>
        <time>2014-10-18T15:59:22Z</time>
      </trkpt>
      <trkpt lat="45.24241" lon="5.98748">
        <ele>1320</ele>
        <time>2014-10-18T15:59:24Z</time>
      </trkpt>
      <trkpt lat="45.24229" lon="5.98757">
        <ele>1318.9</ele>
        <time>2014-10-18T15:59:26Z</time>
      </trkpt>
      <trkpt lat="45.24219" lon="5.9877">
        <ele>1319.4</ele>
        <time>2014-10-18T15:59:28Z</time>
      </trkpt>
      <trkpt lat="45.24208" lon="5.98781">
        <ele>1318.5</ele>
        <time>2014-10-18T15:59:30Z</time>
      </trkpt>
      <trkpt lat="45.24198" lon="5.98789">
        <ele>1318.1</ele>
        <time>2014-10-18T15:59:32Z</time>
      </trkpt>
      <trkpt lat="45.24186" lon="5.98795">
        <ele>1317.8</ele>
        <time>2014-10-18T15:59:34Z</time>
      </trkpt>
      <trkpt lat="45.24175" lon="5.98798">
        <ele>1317.6</ele>
        <time>2014-10-18T15:59:36Z</time>
      </trkpt>
      <trkpt lat="45.24163" lon="5.988">
        <ele>1316.7</ele>
        <time>2014-10-18T15:59:38Z</time>
      </trkpt>
      <trkpt lat="45.24152" lon="5.98799">
        <ele>1316.5</ele>
        <time>2014-10-18T15:59:40Z</time>
      </trkpt>
      <trkpt lat="45.24142" lon="5.98798">
        <ele>1316.3</ele>
        <time>2014-10-18T15:59:42Z</time>
      </trkpt>
      <trkpt lat="45.24131" lon="5.98797">
        <ele>1315.9</ele>
        <time>2014-10-18T15:59:44Z</time>
      </trkpt>
      <trkpt lat="45.2412" lon="5.98795">
        <ele>1315.5</ele>
        <time>2014-10-18T15:59:46Z</time>
      </trkpt>
      <trkpt lat="45.24107" lon="5.98794">
        <ele>1314.7</ele>
        <time>2014-10-18T15:59:48Z</time>
      </trkpt>
      <trkpt lat="45.24094" lon="5.98793">
        <ele>1313.8</ele>
        <time>2014-10-18T15:59:50Z</time>
      </trkpt>
      <trkpt lat="45.24082" lon="5.98792">
        <ele>1312.9</ele>
        <time>2014-10-18T15:59:52Z</time>
      </trkpt>
      <trkpt lat="45.24069" lon="5.98793">
        <ele>1312.6</ele>
        <time>2014-10-18T15:59:54Z</time>
      </trkpt>
      <trkpt lat="45.24056" lon="5.98795">
        <ele>1310.7</ele>
        <time>2014-10-18T15:59:56Z</time>
      </trkpt>
      <trkpt lat="45.24044" lon="5.98799">
        <ele>1310.2</ele>
        <time>2014-10-18T15:59:58Z</time>
      </trkpt>
      <trkpt lat="45.24031" lon="5.98806">
        <ele>1309.6</ele>
        <time>2014-10-18T16:00:00Z</time>
      </trkpt>
      <trkpt lat="45.24019" lon="5.98813">
        <ele>1309.1</ele>
        <time>2014-10-18T16:00:02Z</time>
      </trkpt>
      <trkpt lat="45.24009" lon="5.98819">
        <ele>1309.1</ele>
        <time>2014-10-18T16:00:04Z</time>
      </trkpt>
      <trkpt lat="45.23999" lon="5.98823">
        <ele>1308.5</ele>
        <time>2014-10-18T16:00:06Z</time>
      </trkpt>
      <trkpt lat="45.23988" lon="5.98826">
        <ele>1307.5</ele>
        <time>2014-10-18T16:00:08Z</time>
      </trkpt>
      <trkpt lat="45.23976" lon="5.98827">
        <ele>1307.2</ele>
        <time>2014-10-18T16:00:10Z</time>
      </trkpt>
      <trkpt lat="45.23966" lon="5.98826">
        <ele>1306.5</ele>
        <time>2014-10-18T16:00:12Z</time>
      </trkpt>
      <trkpt lat="45.23956" lon="5.98824">
        <ele>1305</ele>
        <time>2014-10-18T16:00:14Z</time>
      </trkpt>
      <trkpt lat="45.23945" lon="5.98821">
        <ele>1303.6</ele>
        <time>2014-10-18T16:00:16Z</time>
      </trkpt>
      <trkpt lat="45.23935" lon="5.98815">
        <ele>1302.6</ele>
        <time>2014-10-18T16:00:18Z</time>
      </trkpt>
      <trkpt lat="45.23925" lon="5.98804">
        <ele>1301.1</ele>
        <time>2014-10-18T16:00:20Z</time>
      </trkpt>
      <trkpt lat="45.23914" lon="5.98793">
        <ele>1301</ele>
        <time>2014-10-18T16:00:22Z</time>
      </trkpt>
      <trkpt lat="45.23903" lon="5.98786">
        <ele>1300.1</ele>
        <time>2014-10-18T16:00:24Z</time>
      </trkpt>
      <trkpt lat="45.23891" lon="5.98785">
        <ele>1298.5</ele>
        <time>2014-10-18T16:00:26Z</time>
      </trkpt>
      <trkpt lat="45.23878" lon="5.98784">
        <ele>1296.2</ele>
        <time>2014-10-18T16:00:28Z</time>
      </trkpt>
      <trkpt lat="45.23864" lon="5.98782">
        <ele>1295.1</ele>
        <time>2014-10-18T16:00:30Z</time>
      </trkpt>
      <trkpt lat="45.23848" lon="5.98779">
        <ele>1294</ele>
        <time>2014-10-18T16:00:32Z</time>
      </trkpt>
      <trkpt lat="45.23833" lon="5.98776">
        <ele>1292.8</ele>
        <time>2014-10-18T16:00:34Z</time>
      </trkpt>
      <trkpt lat="45.23819" lon="5.98777">
        <ele>1292.2</ele>
        <time>2014-10-18T16:00:36Z</time>
      </trkpt>
      <trkpt lat="45.23805" lon="5.98777">
        <ele>1291.3</ele>
        <time>2014-10-18T16:00:38Z</time>
      </trkpt>
      <trkpt lat="45.23792" lon="5.9878">
        <ele>1290.9</ele>
        <time>2014-10-18T16:00:40Z</time>
      </trkpt>
      <trkpt lat="45.23777" lon="5.98784">
        <ele>1289.5</ele>
        <time>2014-10-18T16:00:42Z</time>
      </trkpt>
      <trkpt lat="45.23761" lon="5.98789">
        <ele>1287.9</ele>
        <time>2014-10-18T16:00:44Z</time>
      </trkpt>
      <trkpt lat="45.23751" lon="5.98791">
        <ele>1287.1</ele>
        <time>2014-10-18T16:00:45Z</time>
      </trkpt>
      <trkpt lat="45.23742" lon="5.98792">
        <ele>1286.5</ele>
        <time>2014-10-18T16:00:46Z</time>
      </trkpt>
      <trkpt lat="45.23733" lon="5.98791">
        <ele>1285.8</ele>
        <time>2014-10-18T16:00:47Z</time>
      </trkpt>
      <trkpt lat="45.23724" lon="5.98791">
        <ele>1284.7</ele>
        <time>2014-10-18T16:00:48Z</time>
      </trkpt>
      <trkpt lat="45.23707" lon="5.98788">
        <ele>1283.6</ele>
        <time>2014-10-18T16:00:50Z</time>
      </trkpt>
      <trkpt lat="45.23691" lon="5.98789">
        <ele>1281.8</ele>
        <time>2014-10-18T16:00:52Z</time>
      </trkpt>
      <trkpt lat="45.23673" lon="5.98789">
        <ele>1280.6</ele>
        <time>2014-10-18T16:00:54Z</time>
      </trkpt>
      <trkpt lat="45.23664" lon="5.98788">
        <ele>1280.3</ele>
        <time>2014-10-18T16:00:55Z</time>
      </trkpt>
      <trkpt lat="45.23655" lon="5.98788">
        <ele>1279.5</ele>
        <time>2014-10-18T16:00:56Z</time>
      </trkpt>
      <trkpt lat="45.23646" lon="5.98788">
        <ele>1279</ele>
        <time>2014-10-18T16:00:57Z</time>
      </trkpt>
      <trkpt lat="45.23637" lon="5.98788">
        <ele>1278.6</ele>
        <time>2014-10-18T16:00:58Z</time>
      </trkpt>
      <trkpt lat="45.23627" lon="5.98788">
        <ele>1277.6</ele>
        <time>2014-10-18T16:00:59Z</time>
      </trkpt>
      <trkpt lat="45.23617" lon="5.98788">
        <ele>1276.9</ele>
        <time>2014-10-18T16:01:00Z</time>
      </trkpt>
      <trkpt lat="45.23608" lon="5.98789">
        <ele>1276.2</ele>
        <time>2014-10-18T16:01:01Z</time>
      </trkpt>
      <trkpt lat="45.23598" lon="5.98791">
        <ele>1275.6</ele>
        <time>2014-10-18T16:01:02Z</time>
      </trkpt>
      <trkpt lat="45.23588" lon="5.98792">
        <ele>1275.3</ele>
        <time>2014-10-18T16:01:03Z</time>
      </trkpt>
      <trkpt lat="45.23572" lon="5.98793">
        <ele>1273.5</ele>
        <time>2014-10-18T16:01:05Z</time>
      </trkpt>
      <trkpt lat="45.23563" lon="5.98793">
        <ele>1271.6</ele>
        <time>2014-10-18T16:01:08Z</time>
      </trkpt>
      <trkpt lat="45.23568" lon="5.98779">
        <ele>1270</ele>
        <time>2014-10-18T16:01:13Z</time>
      </trkpt>
      <trkpt lat="45.23579" lon="5.98764">
        <ele>1268.1</ele>
        <time>2014-10-18T16:01:16Z</time>
      </trkpt>
      <trkpt lat="45.23589" lon="5.98752">
        <ele>1266</ele>
        <time>2014-10-18T16:01:18Z</time>
      </trkpt>
      <trkpt lat="45.23597" lon="5.98737">
        <ele>1263.2</ele>
        <time>2014-10-18T16:01:20Z</time>
      </trkpt>
      <trkpt lat="45.23603" lon="5.98721">
        <ele>1261</ele>
        <time>2014-10-18T16:01:22Z</time>
      </trkpt>
      <trkpt lat="45.23607" lon="5.98707">
        <ele>1258.5</ele>
        <time>2014-10-18T16:01:24Z</time>
      </trkpt>
      <trkpt lat="45.23611" lon="5.98694">
        <ele>1256.6</ele>
        <time>2014-10-18T16:01:26Z</time>
      </trkpt>
      <trkpt lat="45.23615" lon="5.98682">
        <ele>1254.5</ele>
        <time>2014-10-18T16:01:28Z</time>
      </trkpt>
      <trkpt lat="45.23622" lon="5.98668">
        <ele>1251.6</ele>
        <time>2014-10-18T16:01:31Z</time>
      </trkpt>
      <trkpt lat="45.2363" lon="5.9866">
        <ele>1249.4</ele>
        <time>2014-10-18T16:01:34Z</time>
      </trkpt>
      <trkpt lat="45.23641" lon="5.98659">
        <ele>1247.2</ele>
        <time>2014-10-18T16:01:37Z</time>
      </trkpt>
      <trkpt lat="45.23652" lon="5.98648">
        <ele>1245.6</ele>
        <time>2014-10-18T16:01:40Z</time>
      </trkpt>
      <trkpt lat="45.23658" lon="5.98636">
        <ele>1244.3</ele>
        <time>2014-10-18T16:01:42Z</time>
      </trkpt>
      <trkpt lat="45.23665" lon="5.98627">
        <ele>1243.5</ele>
        <time>2014-10-18T16:01:44Z</time>
      </trkpt>
      <trkpt lat="45.23676" lon="5.98616">
        <ele>1242.5</ele>
        <time>2014-10-18T16:01:47Z</time>
      </trkpt>
      <trkpt lat="45.23687" lon="5.98614">
        <ele>1240.1</ele>
        <time>2014-10-18T16:01:51Z</time>
      </trkpt>
      <trkpt lat="45.23696" lon="5.98609">
        <ele>1237.6</ele>
        <time>2014-10-18T16:01:55Z</time>
      </trkpt>
      <trkpt lat="45.23705" lon="5.98606">
        <ele>1234.1</ele>
        <time>2014-10-18T16:01:59Z</time>
      </trkpt>
      <trkpt lat="45.23716" lon="5.98598">
        <ele>1230.4</ele>
        <time>2014-10-18T16:02:04Z</time>
      </trkpt>
      <trkpt lat="45.23725" lon="5.98592">
        <ele>1229.1</ele>
        <time>2014-10-18T16:02:07Z</time>
      </trkpt>
      <trkpt lat="45.23734" lon="5.98588">
        <ele>1226.6</ele>
        <time>2014-10-18T16:02:10Z</time>
      </trkpt>
      <trkpt lat="45.23744" lon="5.9858">
        <ele>1224.5</ele>
        <time>2014-10-18T16:02:14Z</time>
      </trkpt>
      <trkpt lat="45.23756" lon="5.98575">
        <ele>1223.5</ele>
        <time>2014-10-18T16:02:17Z</time>
      </trkpt>
      <trkpt lat="45.23766" lon="5.98573">
        <ele>1222.3</ele>
        <time>2014-10-18T16:02:20Z</time>
      </trkpt>
      <trkpt lat="45.23776" lon="5.98573">
        <ele>1220.9</ele>
        <time>2014-10-18T16:02:26Z</time>
      </trkpt>
      <trkpt lat="45.23786" lon="5.98577">
        <ele>1220</ele>
        <time>2014-10-18T16:02:33Z</time>
      </trkpt>
      <trkpt lat="45.23798" lon="5.98581">
        <ele>1219</ele>
        <time>2014-10-18T16:02:36Z</time>
      </trkpt>
      <trkpt lat="45.23808" lon="5.98581">
        <ele>1217.1</ele>
        <time>2014-10-18T16:02:39Z</time>
      </trkpt>
      <trkpt lat="45.23819" lon="5.98581">
        <ele>1215.1</ele>
        <time>2014-10-18T16:02:42Z</time>
      </trkpt>
      <trkpt lat="45.23829" lon="5.98573">
        <ele>1211.7</ele>
        <time>2014-10-18T16:02:46Z</time>
      </trkpt>
      <trkpt lat="45.23833" lon="5.9856">
        <ele>1210.7</ele>
        <time>2014-10-18T16:02:49Z</time>
      </trkpt>
      <trkpt lat="45.23842" lon="5.98552">
        <ele>1208.9</ele>
        <time>2014-10-18T16:02:52Z</time>
      </trkpt>
      <trkpt lat="45.23851" lon="5.98546">
        <ele>1206.9</ele>
        <time>2014-10-18T16:02:55Z</time>
      </trkpt>
      <trkpt lat="45.23859" lon="5.98539">
        <ele>1205.7</ele>
        <time>2014-10-18T16:02:59Z</time>
      </trkpt>
      <trkpt lat="45.23867" lon="5.98526">
        <ele>1202.7</ele>
        <time>2014-10-18T16:03:03Z</time>
      </trkpt>
      <trkpt lat="45.23875" lon="5.98514">
        <ele>1201.2</ele>
        <time>2014-10-18T16:03:07Z</time>
      </trkpt>
      <trkpt lat="45.23887" lon="5.98507">
        <ele>1199.2</ele>
        <time>2014-10-18T16:03:10Z</time>
      </trkpt>
      <trkpt lat="45.23897" lon="5.98501">
        <ele>1197.4</ele>
        <time>2014-10-18T16:03:13Z</time>
      </trkpt>
      <trkpt lat="45.23907" lon="5.98495">
        <ele>1194.4</ele>
        <time>2014-10-18T16:03:15Z</time>
      </trkpt>
      <trkpt lat="45.23915" lon="5.98487">
        <ele>1193</ele>
        <time>2014-10-18T16:03:17Z</time>
      </trkpt>
      <trkpt lat="45.23926" lon="5.9848">
        <ele>1191.4</ele>
        <time>2014-10-18T16:03:19Z</time>
      </trkpt>
      <trkpt lat="45.23934" lon="5.98474">
        <ele>1189.3</ele>
        <time>2014-10-18T16:03:21Z</time>
      </trkpt>
      <trkpt lat="45.23945" lon="5.98467">
        <ele>1188.5</ele>
        <time>2014-10-18T16:03:23Z</time>
      </trkpt>
      <trkpt lat="45.23957" lon="5.98457">
        <ele>1187.2</ele>
        <time>2014-10-18T16:03:25Z</time>
      </trkpt>
      <trkpt lat="45.23969" lon="5.98444">
        <ele>1186</ele>
        <time>2014-10-18T16:03:27Z</time>
      </trkpt>
      <trkpt lat="45.23979" lon="5.98433">
        <ele>1185</ele>
        <time>2014-10-18T16:03:29Z</time>
      </trkpt>
      <trkpt lat="45.23986" lon="5.98422">
        <ele>1184</ele>
        <time>2014-10-18T16:03:32Z</time>
      </trkpt>
      <trkpt lat="45.2399" lon="5.98408">
        <ele>1182.7</ele>
        <time>2014-10-18T16:03:37Z</time>
      </trkpt>
      <trkpt lat="45.23995" lon="5.98397">
        <ele>1181.7</ele>
        <time>2014-10-18T16:03:42Z</time>
      </trkpt>
      <trkpt lat="45.23997" lon="5.98383">
        <ele>1180.6</ele>
        <time>2014-10-18T16:03:48Z</time>
      </trkpt>
      <trkpt lat="45.23999" lon="5.9837">
        <ele>1180.1</ele>
        <time>2014-10-18T16:03:53Z</time>
      </trkpt>
      <trkpt lat="45.24001" lon="5.98355">
        <ele>1178.9</ele>
        <time>2014-10-18T16:03:57Z</time>
      </trkpt>
      <trkpt lat="45.24007" lon="5.98344">
        <ele>1177.3</ele>
        <time>2014-10-18T16:04:02Z</time>
      </trkpt>
      <trkpt lat="45.24017" lon="5.98342">
        <ele>1175.1</ele>
        <time>2014-10-18T16:04:08Z</time>
      </trkpt>
      <trkpt lat="45.24027" lon="5.98337">
        <ele>1171.5</ele>
        <time>2014-10-18T16:04:14Z</time>
      </trkpt>
      <trkpt lat="45.24039" lon="5.98333">
        <ele>1169</ele>
        <time>2014-10-18T16:04:20Z</time>
      </trkpt>
      <trkpt lat="45.24049" lon="5.98325">
        <ele>1166.4</ele>
        <time>2014-10-18T16:04:26Z</time>
      </trkpt>
      <trkpt lat="45.24059" lon="5.9832">
        <ele>1163.2</ele>
        <time>2014-10-18T16:04:30Z</time>
      </trkpt>
      <trkpt lat="45.24067" lon="5.98312">
        <ele>1160.9</ele>
        <time>2014-10-18T16:04:35Z</time>
      </trkpt>
      <trkpt lat="45.24077" lon="5.98304">
        <ele>1159.1</ele>
        <time>2014-10-18T16:04:39Z</time>
      </trkpt>
      <trkpt lat="45.24084" lon="5.9829">
        <ele>1158</ele>
        <time>2014-10-18T16:04:42Z</time>
      </trkpt>
      <trkpt lat="45.24089" lon="5.98278">
        <ele>1157.3</ele>
        <time>2014-10-18T16:04:44Z</time>
      </trkpt>
      <trkpt lat="45.24093" lon="5.98265">
        <ele>1156.3</ele>
        <time>2014-10-18T16:04:46Z</time>
      </trkpt>
      <trkpt lat="45.24097" lon="5.98252">
        <ele>1155.2</ele>
        <time>2014-10-18T16:04:48Z</time>
      </trkpt>
      <trkpt lat="45.241" lon="5.98239">
        <ele>1154.5</ele>
        <time>2014-10-18T16:04:50Z</time>
      </trkpt>
      <trkpt lat="45.24104" lon="5.98224">
        <ele>1153.9</ele>
        <time>2014-10-18T16:04:53Z</time>
      </trkpt>
      <trkpt lat="45.2411" lon="5.98214">
        <ele>1153.4</ele>
        <time>2014-10-18T16:04:57Z</time>
      </trkpt>
      <trkpt lat="45.24119" lon="5.98203">
        <ele>1153.3</ele>
        <time>2014-10-18T16:05:02Z</time>
      </trkpt>
      <trkpt lat="45.24127" lon="5.98193">
        <ele>1152.8</ele>
        <time>2014-10-18T16:05:07Z</time>
      </trkpt>
      <trkpt lat="45.24135" lon="5.98177">
        <ele>1151.9</ele>
        <time>2014-10-18T16:05:10Z</time>
      </trkpt>
      <trkpt lat="45.24141" lon="5.98167">
        <ele>1151.2</ele>
        <time>2014-10-18T16:05:12Z</time>
      </trkpt>
      <trkpt lat="45.24147" lon="5.98152">
        <ele>1149.3</ele>
        <time>2014-10-18T16:05:15Z</time>
      </trkpt>
      <trkpt lat="45.24153" lon="5.98139">
        <ele>1147.6</ele>
        <time>2014-10-18T16:05:18Z</time>
      </trkpt>
      <trkpt lat="45.2416" lon="5.98127">
        <ele>1145.4</ele>
        <time>2014-10-18T16:05:21Z</time>
      </trkpt>
      <trkpt lat="45.24167" lon="5.98117">
        <ele>1143.2</ele>
        <time>2014-10-18T16:05:23Z</time>
      </trkpt>
      <trkpt lat="45.24172" lon="5.98107">
        <ele>1141.9</ele>
        <time>2014-10-18T16:05:25Z</time>
      </trkpt>
      <trkpt lat="45.24181" lon="5.98095">
        <ele>1139.3</ele>
        <time>2014-10-18T16:05:28Z</time>
      </trkpt>
      <trkpt lat="45.24189" lon="5.98085">
        <ele>1137.6</ele>
        <time>2014-10-18T16:05:31Z</time>
      </trkpt>
      <trkpt lat="45.24196" lon="5.98069">
        <ele>1134.1</ele>
        <time>2014-10-18T16:05:34Z</time>
      </trkpt>
      <trkpt lat="45.24203" lon="5.98054">
        <ele>1131.3</ele>
        <time>2014-10-18T16:05:37Z</time>
      </trkpt>
      <trkpt lat="45.24208" lon="5.98042">
        <ele>1128.9</ele>
        <time>2014-10-18T16:05:40Z</time>
      </trkpt>
      <trkpt lat="45.24218" lon="5.98034">
        <ele>1126.1</ele>
        <time>2014-10-18T16:05:44Z</time>
      </trkpt>
      <trkpt lat="45.24227" lon="5.98028">
        <ele>1123.8</ele>
        <time>2014-10-18T16:05:47Z</time>
      </trkpt>
      <trkpt lat="45.24234" lon="5.98018">
        <ele>1121.2</ele>
        <time>2014-10-18T16:05:54Z</time>
      </trkpt>
      <trkpt lat="45.24243" lon="5.98016">
        <ele>1121</ele>
        <time>2014-10-18T16:05:57Z</time>
      </trkpt>
      <trkpt lat="45.24255" lon="5.98011">
        <ele>1120.3</ele>
        <time>2014-10-18T16:06:00Z</time>
      </trkpt>
      <trkpt lat="45.24265" lon="5.98007">
        <ele>1119.1</ele>
        <time>2014-10-18T16:06:02Z</time>
      </trkpt>
      <trkpt lat="45.24275" lon="5.98002">
        <ele>1118</ele>
        <time>2014-10-18T16:06:05Z</time>
      </trkpt>
      <trkpt lat="45.24283" lon="5.97993">
        <ele>1115.4</ele>
        <time>2014-10-18T16:06:39Z</time>
      </trkpt>
      <trkpt lat="45.24291" lon="5.9798">
        <ele>1114.1</ele>
        <time>2014-10-18T16:06:43Z</time>
      </trkpt>
      <trkpt lat="45.24299" lon="5.97973">
        <ele>1112.7</ele>
        <time>2014-10-18T16:06:45Z</time>
      </trkpt>
      <trkpt lat="45.24308" lon="5.97968">
        <ele>1111</ele>
        <time>2014-10-18T16:06:47Z</time>
      </trkpt>
      <trkpt lat="45.24319" lon="5.97961">
        <ele>1108.2</ele>
        <time>2014-10-18T16:06:50Z</time>
      </trkpt>
      <trkpt lat="45.24328" lon="5.97955">
        <ele>1107</ele>
        <time>2014-10-18T16:06:53Z</time>
      </trkpt>
      <trkpt lat="45.24339" lon="5.97947">
        <ele>1105.4</ele>
        <time>2014-10-18T16:06:56Z</time>
      </trkpt>
      <trkpt lat="45.24347" lon="5.9794">
        <ele>1104.8</ele>
        <time>2014-10-18T16:06:58Z</time>
      </trkpt>
      <trkpt lat="45.24357" lon="5.97932">
        <ele>1103.3</ele>
        <time>2014-10-18T16:07:00Z</time>
      </trkpt>
      <trkpt lat="45.24366" lon="5.97924">
        <ele>1102.3</ele>
        <time>2014-10-18T16:07:02Z</time>
      </trkpt>
      <trkpt lat="45.24375" lon="5.97916">
        <ele>1100.1</ele>
        <time>2014-10-18T16:07:04Z</time>
      </trkpt>
      <trkpt lat="45.24384" lon="5.9791">
        <ele>1100.2</ele>
        <time>2014-10-18T16:07:06Z</time>
      </trkpt>
      <trkpt lat="45.24393" lon="5.97898">
        <ele>1098.4</ele>
        <time>2014-10-18T16:07:09Z</time>
      </trkpt>
      <trkpt lat="45.244" lon="5.97886">
        <ele>1097.2</ele>
        <time>2014-10-18T16:07:12Z</time>
      </trkpt>
      <trkpt lat="45.2441" lon="5.97876">
        <ele>1094.8</ele>
        <time>2014-10-18T16:07:15Z</time>
      </trkpt>
      <trkpt lat="45.24417" lon="5.97869">
        <ele>1093.9</ele>
        <time>2014-10-18T16:07:17Z</time>
      </trkpt>
      <trkpt lat="45.24426" lon="5.97859">
        <ele>1092.8</ele>
        <time>2014-10-18T16:07:20Z</time>
      </trkpt>
      <trkpt lat="45.24435" lon="5.97853">
        <ele>1092.3</ele>
        <time>2014-10-18T16:07:23Z</time>
      </trkpt>
      <trkpt lat="45.24443" lon="5.97848">
        <ele>1091</ele>
        <time>2014-10-18T16:07:29Z</time>
      </trkpt>
      <trkpt lat="45.24453" lon="5.97843">
        <ele>1089.1</ele>
        <time>2014-10-18T16:07:39Z</time>
      </trkpt>
      <trkpt lat="45.24461" lon="5.97837">
        <ele>1088.2</ele>
        <time>2014-10-18T16:07:42Z</time>
      </trkpt>
      <trkpt lat="45.24472" lon="5.97829">
        <ele>1087</ele>
        <time>2014-10-18T16:07:46Z</time>
      </trkpt>
      <trkpt lat="45.24483" lon="5.97818">
        <ele>1085.8</ele>
        <time>2014-10-18T16:07:49Z</time>
      </trkpt>
      <trkpt lat="45.24491" lon="5.97812">
        <ele>1085.2</ele>
        <time>2014-10-18T16:07:51Z</time>
      </trkpt>
      <trkpt lat="45.245" lon="5.97804">
        <ele>1084.1</ele>
        <time>2014-10-18T16:07:53Z</time>
      </trkpt>
      <trkpt lat="45.24509" lon="5.97795">
        <ele>1082.8</ele>
        <time>2014-10-18T16:07:55Z</time>
      </trkpt>
      <trkpt lat="45.24519" lon="5.97785">
        <ele>1081.7</ele>
        <time>2014-10-18T16:07:57Z</time>
      </trkpt>
      <trkpt lat="45.24527" lon="5.97777">
        <ele>1080.1</ele>
        <time>2014-10-18T16:07:59Z</time>
      </trkpt>
      <trkpt lat="45.24535" lon="5.97768">
        <ele>1078.5</ele>
        <time>2014-10-18T16:08:02Z</time>
      </trkpt>
      <trkpt lat="45.24543" lon="5.97759">
        <ele>1078.1</ele>
        <time>2014-10-18T16:08:05Z</time>
      </trkpt>
      <trkpt lat="45.24553" lon="5.97748">
        <ele>1076.9</ele>
        <time>2014-10-18T16:08:08Z</time>
      </trkpt>
      <trkpt lat="45.2456" lon="5.97739">
        <ele>1075.3</ele>
        <time>2014-10-18T16:08:10Z</time>
      </trkpt>
      <trkpt lat="45.24567" lon="5.9773">
        <ele>1075.2</ele>
        <time>2014-10-18T16:08:12Z</time>
      </trkpt>
      <trkpt lat="45.24579" lon="5.9772">
        <ele>1072.5</ele>
        <time>2014-10-18T16:08:15Z</time>
      </trkpt>
      <trkpt lat="45.24588" lon="5.97713">
        <ele>1072</ele>
        <time>2014-10-18T16:08:17Z</time>
      </trkpt>
      <trkpt lat="45.24597" lon="5.97704">
        <ele>1071.8</ele>
        <time>2014-10-18T16:08:19Z</time>
      </trkpt>
      <trkpt lat="45.24608" lon="5.97694">
        <ele>1070.4</ele>
        <time>2014-10-18T16:08:21Z</time>
      </trkpt>
      <trkpt lat="45.24618" lon="5.9768">
        <ele>1069</ele>
        <time>2014-10-18T16:08:23Z</time>
      </trkpt>
      <trkpt lat="45.24626" lon="5.97669">
        <ele>1067.4</ele>
        <time>2014-10-18T16:08:25Z</time>
      </trkpt>
      <trkpt lat="45.24634" lon="5.97658">
        <ele>1065.5</ele>
        <time>2014-10-18T16:08:27Z</time>
      </trkpt>
      <trkpt lat="45.24643" lon="5.97647">
        <ele>1064.6</ele>
        <time>2014-10-18T16:08:29Z</time>
      </trkpt>
      <trkpt lat="45.24654" lon="5.97636">
        <ele>1064.3</ele>
        <time>2014-10-18T16:08:31Z</time>
      </trkpt>
      <trkpt lat="45.24664" lon="5.97628">
        <ele>1063.6</ele>
        <time>2014-10-18T16:08:33Z</time>
      </trkpt>
      <trkpt lat="45.24675" lon="5.9762">
        <ele>1061.9</ele>
        <time>2014-10-18T16:08:35Z</time>
      </trkpt>
      <trkpt lat="45.24688" lon="5.97613">
        <ele>1061.5</ele>
        <time>2014-10-18T16:08:37Z</time>
      </trkpt>
      <trkpt lat="45.24701" lon="5.97607">
        <ele>1060.5</ele>
        <time>2014-10-18T16:08:39Z</time>
      </trkpt>
      <trkpt lat="45.24714" lon="5.97602">
        <ele>1059.7</ele>
        <time>2014-10-18T16:08:41Z</time>
      </trkpt>
      <trkpt lat="45.24726" lon="5.97596">
        <ele>1058.7</ele>
        <time>2014-10-18T16:08:43Z</time>
      </trkpt>
      <trkpt lat="45.24737" lon="5.97586">
        <ele>1057.9</ele>
        <time>2014-10-18T16:08:45Z</time>
      </trkpt>
      <trkpt lat="45.24748" lon="5.97574">
        <ele>1057.3</ele>
        <time>2014-10-18T16:08:47Z</time>
      </trkpt>
      <trkpt lat="45.24758" lon="5.97564">
        <ele>1056.8</ele>
        <time>2014-10-18T16:08:49Z</time>
      </trkpt>
      <trkpt lat="45.2477" lon="5.97553">
        <ele>1056.8</ele>
        <time>2014-10-18T16:08:51Z</time>
      </trkpt>
      <trkpt lat="45.24782" lon="5.9754">
        <ele>1054.2</ele>
        <time>2014-10-18T16:08:53Z</time>
      </trkpt>
      <trkpt lat="45.24794" lon="5.97528">
        <ele>1054.6</ele>
        <time>2014-10-18T16:08:55Z</time>
      </trkpt>
      <trkpt lat="45.24807" lon="5.97517">
        <ele>1053.7</ele>
        <time>2014-10-18T16:08:57Z</time>
      </trkpt>
      <trkpt lat="45.24821" lon="5.97511">
        <ele>1052.8</ele>
        <time>2014-10-18T16:08:59Z</time>
      </trkpt>
      <trkpt lat="45.24833" lon="5.97508">
        <ele>1052.1</ele>
        <time>2014-10-18T16:09:02Z</time>
      </trkpt>
      <trkpt lat="45.24843" lon="5.97502">
        <ele>1051.5</ele>
        <time>2014-10-18T16:09:05Z</time>
      </trkpt>
      <trkpt lat="45.24852" lon="5.97494">
        <ele>1050.8</ele>
        <time>2014-10-18T16:09:07Z</time>
      </trkpt>
      <trkpt lat="45.24862" lon="5.97483">
        <ele>1049.7</ele>
        <time>2014-10-18T16:09:09Z</time>
      </trkpt>
      <trkpt lat="45.24874" lon="5.97469">
        <ele>1048.5</ele>
        <time>2014-10-18T16:09:11Z</time>
      </trkpt>
      <trkpt lat="45.24887" lon="5.97453">
        <ele>1047.1</ele>
        <time>2014-10-18T16:09:13Z</time>
      </trkpt>
      <trkpt lat="45.24895" lon="5.97445">
        <ele>1046.3</ele>
        <time>2014-10-18T16:09:14Z</time>
      </trkpt>
      <trkpt lat="45.24902" lon="5.97436">
        <ele>1045.4</ele>
        <time>2014-10-18T16:09:15Z</time>
      </trkpt>
      <trkpt lat="45.2491" lon="5.97427">
        <ele>1044.4</ele>
        <time>2014-10-18T16:09:16Z</time>
      </trkpt>
      <trkpt lat="45.24918" lon="5.97417">
        <ele>1043.5</ele>
        <time>2014-10-18T16:09:17Z</time>
      </trkpt>
      <trkpt lat="45.24925" lon="5.97409">
        <ele>1042.4</ele>
        <time>2014-10-18T16:09:18Z</time>
      </trkpt>
      <trkpt lat="45.24938" lon="5.97396">
        <ele>1040.8</ele>
        <time>2014-10-18T16:09:20Z</time>
      </trkpt>
      <trkpt lat="45.2495" lon="5.97381">
        <ele>1039.5</ele>
        <time>2014-10-18T16:09:22Z</time>
      </trkpt>
      <trkpt lat="45.24964" lon="5.97366">
        <ele>1038.3</ele>
        <time>2014-10-18T16:09:24Z</time>
      </trkpt>
      <trkpt lat="45.24979" lon="5.97351">
        <ele>1036.8</ele>
        <time>2014-10-18T16:09:26Z</time>
      </trkpt>
      <trkpt lat="45.24994" lon="5.97339">
        <ele>1035.9</ele>
        <time>2014-10-18T16:09:28Z</time>
      </trkpt>
      <trkpt lat="45.25009" lon="5.97331">
        <ele>1035</ele>
        <time>2014-10-18T16:09:30Z</time>
      </trkpt>
      <trkpt lat="45.25026" lon="5.97326">
        <ele>1034</ele>
        <time>2014-10-18T16:09:32Z</time>
      </trkpt>
      <trkpt lat="45.25041" lon="5.97319">
        <ele>1033.4</ele>
        <time>2014-10-18T16:09:34Z</time>
      </trkpt>
      <trkpt lat="45.25051" lon="5.97307">
        <ele>1032.8</ele>
        <time>2014-10-18T16:09:36Z</time>
      </trkpt>
      <trkpt lat="45.25058" lon="5.97293">
        <ele>1032.1</ele>
        <time>2014-10-18T16:09:38Z</time>
      </trkpt>
      <trkpt lat="45.25062" lon="5.97275">
        <ele>1031.6</ele>
        <time>2014-10-18T16:09:40Z</time>
      </trkpt>
      <trkpt lat="45.25064" lon="5.97256">
        <ele>1031</ele>
        <time>2014-10-18T16:09:42Z</time>
      </trkpt>
      <trkpt lat="45.25065" lon="5.97238">
        <ele>1030.6</ele>
        <time>2014-10-18T16:09:44Z</time>
      </trkpt>
      <trkpt lat="45.25066" lon="5.97219">
        <ele>1029.9</ele>
        <time>2014-10-18T16:09:46Z</time>
      </trkpt>
      <trkpt lat="45.25067" lon="5.97202">
        <ele>1028.9</ele>
        <time>2014-10-18T16:09:48Z</time>
      </trkpt>
      <trkpt lat="45.25066" lon="5.97189">
        <ele>1027.8</ele>
        <time>2014-10-18T16:09:50Z</time>
      </trkpt>
      <trkpt lat="45.25066" lon="5.97176">
        <ele>1026.2</ele>
        <time>2014-10-18T16:09:53Z</time>
      </trkpt>
      <trkpt lat="45.25066" lon="5.97158">
        <ele>1024.8</ele>
        <time>2014-10-18T16:09:58Z</time>
      </trkpt>
      <trkpt lat="45.25069" lon="5.97141">
        <ele>1024</ele>
        <time>2014-10-18T16:10:01Z</time>
      </trkpt>
      <trkpt lat="45.2507" lon="5.97128">
        <ele>1023.3</ele>
        <time>2014-10-18T16:10:03Z</time>
      </trkpt>
      <trkpt lat="45.25072" lon="5.97115">
        <ele>1022.8</ele>
        <time>2014-10-18T16:10:05Z</time>
      </trkpt>
      <trkpt lat="45.25076" lon="5.97103">
        <ele>1022.5</ele>
        <time>2014-10-18T16:10:07Z</time>
      </trkpt>
      <trkpt lat="45.25083" lon="5.97092">
        <ele>1022.2</ele>
        <time>2014-10-18T16:10:09Z</time>
      </trkpt>
      <trkpt lat="45.25088" lon="5.9708">
        <ele>1021.8</ele>
        <time>2014-10-18T16:10:11Z</time>
      </trkpt>
      <trkpt lat="45.25091" lon="5.97066">
        <ele>1021.3</ele>
        <time>2014-10-18T16:10:13Z</time>
      </trkpt>
      <trkpt lat="45.25094" lon="5.97052">
        <ele>1019.9</ele>
        <time>2014-10-18T16:10:15Z</time>
      </trkpt>
      <trkpt lat="45.25097" lon="5.97035">
        <ele>1017.5</ele>
        <time>2014-10-18T16:10:18Z</time>
      </trkpt>
      <trkpt lat="45.25098" lon="5.97021">
        <ele>1015.8</ele>
        <time>2014-10-18T16:10:22Z</time>
      </trkpt>
      <trkpt lat="45.25099" lon="5.97005">
        <ele>1014.9</ele>
        <time>2014-10-18T16:10:26Z</time>
      </trkpt>
      <trkpt lat="45.25101" lon="5.96991">
        <ele>1013.9</ele>
        <time>2014-10-18T16:10:28Z</time>
      </trkpt>
      <trkpt lat="45.25105" lon="5.96972">
        <ele>1012.2</ele>
        <time>2014-10-18T16:10:30Z</time>
      </trkpt>
      <trkpt lat="45.25108" lon="5.96951">
        <ele>1010.7</ele>
        <time>2014-10-18T16:10:32Z</time>
      </trkpt>
      <trkpt lat="45.25111" lon="5.96932">
        <ele>1009.2</ele>
        <time>2014-10-18T16:10:34Z</time>
      </trkpt>
      <trkpt lat="45.25113" lon="5.96912">
        <ele>1008.3</ele>
        <time>2014-10-18T16:10:36Z</time>
      </trkpt>
      <trkpt lat="45.25116" lon="5.96891">
        <ele>1007</ele>
        <time>2014-10-18T16:10:38Z</time>
      </trkpt>
      <trkpt lat="45.25119" lon="5.9687">
        <ele>1006.3</ele>
        <time>2014-10-18T16:10:40Z</time>
      </trkpt>
      <trkpt lat="45.25124" lon="5.96852">
        <ele>1005.6</ele>
        <time>2014-10-18T16:10:42Z</time>
      </trkpt>
      <trkpt lat="45.25134" lon="5.96839">
        <ele>1004.3</ele>
        <time>2014-10-18T16:10:44Z</time>
      </trkpt>
      <trkpt lat="45.25149" lon="5.96825">
        <ele>1002.8</ele>
        <time>2014-10-18T16:10:46Z</time>
      </trkpt>
      <trkpt lat="45.25164" lon="5.96816">
        <ele>1001.1</ele>
        <time>2014-10-18T16:10:48Z</time>
      </trkpt>
      <trkpt lat="45.25178" lon="5.96815">
        <ele>999.6</ele>
        <time>2014-10-18T16:10:50Z</time>
      </trkpt>
      <trkpt lat="45.25192" lon="5.96823">
        <ele>998.2</ele>
        <time>2014-10-18T16:10:52Z</time>
      </trkpt>
      <trkpt lat="45.25204" lon="5.9683">
        <ele>996.3</ele>
        <time>2014-10-18T16:10:54Z</time>
      </trkpt>
      <trkpt lat="45.25215" lon="5.9683">
        <ele>994.7</ele>
        <time>2014-10-18T16:10:56Z</time>
      </trkpt>
      <trkpt lat="45.25228" lon="5.96819">
        <ele>992.9</ele>
        <time>2014-10-18T16:10:58Z</time>
      </trkpt>
      <trkpt lat="45.25239" lon="5.96806">
        <ele>991.7</ele>
        <time>2014-10-18T16:11:00Z</time>
      </trkpt>
      <trkpt lat="45.25241" lon="5.9679">
        <ele>990.7</ele>
        <time>2014-10-18T16:11:03Z</time>
      </trkpt>
      <trkpt lat="45.25232" lon="5.96786">
        <ele>988.8</ele>
        <time>2014-10-18T16:11:14Z</time>
      </trkpt>
      <trkpt lat="45.25238" lon="5.96774">
        <ele>986.4</ele>
        <time>2014-10-18T16:15:35Z</time>
      </trkpt>
      <trkpt lat="45.25235" lon="5.96758">
        <ele>985.7</ele>
        <time>2014-10-18T16:15:39Z</time>
      </trkpt>
      <trkpt lat="45.2523" lon="5.96747">
        <ele>985.1</ele>
        <time>2014-10-18T16:15:41Z</time>
      </trkpt>
      <trkpt lat="45.25223" lon="5.96732">
        <ele>984.5</ele>
        <time>2014-10-18T16:15:43Z</time>
      </trkpt>
      <trkpt lat="45.25216" lon="5.96714">
        <ele>983.4</ele>
        <time>2014-10-18T16:15:45Z</time>
      </trkpt>
      <trkpt lat="45.2521" lon="5.96693">
        <ele>982.5</ele>
        <time>2014-10-18T16:15:47Z</time>
      </trkpt>
      <trkpt lat="45.25205" lon="5.96669">
        <ele>981.2</ele>
        <time>2014-10-18T16:15:49Z</time>
      </trkpt>
      <trkpt lat="45.25203" lon="5.96656">
        <ele>980.7</ele>
        <time>2014-10-18T16:15:50Z</time>
      </trkpt>
      <trkpt lat="45.252" lon="5.96643">
        <ele>980</ele>
        <time>2014-10-18T16:15:51Z</time>
      </trkpt>
      <trkpt lat="45.25198" lon="5.96631">
        <ele>979.4</ele>
        <time>2014-10-18T16:15:52Z</time>
      </trkpt>
      <trkpt lat="45.25194" lon="5.96608">
        <ele>978.1</ele>
        <time>2014-10-18T16:15:54Z</time>
      </trkpt>
      <trkpt lat="45.25191" lon="5.96592">
        <ele>976.6</ele>
        <time>2014-10-18T16:15:56Z</time>
      </trkpt>
      <trkpt lat="45.25187" lon="5.96579">
        <ele>975.1</ele>
        <time>2014-10-18T16:16:00Z</time>
      </trkpt>
      <trkpt lat="45.25186" lon="5.96594">
        <ele>972.9</ele>
        <time>2014-10-18T16:16:05Z</time>
      </trkpt>
      <trkpt lat="45.25183" lon="5.96612">
        <ele>972.2</ele>
        <time>2014-10-18T16:16:08Z</time>
      </trkpt>
      <trkpt lat="45.25177" lon="5.96621">
        <ele>971.6</ele>
        <time>2014-10-18T16:16:10Z</time>
      </trkpt>
      <trkpt lat="45.25168" lon="5.96627">
        <ele>970.6</ele>
        <time>2014-10-18T16:16:12Z</time>
      </trkpt>
      <trkpt lat="45.25157" lon="5.96621">
        <ele>969.8</ele>
        <time>2014-10-18T16:16:15Z</time>
      </trkpt>
      <trkpt lat="45.25148" lon="5.96611">
        <ele>969.3</ele>
        <time>2014-10-18T16:16:18Z</time>
      </trkpt>
      <trkpt lat="45.25141" lon="5.966">
        <ele>969.1</ele>
        <time>2014-10-18T16:16:21Z</time>
      </trkpt>
      <trkpt lat="45.25134" lon="5.9659">
        <ele>968.7</ele>
        <time>2014-10-18T16:16:24Z</time>
      </trkpt>
      <trkpt lat="45.25127" lon="5.9658">
        <ele>968.9</ele>
        <time>2014-10-18T16:16:27Z</time>
      </trkpt>
      <trkpt lat="45.25119" lon="5.96572">
        <ele>968.8</ele>
        <time>2014-10-18T16:16:30Z</time>
      </trkpt>
      <trkpt lat="45.25112" lon="5.9656">
        <ele>968.8</ele>
        <time>2014-10-18T16:16:34Z</time>
      </trkpt>
      <trkpt lat="45.25104" lon="5.96551">
        <ele>969.4</ele>
        <time>2014-10-18T16:16:38Z</time>
      </trkpt>
      <trkpt lat="45.25098" lon="5.96541">
        <ele>969.7</ele>
        <time>2014-10-18T16:16:42Z</time>
      </trkpt>
      <trkpt lat="45.25092" lon="5.96531">
        <ele>969.4</ele>
        <time>2014-10-18T16:16:45Z</time>
      </trkpt>
      <trkpt lat="45.25084" lon="5.96517">
        <ele>967.6</ele>
        <time>2014-10-18T16:16:48Z</time>
      </trkpt>
      <trkpt lat="45.25077" lon="5.96509">
        <ele>966.3</ele>
        <time>2014-10-18T16:16:51Z</time>
      </trkpt>
      <trkpt lat="45.25065" lon="5.96513">
        <ele>964.6</ele>
        <time>2014-10-18T16:16:55Z</time>
      </trkpt>
      <trkpt lat="45.25053" lon="5.9652">
        <ele>962.9</ele>
        <time>2014-10-18T16:16:58Z</time>
      </trkpt>
      <trkpt lat="45.25042" lon="5.96524">
        <ele>960.7</ele>
        <time>2014-10-18T16:17:00Z</time>
      </trkpt>
      <trkpt lat="45.2503" lon="5.9653">
        <ele>958.9</ele>
        <time>2014-10-18T16:17:02Z</time>
      </trkpt>
      <trkpt lat="45.2502" lon="5.96536">
        <ele>957.3</ele>
        <time>2014-10-18T16:17:04Z</time>
      </trkpt>
      <trkpt lat="45.25011" lon="5.96542">
        <ele>955.5</ele>
        <time>2014-10-18T16:17:06Z</time>
      </trkpt>
      <trkpt lat="45.25002" lon="5.96547">
        <ele>953.3</ele>
        <time>2014-10-18T16:17:08Z</time>
      </trkpt>
      <trkpt lat="45.2499" lon="5.96554">
        <ele>950.4</ele>
        <time>2014-10-18T16:17:10Z</time>
      </trkpt>
      <trkpt lat="45.24978" lon="5.96561">
        <ele>948.3</ele>
        <time>2014-10-18T16:17:12Z</time>
      </trkpt>
      <trkpt lat="45.2497" lon="5.9657">
        <ele>946.9</ele>
        <time>2014-10-18T16:17:14Z</time>
      </trkpt>
      <trkpt lat="45.24964" lon="5.96582">
        <ele>945.8</ele>
        <time>2014-10-18T16:17:16Z</time>
      </trkpt>
      <trkpt lat="45.24959" lon="5.96594">
        <ele>944.4</ele>
        <time>2014-10-18T16:17:18Z</time>
      </trkpt>
      <trkpt lat="45.24951" lon="5.96607">
        <ele>943.5</ele>
        <time>2014-10-18T16:17:21Z</time>
      </trkpt>
      <trkpt lat="45.24938" lon="5.96615">
        <ele>942</ele>
        <time>2014-10-18T16:17:23Z</time>
      </trkpt>
      <trkpt lat="45.24923" lon="5.96622">
        <ele>940</ele>
        <time>2014-10-18T16:17:25Z</time>
      </trkpt>
      <trkpt lat="45.2491" lon="5.96627">
        <ele>938.3</ele>
        <time>2014-10-18T16:17:27Z</time>
      </trkpt>
      <trkpt lat="45.24897" lon="5.96631">
        <ele>937.8</ele>
        <time>2014-10-18T16:17:29Z</time>
      </trkpt>
      <trkpt lat="45.24887" lon="5.96634">
        <ele>936.9</ele>
        <time>2014-10-18T16:17:31Z</time>
      </trkpt>
      <trkpt lat="45.24876" lon="5.96641">
        <ele>936.2</ele>
        <time>2014-10-18T16:17:34Z</time>
      </trkpt>
      <trkpt lat="45.24867" lon="5.96645">
        <ele>934.7</ele>
        <time>2014-10-18T16:17:36Z</time>
      </trkpt>
      <trkpt lat="45.24857" lon="5.96644">
        <ele>933.9</ele>
        <time>2014-10-18T16:17:38Z</time>
      </trkpt>
      <trkpt lat="45.24845" lon="5.9664">
        <ele>930.5</ele>
        <time>2014-10-18T16:17:41Z</time>
      </trkpt>
      <trkpt lat="45.24833" lon="5.96637">
        <ele>929.1</ele>
        <time>2014-10-18T16:17:44Z</time>
      </trkpt>
      <trkpt lat="45.24821" lon="5.96639">
        <ele>927.9</ele>
        <time>2014-10-18T16:17:46Z</time>
      </trkpt>
      <trkpt lat="45.24808" lon="5.96644">
        <ele>925.7</ele>
        <time>2014-10-18T16:17:48Z</time>
      </trkpt>
      <trkpt lat="45.24796" lon="5.96648">
        <ele>923.2</ele>
        <time>2014-10-18T16:17:50Z</time>
      </trkpt>
      <trkpt lat="45.24783" lon="5.96652">
        <ele>921.4</ele>
        <time>2014-10-18T16:17:52Z</time>
      </trkpt>
      <trkpt lat="45.24769" lon="5.96657">
        <ele>918.7</ele>
        <time>2014-10-18T16:17:54Z</time>
      </trkpt>
      <trkpt lat="45.24754" lon="5.96661">
        <ele>915.7</ele>
        <time>2014-10-18T16:17:56Z</time>
      </trkpt>
      <trkpt lat="45.24739" lon="5.96666">
        <ele>913.4</ele>
        <time>2014-10-18T16:17:58Z</time>
      </trkpt>
      <trkpt lat="45.24725" lon="5.9667">
        <ele>910.7</ele>
        <time>2014-10-18T16:18:00Z</time>
      </trkpt>
      <trkpt lat="45.24715" lon="5.96674">
        <ele>908.5</ele>
        <time>2014-10-18T16:18:02Z</time>
      </trkpt>
      <trkpt lat="45.24701" lon="5.96679">
        <ele>905.6</ele>
        <time>2014-10-18T16:18:05Z</time>
      </trkpt>
      <trkpt lat="45.2469" lon="5.96686">
        <ele>903.9</ele>
        <time>2014-10-18T16:18:07Z</time>
      </trkpt>
      <trkpt lat="45.24679" lon="5.96692">
        <ele>901.8</ele>
        <time>2014-10-18T16:18:09Z</time>
      </trkpt>
      <trkpt lat="45.24669" lon="5.96695">
        <ele>900.3</ele>
        <time>2014-10-18T16:18:11Z</time>
      </trkpt>
      <trkpt lat="45.2466" lon="5.96703">
        <ele>898.7</ele>
        <time>2014-10-18T16:18:13Z</time>
      </trkpt>
      <trkpt lat="45.24654" lon="5.96716">
        <ele>897.3</ele>
        <time>2014-10-18T16:18:15Z</time>
      </trkpt>
      <trkpt lat="45.24647" lon="5.96726">
        <ele>896.5</ele>
        <time>2014-10-18T16:18:17Z</time>
      </trkpt>
      <trkpt lat="45.24636" lon="5.96735">
        <ele>896</ele>
        <time>2014-10-18T16:18:20Z</time>
      </trkpt>
      <trkpt lat="45.24626" lon="5.9674">
        <ele>896.2</ele>
        <time>2014-10-18T16:18:23Z</time>
      </trkpt>
      <trkpt lat="45.24618" lon="5.96745">
        <ele>896.5</ele>
        <time>2014-10-18T16:18:26Z</time>
      </trkpt>
      <trkpt lat="45.24608" lon="5.96747">
        <ele>896.7</ele>
        <time>2014-10-18T16:18:29Z</time>
      </trkpt>
      <trkpt lat="45.246" lon="5.96755">
        <ele>897</ele>
        <time>2014-10-18T16:18:33Z</time>
      </trkpt>
      <trkpt lat="45.24592" lon="5.96763">
        <ele>896.9</ele>
        <time>2014-10-18T16:18:37Z</time>
      </trkpt>
      <trkpt lat="45.24585" lon="5.96772">
        <ele>897.2</ele>
        <time>2014-10-18T16:18:40Z</time>
      </trkpt>
      <trkpt lat="45.24576" lon="5.96781">
        <ele>897.7</ele>
        <time>2014-10-18T16:18:43Z</time>
      </trkpt>
      <trkpt lat="45.24567" lon="5.96791">
        <ele>898.1</ele>
        <time>2014-10-18T16:18:46Z</time>
      </trkpt>
      <trkpt lat="45.24558" lon="5.96797">
        <ele>898.8</ele>
        <time>2014-10-18T16:18:49Z</time>
      </trkpt>
      <trkpt lat="45.24547" lon="5.96794">
        <ele>899</ele>
        <time>2014-10-18T16:18:52Z</time>
      </trkpt>
      <trkpt lat="45.24534" lon="5.96785">
        <ele>898.7</ele>
        <time>2014-10-18T16:18:55Z</time>
      </trkpt>
      <trkpt lat="45.24525" lon="5.96777">
        <ele>897.9</ele>
        <time>2014-10-18T16:18:57Z</time>
      </trkpt>
      <trkpt lat="45.24514" lon="5.96767">
        <ele>897.3</ele>
        <time>2014-10-18T16:18:59Z</time>
      </trkpt>
      <trkpt lat="45.24501" lon="5.96756">
        <ele>896.2</ele>
        <time>2014-10-18T16:19:01Z</time>
      </trkpt>
      <trkpt lat="45.24487" lon="5.96742">
        <ele>895.1</ele>
        <time>2014-10-18T16:19:03Z</time>
      </trkpt>
      <trkpt lat="45.24472" lon="5.9673">
        <ele>893.9</ele>
        <time>2014-10-18T16:19:05Z</time>
      </trkpt>
      <trkpt lat="45.24455" lon="5.96729">
        <ele>892.9</ele>
        <time>2014-10-18T16:19:07Z</time>
      </trkpt>
      <trkpt lat="45.24439" lon="5.96736">
        <ele>891.8</ele>
        <time>2014-10-18T16:19:09Z</time>
      </trkpt>
      <trkpt lat="45.24422" lon="5.96744">
        <ele>890.9</ele>
        <time>2014-10-18T16:19:11Z</time>
      </trkpt>
      <trkpt lat="45.24414" lon="5.96749">
        <ele>890.1</ele>
        <time>2014-10-18T16:19:12Z</time>
      </trkpt>
      <trkpt lat="45.24405" lon="5.96754">
        <ele>889.5</ele>
        <time>2014-10-18T16:19:13Z</time>
      </trkpt>
      <trkpt lat="45.24396" lon="5.96758">
        <ele>888.8</ele>
        <time>2014-10-18T16:19:14Z</time>
      </trkpt>
      <trkpt lat="45.24386" lon="5.9676">
        <ele>888.2</ele>
        <time>2014-10-18T16:19:15Z</time>
      </trkpt>
      <trkpt lat="45.24377" lon="5.96762">
        <ele>887.6</ele>
        <time>2014-10-18T16:19:16Z</time>
      </trkpt>
      <trkpt lat="45.2436" lon="5.96764">
        <ele>886.3</ele>
        <time>2014-10-18T16:19:18Z</time>
      </trkpt>
      <trkpt lat="45.2435" lon="5.96756">
        <ele>885.4</ele>
        <time>2014-10-18T16:19:20Z</time>
      </trkpt>
      <trkpt lat="45.24345" lon="5.96742">
        <ele>884.8</ele>
        <time>2014-10-18T16:19:22Z</time>
      </trkpt>
      <trkpt lat="45.24345" lon="5.96727">
        <ele>884.6</ele>
        <time>2014-10-18T16:19:24Z</time>
      </trkpt>
      <trkpt lat="45.24349" lon="5.96712">
        <ele>884.3</ele>
        <time>2014-10-18T16:19:26Z</time>
      </trkpt>
      <trkpt lat="45.24355" lon="5.96702">
        <ele>884.6</ele>
        <time>2014-10-18T16:19:28Z</time>
      </trkpt>
      <trkpt lat="45.24366" lon="5.96691">
        <ele>885.1</ele>
        <time>2014-10-18T16:19:31Z</time>
      </trkpt>
      <trkpt lat="45.24374" lon="5.96683">
        <ele>885.7</ele>
        <time>2014-10-18T16:19:33Z</time>
      </trkpt>
      <trkpt lat="45.24383" lon="5.96672">
        <ele>886.5</ele>
        <time>2014-10-18T16:19:36Z</time>
      </trkpt>
      <trkpt lat="45.2439" lon="5.9666">
        <ele>887.3</ele>
        <time>2014-10-18T16:19:39Z</time>
      </trkpt>
      <trkpt lat="45.24395" lon="5.96647">
        <ele>888</ele>
        <time>2014-10-18T16:19:42Z</time>
      </trkpt>
      <trkpt lat="45.244" lon="5.96636">
        <ele>888.5</ele>
        <time>2014-10-18T16:19:45Z</time>
      </trkpt>
      <trkpt lat="45.24405" lon="5.96625">
        <ele>889.5</ele>
        <time>2014-10-18T16:19:48Z</time>
      </trkpt>
      <trkpt lat="45.24409" lon="5.96613">
        <ele>890.1</ele>
        <time>2014-10-18T16:19:51Z</time>
      </trkpt>
      <trkpt lat="45.24413" lon="5.966">
        <ele>890.8</ele>
        <time>2014-10-18T16:19:54Z</time>
      </trkpt>
      <trkpt lat="45.24415" lon="5.96587">
        <ele>891.1</ele>
        <time>2014-10-18T16:19:57Z</time>
      </trkpt>
      <trkpt lat="45.24416" lon="5.96573">
        <ele>891.5</ele>
        <time>2014-10-18T16:20:00Z</time>
      </trkpt>
      <trkpt lat="45.24416" lon="5.96559">
        <ele>891.7</ele>
        <time>2014-10-18T16:20:03Z</time>
      </trkpt>
      <trkpt lat="45.24417" lon="5.96544">
        <ele>892</ele>
        <time>2014-10-18T16:20:06Z</time>
      </trkpt>
      <trkpt lat="45.24417" lon="5.96529">
        <ele>892.1</ele>
        <time>2014-10-18T16:20:09Z</time>
      </trkpt>
      <trkpt lat="45.24416" lon="5.96512">
        <ele>891.7</ele>
        <time>2014-10-18T16:20:12Z</time>
      </trkpt>
      <trkpt lat="45.24415" lon="5.96496">
        <ele>891.6</ele>
        <time>2014-10-18T16:20:15Z</time>
      </trkpt>
      <trkpt lat="45.24415" lon="5.96477">
        <ele>891.3</ele>
        <time>2014-10-18T16:20:18Z</time>
      </trkpt>
      <trkpt lat="45.24415" lon="5.96463">
        <ele>891</ele>
        <time>2014-10-18T16:20:20Z</time>
      </trkpt>
      <trkpt lat="45.24416" lon="5.96448">
        <ele>890.8</ele>
        <time>2014-10-18T16:20:22Z</time>
      </trkpt>
      <trkpt lat="45.24417" lon="5.96433">
        <ele>890.6</ele>
        <time>2014-10-18T16:20:24Z</time>
      </trkpt>
      <trkpt lat="45.24418" lon="5.96417">
        <ele>890.6</ele>
        <time>2014-10-18T16:20:26Z</time>
      </trkpt>
      <trkpt lat="45.24419" lon="5.96402">
        <ele>890.5</ele>
        <time>2014-10-18T16:20:28Z</time>
      </trkpt>
      <trkpt lat="45.2442" lon="5.96387">
        <ele>890.3</ele>
        <time>2014-10-18T16:20:30Z</time>
      </trkpt>
      <trkpt lat="45.24421" lon="5.96373">
        <ele>890.2</ele>
        <time>2014-10-18T16:20:32Z</time>
      </trkpt>
      <trkpt lat="45.24421" lon="5.96355">
        <ele>890.1</ele>
        <time>2014-10-18T16:20:35Z</time>
      </trkpt>
      <trkpt lat="45.24421" lon="5.96341">
        <ele>889.8</ele>
        <time>2014-10-18T16:20:38Z</time>
      </trkpt>
      <trkpt lat="45.24426" lon="5.96328">
        <ele>889.6</ele>
        <time>2014-10-18T16:20:42Z</time>
      </trkpt>
      <trkpt lat="45.24437" lon="5.9632">
        <ele>888.8</ele>
        <time>2014-10-18T16:20:45Z</time>
      </trkpt>
      <trkpt lat="45.24448" lon="5.96317">
        <ele>888.2</ele>
        <time>2014-10-18T16:20:47Z</time>
      </trkpt>
      <trkpt lat="45.24461" lon="5.96317">
        <ele>887.5</ele>
        <time>2014-10-18T16:20:49Z</time>
      </trkpt>
      <trkpt lat="45.24475" lon="5.96318">
        <ele>886.5</ele>
        <time>2014-10-18T16:20:51Z</time>
      </trkpt>
      <trkpt lat="45.24491" lon="5.96318">
        <ele>885.6</ele>
        <time>2014-10-18T16:20:53Z</time>
      </trkpt>
      <trkpt lat="45.24508" lon="5.96313">
        <ele>884.7</ele>
        <time>2014-10-18T16:20:55Z</time>
      </trkpt>
      <trkpt lat="45.24525" lon="5.96303">
        <ele>883.7</ele>
        <time>2014-10-18T16:20:57Z</time>
      </trkpt>
      <trkpt lat="45.24533" lon="5.96298">
        <ele>883.1</ele>
        <time>2014-10-18T16:20:58Z</time>
      </trkpt>
      <trkpt lat="45.24542" lon="5.96292">
        <ele>882.6</ele>
        <time>2014-10-18T16:20:59Z</time>
      </trkpt>
      <trkpt lat="45.24551" lon="5.96287">
        <ele>881.8</ele>
        <time>2014-10-18T16:21:00Z</time>
      </trkpt>
      <trkpt lat="45.24566" lon="5.96274">
        <ele>880.4</ele>
        <time>2014-10-18T16:21:02Z</time>
      </trkpt>
      <trkpt lat="45.24578" lon="5.96256">
        <ele>879.4</ele>
        <time>2014-10-18T16:21:04Z</time>
      </trkpt>
      <trkpt lat="45.24587" lon="5.96233">
        <ele>877.9</ele>
        <time>2014-10-18T16:21:06Z</time>
      </trkpt>
      <trkpt lat="45.2459" lon="5.96221">
        <ele>877.2</ele>
        <time>2014-10-18T16:21:07Z</time>
      </trkpt>
      <trkpt lat="45.24592" lon="5.96208">
        <ele>876.5</ele>
        <time>2014-10-18T16:21:08Z</time>
      </trkpt>
      <trkpt lat="45.24595" lon="5.96195">
        <ele>876</ele>
        <time>2014-10-18T16:21:09Z</time>
      </trkpt>
      <trkpt lat="45.24597" lon="5.96181">
        <ele>875.3</ele>
        <time>2014-10-18T16:21:10Z</time>
      </trkpt>
      <trkpt lat="45.24599" lon="5.96167">
        <ele>874.6</ele>
        <time>2014-10-18T16:21:11Z</time>
      </trkpt>
      <trkpt lat="45.24601" lon="5.96153">
        <ele>874.1</ele>
        <time>2014-10-18T16:21:12Z</time>
      </trkpt>
      <trkpt lat="45.24603" lon="5.96138">
        <ele>873.6</ele>
        <time>2014-10-18T16:21:13Z</time>
      </trkpt>
      <trkpt lat="45.24606" lon="5.96124">
        <ele>872.9</ele>
        <time>2014-10-18T16:21:14Z</time>
      </trkpt>
      <trkpt lat="45.24608" lon="5.96109">
        <ele>872.3</ele>
        <time>2014-10-18T16:21:15Z</time>
      </trkpt>
      <trkpt lat="45.24611" lon="5.96095">
        <ele>871.7</ele>
        <time>2014-10-18T16:21:16Z</time>
      </trkpt>
      <trkpt lat="45.24614" lon="5.9608">
        <ele>871</ele>
        <time>2014-10-18T16:21:17Z</time>
      </trkpt>
      <trkpt lat="45.24618" lon="5.96066">
        <ele>870.5</ele>
        <time>2014-10-18T16:21:18Z</time>
      </trkpt>
      <trkpt lat="45.24622" lon="5.96051">
        <ele>869.8</ele>
        <time>2014-10-18T16:21:19Z</time>
      </trkpt>
      <trkpt lat="45.24625" lon="5.96036">
        <ele>869.1</ele>
        <time>2014-10-18T16:21:20Z</time>
      </trkpt>
      <trkpt lat="45.24629" lon="5.9602">
        <ele>868.4</ele>
        <time>2014-10-18T16:21:21Z</time>
      </trkpt>
      <trkpt lat="45.24633" lon="5.96005">
        <ele>867.7</ele>
        <time>2014-10-18T16:21:22Z</time>
      </trkpt>
      <trkpt lat="45.24636" lon="5.95989">
        <ele>866.9</ele>
        <time>2014-10-18T16:21:23Z</time>
      </trkpt>
      <trkpt lat="45.24639" lon="5.95973">
        <ele>866.1</ele>
        <time>2014-10-18T16:21:24Z</time>
      </trkpt>
      <trkpt lat="45.24642" lon="5.95957">
        <ele>865.9</ele>
        <time>2014-10-18T16:21:25Z</time>
      </trkpt>
      <trkpt lat="45.24646" lon="5.95941">
        <ele>865.1</ele>
        <time>2014-10-18T16:21:26Z</time>
      </trkpt>
      <trkpt lat="45.2465" lon="5.95925">
        <ele>864.3</ele>
        <time>2014-10-18T16:21:27Z</time>
      </trkpt>
      <trkpt lat="45.24654" lon="5.9591">
        <ele>863.6</ele>
        <time>2014-10-18T16:21:28Z</time>
      </trkpt>
      <trkpt lat="45.24659" lon="5.95895">
        <ele>863.3</ele>
        <time>2014-10-18T16:21:29Z</time>
      </trkpt>
      <trkpt lat="45.24663" lon="5.9588">
        <ele>862.5</ele>
        <time>2014-10-18T16:21:30Z</time>
      </trkpt>
      <trkpt lat="45.24667" lon="5.95865">
        <ele>862</ele>
        <time>2014-10-18T16:21:31Z</time>
      </trkpt>
      <trkpt lat="45.24671" lon="5.95851">
        <ele>861.3</ele>
        <time>2014-10-18T16:21:32Z</time>
      </trkpt>
      <trkpt lat="45.24675" lon="5.95836">
        <ele>860.9</ele>
        <time>2014-10-18T16:21:33Z</time>
      </trkpt>
      <trkpt lat="45.24679" lon="5.95822">
        <ele>860.6</ele>
        <time>2014-10-18T16:21:34Z</time>
      </trkpt>
      <trkpt lat="45.24683" lon="5.95808">
        <ele>859.9</ele>
        <time>2014-10-18T16:21:35Z</time>
      </trkpt>
      <trkpt lat="45.24687" lon="5.95794">
        <ele>859.4</ele>
        <time>2014-10-18T16:21:36Z</time>
      </trkpt>
      <trkpt lat="45.24692" lon="5.95781">
        <ele>859</ele>
        <time>2014-10-18T16:21:37Z</time>
      </trkpt>
      <trkpt lat="45.24696" lon="5.95768">
        <ele>858.4</ele>
        <time>2014-10-18T16:21:38Z</time>
      </trkpt>
      <trkpt lat="45.24701" lon="5.95756">
        <ele>857.4</ele>
        <time>2014-10-18T16:21:39Z</time>
      </trkpt>
      <trkpt lat="45.24706" lon="5.95744">
        <ele>857.3</ele>
        <time>2014-10-18T16:21:40Z</time>
      </trkpt>
      <trkpt lat="45.24712" lon="5.95733">
        <ele>857</ele>
        <time>2014-10-18T16:21:41Z</time>
      </trkpt>
      <trkpt lat="45.24717" lon="5.95721">
        <ele>856.8</ele>
        <time>2014-10-18T16:21:42Z</time>
      </trkpt>
      <trkpt lat="45.24722" lon="5.95709">
        <ele>856.5</ele>
        <time>2014-10-18T16:21:43Z</time>
      </trkpt>
      <trkpt lat="45.24728" lon="5.95698">
        <ele>856.2</ele>
        <time>2014-10-18T16:21:44Z</time>
      </trkpt>
      <trkpt lat="45.24733" lon="5.95686">
        <ele>855.7</ele>
        <time>2014-10-18T16:21:45Z</time>
      </trkpt>
      <trkpt lat="45.24737" lon="5.95674">
        <ele>855.4</ele>
        <time>2014-10-18T16:21:46Z</time>
      </trkpt>
      <trkpt lat="45.24741" lon="5.95661">
        <ele>855.3</ele>
        <time>2014-10-18T16:21:47Z</time>
      </trkpt>
      <trkpt lat="45.24744" lon="5.95649">
        <ele>854.9</ele>
        <time>2014-10-18T16:21:48Z</time>
      </trkpt>
      <trkpt lat="45.24748" lon="5.95636">
        <ele>854.3</ele>
        <time>2014-10-18T16:21:49Z</time>
      </trkpt>
      <trkpt lat="45.24751" lon="5.95623">
        <ele>853.9</ele>
        <time>2014-10-18T16:21:50Z</time>
      </trkpt>
      <trkpt lat="45.24754" lon="5.9561">
        <ele>853.7</ele>
        <time>2014-10-18T16:21:51Z</time>
      </trkpt>
      <trkpt lat="45.24757" lon="5.95597">
        <ele>853.3</ele>
        <time>2014-10-18T16:21:52Z</time>
      </trkpt>
      <trkpt lat="45.2476" lon="5.95584">
        <ele>853</ele>
        <time>2014-10-18T16:21:53Z</time>
      </trkpt>
      <trkpt lat="45.24763" lon="5.95571">
        <ele>852.6</ele>
        <time>2014-10-18T16:21:54Z</time>
      </trkpt>
      <trkpt lat="45.24766" lon="5.95558">
        <ele>852.4</ele>
        <time>2014-10-18T16:21:55Z</time>
      </trkpt>
      <trkpt lat="45.24769" lon="5.95545">
        <ele>851.9</ele>
        <time>2014-10-18T16:21:56Z</time>
      </trkpt>
      <trkpt lat="45.24772" lon="5.95531">
        <ele>851.6</ele>
        <time>2014-10-18T16:21:57Z</time>
      </trkpt>
      <trkpt lat="45.24775" lon="5.95518">
        <ele>851.1</ele>
        <time>2014-10-18T16:21:58Z</time>
      </trkpt>
      <trkpt lat="45.24778" lon="5.95505">
        <ele>850.5</ele>
        <time>2014-10-18T16:21:59Z</time>
      </trkpt>
      <trkpt lat="45.24781" lon="5.95493">
        <ele>850</ele>
        <time>2014-10-18T16:22:00Z</time>
      </trkpt>
      <trkpt lat="45.24784" lon="5.9548">
        <ele>849.7</ele>
        <time>2014-10-18T16:22:01Z</time>
      </trkpt>
      <trkpt lat="45.2479" lon="5.95456">
        <ele>849.2</ele>
        <time>2014-10-18T16:22:03Z</time>
      </trkpt>
      <trkpt lat="45.24795" lon="5.95432">
        <ele>848.6</ele>
        <time>2014-10-18T16:22:05Z</time>
      </trkpt>
      <trkpt lat="45.248" lon="5.95409">
        <ele>848.3</ele>
        <time>2014-10-18T16:22:07Z</time>
      </trkpt>
      <trkpt lat="45.24805" lon="5.95387">
        <ele>847.9</ele>
        <time>2014-10-18T16:22:09Z</time>
      </trkpt>
      <trkpt lat="45.2481" lon="5.95366">
        <ele>847.5</ele>
        <time>2014-10-18T16:22:11Z</time>
      </trkpt>
      <trkpt lat="45.24814" lon="5.95346">
        <ele>847.2</ele>
        <time>2014-10-18T16:22:13Z</time>
      </trkpt>
      <trkpt lat="45.24818" lon="5.95328">
        <ele>847.4</ele>
        <time>2014-10-18T16:22:15Z</time>
      </trkpt>
      <trkpt lat="45.24823" lon="5.9531">
        <ele>847.1</ele>
        <time>2014-10-18T16:22:17Z</time>
      </trkpt>
      <trkpt lat="45.24827" lon="5.95293">
        <ele>846.7</ele>
        <time>2014-10-18T16:22:19Z</time>
      </trkpt>
      <trkpt lat="45.24833" lon="5.95276">
        <ele>846.6</ele>
        <time>2014-10-18T16:22:21Z</time>
      </trkpt>
      <trkpt lat="45.24839" lon="5.9526">
        <ele>846.5</ele>
        <time>2014-10-18T16:22:23Z</time>
      </trkpt>
      <trkpt lat="45.24845" lon="5.95244">
        <ele>846.5</ele>
        <time>2014-10-18T16:22:25Z</time>
      </trkpt>
      <trkpt lat="45.24851" lon="5.95229">
        <ele>846.4</ele>
        <time>2014-10-18T16:22:27Z</time>
      </trkpt>
      <trkpt lat="45.24857" lon="5.95213">
        <ele>846</ele>
        <time>2014-10-18T16:22:29Z</time>
      </trkpt>
      <trkpt lat="45.24862" lon="5.95198">
        <ele>845.7</ele>
        <time>2014-10-18T16:22:31Z</time>
      </trkpt>
      <trkpt lat="45.24866" lon="5.95183">
        <ele>845.6</ele>
        <time>2014-10-18T16:22:33Z</time>
      </trkpt>
      <trkpt lat="45.24866" lon="5.95167">
        <ele>845.6</ele>
        <time>2014-10-18T16:22:35Z</time>
      </trkpt>
      <trkpt lat="45.24862" lon="5.95151">
        <ele>845.5</ele>
        <time>2014-10-18T16:22:37Z</time>
      </trkpt>
      <trkpt lat="45.24856" lon="5.95135">
        <ele>845.4</ele>
        <time>2014-10-18T16:22:39Z</time>
      </trkpt>
      <trkpt lat="45.24848" lon="5.95121">
        <ele>845.3</ele>
        <time>2014-10-18T16:22:41Z</time>
      </trkpt>
      <trkpt lat="45.24841" lon="5.95105">
        <ele>844.8</ele>
        <time>2014-10-18T16:22:43Z</time>
      </trkpt>
      <trkpt lat="45.24836" lon="5.95087">
        <ele>844.4</ele>
        <time>2014-10-18T16:22:45Z</time>
      </trkpt>
      <trkpt lat="45.24833" lon="5.95069">
        <ele>844.2</ele>
        <time>2014-10-18T16:22:47Z</time>
      </trkpt>
      <trkpt lat="45.24831" lon="5.9505">
        <ele>843.9</ele>
        <time>2014-10-18T16:22:49Z</time>
      </trkpt>
      <trkpt lat="45.2483" lon="5.95032">
        <ele>843.7</ele>
        <time>2014-10-18T16:22:51Z</time>
      </trkpt>
      <trkpt lat="45.24829" lon="5.95013">
        <ele>843.2</ele>
        <time>2014-10-18T16:22:53Z</time>
      </trkpt>
      <trkpt lat="45.24829" lon="5.94995">
        <ele>842.7</ele>
        <time>2014-10-18T16:22:55Z</time>
      </trkpt>
      <trkpt lat="45.2483" lon="5.94977">
        <ele>842.2</ele>
        <time>2014-10-18T16:22:57Z</time>
      </trkpt>
      <trkpt lat="45.2483" lon="5.94962">
        <ele>841.5</ele>
        <time>2014-10-18T16:22:59Z</time>
      </trkpt>
      <trkpt lat="45.24831" lon="5.94949">
        <ele>840.5</ele>
        <time>2014-10-18T16:23:02Z</time>
      </trkpt>
      <trkpt lat="45.24838" lon="5.94939">
        <ele>837.1</ele>
        <time>2014-10-18T16:23:19Z</time>
      </trkpt>
      <trkpt lat="45.24849" lon="5.94937">
        <ele>832.8</ele>
        <time>2014-10-18T16:23:34Z</time>
      </trkpt>
      <trkpt lat="45.2486" lon="5.94932">
        <ele>829.8</ele>
        <time>2014-10-18T16:23:37Z</time>
      </trkpt>
      <trkpt lat="45.24871" lon="5.94927">
        <ele>826</ele>
        <time>2014-10-18T16:23:41Z</time>
      </trkpt>
      <trkpt lat="45.2488" lon="5.94924">
        <ele>822.4</ele>
        <time>2014-10-18T16:23:45Z</time>
      </trkpt>
      <trkpt lat="45.24889" lon="5.9492">
        <ele>819.4</ele>
        <time>2014-10-18T16:23:49Z</time>
      </trkpt>
      <trkpt lat="45.24897" lon="5.94912">
        <ele>816.1</ele>
        <time>2014-10-18T16:23:53Z</time>
      </trkpt>
      <trkpt lat="45.24905" lon="5.94902">
        <ele>810.8</ele>
        <time>2014-10-18T16:23:59Z</time>
      </trkpt>
      <trkpt lat="45.24911" lon="5.94892">
        <ele>807</ele>
        <time>2014-10-18T16:24:05Z</time>
      </trkpt>
      <trkpt lat="45.24919" lon="5.94883">
        <ele>802.9</ele>
        <time>2014-10-18T16:24:11Z</time>
      </trkpt>
      <trkpt lat="45.24928" lon="5.94877">
        <ele>800.6</ele>
        <time>2014-10-18T16:24:15Z</time>
      </trkpt>
      <trkpt lat="45.2493" lon="5.94863">
        <ele>797.9</ele>
        <time>2014-10-18T16:24:19Z</time>
      </trkpt>
      <trkpt lat="45.24938" lon="5.94855">
        <ele>794.5</ele>
        <time>2014-10-18T16:24:23Z</time>
      </trkpt>
      <trkpt lat="45.24948" lon="5.9485">
        <ele>792.7</ele>
        <time>2014-10-18T16:24:26Z</time>
      </trkpt>
      <trkpt lat="45.24957" lon="5.94849">
        <ele>790.5</ele>
        <time>2014-10-18T16:24:29Z</time>
      </trkpt>
      <trkpt lat="45.24967" lon="5.94842">
        <ele>788</ele>
        <time>2014-10-18T16:24:33Z</time>
      </trkpt>
      <trkpt lat="45.24975" lon="5.94832">
        <ele>785.8</ele>
        <time>2014-10-18T16:24:36Z</time>
      </trkpt>
      <trkpt lat="45.24978" lon="5.9482">
        <ele>783.2</ele>
        <time>2014-10-18T16:24:40Z</time>
      </trkpt>
      <trkpt lat="45.24981" lon="5.94807">
        <ele>782.2</ele>
        <time>2014-10-18T16:24:43Z</time>
      </trkpt>
      <trkpt lat="45.24985" lon="5.94793">
        <ele>780</ele>
        <time>2014-10-18T16:24:46Z</time>
      </trkpt>
      <trkpt lat="45.2499" lon="5.94779">
        <ele>778.5</ele>
        <time>2014-10-18T16:24:51Z</time>
      </trkpt>
      <trkpt lat="45.24994" lon="5.94766">
        <ele>777.7</ele>
        <time>2014-10-18T16:24:54Z</time>
      </trkpt>
      <trkpt lat="45.24995" lon="5.94753">
        <ele>777</ele>
        <time>2014-10-18T16:24:57Z</time>
      </trkpt>
      <trkpt lat="45.24998" lon="5.9474">
        <ele>776.5</ele>
        <time>2014-10-18T16:25:01Z</time>
      </trkpt>
      <trkpt lat="45.25004" lon="5.94729">
        <ele>775.3</ele>
        <time>2014-10-18T16:25:06Z</time>
      </trkpt>
      <trkpt lat="45.25015" lon="5.94719">
        <ele>771.8</ele>
        <time>2014-10-18T16:25:12Z</time>
      </trkpt>
      <trkpt lat="45.25023" lon="5.94714">
        <ele>769.6</ele>
        <time>2014-10-18T16:25:15Z</time>
      </trkpt>
      <trkpt lat="45.2503" lon="5.94704">
        <ele>768.4</ele>
        <time>2014-10-18T16:25:18Z</time>
      </trkpt>
      <trkpt lat="45.25037" lon="5.94691">
        <ele>767.6</ele>
        <time>2014-10-18T16:25:21Z</time>
      </trkpt>
      <trkpt lat="45.25043" lon="5.94678">
        <ele>765</ele>
        <time>2014-10-18T16:25:25Z</time>
      </trkpt>
      <trkpt lat="45.25045" lon="5.94661">
        <ele>760.6</ele>
        <time>2014-10-18T16:25:41Z</time>
      </trkpt>
      <trkpt lat="45.25048" lon="5.94649">
        <ele>759.3</ele>
        <time>2014-10-18T16:25:43Z</time>
      </trkpt>
      <trkpt lat="45.25052" lon="5.94635">
        <ele>756.7</ele>
        <time>2014-10-18T16:25:46Z</time>
      </trkpt>
      <trkpt lat="45.25053" lon="5.9462">
        <ele>753.6</ele>
        <time>2014-10-18T16:25:50Z</time>
      </trkpt>
      <trkpt lat="45.25056" lon="5.94607">
        <ele>751.2</ele>
        <time>2014-10-18T16:25:53Z</time>
      </trkpt>
      <trkpt lat="45.25063" lon="5.94597">
        <ele>748.1</ele>
        <time>2014-10-18T16:25:57Z</time>
      </trkpt>
      <trkpt lat="45.25067" lon="5.94585">
        <ele>742.8</ele>
        <time>2014-10-18T16:26:19Z</time>
      </trkpt>
      <trkpt lat="45.2507" lon="5.94571">
        <ele>740.5</ele>
        <time>2014-10-18T16:26:40Z</time>
      </trkpt>
      <trkpt lat="45.2507" lon="5.94558">
        <ele>738.2</ele>
        <time>2014-10-18T16:26:45Z</time>
      </trkpt>
      <trkpt lat="45.2507" lon="5.94545">
        <ele>734.8</ele>
        <time>2014-10-18T16:26:50Z</time>
      </trkpt>
      <trkpt lat="45.25075" lon="5.94531">
        <ele>729.7</ele>
        <time>2014-10-18T16:26:55Z</time>
      </trkpt>
      <trkpt lat="45.25075" lon="5.94517">
        <ele>726.5</ele>
        <time>2014-10-18T16:26:59Z</time>
      </trkpt>
      <trkpt lat="45.25073" lon="5.94503">
        <ele>722.9</ele>
        <time>2014-10-18T16:27:03Z</time>
      </trkpt>
      <trkpt lat="45.2507" lon="5.94489">
        <ele>721</ele>
        <time>2014-10-18T16:27:06Z</time>
      </trkpt>
      <trkpt lat="45.25067" lon="5.94475">
        <ele>718.4</ele>
        <time>2014-10-18T16:27:10Z</time>
      </trkpt>
      <trkpt lat="45.25064" lon="5.94462">
        <ele>716.3</ele>
        <time>2014-10-18T16:27:13Z</time>
      </trkpt>
      <trkpt lat="45.25063" lon="5.94448">
        <ele>714.1</ele>
        <time>2014-10-18T16:27:17Z</time>
      </trkpt>
      <trkpt lat="45.25066" lon="5.94435">
        <ele>713.4</ele>
        <time>2014-10-18T16:27:22Z</time>
      </trkpt>
      <trkpt lat="45.25068" lon="5.94422">
        <ele>713</ele>
        <time>2014-10-18T16:27:26Z</time>
      </trkpt>
      <trkpt lat="45.25068" lon="5.94409">
        <ele>710.8</ele>
        <time>2014-10-18T16:27:30Z</time>
      </trkpt>
      <trkpt lat="45.25069" lon="5.94393">
        <ele>708.5</ele>
        <time>2014-10-18T16:27:34Z</time>
      </trkpt>
      <trkpt lat="45.25071" lon="5.94378">
        <ele>704.8</ele>
        <time>2014-10-18T16:27:39Z</time>
      </trkpt>
      <trkpt lat="45.25073" lon="5.94361">
        <ele>701.4</ele>
        <time>2014-10-18T16:27:43Z</time>
      </trkpt>
      <trkpt lat="45.25072" lon="5.94346">
        <ele>698.6</ele>
        <time>2014-10-18T16:27:46Z</time>
      </trkpt>
      <trkpt lat="45.25074" lon="5.9433">
        <ele>695.1</ele>
        <time>2014-10-18T16:27:50Z</time>
      </trkpt>
      <trkpt lat="45.25078" lon="5.94314">
        <ele>691.6</ele>
        <time>2014-10-18T16:27:54Z</time>
      </trkpt>
      <trkpt lat="45.25083" lon="5.94298">
        <ele>689.3</ele>
        <time>2014-10-18T16:27:57Z</time>
      </trkpt>
      <trkpt lat="45.25086" lon="5.94283">
        <ele>687.2</ele>
        <time>2014-10-18T16:27:59Z</time>
      </trkpt>
      <trkpt lat="45.25087" lon="5.94267">
        <ele>684.7</ele>
        <time>2014-10-18T16:28:01Z</time>
      </trkpt>
      <trkpt lat="45.25089" lon="5.94254">
        <ele>682.6</ele>
        <time>2014-10-18T16:28:03Z</time>
      </trkpt>
      <trkpt lat="45.25093" lon="5.94241">
        <ele>680.2</ele>
        <time>2014-10-18T16:28:05Z</time>
      </trkpt>
      <trkpt lat="45.25096" lon="5.94224">
        <ele>678.1</ele>
        <time>2014-10-18T16:28:08Z</time>
      </trkpt>
      <trkpt lat="45.25097" lon="5.94212">
        <ele>677</ele>
        <time>2014-10-18T16:28:10Z</time>
      </trkpt>
      <trkpt lat="45.25101" lon="5.94199">
        <ele>675.3</ele>
        <time>2014-10-18T16:28:12Z</time>
      </trkpt>
      <trkpt lat="45.25104" lon="5.94185">
        <ele>673.2</ele>
        <time>2014-10-18T16:28:14Z</time>
      </trkpt>
      <trkpt lat="45.25109" lon="5.94171">
        <ele>671.4</ele>
        <time>2014-10-18T16:28:16Z</time>
      </trkpt>
      <trkpt lat="45.25113" lon="5.94151">
        <ele>670.1</ele>
        <time>2014-10-18T16:28:18Z</time>
      </trkpt>
      <trkpt lat="45.25114" lon="5.94129">
        <ele>668</ele>
        <time>2014-10-18T16:28:20Z</time>
      </trkpt>
      <trkpt lat="45.25111" lon="5.94113">
        <ele>668.2</ele>
        <time>2014-10-18T16:28:22Z</time>
      </trkpt>
      <trkpt lat="45.25111" lon="5.94094">
        <ele>667.9</ele>
        <time>2014-10-18T16:28:24Z</time>
      </trkpt>
      <trkpt lat="45.25118" lon="5.94078">
        <ele>667.8</ele>
        <time>2014-10-18T16:28:26Z</time>
      </trkpt>
      <trkpt lat="45.25126" lon="5.94066">
        <ele>667.2</ele>
        <time>2014-10-18T16:28:28Z</time>
      </trkpt>
      <trkpt lat="45.25134" lon="5.94052">
        <ele>664</ele>
        <time>2014-10-18T16:28:31Z</time>
      </trkpt>
      <trkpt lat="45.25139" lon="5.94036">
        <ele>661.5</ele>
        <time>2014-10-18T16:28:34Z</time>
      </trkpt>
      <trkpt lat="45.2514" lon="5.94017">
        <ele>658.7</ele>
        <time>2014-10-18T16:28:37Z</time>
      </trkpt>
      <trkpt lat="45.2514" lon="5.93997">
        <ele>657.8</ele>
        <time>2014-10-18T16:28:39Z</time>
      </trkpt>
      <trkpt lat="45.2514" lon="5.93974">
        <ele>655.8</ele>
        <time>2014-10-18T16:28:41Z</time>
      </trkpt>
      <trkpt lat="45.25141" lon="5.9395">
        <ele>654.2</ele>
        <time>2014-10-18T16:28:43Z</time>
      </trkpt>
      <trkpt lat="45.25142" lon="5.93928">
        <ele>652.7</ele>
        <time>2014-10-18T16:28:45Z</time>
      </trkpt>
      <trkpt lat="45.25146" lon="5.93904">
        <ele>651.1</ele>
        <time>2014-10-18T16:28:47Z</time>
      </trkpt>
      <trkpt lat="45.25147" lon="5.93891">
        <ele>650.6</ele>
        <time>2014-10-18T16:28:48Z</time>
      </trkpt>
      <trkpt lat="45.25148" lon="5.93878">
        <ele>650.7</ele>
        <time>2014-10-18T16:28:49Z</time>
      </trkpt>
      <trkpt lat="45.25148" lon="5.93865">
        <ele>650.2</ele>
        <time>2014-10-18T16:28:50Z</time>
      </trkpt>
      <trkpt lat="45.25149" lon="5.93843">
        <ele>649</ele>
        <time>2014-10-18T16:28:52Z</time>
      </trkpt>
      <trkpt lat="45.25152" lon="5.93824">
        <ele>647.7</ele>
        <time>2014-10-18T16:28:54Z</time>
      </trkpt>
      <trkpt lat="45.25156" lon="5.93808">
        <ele>647</ele>
        <time>2014-10-18T16:28:56Z</time>
      </trkpt>
      <trkpt lat="45.2516" lon="5.93793">
        <ele>645.5</ele>
        <time>2014-10-18T16:28:59Z</time>
      </trkpt>
      <trkpt lat="45.25163" lon="5.93777">
        <ele>644</ele>
        <time>2014-10-18T16:29:02Z</time>
      </trkpt>
      <trkpt lat="45.25163" lon="5.93762">
        <ele>641.7</ele>
        <time>2014-10-18T16:29:05Z</time>
      </trkpt>
      <trkpt lat="45.25163" lon="5.93747">
        <ele>639.6</ele>
        <time>2014-10-18T16:29:08Z</time>
      </trkpt>
      <trkpt lat="45.25158" lon="5.93727">
        <ele>637.9</ele>
        <time>2014-10-18T16:29:11Z</time>
      </trkpt>
      <trkpt lat="45.25153" lon="5.93711">
        <ele>636.7</ele>
        <time>2014-10-18T16:29:13Z</time>
      </trkpt>
      <trkpt lat="45.25149" lon="5.93697">
        <ele>635.1</ele>
        <time>2014-10-18T16:29:16Z</time>
      </trkpt>
      <trkpt lat="45.25158" lon="5.93687">
        <ele>633.2</ele>
        <time>2014-10-18T16:29:20Z</time>
      </trkpt>
      <trkpt lat="45.2517" lon="5.93686">
        <ele>632</ele>
        <time>2014-10-18T16:29:23Z</time>
      </trkpt>
      <trkpt lat="45.25179" lon="5.93684">
        <ele>631.5</ele>
        <time>2014-10-18T16:29:25Z</time>
      </trkpt>
      <trkpt lat="45.2519" lon="5.93678">
        <ele>630.9</ele>
        <time>2014-10-18T16:29:28Z</time>
      </trkpt>
      <trkpt lat="45.25197" lon="5.93669">
        <ele>630.9</ele>
        <time>2014-10-18T16:29:32Z</time>
      </trkpt>
      <trkpt lat="45.25206" lon="5.93666">
        <ele>630.9</ele>
        <time>2014-10-18T16:29:39Z</time>
      </trkpt>
      <trkpt lat="45.25213" lon="5.93658">
        <ele>631.9</ele>
        <time>2014-10-18T16:29:43Z</time>
      </trkpt>
      <trkpt lat="45.2522" lon="5.93645">
        <ele>633.3</ele>
        <time>2014-10-18T16:29:48Z</time>
      </trkpt>
      <trkpt lat="45.25227" lon="5.93632">
        <ele>634.2</ele>
        <time>2014-10-18T16:29:52Z</time>
      </trkpt>
      <trkpt lat="45.2523" lon="5.93619">
        <ele>634.8</ele>
        <time>2014-10-18T16:29:55Z</time>
      </trkpt>
      <trkpt lat="45.25234" lon="5.93603">
        <ele>635.5</ele>
        <time>2014-10-18T16:29:59Z</time>
      </trkpt>
      <trkpt lat="45.25237" lon="5.93588">
        <ele>636.1</ele>
        <time>2014-10-18T16:30:03Z</time>
      </trkpt>
      <trkpt lat="45.25241" lon="5.93576">
        <ele>636.7</ele>
        <time>2014-10-18T16:30:07Z</time>
      </trkpt>
      <trkpt lat="45.25244" lon="5.93563">
        <ele>637.2</ele>
        <time>2014-10-18T16:30:11Z</time>
      </trkpt>
      <trkpt lat="45.25247" lon="5.9355">
        <ele>637.6</ele>
        <time>2014-10-18T16:30:15Z</time>
      </trkpt>
      <trkpt lat="45.25251" lon="5.93538">
        <ele>638</ele>
        <time>2014-10-18T16:30:19Z</time>
      </trkpt>
      <trkpt lat="45.25254" lon="5.93526">
        <ele>638.5</ele>
        <time>2014-10-18T16:30:23Z</time>
      </trkpt>
      <trkpt lat="45.25258" lon="5.93512">
        <ele>639.1</ele>
        <time>2014-10-18T16:30:27Z</time>
      </trkpt>
      <trkpt lat="45.25262" lon="5.93496">
        <ele>639.5</ele>
        <time>2014-10-18T16:30:31Z</time>
      </trkpt>
      <trkpt lat="45.25267" lon="5.93482">
        <ele>640.4</ele>
        <time>2014-10-18T16:30:35Z</time>
      </trkpt>
      <trkpt lat="45.25267" lon="5.93468">
        <ele>640.9</ele>
        <time>2014-10-18T16:30:40Z</time>
      </trkpt>
      <trkpt lat="45.25264" lon="5.93456">
        <ele>641.2</ele>
        <time>2014-10-18T16:30:44Z</time>
      </trkpt>
      <trkpt lat="45.2526" lon="5.93439">
        <ele>640.4</ele>
        <time>2014-10-18T16:30:47Z</time>
      </trkpt>
      <trkpt lat="45.25257" lon="5.93424">
        <ele>640</ele>
        <time>2014-10-18T16:30:49Z</time>
      </trkpt>
      <trkpt lat="45.25256" lon="5.93406">
        <ele>639.1</ele>
        <time>2014-10-18T16:30:51Z</time>
      </trkpt>
      <trkpt lat="45.25255" lon="5.93385">
        <ele>638.2</ele>
        <time>2014-10-18T16:30:53Z</time>
      </trkpt>
      <trkpt lat="45.25255" lon="5.93363">
        <ele>637.3</ele>
        <time>2014-10-18T16:30:55Z</time>
      </trkpt>
      <trkpt lat="45.25256" lon="5.93341">
        <ele>636.5</ele>
        <time>2014-10-18T16:30:57Z</time>
      </trkpt>
      <trkpt lat="45.25257" lon="5.93318">
        <ele>635.3</ele>
        <time>2014-10-18T16:30:59Z</time>
      </trkpt>
      <trkpt lat="45.25257" lon="5.93297">
        <ele>634.2</ele>
        <time>2014-10-18T16:31:01Z</time>
      </trkpt>
      <trkpt lat="45.25257" lon="5.93279">
        <ele>633</ele>
        <time>2014-10-18T16:31:03Z</time>
      </trkpt>
      <trkpt lat="45.25257" lon="5.93263">
        <ele>632.3</ele>
        <time>2014-10-18T16:31:05Z</time>
      </trkpt>
      <trkpt lat="45.25255" lon="5.93247">
        <ele>631.4</ele>
        <time>2014-10-18T16:31:07Z</time>
      </trkpt>
      <trkpt lat="45.25253" lon="5.9323">
        <ele>630.4</ele>
        <time>2014-10-18T16:31:09Z</time>
      </trkpt>
      <trkpt lat="45.25253" lon="5.93211">
        <ele>629.6</ele>
        <time>2014-10-18T16:31:11Z</time>
      </trkpt>
      <trkpt lat="45.25252" lon="5.9319">
        <ele>628.6</ele>
        <time>2014-10-18T16:31:13Z</time>
      </trkpt>
      <trkpt lat="45.2525" lon="5.93167">
        <ele>627.6</ele>
        <time>2014-10-18T16:31:15Z</time>
      </trkpt>
      <trkpt lat="45.25248" lon="5.93142">
        <ele>626.4</ele>
        <time>2014-10-18T16:31:17Z</time>
      </trkpt>
      <trkpt lat="45.25247" lon="5.93129">
        <ele>625.9</ele>
        <time>2014-10-18T16:31:18Z</time>
      </trkpt>
      <trkpt lat="45.25246" lon="5.93116">
        <ele>625.3</ele>
        <time>2014-10-18T16:31:19Z</time>
      </trkpt>
      <trkpt lat="45.25245" lon="5.93091">
        <ele>623.9</ele>
        <time>2014-10-18T16:31:21Z</time>
      </trkpt>
      <trkpt lat="45.2524" lon="5.93069">
        <ele>622.7</ele>
        <time>2014-10-18T16:31:23Z</time>
      </trkpt>
      <trkpt lat="45.25234" lon="5.93053">
        <ele>621.3</ele>
        <time>2014-10-18T16:31:25Z</time>
      </trkpt>
      <trkpt lat="45.2523" lon="5.9304">
        <ele>619.5</ele>
        <time>2014-10-18T16:31:28Z</time>
      </trkpt>
      <trkpt lat="45.25222" lon="5.93029">
        <ele>618.3</ele>
        <time>2014-10-18T16:31:31Z</time>
      </trkpt>
      <trkpt lat="45.25216" lon="5.93019">
        <ele>617.6</ele>
        <time>2014-10-18T16:31:33Z</time>
      </trkpt>
      <trkpt lat="45.25208" lon="5.9301">
        <ele>616.6</ele>
        <time>2014-10-18T16:31:35Z</time>
      </trkpt>
      <trkpt lat="45.25199" lon="5.93">
        <ele>615.6</ele>
        <time>2014-10-18T16:31:38Z</time>
      </trkpt>
      <trkpt lat="45.25189" lon="5.93">
        <ele>614.3</ele>
        <time>2014-10-18T16:31:41Z</time>
      </trkpt>
      <trkpt lat="45.25178" lon="5.92995">
        <ele>612.8</ele>
        <time>2014-10-18T16:31:44Z</time>
      </trkpt>
      <trkpt lat="45.25168" lon="5.92991">
        <ele>611</ele>
        <time>2014-10-18T16:31:48Z</time>
      </trkpt>
      <trkpt lat="45.2516" lon="5.92984">
        <ele>610.2</ele>
        <time>2014-10-18T16:31:51Z</time>
      </trkpt>
      <trkpt lat="45.2515" lon="5.92969">
        <ele>608.7</ele>
        <time>2014-10-18T16:31:54Z</time>
      </trkpt>
      <trkpt lat="45.25143" lon="5.92958">
        <ele>607.5</ele>
        <time>2014-10-18T16:31:56Z</time>
      </trkpt>
      <trkpt lat="45.25136" lon="5.92949">
        <ele>606</ele>
        <time>2014-10-18T16:31:58Z</time>
      </trkpt>
      <trkpt lat="45.25127" lon="5.9294">
        <ele>603.7</ele>
        <time>2014-10-18T16:32:01Z</time>
      </trkpt>
      <trkpt lat="45.25117" lon="5.92951">
        <ele>601.3</ele>
        <time>2014-10-18T16:32:05Z</time>
      </trkpt>
      <trkpt lat="45.25111" lon="5.92966">
        <ele>599.7</ele>
        <time>2014-10-18T16:32:07Z</time>
      </trkpt>
      <trkpt lat="45.25104" lon="5.92982">
        <ele>597.9</ele>
        <time>2014-10-18T16:32:09Z</time>
      </trkpt>
      <trkpt lat="45.25097" lon="5.92999">
        <ele>596.8</ele>
        <time>2014-10-18T16:32:11Z</time>
      </trkpt>
      <trkpt lat="45.25089" lon="5.93017">
        <ele>595.7</ele>
        <time>2014-10-18T16:32:13Z</time>
      </trkpt>
      <trkpt lat="45.25082" lon="5.93031">
        <ele>595.5</ele>
        <time>2014-10-18T16:32:15Z</time>
      </trkpt>
      <trkpt lat="45.25075" lon="5.93042">
        <ele>594.5</ele>
        <time>2014-10-18T16:32:17Z</time>
      </trkpt>
      <trkpt lat="45.25065" lon="5.93054">
        <ele>592.1</ele>
        <time>2014-10-18T16:32:20Z</time>
      </trkpt>
      <trkpt lat="45.25058" lon="5.93061">
        <ele>591.2</ele>
        <time>2014-10-18T16:32:22Z</time>
      </trkpt>
      <trkpt lat="45.25049" lon="5.93069">
        <ele>590.8</ele>
        <time>2014-10-18T16:32:24Z</time>
      </trkpt>
      <trkpt lat="45.2504" lon="5.93079">
        <ele>589.9</ele>
        <time>2014-10-18T16:32:26Z</time>
      </trkpt>
      <trkpt lat="45.25031" lon="5.93088">
        <ele>589.4</ele>
        <time>2014-10-18T16:32:28Z</time>
      </trkpt>
      <trkpt lat="45.25022" lon="5.93095">
        <ele>588.4</ele>
        <time>2014-10-18T16:32:31Z</time>
      </trkpt>
      <trkpt lat="45.25013" lon="5.93091">
        <ele>586.6</ele>
        <time>2014-10-18T16:32:34Z</time>
      </trkpt>
      <trkpt lat="45.25007" lon="5.93073">
        <ele>585</ele>
        <time>2014-10-18T16:32:37Z</time>
      </trkpt>
      <trkpt lat="45.25004" lon="5.9306">
        <ele>584</ele>
        <time>2014-10-18T16:32:39Z</time>
      </trkpt>
      <trkpt lat="45.25001" lon="5.93045">
        <ele>582.1</ele>
        <time>2014-10-18T16:32:42Z</time>
      </trkpt>
      <trkpt lat="45.24999" lon="5.93032">
        <ele>580.3</ele>
        <time>2014-10-18T16:32:47Z</time>
      </trkpt>
      <trkpt lat="45.25002" lon="5.93019">
        <ele>579.4</ele>
        <time>2014-10-18T16:32:57Z</time>
      </trkpt>
      <trkpt lat="45.25007" lon="5.93003">
        <ele>577.8</ele>
        <time>2014-10-18T16:33:01Z</time>
      </trkpt>
      <trkpt lat="45.25011" lon="5.92989">
        <ele>576.6</ele>
        <time>2014-10-18T16:33:06Z</time>
      </trkpt>
      <trkpt lat="45.25013" lon="5.92977">
        <ele>575.3</ele>
        <time>2014-10-18T16:33:11Z</time>
      </trkpt>
      <trkpt lat="45.25009" lon="5.92989">
        <ele>575.7</ele>
        <time>2014-10-18T16:33:25Z</time>
      </trkpt>
      <trkpt lat="45.25006" lon="5.93002">
        <ele>576.5</ele>
        <time>2014-10-18T16:33:34Z</time>
      </trkpt>
      <trkpt lat="45.25004" lon="5.93015">
        <ele>578.3</ele>
        <time>2014-10-18T16:33:42Z</time>
      </trkpt>
      <trkpt lat="45.25001" lon="5.93028">
        <ele>579.4</ele>
        <time>2014-10-18T16:33:51Z</time>
      </trkpt>
      <trkpt lat="45.24999" lon="5.93041">
        <ele>580</ele>
        <time>2014-10-18T16:34:01Z</time>
      </trkpt>
      <trkpt lat="45.24999" lon="5.93055">
        <ele>580.9</ele>
        <time>2014-10-18T16:34:07Z</time>
      </trkpt>
      <trkpt lat="45.25002" lon="5.93068">
        <ele>582.1</ele>
        <time>2014-10-18T16:34:13Z</time>
      </trkpt>
      <trkpt lat="45.25004" lon="5.9308">
        <ele>583.3</ele>
        <time>2014-10-18T16:34:19Z</time>
      </trkpt>
      <trkpt lat="45.25009" lon="5.93092">
        <ele>584.8</ele>
        <time>2014-10-18T16:34:26Z</time>
      </trkpt>
      <trkpt lat="45.25018" lon="5.93097">
        <ele>586.2</ele>
        <time>2014-10-18T16:34:32Z</time>
      </trkpt>
      <trkpt lat="45.25028" lon="5.93092">
        <ele>587.2</ele>
        <time>2014-10-18T16:34:40Z</time>
      </trkpt>
      <trkpt lat="45.25035" lon="5.93083">
        <ele>588.1</ele>
        <time>2014-10-18T16:34:46Z</time>
      </trkpt>
      <trkpt lat="45.25044" lon="5.93074">
        <ele>588.8</ele>
        <time>2014-10-18T16:34:52Z</time>
      </trkpt>
      <trkpt lat="45.25051" lon="5.93066">
        <ele>589.6</ele>
        <time>2014-10-18T16:34:59Z</time>
      </trkpt>
      <trkpt lat="45.2506" lon="5.93061">
        <ele>590.5</ele>
        <time>2014-10-18T16:35:05Z</time>
      </trkpt>
      <trkpt lat="45.25067" lon="5.93054">
        <ele>591.7</ele>
        <time>2014-10-18T16:35:12Z</time>
      </trkpt>
      <trkpt lat="45.25074" lon="5.93045">
        <ele>592.9</ele>
        <time>2014-10-18T16:35:19Z</time>
      </trkpt>
      <trkpt lat="45.2508" lon="5.93035">
        <ele>593.3</ele>
        <time>2014-10-18T16:35:25Z</time>
      </trkpt>
      <trkpt lat="45.25085" lon="5.93023">
        <ele>594.1</ele>
        <time>2014-10-18T16:35:30Z</time>
      </trkpt>
      <trkpt lat="45.25091" lon="5.9301">
        <ele>594.6</ele>
        <time>2014-10-18T16:35:35Z</time>
      </trkpt>
      <trkpt lat="45.25096" lon="5.92999">
        <ele>595.2</ele>
        <time>2014-10-18T16:35:39Z</time>
      </trkpt>
      <trkpt lat="45.25102" lon="5.92986">
        <ele>596.1</ele>
        <time>2014-10-18T16:35:44Z</time>
      </trkpt>
      <trkpt lat="45.25107" lon="5.92975">
        <ele>596.5</ele>
        <time>2014-10-18T16:35:48Z</time>
      </trkpt>
      <trkpt lat="45.25111" lon="5.92964">
        <ele>597.7</ele>
        <time>2014-10-18T16:35:52Z</time>
      </trkpt>
      <trkpt lat="45.25117" lon="5.92952">
        <ele>598.6</ele>
        <time>2014-10-18T16:35:57Z</time>
      </trkpt>
      <trkpt lat="45.25121" lon="5.92939">
        <ele>600.1</ele>
        <time>2014-10-18T16:36:02Z</time>
      </trkpt>
      <trkpt lat="45.2512" lon="5.92925">
        <ele>601.3</ele>
        <time>2014-10-18T16:36:08Z</time>
      </trkpt>
      <trkpt lat="45.25115" lon="5.92911">
        <ele>601.6</ele>
        <time>2014-10-18T16:36:12Z</time>
      </trkpt>
      <trkpt lat="45.25111" lon="5.92896">
        <ele>601.4</ele>
        <time>2014-10-18T16:36:15Z</time>
      </trkpt>
      <trkpt lat="45.25108" lon="5.92882">
        <ele>601.5</ele>
        <time>2014-10-18T16:36:18Z</time>
      </trkpt>
      <trkpt lat="45.25106" lon="5.92866">
        <ele>601.3</ele>
        <time>2014-10-18T16:36:21Z</time>
      </trkpt>
      <trkpt lat="45.25105" lon="5.92852">
        <ele>601.4</ele>
        <time>2014-10-18T16:36:24Z</time>
      </trkpt>
      <trkpt lat="45.25107" lon="5.92835">
        <ele>601.7</ele>
        <time>2014-10-18T16:36:28Z</time>
      </trkpt>
      <trkpt lat="45.2511" lon="5.92821">
        <ele>601.4</ele>
        <time>2014-10-18T16:36:31Z</time>
      </trkpt>
      <trkpt lat="45.25109" lon="5.92806">
        <ele>601.1</ele>
        <time>2014-10-18T16:36:33Z</time>
      </trkpt>
      <trkpt lat="45.25107" lon="5.92788">
        <ele>600.5</ele>
        <time>2014-10-18T16:36:35Z</time>
      </trkpt>
      <trkpt lat="45.25106" lon="5.92768">
        <ele>599.5</ele>
        <time>2014-10-18T16:36:37Z</time>
      </trkpt>
      <trkpt lat="45.25108" lon="5.92747">
        <ele>598.6</ele>
        <time>2014-10-18T16:36:39Z</time>
      </trkpt>
      <trkpt lat="45.25112" lon="5.92726">
        <ele>597.2</ele>
        <time>2014-10-18T16:36:41Z</time>
      </trkpt>
      <trkpt lat="45.25119" lon="5.92704">
        <ele>596.1</ele>
        <time>2014-10-18T16:36:43Z</time>
      </trkpt>
      <trkpt lat="45.25129" lon="5.92685">
        <ele>594.5</ele>
        <time>2014-10-18T16:36:45Z</time>
      </trkpt>
      <trkpt lat="45.25144" lon="5.9267">
        <ele>592.9</ele>
        <time>2014-10-18T16:36:47Z</time>
      </trkpt>
      <trkpt lat="45.2516" lon="5.9266">
        <ele>591.5</ele>
        <time>2014-10-18T16:36:49Z</time>
      </trkpt>
      <trkpt lat="45.25169" lon="5.92656">
        <ele>590.7</ele>
        <time>2014-10-18T16:36:50Z</time>
      </trkpt>
      <trkpt lat="45.25178" lon="5.92653">
        <ele>590.1</ele>
        <time>2014-10-18T16:36:51Z</time>
      </trkpt>
      <trkpt lat="45.25187" lon="5.92649">
        <ele>589.4</ele>
        <time>2014-10-18T16:36:52Z</time>
      </trkpt>
      <trkpt lat="45.25195" lon="5.92644">
        <ele>588.7</ele>
        <time>2014-10-18T16:36:53Z</time>
      </trkpt>
      <trkpt lat="45.25211" lon="5.92631">
        <ele>587.6</ele>
        <time>2014-10-18T16:36:55Z</time>
      </trkpt>
      <trkpt lat="45.25218" lon="5.92622">
        <ele>586.8</ele>
        <time>2014-10-18T16:36:56Z</time>
      </trkpt>
      <trkpt lat="45.25224" lon="5.92612">
        <ele>586.2</ele>
        <time>2014-10-18T16:36:57Z</time>
      </trkpt>
      <trkpt lat="45.25234" lon="5.92593">
        <ele>584.5</ele>
        <time>2014-10-18T16:36:59Z</time>
      </trkpt>
      <trkpt lat="45.25241" lon="5.92573">
        <ele>582.8</ele>
        <time>2014-10-18T16:37:01Z</time>
      </trkpt>
      <trkpt lat="45.25247" lon="5.92553">
        <ele>581.1</ele>
        <time>2014-10-18T16:37:03Z</time>
      </trkpt>
      <trkpt lat="45.2525" lon="5.92532">
        <ele>579.6</ele>
        <time>2014-10-18T16:37:05Z</time>
      </trkpt>
      <trkpt lat="45.25256" lon="5.92511">
        <ele>578.1</ele>
        <time>2014-10-18T16:37:07Z</time>
      </trkpt>
      <trkpt lat="45.25264" lon="5.92492">
        <ele>576.6</ele>
        <time>2014-10-18T16:37:09Z</time>
      </trkpt>
      <trkpt lat="45.25269" lon="5.9247">
        <ele>574.9</ele>
        <time>2014-10-18T16:37:11Z</time>
      </trkpt>
      <trkpt lat="45.2527" lon="5.92457">
        <ele>574</ele>
        <time>2014-10-18T16:37:12Z</time>
      </trkpt>
      <trkpt lat="45.2527" lon="5.92444">
        <ele>573.2</ele>
        <time>2014-10-18T16:37:13Z</time>
      </trkpt>
      <trkpt lat="45.25269" lon="5.9243">
        <ele>572.2</ele>
        <time>2014-10-18T16:37:14Z</time>
      </trkpt>
      <trkpt lat="45.25268" lon="5.92416">
        <ele>571.3</ele>
        <time>2014-10-18T16:37:15Z</time>
      </trkpt>
      <trkpt lat="45.25265" lon="5.92402">
        <ele>570.5</ele>
        <time>2014-10-18T16:37:16Z</time>
      </trkpt>
      <trkpt lat="45.25261" lon="5.92388">
        <ele>569.8</ele>
        <time>2014-10-18T16:37:17Z</time>
      </trkpt>
      <trkpt lat="45.25258" lon="5.92373">
        <ele>569.1</ele>
        <time>2014-10-18T16:37:18Z</time>
      </trkpt>
      <trkpt lat="45.25255" lon="5.92357">
        <ele>568.1</ele>
        <time>2014-10-18T16:37:19Z</time>
      </trkpt>
      <trkpt lat="45.25253" lon="5.92341">
        <ele>567</ele>
        <time>2014-10-18T16:37:20Z</time>
      </trkpt>
      <trkpt lat="45.25251" lon="5.92325">
        <ele>566.1</ele>
        <time>2014-10-18T16:37:21Z</time>
      </trkpt>
      <trkpt lat="45.25248" lon="5.92308">
        <ele>565</ele>
        <time>2014-10-18T16:37:22Z</time>
      </trkpt>
      <trkpt lat="45.25246" lon="5.92292">
        <ele>564</ele>
        <time>2014-10-18T16:37:23Z</time>
      </trkpt>
      <trkpt lat="45.25243" lon="5.92274">
        <ele>563.1</ele>
        <time>2014-10-18T16:37:24Z</time>
      </trkpt>
      <trkpt lat="45.25241" lon="5.92257">
        <ele>562.3</ele>
        <time>2014-10-18T16:37:25Z</time>
      </trkpt>
      <trkpt lat="45.25238" lon="5.9224">
        <ele>561.2</ele>
        <time>2014-10-18T16:37:26Z</time>
      </trkpt>
      <trkpt lat="45.25236" lon="5.92222">
        <ele>560.4</ele>
        <time>2014-10-18T16:37:27Z</time>
      </trkpt>
      <trkpt lat="45.25234" lon="5.92205">
        <ele>559.3</ele>
        <time>2014-10-18T16:37:28Z</time>
      </trkpt>
      <trkpt lat="45.25232" lon="5.92187">
        <ele>558.3</ele>
        <time>2014-10-18T16:37:29Z</time>
      </trkpt>
      <trkpt lat="45.2523" lon="5.92169">
        <ele>557.2</ele>
        <time>2014-10-18T16:37:30Z</time>
      </trkpt>
      <trkpt lat="45.25229" lon="5.92151">
        <ele>556</ele>
        <time>2014-10-18T16:37:31Z</time>
      </trkpt>
      <trkpt lat="45.2523" lon="5.92133">
        <ele>555</ele>
        <time>2014-10-18T16:37:32Z</time>
      </trkpt>
      <trkpt lat="45.25232" lon="5.92116">
        <ele>553.9</ele>
        <time>2014-10-18T16:37:33Z</time>
      </trkpt>
      <trkpt lat="45.25235" lon="5.92098">
        <ele>552.8</ele>
        <time>2014-10-18T16:37:34Z</time>
      </trkpt>
      <trkpt lat="45.25239" lon="5.92081">
        <ele>551.9</ele>
        <time>2014-10-18T16:37:35Z</time>
      </trkpt>
      <trkpt lat="45.25243" lon="5.92063">
        <ele>550.8</ele>
        <time>2014-10-18T16:37:36Z</time>
      </trkpt>
      <trkpt lat="45.25247" lon="5.92047">
        <ele>549.9</ele>
        <time>2014-10-18T16:37:37Z</time>
      </trkpt>
      <trkpt lat="45.25252" lon="5.9203">
        <ele>549.1</ele>
        <time>2014-10-18T16:37:38Z</time>
      </trkpt>
      <trkpt lat="45.25257" lon="5.92014">
        <ele>548.2</ele>
        <time>2014-10-18T16:37:39Z</time>
      </trkpt>
      <trkpt lat="45.25262" lon="5.91998">
        <ele>546.9</ele>
        <time>2014-10-18T16:37:40Z</time>
      </trkpt>
      <trkpt lat="45.25268" lon="5.91983">
        <ele>545.6</ele>
        <time>2014-10-18T16:37:41Z</time>
      </trkpt>
      <trkpt lat="45.25274" lon="5.91967">
        <ele>544.5</ele>
        <time>2014-10-18T16:37:42Z</time>
      </trkpt>
      <trkpt lat="45.25281" lon="5.91952">
        <ele>543.2</ele>
        <time>2014-10-18T16:37:43Z</time>
      </trkpt>
      <trkpt lat="45.25288" lon="5.91937">
        <ele>542</ele>
        <time>2014-10-18T16:37:44Z</time>
      </trkpt>
      <trkpt lat="45.25294" lon="5.91921">
        <ele>540.9</ele>
        <time>2014-10-18T16:37:45Z</time>
      </trkpt>
      <trkpt lat="45.25298" lon="5.91904">
        <ele>540.1</ele>
        <time>2014-10-18T16:37:46Z</time>
      </trkpt>
      <trkpt lat="45.25302" lon="5.91887">
        <ele>539.1</ele>
        <time>2014-10-18T16:37:47Z</time>
      </trkpt>
      <trkpt lat="45.25306" lon="5.9187">
        <ele>538.1</ele>
        <time>2014-10-18T16:37:48Z</time>
      </trkpt>
      <trkpt lat="45.2531" lon="5.91853">
        <ele>536.9</ele>
        <time>2014-10-18T16:37:49Z</time>
      </trkpt>
      <trkpt lat="45.25316" lon="5.91836">
        <ele>535.6</ele>
        <time>2014-10-18T16:37:50Z</time>
      </trkpt>
      <trkpt lat="45.25323" lon="5.9182">
        <ele>534.7</ele>
        <time>2014-10-18T16:37:51Z</time>
      </trkpt>
      <trkpt lat="45.25331" lon="5.91804">
        <ele>533.7</ele>
        <time>2014-10-18T16:37:52Z</time>
      </trkpt>
      <trkpt lat="45.25337" lon="5.91788">
        <ele>532.5</ele>
        <time>2014-10-18T16:37:53Z</time>
      </trkpt>
      <trkpt lat="45.25343" lon="5.9177">
        <ele>531.5</ele>
        <time>2014-10-18T16:37:54Z</time>
      </trkpt>
      <trkpt lat="45.25347" lon="5.91753">
        <ele>530.3</ele>
        <time>2014-10-18T16:37:55Z</time>
      </trkpt>
      <trkpt lat="45.25351" lon="5.91735">
        <ele>529.6</ele>
        <time>2014-10-18T16:37:56Z</time>
      </trkpt>
      <trkpt lat="45.25356" lon="5.91718">
        <ele>528.6</ele>
        <time>2014-10-18T16:37:57Z</time>
      </trkpt>
      <trkpt lat="45.25362" lon="5.91701">
        <ele>527.6</ele>
        <time>2014-10-18T16:37:58Z</time>
      </trkpt>
      <trkpt lat="45.25368" lon="5.91685">
        <ele>526.4</ele>
        <time>2014-10-18T16:37:59Z</time>
      </trkpt>
      <trkpt lat="45.25375" lon="5.9167">
        <ele>525.4</ele>
        <time>2014-10-18T16:38:00Z</time>
      </trkpt>
      <trkpt lat="45.25382" lon="5.91655">
        <ele>524.5</ele>
        <time>2014-10-18T16:38:01Z</time>
      </trkpt>
      <trkpt lat="45.2539" lon="5.91641">
        <ele>523.5</ele>
        <time>2014-10-18T16:38:02Z</time>
      </trkpt>
      <trkpt lat="45.25399" lon="5.91628">
        <ele>522.5</ele>
        <time>2014-10-18T16:38:03Z</time>
      </trkpt>
      <trkpt lat="45.25407" lon="5.91616">
        <ele>521.4</ele>
        <time>2014-10-18T16:38:04Z</time>
      </trkpt>
      <trkpt lat="45.25413" lon="5.91601">
        <ele>520.7</ele>
        <time>2014-10-18T16:38:05Z</time>
      </trkpt>
      <trkpt lat="45.25419" lon="5.91587">
        <ele>519.5</ele>
        <time>2014-10-18T16:38:06Z</time>
      </trkpt>
      <trkpt lat="45.25424" lon="5.91573">
        <ele>518.5</ele>
        <time>2014-10-18T16:38:07Z</time>
      </trkpt>
      <trkpt lat="45.2543" lon="5.91558">
        <ele>517.4</ele>
        <time>2014-10-18T16:38:08Z</time>
      </trkpt>
      <trkpt lat="45.25436" lon="5.91545">
        <ele>516.6</ele>
        <time>2014-10-18T16:38:09Z</time>
      </trkpt>
      <trkpt lat="45.25443" lon="5.91533">
        <ele>515.5</ele>
        <time>2014-10-18T16:38:10Z</time>
      </trkpt>
      <trkpt lat="45.25451" lon="5.91524">
        <ele>514.6</ele>
        <time>2014-10-18T16:38:11Z</time>
      </trkpt>
      <trkpt lat="45.25461" lon="5.91518">
        <ele>513.8</ele>
        <time>2014-10-18T16:38:12Z</time>
      </trkpt>
      <trkpt lat="45.25472" lon="5.91515">
        <ele>512.8</ele>
        <time>2014-10-18T16:38:13Z</time>
      </trkpt>
      <trkpt lat="45.25482" lon="5.91514">
        <ele>511.9</ele>
        <time>2014-10-18T16:38:14Z</time>
      </trkpt>
      <trkpt lat="45.25494" lon="5.91516">
        <ele>511.1</ele>
        <time>2014-10-18T16:38:15Z</time>
      </trkpt>
      <trkpt lat="45.25505" lon="5.91518">
        <ele>510.1</ele>
        <time>2014-10-18T16:38:16Z</time>
      </trkpt>
      <trkpt lat="45.25516" lon="5.91521">
        <ele>509.5</ele>
        <time>2014-10-18T16:38:17Z</time>
      </trkpt>
      <trkpt lat="45.25526" lon="5.91525">
        <ele>508.7</ele>
        <time>2014-10-18T16:38:18Z</time>
      </trkpt>
      <trkpt lat="45.25536" lon="5.91528">
        <ele>508</ele>
        <time>2014-10-18T16:38:19Z</time>
      </trkpt>
      <trkpt lat="45.25546" lon="5.9153">
        <ele>507</ele>
        <time>2014-10-18T16:38:20Z</time>
      </trkpt>
      <trkpt lat="45.25555" lon="5.91532">
        <ele>506.4</ele>
        <time>2014-10-18T16:38:21Z</time>
      </trkpt>
      <trkpt lat="45.25571" lon="5.91534">
        <ele>504.8</ele>
        <time>2014-10-18T16:38:23Z</time>
      </trkpt>
      <trkpt lat="45.25582" lon="5.91536">
        <ele>503.5</ele>
        <time>2014-10-18T16:38:25Z</time>
      </trkpt>
      <trkpt lat="45.25594" lon="5.91534">
        <ele>501.9</ele>
        <time>2014-10-18T16:38:28Z</time>
      </trkpt>
      <trkpt lat="45.25604" lon="5.91536">
        <ele>500.6</ele>
        <time>2014-10-18T16:38:32Z</time>
      </trkpt>
      <trkpt lat="45.25613" lon="5.91541">
        <ele>499.4</ele>
        <time>2014-10-18T16:38:45Z</time>
      </trkpt>
      <trkpt lat="45.25623" lon="5.91546">
        <ele>498.9</ele>
        <time>2014-10-18T16:38:48Z</time>
      </trkpt>
      <trkpt lat="45.25632" lon="5.91549">
        <ele>498.1</ele>
        <time>2014-10-18T16:38:52Z</time>
      </trkpt>
      <trkpt lat="45.25643" lon="5.91557">
        <ele>496.8</ele>
        <time>2014-10-18T16:39:04Z</time>
      </trkpt>
      <trkpt lat="45.25653" lon="5.9157">
        <ele>496.1</ele>
        <time>2014-10-18T16:39:07Z</time>
      </trkpt>
      <trkpt lat="45.25663" lon="5.91577">
        <ele>495.3</ele>
        <time>2014-10-18T16:39:09Z</time>
      </trkpt>
      <trkpt lat="45.25673" lon="5.91587">
        <ele>494.8</ele>
        <time>2014-10-18T16:39:11Z</time>
      </trkpt>
      <trkpt lat="45.25684" lon="5.91598">
        <ele>494</ele>
        <time>2014-10-18T16:39:13Z</time>
      </trkpt>
      <trkpt lat="45.25696" lon="5.91611">
        <ele>492.9</ele>
        <time>2014-10-18T16:39:15Z</time>
      </trkpt>
      <trkpt lat="45.25709" lon="5.91624">
        <ele>492</ele>
        <time>2014-10-18T16:39:17Z</time>
      </trkpt>
      <trkpt lat="45.25722" lon="5.91639">
        <ele>490.7</ele>
        <time>2014-10-18T16:39:19Z</time>
      </trkpt>
      <trkpt lat="45.2573" lon="5.91646">
        <ele>490</ele>
        <time>2014-10-18T16:39:20Z</time>
      </trkpt>
      <trkpt lat="45.25746" lon="5.91662">
        <ele>488.9</ele>
        <time>2014-10-18T16:39:22Z</time>
      </trkpt>
      <trkpt lat="45.25755" lon="5.9167">
        <ele>488.3</ele>
        <time>2014-10-18T16:39:23Z</time>
      </trkpt>
      <trkpt lat="45.25763" lon="5.91678">
        <ele>487.7</ele>
        <time>2014-10-18T16:39:24Z</time>
      </trkpt>
      <trkpt lat="45.25772" lon="5.91686">
        <ele>487</ele>
        <time>2014-10-18T16:39:25Z</time>
      </trkpt>
      <trkpt lat="45.2578" lon="5.91695">
        <ele>486.2</ele>
        <time>2014-10-18T16:39:26Z</time>
      </trkpt>
      <trkpt lat="45.25789" lon="5.91703">
        <ele>485.4</ele>
        <time>2014-10-18T16:39:27Z</time>
      </trkpt>
      <trkpt lat="45.25797" lon="5.91712">
        <ele>484.7</ele>
        <time>2014-10-18T16:39:28Z</time>
      </trkpt>
      <trkpt lat="45.25805" lon="5.91721">
        <ele>483.9</ele>
        <time>2014-10-18T16:39:29Z</time>
      </trkpt>
      <trkpt lat="45.25813" lon="5.91731">
        <ele>483</ele>
        <time>2014-10-18T16:39:30Z</time>
      </trkpt>
      <trkpt lat="45.25821" lon="5.9174">
        <ele>482.2</ele>
        <time>2014-10-18T16:39:31Z</time>
      </trkpt>
      <trkpt lat="45.25829" lon="5.9175">
        <ele>481.4</ele>
        <time>2014-10-18T16:39:32Z</time>
      </trkpt>
      <trkpt lat="45.25836" lon="5.91761">
        <ele>480.8</ele>
        <time>2014-10-18T16:39:33Z</time>
      </trkpt>
      <trkpt lat="45.25844" lon="5.91771">
        <ele>480.2</ele>
        <time>2014-10-18T16:39:34Z</time>
      </trkpt>
      <trkpt lat="45.25851" lon="5.91782">
        <ele>479.1</ele>
        <time>2014-10-18T16:39:35Z</time>
      </trkpt>
      <trkpt lat="45.25859" lon="5.91793">
        <ele>478.4</ele>
        <time>2014-10-18T16:39:36Z</time>
      </trkpt>
      <trkpt lat="45.25868" lon="5.91803">
        <ele>477.4</ele>
        <time>2014-10-18T16:39:37Z</time>
      </trkpt>
      <trkpt lat="45.25877" lon="5.91812">
        <ele>476.7</ele>
        <time>2014-10-18T16:39:38Z</time>
      </trkpt>
      <trkpt lat="45.25887" lon="5.9182">
        <ele>475.9</ele>
        <time>2014-10-18T16:39:39Z</time>
      </trkpt>
      <trkpt lat="45.25896" lon="5.91827">
        <ele>475.1</ele>
        <time>2014-10-18T16:39:40Z</time>
      </trkpt>
      <trkpt lat="45.25906" lon="5.91834">
        <ele>474.5</ele>
        <time>2014-10-18T16:39:41Z</time>
      </trkpt>
      <trkpt lat="45.25917" lon="5.91841">
        <ele>473.7</ele>
        <time>2014-10-18T16:39:42Z</time>
      </trkpt>
      <trkpt lat="45.25929" lon="5.91847">
        <ele>472.9</ele>
        <time>2014-10-18T16:39:43Z</time>
      </trkpt>
      <trkpt lat="45.2594" lon="5.91853">
        <ele>472</ele>
        <time>2014-10-18T16:39:44Z</time>
      </trkpt>
      <trkpt lat="45.25951" lon="5.91857">
        <ele>471.1</ele>
        <time>2014-10-18T16:39:45Z</time>
      </trkpt>
      <trkpt lat="45.25962" lon="5.91861">
        <ele>470.1</ele>
        <time>2014-10-18T16:39:46Z</time>
      </trkpt>
      <trkpt lat="45.25974" lon="5.91862">
        <ele>469.3</ele>
        <time>2014-10-18T16:39:47Z</time>
      </trkpt>
      <trkpt lat="45.25986" lon="5.91861">
        <ele>468.3</ele>
        <time>2014-10-18T16:39:48Z</time>
      </trkpt>
      <trkpt lat="45.25997" lon="5.91861">
        <ele>467.3</ele>
        <time>2014-10-18T16:39:49Z</time>
      </trkpt>
      <trkpt lat="45.26009" lon="5.91863">
        <ele>466.4</ele>
        <time>2014-10-18T16:39:50Z</time>
      </trkpt>
      <trkpt lat="45.26021" lon="5.91865">
        <ele>465.6</ele>
        <time>2014-10-18T16:39:51Z</time>
      </trkpt>
      <trkpt lat="45.26033" lon="5.91868">
        <ele>464.7</ele>
        <time>2014-10-18T16:39:52Z</time>
      </trkpt>
      <trkpt lat="45.26045" lon="5.91871">
        <ele>463.7</ele>
        <time>2014-10-18T16:39:53Z</time>
      </trkpt>
      <trkpt lat="45.26055" lon="5.91875">
        <ele>462.8</ele>
        <time>2014-10-18T16:39:54Z</time>
      </trkpt>
      <trkpt lat="45.26065" lon="5.9188">
        <ele>461.8</ele>
        <time>2014-10-18T16:39:55Z</time>
      </trkpt>
      <trkpt lat="45.26074" lon="5.91885">
        <ele>461.1</ele>
        <time>2014-10-18T16:39:56Z</time>
      </trkpt>
      <trkpt lat="45.26083" lon="5.91891">
        <ele>460</ele>
        <time>2014-10-18T16:39:57Z</time>
      </trkpt>
      <trkpt lat="45.26091" lon="5.91896">
        <ele>459.2</ele>
        <time>2014-10-18T16:39:58Z</time>
      </trkpt>
      <trkpt lat="45.26105" lon="5.91903">
        <ele>457.7</ele>
        <time>2014-10-18T16:40:00Z</time>
      </trkpt>
      <trkpt lat="45.26114" lon="5.91911">
        <ele>456.9</ele>
        <time>2014-10-18T16:40:01Z</time>
      </trkpt>
      <trkpt lat="45.26128" lon="5.91921">
        <ele>456.1</ele>
        <time>2014-10-18T16:40:03Z</time>
      </trkpt>
      <trkpt lat="45.26141" lon="5.91928">
        <ele>454.8</ele>
        <time>2014-10-18T16:40:05Z</time>
      </trkpt>
      <trkpt lat="45.26152" lon="5.91938">
        <ele>453.8</ele>
        <time>2014-10-18T16:40:07Z</time>
      </trkpt>
      <trkpt lat="45.26162" lon="5.91952">
        <ele>452.7</ele>
        <time>2014-10-18T16:40:09Z</time>
      </trkpt>
      <trkpt lat="45.26175" lon="5.91968">
        <ele>451.3</ele>
        <time>2014-10-18T16:40:11Z</time>
      </trkpt>
      <trkpt lat="45.26188" lon="5.91986">
        <ele>450</ele>
        <time>2014-10-18T16:40:13Z</time>
      </trkpt>
      <trkpt lat="45.26194" lon="5.91995">
        <ele>449.3</ele>
        <time>2014-10-18T16:40:14Z</time>
      </trkpt>
      <trkpt lat="45.26206" lon="5.92014">
        <ele>448</ele>
        <time>2014-10-18T16:40:16Z</time>
      </trkpt>
      <trkpt lat="45.26214" lon="5.92024">
        <ele>447.3</ele>
        <time>2014-10-18T16:40:17Z</time>
      </trkpt>
      <trkpt lat="45.26223" lon="5.92033">
        <ele>446.7</ele>
        <time>2014-10-18T16:40:18Z</time>
      </trkpt>
      <trkpt lat="45.2623" lon="5.92042">
        <ele>445.9</ele>
        <time>2014-10-18T16:40:19Z</time>
      </trkpt>
      <trkpt lat="45.26238" lon="5.92049">
        <ele>445.4</ele>
        <time>2014-10-18T16:40:20Z</time>
      </trkpt>
      <trkpt lat="45.26251" lon="5.92059">
        <ele>443.9</ele>
        <time>2014-10-18T16:40:22Z</time>
      </trkpt>
      <trkpt lat="45.26266" lon="5.92067">
        <ele>442.4</ele>
        <time>2014-10-18T16:40:24Z</time>
      </trkpt>
      <trkpt lat="45.26282" lon="5.92073">
        <ele>441</ele>
        <time>2014-10-18T16:40:26Z</time>
      </trkpt>
      <trkpt lat="45.263" lon="5.92077">
        <ele>439.5</ele>
        <time>2014-10-18T16:40:28Z</time>
      </trkpt>
      <trkpt lat="45.26309" lon="5.92079">
        <ele>438.8</ele>
        <time>2014-10-18T16:40:29Z</time>
      </trkpt>
      <trkpt lat="45.26319" lon="5.92081">
        <ele>438.1</ele>
        <time>2014-10-18T16:40:30Z</time>
      </trkpt>
      <trkpt lat="45.26329" lon="5.92083">
        <ele>437.5</ele>
        <time>2014-10-18T16:40:31Z</time>
      </trkpt>
      <trkpt lat="45.26339" lon="5.92087">
        <ele>436.6</ele>
        <time>2014-10-18T16:40:32Z</time>
      </trkpt>
      <trkpt lat="45.26349" lon="5.92091">
        <ele>435.9</ele>
        <time>2014-10-18T16:40:33Z</time>
      </trkpt>
      <trkpt lat="45.26359" lon="5.92097">
        <ele>435.3</ele>
        <time>2014-10-18T16:40:34Z</time>
      </trkpt>
      <trkpt lat="45.26369" lon="5.92103">
        <ele>434.8</ele>
        <time>2014-10-18T16:40:35Z</time>
      </trkpt>
      <trkpt lat="45.26379" lon="5.9211">
        <ele>433.9</ele>
        <time>2014-10-18T16:40:36Z</time>
      </trkpt>
      <trkpt lat="45.26389" lon="5.92117">
        <ele>433.2</ele>
        <time>2014-10-18T16:40:37Z</time>
      </trkpt>
      <trkpt lat="45.26399" lon="5.92124">
        <ele>432.2</ele>
        <time>2014-10-18T16:40:38Z</time>
      </trkpt>
      <trkpt lat="45.26409" lon="5.9213">
        <ele>431.4</ele>
        <time>2014-10-18T16:40:39Z</time>
      </trkpt>
      <trkpt lat="45.2642" lon="5.92137">
        <ele>430.8</ele>
        <time>2014-10-18T16:40:40Z</time>
      </trkpt>
      <trkpt lat="45.2643" lon="5.92144">
        <ele>429.9</ele>
        <time>2014-10-18T16:40:41Z</time>
      </trkpt>
      <trkpt lat="45.2644" lon="5.92151">
        <ele>428.9</ele>
        <time>2014-10-18T16:40:42Z</time>
      </trkpt>
      <trkpt lat="45.2645" lon="5.92157">
        <ele>428.1</ele>
        <time>2014-10-18T16:40:43Z</time>
      </trkpt>
      <trkpt lat="45.26461" lon="5.92164">
        <ele>427.3</ele>
        <time>2014-10-18T16:40:44Z</time>
      </trkpt>
      <trkpt lat="45.26471" lon="5.92171">
        <ele>426.4</ele>
        <time>2014-10-18T16:40:45Z</time>
      </trkpt>
      <trkpt lat="45.26482" lon="5.92178">
        <ele>425.4</ele>
        <time>2014-10-18T16:40:46Z</time>
      </trkpt>
      <trkpt lat="45.26493" lon="5.92184">
        <ele>424.7</ele>
        <time>2014-10-18T16:40:47Z</time>
      </trkpt>
      <trkpt lat="45.26503" lon="5.92191">
        <ele>423.8</ele>
        <time>2014-10-18T16:40:48Z</time>
      </trkpt>
      <trkpt lat="45.26514" lon="5.92198">
        <ele>423.2</ele>
        <time>2014-10-18T16:40:49Z</time>
      </trkpt>
      <trkpt lat="45.26525" lon="5.92205">
        <ele>422.5</ele>
        <time>2014-10-18T16:40:50Z</time>
      </trkpt>
      <trkpt lat="45.26534" lon="5.92213">
        <ele>421.6</ele>
        <time>2014-10-18T16:40:51Z</time>
      </trkpt>
      <trkpt lat="45.26545" lon="5.92221">
        <ele>420.8</ele>
        <time>2014-10-18T16:40:52Z</time>
      </trkpt>
      <trkpt lat="45.26554" lon="5.92229">
        <ele>419.8</ele>
        <time>2014-10-18T16:40:53Z</time>
      </trkpt>
      <trkpt lat="45.26564" lon="5.92237">
        <ele>418.9</ele>
        <time>2014-10-18T16:40:54Z</time>
      </trkpt>
      <trkpt lat="45.26573" lon="5.92245">
        <ele>418</ele>
        <time>2014-10-18T16:40:55Z</time>
      </trkpt>
      <trkpt lat="45.26581" lon="5.92252">
        <ele>417.2</ele>
        <time>2014-10-18T16:40:56Z</time>
      </trkpt>
      <trkpt lat="45.26589" lon="5.92259">
        <ele>416.2</ele>
        <time>2014-10-18T16:40:57Z</time>
      </trkpt>
      <trkpt lat="45.26598" lon="5.92266">
        <ele>415.5</ele>
        <time>2014-10-18T16:40:58Z</time>
      </trkpt>
      <trkpt lat="45.26606" lon="5.92274">
        <ele>414.5</ele>
        <time>2014-10-18T16:40:59Z</time>
      </trkpt>
      <trkpt lat="45.26615" lon="5.92282">
        <ele>413.8</ele>
        <time>2014-10-18T16:41:00Z</time>
      </trkpt>
      <trkpt lat="45.26623" lon="5.9229">
        <ele>413</ele>
        <time>2014-10-18T16:41:01Z</time>
      </trkpt>
      <trkpt lat="45.26632" lon="5.92299">
        <ele>412.4</ele>
        <time>2014-10-18T16:41:02Z</time>
      </trkpt>
      <trkpt lat="45.2664" lon="5.92308">
        <ele>411.3</ele>
        <time>2014-10-18T16:41:03Z</time>
      </trkpt>
      <trkpt lat="45.26647" lon="5.92316">
        <ele>410.5</ele>
        <time>2014-10-18T16:41:04Z</time>
      </trkpt>
      <trkpt lat="45.26662" lon="5.92326">
        <ele>409</ele>
        <time>2014-10-18T16:41:06Z</time>
      </trkpt>
      <trkpt lat="45.26677" lon="5.92325">
        <ele>407.7</ele>
        <time>2014-10-18T16:41:08Z</time>
      </trkpt>
      <trkpt lat="45.26684" lon="5.92311">
        <ele>406.7</ele>
        <time>2014-10-18T16:41:10Z</time>
      </trkpt>
      <trkpt lat="45.2668" lon="5.9229">
        <ele>405.6</ele>
        <time>2014-10-18T16:41:12Z</time>
      </trkpt>
      <trkpt lat="45.26668" lon="5.92276">
        <ele>405</ele>
        <time>2014-10-18T16:41:14Z</time>
      </trkpt>
      <trkpt lat="45.26653" lon="5.92268">
        <ele>404.3</ele>
        <time>2014-10-18T16:41:16Z</time>
      </trkpt>
      <trkpt lat="45.26639" lon="5.92257">
        <ele>403.1</ele>
        <time>2014-10-18T16:41:18Z</time>
      </trkpt>
      <trkpt lat="45.26631" lon="5.92249">
        <ele>402.5</ele>
        <time>2014-10-18T16:41:19Z</time>
      </trkpt>
      <trkpt lat="45.26624" lon="5.9224">
        <ele>401.8</ele>
        <time>2014-10-18T16:41:20Z</time>
      </trkpt>
      <trkpt lat="45.26618" lon="5.9223">
        <ele>401.1</ele>
        <time>2014-10-18T16:41:21Z</time>
      </trkpt>
      <trkpt lat="45.26612" lon="5.92218">
        <ele>400.5</ele>
        <time>2014-10-18T16:41:22Z</time>
      </trkpt>
      <trkpt lat="45.26607" lon="5.92205">
        <ele>400</ele>
        <time>2014-10-18T16:41:23Z</time>
      </trkpt>
      <trkpt lat="45.26603" lon="5.92192">
        <ele>399.2</ele>
        <time>2014-10-18T16:41:24Z</time>
      </trkpt>
      <trkpt lat="45.26599" lon="5.92178">
        <ele>398.3</ele>
        <time>2014-10-18T16:41:25Z</time>
      </trkpt>
      <trkpt lat="45.26595" lon="5.92164">
        <ele>397.5</ele>
        <time>2014-10-18T16:41:26Z</time>
      </trkpt>
      <trkpt lat="45.26591" lon="5.92149">
        <ele>396.7</ele>
        <time>2014-10-18T16:41:27Z</time>
      </trkpt>
      <trkpt lat="45.26586" lon="5.92135">
        <ele>395.9</ele>
        <time>2014-10-18T16:41:28Z</time>
      </trkpt>
      <trkpt lat="45.2658" lon="5.92121">
        <ele>395.2</ele>
        <time>2014-10-18T16:41:29Z</time>
      </trkpt>
      <trkpt lat="45.26574" lon="5.92108">
        <ele>394.2</ele>
        <time>2014-10-18T16:41:30Z</time>
      </trkpt>
      <trkpt lat="45.26566" lon="5.92095">
        <ele>393.3</ele>
        <time>2014-10-18T16:41:31Z</time>
      </trkpt>
      <trkpt lat="45.26558" lon="5.92083">
        <ele>392.6</ele>
        <time>2014-10-18T16:41:32Z</time>
      </trkpt>
      <trkpt lat="45.26549" lon="5.92071">
        <ele>391.5</ele>
        <time>2014-10-18T16:41:33Z</time>
      </trkpt>
      <trkpt lat="45.26541" lon="5.92059">
        <ele>390.5</ele>
        <time>2014-10-18T16:41:34Z</time>
      </trkpt>
      <trkpt lat="45.26532" lon="5.92047">
        <ele>389.1</ele>
        <time>2014-10-18T16:41:35Z</time>
      </trkpt>
      <trkpt lat="45.26523" lon="5.92036">
        <ele>388</ele>
        <time>2014-10-18T16:41:36Z</time>
      </trkpt>
      <trkpt lat="45.26514" lon="5.92024">
        <ele>387.1</ele>
        <time>2014-10-18T16:41:37Z</time>
      </trkpt>
      <trkpt lat="45.26504" lon="5.92012">
        <ele>386.1</ele>
        <time>2014-10-18T16:41:38Z</time>
      </trkpt>
      <trkpt lat="45.26495" lon="5.91999">
        <ele>385</ele>
        <time>2014-10-18T16:41:39Z</time>
      </trkpt>
      <trkpt lat="45.26486" lon="5.91986">
        <ele>384</ele>
        <time>2014-10-18T16:41:40Z</time>
      </trkpt>
      <trkpt lat="45.26477" lon="5.91974">
        <ele>383.2</ele>
        <time>2014-10-18T16:41:41Z</time>
      </trkpt>
      <trkpt lat="45.26468" lon="5.91961">
        <ele>382</ele>
        <time>2014-10-18T16:41:42Z</time>
      </trkpt>
      <trkpt lat="45.2646" lon="5.91948">
        <ele>381.1</ele>
        <time>2014-10-18T16:41:43Z</time>
      </trkpt>
      <trkpt lat="45.26451" lon="5.91935">
        <ele>379.9</ele>
        <time>2014-10-18T16:41:44Z</time>
      </trkpt>
      <trkpt lat="45.26441" lon="5.91924">
        <ele>378.9</ele>
        <time>2014-10-18T16:41:45Z</time>
      </trkpt>
      <trkpt lat="45.26432" lon="5.91913">
        <ele>377.8</ele>
        <time>2014-10-18T16:41:46Z</time>
      </trkpt>
      <trkpt lat="45.26422" lon="5.91902">
        <ele>376.8</ele>
        <time>2014-10-18T16:41:47Z</time>
      </trkpt>
      <trkpt lat="45.26411" lon="5.91892">
        <ele>375.9</ele>
        <time>2014-10-18T16:41:48Z</time>
      </trkpt>
      <trkpt lat="45.264" lon="5.91882">
        <ele>374.6</ele>
        <time>2014-10-18T16:41:49Z</time>
      </trkpt>
      <trkpt lat="45.2639" lon="5.91873">
        <ele>373.4</ele>
        <time>2014-10-18T16:41:50Z</time>
      </trkpt>
      <trkpt lat="45.2638" lon="5.91864">
        <ele>372</ele>
        <time>2014-10-18T16:41:51Z</time>
      </trkpt>
      <trkpt lat="45.26373" lon="5.91854">
        <ele>370.8</ele>
        <time>2014-10-18T16:41:52Z</time>
      </trkpt>
      <trkpt lat="45.26366" lon="5.91845">
        <ele>369.5</ele>
        <time>2014-10-18T16:41:53Z</time>
      </trkpt>
      <trkpt lat="45.26359" lon="5.91823">
        <ele>367.3</ele>
        <time>2014-10-18T16:41:55Z</time>
      </trkpt>
      <trkpt lat="45.26363" lon="5.918">
        <ele>365.9</ele>
        <time>2014-10-18T16:41:57Z</time>
      </trkpt>
      <trkpt lat="45.26368" lon="5.91778">
        <ele>364.3</ele>
        <time>2014-10-18T16:41:59Z</time>
      </trkpt>
      <trkpt lat="45.26362" lon="5.91756">
        <ele>363.1</ele>
        <time>2014-10-18T16:42:01Z</time>
      </trkpt>
      <trkpt lat="45.26354" lon="5.91748">
        <ele>362.3</ele>
        <time>2014-10-18T16:42:02Z</time>
      </trkpt>
      <trkpt lat="45.26345" lon="5.91744">
        <ele>361.7</ele>
        <time>2014-10-18T16:42:03Z</time>
      </trkpt>
      <trkpt lat="45.26335" lon="5.91742">
        <ele>361</ele>
        <time>2014-10-18T16:42:04Z</time>
      </trkpt>
      <trkpt lat="45.26326" lon="5.91741">
        <ele>360.2</ele>
        <time>2014-10-18T16:42:05Z</time>
      </trkpt>
      <trkpt lat="45.26318" lon="5.91736">
        <ele>359.8</ele>
        <time>2014-10-18T16:42:06Z</time>
      </trkpt>
      <trkpt lat="45.2631" lon="5.91727">
        <ele>359</ele>
        <time>2014-10-18T16:42:07Z</time>
      </trkpt>
      <trkpt lat="45.26304" lon="5.91716">
        <ele>358.2</ele>
        <time>2014-10-18T16:42:08Z</time>
      </trkpt>
      <trkpt lat="45.26298" lon="5.91704">
        <ele>357.4</ele>
        <time>2014-10-18T16:42:09Z</time>
      </trkpt>
      <trkpt lat="45.2629" lon="5.91693">
        <ele>356.6</ele>
        <time>2014-10-18T16:42:10Z</time>
      </trkpt>
      <trkpt lat="45.26282" lon="5.91683">
        <ele>355.9</ele>
        <time>2014-10-18T16:42:11Z</time>
      </trkpt>
      <trkpt lat="45.26273" lon="5.91674">
        <ele>354.9</ele>
        <time>2014-10-18T16:42:12Z</time>
      </trkpt>
      <trkpt lat="45.26264" lon="5.91664">
        <ele>354.3</ele>
        <time>2014-10-18T16:42:13Z</time>
      </trkpt>
      <trkpt lat="45.26255" lon="5.91654">
        <ele>353.3</ele>
        <time>2014-10-18T16:42:14Z</time>
      </trkpt>
      <trkpt lat="45.26247" lon="5.91643">
        <ele>352.4</ele>
        <time>2014-10-18T16:42:15Z</time>
      </trkpt>
      <trkpt lat="45.26238" lon="5.91632">
        <ele>351.5</ele>
        <time>2014-10-18T16:42:16Z</time>
      </trkpt>
      <trkpt lat="45.2623" lon="5.9162">
        <ele>350.8</ele>
        <time>2014-10-18T16:42:17Z</time>
      </trkpt>
      <trkpt lat="45.26221" lon="5.91608">
        <ele>349.9</ele>
        <time>2014-10-18T16:42:18Z</time>
      </trkpt>
      <trkpt lat="45.26213" lon="5.91595">
        <ele>348.9</ele>
        <time>2014-10-18T16:42:19Z</time>
      </trkpt>
      <trkpt lat="45.26204" lon="5.91584">
        <ele>347.6</ele>
        <time>2014-10-18T16:42:20Z</time>
      </trkpt>
      <trkpt lat="45.26195" lon="5.91572">
        <ele>346.3</ele>
        <time>2014-10-18T16:42:21Z</time>
      </trkpt>
      <trkpt lat="45.26187" lon="5.9156">
        <ele>345.1</ele>
        <time>2014-10-18T16:42:22Z</time>
      </trkpt>
      <trkpt lat="45.26179" lon="5.91548">
        <ele>344.4</ele>
        <time>2014-10-18T16:42:23Z</time>
      </trkpt>
      <trkpt lat="45.2617" lon="5.91536">
        <ele>343.3</ele>
        <time>2014-10-18T16:42:24Z</time>
      </trkpt>
      <trkpt lat="45.26161" lon="5.91524">
        <ele>342.3</ele>
        <time>2014-10-18T16:42:25Z</time>
      </trkpt>
      <trkpt lat="45.26152" lon="5.91512">
        <ele>341.3</ele>
        <time>2014-10-18T16:42:26Z</time>
      </trkpt>
      <trkpt lat="45.26143" lon="5.915">
        <ele>340.3</ele>
        <time>2014-10-18T16:42:27Z</time>
      </trkpt>
      <trkpt lat="45.26133" lon="5.9149">
        <ele>339</ele>
        <time>2014-10-18T16:42:28Z</time>
      </trkpt>
      <trkpt lat="45.26123" lon="5.91479">
        <ele>337.9</ele>
        <time>2014-10-18T16:42:29Z</time>
      </trkpt>
      <trkpt lat="45.26114" lon="5.91467">
        <ele>336.9</ele>
        <time>2014-10-18T16:42:30Z</time>
      </trkpt>
      <trkpt lat="45.26106" lon="5.91454">
        <ele>335.9</ele>
        <time>2014-10-18T16:42:31Z</time>
      </trkpt>
      <trkpt lat="45.26099" lon="5.91439">
        <ele>334.8</ele>
        <time>2014-10-18T16:42:32Z</time>
      </trkpt>
      <trkpt lat="45.26092" lon="5.91425">
        <ele>333.6</ele>
        <time>2014-10-18T16:42:33Z</time>
      </trkpt>
      <trkpt lat="45.26084" lon="5.91411">
        <ele>332.5</ele>
        <time>2014-10-18T16:42:34Z</time>
      </trkpt>
      <trkpt lat="45.26075" lon="5.91398">
        <ele>331.2</ele>
        <time>2014-10-18T16:42:35Z</time>
      </trkpt>
      <trkpt lat="45.26066" lon="5.91386">
        <ele>330</ele>
        <time>2014-10-18T16:42:36Z</time>
      </trkpt>
      <trkpt lat="45.26056" lon="5.91374">
        <ele>328.7</ele>
        <time>2014-10-18T16:42:37Z</time>
      </trkpt>
      <trkpt lat="45.26046" lon="5.91361">
        <ele>327.8</ele>
        <time>2014-10-18T16:42:38Z</time>
      </trkpt>
      <trkpt lat="45.26038" lon="5.91348">
        <ele>326.6</ele>
        <time>2014-10-18T16:42:39Z</time>
      </trkpt>
      <trkpt lat="45.2603" lon="5.91334">
        <ele>325.8</ele>
        <time>2014-10-18T16:42:40Z</time>
      </trkpt>
      <trkpt lat="45.26022" lon="5.9132">
        <ele>324.6</ele>
        <time>2014-10-18T16:42:41Z</time>
      </trkpt>
      <trkpt lat="45.26013" lon="5.91306">
        <ele>323.5</ele>
        <time>2014-10-18T16:42:42Z</time>
      </trkpt>
      <trkpt lat="45.26005" lon="5.91293">
        <ele>322.5</ele>
        <time>2014-10-18T16:42:43Z</time>
      </trkpt>
      <trkpt lat="45.25997" lon="5.9128">
        <ele>321.6</ele>
        <time>2014-10-18T16:42:44Z</time>
      </trkpt>
      <trkpt lat="45.25988" lon="5.91267">
        <ele>320.5</ele>
        <time>2014-10-18T16:42:45Z</time>
      </trkpt>
      <trkpt lat="45.25979" lon="5.91255">
        <ele>319.3</ele>
        <time>2014-10-18T16:42:46Z</time>
      </trkpt>
      <trkpt lat="45.2597" lon="5.91243">
        <ele>318.2</ele>
        <time>2014-10-18T16:42:47Z</time>
      </trkpt>
      <trkpt lat="45.2596" lon="5.91232">
        <ele>317.2</ele>
        <time>2014-10-18T16:42:48Z</time>
      </trkpt>
      <trkpt lat="45.2595" lon="5.91221">
        <ele>316</ele>
        <time>2014-10-18T16:42:49Z</time>
      </trkpt>
      <trkpt lat="45.2594" lon="5.9121">
        <ele>315</ele>
        <time>2014-10-18T16:42:50Z</time>
      </trkpt>
      <trkpt lat="45.2593" lon="5.912">
        <ele>313.8</ele>
        <time>2014-10-18T16:42:51Z</time>
      </trkpt>
      <trkpt lat="45.25921" lon="5.91188">
        <ele>312.8</ele>
        <time>2014-10-18T16:42:52Z</time>
      </trkpt>
      <trkpt lat="45.25913" lon="5.91176">
        <ele>311.7</ele>
        <time>2014-10-18T16:42:53Z</time>
      </trkpt>
      <trkpt lat="45.25904" lon="5.91163">
        <ele>310.9</ele>
        <time>2014-10-18T16:42:54Z</time>
      </trkpt>
      <trkpt lat="45.25896" lon="5.9115">
        <ele>309.7</ele>
        <time>2014-10-18T16:42:55Z</time>
      </trkpt>
      <trkpt lat="45.25889" lon="5.91136">
        <ele>308.9</ele>
        <time>2014-10-18T16:42:56Z</time>
      </trkpt>
      <trkpt lat="45.25882" lon="5.91123">
        <ele>307.6</ele>
        <time>2014-10-18T16:42:57Z</time>
      </trkpt>
      <trkpt lat="45.25875" lon="5.9111">
        <ele>306.6</ele>
        <time>2014-10-18T16:42:58Z</time>
      </trkpt>
      <trkpt lat="45.25868" lon="5.91097">
        <ele>305.3</ele>
        <time>2014-10-18T16:42:59Z</time>
      </trkpt>
      <trkpt lat="45.25862" lon="5.91084">
        <ele>304.2</ele>
        <time>2014-10-18T16:43:00Z</time>
      </trkpt>
      <trkpt lat="45.25856" lon="5.91072">
        <ele>303.1</ele>
        <time>2014-10-18T16:43:01Z</time>
      </trkpt>
      <trkpt lat="45.25851" lon="5.91062">
        <ele>302.1</ele>
        <time>2014-10-18T16:43:02Z</time>
      </trkpt>
      <trkpt lat="45.25841" lon="5.91044">
        <ele>300.3</ele>
        <time>2014-10-18T16:43:04Z</time>
      </trkpt>
      <trkpt lat="45.25834" lon="5.9103">
        <ele>299</ele>
        <time>2014-10-18T16:43:06Z</time>
      </trkpt>
      <trkpt lat="45.25826" lon="5.91015">
        <ele>297.7</ele>
        <time>2014-10-18T16:43:08Z</time>
      </trkpt>
      <trkpt lat="45.25824" lon="5.90999">
        <ele>296.9</ele>
        <time>2014-10-18T16:43:10Z</time>
      </trkpt>
      <trkpt lat="45.25828" lon="5.90984">
        <ele>296.3</ele>
        <time>2014-10-18T16:43:12Z</time>
      </trkpt>
      <trkpt lat="45.25831" lon="5.90968">
        <ele>295.8</ele>
        <time>2014-10-18T16:43:14Z</time>
      </trkpt>
      <trkpt lat="45.25833" lon="5.9095">
        <ele>295.4</ele>
        <time>2014-10-18T16:43:16Z</time>
      </trkpt>
      <trkpt lat="45.25835" lon="5.90932">
        <ele>295</ele>
        <time>2014-10-18T16:43:18Z</time>
      </trkpt>
      <trkpt lat="45.25836" lon="5.90915">
        <ele>294.4</ele>
        <time>2014-10-18T16:43:20Z</time>
      </trkpt>
      <trkpt lat="45.25838" lon="5.909">
        <ele>293.6</ele>
        <time>2014-10-18T16:43:22Z</time>
      </trkpt>
      <trkpt lat="45.25838" lon="5.90882">
        <ele>292.7</ele>
        <time>2014-10-18T16:43:25Z</time>
      </trkpt>
      <trkpt lat="45.2584" lon="5.90867">
        <ele>292.5</ele>
        <time>2014-10-18T16:43:28Z</time>
      </trkpt>
      <trkpt lat="45.2584" lon="5.90854">
        <ele>291.7</ele>
        <time>2014-10-18T16:43:32Z</time>
      </trkpt>
      <trkpt lat="45.25845" lon="5.90842">
        <ele>290.8</ele>
        <time>2014-10-18T16:43:40Z</time>
      </trkpt>
      <trkpt lat="45.25846" lon="5.90828">
        <ele>290.4</ele>
        <time>2014-10-18T16:43:45Z</time>
      </trkpt>
      <trkpt lat="45.25844" lon="5.90812">
        <ele>290</ele>
        <time>2014-10-18T16:43:49Z</time>
      </trkpt>
      <trkpt lat="45.25847" lon="5.90797">
        <ele>289.6</ele>
        <time>2014-10-18T16:43:52Z</time>
      </trkpt>
      <trkpt lat="45.2585" lon="5.9078">
        <ele>289</ele>
        <time>2014-10-18T16:43:55Z</time>
      </trkpt>
      <trkpt lat="45.25854" lon="5.90768">
        <ele>288.8</ele>
        <time>2014-10-18T16:43:57Z</time>
      </trkpt>
      <trkpt lat="45.25857" lon="5.90754">
        <ele>288.5</ele>
        <time>2014-10-18T16:43:59Z</time>
      </trkpt>
      <trkpt lat="45.25859" lon="5.90738">
        <ele>287.8</ele>
        <time>2014-10-18T16:44:01Z</time>
      </trkpt>
      <trkpt lat="45.25862" lon="5.90723">
        <ele>287.5</ele>
        <time>2014-10-18T16:44:03Z</time>
      </trkpt>
      <trkpt lat="45.25865" lon="5.90706">
        <ele>286.8</ele>
        <time>2014-10-18T16:44:05Z</time>
      </trkpt>
      <trkpt lat="45.25871" lon="5.9069">
        <ele>286.1</ele>
        <time>2014-10-18T16:44:07Z</time>
      </trkpt>
      <trkpt lat="45.25879" lon="5.90674">
        <ele>285.5</ele>
        <time>2014-10-18T16:44:09Z</time>
      </trkpt>
      <trkpt lat="45.25888" lon="5.90659">
        <ele>285</ele>
        <time>2014-10-18T16:44:11Z</time>
      </trkpt>
      <trkpt lat="45.25897" lon="5.90645">
        <ele>284.8</ele>
        <time>2014-10-18T16:44:13Z</time>
      </trkpt>
      <trkpt lat="45.25907" lon="5.90634">
        <ele>284.4</ele>
        <time>2014-10-18T16:44:15Z</time>
      </trkpt>
      <trkpt lat="45.25917" lon="5.90622">
        <ele>283.8</ele>
        <time>2014-10-18T16:44:17Z</time>
      </trkpt>
      <trkpt lat="45.25927" lon="5.90611">
        <ele>283.4</ele>
        <time>2014-10-18T16:44:19Z</time>
      </trkpt>
      <trkpt lat="45.25936" lon="5.906">
        <ele>282.8</ele>
        <time>2014-10-18T16:44:21Z</time>
      </trkpt>
      <trkpt lat="45.25946" lon="5.90589">
        <ele>282.7</ele>
        <time>2014-10-18T16:44:23Z</time>
      </trkpt>
      <trkpt lat="45.25956" lon="5.90578">
        <ele>282.2</ele>
        <time>2014-10-18T16:44:25Z</time>
      </trkpt>
      <trkpt lat="45.25966" lon="5.90567">
        <ele>281.7</ele>
        <time>2014-10-18T16:44:27Z</time>
      </trkpt>
      <trkpt lat="45.25977" lon="5.90555">
        <ele>281.2</ele>
        <time>2014-10-18T16:44:29Z</time>
      </trkpt>
      <trkpt lat="45.25987" lon="5.90544">
        <ele>280.8</ele>
        <time>2014-10-18T16:44:31Z</time>
      </trkpt>
      <trkpt lat="45.25997" lon="5.90532">
        <ele>280.4</ele>
        <time>2014-10-18T16:44:33Z</time>
      </trkpt>
      <trkpt lat="45.26007" lon="5.90522">
        <ele>280.1</ele>
        <time>2014-10-18T16:44:35Z</time>
      </trkpt>
      <trkpt lat="45.26017" lon="5.90511">
        <ele>279.8</ele>
        <time>2014-10-18T16:44:37Z</time>
      </trkpt>
      <trkpt lat="45.26026" lon="5.90499">
        <ele>279.5</ele>
        <time>2014-10-18T16:44:39Z</time>
      </trkpt>
      <trkpt lat="45.26036" lon="5.90488">
        <ele>278.7</ele>
        <time>2014-10-18T16:44:41Z</time>
      </trkpt>
      <trkpt lat="45.26045" lon="5.90478">
        <ele>278.7</ele>
        <time>2014-10-18T16:44:43Z</time>
      </trkpt>
      <trkpt lat="45.26053" lon="5.90468">
        <ele>278</ele>
        <time>2014-10-18T16:44:45Z</time>
      </trkpt>
      <trkpt lat="45.26062" lon="5.90458">
        <ele>277.8</ele>
        <time>2014-10-18T16:44:47Z</time>
      </trkpt>
      <trkpt lat="45.26071" lon="5.90447">
        <ele>277.7</ele>
        <time>2014-10-18T16:44:49Z</time>
      </trkpt>
      <trkpt lat="45.2608" lon="5.90438">
        <ele>277.3</ele>
        <time>2014-10-18T16:44:51Z</time>
      </trkpt>
      <trkpt lat="45.26088" lon="5.90429">
        <ele>277.1</ele>
        <time>2014-10-18T16:44:53Z</time>
      </trkpt>
      <trkpt lat="45.26095" lon="5.9042">
        <ele>276.7</ele>
        <time>2014-10-18T16:44:55Z</time>
      </trkpt>
      <trkpt lat="45.26102" lon="5.90412">
        <ele>276.5</ele>
        <time>2014-10-18T16:44:57Z</time>
      </trkpt>
      <trkpt lat="45.26111" lon="5.90399">
        <ele>276.2</ele>
        <time>2014-10-18T16:45:00Z</time>
      </trkpt>
      <trkpt lat="45.2612" lon="5.90391">
        <ele>276</ele>
        <time>2014-10-18T16:45:02Z</time>
      </trkpt>
      <trkpt lat="45.26128" lon="5.90382">
        <ele>275.6</ele>
        <time>2014-10-18T16:45:04Z</time>
      </trkpt>
      <trkpt lat="45.26137" lon="5.90372">
        <ele>275.7</ele>
        <time>2014-10-18T16:45:06Z</time>
      </trkpt>
      <trkpt lat="45.26147" lon="5.90361">
        <ele>275.5</ele>
        <time>2014-10-18T16:45:08Z</time>
      </trkpt>
      <trkpt lat="45.26157" lon="5.90349">
        <ele>275.4</ele>
        <time>2014-10-18T16:45:10Z</time>
      </trkpt>
      <trkpt lat="45.26168" lon="5.90338">
        <ele>275.1</ele>
        <time>2014-10-18T16:45:12Z</time>
      </trkpt>
      <trkpt lat="45.26178" lon="5.90325">
        <ele>275.1</ele>
        <time>2014-10-18T16:45:14Z</time>
      </trkpt>
      <trkpt lat="45.26188" lon="5.90313">
        <ele>275.1</ele>
        <time>2014-10-18T16:45:16Z</time>
      </trkpt>
      <trkpt lat="45.26198" lon="5.90301">
        <ele>275</ele>
        <time>2014-10-18T16:45:18Z</time>
      </trkpt>
      <trkpt lat="45.26208" lon="5.9029">
        <ele>274.9</ele>
        <time>2014-10-18T16:45:20Z</time>
      </trkpt>
      <trkpt lat="45.26218" lon="5.90279">
        <ele>274.9</ele>
        <time>2014-10-18T16:45:22Z</time>
      </trkpt>
      <trkpt lat="45.26227" lon="5.90268">
        <ele>274.9</ele>
        <time>2014-10-18T16:45:24Z</time>
      </trkpt>
      <trkpt lat="45.26236" lon="5.90257">
        <ele>275</ele>
        <time>2014-10-18T16:45:26Z</time>
      </trkpt>
      <trkpt lat="45.26245" lon="5.90246">
        <ele>275</ele>
        <time>2014-10-18T16:45:28Z</time>
      </trkpt>
      <trkpt lat="45.26253" lon="5.90236">
        <ele>275</ele>
        <time>2014-10-18T16:45:30Z</time>
      </trkpt>
      <trkpt lat="45.2626" lon="5.90225">
        <ele>275.2</ele>
        <time>2014-10-18T16:45:32Z</time>
      </trkpt>
      <trkpt lat="45.26266" lon="5.90215">
        <ele>275.4</ele>
        <time>2014-10-18T16:45:34Z</time>
      </trkpt>
      <trkpt lat="45.2627" lon="5.90202">
        <ele>275.4</ele>
        <time>2014-10-18T16:45:36Z</time>
      </trkpt>
      <trkpt lat="45.2627" lon="5.90188">
        <ele>275.5</ele>
        <time>2014-10-18T16:45:38Z</time>
      </trkpt>
      <trkpt lat="45.26265" lon="5.90177">
        <ele>275.4</ele>
        <time>2014-10-18T16:45:40Z</time>
      </trkpt>
      <trkpt lat="45.26256" lon="5.90164">
        <ele>275.2</ele>
        <time>2014-10-18T16:45:43Z</time>
      </trkpt>
      <trkpt lat="45.26249" lon="5.90156">
        <ele>275</ele>
        <time>2014-10-18T16:45:47Z</time>
      </trkpt>
      <trkpt lat="45.26241" lon="5.90144">
        <ele>275.1</ele>
        <time>2014-10-18T16:45:51Z</time>
      </trkpt>
      <trkpt lat="45.26239" lon="5.90132">
        <ele>275.1</ele>
        <time>2014-10-18T16:45:55Z</time>
      </trkpt>
      <trkpt lat="45.26248" lon="5.90133">
        <ele>274.7</ele>
        <time>2014-10-18T16:46:06Z</time>
      </trkpt>
      <trkpt lat="45.26258" lon="5.9013">
        <ele>270</ele>
        <time>2014-10-18T16:49:09Z</time>
      </trkpt>
      <trkpt lat="45.2626" lon="5.90127">
        <ele>270.6</ele>
        <time>2014-10-18T16:49:32Z</time>
      </trkpt>
    </trkseg>
  </trk>
</gpx>